<?xml version="1.0" encoding="UTF-8" standalone="no" ?>
<gpx xmlns="http://www.topografix.com/GPX/1/1" xmlns:xsi="http://www.w3.org/2001/XMLSchema-instance" xsi:schemaLocation="http://www.topografix.com/GPX/1/1 http://www.topografix.com/GPX/1/1/gpx.xsd" version="1.1" creator="VisuGPX - https://www.visugpx.com">
  <metadata>
    <name>DUT2018.......</name>
    <desc><![CDATA[Dalmacija ultra trail 2018------]]></desc>
  </metadata>
  <trk>
    <name><![CDATA[Dalmacija Ultra-Trail® 2018 - Mountain Dut sur TraceDeTrail.fr]]></name>
    <trkseg>
      <trkpt lat="43.55955" lon="16.52235">
        <ele>291.016</ele>
        <time>2018-10-03T16:27:52Z</time>
      </trkpt>
      <trkpt lat="43.55957" lon="16.52232">
        <ele>291.076</ele>
        <time>2018-10-03T16:28:12Z</time>
      </trkpt>
      <trkpt lat="43.55958" lon="16.5223">
        <ele>291.013</ele>
        <time>2018-10-03T16:28:32Z</time>
      </trkpt>
      <trkpt lat="43.5597" lon="16.52222">
        <ele>295.008</ele>
        <time>2018-10-03T16:28:52Z</time>
      </trkpt>
      <trkpt lat="43.55976" lon="16.52224">
        <ele>297.063</ele>
        <time>2018-10-03T16:29:12Z</time>
      </trkpt>
      <trkpt lat="43.5598" lon="16.52227">
        <ele>298.01</ele>
        <time>2018-10-03T16:29:32Z</time>
      </trkpt>
      <trkpt lat="43.55981" lon="16.52227">
        <ele>299.053</ele>
        <time>2018-10-03T16:29:52Z</time>
      </trkpt>
      <trkpt lat="43.55983" lon="16.5223">
        <ele>300.065</ele>
        <time>2018-10-03T16:30:12Z</time>
      </trkpt>
      <trkpt lat="43.55985" lon="16.52232">
        <ele>300.083</ele>
        <time>2018-10-03T16:30:32Z</time>
      </trkpt>
      <trkpt lat="43.55995" lon="16.52238">
        <ele>304.044</ele>
        <time>2018-10-03T16:30:52Z</time>
      </trkpt>
      <trkpt lat="43.55999" lon="16.52239">
        <ele>306.064</ele>
        <time>2018-10-03T16:31:12Z</time>
      </trkpt>
      <trkpt lat="43.56006" lon="16.52242">
        <ele>308.053</ele>
        <time>2018-10-03T16:31:32Z</time>
      </trkpt>
      <trkpt lat="43.56013" lon="16.52245">
        <ele>311.056</ele>
        <time>2018-10-03T16:31:52Z</time>
      </trkpt>
      <trkpt lat="43.56021" lon="16.52247">
        <ele>312.059</ele>
        <time>2018-10-03T16:32:12Z</time>
      </trkpt>
      <trkpt lat="43.56028" lon="16.52248">
        <ele>311.014</ele>
        <time>2018-10-03T16:32:32Z</time>
      </trkpt>
      <trkpt lat="43.56044" lon="16.52248">
        <ele>310.008</ele>
        <time>2018-10-03T16:32:52Z</time>
      </trkpt>
      <trkpt lat="43.56052" lon="16.52249">
        <ele>309.067</ele>
        <time>2018-10-03T16:33:12Z</time>
      </trkpt>
      <trkpt lat="43.56058" lon="16.52249">
        <ele>309.034</ele>
        <time>2018-10-03T16:33:32Z</time>
      </trkpt>
      <trkpt lat="43.56068" lon="16.52242">
        <ele>308.057</ele>
        <time>2018-10-03T16:33:52Z</time>
      </trkpt>
      <trkpt lat="43.56073" lon="16.52236">
        <ele>308.019</ele>
        <time>2018-10-03T16:34:12Z</time>
      </trkpt>
      <trkpt lat="43.56072" lon="16.52234">
        <ele>302.077</ele>
        <time>2018-10-03T16:34:32Z</time>
      </trkpt>
      <trkpt lat="43.56069" lon="16.52233">
        <ele>302.068</ele>
        <time>2018-10-03T16:34:52Z</time>
      </trkpt>
      <trkpt lat="43.56054" lon="16.52225">
        <ele>302.088</ele>
        <time>2018-10-03T16:35:12Z</time>
      </trkpt>
      <trkpt lat="43.56055" lon="16.52224">
        <ele>302.027</ele>
        <time>2018-10-03T16:35:32Z</time>
      </trkpt>
      <trkpt lat="43.5605" lon="16.52215">
        <ele>302.094</ele>
        <time>2018-10-03T16:35:52Z</time>
      </trkpt>
      <trkpt lat="43.56044" lon="16.52206">
        <ele>302.057</ele>
        <time>2018-10-03T16:36:12Z</time>
      </trkpt>
      <trkpt lat="43.56024" lon="16.52207">
        <ele>302.022</ele>
        <time>2018-10-03T16:36:32Z</time>
      </trkpt>
      <trkpt lat="43.56012" lon="16.52204">
        <ele>303.008</ele>
        <time>2018-10-03T16:36:52Z</time>
      </trkpt>
      <trkpt lat="43.56008" lon="16.52202">
        <ele>303.061</ele>
        <time>2018-10-03T16:37:12Z</time>
      </trkpt>
      <trkpt lat="43.55999" lon="16.52198">
        <ele>303.098</ele>
        <time>2018-10-03T16:37:32Z</time>
      </trkpt>
      <trkpt lat="43.55981" lon="16.5219">
        <ele>302.031</ele>
        <time>2018-10-03T16:37:52Z</time>
      </trkpt>
      <trkpt lat="43.55972" lon="16.52182">
        <ele>302.073</ele>
        <time>2018-10-03T16:38:12Z</time>
      </trkpt>
      <trkpt lat="43.55961" lon="16.5216">
        <ele>303.051</ele>
        <time>2018-10-03T16:38:32Z</time>
      </trkpt>
      <trkpt lat="43.55948" lon="16.52142">
        <ele>304.072</ele>
        <time>2018-10-03T16:38:52Z</time>
      </trkpt>
      <trkpt lat="43.55947" lon="16.5214">
        <ele>304.082</ele>
        <time>2018-10-03T16:39:12Z</time>
      </trkpt>
      <trkpt lat="43.5594" lon="16.5214">
        <ele>303.021</ele>
        <time>2018-10-03T16:39:32Z</time>
      </trkpt>
      <trkpt lat="43.55937" lon="16.5215">
        <ele>302.058</ele>
        <time>2018-10-03T16:39:52Z</time>
      </trkpt>
      <trkpt lat="43.55939" lon="16.5216">
        <ele>301.052</ele>
        <time>2018-10-03T16:40:12Z</time>
      </trkpt>
      <trkpt lat="43.5594" lon="16.52169">
        <ele>300.017</ele>
        <time>2018-10-03T16:40:32Z</time>
      </trkpt>
      <trkpt lat="43.55941" lon="16.52176">
        <ele>297.008</ele>
        <time>2018-10-03T16:40:52Z</time>
      </trkpt>
      <trkpt lat="43.5594" lon="16.52178">
        <ele>296.017</ele>
        <time>2018-10-03T16:41:12Z</time>
      </trkpt>
      <trkpt lat="43.55939" lon="16.52181">
        <ele>294.064</ele>
        <time>2018-10-03T16:41:32Z</time>
      </trkpt>
      <trkpt lat="43.55937" lon="16.52184">
        <ele>292.047</ele>
        <time>2018-10-03T16:41:52Z</time>
      </trkpt>
      <trkpt lat="43.55934" lon="16.52189">
        <ele>290.069</ele>
        <time>2018-10-03T16:42:12Z</time>
      </trkpt>
      <trkpt lat="43.5593" lon="16.52196">
        <ele>288.077</ele>
        <time>2018-10-03T16:42:32Z</time>
      </trkpt>
      <trkpt lat="43.55929" lon="16.52198">
        <ele>287.058</ele>
        <time>2018-10-03T16:42:52Z</time>
      </trkpt>
      <trkpt lat="43.55926" lon="16.52197">
        <ele>284.028</ele>
        <time>2018-10-03T16:43:12Z</time>
      </trkpt>
      <trkpt lat="43.55923" lon="16.52196">
        <ele>283.017</ele>
        <time>2018-10-03T16:43:32Z</time>
      </trkpt>
      <trkpt lat="43.55922" lon="16.52203">
        <ele>280.024</ele>
        <time>2018-10-03T16:43:52Z</time>
      </trkpt>
      <trkpt lat="43.55922" lon="16.52204">
        <ele>279.004</ele>
        <time>2018-10-03T16:44:12Z</time>
      </trkpt>
      <trkpt lat="43.55923" lon="16.52205">
        <ele>279.014</ele>
        <time>2018-10-03T16:44:32Z</time>
      </trkpt>
      <trkpt lat="43.55921" lon="16.52207">
        <ele>277.008</ele>
        <time>2018-10-03T16:44:52Z</time>
      </trkpt>
      <trkpt lat="43.55917" lon="16.52211">
        <ele>275.024</ele>
        <time>2018-10-03T16:45:12Z</time>
      </trkpt>
      <trkpt lat="43.55914" lon="16.52215">
        <ele>274.021</ele>
        <time>2018-10-03T16:45:32Z</time>
      </trkpt>
      <trkpt lat="43.55912" lon="16.52218">
        <ele>273.014</ele>
        <time>2018-10-03T16:45:52Z</time>
      </trkpt>
      <trkpt lat="43.55911" lon="16.52231">
        <ele>270.096</ele>
        <time>2018-10-03T16:46:12Z</time>
      </trkpt>
      <trkpt lat="43.55911" lon="16.52244">
        <ele>268.044</ele>
        <time>2018-10-03T16:46:32Z</time>
      </trkpt>
      <trkpt lat="43.55912" lon="16.52258">
        <ele>267.055</ele>
        <time>2018-10-03T16:46:52Z</time>
      </trkpt>
      <trkpt lat="43.55913" lon="16.52266">
        <ele>266.065</ele>
        <time>2018-10-03T16:47:12Z</time>
      </trkpt>
      <trkpt lat="43.55912" lon="16.52267">
        <ele>266.094</ele>
        <time>2018-10-03T16:47:32Z</time>
      </trkpt>
      <trkpt lat="43.55911" lon="16.52264">
        <ele>265.024</ele>
        <time>2018-10-03T16:47:52Z</time>
      </trkpt>
      <trkpt lat="43.55906" lon="16.52267">
        <ele>262.004</ele>
        <time>2018-10-03T16:48:12Z</time>
      </trkpt>
      <trkpt lat="43.55899" lon="16.52277">
        <ele>260.014</ele>
        <time>2018-10-03T16:48:32Z</time>
      </trkpt>
      <trkpt lat="43.55895" lon="16.52281">
        <ele>259.008</ele>
        <time>2018-10-03T16:48:52Z</time>
      </trkpt>
      <trkpt lat="43.55891" lon="16.52283">
        <ele>257.064</ele>
        <time>2018-10-03T16:49:12Z</time>
      </trkpt>
      <trkpt lat="43.55889" lon="16.52282">
        <ele>257.031</ele>
        <time>2018-10-03T16:49:32Z</time>
      </trkpt>
      <trkpt lat="43.5589" lon="16.52277">
        <ele>255.094</ele>
        <time>2018-10-03T16:49:52Z</time>
      </trkpt>
      <trkpt lat="43.55888" lon="16.52269">
        <ele>252.026</ele>
        <time>2018-10-03T16:50:12Z</time>
      </trkpt>
      <trkpt lat="43.55886" lon="16.52268">
        <ele>252.054</ele>
        <time>2018-10-03T16:50:32Z</time>
      </trkpt>
      <trkpt lat="43.55882" lon="16.52273">
        <ele>250.095</ele>
        <time>2018-10-03T16:50:52Z</time>
      </trkpt>
      <trkpt lat="43.55882" lon="16.52281">
        <ele>248.095</ele>
        <time>2018-10-03T16:51:12Z</time>
      </trkpt>
      <trkpt lat="43.55881" lon="16.52307">
        <ele>248.054</ele>
        <time>2018-10-03T16:51:32Z</time>
      </trkpt>
      <trkpt lat="43.55879" lon="16.52333">
        <ele>249.071</ele>
        <time>2018-10-03T16:51:52Z</time>
      </trkpt>
      <trkpt lat="43.55874" lon="16.52357">
        <ele>248.041</ele>
        <time>2018-10-03T16:52:12Z</time>
      </trkpt>
      <trkpt lat="43.55872" lon="16.52358">
        <ele>247.015</ele>
        <time>2018-10-03T16:52:32Z</time>
      </trkpt>
      <trkpt lat="43.55869" lon="16.52358">
        <ele>246.008</ele>
        <time>2018-10-03T16:52:52Z</time>
      </trkpt>
      <trkpt lat="43.55867" lon="16.52358">
        <ele>245.049</ele>
        <time>2018-10-03T16:53:12Z</time>
      </trkpt>
      <trkpt lat="43.55866" lon="16.52358">
        <ele>244.036</ele>
        <time>2018-10-03T16:53:32Z</time>
      </trkpt>
      <trkpt lat="43.55865" lon="16.52359">
        <ele>244.019</ele>
        <time>2018-10-03T16:53:52Z</time>
      </trkpt>
      <trkpt lat="43.55858" lon="16.52368">
        <ele>241.091</ele>
        <time>2018-10-03T16:54:12Z</time>
      </trkpt>
      <trkpt lat="43.55856" lon="16.52374">
        <ele>240.069</ele>
        <time>2018-10-03T16:54:32Z</time>
      </trkpt>
      <trkpt lat="43.55847" lon="16.52378">
        <ele>238.07</ele>
        <time>2018-10-03T16:54:52Z</time>
      </trkpt>
      <trkpt lat="43.55841" lon="16.52379">
        <ele>236.06</ele>
        <time>2018-10-03T16:55:12Z</time>
      </trkpt>
      <trkpt lat="43.55838" lon="16.52379">
        <ele>235.089</ele>
        <time>2018-10-03T16:55:32Z</time>
      </trkpt>
      <trkpt lat="43.55837" lon="16.5238">
        <ele>234.048</ele>
        <time>2018-10-03T16:55:52Z</time>
      </trkpt>
      <trkpt lat="43.55833" lon="16.5238">
        <ele>233.061</ele>
        <time>2018-10-03T16:56:12Z</time>
      </trkpt>
      <trkpt lat="43.55827" lon="16.52371">
        <ele>230.017</ele>
        <time>2018-10-03T16:56:32Z</time>
      </trkpt>
      <trkpt lat="43.55824" lon="16.52365">
        <ele>229.008</ele>
        <time>2018-10-03T16:56:52Z</time>
      </trkpt>
      <trkpt lat="43.55814" lon="16.52359">
        <ele>226.026</ele>
        <time>2018-10-03T16:57:12Z</time>
      </trkpt>
      <trkpt lat="43.55809" lon="16.52356">
        <ele>225.043</ele>
        <time>2018-10-03T16:57:32Z</time>
      </trkpt>
      <trkpt lat="43.55808" lon="16.52361">
        <ele>223.036</ele>
        <time>2018-10-03T16:57:52Z</time>
      </trkpt>
      <trkpt lat="43.55807" lon="16.52366">
        <ele>222.048</ele>
        <time>2018-10-03T16:58:12Z</time>
      </trkpt>
      <trkpt lat="43.55806" lon="16.52368">
        <ele>222.026</ele>
        <time>2018-10-03T16:58:32Z</time>
      </trkpt>
      <trkpt lat="43.55805" lon="16.52369">
        <ele>221.027</ele>
        <time>2018-10-03T16:58:52Z</time>
      </trkpt>
      <trkpt lat="43.55797" lon="16.52368">
        <ele>220.067</ele>
        <time>2018-10-03T16:59:12Z</time>
      </trkpt>
      <trkpt lat="43.55787" lon="16.52375">
        <ele>218.036</ele>
        <time>2018-10-03T16:59:32Z</time>
      </trkpt>
      <trkpt lat="43.55782" lon="16.52406">
        <ele>218.081</ele>
        <time>2018-10-03T16:59:52Z</time>
      </trkpt>
      <trkpt lat="43.5578" lon="16.52413">
        <ele>217.061</ele>
        <time>2018-10-03T17:00:12Z</time>
      </trkpt>
      <trkpt lat="43.55778" lon="16.52421">
        <ele>217.017</ele>
        <time>2018-10-03T17:00:32Z</time>
      </trkpt>
      <trkpt lat="43.55774" lon="16.52402">
        <ele>215.008</ele>
        <time>2018-10-03T17:00:52Z</time>
      </trkpt>
      <trkpt lat="43.55772" lon="16.52388">
        <ele>212.01</ele>
        <time>2018-10-03T17:01:12Z</time>
      </trkpt>
      <trkpt lat="43.55768" lon="16.52376">
        <ele>210.097</ele>
        <time>2018-10-03T17:01:32Z</time>
      </trkpt>
      <trkpt lat="43.55763" lon="16.5237">
        <ele>208.09</ele>
        <time>2018-10-03T17:01:52Z</time>
      </trkpt>
      <trkpt lat="43.55754" lon="16.52366">
        <ele>206.052</ele>
        <time>2018-10-03T17:02:12Z</time>
      </trkpt>
      <trkpt lat="43.55744" lon="16.52365">
        <ele>203.02</ele>
        <time>2018-10-03T17:02:32Z</time>
      </trkpt>
      <trkpt lat="43.55734" lon="16.52363">
        <ele>200.041</ele>
        <time>2018-10-03T17:02:52Z</time>
      </trkpt>
      <trkpt lat="43.55728" lon="16.52358">
        <ele>198.011</ele>
        <time>2018-10-03T17:03:12Z</time>
      </trkpt>
      <trkpt lat="43.55725" lon="16.52355">
        <ele>197.09</ele>
        <time>2018-10-03T17:03:32Z</time>
      </trkpt>
      <trkpt lat="43.5572" lon="16.52344">
        <ele>195.054</ele>
        <time>2018-10-03T17:03:52Z</time>
      </trkpt>
      <trkpt lat="43.55714" lon="16.5232">
        <ele>192.056</ele>
        <time>2018-10-03T17:04:12Z</time>
      </trkpt>
      <trkpt lat="43.55712" lon="16.52311">
        <ele>191.011</ele>
        <time>2018-10-03T17:04:32Z</time>
      </trkpt>
      <trkpt lat="43.5571" lon="16.52301">
        <ele>190.008</ele>
        <time>2018-10-03T17:04:52Z</time>
      </trkpt>
      <trkpt lat="43.55709" lon="16.52289">
        <ele>189.037</ele>
        <time>2018-10-03T17:05:12Z</time>
      </trkpt>
      <trkpt lat="43.55705" lon="16.52267">
        <ele>187.034</ele>
        <time>2018-10-03T17:05:32Z</time>
      </trkpt>
      <trkpt lat="43.55702" lon="16.52246">
        <ele>184.097</ele>
        <time>2018-10-03T17:05:52Z</time>
      </trkpt>
      <trkpt lat="43.55701" lon="16.52239">
        <ele>183.069</ele>
        <time>2018-10-03T17:06:12Z</time>
      </trkpt>
      <trkpt lat="43.55699" lon="16.52229">
        <ele>182.017</ele>
        <time>2018-10-03T17:06:32Z</time>
      </trkpt>
      <trkpt lat="43.55698" lon="16.52219">
        <ele>180.088</ele>
        <time>2018-10-03T17:06:52Z</time>
      </trkpt>
      <trkpt lat="43.55698" lon="16.52208">
        <ele>179.018</ele>
        <time>2018-10-03T17:07:12Z</time>
      </trkpt>
      <trkpt lat="43.55695" lon="16.52191">
        <ele>177.067</ele>
        <time>2018-10-03T17:07:32Z</time>
      </trkpt>
      <trkpt lat="43.55686" lon="16.52174">
        <ele>174.018</ele>
        <time>2018-10-03T17:07:52Z</time>
      </trkpt>
      <trkpt lat="43.55682" lon="16.52165">
        <ele>173.098</ele>
        <time>2018-10-03T17:08:12Z</time>
      </trkpt>
      <trkpt lat="43.55677" lon="16.52157">
        <ele>172.017</ele>
        <time>2018-10-03T17:08:32Z</time>
      </trkpt>
      <trkpt lat="43.55671" lon="16.52148">
        <ele>170.008</ele>
        <time>2018-10-03T17:08:52Z</time>
      </trkpt>
      <trkpt lat="43.55666" lon="16.52139">
        <ele>169.073</ele>
        <time>2018-10-03T17:09:12Z</time>
      </trkpt>
      <trkpt lat="43.5566" lon="16.52129">
        <ele>168.09</ele>
        <time>2018-10-03T17:09:32Z</time>
      </trkpt>
      <trkpt lat="43.55654" lon="16.52119">
        <ele>167.013</ele>
        <time>2018-10-03T17:09:52Z</time>
      </trkpt>
      <trkpt lat="43.55649" lon="16.52109">
        <ele>166.025</ele>
        <time>2018-10-03T17:10:12Z</time>
      </trkpt>
      <trkpt lat="43.55644" lon="16.521">
        <ele>164.043</ele>
        <time>2018-10-03T17:10:32Z</time>
      </trkpt>
      <trkpt lat="43.55636" lon="16.52089">
        <ele>163.064</ele>
        <time>2018-10-03T17:10:52Z</time>
      </trkpt>
      <trkpt lat="43.55629" lon="16.52078">
        <ele>162.044</ele>
        <time>2018-10-03T17:11:12Z</time>
      </trkpt>
      <trkpt lat="43.55622" lon="16.52068">
        <ele>160.073</ele>
        <time>2018-10-03T17:11:32Z</time>
      </trkpt>
      <trkpt lat="43.55616" lon="16.52061">
        <ele>160.016</ele>
        <time>2018-10-03T17:11:52Z</time>
      </trkpt>
      <trkpt lat="43.55607" lon="16.52053">
        <ele>158.076</ele>
        <time>2018-10-03T17:12:12Z</time>
      </trkpt>
      <trkpt lat="43.55595" lon="16.52043">
        <ele>156.013</ele>
        <time>2018-10-03T17:12:32Z</time>
      </trkpt>
      <trkpt lat="43.55587" lon="16.52038">
        <ele>155.008</ele>
        <time>2018-10-03T17:12:52Z</time>
      </trkpt>
      <trkpt lat="43.5558" lon="16.52032">
        <ele>154.053</ele>
        <time>2018-10-03T17:13:12Z</time>
      </trkpt>
      <trkpt lat="43.55574" lon="16.52025">
        <ele>153.07</ele>
        <time>2018-10-03T17:13:32Z</time>
      </trkpt>
      <trkpt lat="43.55564" lon="16.52013">
        <ele>151.083</ele>
        <time>2018-10-03T17:13:52Z</time>
      </trkpt>
      <trkpt lat="43.55556" lon="16.52001">
        <ele>150.025</ele>
        <time>2018-10-03T17:14:12Z</time>
      </trkpt>
      <trkpt lat="43.55546" lon="16.51983">
        <ele>148.013</ele>
        <time>2018-10-03T17:14:32Z</time>
      </trkpt>
      <trkpt lat="43.55542" lon="16.51973">
        <ele>147.024</ele>
        <time>2018-10-03T17:14:52Z</time>
      </trkpt>
      <trkpt lat="43.55533" lon="16.5196">
        <ele>146.024</ele>
        <time>2018-10-03T17:15:12Z</time>
      </trkpt>
      <trkpt lat="43.55526" lon="16.51955">
        <ele>145.033</ele>
        <time>2018-10-03T17:15:32Z</time>
      </trkpt>
      <trkpt lat="43.55519" lon="16.51953">
        <ele>144.061</ele>
        <time>2018-10-03T17:15:52Z</time>
      </trkpt>
      <trkpt lat="43.55504" lon="16.51947">
        <ele>142.021</ele>
        <time>2018-10-03T17:16:12Z</time>
      </trkpt>
      <trkpt lat="43.55498" lon="16.51943">
        <ele>140.013</ele>
        <time>2018-10-03T17:16:32Z</time>
      </trkpt>
      <trkpt lat="43.5549" lon="16.5194">
        <ele>139.008</ele>
        <time>2018-10-03T17:16:52Z</time>
      </trkpt>
      <trkpt lat="43.55475" lon="16.5194">
        <ele>137.088</ele>
        <time>2018-10-03T17:17:12Z</time>
      </trkpt>
      <trkpt lat="43.55462" lon="16.51941">
        <ele>135.015</ele>
        <time>2018-10-03T17:17:32Z</time>
      </trkpt>
      <trkpt lat="43.55451" lon="16.5194">
        <ele>134.018</ele>
        <time>2018-10-03T17:17:52Z</time>
      </trkpt>
      <trkpt lat="43.55443" lon="16.51938">
        <ele>133.09</ele>
        <time>2018-10-03T17:18:12Z</time>
      </trkpt>
      <trkpt lat="43.55435" lon="16.51937">
        <ele>132.038</ele>
        <time>2018-10-03T17:18:32Z</time>
      </trkpt>
      <trkpt lat="43.55424" lon="16.51936">
        <ele>131.079</ele>
        <time>2018-10-03T17:18:52Z</time>
      </trkpt>
      <trkpt lat="43.55415" lon="16.51936">
        <ele>130.069</ele>
        <time>2018-10-03T17:19:12Z</time>
      </trkpt>
      <trkpt lat="43.55412" lon="16.51937">
        <ele>129.078</ele>
        <time>2018-10-03T17:19:32Z</time>
      </trkpt>
      <trkpt lat="43.55401" lon="16.5196">
        <ele>129.085</ele>
        <time>2018-10-03T17:19:52Z</time>
      </trkpt>
      <trkpt lat="43.55394" lon="16.51985">
        <ele>130.089</ele>
        <time>2018-10-03T17:20:12Z</time>
      </trkpt>
      <trkpt lat="43.55391" lon="16.5201">
        <ele>129.017</ele>
        <time>2018-10-03T17:20:32Z</time>
      </trkpt>
      <trkpt lat="43.5539" lon="16.52022">
        <ele>128.008</ele>
        <time>2018-10-03T17:20:52Z</time>
      </trkpt>
      <trkpt lat="43.55392" lon="16.52047">
        <ele>128.06</ele>
        <time>2018-10-03T17:21:12Z</time>
      </trkpt>
      <trkpt lat="43.55393" lon="16.52059">
        <ele>127.017</ele>
        <time>2018-10-03T17:21:32Z</time>
      </trkpt>
      <trkpt lat="43.55395" lon="16.52086">
        <ele>128.08</ele>
        <time>2018-10-03T17:21:52Z</time>
      </trkpt>
      <trkpt lat="43.55399" lon="16.52112">
        <ele>128.032</ele>
        <time>2018-10-03T17:22:12Z</time>
      </trkpt>
      <trkpt lat="43.55404" lon="16.52138">
        <ele>127.07</ele>
        <time>2018-10-03T17:22:32Z</time>
      </trkpt>
      <trkpt lat="43.554" lon="16.5217">
        <ele>126.041</ele>
        <time>2018-10-03T17:22:52Z</time>
      </trkpt>
      <trkpt lat="43.55391" lon="16.52192">
        <ele>126.051</ele>
        <time>2018-10-03T17:23:12Z</time>
      </trkpt>
      <trkpt lat="43.55388" lon="16.52209">
        <ele>125.08</ele>
        <time>2018-10-03T17:23:32Z</time>
      </trkpt>
      <trkpt lat="43.55382" lon="16.52222">
        <ele>124.033</ele>
        <time>2018-10-03T17:23:52Z</time>
      </trkpt>
      <trkpt lat="43.55379" lon="16.52223">
        <ele>124.023</ele>
        <time>2018-10-03T17:24:12Z</time>
      </trkpt>
      <trkpt lat="43.5537" lon="16.5222">
        <ele>123.015</ele>
        <time>2018-10-03T17:24:32Z</time>
      </trkpt>
      <trkpt lat="43.55362" lon="16.52213">
        <ele>122.008</ele>
        <time>2018-10-03T17:24:52Z</time>
      </trkpt>
      <trkpt lat="43.55355" lon="16.52204">
        <ele>121.015</ele>
        <time>2018-10-03T17:25:12Z</time>
      </trkpt>
      <trkpt lat="43.5534" lon="16.5219">
        <ele>120.052</ele>
        <time>2018-10-03T17:25:32Z</time>
      </trkpt>
      <trkpt lat="43.55327" lon="16.52181">
        <ele>118.095</ele>
        <time>2018-10-03T17:25:52Z</time>
      </trkpt>
      <trkpt lat="43.55319" lon="16.52176">
        <ele>117.057</ele>
        <time>2018-10-03T17:26:12Z</time>
      </trkpt>
      <trkpt lat="43.5531" lon="16.5217">
        <ele>116.095</ele>
        <time>2018-10-03T17:26:32Z</time>
      </trkpt>
      <trkpt lat="43.55295" lon="16.52161">
        <ele>115.046</ele>
        <time>2018-10-03T17:26:52Z</time>
      </trkpt>
      <trkpt lat="43.55272" lon="16.52149">
        <ele>113.076</ele>
        <time>2018-10-03T17:27:12Z</time>
      </trkpt>
      <trkpt lat="43.55263" lon="16.52145">
        <ele>113.075</ele>
        <time>2018-10-03T17:27:32Z</time>
      </trkpt>
      <trkpt lat="43.55255" lon="16.5214">
        <ele>111.016</ele>
        <time>2018-10-03T17:27:52Z</time>
      </trkpt>
      <trkpt lat="43.55235" lon="16.52145">
        <ele>110.076</ele>
        <time>2018-10-03T17:28:12Z</time>
      </trkpt>
      <trkpt lat="43.55232" lon="16.52161">
        <ele>109.013</ele>
        <time>2018-10-03T17:28:32Z</time>
      </trkpt>
      <trkpt lat="43.5523" lon="16.52177">
        <ele>108.008</ele>
        <time>2018-10-03T17:28:52Z</time>
      </trkpt>
      <trkpt lat="43.55224" lon="16.52193">
        <ele>107.063</ele>
        <time>2018-10-03T17:29:12Z</time>
      </trkpt>
      <trkpt lat="43.55219" lon="16.52206">
        <ele>106.01</ele>
        <time>2018-10-03T17:29:32Z</time>
      </trkpt>
      <trkpt lat="43.55213" lon="16.52219">
        <ele>105.093</ele>
        <time>2018-10-03T17:29:52Z</time>
      </trkpt>
      <trkpt lat="43.55208" lon="16.52239">
        <ele>104.075</ele>
        <time>2018-10-03T17:30:12Z</time>
      </trkpt>
      <trkpt lat="43.55203" lon="16.5226">
        <ele>102.013</ele>
        <time>2018-10-03T17:30:32Z</time>
      </trkpt>
      <trkpt lat="43.552" lon="16.52273">
        <ele>102.084</ele>
        <time>2018-10-03T17:30:52Z</time>
      </trkpt>
      <trkpt lat="43.55194" lon="16.523">
        <ele>100.094</ele>
        <time>2018-10-03T17:31:12Z</time>
      </trkpt>
      <trkpt lat="43.55192" lon="16.52316">
        <ele>99.043</ele>
        <time>2018-10-03T17:31:32Z</time>
      </trkpt>
      <trkpt lat="43.55191" lon="16.52334">
        <ele>98.093</ele>
        <time>2018-10-03T17:31:52Z</time>
      </trkpt>
      <trkpt lat="43.55189" lon="16.52344">
        <ele>97.065</ele>
        <time>2018-10-03T17:32:12Z</time>
      </trkpt>
      <trkpt lat="43.55179" lon="16.52366">
        <ele>96.021</ele>
        <time>2018-10-03T17:32:32Z</time>
      </trkpt>
      <trkpt lat="43.55172" lon="16.52377">
        <ele>95.008</ele>
        <time>2018-10-03T17:32:52Z</time>
      </trkpt>
      <trkpt lat="43.5517" lon="16.52387">
        <ele>94.071</ele>
        <time>2018-10-03T17:33:12Z</time>
      </trkpt>
      <trkpt lat="43.55162" lon="16.52402">
        <ele>93.068</ele>
        <time>2018-10-03T17:33:32Z</time>
      </trkpt>
      <trkpt lat="43.55159" lon="16.5242">
        <ele>92.041</ele>
        <time>2018-10-03T17:33:52Z</time>
      </trkpt>
      <trkpt lat="43.55155" lon="16.52437">
        <ele>90.073</ele>
        <time>2018-10-03T17:34:12Z</time>
      </trkpt>
      <trkpt lat="43.55154" lon="16.52446">
        <ele>90.011</ele>
        <time>2018-10-03T17:34:32Z</time>
      </trkpt>
      <trkpt lat="43.55154" lon="16.5245">
        <ele>89.012</ele>
        <time>2018-10-03T17:34:52Z</time>
      </trkpt>
      <trkpt lat="43.55152" lon="16.52457">
        <ele>88.032</ele>
        <time>2018-10-03T17:35:12Z</time>
      </trkpt>
      <trkpt lat="43.55151" lon="16.52462">
        <ele>87.081</ele>
        <time>2018-10-03T17:35:32Z</time>
      </trkpt>
      <trkpt lat="43.5515" lon="16.52463">
        <ele>87.097</ele>
        <time>2018-10-03T17:35:52Z</time>
      </trkpt>
      <trkpt lat="43.55151" lon="16.52478">
        <ele>86.023</ele>
        <time>2018-10-03T17:36:12Z</time>
      </trkpt>
      <trkpt lat="43.55148" lon="16.52494">
        <ele>85.025</ele>
        <time>2018-10-03T17:36:32Z</time>
      </trkpt>
      <trkpt lat="43.55139" lon="16.52507">
        <ele>83.008</ele>
        <time>2018-10-03T17:36:52Z</time>
      </trkpt>
      <trkpt lat="43.5513" lon="16.52529">
        <ele>81.061</ele>
        <time>2018-10-03T17:37:12Z</time>
      </trkpt>
      <trkpt lat="43.55126" lon="16.52539">
        <ele>79.028</ele>
        <time>2018-10-03T17:37:32Z</time>
      </trkpt>
      <trkpt lat="43.55128" lon="16.52557">
        <ele>77.041</ele>
        <time>2018-10-03T17:37:52Z</time>
      </trkpt>
      <trkpt lat="43.55129" lon="16.5256">
        <ele>76.043</ele>
        <time>2018-10-03T17:38:12Z</time>
      </trkpt>
      <trkpt lat="43.55129" lon="16.52562">
        <ele>76.081</ele>
        <time>2018-10-03T17:38:32Z</time>
      </trkpt>
      <trkpt lat="43.55133" lon="16.52567">
        <ele>75.072</ele>
        <time>2018-10-03T17:38:52Z</time>
      </trkpt>
      <trkpt lat="43.55134" lon="16.52568">
        <ele>76.062</ele>
        <time>2018-10-03T17:39:12Z</time>
      </trkpt>
      <trkpt lat="43.55141" lon="16.52576">
        <ele>76.051</ele>
        <time>2018-10-03T17:39:32Z</time>
      </trkpt>
      <trkpt lat="43.55151" lon="16.52598">
        <ele>77.027</ele>
        <time>2018-10-03T17:39:52Z</time>
      </trkpt>
      <trkpt lat="43.55156" lon="16.52606">
        <ele>77.068</ele>
        <time>2018-10-03T17:40:12Z</time>
      </trkpt>
      <trkpt lat="43.55162" lon="16.5262">
        <ele>77.014</ele>
        <time>2018-10-03T17:40:32Z</time>
      </trkpt>
      <trkpt lat="43.55163" lon="16.52623">
        <ele>78.008</ele>
        <time>2018-10-03T17:40:52Z</time>
      </trkpt>
      <trkpt lat="43.55165" lon="16.52634">
        <ele>78.064</ele>
        <time>2018-10-03T17:41:12Z</time>
      </trkpt>
      <trkpt lat="43.55168" lon="16.52639">
        <ele>78.021</ele>
        <time>2018-10-03T17:41:32Z</time>
      </trkpt>
      <trkpt lat="43.55171" lon="16.52645">
        <ele>79.074</ele>
        <time>2018-10-03T17:41:52Z</time>
      </trkpt>
      <trkpt lat="43.55184" lon="16.52661">
        <ele>79.046</ele>
        <time>2018-10-03T17:42:12Z</time>
      </trkpt>
      <trkpt lat="43.55186" lon="16.52667">
        <ele>79.024</ele>
        <time>2018-10-03T17:42:32Z</time>
      </trkpt>
      <trkpt lat="43.55188" lon="16.52672">
        <ele>80.035</ele>
        <time>2018-10-03T17:42:52Z</time>
      </trkpt>
      <trkpt lat="43.55194" lon="16.52681">
        <ele>80.085</ele>
        <time>2018-10-03T17:43:12Z</time>
      </trkpt>
      <trkpt lat="43.55202" lon="16.52694">
        <ele>80.024</ele>
        <time>2018-10-03T17:43:32Z</time>
      </trkpt>
      <trkpt lat="43.55208" lon="16.52703">
        <ele>81.051</ele>
        <time>2018-10-03T17:43:52Z</time>
      </trkpt>
      <trkpt lat="43.55214" lon="16.52714">
        <ele>81.001</ele>
        <time>2018-10-03T17:44:12Z</time>
      </trkpt>
      <trkpt lat="43.55218" lon="16.52728">
        <ele>81.011</ele>
        <time>2018-10-03T17:44:32Z</time>
      </trkpt>
      <trkpt lat="43.55218" lon="16.52731">
        <ele>81.008</ele>
        <time>2018-10-03T17:44:52Z</time>
      </trkpt>
      <trkpt lat="43.55227" lon="16.52748">
        <ele>82.017</ele>
        <time>2018-10-03T17:45:12Z</time>
      </trkpt>
      <trkpt lat="43.55229" lon="16.52751">
        <ele>83.094</ele>
        <time>2018-10-03T17:45:32Z</time>
      </trkpt>
      <trkpt lat="43.55243" lon="16.52757">
        <ele>83.097</ele>
        <time>2018-10-03T17:45:52Z</time>
      </trkpt>
      <trkpt lat="43.5525" lon="16.52753">
        <ele>84.099</ele>
        <time>2018-10-03T17:46:12Z</time>
      </trkpt>
      <trkpt lat="43.55255" lon="16.52753">
        <ele>84.097</ele>
        <time>2018-10-03T17:46:32Z</time>
      </trkpt>
      <trkpt lat="43.55269" lon="16.52752">
        <ele>85.098</ele>
        <time>2018-10-03T17:46:52Z</time>
      </trkpt>
      <trkpt lat="43.55285" lon="16.52749">
        <ele>86.048</ele>
        <time>2018-10-03T17:47:12Z</time>
      </trkpt>
      <trkpt lat="43.55295" lon="16.52753">
        <ele>86.097</ele>
        <time>2018-10-03T17:47:32Z</time>
      </trkpt>
      <trkpt lat="43.55301" lon="16.52774">
        <ele>87.092</ele>
        <time>2018-10-03T17:47:52Z</time>
      </trkpt>
      <trkpt lat="43.55303" lon="16.52778">
        <ele>87.073</ele>
        <time>2018-10-03T17:48:12Z</time>
      </trkpt>
      <trkpt lat="43.55309" lon="16.52786">
        <ele>87.02</ele>
        <time>2018-10-03T17:48:32Z</time>
      </trkpt>
      <trkpt lat="43.55306" lon="16.5279">
        <ele>88.008</ele>
        <time>2018-10-03T17:48:52Z</time>
      </trkpt>
      <trkpt lat="43.553" lon="16.52794">
        <ele>88.011</ele>
        <time>2018-10-03T17:49:12Z</time>
      </trkpt>
      <trkpt lat="43.55298" lon="16.52796">
        <ele>88.078</ele>
        <time>2018-10-03T17:49:32Z</time>
      </trkpt>
      <trkpt lat="43.55292" lon="16.52798">
        <ele>89.021</ele>
        <time>2018-10-03T17:49:52Z</time>
      </trkpt>
      <trkpt lat="43.55283" lon="16.52801">
        <ele>90.063</ele>
        <time>2018-10-03T17:50:12Z</time>
      </trkpt>
      <trkpt lat="43.55282" lon="16.52803">
        <ele>90.081</ele>
        <time>2018-10-03T17:50:32Z</time>
      </trkpt>
      <trkpt lat="43.55272" lon="16.52806">
        <ele>91.042</ele>
        <time>2018-10-03T17:50:52Z</time>
      </trkpt>
      <trkpt lat="43.5526" lon="16.52818">
        <ele>92.062</ele>
        <time>2018-10-03T17:51:12Z</time>
      </trkpt>
      <trkpt lat="43.55256" lon="16.5282">
        <ele>92.061</ele>
        <time>2018-10-03T17:51:32Z</time>
      </trkpt>
      <trkpt lat="43.55248" lon="16.52825">
        <ele>93.045</ele>
        <time>2018-10-03T17:51:52Z</time>
      </trkpt>
      <trkpt lat="43.55243" lon="16.52827">
        <ele>94.047</ele>
        <time>2018-10-03T17:52:12Z</time>
      </trkpt>
      <trkpt lat="43.55234" lon="16.5283">
        <ele>95.011</ele>
        <time>2018-10-03T17:52:32Z</time>
      </trkpt>
      <trkpt lat="43.55228" lon="16.52832">
        <ele>96.008</ele>
        <time>2018-10-03T17:52:52Z</time>
      </trkpt>
      <trkpt lat="43.55224" lon="16.52832">
        <ele>96.016</ele>
        <time>2018-10-03T17:53:12Z</time>
      </trkpt>
      <trkpt lat="43.55216" lon="16.52831">
        <ele>98.063</ele>
        <time>2018-10-03T17:53:32Z</time>
      </trkpt>
      <trkpt lat="43.55207" lon="16.5283">
        <ele>99.026</ele>
        <time>2018-10-03T17:53:52Z</time>
      </trkpt>
      <trkpt lat="43.552" lon="16.52828">
        <ele>100.078</ele>
        <time>2018-10-03T17:54:12Z</time>
      </trkpt>
      <trkpt lat="43.55195" lon="16.52828">
        <ele>100.036</ele>
        <time>2018-10-03T17:54:32Z</time>
      </trkpt>
      <trkpt lat="43.55185" lon="16.52827">
        <ele>102.017</ele>
        <time>2018-10-03T17:54:52Z</time>
      </trkpt>
      <trkpt lat="43.55179" lon="16.52827">
        <ele>103.077</ele>
        <time>2018-10-03T17:55:12Z</time>
      </trkpt>
      <trkpt lat="43.55169" lon="16.52824">
        <ele>105.056</ele>
        <time>2018-10-03T17:55:32Z</time>
      </trkpt>
      <trkpt lat="43.55164" lon="16.52821">
        <ele>106.035</ele>
        <time>2018-10-03T17:55:52Z</time>
      </trkpt>
      <trkpt lat="43.55158" lon="16.52819">
        <ele>107.086</ele>
        <time>2018-10-03T17:56:12Z</time>
      </trkpt>
      <trkpt lat="43.5515" lon="16.52815">
        <ele>108.014</ele>
        <time>2018-10-03T17:56:32Z</time>
      </trkpt>
      <trkpt lat="43.55141" lon="16.5281">
        <ele>109.008</ele>
        <time>2018-10-03T17:56:52Z</time>
      </trkpt>
      <trkpt lat="43.55135" lon="16.52808">
        <ele>110.095</ele>
        <time>2018-10-03T17:57:12Z</time>
      </trkpt>
      <trkpt lat="43.55129" lon="16.52804">
        <ele>111.082</ele>
        <time>2018-10-03T17:57:32Z</time>
      </trkpt>
      <trkpt lat="43.55111" lon="16.52802">
        <ele>113.065</ele>
        <time>2018-10-03T17:57:52Z</time>
      </trkpt>
      <trkpt lat="43.55109" lon="16.52802">
        <ele>113.047</ele>
        <time>2018-10-03T17:58:12Z</time>
      </trkpt>
      <trkpt lat="43.551" lon="16.52803">
        <ele>114.065</ele>
        <time>2018-10-03T17:58:32Z</time>
      </trkpt>
      <trkpt lat="43.55095" lon="16.52801">
        <ele>115.046</ele>
        <time>2018-10-03T17:58:52Z</time>
      </trkpt>
      <trkpt lat="43.55081" lon="16.528">
        <ele>117.076</ele>
        <time>2018-10-03T17:59:12Z</time>
      </trkpt>
      <trkpt lat="43.55075" lon="16.528">
        <ele>118.025</ele>
        <time>2018-10-03T17:59:32Z</time>
      </trkpt>
      <trkpt lat="43.55069" lon="16.528">
        <ele>119.056</ele>
        <time>2018-10-03T17:59:52Z</time>
      </trkpt>
      <trkpt lat="43.55055" lon="16.52801">
        <ele>121.059</ele>
        <time>2018-10-03T18:00:12Z</time>
      </trkpt>
      <trkpt lat="43.55048" lon="16.52801">
        <ele>122.014</ele>
        <time>2018-10-03T18:00:32Z</time>
      </trkpt>
      <trkpt lat="43.55039" lon="16.52804">
        <ele>123.008</ele>
        <time>2018-10-03T18:00:52Z</time>
      </trkpt>
      <trkpt lat="43.55032" lon="16.52805">
        <ele>124.017</ele>
        <time>2018-10-03T18:01:12Z</time>
      </trkpt>
      <trkpt lat="43.55025" lon="16.52807">
        <ele>125.024</ele>
        <time>2018-10-03T18:01:32Z</time>
      </trkpt>
      <trkpt lat="43.55016" lon="16.52808">
        <ele>126.087</ele>
        <time>2018-10-03T18:01:52Z</time>
      </trkpt>
      <trkpt lat="43.55011" lon="16.52808">
        <ele>127.029</ele>
        <time>2018-10-03T18:02:12Z</time>
      </trkpt>
      <trkpt lat="43.55003" lon="16.52811">
        <ele>128.047</ele>
        <time>2018-10-03T18:02:32Z</time>
      </trkpt>
      <trkpt lat="43.54996" lon="16.52812">
        <ele>129.068</ele>
        <time>2018-10-03T18:02:52Z</time>
      </trkpt>
      <trkpt lat="43.54991" lon="16.52812">
        <ele>130.048</ele>
        <time>2018-10-03T18:03:12Z</time>
      </trkpt>
      <trkpt lat="43.54985" lon="16.52814">
        <ele>131.057</ele>
        <time>2018-10-03T18:03:32Z</time>
      </trkpt>
      <trkpt lat="43.54978" lon="16.52816">
        <ele>132.073</ele>
        <time>2018-10-03T18:03:52Z</time>
      </trkpt>
      <trkpt lat="43.54973" lon="16.5282">
        <ele>133.085</ele>
        <time>2018-10-03T18:04:12Z</time>
      </trkpt>
      <trkpt lat="43.54969" lon="16.52825">
        <ele>133.013</ele>
        <time>2018-10-03T18:04:32Z</time>
      </trkpt>
      <trkpt lat="43.54961" lon="16.52833">
        <ele>135.008</ele>
        <time>2018-10-03T18:04:52Z</time>
      </trkpt>
      <trkpt lat="43.54953" lon="16.52837">
        <ele>136.039</ele>
        <time>2018-10-03T18:05:12Z</time>
      </trkpt>
      <trkpt lat="43.54948" lon="16.52839">
        <ele>137.036</ele>
        <time>2018-10-03T18:05:32Z</time>
      </trkpt>
      <trkpt lat="43.54941" lon="16.52845">
        <ele>138.019</ele>
        <time>2018-10-03T18:05:52Z</time>
      </trkpt>
      <trkpt lat="43.54935" lon="16.5285">
        <ele>139.011</ele>
        <time>2018-10-03T18:06:12Z</time>
      </trkpt>
      <trkpt lat="43.54929" lon="16.52854">
        <ele>139.069</ele>
        <time>2018-10-03T18:06:32Z</time>
      </trkpt>
      <trkpt lat="43.54926" lon="16.52857">
        <ele>140.01</ele>
        <time>2018-10-03T18:06:52Z</time>
      </trkpt>
      <trkpt lat="43.54919" lon="16.52864">
        <ele>141.05</ele>
        <time>2018-10-03T18:07:12Z</time>
      </trkpt>
      <trkpt lat="43.54913" lon="16.52871">
        <ele>142.069</ele>
        <time>2018-10-03T18:07:32Z</time>
      </trkpt>
      <trkpt lat="43.54906" lon="16.52881">
        <ele>143.014</ele>
        <time>2018-10-03T18:07:52Z</time>
      </trkpt>
      <trkpt lat="43.54901" lon="16.52887">
        <ele>144.054</ele>
        <time>2018-10-03T18:08:12Z</time>
      </trkpt>
      <trkpt lat="43.5489" lon="16.52902">
        <ele>146.009</ele>
        <time>2018-10-03T18:08:32Z</time>
      </trkpt>
      <trkpt lat="43.54888" lon="16.52904">
        <ele>148.008</ele>
        <time>2018-10-03T18:08:52Z</time>
      </trkpt>
      <trkpt lat="43.54886" lon="16.52905">
        <ele>149.043</ele>
        <time>2018-10-03T18:09:12Z</time>
      </trkpt>
      <trkpt lat="43.54879" lon="16.52908">
        <ele>150.06</ele>
        <time>2018-10-03T18:09:32Z</time>
      </trkpt>
      <trkpt lat="43.54877" lon="16.5291">
        <ele>150.073</ele>
        <time>2018-10-03T18:09:52Z</time>
      </trkpt>
      <trkpt lat="43.54872" lon="16.52913">
        <ele>151.025</ele>
        <time>2018-10-03T18:10:12Z</time>
      </trkpt>
      <trkpt lat="43.54867" lon="16.52914">
        <ele>152.083</ele>
        <time>2018-10-03T18:10:32Z</time>
      </trkpt>
      <trkpt lat="43.54847" lon="16.52915">
        <ele>151.014</ele>
        <time>2018-10-03T18:10:52Z</time>
      </trkpt>
      <trkpt lat="43.54843" lon="16.52915">
        <ele>151.094</ele>
        <time>2018-10-03T18:11:12Z</time>
      </trkpt>
      <trkpt lat="43.54828" lon="16.52913">
        <ele>151.053</ele>
        <time>2018-10-03T18:11:32Z</time>
      </trkpt>
      <trkpt lat="43.5481" lon="16.52913">
        <ele>151.043</ele>
        <time>2018-10-03T18:11:52Z</time>
      </trkpt>
      <trkpt lat="43.54792" lon="16.52919">
        <ele>151.064</ele>
        <time>2018-10-03T18:12:12Z</time>
      </trkpt>
      <trkpt lat="43.54774" lon="16.52925">
        <ele>150.01</ele>
        <time>2018-10-03T18:12:32Z</time>
      </trkpt>
      <trkpt lat="43.54758" lon="16.52932">
        <ele>150.008</ele>
        <time>2018-10-03T18:12:52Z</time>
      </trkpt>
      <trkpt lat="43.54748" lon="16.5294">
        <ele>150.016</ele>
        <time>2018-10-03T18:13:12Z</time>
      </trkpt>
      <trkpt lat="43.54735" lon="16.52952">
        <ele>150.083</ele>
        <time>2018-10-03T18:13:32Z</time>
      </trkpt>
      <trkpt lat="43.54723" lon="16.52968">
        <ele>149.066</ele>
        <time>2018-10-03T18:13:52Z</time>
      </trkpt>
      <trkpt lat="43.5471" lon="16.52988">
        <ele>148.018</ele>
        <time>2018-10-03T18:14:12Z</time>
      </trkpt>
      <trkpt lat="43.54704" lon="16.52996">
        <ele>148.036</ele>
        <time>2018-10-03T18:14:32Z</time>
      </trkpt>
      <trkpt lat="43.54686" lon="16.53022">
        <ele>147.047</ele>
        <time>2018-10-03T18:14:52Z</time>
      </trkpt>
      <trkpt lat="43.54669" lon="16.53039">
        <ele>146.097</ele>
        <time>2018-10-03T18:15:12Z</time>
      </trkpt>
      <trkpt lat="43.54661" lon="16.53046">
        <ele>146.066</ele>
        <time>2018-10-03T18:15:32Z</time>
      </trkpt>
      <trkpt lat="43.5464" lon="16.53056">
        <ele>145.041</ele>
        <time>2018-10-03T18:15:52Z</time>
      </trkpt>
      <trkpt lat="43.54623" lon="16.53058">
        <ele>145.081</ele>
        <time>2018-10-03T18:16:12Z</time>
      </trkpt>
      <trkpt lat="43.54604" lon="16.53056">
        <ele>144.009</ele>
        <time>2018-10-03T18:16:32Z</time>
      </trkpt>
      <trkpt lat="43.54592" lon="16.53053">
        <ele>143.008</ele>
        <time>2018-10-03T18:16:52Z</time>
      </trkpt>
      <trkpt lat="43.54568" lon="16.53036">
        <ele>142.036</ele>
        <time>2018-10-03T18:17:12Z</time>
      </trkpt>
      <trkpt lat="43.54554" lon="16.53021">
        <ele>142.093</ele>
        <time>2018-10-03T18:17:32Z</time>
      </trkpt>
      <trkpt lat="43.54543" lon="16.53">
        <ele>142.056</ele>
        <time>2018-10-03T18:17:52Z</time>
      </trkpt>
      <trkpt lat="43.54536" lon="16.52982">
        <ele>141.048</ele>
        <time>2018-10-03T18:18:12Z</time>
      </trkpt>
      <trkpt lat="43.54526" lon="16.52955">
        <ele>141.096</ele>
        <time>2018-10-03T18:18:32Z</time>
      </trkpt>
      <trkpt lat="43.5452" lon="16.52938">
        <ele>140.057</ele>
        <time>2018-10-03T18:18:52Z</time>
      </trkpt>
      <trkpt lat="43.54512" lon="16.52915">
        <ele>140.017</ele>
        <time>2018-10-03T18:19:12Z</time>
      </trkpt>
      <trkpt lat="43.54506" lon="16.52891">
        <ele>140.026</ele>
        <time>2018-10-03T18:19:32Z</time>
      </trkpt>
      <trkpt lat="43.54502" lon="16.52869">
        <ele>139.082</ele>
        <time>2018-10-03T18:19:52Z</time>
      </trkpt>
      <trkpt lat="43.54497" lon="16.52843">
        <ele>139.043</ele>
        <time>2018-10-03T18:20:12Z</time>
      </trkpt>
      <trkpt lat="43.54495" lon="16.52822">
        <ele>138.017</ele>
        <time>2018-10-03T18:20:32Z</time>
      </trkpt>
      <trkpt lat="43.54495" lon="16.52793">
        <ele>139.008</ele>
        <time>2018-10-03T18:20:52Z</time>
      </trkpt>
      <trkpt lat="43.545" lon="16.52768">
        <ele>138.04</ele>
        <time>2018-10-03T18:21:12Z</time>
      </trkpt>
      <trkpt lat="43.54513" lon="16.52738">
        <ele>137.097</ele>
        <time>2018-10-03T18:21:32Z</time>
      </trkpt>
      <trkpt lat="43.54527" lon="16.52715">
        <ele>136.04</ele>
        <time>2018-10-03T18:21:52Z</time>
      </trkpt>
      <trkpt lat="43.54538" lon="16.52685">
        <ele>135.072</ele>
        <time>2018-10-03T18:22:12Z</time>
      </trkpt>
      <trkpt lat="43.54547" lon="16.52658">
        <ele>134.07</ele>
        <time>2018-10-03T18:22:32Z</time>
      </trkpt>
      <trkpt lat="43.54548" lon="16.52633">
        <ele>134.071</ele>
        <time>2018-10-03T18:22:52Z</time>
      </trkpt>
      <trkpt lat="43.54549" lon="16.52606">
        <ele>134.021</ele>
        <time>2018-10-03T18:23:12Z</time>
      </trkpt>
      <trkpt lat="43.54544" lon="16.52581">
        <ele>133.05</ele>
        <time>2018-10-03T18:23:32Z</time>
      </trkpt>
      <trkpt lat="43.54539" lon="16.52565">
        <ele>133.093</ele>
        <time>2018-10-03T18:23:52Z</time>
      </trkpt>
      <trkpt lat="43.54527" lon="16.52542">
        <ele>132.065</ele>
        <time>2018-10-03T18:24:12Z</time>
      </trkpt>
      <trkpt lat="43.54518" lon="16.52529">
        <ele>132.021</ele>
        <time>2018-10-03T18:24:32Z</time>
      </trkpt>
      <trkpt lat="43.54501" lon="16.52513">
        <ele>131.008</ele>
        <time>2018-10-03T18:24:52Z</time>
      </trkpt>
      <trkpt lat="43.54492" lon="16.52503">
        <ele>131.011</ele>
        <time>2018-10-03T18:25:12Z</time>
      </trkpt>
      <trkpt lat="43.54491" lon="16.52499">
        <ele>132.088</ele>
        <time>2018-10-03T18:25:32Z</time>
      </trkpt>
      <trkpt lat="43.54489" lon="16.52499">
        <ele>132.061</ele>
        <time>2018-10-03T18:25:52Z</time>
      </trkpt>
      <trkpt lat="43.54487" lon="16.52497">
        <ele>132.093</ele>
        <time>2018-10-03T18:26:12Z</time>
      </trkpt>
      <trkpt lat="43.54483" lon="16.52497">
        <ele>131.061</ele>
        <time>2018-10-03T18:26:32Z</time>
      </trkpt>
      <trkpt lat="43.54481" lon="16.52495">
        <ele>131.022</ele>
        <time>2018-10-03T18:26:52Z</time>
      </trkpt>
      <trkpt lat="43.54476" lon="16.52489">
        <ele>132.012</ele>
        <time>2018-10-03T18:27:12Z</time>
      </trkpt>
      <trkpt lat="43.54471" lon="16.52487">
        <ele>132.041</ele>
        <time>2018-10-03T18:27:32Z</time>
      </trkpt>
      <trkpt lat="43.54467" lon="16.52485">
        <ele>132.018</ele>
        <time>2018-10-03T18:27:52Z</time>
      </trkpt>
      <trkpt lat="43.54463" lon="16.52475">
        <ele>133.098</ele>
        <time>2018-10-03T18:28:12Z</time>
      </trkpt>
      <trkpt lat="43.54454" lon="16.52474">
        <ele>133.017</ele>
        <time>2018-10-03T18:28:32Z</time>
      </trkpt>
      <trkpt lat="43.54449" lon="16.52473">
        <ele>134.008</ele>
        <time>2018-10-03T18:28:52Z</time>
      </trkpt>
      <trkpt lat="43.54443" lon="16.5247">
        <ele>135.073</ele>
        <time>2018-10-03T18:29:12Z</time>
      </trkpt>
      <trkpt lat="43.54438" lon="16.52472">
        <ele>135.02</ele>
        <time>2018-10-03T18:29:32Z</time>
      </trkpt>
      <trkpt lat="43.54422" lon="16.52464">
        <ele>135.073</ele>
        <time>2018-10-03T18:29:52Z</time>
      </trkpt>
      <trkpt lat="43.5442" lon="16.52463">
        <ele>135.065</ele>
        <time>2018-10-03T18:30:12Z</time>
      </trkpt>
      <trkpt lat="43.54412" lon="16.52465">
        <ele>134.073</ele>
        <time>2018-10-03T18:30:32Z</time>
      </trkpt>
      <trkpt lat="43.54404" lon="16.52471">
        <ele>133.074</ele>
        <time>2018-10-03T18:30:52Z</time>
      </trkpt>
      <trkpt lat="43.54394" lon="16.52476">
        <ele>130.014</ele>
        <time>2018-10-03T18:31:12Z</time>
      </trkpt>
      <trkpt lat="43.54382" lon="16.52487">
        <ele>129.023</ele>
        <time>2018-10-03T18:31:32Z</time>
      </trkpt>
      <trkpt lat="43.54374" lon="16.52495">
        <ele>128.013</ele>
        <time>2018-10-03T18:31:52Z</time>
      </trkpt>
      <trkpt lat="43.54364" lon="16.52495">
        <ele>126.043</ele>
        <time>2018-10-03T18:32:12Z</time>
      </trkpt>
      <trkpt lat="43.5436" lon="16.52492">
        <ele>125.007</ele>
        <time>2018-10-03T18:32:32Z</time>
      </trkpt>
      <trkpt lat="43.54351" lon="16.52477">
        <ele>124.008</ele>
        <time>2018-10-03T18:32:52Z</time>
      </trkpt>
      <trkpt lat="43.54349" lon="16.52463">
        <ele>124.023</ele>
        <time>2018-10-03T18:33:12Z</time>
      </trkpt>
      <trkpt lat="43.54347" lon="16.52441">
        <ele>125.04</ele>
        <time>2018-10-03T18:33:32Z</time>
      </trkpt>
      <trkpt lat="43.5434" lon="16.52432">
        <ele>125.053</ele>
        <time>2018-10-03T18:33:52Z</time>
      </trkpt>
      <trkpt lat="43.54339" lon="16.52432">
        <ele>125.045</ele>
        <time>2018-10-03T18:34:12Z</time>
      </trkpt>
      <trkpt lat="43.54338" lon="16.52431">
        <ele>126.023</ele>
        <time>2018-10-03T18:34:32Z</time>
      </trkpt>
      <trkpt lat="43.54331" lon="16.52439">
        <ele>126.034</ele>
        <time>2018-10-03T18:34:52Z</time>
      </trkpt>
      <trkpt lat="43.54318" lon="16.52447">
        <ele>127.034</ele>
        <time>2018-10-03T18:35:12Z</time>
      </trkpt>
      <trkpt lat="43.54312" lon="16.52449">
        <ele>129.033</ele>
        <time>2018-10-03T18:35:32Z</time>
      </trkpt>
      <trkpt lat="43.54309" lon="16.52449">
        <ele>130.016</ele>
        <time>2018-10-03T18:35:52Z</time>
      </trkpt>
      <trkpt lat="43.54307" lon="16.52449">
        <ele>130.076</ele>
        <time>2018-10-03T18:36:12Z</time>
      </trkpt>
      <trkpt lat="43.54305" lon="16.52452">
        <ele>131.013</ele>
        <time>2018-10-03T18:36:32Z</time>
      </trkpt>
      <trkpt lat="43.54305" lon="16.52453">
        <ele>132.008</ele>
        <time>2018-10-03T18:36:52Z</time>
      </trkpt>
      <trkpt lat="43.54303" lon="16.52451">
        <ele>133.043</ele>
        <time>2018-10-03T18:37:12Z</time>
      </trkpt>
      <trkpt lat="43.54302" lon="16.52452">
        <ele>133.06</ele>
        <time>2018-10-03T18:37:32Z</time>
      </trkpt>
      <trkpt lat="43.54299" lon="16.52453">
        <ele>134.063</ele>
        <time>2018-10-03T18:37:52Z</time>
      </trkpt>
      <trkpt lat="43.54295" lon="16.52451">
        <ele>135.085</ele>
        <time>2018-10-03T18:38:12Z</time>
      </trkpt>
      <trkpt lat="43.54293" lon="16.5245">
        <ele>136.063</ele>
        <time>2018-10-03T18:38:32Z</time>
      </trkpt>
      <trkpt lat="43.5429" lon="16.52449">
        <ele>136.034</ele>
        <time>2018-10-03T18:38:52Z</time>
      </trkpt>
      <trkpt lat="43.54287" lon="16.52449">
        <ele>137.064</ele>
        <time>2018-10-03T18:39:12Z</time>
      </trkpt>
      <trkpt lat="43.54285" lon="16.52453">
        <ele>138.083</ele>
        <time>2018-10-03T18:39:32Z</time>
      </trkpt>
      <trkpt lat="43.54284" lon="16.52453">
        <ele>138.068</ele>
        <time>2018-10-03T18:39:52Z</time>
      </trkpt>
      <trkpt lat="43.54284" lon="16.52454">
        <ele>139.042</ele>
        <time>2018-10-03T18:40:12Z</time>
      </trkpt>
      <trkpt lat="43.54281" lon="16.52458">
        <ele>140.026</ele>
        <time>2018-10-03T18:40:32Z</time>
      </trkpt>
      <trkpt lat="43.54278" lon="16.52464">
        <ele>142.008</ele>
        <time>2018-10-03T18:40:52Z</time>
      </trkpt>
      <trkpt lat="43.54276" lon="16.52467">
        <ele>144.088</ele>
        <time>2018-10-03T18:41:12Z</time>
      </trkpt>
      <trkpt lat="43.54271" lon="16.52469">
        <ele>145.045</ele>
        <time>2018-10-03T18:41:32Z</time>
      </trkpt>
      <trkpt lat="43.54269" lon="16.52471">
        <ele>147.028</ele>
        <time>2018-10-03T18:41:52Z</time>
      </trkpt>
      <trkpt lat="43.54264" lon="16.52475">
        <ele>149.01</ele>
        <time>2018-10-03T18:42:12Z</time>
      </trkpt>
      <trkpt lat="43.5426" lon="16.52478">
        <ele>151.078</ele>
        <time>2018-10-03T18:42:32Z</time>
      </trkpt>
      <trkpt lat="43.54256" lon="16.52483">
        <ele>154.019</ele>
        <time>2018-10-03T18:42:52Z</time>
      </trkpt>
      <trkpt lat="43.54255" lon="16.52485">
        <ele>155.079</ele>
        <time>2018-10-03T18:43:12Z</time>
      </trkpt>
      <trkpt lat="43.54254" lon="16.52485">
        <ele>156.068</ele>
        <time>2018-10-03T18:43:32Z</time>
      </trkpt>
      <trkpt lat="43.54249" lon="16.52483">
        <ele>158.083</ele>
        <time>2018-10-03T18:43:52Z</time>
      </trkpt>
      <trkpt lat="43.54245" lon="16.52479">
        <ele>160.025</ele>
        <time>2018-10-03T18:44:12Z</time>
      </trkpt>
      <trkpt lat="43.5424" lon="16.52483">
        <ele>162.017</ele>
        <time>2018-10-03T18:44:32Z</time>
      </trkpt>
      <trkpt lat="43.54237" lon="16.52488">
        <ele>163.008</ele>
        <time>2018-10-03T18:44:52Z</time>
      </trkpt>
      <trkpt lat="43.54232" lon="16.52491">
        <ele>166.06</ele>
        <time>2018-10-03T18:45:12Z</time>
      </trkpt>
      <trkpt lat="43.5423" lon="16.52489">
        <ele>168.077</ele>
        <time>2018-10-03T18:45:32Z</time>
      </trkpt>
      <trkpt lat="43.54229" lon="16.52487">
        <ele>168.05</ele>
        <time>2018-10-03T18:45:52Z</time>
      </trkpt>
      <trkpt lat="43.54227" lon="16.52486">
        <ele>169.072</ele>
        <time>2018-10-03T18:46:12Z</time>
      </trkpt>
      <trkpt lat="43.54221" lon="16.52488">
        <ele>170.03</ele>
        <time>2018-10-03T18:46:32Z</time>
      </trkpt>
      <trkpt lat="43.54219" lon="16.52492">
        <ele>171.051</ele>
        <time>2018-10-03T18:46:52Z</time>
      </trkpt>
      <trkpt lat="43.54216" lon="16.52494">
        <ele>173.041</ele>
        <time>2018-10-03T18:47:12Z</time>
      </trkpt>
      <trkpt lat="43.54214" lon="16.525">
        <ele>176.06</ele>
        <time>2018-10-03T18:47:32Z</time>
      </trkpt>
      <trkpt lat="43.54212" lon="16.52507">
        <ele>178.096</ele>
        <time>2018-10-03T18:47:52Z</time>
      </trkpt>
      <trkpt lat="43.5421" lon="16.52509">
        <ele>179.031</ele>
        <time>2018-10-03T18:48:12Z</time>
      </trkpt>
      <trkpt lat="43.54209" lon="16.5251">
        <ele>180.024</ele>
        <time>2018-10-03T18:48:32Z</time>
      </trkpt>
      <trkpt lat="43.54208" lon="16.52514">
        <ele>182.008</ele>
        <time>2018-10-03T18:48:52Z</time>
      </trkpt>
      <trkpt lat="43.54209" lon="16.52518">
        <ele>184.051</ele>
        <time>2018-10-03T18:49:12Z</time>
      </trkpt>
      <trkpt lat="43.54201" lon="16.52518">
        <ele>185.058</ele>
        <time>2018-10-03T18:49:32Z</time>
      </trkpt>
      <trkpt lat="43.54192" lon="16.52521">
        <ele>186.051</ele>
        <time>2018-10-03T18:49:52Z</time>
      </trkpt>
      <trkpt lat="43.54177" lon="16.52533">
        <ele>186.043</ele>
        <time>2018-10-03T18:50:12Z</time>
      </trkpt>
      <trkpt lat="43.54171" lon="16.5254">
        <ele>187.031</ele>
        <time>2018-10-03T18:50:32Z</time>
      </trkpt>
      <trkpt lat="43.5417" lon="16.52542">
        <ele>187.032</ele>
        <time>2018-10-03T18:50:52Z</time>
      </trkpt>
      <trkpt lat="43.54165" lon="16.52546">
        <ele>188.022</ele>
        <time>2018-10-03T18:51:12Z</time>
      </trkpt>
      <trkpt lat="43.54161" lon="16.52546">
        <ele>190.021</ele>
        <time>2018-10-03T18:51:32Z</time>
      </trkpt>
      <trkpt lat="43.54159" lon="16.52545">
        <ele>190.067</ele>
        <time>2018-10-03T18:51:52Z</time>
      </trkpt>
      <trkpt lat="43.54152" lon="16.52546">
        <ele>191.081</ele>
        <time>2018-10-03T18:52:12Z</time>
      </trkpt>
      <trkpt lat="43.54145" lon="16.52552">
        <ele>192.019</ele>
        <time>2018-10-03T18:52:32Z</time>
      </trkpt>
      <trkpt lat="43.54142" lon="16.52555">
        <ele>192.008</ele>
        <time>2018-10-03T18:52:52Z</time>
      </trkpt>
      <trkpt lat="43.54141" lon="16.52556">
        <ele>193.028</ele>
        <time>2018-10-03T18:53:12Z</time>
      </trkpt>
      <trkpt lat="43.54141" lon="16.52556">
        <ele>193.075</ele>
        <time>2018-10-03T18:53:32Z</time>
      </trkpt>
      <trkpt lat="43.54136" lon="16.52561">
        <ele>194.068</ele>
        <time>2018-10-03T18:53:52Z</time>
      </trkpt>
      <trkpt lat="43.54135" lon="16.52564">
        <ele>195.01</ele>
        <time>2018-10-03T18:54:12Z</time>
      </trkpt>
      <trkpt lat="43.54134" lon="16.52564">
        <ele>195.098</ele>
        <time>2018-10-03T18:54:32Z</time>
      </trkpt>
      <trkpt lat="43.54131" lon="16.52564">
        <ele>196.019</ele>
        <time>2018-10-03T18:54:52Z</time>
      </trkpt>
      <trkpt lat="43.54129" lon="16.52564">
        <ele>196.019</ele>
        <time>2018-10-03T18:55:12Z</time>
      </trkpt>
      <trkpt lat="43.54128" lon="16.52563">
        <ele>197.028</ele>
        <time>2018-10-03T18:55:32Z</time>
      </trkpt>
      <trkpt lat="43.54124" lon="16.52564">
        <ele>197.032</ele>
        <time>2018-10-03T18:55:52Z</time>
      </trkpt>
      <trkpt lat="43.54121" lon="16.52568">
        <ele>198.092</ele>
        <time>2018-10-03T18:56:12Z</time>
      </trkpt>
      <trkpt lat="43.54118" lon="16.52572">
        <ele>198.011</ele>
        <time>2018-10-03T18:56:32Z</time>
      </trkpt>
      <trkpt lat="43.54114" lon="16.52574">
        <ele>200.008</ele>
        <time>2018-10-03T18:56:52Z</time>
      </trkpt>
      <trkpt lat="43.54108" lon="16.52579">
        <ele>201.065</ele>
        <time>2018-10-03T18:57:12Z</time>
      </trkpt>
      <trkpt lat="43.54107" lon="16.5258">
        <ele>202.062</ele>
        <time>2018-10-03T18:57:32Z</time>
      </trkpt>
      <trkpt lat="43.54104" lon="16.52579">
        <ele>202.085</ele>
        <time>2018-10-03T18:57:52Z</time>
      </trkpt>
      <trkpt lat="43.54101" lon="16.52577">
        <ele>202.077</ele>
        <time>2018-10-03T18:58:12Z</time>
      </trkpt>
      <trkpt lat="43.54088" lon="16.52573">
        <ele>202.035</ele>
        <time>2018-10-03T18:58:32Z</time>
      </trkpt>
      <trkpt lat="43.54082" lon="16.52571">
        <ele>203.026</ele>
        <time>2018-10-03T18:58:52Z</time>
      </trkpt>
      <trkpt lat="43.5408" lon="16.52571">
        <ele>203.096</ele>
        <time>2018-10-03T18:59:12Z</time>
      </trkpt>
      <trkpt lat="43.54065" lon="16.52568">
        <ele>204.015</ele>
        <time>2018-10-03T18:59:32Z</time>
      </trkpt>
      <trkpt lat="43.54064" lon="16.52566">
        <ele>204.022</ele>
        <time>2018-10-03T18:59:52Z</time>
      </trkpt>
      <trkpt lat="43.54064" lon="16.52562">
        <ele>205.062</ele>
        <time>2018-10-03T19:00:12Z</time>
      </trkpt>
      <trkpt lat="43.54065" lon="16.52561">
        <ele>205.008</ele>
        <time>2018-10-03T19:00:32Z</time>
      </trkpt>
      <trkpt lat="43.54065" lon="16.52535">
        <ele>205.008</ele>
        <time>2018-10-03T19:00:52Z</time>
      </trkpt>
      <trkpt lat="43.54061" lon="16.5251">
        <ele>206.054</ele>
        <time>2018-10-03T19:01:12Z</time>
      </trkpt>
      <trkpt lat="43.5406" lon="16.52493">
        <ele>205.071</ele>
        <time>2018-10-03T19:01:32Z</time>
      </trkpt>
      <trkpt lat="43.54059" lon="16.52481">
        <ele>204.054</ele>
        <time>2018-10-03T19:01:52Z</time>
      </trkpt>
      <trkpt lat="43.54059" lon="16.52468">
        <ele>202.066</ele>
        <time>2018-10-03T19:02:12Z</time>
      </trkpt>
      <trkpt lat="43.54058" lon="16.52451">
        <ele>201.034</ele>
        <time>2018-10-03T19:02:32Z</time>
      </trkpt>
      <trkpt lat="43.54057" lon="16.52446">
        <ele>201.055</ele>
        <time>2018-10-03T19:02:52Z</time>
      </trkpt>
      <trkpt lat="43.54055" lon="16.52442">
        <ele>200.065</ele>
        <time>2018-10-03T19:03:12Z</time>
      </trkpt>
      <trkpt lat="43.54047" lon="16.52442">
        <ele>198.074</ele>
        <time>2018-10-03T19:03:32Z</time>
      </trkpt>
      <trkpt lat="43.54043" lon="16.52445">
        <ele>198.073</ele>
        <time>2018-10-03T19:03:52Z</time>
      </trkpt>
      <trkpt lat="43.54041" lon="16.52454">
        <ele>199.085</ele>
        <time>2018-10-03T19:04:12Z</time>
      </trkpt>
      <trkpt lat="43.54037" lon="16.52463">
        <ele>201.013</ele>
        <time>2018-10-03T19:04:32Z</time>
      </trkpt>
      <trkpt lat="43.54035" lon="16.52467">
        <ele>202.008</ele>
        <time>2018-10-03T19:04:52Z</time>
      </trkpt>
      <trkpt lat="43.54029" lon="16.52477">
        <ele>202.019</ele>
        <time>2018-10-03T19:05:12Z</time>
      </trkpt>
      <trkpt lat="43.54028" lon="16.5248">
        <ele>203.016</ele>
        <time>2018-10-03T19:05:32Z</time>
      </trkpt>
      <trkpt lat="43.54025" lon="16.52484">
        <ele>205.069</ele>
        <time>2018-10-03T19:05:52Z</time>
      </trkpt>
      <trkpt lat="43.54023" lon="16.52489">
        <ele>205.021</ele>
        <time>2018-10-03T19:06:12Z</time>
      </trkpt>
      <trkpt lat="43.54013" lon="16.52493">
        <ele>206.069</ele>
        <time>2018-10-03T19:06:32Z</time>
      </trkpt>
      <trkpt lat="43.54011" lon="16.52493">
        <ele>206.07</ele>
        <time>2018-10-03T19:06:52Z</time>
      </trkpt>
      <trkpt lat="43.53993" lon="16.52491">
        <ele>206.08</ele>
        <time>2018-10-03T19:07:12Z</time>
      </trkpt>
      <trkpt lat="43.53988" lon="16.52492">
        <ele>206.049</ele>
        <time>2018-10-03T19:07:32Z</time>
      </trkpt>
      <trkpt lat="43.5398" lon="16.52488">
        <ele>206.041</ele>
        <time>2018-10-03T19:07:52Z</time>
      </trkpt>
      <trkpt lat="43.53975" lon="16.52489">
        <ele>206.081</ele>
        <time>2018-10-03T19:08:12Z</time>
      </trkpt>
      <trkpt lat="43.53961" lon="16.52485">
        <ele>205.009</ele>
        <time>2018-10-03T19:08:32Z</time>
      </trkpt>
      <trkpt lat="43.53952" lon="16.52484">
        <ele>205.008</ele>
        <time>2018-10-03T19:08:52Z</time>
      </trkpt>
      <trkpt lat="43.53946" lon="16.52483">
        <ele>206.076</ele>
        <time>2018-10-03T19:09:12Z</time>
      </trkpt>
      <trkpt lat="43.53943" lon="16.52479">
        <ele>207.023</ele>
        <time>2018-10-03T19:09:32Z</time>
      </trkpt>
      <trkpt lat="43.53936" lon="16.52476">
        <ele>208.026</ele>
        <time>2018-10-03T19:09:52Z</time>
      </trkpt>
      <trkpt lat="43.53933" lon="16.52474">
        <ele>208.038</ele>
        <time>2018-10-03T19:10:12Z</time>
      </trkpt>
      <trkpt lat="43.53922" lon="16.52454">
        <ele>207.066</ele>
        <time>2018-10-03T19:10:32Z</time>
      </trkpt>
      <trkpt lat="43.53916" lon="16.5244">
        <ele>206.087</ele>
        <time>2018-10-03T19:10:52Z</time>
      </trkpt>
      <trkpt lat="43.53916" lon="16.52415">
        <ele>205.017</ele>
        <time>2018-10-03T19:11:12Z</time>
      </trkpt>
      <trkpt lat="43.5392" lon="16.52411">
        <ele>206.086</ele>
        <time>2018-10-03T19:11:32Z</time>
      </trkpt>
      <trkpt lat="43.53925" lon="16.52407">
        <ele>207.066</ele>
        <time>2018-10-03T19:11:52Z</time>
      </trkpt>
      <trkpt lat="43.53927" lon="16.52405">
        <ele>207.029</ele>
        <time>2018-10-03T19:12:12Z</time>
      </trkpt>
      <trkpt lat="43.53927" lon="16.52402">
        <ele>207.021</ele>
        <time>2018-10-03T19:12:32Z</time>
      </trkpt>
      <trkpt lat="43.53923" lon="16.52394">
        <ele>207.008</ele>
        <time>2018-10-03T19:12:52Z</time>
      </trkpt>
      <trkpt lat="43.5392" lon="16.52393">
        <ele>206.028</ele>
        <time>2018-10-03T19:13:12Z</time>
      </trkpt>
      <trkpt lat="43.53918" lon="16.52393">
        <ele>206.045</ele>
        <time>2018-10-03T19:13:32Z</time>
      </trkpt>
      <trkpt lat="43.53916" lon="16.52387">
        <ele>204.088</ele>
        <time>2018-10-03T19:13:52Z</time>
      </trkpt>
      <trkpt lat="43.53917" lon="16.52385">
        <ele>204.08</ele>
        <time>2018-10-03T19:14:12Z</time>
      </trkpt>
      <trkpt lat="43.53919" lon="16.52382">
        <ele>203.028</ele>
        <time>2018-10-03T19:14:32Z</time>
      </trkpt>
      <trkpt lat="43.53919" lon="16.52382">
        <ele>202.079</ele>
        <time>2018-10-03T19:14:52Z</time>
      </trkpt>
      <trkpt lat="43.5392" lon="16.52382">
        <ele>201.089</ele>
        <time>2018-10-03T19:15:12Z</time>
      </trkpt>
      <trkpt lat="43.53924" lon="16.52379">
        <ele>200.048</ele>
        <time>2018-10-03T19:15:32Z</time>
      </trkpt>
      <trkpt lat="43.53925" lon="16.52377">
        <ele>200.094</ele>
        <time>2018-10-03T19:15:52Z</time>
      </trkpt>
      <trkpt lat="43.53923" lon="16.52371">
        <ele>198.057</ele>
        <time>2018-10-03T19:16:12Z</time>
      </trkpt>
      <trkpt lat="43.53917" lon="16.52364">
        <ele>197.022</ele>
        <time>2018-10-03T19:16:32Z</time>
      </trkpt>
      <trkpt lat="43.5391" lon="16.52358">
        <ele>196.008</ele>
        <time>2018-10-03T19:16:52Z</time>
      </trkpt>
      <trkpt lat="43.53897" lon="16.52357">
        <ele>197.021</ele>
        <time>2018-10-03T19:17:12Z</time>
      </trkpt>
      <trkpt lat="43.53891" lon="16.52356">
        <ele>198.068</ele>
        <time>2018-10-03T19:17:32Z</time>
      </trkpt>
      <trkpt lat="43.53887" lon="16.52353">
        <ele>200.071</ele>
        <time>2018-10-03T19:17:52Z</time>
      </trkpt>
      <trkpt lat="43.53886" lon="16.52353">
        <ele>200.023</ele>
        <time>2018-10-03T19:18:12Z</time>
      </trkpt>
      <trkpt lat="43.53882" lon="16.52353">
        <ele>201.071</ele>
        <time>2018-10-03T19:18:32Z</time>
      </trkpt>
      <trkpt lat="43.53877" lon="16.52352">
        <ele>202.042</ele>
        <time>2018-10-03T19:18:52Z</time>
      </trkpt>
      <trkpt lat="43.53874" lon="16.52351">
        <ele>202.012</ele>
        <time>2018-10-03T19:19:12Z</time>
      </trkpt>
      <trkpt lat="43.53868" lon="16.52348">
        <ele>202.081</ele>
        <time>2018-10-03T19:19:32Z</time>
      </trkpt>
      <trkpt lat="43.53865" lon="16.52348">
        <ele>202.028</ele>
        <time>2018-10-03T19:19:52Z</time>
      </trkpt>
      <trkpt lat="43.53862" lon="16.52347">
        <ele>203.089</ele>
        <time>2018-10-03T19:20:12Z</time>
      </trkpt>
      <trkpt lat="43.53861" lon="16.52345">
        <ele>203.017</ele>
        <time>2018-10-03T19:20:32Z</time>
      </trkpt>
      <trkpt lat="43.53854" lon="16.52346">
        <ele>203.008</ele>
        <time>2018-10-03T19:20:52Z</time>
      </trkpt>
      <trkpt lat="43.53853" lon="16.52345">
        <ele>204.064</ele>
        <time>2018-10-03T19:21:12Z</time>
      </trkpt>
      <trkpt lat="43.53851" lon="16.52343">
        <ele>204.091</ele>
        <time>2018-10-03T19:21:32Z</time>
      </trkpt>
      <trkpt lat="43.53847" lon="16.5234">
        <ele>205.094</ele>
        <time>2018-10-03T19:21:52Z</time>
      </trkpt>
      <trkpt lat="43.5384" lon="16.52342">
        <ele>206.036</ele>
        <time>2018-10-03T19:22:12Z</time>
      </trkpt>
      <trkpt lat="43.53834" lon="16.52342">
        <ele>207.064</ele>
        <time>2018-10-03T19:22:32Z</time>
      </trkpt>
      <trkpt lat="43.53832" lon="16.52341">
        <ele>207.055</ele>
        <time>2018-10-03T19:22:52Z</time>
      </trkpt>
      <trkpt lat="43.53814" lon="16.52333">
        <ele>207.015</ele>
        <time>2018-10-03T19:23:12Z</time>
      </trkpt>
      <trkpt lat="43.53808" lon="16.52331">
        <ele>208.044</ele>
        <time>2018-10-03T19:23:32Z</time>
      </trkpt>
      <trkpt lat="43.53806" lon="16.5233">
        <ele>208.081</ele>
        <time>2018-10-03T19:23:52Z</time>
      </trkpt>
      <trkpt lat="43.53801" lon="16.5233">
        <ele>209.061</ele>
        <time>2018-10-03T19:24:12Z</time>
      </trkpt>
      <trkpt lat="43.53793" lon="16.5233">
        <ele>210.017</ele>
        <time>2018-10-03T19:24:32Z</time>
      </trkpt>
      <trkpt lat="43.53787" lon="16.52331">
        <ele>211.008</ele>
        <time>2018-10-03T19:24:52Z</time>
      </trkpt>
      <trkpt lat="43.53783" lon="16.52329">
        <ele>212.06</ele>
        <time>2018-10-03T19:25:12Z</time>
      </trkpt>
      <trkpt lat="43.53782" lon="16.52328">
        <ele>212.057</ele>
        <time>2018-10-03T19:25:32Z</time>
      </trkpt>
      <trkpt lat="43.53774" lon="16.52326">
        <ele>213.01</ele>
        <time>2018-10-03T19:25:52Z</time>
      </trkpt>
      <trkpt lat="43.53759" lon="16.52321">
        <ele>214.062</ele>
        <time>2018-10-03T19:26:12Z</time>
      </trkpt>
      <trkpt lat="43.53743" lon="16.52319">
        <ele>216.09</ele>
        <time>2018-10-03T19:26:32Z</time>
      </trkpt>
      <trkpt lat="43.53739" lon="16.52318">
        <ele>216.071</ele>
        <time>2018-10-03T19:26:52Z</time>
      </trkpt>
      <trkpt lat="43.53731" lon="16.52319">
        <ele>217.021</ele>
        <time>2018-10-03T19:27:12Z</time>
      </trkpt>
      <trkpt lat="43.53728" lon="16.52319">
        <ele>217.04</ele>
        <time>2018-10-03T19:27:32Z</time>
      </trkpt>
      <trkpt lat="43.53718" lon="16.52322">
        <ele>217.054</ele>
        <time>2018-10-03T19:27:52Z</time>
      </trkpt>
      <trkpt lat="43.53711" lon="16.52324">
        <ele>219.056</ele>
        <time>2018-10-03T19:28:12Z</time>
      </trkpt>
      <trkpt lat="43.53708" lon="16.52325">
        <ele>219.011</ele>
        <time>2018-10-03T19:28:32Z</time>
      </trkpt>
      <trkpt lat="43.53704" lon="16.52328">
        <ele>220.008</ele>
        <time>2018-10-03T19:28:52Z</time>
      </trkpt>
      <trkpt lat="43.53701" lon="16.52328">
        <ele>221.027</ele>
        <time>2018-10-03T19:29:12Z</time>
      </trkpt>
      <trkpt lat="43.537" lon="16.52328">
        <ele>221.024</ele>
        <time>2018-10-03T19:29:32Z</time>
      </trkpt>
      <trkpt lat="43.53694" lon="16.52334">
        <ele>221.087</ele>
        <time>2018-10-03T19:29:52Z</time>
      </trkpt>
      <trkpt lat="43.53688" lon="16.52341">
        <ele>222.069</ele>
        <time>2018-10-03T19:30:12Z</time>
      </trkpt>
      <trkpt lat="43.5368" lon="16.52342">
        <ele>224.017</ele>
        <time>2018-10-03T19:30:32Z</time>
      </trkpt>
      <trkpt lat="43.53675" lon="16.52342">
        <ele>225.098</ele>
        <time>2018-10-03T19:30:52Z</time>
      </trkpt>
      <trkpt lat="43.53671" lon="16.52342">
        <ele>225.098</ele>
        <time>2018-10-03T19:31:12Z</time>
      </trkpt>
      <trkpt lat="43.53668" lon="16.52342">
        <ele>225.037</ele>
        <time>2018-10-03T19:31:32Z</time>
      </trkpt>
      <trkpt lat="43.53667" lon="16.52342">
        <ele>225.091</ele>
        <time>2018-10-03T19:31:52Z</time>
      </trkpt>
      <trkpt lat="43.53666" lon="16.5234">
        <ele>225.081</ele>
        <time>2018-10-03T19:32:12Z</time>
      </trkpt>
      <trkpt lat="43.53656" lon="16.52342">
        <ele>224.019</ele>
        <time>2018-10-03T19:32:32Z</time>
      </trkpt>
      <trkpt lat="43.53652" lon="16.52344">
        <ele>225.008</ele>
        <time>2018-10-03T19:32:52Z</time>
      </trkpt>
      <trkpt lat="43.53646" lon="16.52349">
        <ele>225.021</ele>
        <time>2018-10-03T19:33:12Z</time>
      </trkpt>
      <trkpt lat="43.5363" lon="16.52357">
        <ele>225.028</ele>
        <time>2018-10-03T19:33:32Z</time>
      </trkpt>
      <trkpt lat="43.53626" lon="16.52359">
        <ele>225.031</ele>
        <time>2018-10-03T19:33:52Z</time>
      </trkpt>
      <trkpt lat="43.53616" lon="16.52366">
        <ele>226.033</ele>
        <time>2018-10-03T19:34:12Z</time>
      </trkpt>
      <trkpt lat="43.5361" lon="16.52367">
        <ele>226.091</ele>
        <time>2018-10-03T19:34:32Z</time>
      </trkpt>
      <trkpt lat="43.53602" lon="16.52371">
        <ele>225.042</ele>
        <time>2018-10-03T19:34:52Z</time>
      </trkpt>
      <trkpt lat="43.5359" lon="16.52383">
        <ele>226.092</ele>
        <time>2018-10-03T19:35:12Z</time>
      </trkpt>
      <trkpt lat="43.53572" lon="16.52398">
        <ele>225.081</ele>
        <time>2018-10-03T19:35:32Z</time>
      </trkpt>
      <trkpt lat="43.53568" lon="16.52404">
        <ele>225.053</ele>
        <time>2018-10-03T19:35:52Z</time>
      </trkpt>
      <trkpt lat="43.53562" lon="16.52417">
        <ele>225.004</ele>
        <time>2018-10-03T19:36:12Z</time>
      </trkpt>
      <trkpt lat="43.5356" lon="16.52419">
        <ele>224.014</ele>
        <time>2018-10-03T19:36:32Z</time>
      </trkpt>
      <trkpt lat="43.53555" lon="16.52431">
        <ele>223.008</ele>
        <time>2018-10-03T19:36:52Z</time>
      </trkpt>
      <trkpt lat="43.53551" lon="16.52444">
        <ele>222.057</ele>
        <time>2018-10-03T19:37:12Z</time>
      </trkpt>
      <trkpt lat="43.53548" lon="16.52461">
        <ele>220.024</ele>
        <time>2018-10-03T19:37:32Z</time>
      </trkpt>
      <trkpt lat="43.53546" lon="16.52465">
        <ele>219.037</ele>
        <time>2018-10-03T19:37:52Z</time>
      </trkpt>
      <trkpt lat="43.53547" lon="16.5248">
        <ele>218.039</ele>
        <time>2018-10-03T19:38:12Z</time>
      </trkpt>
      <trkpt lat="43.53546" lon="16.5249">
        <ele>216.037</ele>
        <time>2018-10-03T19:38:32Z</time>
      </trkpt>
      <trkpt lat="43.53544" lon="16.52499">
        <ele>215.018</ele>
        <time>2018-10-03T19:38:52Z</time>
      </trkpt>
      <trkpt lat="43.53543" lon="16.52508">
        <ele>214.088</ele>
        <time>2018-10-03T19:39:12Z</time>
      </trkpt>
      <trkpt lat="43.53543" lon="16.52518">
        <ele>213.017</ele>
        <time>2018-10-03T19:39:32Z</time>
      </trkpt>
      <trkpt lat="43.53543" lon="16.5252">
        <ele>212.031</ele>
        <time>2018-10-03T19:39:52Z</time>
      </trkpt>
      <trkpt lat="43.53544" lon="16.52529">
        <ele>211.061</ele>
        <time>2018-10-03T19:40:12Z</time>
      </trkpt>
      <trkpt lat="43.53545" lon="16.52543">
        <ele>210.007</ele>
        <time>2018-10-03T19:40:32Z</time>
      </trkpt>
      <trkpt lat="43.53545" lon="16.52549">
        <ele>209.008</ele>
        <time>2018-10-03T19:40:52Z</time>
      </trkpt>
      <trkpt lat="43.53545" lon="16.52558">
        <ele>209.015</ele>
        <time>2018-10-03T19:41:12Z</time>
      </trkpt>
      <trkpt lat="43.53547" lon="16.52586">
        <ele>210.082</ele>
        <time>2018-10-03T19:41:32Z</time>
      </trkpt>
      <trkpt lat="43.53545" lon="16.52613">
        <ele>209.045</ele>
        <time>2018-10-03T19:41:52Z</time>
      </trkpt>
      <trkpt lat="43.53547" lon="16.52618">
        <ele>210.027</ele>
        <time>2018-10-03T19:42:12Z</time>
      </trkpt>
      <trkpt lat="43.53549" lon="16.52624">
        <ele>212.095</ele>
        <time>2018-10-03T19:42:32Z</time>
      </trkpt>
      <trkpt lat="43.53552" lon="16.52634">
        <ele>214.066</ele>
        <time>2018-10-03T19:42:52Z</time>
      </trkpt>
      <trkpt lat="43.53553" lon="16.52635">
        <ele>214.096</ele>
        <time>2018-10-03T19:43:12Z</time>
      </trkpt>
      <trkpt lat="43.53555" lon="16.52641">
        <ele>215.055</ele>
        <time>2018-10-03T19:43:32Z</time>
      </trkpt>
      <trkpt lat="43.53557" lon="16.52648">
        <ele>216.019</ele>
        <time>2018-10-03T19:43:52Z</time>
      </trkpt>
      <trkpt lat="43.53558" lon="16.52649">
        <ele>216.009</ele>
        <time>2018-10-03T19:44:12Z</time>
      </trkpt>
      <trkpt lat="43.53558" lon="16.52649">
        <ele>216.019</ele>
        <time>2018-10-03T19:44:32Z</time>
      </trkpt>
      <trkpt lat="43.5356" lon="16.52657">
        <ele>216.008</ele>
        <time>2018-10-03T19:44:52Z</time>
      </trkpt>
      <trkpt lat="43.5356" lon="16.52662">
        <ele>217.053</ele>
        <time>2018-10-03T19:45:12Z</time>
      </trkpt>
      <trkpt lat="43.5356" lon="16.5267">
        <ele>218.07</ele>
        <time>2018-10-03T19:45:32Z</time>
      </trkpt>
      <trkpt lat="43.53561" lon="16.52686">
        <ele>220.073</ele>
        <time>2018-10-03T19:45:52Z</time>
      </trkpt>
      <trkpt lat="43.53563" lon="16.52698">
        <ele>221.085</ele>
        <time>2018-10-03T19:46:12Z</time>
      </trkpt>
      <trkpt lat="43.53563" lon="16.52707">
        <ele>222.083</ele>
        <time>2018-10-03T19:46:32Z</time>
      </trkpt>
      <trkpt lat="43.53565" lon="16.52717">
        <ele>224.084</ele>
        <time>2018-10-03T19:46:52Z</time>
      </trkpt>
      <trkpt lat="43.53565" lon="16.52728">
        <ele>226.064</ele>
        <time>2018-10-03T19:47:12Z</time>
      </trkpt>
      <trkpt lat="43.53567" lon="16.52735">
        <ele>228.043</ele>
        <time>2018-10-03T19:47:32Z</time>
      </trkpt>
      <trkpt lat="43.5357" lon="16.5274">
        <ele>229.033</ele>
        <time>2018-10-03T19:47:52Z</time>
      </trkpt>
      <trkpt lat="43.53573" lon="16.52746">
        <ele>230.023</ele>
        <time>2018-10-03T19:48:12Z</time>
      </trkpt>
      <trkpt lat="43.53576" lon="16.52753">
        <ele>232.015</ele>
        <time>2018-10-03T19:48:32Z</time>
      </trkpt>
      <trkpt lat="43.53578" lon="16.5276">
        <ele>233.008</ele>
        <time>2018-10-03T19:48:52Z</time>
      </trkpt>
      <trkpt lat="43.53578" lon="16.52764">
        <ele>234.085</ele>
        <time>2018-10-03T19:49:12Z</time>
      </trkpt>
      <trkpt lat="43.53581" lon="16.52771">
        <ele>235.082</ele>
        <time>2018-10-03T19:49:32Z</time>
      </trkpt>
      <trkpt lat="43.53582" lon="16.52776">
        <ele>236.045</ele>
        <time>2018-10-03T19:49:52Z</time>
      </trkpt>
      <trkpt lat="43.53583" lon="16.52784">
        <ele>237.077</ele>
        <time>2018-10-03T19:50:12Z</time>
      </trkpt>
      <trkpt lat="43.53586" lon="16.52792">
        <ele>238.055</ele>
        <time>2018-10-03T19:50:32Z</time>
      </trkpt>
      <trkpt lat="43.53587" lon="16.52799">
        <ele>239.076</ele>
        <time>2018-10-03T19:50:52Z</time>
      </trkpt>
      <trkpt lat="43.53588" lon="16.52816">
        <ele>241.036</ele>
        <time>2018-10-03T19:51:12Z</time>
      </trkpt>
      <trkpt lat="43.53587" lon="16.52825">
        <ele>242.055</ele>
        <time>2018-10-03T19:51:32Z</time>
      </trkpt>
      <trkpt lat="43.53586" lon="16.52827">
        <ele>243.069</ele>
        <time>2018-10-03T19:51:52Z</time>
      </trkpt>
      <trkpt lat="43.53587" lon="16.5283">
        <ele>243.004</ele>
        <time>2018-10-03T19:52:12Z</time>
      </trkpt>
      <trkpt lat="43.53586" lon="16.52834">
        <ele>244.024</ele>
        <time>2018-10-03T19:52:32Z</time>
      </trkpt>
      <trkpt lat="43.53587" lon="16.52835">
        <ele>244.008</ele>
        <time>2018-10-03T19:52:52Z</time>
      </trkpt>
      <trkpt lat="43.53587" lon="16.52852">
        <ele>245.068</ele>
        <time>2018-10-03T19:53:12Z</time>
      </trkpt>
      <trkpt lat="43.53585" lon="16.52865">
        <ele>246.065</ele>
        <time>2018-10-03T19:53:32Z</time>
      </trkpt>
      <trkpt lat="43.53583" lon="16.52874">
        <ele>247.058</ele>
        <time>2018-10-03T19:53:52Z</time>
      </trkpt>
      <trkpt lat="43.53579" lon="16.52889">
        <ele>247.01</ele>
        <time>2018-10-03T19:54:12Z</time>
      </trkpt>
      <trkpt lat="43.53574" lon="16.52899">
        <ele>247.058</ele>
        <time>2018-10-03T19:54:32Z</time>
      </trkpt>
      <trkpt lat="43.53571" lon="16.52908">
        <ele>248.059</ele>
        <time>2018-10-03T19:54:52Z</time>
      </trkpt>
      <trkpt lat="43.53565" lon="16.52922">
        <ele>248.059</ele>
        <time>2018-10-03T19:55:12Z</time>
      </trkpt>
      <trkpt lat="43.53565" lon="16.52923">
        <ele>248.048</ele>
        <time>2018-10-03T19:55:32Z</time>
      </trkpt>
      <trkpt lat="43.53555" lon="16.52947">
        <ele>248.037</ele>
        <time>2018-10-03T19:55:52Z</time>
      </trkpt>
      <trkpt lat="43.53551" lon="16.52957">
        <ele>248.049</ele>
        <time>2018-10-03T19:56:12Z</time>
      </trkpt>
      <trkpt lat="43.53551" lon="16.5296">
        <ele>247.013</ele>
        <time>2018-10-03T19:56:32Z</time>
      </trkpt>
      <trkpt lat="43.53545" lon="16.52971">
        <ele>248.008</ele>
        <time>2018-10-03T19:56:52Z</time>
      </trkpt>
      <trkpt lat="43.53535" lon="16.53002">
        <ele>249.085</ele>
        <time>2018-10-03T19:57:12Z</time>
      </trkpt>
      <trkpt lat="43.5353" lon="16.53018">
        <ele>249.022</ele>
        <time>2018-10-03T19:57:32Z</time>
      </trkpt>
      <trkpt lat="43.53521" lon="16.53041">
        <ele>249.035</ele>
        <time>2018-10-03T19:57:52Z</time>
      </trkpt>
      <trkpt lat="43.53511" lon="16.53064">
        <ele>249.017</ele>
        <time>2018-10-03T19:58:12Z</time>
      </trkpt>
      <trkpt lat="43.53504" lon="16.53088">
        <ele>249.065</ele>
        <time>2018-10-03T19:58:32Z</time>
      </trkpt>
      <trkpt lat="43.53494" lon="16.53111">
        <ele>249.096</ele>
        <time>2018-10-03T19:58:52Z</time>
      </trkpt>
      <trkpt lat="43.53483" lon="16.53132">
        <ele>249.016</ele>
        <time>2018-10-03T19:59:12Z</time>
      </trkpt>
      <trkpt lat="43.53472" lon="16.53153">
        <ele>249.055</ele>
        <time>2018-10-03T19:59:32Z</time>
      </trkpt>
      <trkpt lat="43.53461" lon="16.53176">
        <ele>248.022</ele>
        <time>2018-10-03T19:59:52Z</time>
      </trkpt>
      <trkpt lat="43.5345" lon="16.53203">
        <ele>248.062</ele>
        <time>2018-10-03T20:00:12Z</time>
      </trkpt>
      <trkpt lat="43.53441" lon="16.53226">
        <ele>247.008</ele>
        <time>2018-10-03T20:00:32Z</time>
      </trkpt>
      <trkpt lat="43.53434" lon="16.5324">
        <ele>247.008</ele>
        <time>2018-10-03T20:00:52Z</time>
      </trkpt>
      <trkpt lat="43.53428" lon="16.53259">
        <ele>246.064</ele>
        <time>2018-10-03T20:01:12Z</time>
      </trkpt>
      <trkpt lat="43.53423" lon="16.53274">
        <ele>244.071</ele>
        <time>2018-10-03T20:01:32Z</time>
      </trkpt>
      <trkpt lat="43.5342" lon="16.53292">
        <ele>243.074</ele>
        <time>2018-10-03T20:01:52Z</time>
      </trkpt>
      <trkpt lat="43.53418" lon="16.53315">
        <ele>243.016</ele>
        <time>2018-10-03T20:02:12Z</time>
      </trkpt>
      <trkpt lat="43.53418" lon="16.53323">
        <ele>244.044</ele>
        <time>2018-10-03T20:02:32Z</time>
      </trkpt>
      <trkpt lat="43.53412" lon="16.53332">
        <ele>246.045</ele>
        <time>2018-10-03T20:02:52Z</time>
      </trkpt>
      <trkpt lat="43.53411" lon="16.53333">
        <ele>246.085</ele>
        <time>2018-10-03T20:03:12Z</time>
      </trkpt>
      <trkpt lat="43.53405" lon="16.5334">
        <ele>248.074</ele>
        <time>2018-10-03T20:03:32Z</time>
      </trkpt>
      <trkpt lat="43.534" lon="16.53345">
        <ele>249.042</ele>
        <time>2018-10-03T20:03:52Z</time>
      </trkpt>
      <trkpt lat="43.53397" lon="16.5335">
        <ele>250.022</ele>
        <time>2018-10-03T20:04:12Z</time>
      </trkpt>
      <trkpt lat="43.53392" lon="16.53355">
        <ele>252.014</ele>
        <time>2018-10-03T20:04:32Z</time>
      </trkpt>
      <trkpt lat="43.5339" lon="16.53358">
        <ele>252.008</ele>
        <time>2018-10-03T20:04:52Z</time>
      </trkpt>
      <trkpt lat="43.53386" lon="16.53363">
        <ele>254.026</ele>
        <time>2018-10-03T20:05:12Z</time>
      </trkpt>
      <trkpt lat="43.53384" lon="16.53366">
        <ele>254.023</ele>
        <time>2018-10-03T20:05:32Z</time>
      </trkpt>
      <trkpt lat="43.53381" lon="16.53371">
        <ele>255.086</ele>
        <time>2018-10-03T20:05:52Z</time>
      </trkpt>
      <trkpt lat="43.53377" lon="16.53377">
        <ele>256.098</ele>
        <time>2018-10-03T20:06:12Z</time>
      </trkpt>
      <trkpt lat="43.53374" lon="16.53381">
        <ele>257.086</ele>
        <time>2018-10-03T20:06:32Z</time>
      </trkpt>
      <trkpt lat="43.53367" lon="16.53387">
        <ele>259.037</ele>
        <time>2018-10-03T20:06:52Z</time>
      </trkpt>
      <trkpt lat="43.53358" lon="16.53395">
        <ele>259.057</ele>
        <time>2018-10-03T20:07:12Z</time>
      </trkpt>
      <trkpt lat="43.53352" lon="16.53396">
        <ele>258.026</ele>
        <time>2018-10-03T20:07:32Z</time>
      </trkpt>
      <trkpt lat="43.53344" lon="16.53401">
        <ele>258.085</ele>
        <time>2018-10-03T20:07:52Z</time>
      </trkpt>
      <trkpt lat="43.5333" lon="16.53408">
        <ele>255.089</ele>
        <time>2018-10-03T20:08:12Z</time>
      </trkpt>
      <trkpt lat="43.53321" lon="16.53414">
        <ele>254.017</ele>
        <time>2018-10-03T20:08:32Z</time>
      </trkpt>
      <trkpt lat="43.53314" lon="16.53418">
        <ele>253.008</ele>
        <time>2018-10-03T20:08:52Z</time>
      </trkpt>
      <trkpt lat="43.53308" lon="16.53426">
        <ele>251.06</ele>
        <time>2018-10-03T20:09:12Z</time>
      </trkpt>
      <trkpt lat="43.53302" lon="16.53435">
        <ele>248.047</ele>
        <time>2018-10-03T20:09:32Z</time>
      </trkpt>
      <trkpt lat="43.53297" lon="16.53444">
        <ele>246.04</ele>
        <time>2018-10-03T20:09:52Z</time>
      </trkpt>
      <trkpt lat="43.53296" lon="16.53446">
        <ele>246.032</ele>
        <time>2018-10-03T20:10:12Z</time>
      </trkpt>
      <trkpt lat="43.53288" lon="16.53461">
        <ele>244.05</ele>
        <time>2018-10-03T20:10:32Z</time>
      </trkpt>
      <trkpt lat="43.5328" lon="16.53475">
        <ele>241.061</ele>
        <time>2018-10-03T20:10:52Z</time>
      </trkpt>
      <trkpt lat="43.53272" lon="16.53489">
        <ele>238.061</ele>
        <time>2018-10-03T20:11:12Z</time>
      </trkpt>
      <trkpt lat="43.53264" lon="16.53503">
        <ele>236.01</ele>
        <time>2018-10-03T20:11:32Z</time>
      </trkpt>
      <trkpt lat="43.53259" lon="16.53508">
        <ele>234.017</ele>
        <time>2018-10-03T20:11:52Z</time>
      </trkpt>
      <trkpt lat="43.53247" lon="16.53521">
        <ele>232.087</ele>
        <time>2018-10-03T20:12:12Z</time>
      </trkpt>
      <trkpt lat="43.53236" lon="16.53531">
        <ele>229.015</ele>
        <time>2018-10-03T20:12:32Z</time>
      </trkpt>
      <trkpt lat="43.53224" lon="16.5354">
        <ele>226.008</ele>
        <time>2018-10-03T20:12:52Z</time>
      </trkpt>
      <trkpt lat="43.5322" lon="16.53543">
        <ele>225.073</ele>
        <time>2018-10-03T20:13:12Z</time>
      </trkpt>
      <trkpt lat="43.53214" lon="16.53548">
        <ele>224.03</ele>
        <time>2018-10-03T20:13:32Z</time>
      </trkpt>
      <trkpt lat="43.53207" lon="16.53553">
        <ele>223.033</ele>
        <time>2018-10-03T20:13:52Z</time>
      </trkpt>
      <trkpt lat="43.532" lon="16.53558">
        <ele>222.055</ele>
        <time>2018-10-03T20:14:12Z</time>
      </trkpt>
      <trkpt lat="43.53191" lon="16.53566">
        <ele>220.033</ele>
        <time>2018-10-03T20:14:32Z</time>
      </trkpt>
      <trkpt lat="43.5318" lon="16.53579">
        <ele>218.034</ele>
        <time>2018-10-03T20:14:52Z</time>
      </trkpt>
      <trkpt lat="43.53178" lon="16.53585">
        <ele>217.024</ele>
        <time>2018-10-03T20:15:12Z</time>
      </trkpt>
      <trkpt lat="43.53177" lon="16.53603">
        <ele>216.043</ele>
        <time>2018-10-03T20:15:32Z</time>
      </trkpt>
      <trkpt lat="43.53187" lon="16.53624">
        <ele>215.083</ele>
        <time>2018-10-03T20:15:52Z</time>
      </trkpt>
      <trkpt lat="43.53192" lon="16.53632">
        <ele>215.025</ele>
        <time>2018-10-03T20:16:12Z</time>
      </trkpt>
      <trkpt lat="43.53203" lon="16.53643">
        <ele>214.017</ele>
        <time>2018-10-03T20:16:32Z</time>
      </trkpt>
      <trkpt lat="43.53221" lon="16.53651">
        <ele>213.008</ele>
        <time>2018-10-03T20:16:52Z</time>
      </trkpt>
      <trkpt lat="43.53238" lon="16.53661">
        <ele>213.05</ele>
        <time>2018-10-03T20:17:12Z</time>
      </trkpt>
      <trkpt lat="43.53259" lon="16.53674">
        <ele>212.027</ele>
        <time>2018-10-03T20:17:32Z</time>
      </trkpt>
      <trkpt lat="43.53268" lon="16.53679">
        <ele>211.07</ele>
        <time>2018-10-03T20:17:52Z</time>
      </trkpt>
      <trkpt lat="43.53279" lon="16.53687">
        <ele>210.092</ele>
        <time>2018-10-03T20:18:12Z</time>
      </trkpt>
      <trkpt lat="43.53284" lon="16.53694">
        <ele>209.07</ele>
        <time>2018-10-03T20:18:32Z</time>
      </trkpt>
      <trkpt lat="43.53284" lon="16.53706">
        <ele>208.041</ele>
        <time>2018-10-03T20:18:52Z</time>
      </trkpt>
      <trkpt lat="43.53276" lon="16.53723">
        <ele>207.081</ele>
        <time>2018-10-03T20:19:12Z</time>
      </trkpt>
      <trkpt lat="43.5326" lon="16.53748">
        <ele>206.04</ele>
        <time>2018-10-03T20:19:32Z</time>
      </trkpt>
      <trkpt lat="43.53246" lon="16.53766">
        <ele>206.068</ele>
        <time>2018-10-03T20:19:52Z</time>
      </trkpt>
      <trkpt lat="43.53232" lon="16.53786">
        <ele>206.042</ele>
        <time>2018-10-03T20:20:12Z</time>
      </trkpt>
      <trkpt lat="43.53217" lon="16.53803">
        <ele>206.026</ele>
        <time>2018-10-03T20:20:32Z</time>
      </trkpt>
      <trkpt lat="43.53205" lon="16.53818">
        <ele>206.008</ele>
        <time>2018-10-03T20:20:52Z</time>
      </trkpt>
      <trkpt lat="43.53192" lon="16.53837">
        <ele>206.078</ele>
        <time>2018-10-03T20:21:12Z</time>
      </trkpt>
      <trkpt lat="43.53186" lon="16.53846">
        <ele>207.065</ele>
        <time>2018-10-03T20:21:32Z</time>
      </trkpt>
      <trkpt lat="43.53177" lon="16.53861">
        <ele>208.058</ele>
        <time>2018-10-03T20:21:52Z</time>
      </trkpt>
      <trkpt lat="43.53169" lon="16.53877">
        <ele>209.03</ele>
        <time>2018-10-03T20:22:12Z</time>
      </trkpt>
      <trkpt lat="43.5316" lon="16.53901">
        <ele>209.028</ele>
        <time>2018-10-03T20:22:32Z</time>
      </trkpt>
      <trkpt lat="43.5316" lon="16.53929">
        <ele>207.039</ele>
        <time>2018-10-03T20:22:52Z</time>
      </trkpt>
      <trkpt lat="43.53161" lon="16.53936">
        <ele>206.099</ele>
        <time>2018-10-03T20:23:12Z</time>
      </trkpt>
      <trkpt lat="43.53163" lon="16.53946">
        <ele>205.098</ele>
        <time>2018-10-03T20:23:32Z</time>
      </trkpt>
      <trkpt lat="43.53168" lon="16.53965">
        <ele>203.047</ele>
        <time>2018-10-03T20:23:52Z</time>
      </trkpt>
      <trkpt lat="43.53173" lon="16.53975">
        <ele>202.029</ele>
        <time>2018-10-03T20:24:12Z</time>
      </trkpt>
      <trkpt lat="43.53182" lon="16.5399">
        <ele>199.021</ele>
        <time>2018-10-03T20:24:32Z</time>
      </trkpt>
      <trkpt lat="43.5319" lon="16.54006">
        <ele>197.008</ele>
        <time>2018-10-03T20:24:52Z</time>
      </trkpt>
      <trkpt lat="43.53193" lon="16.54013">
        <ele>196.056</ele>
        <time>2018-10-03T20:25:12Z</time>
      </trkpt>
      <trkpt lat="43.53198" lon="16.54028">
        <ele>194.083</ele>
        <time>2018-10-03T20:25:32Z</time>
      </trkpt>
      <trkpt lat="43.53213" lon="16.54046">
        <ele>201.026</ele>
        <time>2018-10-03T20:25:52Z</time>
      </trkpt>
      <trkpt lat="43.53203" lon="16.54067">
        <ele>200.058</ele>
        <time>2018-10-03T20:26:12Z</time>
      </trkpt>
      <trkpt lat="43.53198" lon="16.54076">
        <ele>199.066</ele>
        <time>2018-10-03T20:26:32Z</time>
      </trkpt>
      <trkpt lat="43.53188" lon="16.54097">
        <ele>200.037</ele>
        <time>2018-10-03T20:26:52Z</time>
      </trkpt>
      <trkpt lat="43.53177" lon="16.54125">
        <ele>201.047</ele>
        <time>2018-10-03T20:27:12Z</time>
      </trkpt>
      <trkpt lat="43.53169" lon="16.54143">
        <ele>202.056</ele>
        <time>2018-10-03T20:27:32Z</time>
      </trkpt>
      <trkpt lat="43.53164" lon="16.54158">
        <ele>203.036</ele>
        <time>2018-10-03T20:27:52Z</time>
      </trkpt>
      <trkpt lat="43.53157" lon="16.54172">
        <ele>204.017</ele>
        <time>2018-10-03T20:28:12Z</time>
      </trkpt>
      <trkpt lat="43.53151" lon="16.54184">
        <ele>205.018</ele>
        <time>2018-10-03T20:28:32Z</time>
      </trkpt>
      <trkpt lat="43.53146" lon="16.54195">
        <ele>206.008</ele>
        <time>2018-10-03T20:28:52Z</time>
      </trkpt>
      <trkpt lat="43.5314" lon="16.5421">
        <ele>207.055</ele>
        <time>2018-10-03T20:29:12Z</time>
      </trkpt>
      <trkpt lat="43.5314" lon="16.54235">
        <ele>209.042</ele>
        <time>2018-10-03T20:29:32Z</time>
      </trkpt>
      <trkpt lat="43.53142" lon="16.54246">
        <ele>209.045</ele>
        <time>2018-10-03T20:29:52Z</time>
      </trkpt>
      <trkpt lat="43.5315" lon="16.54265">
        <ele>211.047</ele>
        <time>2018-10-03T20:30:12Z</time>
      </trkpt>
      <trkpt lat="43.53157" lon="16.54281">
        <ele>212.095</ele>
        <time>2018-10-03T20:30:32Z</time>
      </trkpt>
      <trkpt lat="43.53167" lon="16.54299">
        <ele>213.016</ele>
        <time>2018-10-03T20:30:52Z</time>
      </trkpt>
      <trkpt lat="43.53177" lon="16.54312">
        <ele>214.026</ele>
        <time>2018-10-03T20:31:12Z</time>
      </trkpt>
      <trkpt lat="43.53185" lon="16.5433">
        <ele>216.085</ele>
        <time>2018-10-03T20:31:32Z</time>
      </trkpt>
      <trkpt lat="43.53193" lon="16.54343">
        <ele>217.089</ele>
        <time>2018-10-03T20:31:52Z</time>
      </trkpt>
      <trkpt lat="43.53199" lon="16.54354">
        <ele>219.006</ele>
        <time>2018-10-03T20:32:12Z</time>
      </trkpt>
      <trkpt lat="43.53202" lon="16.54363">
        <ele>220.026</ele>
        <time>2018-10-03T20:32:32Z</time>
      </trkpt>
      <trkpt lat="43.53202" lon="16.54375">
        <ele>221.008</ele>
        <time>2018-10-03T20:32:52Z</time>
      </trkpt>
      <trkpt lat="43.53201" lon="16.54379">
        <ele>221.05</ele>
        <time>2018-10-03T20:33:12Z</time>
      </trkpt>
      <trkpt lat="43.53198" lon="16.54394">
        <ele>222.017</ele>
        <time>2018-10-03T20:33:32Z</time>
      </trkpt>
      <trkpt lat="43.53196" lon="16.54407">
        <ele>222.09</ele>
        <time>2018-10-03T20:33:52Z</time>
      </trkpt>
      <trkpt lat="43.53193" lon="16.54424">
        <ele>223.022</ele>
        <time>2018-10-03T20:34:12Z</time>
      </trkpt>
      <trkpt lat="43.53192" lon="16.54435">
        <ele>224.04</ele>
        <time>2018-10-03T20:34:32Z</time>
      </trkpt>
      <trkpt lat="43.53193" lon="16.54452">
        <ele>225.051</ele>
        <time>2018-10-03T20:34:52Z</time>
      </trkpt>
      <trkpt lat="43.53195" lon="16.54462">
        <ele>226.041</ele>
        <time>2018-10-03T20:35:12Z</time>
      </trkpt>
      <trkpt lat="43.53199" lon="16.54475">
        <ele>227.03</ele>
        <time>2018-10-03T20:35:32Z</time>
      </trkpt>
      <trkpt lat="43.53209" lon="16.54488">
        <ele>229.056</ele>
        <time>2018-10-03T20:35:52Z</time>
      </trkpt>
      <trkpt lat="43.53215" lon="16.54498">
        <ele>230.059</ele>
        <time>2018-10-03T20:36:12Z</time>
      </trkpt>
      <trkpt lat="43.53218" lon="16.54502">
        <ele>230.014</ele>
        <time>2018-10-03T20:36:32Z</time>
      </trkpt>
      <trkpt lat="43.53223" lon="16.54508">
        <ele>231.008</ele>
        <time>2018-10-03T20:36:52Z</time>
      </trkpt>
      <trkpt lat="43.53224" lon="16.54511">
        <ele>231.047</ele>
        <time>2018-10-03T20:37:12Z</time>
      </trkpt>
      <trkpt lat="43.53234" lon="16.54527">
        <ele>233.034</ele>
        <time>2018-10-03T20:37:32Z</time>
      </trkpt>
      <trkpt lat="43.53235" lon="16.54531">
        <ele>234.027</ele>
        <time>2018-10-03T20:37:52Z</time>
      </trkpt>
      <trkpt lat="43.5324" lon="16.54541">
        <ele>234.019</ele>
        <time>2018-10-03T20:38:12Z</time>
      </trkpt>
      <trkpt lat="43.53241" lon="16.54544">
        <ele>235.097</ele>
        <time>2018-10-03T20:38:32Z</time>
      </trkpt>
      <trkpt lat="43.53241" lon="16.54547">
        <ele>235.038</ele>
        <time>2018-10-03T20:38:52Z</time>
      </trkpt>
      <trkpt lat="43.53246" lon="16.54554">
        <ele>236.048</ele>
        <time>2018-10-03T20:39:12Z</time>
      </trkpt>
      <trkpt lat="43.53248" lon="16.5456">
        <ele>236.047</ele>
        <time>2018-10-03T20:39:32Z</time>
      </trkpt>
      <trkpt lat="43.53247" lon="16.54573">
        <ele>237.022</ele>
        <time>2018-10-03T20:39:52Z</time>
      </trkpt>
      <trkpt lat="43.53243" lon="16.54594">
        <ele>238.062</ele>
        <time>2018-10-03T20:40:12Z</time>
      </trkpt>
      <trkpt lat="43.53237" lon="16.54604">
        <ele>239.008</ele>
        <time>2018-10-03T20:40:32Z</time>
      </trkpt>
      <trkpt lat="43.53226" lon="16.54621">
        <ele>240.008</ele>
        <time>2018-10-03T20:40:52Z</time>
      </trkpt>
      <trkpt lat="43.53218" lon="16.54631">
        <ele>241.054</ele>
        <time>2018-10-03T20:41:12Z</time>
      </trkpt>
      <trkpt lat="43.53208" lon="16.54645">
        <ele>242.051</ele>
        <time>2018-10-03T20:41:32Z</time>
      </trkpt>
      <trkpt lat="43.53209" lon="16.54661">
        <ele>243.064</ele>
        <time>2018-10-03T20:41:52Z</time>
      </trkpt>
      <trkpt lat="43.53206" lon="16.54667">
        <ele>243.086</ele>
        <time>2018-10-03T20:42:12Z</time>
      </trkpt>
      <trkpt lat="43.53207" lon="16.5468">
        <ele>244.064</ele>
        <time>2018-10-03T20:42:32Z</time>
      </trkpt>
      <trkpt lat="43.5321" lon="16.54692">
        <ele>245.045</ele>
        <time>2018-10-03T20:42:52Z</time>
      </trkpt>
      <trkpt lat="43.53211" lon="16.54705">
        <ele>247.095</ele>
        <time>2018-10-03T20:43:12Z</time>
      </trkpt>
      <trkpt lat="43.53215" lon="16.54715">
        <ele>247.084</ele>
        <time>2018-10-03T20:43:32Z</time>
      </trkpt>
      <trkpt lat="43.5322" lon="16.5473">
        <ele>248.023</ele>
        <time>2018-10-03T20:43:52Z</time>
      </trkpt>
      <trkpt lat="43.53222" lon="16.54736">
        <ele>249.083</ele>
        <time>2018-10-03T20:44:12Z</time>
      </trkpt>
      <trkpt lat="43.53225" lon="16.54742">
        <ele>250.011</ele>
        <time>2018-10-03T20:44:32Z</time>
      </trkpt>
      <trkpt lat="43.53228" lon="16.54753">
        <ele>250.008</ele>
        <time>2018-10-03T20:44:52Z</time>
      </trkpt>
      <trkpt lat="43.53228" lon="16.54756">
        <ele>251.054</ele>
        <time>2018-10-03T20:45:12Z</time>
      </trkpt>
      <trkpt lat="43.53229" lon="16.54769">
        <ele>252.021</ele>
        <time>2018-10-03T20:45:32Z</time>
      </trkpt>
      <trkpt lat="43.53232" lon="16.54784">
        <ele>253.084</ele>
        <time>2018-10-03T20:45:52Z</time>
      </trkpt>
      <trkpt lat="43.53231" lon="16.54797">
        <ele>254.096</ele>
        <time>2018-10-03T20:46:12Z</time>
      </trkpt>
      <trkpt lat="43.53231" lon="16.5481">
        <ele>255.024</ele>
        <time>2018-10-03T20:46:32Z</time>
      </trkpt>
      <trkpt lat="43.53231" lon="16.54825">
        <ele>256.095</ele>
        <time>2018-10-03T20:46:52Z</time>
      </trkpt>
      <trkpt lat="43.53228" lon="16.54839">
        <ele>257.035</ele>
        <time>2018-10-03T20:47:12Z</time>
      </trkpt>
      <trkpt lat="43.53226" lon="16.54852">
        <ele>258.084</ele>
        <time>2018-10-03T20:47:32Z</time>
      </trkpt>
      <trkpt lat="43.53223" lon="16.54861">
        <ele>258.017</ele>
        <time>2018-10-03T20:47:52Z</time>
      </trkpt>
      <trkpt lat="43.5322" lon="16.54871">
        <ele>259.087</ele>
        <time>2018-10-03T20:48:12Z</time>
      </trkpt>
      <trkpt lat="43.5322" lon="16.54882">
        <ele>260.015</ele>
        <time>2018-10-03T20:48:32Z</time>
      </trkpt>
      <trkpt lat="43.53217" lon="16.54899">
        <ele>261.008</ele>
        <time>2018-10-03T20:48:52Z</time>
      </trkpt>
      <trkpt lat="43.53215" lon="16.54913">
        <ele>262.023</ele>
        <time>2018-10-03T20:49:12Z</time>
      </trkpt>
      <trkpt lat="43.53206" lon="16.54934">
        <ele>263.05</ele>
        <time>2018-10-03T20:49:32Z</time>
      </trkpt>
      <trkpt lat="43.53204" lon="16.54937">
        <ele>263.093</ele>
        <time>2018-10-03T20:49:52Z</time>
      </trkpt>
      <trkpt lat="43.53196" lon="16.54954">
        <ele>264.055</ele>
        <time>2018-10-03T20:50:12Z</time>
      </trkpt>
      <trkpt lat="43.53189" lon="16.54978">
        <ele>266.033</ele>
        <time>2018-10-03T20:50:32Z</time>
      </trkpt>
      <trkpt lat="43.53189" lon="16.54995">
        <ele>266.024</ele>
        <time>2018-10-03T20:50:52Z</time>
      </trkpt>
      <trkpt lat="43.53189" lon="16.54996">
        <ele>267.034</ele>
        <time>2018-10-03T20:51:12Z</time>
      </trkpt>
      <trkpt lat="43.53187" lon="16.54999">
        <ele>267.073</ele>
        <time>2018-10-03T20:51:32Z</time>
      </trkpt>
      <trkpt lat="43.53188" lon="16.55009">
        <ele>268.043</ele>
        <time>2018-10-03T20:51:52Z</time>
      </trkpt>
      <trkpt lat="43.53188" lon="16.55012">
        <ele>268.064</ele>
        <time>2018-10-03T20:52:12Z</time>
      </trkpt>
      <trkpt lat="43.53188" lon="16.55018">
        <ele>268.01</ele>
        <time>2018-10-03T20:52:32Z</time>
      </trkpt>
      <trkpt lat="43.53188" lon="16.5503">
        <ele>269.008</ele>
        <time>2018-10-03T20:52:52Z</time>
      </trkpt>
      <trkpt lat="43.53187" lon="16.55037">
        <ele>270.056</ele>
        <time>2018-10-03T20:53:12Z</time>
      </trkpt>
      <trkpt lat="43.53188" lon="16.55049">
        <ele>270.053</ele>
        <time>2018-10-03T20:53:32Z</time>
      </trkpt>
      <trkpt lat="43.53188" lon="16.55053">
        <ele>271.036</ele>
        <time>2018-10-03T20:53:52Z</time>
      </trkpt>
      <trkpt lat="43.53189" lon="16.55067">
        <ele>272.018</ele>
        <time>2018-10-03T20:54:12Z</time>
      </trkpt>
      <trkpt lat="43.53193" lon="16.5508">
        <ele>273.016</ele>
        <time>2018-10-03T20:54:32Z</time>
      </trkpt>
      <trkpt lat="43.53193" lon="16.55085">
        <ele>273.067</ele>
        <time>2018-10-03T20:54:52Z</time>
      </trkpt>
      <trkpt lat="43.53194" lon="16.55093">
        <ele>274.027</ele>
        <time>2018-10-03T20:55:12Z</time>
      </trkpt>
      <trkpt lat="43.53195" lon="16.551">
        <ele>275.076</ele>
        <time>2018-10-03T20:55:32Z</time>
      </trkpt>
      <trkpt lat="43.53197" lon="16.55105">
        <ele>275.014</ele>
        <time>2018-10-03T20:55:52Z</time>
      </trkpt>
      <trkpt lat="43.532" lon="16.55112">
        <ele>276.054</ele>
        <time>2018-10-03T20:56:12Z</time>
      </trkpt>
      <trkpt lat="43.53204" lon="16.5512">
        <ele>276.009</ele>
        <time>2018-10-03T20:56:32Z</time>
      </trkpt>
      <trkpt lat="43.53205" lon="16.55121">
        <ele>277.008</ele>
        <time>2018-10-03T20:56:52Z</time>
      </trkpt>
      <trkpt lat="43.53206" lon="16.55128">
        <ele>277.033</ele>
        <time>2018-10-03T20:57:12Z</time>
      </trkpt>
      <trkpt lat="43.53206" lon="16.55138">
        <ele>278.05</ele>
        <time>2018-10-03T20:57:32Z</time>
      </trkpt>
      <trkpt lat="43.53203" lon="16.5515">
        <ele>279.043</ele>
        <time>2018-10-03T20:57:52Z</time>
      </trkpt>
      <trkpt lat="43.53202" lon="16.5516">
        <ele>280.015</ele>
        <time>2018-10-03T20:58:12Z</time>
      </trkpt>
      <trkpt lat="43.53198" lon="16.55172">
        <ele>280.033</ele>
        <time>2018-10-03T20:58:32Z</time>
      </trkpt>
      <trkpt lat="43.53195" lon="16.55184">
        <ele>281.044</ele>
        <time>2018-10-03T20:58:52Z</time>
      </trkpt>
      <trkpt lat="43.53193" lon="16.55201">
        <ele>281.074</ele>
        <time>2018-10-03T20:59:12Z</time>
      </trkpt>
      <trkpt lat="43.53194" lon="16.55227">
        <ele>282.023</ele>
        <time>2018-10-03T20:59:32Z</time>
      </trkpt>
      <trkpt lat="43.53195" lon="16.55235">
        <ele>284.078</ele>
        <time>2018-10-03T20:59:52Z</time>
      </trkpt>
      <trkpt lat="43.53195" lon="16.55237">
        <ele>284.033</ele>
        <time>2018-10-03T21:00:12Z</time>
      </trkpt>
      <trkpt lat="43.53201" lon="16.55249">
        <ele>285.026</ele>
        <time>2018-10-03T21:00:32Z</time>
      </trkpt>
      <trkpt lat="43.53206" lon="16.55257">
        <ele>286.008</ele>
        <time>2018-10-03T21:00:52Z</time>
      </trkpt>
      <trkpt lat="43.53208" lon="16.55267">
        <ele>287.019</ele>
        <time>2018-10-03T21:01:12Z</time>
      </trkpt>
      <trkpt lat="43.53208" lon="16.55284">
        <ele>288.096</ele>
        <time>2018-10-03T21:01:32Z</time>
      </trkpt>
      <trkpt lat="43.53206" lon="16.55299">
        <ele>289.019</ele>
        <time>2018-10-03T21:01:52Z</time>
      </trkpt>
      <trkpt lat="43.53203" lon="16.55309">
        <ele>289.021</ele>
        <time>2018-10-03T21:02:12Z</time>
      </trkpt>
      <trkpt lat="43.53201" lon="16.55313">
        <ele>289.029</ele>
        <time>2018-10-03T21:02:32Z</time>
      </trkpt>
      <trkpt lat="43.532" lon="16.55313">
        <ele>290.03</ele>
        <time>2018-10-03T21:02:52Z</time>
      </trkpt>
      <trkpt lat="43.53195" lon="16.55325">
        <ele>290.06</ele>
        <time>2018-10-03T21:03:12Z</time>
      </trkpt>
      <trkpt lat="43.53186" lon="16.55341">
        <ele>291.019</ele>
        <time>2018-10-03T21:03:32Z</time>
      </trkpt>
      <trkpt lat="43.53179" lon="16.55356">
        <ele>293.041</ele>
        <time>2018-10-03T21:03:52Z</time>
      </trkpt>
      <trkpt lat="43.53179" lon="16.55363">
        <ele>294.081</ele>
        <time>2018-10-03T21:04:12Z</time>
      </trkpt>
      <trkpt lat="43.53178" lon="16.55374">
        <ele>295.009</ele>
        <time>2018-10-03T21:04:32Z</time>
      </trkpt>
      <trkpt lat="43.53175" lon="16.55391">
        <ele>296.008</ele>
        <time>2018-10-03T21:04:52Z</time>
      </trkpt>
      <trkpt lat="43.53172" lon="16.55406">
        <ele>297.046</ele>
        <time>2018-10-03T21:05:12Z</time>
      </trkpt>
      <trkpt lat="43.53171" lon="16.5542">
        <ele>298.093</ele>
        <time>2018-10-03T21:05:32Z</time>
      </trkpt>
      <trkpt lat="43.53169" lon="16.55426">
        <ele>298.016</ele>
        <time>2018-10-03T21:05:52Z</time>
      </trkpt>
      <trkpt lat="43.53168" lon="16.55435">
        <ele>298.048</ele>
        <time>2018-10-03T21:06:12Z</time>
      </trkpt>
      <trkpt lat="43.53166" lon="16.55442">
        <ele>299.056</ele>
        <time>2018-10-03T21:06:32Z</time>
      </trkpt>
      <trkpt lat="43.53165" lon="16.5545">
        <ele>300.067</ele>
        <time>2018-10-03T21:06:52Z</time>
      </trkpt>
      <trkpt lat="43.53167" lon="16.5546">
        <ele>301.047</ele>
        <time>2018-10-03T21:07:12Z</time>
      </trkpt>
      <trkpt lat="43.53167" lon="16.55468">
        <ele>301.086</ele>
        <time>2018-10-03T21:07:32Z</time>
      </trkpt>
      <trkpt lat="43.53166" lon="16.55477">
        <ele>302.068</ele>
        <time>2018-10-03T21:07:52Z</time>
      </trkpt>
      <trkpt lat="43.53165" lon="16.5548">
        <ele>302.042</ele>
        <time>2018-10-03T21:08:12Z</time>
      </trkpt>
      <trkpt lat="43.53166" lon="16.55481">
        <ele>302.026</ele>
        <time>2018-10-03T21:08:32Z</time>
      </trkpt>
      <trkpt lat="43.53165" lon="16.55485">
        <ele>303.008</ele>
        <time>2018-10-03T21:08:52Z</time>
      </trkpt>
      <trkpt lat="43.53164" lon="16.55486">
        <ele>303.088</ele>
        <time>2018-10-03T21:09:12Z</time>
      </trkpt>
      <trkpt lat="43.53169" lon="16.55493">
        <ele>303.095</ele>
        <time>2018-10-03T21:09:32Z</time>
      </trkpt>
      <trkpt lat="43.5317" lon="16.55503">
        <ele>304.078</ele>
        <time>2018-10-03T21:09:52Z</time>
      </trkpt>
      <trkpt lat="43.5317" lon="16.55509">
        <ele>304.09</ele>
        <time>2018-10-03T21:10:12Z</time>
      </trkpt>
      <trkpt lat="43.53173" lon="16.55519">
        <ele>305.058</ele>
        <time>2018-10-03T21:10:32Z</time>
      </trkpt>
      <trkpt lat="43.53173" lon="16.55524">
        <ele>305.059</ele>
        <time>2018-10-03T21:10:52Z</time>
      </trkpt>
      <trkpt lat="43.53177" lon="16.5555">
        <ele>307.089</ele>
        <time>2018-10-03T21:11:12Z</time>
      </trkpt>
      <trkpt lat="43.53177" lon="16.55555">
        <ele>308.078</ele>
        <time>2018-10-03T21:11:32Z</time>
      </trkpt>
      <trkpt lat="43.53177" lon="16.55564">
        <ele>308.091</ele>
        <time>2018-10-03T21:11:52Z</time>
      </trkpt>
      <trkpt lat="43.53176" lon="16.5558">
        <ele>310.081</ele>
        <time>2018-10-03T21:12:12Z</time>
      </trkpt>
      <trkpt lat="43.53175" lon="16.55582">
        <ele>310.019</ele>
        <time>2018-10-03T21:12:32Z</time>
      </trkpt>
      <trkpt lat="43.53176" lon="16.55598">
        <ele>311.008</ele>
        <time>2018-10-03T21:12:52Z</time>
      </trkpt>
      <trkpt lat="43.53177" lon="16.55614">
        <ele>311.091</ele>
        <time>2018-10-03T21:13:12Z</time>
      </trkpt>
      <trkpt lat="43.5318" lon="16.55624">
        <ele>312.018</ele>
        <time>2018-10-03T21:13:32Z</time>
      </trkpt>
      <trkpt lat="43.53185" lon="16.55638">
        <ele>313.021</ele>
        <time>2018-10-03T21:13:52Z</time>
      </trkpt>
      <trkpt lat="43.53184" lon="16.5564">
        <ele>313.063</ele>
        <time>2018-10-03T21:14:12Z</time>
      </trkpt>
      <trkpt lat="43.53188" lon="16.55654">
        <ele>314.051</ele>
        <time>2018-10-03T21:14:32Z</time>
      </trkpt>
      <trkpt lat="43.53193" lon="16.55663">
        <ele>314.052</ele>
        <time>2018-10-03T21:14:52Z</time>
      </trkpt>
      <trkpt lat="43.53194" lon="16.55667">
        <ele>315.062</ele>
        <time>2018-10-03T21:15:12Z</time>
      </trkpt>
      <trkpt lat="43.53193" lon="16.55681">
        <ele>315.071</ele>
        <time>2018-10-03T21:15:32Z</time>
      </trkpt>
      <trkpt lat="43.53193" lon="16.55687">
        <ele>316.059</ele>
        <time>2018-10-03T21:15:52Z</time>
      </trkpt>
      <trkpt lat="43.53197" lon="16.55705">
        <ele>317.003</ele>
        <time>2018-10-03T21:16:12Z</time>
      </trkpt>
      <trkpt lat="43.53201" lon="16.55712">
        <ele>318.023</ele>
        <time>2018-10-03T21:16:32Z</time>
      </trkpt>
      <trkpt lat="43.53202" lon="16.55713">
        <ele>318.008</ele>
        <time>2018-10-03T21:16:52Z</time>
      </trkpt>
      <trkpt lat="43.53209" lon="16.55724">
        <ele>320.037</ele>
        <time>2018-10-03T21:17:12Z</time>
      </trkpt>
      <trkpt lat="43.53213" lon="16.55729">
        <ele>320.094</ele>
        <time>2018-10-03T21:17:32Z</time>
      </trkpt>
      <trkpt lat="43.53215" lon="16.55734">
        <ele>321.027</ele>
        <time>2018-10-03T21:17:52Z</time>
      </trkpt>
      <trkpt lat="43.53218" lon="16.55738">
        <ele>322.069</ele>
        <time>2018-10-03T21:18:12Z</time>
      </trkpt>
      <trkpt lat="43.53221" lon="16.55743">
        <ele>323.087</ele>
        <time>2018-10-03T21:18:32Z</time>
      </trkpt>
      <trkpt lat="43.53224" lon="16.55748">
        <ele>324.068</ele>
        <time>2018-10-03T21:18:52Z</time>
      </trkpt>
      <trkpt lat="43.53227" lon="16.55761">
        <ele>325.018</ele>
        <time>2018-10-03T21:19:12Z</time>
      </trkpt>
      <trkpt lat="43.53229" lon="16.55768">
        <ele>326.027</ele>
        <time>2018-10-03T21:19:32Z</time>
      </trkpt>
      <trkpt lat="43.5323" lon="16.55777">
        <ele>326.035</ele>
        <time>2018-10-03T21:19:52Z</time>
      </trkpt>
      <trkpt lat="43.53229" lon="16.55786">
        <ele>327.086</ele>
        <time>2018-10-03T21:20:12Z</time>
      </trkpt>
      <trkpt lat="43.53218" lon="16.55798">
        <ele>327.014</ele>
        <time>2018-10-03T21:20:32Z</time>
      </trkpt>
      <trkpt lat="43.53214" lon="16.55801">
        <ele>327.008</ele>
        <time>2018-10-03T21:20:52Z</time>
      </trkpt>
      <trkpt lat="43.53205" lon="16.55811">
        <ele>328.055</ele>
        <time>2018-10-03T21:21:12Z</time>
      </trkpt>
      <trkpt lat="43.53189" lon="16.55823">
        <ele>329.072</ele>
        <time>2018-10-03T21:21:32Z</time>
      </trkpt>
      <trkpt lat="43.53179" lon="16.55828">
        <ele>330.015</ele>
        <time>2018-10-03T21:21:52Z</time>
      </trkpt>
      <trkpt lat="43.5317" lon="16.55829">
        <ele>331.087</ele>
        <time>2018-10-03T21:22:12Z</time>
      </trkpt>
      <trkpt lat="43.53153" lon="16.55828">
        <ele>332.055</ele>
        <time>2018-10-03T21:22:32Z</time>
      </trkpt>
      <trkpt lat="43.53138" lon="16.55829">
        <ele>333.026</ele>
        <time>2018-10-03T21:22:52Z</time>
      </trkpt>
      <trkpt lat="43.53128" lon="16.55831">
        <ele>334.036</ele>
        <time>2018-10-03T21:23:12Z</time>
      </trkpt>
      <trkpt lat="43.53114" lon="16.55837">
        <ele>335.095</ele>
        <time>2018-10-03T21:23:32Z</time>
      </trkpt>
      <trkpt lat="43.531" lon="16.55843">
        <ele>336.078</ele>
        <time>2018-10-03T21:23:52Z</time>
      </trkpt>
      <trkpt lat="43.53087" lon="16.55854">
        <ele>338.033</ele>
        <time>2018-10-03T21:24:12Z</time>
      </trkpt>
      <trkpt lat="43.5308" lon="16.55863">
        <ele>339.026</ele>
        <time>2018-10-03T21:24:32Z</time>
      </trkpt>
      <trkpt lat="43.53076" lon="16.55869">
        <ele>339.008</ele>
        <time>2018-10-03T21:24:52Z</time>
      </trkpt>
      <trkpt lat="43.53073" lon="16.55877">
        <ele>340.019</ele>
        <time>2018-10-03T21:25:12Z</time>
      </trkpt>
      <trkpt lat="43.53068" lon="16.5589">
        <ele>341.026</ele>
        <time>2018-10-03T21:25:32Z</time>
      </trkpt>
      <trkpt lat="43.53062" lon="16.55903">
        <ele>341.029</ele>
        <time>2018-10-03T21:25:52Z</time>
      </trkpt>
      <trkpt lat="43.53053" lon="16.55931">
        <ele>340.081</ele>
        <time>2018-10-03T21:26:12Z</time>
      </trkpt>
      <trkpt lat="43.53052" lon="16.55937">
        <ele>340.099</ele>
        <time>2018-10-03T21:26:32Z</time>
      </trkpt>
      <trkpt lat="43.53049" lon="16.55948">
        <ele>340.04</ele>
        <time>2018-10-03T21:26:52Z</time>
      </trkpt>
      <trkpt lat="43.53051" lon="16.5597">
        <ele>341.06</ele>
        <time>2018-10-03T21:27:12Z</time>
      </trkpt>
      <trkpt lat="43.53056" lon="16.55988">
        <ele>342.099</ele>
        <time>2018-10-03T21:27:32Z</time>
      </trkpt>
      <trkpt lat="43.53075" lon="16.56013">
        <ele>343.067</ele>
        <time>2018-10-03T21:27:52Z</time>
      </trkpt>
      <trkpt lat="43.53092" lon="16.56025">
        <ele>344.081</ele>
        <time>2018-10-03T21:28:12Z</time>
      </trkpt>
      <trkpt lat="43.53095" lon="16.56027">
        <ele>344.019</ele>
        <time>2018-10-03T21:28:32Z</time>
      </trkpt>
      <trkpt lat="43.53108" lon="16.56049">
        <ele>344.008</ele>
        <time>2018-10-03T21:28:52Z</time>
      </trkpt>
      <trkpt lat="43.53116" lon="16.56062">
        <ele>344.088</ele>
        <time>2018-10-03T21:29:12Z</time>
      </trkpt>
      <trkpt lat="43.53132" lon="16.56078">
        <ele>343.065</ele>
        <time>2018-10-03T21:29:32Z</time>
      </trkpt>
      <trkpt lat="43.5315" lon="16.56097">
        <ele>345.038</ele>
        <time>2018-10-03T21:29:52Z</time>
      </trkpt>
      <trkpt lat="43.53159" lon="16.56104">
        <ele>346.02</ele>
        <time>2018-10-03T21:30:12Z</time>
      </trkpt>
      <trkpt lat="43.5317" lon="16.5611">
        <ele>346.028</ele>
        <time>2018-10-03T21:30:32Z</time>
      </trkpt>
      <trkpt lat="43.53187" lon="16.56125">
        <ele>347.019</ele>
        <time>2018-10-03T21:30:52Z</time>
      </trkpt>
      <trkpt lat="43.53192" lon="16.56135">
        <ele>347.099</ele>
        <time>2018-10-03T21:31:12Z</time>
      </trkpt>
      <trkpt lat="43.53201" lon="16.56153">
        <ele>347.068</ele>
        <time>2018-10-03T21:31:32Z</time>
      </trkpt>
      <trkpt lat="43.53212" lon="16.56164">
        <ele>347.042</ele>
        <time>2018-10-03T21:31:52Z</time>
      </trkpt>
      <trkpt lat="43.53232" lon="16.56182">
        <ele>348.022</ele>
        <time>2018-10-03T21:32:12Z</time>
      </trkpt>
      <trkpt lat="43.53248" lon="16.56195">
        <ele>349.014</ele>
        <time>2018-10-03T21:32:32Z</time>
      </trkpt>
      <trkpt lat="43.53258" lon="16.56201">
        <ele>349.008</ele>
        <time>2018-10-03T21:32:52Z</time>
      </trkpt>
      <trkpt lat="43.53267" lon="16.56203">
        <ele>350.096</ele>
        <time>2018-10-03T21:33:12Z</time>
      </trkpt>
      <trkpt lat="43.53278" lon="16.56206">
        <ele>350.023</ele>
        <time>2018-10-03T21:33:32Z</time>
      </trkpt>
      <trkpt lat="43.5329" lon="16.5621">
        <ele>351.076</ele>
        <time>2018-10-03T21:33:52Z</time>
      </trkpt>
      <trkpt lat="43.53298" lon="16.56213">
        <ele>352.098</ele>
        <time>2018-10-03T21:34:12Z</time>
      </trkpt>
      <trkpt lat="43.533" lon="16.56214">
        <ele>353.036</ele>
        <time>2018-10-03T21:34:32Z</time>
      </trkpt>
      <trkpt lat="43.5331" lon="16.5623">
        <ele>354.057</ele>
        <time>2018-10-03T21:34:52Z</time>
      </trkpt>
      <trkpt lat="43.53312" lon="16.5624">
        <ele>354.097</ele>
        <time>2018-10-03T21:35:12Z</time>
      </trkpt>
      <trkpt lat="43.53315" lon="16.56256">
        <ele>354.016</ele>
        <time>2018-10-03T21:35:32Z</time>
      </trkpt>
      <trkpt lat="43.53316" lon="16.5627">
        <ele>355.093</ele>
        <time>2018-10-03T21:35:52Z</time>
      </trkpt>
      <trkpt lat="43.53315" lon="16.56277">
        <ele>355.065</ele>
        <time>2018-10-03T21:36:12Z</time>
      </trkpt>
      <trkpt lat="43.5332" lon="16.56287">
        <ele>356.021</ele>
        <time>2018-10-03T21:36:32Z</time>
      </trkpt>
      <trkpt lat="43.5333" lon="16.56299">
        <ele>357.008</ele>
        <time>2018-10-03T21:36:52Z</time>
      </trkpt>
      <trkpt lat="43.5333" lon="16.563">
        <ele>357.011</ele>
        <time>2018-10-03T21:37:12Z</time>
      </trkpt>
      <trkpt lat="43.53335" lon="16.56309">
        <ele>357.028</ele>
        <time>2018-10-03T21:37:32Z</time>
      </trkpt>
      <trkpt lat="43.53337" lon="16.56311">
        <ele>358.021</ele>
        <time>2018-10-03T21:37:52Z</time>
      </trkpt>
      <trkpt lat="43.53337" lon="16.56313">
        <ele>358.073</ele>
        <time>2018-10-03T21:38:12Z</time>
      </trkpt>
      <trkpt lat="43.53342" lon="16.56324">
        <ele>359.021</ele>
        <time>2018-10-03T21:38:32Z</time>
      </trkpt>
      <trkpt lat="43.53344" lon="16.5633">
        <ele>360.012</ele>
        <time>2018-10-03T21:38:52Z</time>
      </trkpt>
      <trkpt lat="43.53345" lon="16.56334">
        <ele>360.042</ele>
        <time>2018-10-03T21:39:12Z</time>
      </trkpt>
      <trkpt lat="43.53348" lon="16.56338">
        <ele>361.071</ele>
        <time>2018-10-03T21:39:32Z</time>
      </trkpt>
      <trkpt lat="43.53354" lon="16.56344">
        <ele>362.051</ele>
        <time>2018-10-03T21:39:52Z</time>
      </trkpt>
      <trkpt lat="43.53362" lon="16.56353">
        <ele>363.001</ele>
        <time>2018-10-03T21:40:12Z</time>
      </trkpt>
      <trkpt lat="43.53362" lon="16.56374">
        <ele>363.011</ele>
        <time>2018-10-03T21:40:32Z</time>
      </trkpt>
      <trkpt lat="43.53353" lon="16.56399">
        <ele>363.008</ele>
        <time>2018-10-03T21:40:52Z</time>
      </trkpt>
      <trkpt lat="43.53342" lon="16.56418">
        <ele>362.087</ele>
        <time>2018-10-03T21:41:12Z</time>
      </trkpt>
      <trkpt lat="43.53331" lon="16.56441">
        <ele>362.014</ele>
        <time>2018-10-03T21:41:32Z</time>
      </trkpt>
      <trkpt lat="43.53311" lon="16.56459">
        <ele>363.097</ele>
        <time>2018-10-03T21:41:52Z</time>
      </trkpt>
      <trkpt lat="43.533" lon="16.56471">
        <ele>364.079</ele>
        <time>2018-10-03T21:42:12Z</time>
      </trkpt>
      <trkpt lat="43.5329" lon="16.56492">
        <ele>365.047</ele>
        <time>2018-10-03T21:42:32Z</time>
      </trkpt>
      <trkpt lat="43.53285" lon="16.56499">
        <ele>365.068</ele>
        <time>2018-10-03T21:42:52Z</time>
      </trkpt>
      <trkpt lat="43.53275" lon="16.56513">
        <ele>365.048</ele>
        <time>2018-10-03T21:43:12Z</time>
      </trkpt>
      <trkpt lat="43.53265" lon="16.56534">
        <ele>366.047</ele>
        <time>2018-10-03T21:43:32Z</time>
      </trkpt>
      <trkpt lat="43.53251" lon="16.56553">
        <ele>366.053</ele>
        <time>2018-10-03T21:43:52Z</time>
      </trkpt>
      <trkpt lat="43.53236" lon="16.56569">
        <ele>366.004</ele>
        <time>2018-10-03T21:44:12Z</time>
      </trkpt>
      <trkpt lat="43.5322" lon="16.56588">
        <ele>365.014</ele>
        <time>2018-10-03T21:44:32Z</time>
      </trkpt>
      <trkpt lat="43.53215" lon="16.56598">
        <ele>365.008</ele>
        <time>2018-10-03T21:44:52Z</time>
      </trkpt>
      <trkpt lat="43.53211" lon="16.56608">
        <ele>365.077</ele>
        <time>2018-10-03T21:45:12Z</time>
      </trkpt>
      <trkpt lat="43.53209" lon="16.56615">
        <ele>365.064</ele>
        <time>2018-10-03T21:45:32Z</time>
      </trkpt>
      <trkpt lat="43.5321" lon="16.56621">
        <ele>365.087</ele>
        <time>2018-10-03T21:45:52Z</time>
      </trkpt>
      <trkpt lat="43.53212" lon="16.56625">
        <ele>365.029</ele>
        <time>2018-10-03T21:46:12Z</time>
      </trkpt>
      <trkpt lat="43.5323" lon="16.56637">
        <ele>366.017</ele>
        <time>2018-10-03T21:46:32Z</time>
      </trkpt>
      <trkpt lat="43.53246" lon="16.56651">
        <ele>366.058</ele>
        <time>2018-10-03T21:46:52Z</time>
      </trkpt>
      <trkpt lat="43.53264" lon="16.56657">
        <ele>366.038</ele>
        <time>2018-10-03T21:47:12Z</time>
      </trkpt>
      <trkpt lat="43.53283" lon="16.56661">
        <ele>366.067</ele>
        <time>2018-10-03T21:47:32Z</time>
      </trkpt>
      <trkpt lat="43.53303" lon="16.56662">
        <ele>365.071</ele>
        <time>2018-10-03T21:47:52Z</time>
      </trkpt>
      <trkpt lat="43.53315" lon="16.56665">
        <ele>364.041</ele>
        <time>2018-10-03T21:48:12Z</time>
      </trkpt>
      <trkpt lat="43.53334" lon="16.56672">
        <ele>364.015</ele>
        <time>2018-10-03T21:48:32Z</time>
      </trkpt>
      <trkpt lat="43.53353" lon="16.56675">
        <ele>364.008</ele>
        <time>2018-10-03T21:48:52Z</time>
      </trkpt>
      <trkpt lat="43.53372" lon="16.56668">
        <ele>364.079</ele>
        <time>2018-10-03T21:49:12Z</time>
      </trkpt>
      <trkpt lat="43.53392" lon="16.56669">
        <ele>366.096</ele>
        <time>2018-10-03T21:49:32Z</time>
      </trkpt>
      <trkpt lat="43.53407" lon="16.56684">
        <ele>367.019</ele>
        <time>2018-10-03T21:49:52Z</time>
      </trkpt>
      <trkpt lat="43.53412" lon="16.56691">
        <ele>367.051</ele>
        <time>2018-10-03T21:50:12Z</time>
      </trkpt>
      <trkpt lat="43.53421" lon="16.56705">
        <ele>368.089</ele>
        <time>2018-10-03T21:50:32Z</time>
      </trkpt>
      <trkpt lat="43.53432" lon="16.56732">
        <ele>369.04</ele>
        <time>2018-10-03T21:50:52Z</time>
      </trkpt>
      <trkpt lat="43.53433" lon="16.56736">
        <ele>369.04</ele>
        <time>2018-10-03T21:51:12Z</time>
      </trkpt>
      <trkpt lat="43.53428" lon="16.5676">
        <ele>368.049</ele>
        <time>2018-10-03T21:51:32Z</time>
      </trkpt>
      <trkpt lat="43.53424" lon="16.56774">
        <ele>368.012</ele>
        <time>2018-10-03T21:51:52Z</time>
      </trkpt>
      <trkpt lat="43.53417" lon="16.56799">
        <ele>368.032</ele>
        <time>2018-10-03T21:52:12Z</time>
      </trkpt>
      <trkpt lat="43.53411" lon="16.56824">
        <ele>367.005</ele>
        <time>2018-10-03T21:52:32Z</time>
      </trkpt>
      <trkpt lat="43.53409" lon="16.56834">
        <ele>367.008</ele>
        <time>2018-10-03T21:52:52Z</time>
      </trkpt>
      <trkpt lat="43.53407" lon="16.56845">
        <ele>367.073</ele>
        <time>2018-10-03T21:53:12Z</time>
      </trkpt>
      <trkpt lat="43.53399" lon="16.56871">
        <ele>366.03</ele>
        <time>2018-10-03T21:53:32Z</time>
      </trkpt>
      <trkpt lat="43.53394" lon="16.56888">
        <ele>366.083</ele>
        <time>2018-10-03T21:53:52Z</time>
      </trkpt>
      <trkpt lat="43.53384" lon="16.5691">
        <ele>365.055</ele>
        <time>2018-10-03T21:54:12Z</time>
      </trkpt>
      <trkpt lat="43.5338" lon="16.56918">
        <ele>365.073</ele>
        <time>2018-10-03T21:54:32Z</time>
      </trkpt>
      <trkpt lat="43.53367" lon="16.5694">
        <ele>364.024</ele>
        <time>2018-10-03T21:54:52Z</time>
      </trkpt>
      <trkpt lat="43.53361" lon="16.56957">
        <ele>363.094</ele>
        <time>2018-10-03T21:55:12Z</time>
      </trkpt>
      <trkpt lat="43.5336" lon="16.5696">
        <ele>363.083</ele>
        <time>2018-10-03T21:55:32Z</time>
      </trkpt>
      <trkpt lat="43.53351" lon="16.56985">
        <ele>362.082</ele>
        <time>2018-10-03T21:55:52Z</time>
      </trkpt>
      <trkpt lat="43.53349" lon="16.57">
        <ele>361.043</ele>
        <time>2018-10-03T21:56:12Z</time>
      </trkpt>
      <trkpt lat="43.53344" lon="16.5703">
        <ele>361.017</ele>
        <time>2018-10-03T21:56:32Z</time>
      </trkpt>
      <trkpt lat="43.53337" lon="16.57053">
        <ele>362.008</ele>
        <time>2018-10-03T21:56:52Z</time>
      </trkpt>
      <trkpt lat="43.53325" lon="16.57073">
        <ele>361.06</ele>
        <time>2018-10-03T21:57:12Z</time>
      </trkpt>
      <trkpt lat="43.53311" lon="16.57094">
        <ele>361.017</ele>
        <time>2018-10-03T21:57:32Z</time>
      </trkpt>
      <trkpt lat="43.53304" lon="16.57107">
        <ele>362.03</ele>
        <time>2018-10-03T21:57:52Z</time>
      </trkpt>
      <trkpt lat="43.533" lon="16.57113">
        <ele>362.012</ele>
        <time>2018-10-03T21:58:12Z</time>
      </trkpt>
      <trkpt lat="43.53299" lon="16.57116">
        <ele>363.01</ele>
        <time>2018-10-03T21:58:32Z</time>
      </trkpt>
      <trkpt lat="43.53287" lon="16.57128">
        <ele>364.041</ele>
        <time>2018-10-03T21:58:52Z</time>
      </trkpt>
      <trkpt lat="43.53275" lon="16.57141">
        <ele>365.061</ele>
        <time>2018-10-03T21:59:12Z</time>
      </trkpt>
      <trkpt lat="43.53273" lon="16.57142">
        <ele>365.01</ele>
        <time>2018-10-03T21:59:32Z</time>
      </trkpt>
      <trkpt lat="43.53262" lon="16.57162">
        <ele>365.075</ele>
        <time>2018-10-03T21:59:52Z</time>
      </trkpt>
      <trkpt lat="43.53251" lon="16.57182">
        <ele>366.028</ele>
        <time>2018-10-03T22:00:12Z</time>
      </trkpt>
      <trkpt lat="43.53247" lon="16.5719">
        <ele>366.02</ele>
        <time>2018-10-03T22:00:32Z</time>
      </trkpt>
      <trkpt lat="43.53236" lon="16.57206">
        <ele>367.008</ele>
        <time>2018-10-03T22:00:52Z</time>
      </trkpt>
      <trkpt lat="43.53232" lon="16.57218">
        <ele>368.089</ele>
        <time>2018-10-03T22:01:12Z</time>
      </trkpt>
      <trkpt lat="43.53231" lon="16.57224">
        <ele>368.046</ele>
        <time>2018-10-03T22:01:32Z</time>
      </trkpt>
      <trkpt lat="43.53231" lon="16.57238">
        <ele>370.049</ele>
        <time>2018-10-03T22:01:52Z</time>
      </trkpt>
      <trkpt lat="43.53231" lon="16.57241">
        <ele>370.091</ele>
        <time>2018-10-03T22:02:12Z</time>
      </trkpt>
      <trkpt lat="43.5323" lon="16.57243">
        <ele>370.099</ele>
        <time>2018-10-03T22:02:32Z</time>
      </trkpt>
      <trkpt lat="43.53222" lon="16.57253">
        <ele>371.09</ele>
        <time>2018-10-03T22:02:52Z</time>
      </trkpt>
      <trkpt lat="43.53213" lon="16.57283">
        <ele>371.03</ele>
        <time>2018-10-03T22:03:12Z</time>
      </trkpt>
      <trkpt lat="43.53212" lon="16.5729">
        <ele>371.039</ele>
        <time>2018-10-03T22:03:32Z</time>
      </trkpt>
      <trkpt lat="43.53212" lon="16.57301">
        <ele>372.062</ele>
        <time>2018-10-03T22:03:52Z</time>
      </trkpt>
      <trkpt lat="43.53212" lon="16.57314">
        <ele>372.083</ele>
        <time>2018-10-03T22:04:12Z</time>
      </trkpt>
      <trkpt lat="43.5322" lon="16.57338">
        <ele>372.011</ele>
        <time>2018-10-03T22:04:32Z</time>
      </trkpt>
      <trkpt lat="43.53229" lon="16.57359">
        <ele>372.008</ele>
        <time>2018-10-03T22:04:52Z</time>
      </trkpt>
      <trkpt lat="43.5324" lon="16.57379">
        <ele>372.058</ele>
        <time>2018-10-03T22:05:12Z</time>
      </trkpt>
      <trkpt lat="43.53248" lon="16.5739">
        <ele>372.075</ele>
        <time>2018-10-03T22:05:32Z</time>
      </trkpt>
      <trkpt lat="43.53254" lon="16.57399">
        <ele>373.098</ele>
        <time>2018-10-03T22:05:52Z</time>
      </trkpt>
      <trkpt lat="43.53261" lon="16.57412">
        <ele>373.09</ele>
        <time>2018-10-03T22:06:12Z</time>
      </trkpt>
      <trkpt lat="43.53266" lon="16.5742">
        <ele>374.078</ele>
        <time>2018-10-03T22:06:32Z</time>
      </trkpt>
      <trkpt lat="43.53272" lon="16.57428">
        <ele>375.059</ele>
        <time>2018-10-03T22:06:52Z</time>
      </trkpt>
      <trkpt lat="43.53276" lon="16.57435">
        <ele>375.019</ele>
        <time>2018-10-03T22:07:12Z</time>
      </trkpt>
      <trkpt lat="43.53278" lon="16.57439">
        <ele>375.068</ele>
        <time>2018-10-03T22:07:32Z</time>
      </trkpt>
      <trkpt lat="43.53284" lon="16.5745">
        <ele>376.086</ele>
        <time>2018-10-03T22:07:52Z</time>
      </trkpt>
      <trkpt lat="43.53283" lon="16.57456">
        <ele>376.06</ele>
        <time>2018-10-03T22:08:12Z</time>
      </trkpt>
      <trkpt lat="43.53287" lon="16.57468">
        <ele>376.026</ele>
        <time>2018-10-03T22:08:32Z</time>
      </trkpt>
      <trkpt lat="43.53287" lon="16.57477">
        <ele>377.008</ele>
        <time>2018-10-03T22:08:52Z</time>
      </trkpt>
      <trkpt lat="43.53288" lon="16.57483">
        <ele>377.05</ele>
        <time>2018-10-03T22:09:12Z</time>
      </trkpt>
      <trkpt lat="43.53289" lon="16.57499">
        <ele>378.037</ele>
        <time>2018-10-03T22:09:32Z</time>
      </trkpt>
      <trkpt lat="43.5329" lon="16.57513">
        <ele>379.02</ele>
        <time>2018-10-03T22:09:52Z</time>
      </trkpt>
      <trkpt lat="43.53289" lon="16.57525">
        <ele>380.032</ele>
        <time>2018-10-03T22:10:12Z</time>
      </trkpt>
      <trkpt lat="43.5329" lon="16.57539">
        <ele>381.05</ele>
        <time>2018-10-03T22:10:32Z</time>
      </trkpt>
      <trkpt lat="43.53292" lon="16.5755">
        <ele>382.021</ele>
        <time>2018-10-03T22:10:52Z</time>
      </trkpt>
      <trkpt lat="43.53294" lon="16.5756">
        <ele>383.081</ele>
        <time>2018-10-03T22:11:12Z</time>
      </trkpt>
      <trkpt lat="43.53295" lon="16.57573">
        <ele>384.09</ele>
        <time>2018-10-03T22:11:32Z</time>
      </trkpt>
      <trkpt lat="43.53294" lon="16.57579">
        <ele>385.067</ele>
        <time>2018-10-03T22:11:52Z</time>
      </trkpt>
      <trkpt lat="43.53294" lon="16.57586">
        <ele>385.081</ele>
        <time>2018-10-03T22:12:12Z</time>
      </trkpt>
      <trkpt lat="43.53294" lon="16.57594">
        <ele>386.019</ele>
        <time>2018-10-03T22:12:32Z</time>
      </trkpt>
      <trkpt lat="43.53293" lon="16.57608">
        <ele>387.008</ele>
        <time>2018-10-03T22:12:52Z</time>
      </trkpt>
      <trkpt lat="43.53294" lon="16.57612">
        <ele>387.068</ele>
        <time>2018-10-03T22:13:12Z</time>
      </trkpt>
      <trkpt lat="43.53291" lon="16.57617">
        <ele>387.015</ele>
        <time>2018-10-03T22:13:32Z</time>
      </trkpt>
      <trkpt lat="43.5329" lon="16.57621">
        <ele>388.088</ele>
        <time>2018-10-03T22:13:52Z</time>
      </trkpt>
      <trkpt lat="43.53292" lon="16.57633">
        <ele>388.05</ele>
        <time>2018-10-03T22:14:12Z</time>
      </trkpt>
      <trkpt lat="43.53292" lon="16.57642">
        <ele>389.028</ele>
        <time>2018-10-03T22:14:32Z</time>
      </trkpt>
      <trkpt lat="43.53292" lon="16.5765">
        <ele>389.069</ele>
        <time>2018-10-03T22:14:52Z</time>
      </trkpt>
      <trkpt lat="43.53292" lon="16.57653">
        <ele>390.089</ele>
        <time>2018-10-03T22:15:12Z</time>
      </trkpt>
      <trkpt lat="43.53294" lon="16.57667">
        <ele>391.018</ele>
        <time>2018-10-03T22:15:32Z</time>
      </trkpt>
      <trkpt lat="43.53295" lon="16.57677">
        <ele>391.061</ele>
        <time>2018-10-03T22:15:52Z</time>
      </trkpt>
      <trkpt lat="43.53298" lon="16.57686">
        <ele>392.021</ele>
        <time>2018-10-03T22:16:12Z</time>
      </trkpt>
      <trkpt lat="43.533" lon="16.57695">
        <ele>393.013</ele>
        <time>2018-10-03T22:16:32Z</time>
      </trkpt>
      <trkpt lat="43.533" lon="16.57698">
        <ele>393.008</ele>
        <time>2018-10-03T22:16:52Z</time>
      </trkpt>
      <trkpt lat="43.53302" lon="16.57705">
        <ele>394.028</ele>
        <time>2018-10-03T22:17:12Z</time>
      </trkpt>
      <trkpt lat="43.53304" lon="16.57714">
        <ele>395.085</ele>
        <time>2018-10-03T22:17:32Z</time>
      </trkpt>
      <trkpt lat="43.53304" lon="16.57723">
        <ele>396.098</ele>
        <time>2018-10-03T22:17:52Z</time>
      </trkpt>
      <trkpt lat="43.53305" lon="16.57733">
        <ele>397.07</ele>
        <time>2018-10-03T22:18:12Z</time>
      </trkpt>
      <trkpt lat="43.53303" lon="16.57741">
        <ele>398.068</ele>
        <time>2018-10-03T22:18:32Z</time>
      </trkpt>
      <trkpt lat="43.53299" lon="16.57752">
        <ele>399.099</ele>
        <time>2018-10-03T22:18:52Z</time>
      </trkpt>
      <trkpt lat="43.53298" lon="16.57755">
        <ele>399.019</ele>
        <time>2018-10-03T22:19:12Z</time>
      </trkpt>
      <trkpt lat="43.53295" lon="16.57762">
        <ele>400.028</ele>
        <time>2018-10-03T22:19:32Z</time>
      </trkpt>
      <trkpt lat="43.5328" lon="16.57777">
        <ele>400.034</ele>
        <time>2018-10-03T22:19:52Z</time>
      </trkpt>
      <trkpt lat="43.53263" lon="16.57791">
        <ele>401.055</ele>
        <time>2018-10-03T22:20:12Z</time>
      </trkpt>
      <trkpt lat="43.53247" lon="16.57792">
        <ele>401.01</ele>
        <time>2018-10-03T22:20:32Z</time>
      </trkpt>
      <trkpt lat="43.53232" lon="16.57792">
        <ele>403.008</ele>
        <time>2018-10-03T22:20:52Z</time>
      </trkpt>
      <trkpt lat="43.5322" lon="16.57793">
        <ele>404.095</ele>
        <time>2018-10-03T22:21:12Z</time>
      </trkpt>
      <trkpt lat="43.53204" lon="16.57795">
        <ele>405.052</ele>
        <time>2018-10-03T22:21:32Z</time>
      </trkpt>
      <trkpt lat="43.53193" lon="16.57796">
        <ele>406.055</ele>
        <time>2018-10-03T22:21:52Z</time>
      </trkpt>
      <trkpt lat="43.5318" lon="16.57799">
        <ele>407.017</ele>
        <time>2018-10-03T22:22:12Z</time>
      </trkpt>
      <trkpt lat="43.53166" lon="16.578">
        <ele>408.095</ele>
        <time>2018-10-03T22:22:32Z</time>
      </trkpt>
      <trkpt lat="43.53154" lon="16.57802">
        <ele>409.056</ele>
        <time>2018-10-03T22:22:52Z</time>
      </trkpt>
      <trkpt lat="43.53144" lon="16.57802">
        <ele>410.086</ele>
        <time>2018-10-03T22:23:12Z</time>
      </trkpt>
      <trkpt lat="43.53135" lon="16.57798">
        <ele>411.045</ele>
        <time>2018-10-03T22:23:32Z</time>
      </trkpt>
      <trkpt lat="43.53127" lon="16.57797">
        <ele>412.016</ele>
        <time>2018-10-03T22:23:52Z</time>
      </trkpt>
      <trkpt lat="43.53118" lon="16.57796">
        <ele>413.076</ele>
        <time>2018-10-03T22:24:12Z</time>
      </trkpt>
      <trkpt lat="43.53113" lon="16.57798">
        <ele>414.013</ele>
        <time>2018-10-03T22:24:32Z</time>
      </trkpt>
      <trkpt lat="43.53106" lon="16.578">
        <ele>414.008</ele>
        <time>2018-10-03T22:24:52Z</time>
      </trkpt>
      <trkpt lat="43.53101" lon="16.57805">
        <ele>415.083</ele>
        <time>2018-10-03T22:25:12Z</time>
      </trkpt>
      <trkpt lat="43.53095" lon="16.57814">
        <ele>416.01</ele>
        <time>2018-10-03T22:25:32Z</time>
      </trkpt>
      <trkpt lat="43.5309" lon="16.57822">
        <ele>418.023</ele>
        <time>2018-10-03T22:25:52Z</time>
      </trkpt>
      <trkpt lat="43.53077" lon="16.5784">
        <ele>418.035</ele>
        <time>2018-10-03T22:26:12Z</time>
      </trkpt>
      <trkpt lat="43.53062" lon="16.57866">
        <ele>419.023</ele>
        <time>2018-10-03T22:26:32Z</time>
      </trkpt>
      <trkpt lat="43.5305" lon="16.57892">
        <ele>419.054</ele>
        <time>2018-10-03T22:26:52Z</time>
      </trkpt>
      <trkpt lat="43.53044" lon="16.57904">
        <ele>420.024</ele>
        <time>2018-10-03T22:27:12Z</time>
      </trkpt>
      <trkpt lat="43.53036" lon="16.57921">
        <ele>421.043</ele>
        <time>2018-10-03T22:27:32Z</time>
      </trkpt>
      <trkpt lat="43.53033" lon="16.57931">
        <ele>422.036</ele>
        <time>2018-10-03T22:27:52Z</time>
      </trkpt>
      <trkpt lat="43.53028" lon="16.57946">
        <ele>424.017</ele>
        <time>2018-10-03T22:28:12Z</time>
      </trkpt>
      <trkpt lat="43.53027" lon="16.57951">
        <ele>424.018</ele>
        <time>2018-10-03T22:28:32Z</time>
      </trkpt>
      <trkpt lat="43.53023" lon="16.57962">
        <ele>425.008</ele>
        <time>2018-10-03T22:28:52Z</time>
      </trkpt>
      <trkpt lat="43.53021" lon="16.57968">
        <ele>426.045</ele>
        <time>2018-10-03T22:29:12Z</time>
      </trkpt>
      <trkpt lat="43.5302" lon="16.57975">
        <ele>427.092</ele>
        <time>2018-10-03T22:29:32Z</time>
      </trkpt>
      <trkpt lat="43.53019" lon="16.57977">
        <ele>428.045</ele>
        <time>2018-10-03T22:29:52Z</time>
      </trkpt>
      <trkpt lat="43.53019" lon="16.57982">
        <ele>429.077</ele>
        <time>2018-10-03T22:30:12Z</time>
      </trkpt>
      <trkpt lat="43.53017" lon="16.57989">
        <ele>430.035</ele>
        <time>2018-10-03T22:30:32Z</time>
      </trkpt>
      <trkpt lat="43.53015" lon="16.57994">
        <ele>431.066</ele>
        <time>2018-10-03T22:30:52Z</time>
      </trkpt>
      <trkpt lat="43.53008" lon="16.58001">
        <ele>431.056</ele>
        <time>2018-10-03T22:31:12Z</time>
      </trkpt>
      <trkpt lat="43.53003" lon="16.58007">
        <ele>432.085</ele>
        <time>2018-10-03T22:31:32Z</time>
      </trkpt>
      <trkpt lat="43.52999" lon="16.58014">
        <ele>432.066</ele>
        <time>2018-10-03T22:31:52Z</time>
      </trkpt>
      <trkpt lat="43.52995" lon="16.58017">
        <ele>433.029</ele>
        <time>2018-10-03T22:32:12Z</time>
      </trkpt>
      <trkpt lat="43.52993" lon="16.58018">
        <ele>433.021</ele>
        <time>2018-10-03T22:32:32Z</time>
      </trkpt>
      <trkpt lat="43.52987" lon="16.58029">
        <ele>434.008</ele>
        <time>2018-10-03T22:32:52Z</time>
      </trkpt>
      <trkpt lat="43.52985" lon="16.58034">
        <ele>434.018</ele>
        <time>2018-10-03T22:33:12Z</time>
      </trkpt>
      <trkpt lat="43.52984" lon="16.58037">
        <ele>435.095</ele>
        <time>2018-10-03T22:33:32Z</time>
      </trkpt>
      <trkpt lat="43.52983" lon="16.5804">
        <ele>435.038</ele>
        <time>2018-10-03T22:33:52Z</time>
      </trkpt>
      <trkpt lat="43.52983" lon="16.58037">
        <ele>435.06</ele>
        <time>2018-10-03T22:34:12Z</time>
      </trkpt>
      <trkpt lat="43.52984" lon="16.58037">
        <ele>435.098</ele>
        <time>2018-10-03T22:34:32Z</time>
      </trkpt>
      <trkpt lat="43.52987" lon="16.5804">
        <ele>437.089</ele>
        <time>2018-10-03T22:34:52Z</time>
      </trkpt>
      <trkpt lat="43.52986" lon="16.58045">
        <ele>438.079</ele>
        <time>2018-10-03T22:35:12Z</time>
      </trkpt>
      <trkpt lat="43.52985" lon="16.5805">
        <ele>439.048</ele>
        <time>2018-10-03T22:35:32Z</time>
      </trkpt>
      <trkpt lat="43.52981" lon="16.58055">
        <ele>440.041</ele>
        <time>2018-10-03T22:35:52Z</time>
      </trkpt>
      <trkpt lat="43.5298" lon="16.58057">
        <ele>441.081</ele>
        <time>2018-10-03T22:36:12Z</time>
      </trkpt>
      <trkpt lat="43.52976" lon="16.58064">
        <ele>442.009</ele>
        <time>2018-10-03T22:36:32Z</time>
      </trkpt>
      <trkpt lat="43.52974" lon="16.58072">
        <ele>444.008</ele>
        <time>2018-10-03T22:36:52Z</time>
      </trkpt>
      <trkpt lat="43.52972" lon="16.58076">
        <ele>445.086</ele>
        <time>2018-10-03T22:37:12Z</time>
      </trkpt>
      <trkpt lat="43.5297" lon="16.58079">
        <ele>446.073</ele>
        <time>2018-10-03T22:37:32Z</time>
      </trkpt>
      <trkpt lat="43.52967" lon="16.58082">
        <ele>447.086</ele>
        <time>2018-10-03T22:37:52Z</time>
      </trkpt>
      <trkpt lat="43.52964" lon="16.58088">
        <ele>448.038</ele>
        <time>2018-10-03T22:38:12Z</time>
      </trkpt>
      <trkpt lat="43.52968" lon="16.58089">
        <ele>449.036</ele>
        <time>2018-10-03T22:38:32Z</time>
      </trkpt>
      <trkpt lat="43.52969" lon="16.58089">
        <ele>449.077</ele>
        <time>2018-10-03T22:38:52Z</time>
      </trkpt>
      <trkpt lat="43.5297" lon="16.58095">
        <ele>451.077</ele>
        <time>2018-10-03T22:39:12Z</time>
      </trkpt>
      <trkpt lat="43.52971" lon="16.58099">
        <ele>452.056</ele>
        <time>2018-10-03T22:39:32Z</time>
      </trkpt>
      <trkpt lat="43.52973" lon="16.58099">
        <ele>453.034</ele>
        <time>2018-10-03T22:39:52Z</time>
      </trkpt>
      <trkpt lat="43.52976" lon="16.58099">
        <ele>454.055</ele>
        <time>2018-10-03T22:40:12Z</time>
      </trkpt>
      <trkpt lat="43.52979" lon="16.58104">
        <ele>456.01</ele>
        <time>2018-10-03T22:40:32Z</time>
      </trkpt>
      <trkpt lat="43.52983" lon="16.58112">
        <ele>458.008</ele>
        <time>2018-10-03T22:40:52Z</time>
      </trkpt>
      <trkpt lat="43.52985" lon="16.58115">
        <ele>459.045</ele>
        <time>2018-10-03T22:41:12Z</time>
      </trkpt>
      <trkpt lat="43.52988" lon="16.58118">
        <ele>461.092</ele>
        <time>2018-10-03T22:41:32Z</time>
      </trkpt>
      <trkpt lat="43.52987" lon="16.5812">
        <ele>462.045</ele>
        <time>2018-10-03T22:41:52Z</time>
      </trkpt>
      <trkpt lat="43.52993" lon="16.58123">
        <ele>463.087</ele>
        <time>2018-10-03T22:42:12Z</time>
      </trkpt>
      <trkpt lat="43.52993" lon="16.58122">
        <ele>464.095</ele>
        <time>2018-10-03T22:42:32Z</time>
      </trkpt>
      <trkpt lat="43.52994" lon="16.58124">
        <ele>465.046</ele>
        <time>2018-10-03T22:42:52Z</time>
      </trkpt>
      <trkpt lat="43.52995" lon="16.58124">
        <ele>465.076</ele>
        <time>2018-10-03T22:43:12Z</time>
      </trkpt>
      <trkpt lat="43.52996" lon="16.58127">
        <ele>466.045</ele>
        <time>2018-10-03T22:43:32Z</time>
      </trkpt>
      <trkpt lat="43.53002" lon="16.58136">
        <ele>469.088</ele>
        <time>2018-10-03T22:43:52Z</time>
      </trkpt>
      <trkpt lat="43.53004" lon="16.58139">
        <ele>470.024</ele>
        <time>2018-10-03T22:44:12Z</time>
      </trkpt>
      <trkpt lat="43.53008" lon="16.58145">
        <ele>471.026</ele>
        <time>2018-10-03T22:44:32Z</time>
      </trkpt>
      <trkpt lat="43.5301" lon="16.58147">
        <ele>472.008</ele>
        <time>2018-10-03T22:44:52Z</time>
      </trkpt>
      <trkpt lat="43.53014" lon="16.58156">
        <ele>474.02</ele>
        <time>2018-10-03T22:45:12Z</time>
      </trkpt>
      <trkpt lat="43.53019" lon="16.58162">
        <ele>477.087</ele>
        <time>2018-10-03T22:45:32Z</time>
      </trkpt>
      <trkpt lat="43.53021" lon="16.58164">
        <ele>478.08</ele>
        <time>2018-10-03T22:45:52Z</time>
      </trkpt>
      <trkpt lat="43.53024" lon="16.58169">
        <ele>480.032</ele>
        <time>2018-10-03T22:46:12Z</time>
      </trkpt>
      <trkpt lat="43.5303" lon="16.58177">
        <ele>482.08</ele>
        <time>2018-10-03T22:46:32Z</time>
      </trkpt>
      <trkpt lat="43.53033" lon="16.58186">
        <ele>485.011</ele>
        <time>2018-10-03T22:46:52Z</time>
      </trkpt>
      <trkpt lat="43.53037" lon="16.58196">
        <ele>487.041</ele>
        <time>2018-10-03T22:47:12Z</time>
      </trkpt>
      <trkpt lat="43.53039" lon="16.58206">
        <ele>488.04</ele>
        <time>2018-10-03T22:47:32Z</time>
      </trkpt>
      <trkpt lat="43.5304" lon="16.58211">
        <ele>489.027</ele>
        <time>2018-10-03T22:47:52Z</time>
      </trkpt>
      <trkpt lat="43.5304" lon="16.58216">
        <ele>490.068</ele>
        <time>2018-10-03T22:48:12Z</time>
      </trkpt>
      <trkpt lat="43.53046" lon="16.58218">
        <ele>493.014</ele>
        <time>2018-10-03T22:48:32Z</time>
      </trkpt>
      <trkpt lat="43.53048" lon="16.58218">
        <ele>494.008</ele>
        <time>2018-10-03T22:48:52Z</time>
      </trkpt>
      <trkpt lat="43.5305" lon="16.58218">
        <ele>495.054</ele>
        <time>2018-10-03T22:49:12Z</time>
      </trkpt>
      <trkpt lat="43.53053" lon="16.58215">
        <ele>496.071</ele>
        <time>2018-10-03T22:49:32Z</time>
      </trkpt>
      <trkpt lat="43.53056" lon="16.58221">
        <ele>498.074</ele>
        <time>2018-10-03T22:49:52Z</time>
      </trkpt>
      <trkpt lat="43.53057" lon="16.58235">
        <ele>500.076</ele>
        <time>2018-10-03T22:50:12Z</time>
      </trkpt>
      <trkpt lat="43.53052" lon="16.58248">
        <ele>501.054</ele>
        <time>2018-10-03T22:50:32Z</time>
      </trkpt>
      <trkpt lat="43.53046" lon="16.58256">
        <ele>503.045</ele>
        <time>2018-10-03T22:50:52Z</time>
      </trkpt>
      <trkpt lat="43.53043" lon="16.5826">
        <ele>503.035</ele>
        <time>2018-10-03T22:51:12Z</time>
      </trkpt>
      <trkpt lat="43.53042" lon="16.58263">
        <ele>504.074</ele>
        <time>2018-10-03T22:51:32Z</time>
      </trkpt>
      <trkpt lat="43.5304" lon="16.58265">
        <ele>504.024</ele>
        <time>2018-10-03T22:51:52Z</time>
      </trkpt>
      <trkpt lat="43.53039" lon="16.58267">
        <ele>505.004</ele>
        <time>2018-10-03T22:52:12Z</time>
      </trkpt>
      <trkpt lat="43.53033" lon="16.58273">
        <ele>506.014</ele>
        <time>2018-10-03T22:52:32Z</time>
      </trkpt>
      <trkpt lat="43.53029" lon="16.58281">
        <ele>508.008</ele>
        <time>2018-10-03T22:52:52Z</time>
      </trkpt>
      <trkpt lat="43.53028" lon="16.58284">
        <ele>509.094</ele>
        <time>2018-10-03T22:53:12Z</time>
      </trkpt>
      <trkpt lat="43.53027" lon="16.58289">
        <ele>510.061</ele>
        <time>2018-10-03T22:53:32Z</time>
      </trkpt>
      <trkpt lat="43.53026" lon="16.58294">
        <ele>511.074</ele>
        <time>2018-10-03T22:53:52Z</time>
      </trkpt>
      <trkpt lat="43.53024" lon="16.583">
        <ele>513.076</ele>
        <time>2018-10-03T22:54:12Z</time>
      </trkpt>
      <trkpt lat="43.53023" lon="16.58304">
        <ele>513.054</ele>
        <time>2018-10-03T22:54:32Z</time>
      </trkpt>
      <trkpt lat="43.5302" lon="16.58312">
        <ele>515.025</ele>
        <time>2018-10-03T22:54:52Z</time>
      </trkpt>
      <trkpt lat="43.53019" lon="16.58317">
        <ele>515.075</ele>
        <time>2018-10-03T22:55:12Z</time>
      </trkpt>
      <trkpt lat="43.53017" lon="16.58328">
        <ele>517.094</ele>
        <time>2018-10-03T22:55:32Z</time>
      </trkpt>
      <trkpt lat="43.53015" lon="16.58337">
        <ele>518.089</ele>
        <time>2018-10-03T22:55:52Z</time>
      </trkpt>
      <trkpt lat="43.53013" lon="16.58346">
        <ele>519.006</ele>
        <time>2018-10-03T22:56:12Z</time>
      </trkpt>
      <trkpt lat="43.53009" lon="16.58355">
        <ele>520.026</ele>
        <time>2018-10-03T22:56:32Z</time>
      </trkpt>
      <trkpt lat="43.53004" lon="16.58363">
        <ele>519.008</ele>
        <time>2018-10-03T22:56:52Z</time>
      </trkpt>
      <trkpt lat="43.52995" lon="16.58386">
        <ele>520.08</ele>
        <time>2018-10-03T22:57:12Z</time>
      </trkpt>
      <trkpt lat="43.52989" lon="16.584">
        <ele>520.017</ele>
        <time>2018-10-03T22:57:32Z</time>
      </trkpt>
      <trkpt lat="43.52985" lon="16.58414">
        <ele>520.02</ele>
        <time>2018-10-03T22:57:52Z</time>
      </trkpt>
      <trkpt lat="43.52984" lon="16.58423">
        <ele>521.022</ele>
        <time>2018-10-03T22:58:12Z</time>
      </trkpt>
      <trkpt lat="43.52979" lon="16.5844">
        <ele>522.05</ele>
        <time>2018-10-03T22:58:32Z</time>
      </trkpt>
      <trkpt lat="43.52972" lon="16.58462">
        <ele>522.011</ele>
        <time>2018-10-03T22:58:52Z</time>
      </trkpt>
      <trkpt lat="43.52969" lon="16.58479">
        <ele>523.051</ele>
        <time>2018-10-03T22:59:12Z</time>
      </trkpt>
      <trkpt lat="43.52968" lon="16.58486">
        <ele>523.03</ele>
        <time>2018-10-03T22:59:32Z</time>
      </trkpt>
      <trkpt lat="43.52963" lon="16.58505">
        <ele>524.042</ele>
        <time>2018-10-03T22:59:52Z</time>
      </trkpt>
      <trkpt lat="43.52961" lon="16.58519">
        <ele>524.022</ele>
        <time>2018-10-03T23:00:12Z</time>
      </trkpt>
      <trkpt lat="43.52961" lon="16.58526">
        <ele>525.014</ele>
        <time>2018-10-03T23:00:32Z</time>
      </trkpt>
      <trkpt lat="43.52959" lon="16.58542">
        <ele>526.008</ele>
        <time>2018-10-03T23:00:52Z</time>
      </trkpt>
      <trkpt lat="43.52958" lon="16.58554">
        <ele>527.026</ele>
        <time>2018-10-03T23:01:12Z</time>
      </trkpt>
      <trkpt lat="43.52959" lon="16.58561">
        <ele>528.033</ele>
        <time>2018-10-03T23:01:32Z</time>
      </trkpt>
      <trkpt lat="43.52957" lon="16.5857">
        <ele>529.026</ele>
        <time>2018-10-03T23:01:52Z</time>
      </trkpt>
      <trkpt lat="43.52955" lon="16.58573">
        <ele>529.018</ele>
        <time>2018-10-03T23:02:12Z</time>
      </trkpt>
      <trkpt lat="43.52953" lon="16.5858">
        <ele>530.036</ele>
        <time>2018-10-03T23:02:32Z</time>
      </trkpt>
      <trkpt lat="43.52947" lon="16.58587">
        <ele>530.077</ele>
        <time>2018-10-03T23:02:52Z</time>
      </trkpt>
      <trkpt lat="43.52943" lon="16.58593">
        <ele>531.027</ele>
        <time>2018-10-03T23:03:12Z</time>
      </trkpt>
      <trkpt lat="43.52939" lon="16.58597">
        <ele>532.076</ele>
        <time>2018-10-03T23:03:32Z</time>
      </trkpt>
      <trkpt lat="43.52935" lon="16.58604">
        <ele>533.059</ele>
        <time>2018-10-03T23:03:52Z</time>
      </trkpt>
      <trkpt lat="43.52934" lon="16.58612">
        <ele>535.003</ele>
        <time>2018-10-03T23:04:12Z</time>
      </trkpt>
      <trkpt lat="43.52932" lon="16.58617">
        <ele>537.023</ele>
        <time>2018-10-03T23:04:32Z</time>
      </trkpt>
      <trkpt lat="43.52932" lon="16.58618">
        <ele>538.008</ele>
        <time>2018-10-03T23:04:52Z</time>
      </trkpt>
      <trkpt lat="43.5293" lon="16.58622">
        <ele>539.077</ele>
        <time>2018-10-03T23:05:12Z</time>
      </trkpt>
      <trkpt lat="43.52928" lon="16.58624">
        <ele>540.084</ele>
        <time>2018-10-03T23:05:32Z</time>
      </trkpt>
      <trkpt lat="43.52925" lon="16.58626">
        <ele>541.047</ele>
        <time>2018-10-03T23:05:52Z</time>
      </trkpt>
      <trkpt lat="43.52924" lon="16.58629">
        <ele>542.029</ele>
        <time>2018-10-03T23:06:12Z</time>
      </trkpt>
      <trkpt lat="43.5292" lon="16.58635">
        <ele>544.057</ele>
        <time>2018-10-03T23:06:32Z</time>
      </trkpt>
      <trkpt lat="43.52918" lon="16.5864">
        <ele>545.078</ele>
        <time>2018-10-03T23:06:52Z</time>
      </trkpt>
      <trkpt lat="43.52915" lon="16.58648">
        <ele>547.048</ele>
        <time>2018-10-03T23:07:12Z</time>
      </trkpt>
      <trkpt lat="43.52914" lon="16.58651">
        <ele>547.027</ele>
        <time>2018-10-03T23:07:32Z</time>
      </trkpt>
      <trkpt lat="43.52911" lon="16.58655">
        <ele>548.069</ele>
        <time>2018-10-03T23:07:52Z</time>
      </trkpt>
      <trkpt lat="43.52911" lon="16.58665">
        <ele>547.004</ele>
        <time>2018-10-03T23:08:12Z</time>
      </trkpt>
      <trkpt lat="43.52912" lon="16.5867">
        <ele>546.024</ele>
        <time>2018-10-03T23:08:32Z</time>
      </trkpt>
      <trkpt lat="43.52911" lon="16.58679">
        <ele>545.008</ele>
        <time>2018-10-03T23:08:52Z</time>
      </trkpt>
      <trkpt lat="43.52909" lon="16.58693">
        <ele>544.098</ele>
        <time>2018-10-03T23:09:12Z</time>
      </trkpt>
      <trkpt lat="43.52911" lon="16.58711">
        <ele>543.025</ele>
        <time>2018-10-03T23:09:32Z</time>
      </trkpt>
      <trkpt lat="43.52911" lon="16.58713">
        <ele>542.098</ele>
        <time>2018-10-03T23:09:52Z</time>
      </trkpt>
      <trkpt lat="43.52909" lon="16.58727">
        <ele>541.03</ele>
        <time>2018-10-03T23:10:12Z</time>
      </trkpt>
      <trkpt lat="43.52903" lon="16.58738">
        <ele>540.068</ele>
        <time>2018-10-03T23:10:32Z</time>
      </trkpt>
      <trkpt lat="43.52897" lon="16.58756">
        <ele>538.019</ele>
        <time>2018-10-03T23:10:52Z</time>
      </trkpt>
      <trkpt lat="43.52895" lon="16.58763">
        <ele>537.049</ele>
        <time>2018-10-03T23:11:12Z</time>
      </trkpt>
      <trkpt lat="43.52895" lon="16.58767">
        <ele>536.048</ele>
        <time>2018-10-03T23:11:32Z</time>
      </trkpt>
      <trkpt lat="43.52894" lon="16.58778">
        <ele>535.041</ele>
        <time>2018-10-03T23:11:52Z</time>
      </trkpt>
      <trkpt lat="43.52894" lon="16.58785">
        <ele>534.081</ele>
        <time>2018-10-03T23:12:12Z</time>
      </trkpt>
      <trkpt lat="43.52894" lon="16.58796">
        <ele>533.009</ele>
        <time>2018-10-03T23:12:32Z</time>
      </trkpt>
      <trkpt lat="43.52892" lon="16.58805">
        <ele>533.008</ele>
        <time>2018-10-03T23:12:52Z</time>
      </trkpt>
      <trkpt lat="43.52886" lon="16.58814">
        <ele>532.056</ele>
        <time>2018-10-03T23:13:12Z</time>
      </trkpt>
      <trkpt lat="43.52883" lon="16.58819">
        <ele>532.013</ele>
        <time>2018-10-03T23:13:32Z</time>
      </trkpt>
      <trkpt lat="43.52877" lon="16.58828">
        <ele>532.036</ele>
        <time>2018-10-03T23:13:52Z</time>
      </trkpt>
      <trkpt lat="43.52872" lon="16.58849">
        <ele>532.078</ele>
        <time>2018-10-03T23:14:12Z</time>
      </trkpt>
      <trkpt lat="43.52871" lon="16.58857">
        <ele>533.076</ele>
        <time>2018-10-03T23:14:32Z</time>
      </trkpt>
      <trkpt lat="43.52869" lon="16.58862">
        <ele>533.067</ele>
        <time>2018-10-03T23:14:52Z</time>
      </trkpt>
      <trkpt lat="43.52864" lon="16.58871">
        <ele>534.047</ele>
        <time>2018-10-03T23:15:12Z</time>
      </trkpt>
      <trkpt lat="43.52864" lon="16.5888">
        <ele>534.066</ele>
        <time>2018-10-03T23:15:32Z</time>
      </trkpt>
      <trkpt lat="43.52864" lon="16.58883">
        <ele>534.076</ele>
        <time>2018-10-03T23:15:52Z</time>
      </trkpt>
      <trkpt lat="43.52864" lon="16.58887">
        <ele>534.09</ele>
        <time>2018-10-03T23:16:12Z</time>
      </trkpt>
      <trkpt lat="43.52861" lon="16.5889">
        <ele>535.019</ele>
        <time>2018-10-03T23:16:32Z</time>
      </trkpt>
      <trkpt lat="43.52858" lon="16.58896">
        <ele>535.008</ele>
        <time>2018-10-03T23:16:52Z</time>
      </trkpt>
      <trkpt lat="43.52856" lon="16.58901">
        <ele>535.039</ele>
        <time>2018-10-03T23:17:12Z</time>
      </trkpt>
      <trkpt lat="43.5285" lon="16.58915">
        <ele>536.056</ele>
        <time>2018-10-03T23:17:32Z</time>
      </trkpt>
      <trkpt lat="43.52849" lon="16.58918">
        <ele>537.099</ele>
        <time>2018-10-03T23:17:52Z</time>
      </trkpt>
      <trkpt lat="43.52847" lon="16.58925">
        <ele>538.061</ele>
        <time>2018-10-03T23:18:12Z</time>
      </trkpt>
      <trkpt lat="43.52842" lon="16.58931">
        <ele>539.069</ele>
        <time>2018-10-03T23:18:32Z</time>
      </trkpt>
      <trkpt lat="43.52837" lon="16.58937">
        <ele>539.05</ele>
        <time>2018-10-03T23:18:52Z</time>
      </trkpt>
      <trkpt lat="43.52834" lon="16.58944">
        <ele>540.01</ele>
        <time>2018-10-03T23:19:12Z</time>
      </trkpt>
      <trkpt lat="43.52833" lon="16.58949">
        <ele>540.059</ele>
        <time>2018-10-03T23:19:32Z</time>
      </trkpt>
      <trkpt lat="43.52833" lon="16.58957">
        <ele>542.086</ele>
        <time>2018-10-03T23:19:52Z</time>
      </trkpt>
      <trkpt lat="43.52834" lon="16.58962">
        <ele>543.06</ele>
        <time>2018-10-03T23:20:12Z</time>
      </trkpt>
      <trkpt lat="43.52833" lon="16.58964">
        <ele>543.026</ele>
        <time>2018-10-03T23:20:32Z</time>
      </trkpt>
      <trkpt lat="43.5283" lon="16.58968">
        <ele>544.008</ele>
        <time>2018-10-03T23:20:52Z</time>
      </trkpt>
      <trkpt lat="43.52829" lon="16.58971">
        <ele>544.04</ele>
        <time>2018-10-03T23:21:12Z</time>
      </trkpt>
      <trkpt lat="43.52829" lon="16.58974">
        <ele>545.067</ele>
        <time>2018-10-03T23:21:32Z</time>
      </trkpt>
      <trkpt lat="43.52829" lon="16.58975">
        <ele>545.05</ele>
        <time>2018-10-03T23:21:52Z</time>
      </trkpt>
      <trkpt lat="43.52824" lon="16.58982">
        <ele>547.052</ele>
        <time>2018-10-03T23:22:12Z</time>
      </trkpt>
      <trkpt lat="43.5282" lon="16.58989">
        <ele>549.02</ele>
        <time>2018-10-03T23:22:32Z</time>
      </trkpt>
      <trkpt lat="43.52818" lon="16.58991">
        <ele>550.011</ele>
        <time>2018-10-03T23:22:52Z</time>
      </trkpt>
      <trkpt lat="43.52818" lon="16.58993">
        <ele>551.071</ele>
        <time>2018-10-03T23:23:12Z</time>
      </trkpt>
      <trkpt lat="43.52816" lon="16.58995">
        <ele>553.06</ele>
        <time>2018-10-03T23:23:32Z</time>
      </trkpt>
      <trkpt lat="43.52817" lon="16.58994">
        <ele>554.018</ele>
        <time>2018-10-03T23:23:52Z</time>
      </trkpt>
      <trkpt lat="43.52815" lon="16.59003">
        <ele>556.098</ele>
        <time>2018-10-03T23:24:12Z</time>
      </trkpt>
      <trkpt lat="43.52814" lon="16.59004">
        <ele>556.017</ele>
        <time>2018-10-03T23:24:32Z</time>
      </trkpt>
      <trkpt lat="43.52815" lon="16.59015">
        <ele>558.008</ele>
        <time>2018-10-03T23:24:52Z</time>
      </trkpt>
      <trkpt lat="43.52815" lon="16.59018">
        <ele>559.083</ele>
        <time>2018-10-03T23:25:12Z</time>
      </trkpt>
      <trkpt lat="43.52813" lon="16.5902">
        <ele>560.08</ele>
        <time>2018-10-03T23:25:32Z</time>
      </trkpt>
      <trkpt lat="43.52814" lon="16.59023">
        <ele>561.083</ele>
        <time>2018-10-03T23:25:52Z</time>
      </trkpt>
      <trkpt lat="43.52812" lon="16.59026">
        <ele>562.055</ele>
        <time>2018-10-03T23:26:12Z</time>
      </trkpt>
      <trkpt lat="43.52811" lon="16.59031">
        <ele>563.033</ele>
        <time>2018-10-03T23:26:32Z</time>
      </trkpt>
      <trkpt lat="43.52808" lon="16.59034">
        <ele>564.064</ele>
        <time>2018-10-03T23:26:52Z</time>
      </trkpt>
      <trkpt lat="43.52811" lon="16.59038">
        <ele>567.074</ele>
        <time>2018-10-03T23:27:12Z</time>
      </trkpt>
      <trkpt lat="43.52815" lon="16.59036">
        <ele>568.093</ele>
        <time>2018-10-03T23:27:32Z</time>
      </trkpt>
      <trkpt lat="43.52817" lon="16.59038">
        <ele>570.035</ele>
        <time>2018-10-03T23:27:52Z</time>
      </trkpt>
      <trkpt lat="43.52813" lon="16.59048">
        <ele>572.086</ele>
        <time>2018-10-03T23:28:12Z</time>
      </trkpt>
      <trkpt lat="43.52813" lon="16.59051">
        <ele>573.014</ele>
        <time>2018-10-03T23:28:32Z</time>
      </trkpt>
      <trkpt lat="43.52811" lon="16.59056">
        <ele>576.008</ele>
        <time>2018-10-03T23:28:52Z</time>
      </trkpt>
      <trkpt lat="43.52806" lon="16.59062">
        <ele>578.095</ele>
        <time>2018-10-03T23:29:12Z</time>
      </trkpt>
      <trkpt lat="43.52804" lon="16.59065">
        <ele>579.022</ele>
        <time>2018-10-03T23:29:32Z</time>
      </trkpt>
      <trkpt lat="43.52802" lon="16.59067">
        <ele>580.045</ele>
        <time>2018-10-03T23:29:52Z</time>
      </trkpt>
      <trkpt lat="43.52803" lon="16.5907">
        <ele>581.097</ele>
        <time>2018-10-03T23:30:12Z</time>
      </trkpt>
      <trkpt lat="43.52805" lon="16.59072">
        <ele>583.015</ele>
        <time>2018-10-03T23:30:32Z</time>
      </trkpt>
      <trkpt lat="43.52807" lon="16.59074">
        <ele>584.026</ele>
        <time>2018-10-03T23:30:52Z</time>
      </trkpt>
      <trkpt lat="43.52812" lon="16.59075">
        <ele>586.086</ele>
        <time>2018-10-03T23:31:12Z</time>
      </trkpt>
      <trkpt lat="43.52816" lon="16.59075">
        <ele>587.035</ele>
        <time>2018-10-03T23:31:32Z</time>
      </trkpt>
      <trkpt lat="43.52816" lon="16.59085">
        <ele>589.083</ele>
        <time>2018-10-03T23:31:52Z</time>
      </trkpt>
      <trkpt lat="43.52814" lon="16.59087">
        <ele>590.025</ele>
        <time>2018-10-03T23:32:12Z</time>
      </trkpt>
      <trkpt lat="43.52811" lon="16.59091">
        <ele>591.017</ele>
        <time>2018-10-03T23:32:32Z</time>
      </trkpt>
      <trkpt lat="43.52811" lon="16.59094">
        <ele>592.008</ele>
        <time>2018-10-03T23:32:52Z</time>
      </trkpt>
      <trkpt lat="43.52809" lon="16.59098">
        <ele>593.08</ele>
        <time>2018-10-03T23:33:12Z</time>
      </trkpt>
      <trkpt lat="43.52805" lon="16.591">
        <ele>594.097</ele>
        <time>2018-10-03T23:33:32Z</time>
      </trkpt>
      <trkpt lat="43.52806" lon="16.59102">
        <ele>595.02</ele>
        <time>2018-10-03T23:33:52Z</time>
      </trkpt>
      <trkpt lat="43.52811" lon="16.59104">
        <ele>597.082</ele>
        <time>2018-10-03T23:34:12Z</time>
      </trkpt>
      <trkpt lat="43.52814" lon="16.59108">
        <ele>600.09</ele>
        <time>2018-10-03T23:34:32Z</time>
      </trkpt>
      <trkpt lat="43.52815" lon="16.5911">
        <ele>601.011</ele>
        <time>2018-10-03T23:34:52Z</time>
      </trkpt>
      <trkpt lat="43.52815" lon="16.59111">
        <ele>602.011</ele>
        <time>2018-10-03T23:35:12Z</time>
      </trkpt>
      <trkpt lat="43.52817" lon="16.59113">
        <ele>603.04</ele>
        <time>2018-10-03T23:35:32Z</time>
      </trkpt>
      <trkpt lat="43.52818" lon="16.5912">
        <ele>605.014</ele>
        <time>2018-10-03T23:35:52Z</time>
      </trkpt>
      <trkpt lat="43.52816" lon="16.59125">
        <ele>608.054</ele>
        <time>2018-10-03T23:36:12Z</time>
      </trkpt>
      <trkpt lat="43.52815" lon="16.59127">
        <ele>609.009</ele>
        <time>2018-10-03T23:36:32Z</time>
      </trkpt>
      <trkpt lat="43.52804" lon="16.5913">
        <ele>610.008</ele>
        <time>2018-10-03T23:36:52Z</time>
      </trkpt>
      <trkpt lat="43.52796" lon="16.59128">
        <ele>610.063</ele>
        <time>2018-10-03T23:37:12Z</time>
      </trkpt>
      <trkpt lat="43.52793" lon="16.59127">
        <ele>611.04</ele>
        <time>2018-10-03T23:37:32Z</time>
      </trkpt>
      <trkpt lat="43.52786" lon="16.59121">
        <ele>612.073</ele>
        <time>2018-10-03T23:37:52Z</time>
      </trkpt>
      <trkpt lat="43.52783" lon="16.59123">
        <ele>612.045</ele>
        <time>2018-10-03T23:38:12Z</time>
      </trkpt>
      <trkpt lat="43.5277" lon="16.59127">
        <ele>610.063</ele>
        <time>2018-10-03T23:38:32Z</time>
      </trkpt>
      <trkpt lat="43.52764" lon="16.5913">
        <ele>609.064</ele>
        <time>2018-10-03T23:38:52Z</time>
      </trkpt>
      <trkpt lat="43.52764" lon="16.5913">
        <ele>609.074</ele>
        <time>2018-10-03T23:39:12Z</time>
      </trkpt>
      <trkpt lat="43.52757" lon="16.59133">
        <ele>609.033</ele>
        <time>2018-10-03T23:39:32Z</time>
      </trkpt>
      <trkpt lat="43.52756" lon="16.59135">
        <ele>609.027</ele>
        <time>2018-10-03T23:39:52Z</time>
      </trkpt>
      <trkpt lat="43.52751" lon="16.59135">
        <ele>609.068</ele>
        <time>2018-10-03T23:40:12Z</time>
      </trkpt>
      <trkpt lat="43.52748" lon="16.59135">
        <ele>609.014</ele>
        <time>2018-10-03T23:40:32Z</time>
      </trkpt>
      <trkpt lat="43.52743" lon="16.59138">
        <ele>609.008</ele>
        <time>2018-10-03T23:40:52Z</time>
      </trkpt>
      <trkpt lat="43.52729" lon="16.59146">
        <ele>608.054</ele>
        <time>2018-10-03T23:41:12Z</time>
      </trkpt>
      <trkpt lat="43.52727" lon="16.5915">
        <ele>608.051</ele>
        <time>2018-10-03T23:41:32Z</time>
      </trkpt>
      <trkpt lat="43.52717" lon="16.5916">
        <ele>609.054</ele>
        <time>2018-10-03T23:41:52Z</time>
      </trkpt>
      <trkpt lat="43.52706" lon="16.59172">
        <ele>608.026</ele>
        <time>2018-10-03T23:42:12Z</time>
      </trkpt>
      <trkpt lat="43.52696" lon="16.59177">
        <ele>608.054</ele>
        <time>2018-10-03T23:42:32Z</time>
      </trkpt>
      <trkpt lat="43.52687" lon="16.5919">
        <ele>610.015</ele>
        <time>2018-10-03T23:42:52Z</time>
      </trkpt>
      <trkpt lat="43.52687" lon="16.59199">
        <ele>610.025</ele>
        <time>2018-10-03T23:43:12Z</time>
      </trkpt>
      <trkpt lat="43.52682" lon="16.59215">
        <ele>610.014</ele>
        <time>2018-10-03T23:43:32Z</time>
      </trkpt>
      <trkpt lat="43.52674" lon="16.59225">
        <ele>611.022</ele>
        <time>2018-10-03T23:43:52Z</time>
      </trkpt>
      <trkpt lat="43.52673" lon="16.59228">
        <ele>611.062</ele>
        <time>2018-10-03T23:44:12Z</time>
      </trkpt>
      <trkpt lat="43.52673" lon="16.59237">
        <ele>612.008</ele>
        <time>2018-10-03T23:44:32Z</time>
      </trkpt>
      <trkpt lat="43.52669" lon="16.59248">
        <ele>612.008</ele>
        <time>2018-10-03T23:44:52Z</time>
      </trkpt>
      <trkpt lat="43.52666" lon="16.59253">
        <ele>613.044</ele>
        <time>2018-10-03T23:45:12Z</time>
      </trkpt>
      <trkpt lat="43.52666" lon="16.59257">
        <ele>613.031</ele>
        <time>2018-10-03T23:45:32Z</time>
      </trkpt>
      <trkpt lat="43.52663" lon="16.59263">
        <ele>613.074</ele>
        <time>2018-10-03T23:45:52Z</time>
      </trkpt>
      <trkpt lat="43.52662" lon="16.59266">
        <ele>613.096</ele>
        <time>2018-10-03T23:46:12Z</time>
      </trkpt>
      <trkpt lat="43.52661" lon="16.59269">
        <ele>613.044</ele>
        <time>2018-10-03T23:46:32Z</time>
      </trkpt>
      <trkpt lat="43.52662" lon="16.59273">
        <ele>613.085</ele>
        <time>2018-10-03T23:46:52Z</time>
      </trkpt>
      <trkpt lat="43.5266" lon="16.59277">
        <ele>614.085</ele>
        <time>2018-10-03T23:47:12Z</time>
      </trkpt>
      <trkpt lat="43.52655" lon="16.59282">
        <ele>614.094</ele>
        <time>2018-10-03T23:47:32Z</time>
      </trkpt>
      <trkpt lat="43.52654" lon="16.59287">
        <ele>614.018</ele>
        <time>2018-10-03T23:47:52Z</time>
      </trkpt>
      <trkpt lat="43.52646" lon="16.59306">
        <ele>614.098</ele>
        <time>2018-10-03T23:48:12Z</time>
      </trkpt>
      <trkpt lat="43.52644" lon="16.59323">
        <ele>616.017</ele>
        <time>2018-10-03T23:48:32Z</time>
      </trkpt>
      <trkpt lat="43.52646" lon="16.59328">
        <ele>616.008</ele>
        <time>2018-10-03T23:48:52Z</time>
      </trkpt>
      <trkpt lat="43.52649" lon="16.59335">
        <ele>616.053</ele>
        <time>2018-10-03T23:49:12Z</time>
      </trkpt>
      <trkpt lat="43.5265" lon="16.59336">
        <ele>615.07</ele>
        <time>2018-10-03T23:49:32Z</time>
      </trkpt>
      <trkpt lat="43.52653" lon="16.5934">
        <ele>616.083</ele>
        <time>2018-10-03T23:49:52Z</time>
      </trkpt>
      <trkpt lat="43.52648" lon="16.59353">
        <ele>616.055</ele>
        <time>2018-10-03T23:50:12Z</time>
      </trkpt>
      <trkpt lat="43.52643" lon="16.59364">
        <ele>617.093</ele>
        <time>2018-10-03T23:50:32Z</time>
      </trkpt>
      <trkpt lat="43.52641" lon="16.59373">
        <ele>617.054</ele>
        <time>2018-10-03T23:50:52Z</time>
      </trkpt>
      <trkpt lat="43.52637" lon="16.59386">
        <ele>618.024</ele>
        <time>2018-10-03T23:51:12Z</time>
      </trkpt>
      <trkpt lat="43.52632" lon="16.59399">
        <ele>618.043</ele>
        <time>2018-10-03T23:51:32Z</time>
      </trkpt>
      <trkpt lat="43.5263" lon="16.59414">
        <ele>618.035</ele>
        <time>2018-10-03T23:51:52Z</time>
      </trkpt>
      <trkpt lat="43.52629" lon="16.59427">
        <ele>619.086</ele>
        <time>2018-10-03T23:52:12Z</time>
      </trkpt>
      <trkpt lat="43.52627" lon="16.59445">
        <ele>619.014</ele>
        <time>2018-10-03T23:52:32Z</time>
      </trkpt>
      <trkpt lat="43.52627" lon="16.59454">
        <ele>619.008</ele>
        <time>2018-10-03T23:52:52Z</time>
      </trkpt>
      <trkpt lat="43.52627" lon="16.59456">
        <ele>620.045</ele>
        <time>2018-10-03T23:53:12Z</time>
      </trkpt>
      <trkpt lat="43.52625" lon="16.59466">
        <ele>620.012</ele>
        <time>2018-10-03T23:53:32Z</time>
      </trkpt>
      <trkpt lat="43.52624" lon="16.59479">
        <ele>620.085</ele>
        <time>2018-10-03T23:53:52Z</time>
      </trkpt>
      <trkpt lat="43.5262" lon="16.595">
        <ele>621.047</ele>
        <time>2018-10-03T23:54:12Z</time>
      </trkpt>
      <trkpt lat="43.52619" lon="16.59503">
        <ele>621.085</ele>
        <time>2018-10-03T23:54:32Z</time>
      </trkpt>
      <trkpt lat="43.5262" lon="16.59516">
        <ele>622.016</ele>
        <time>2018-10-03T23:54:52Z</time>
      </trkpt>
      <trkpt lat="43.52625" lon="16.59534">
        <ele>623.056</ele>
        <time>2018-10-03T23:55:12Z</time>
      </trkpt>
      <trkpt lat="43.52628" lon="16.59542">
        <ele>623.045</ele>
        <time>2018-10-03T23:55:32Z</time>
      </trkpt>
      <trkpt lat="43.52627" lon="16.59548">
        <ele>624.071</ele>
        <time>2018-10-03T23:55:52Z</time>
      </trkpt>
      <trkpt lat="43.5263" lon="16.59561">
        <ele>625.041</ele>
        <time>2018-10-03T23:56:12Z</time>
      </trkpt>
      <trkpt lat="43.5263" lon="16.59572">
        <ele>625.015</ele>
        <time>2018-10-03T23:56:32Z</time>
      </trkpt>
      <trkpt lat="43.52629" lon="16.59575">
        <ele>625.008</ele>
        <time>2018-10-03T23:56:52Z</time>
      </trkpt>
      <trkpt lat="43.5263" lon="16.59587">
        <ele>626.099</ele>
        <time>2018-10-03T23:57:12Z</time>
      </trkpt>
      <trkpt lat="43.52628" lon="16.59601">
        <ele>627.086</ele>
        <time>2018-10-03T23:57:32Z</time>
      </trkpt>
      <trkpt lat="43.52627" lon="16.59604">
        <ele>627.039</ele>
        <time>2018-10-03T23:57:52Z</time>
      </trkpt>
      <trkpt lat="43.52627" lon="16.59614">
        <ele>628.061</ele>
        <time>2018-10-03T23:58:12Z</time>
      </trkpt>
      <trkpt lat="43.52629" lon="16.59623">
        <ele>628.099</ele>
        <time>2018-10-03T23:58:32Z</time>
      </trkpt>
      <trkpt lat="43.52631" lon="16.59635">
        <ele>629.09</ele>
        <time>2018-10-03T23:58:52Z</time>
      </trkpt>
      <trkpt lat="43.52633" lon="16.5965">
        <ele>630.09</ele>
        <time>2018-10-03T23:59:12Z</time>
      </trkpt>
      <trkpt lat="43.52634" lon="16.59655">
        <ele>631.019</ele>
        <time>2018-10-03T23:59:32Z</time>
      </trkpt>
      <trkpt lat="43.52635" lon="16.5966">
        <ele>631.039</ele>
        <time>2018-10-03T23:59:52Z</time>
      </trkpt>
      <trkpt lat="43.52636" lon="16.59671">
        <ele>632.001</ele>
        <time>2018-10-04T00:00:12Z</time>
      </trkpt>
      <trkpt lat="43.52635" lon="16.59678">
        <ele>633.021</ele>
        <time>2018-10-04T00:00:32Z</time>
      </trkpt>
      <trkpt lat="43.52633" lon="16.59686">
        <ele>634.008</ele>
        <time>2018-10-04T00:00:52Z</time>
      </trkpt>
      <trkpt lat="43.52632" lon="16.597">
        <ele>634.035</ele>
        <time>2018-10-04T00:01:12Z</time>
      </trkpt>
      <trkpt lat="43.52632" lon="16.59703">
        <ele>635.032</ele>
        <time>2018-10-04T00:01:32Z</time>
      </trkpt>
      <trkpt lat="43.52633" lon="16.59713">
        <ele>635.085</ele>
        <time>2018-10-04T00:01:52Z</time>
      </trkpt>
      <trkpt lat="43.52633" lon="16.59718">
        <ele>635.027</ele>
        <time>2018-10-04T00:02:12Z</time>
      </trkpt>
      <trkpt lat="43.52636" lon="16.59729">
        <ele>637.045</ele>
        <time>2018-10-04T00:02:32Z</time>
      </trkpt>
      <trkpt lat="43.52636" lon="16.59731">
        <ele>637.096</ele>
        <time>2018-10-04T00:02:52Z</time>
      </trkpt>
      <trkpt lat="43.52637" lon="16.59738">
        <ele>637.036</ele>
        <time>2018-10-04T00:03:12Z</time>
      </trkpt>
      <trkpt lat="43.52639" lon="16.5974">
        <ele>638.035</ele>
        <time>2018-10-04T00:03:32Z</time>
      </trkpt>
      <trkpt lat="43.52639" lon="16.59749">
        <ele>638.066</ele>
        <time>2018-10-04T00:03:52Z</time>
      </trkpt>
      <trkpt lat="43.52639" lon="16.59754">
        <ele>639.029</ele>
        <time>2018-10-04T00:04:12Z</time>
      </trkpt>
      <trkpt lat="43.52637" lon="16.59769">
        <ele>640.021</ele>
        <time>2018-10-04T00:04:32Z</time>
      </trkpt>
      <trkpt lat="43.5264" lon="16.59775">
        <ele>640.008</ele>
        <time>2018-10-04T00:04:52Z</time>
      </trkpt>
      <trkpt lat="43.52641" lon="16.59778">
        <ele>640.098</ele>
        <time>2018-10-04T00:05:12Z</time>
      </trkpt>
      <trkpt lat="43.52644" lon="16.59784">
        <ele>641.045</ele>
        <time>2018-10-04T00:05:32Z</time>
      </trkpt>
      <trkpt lat="43.52647" lon="16.59789">
        <ele>642.068</ele>
        <time>2018-10-04T00:05:52Z</time>
      </trkpt>
      <trkpt lat="43.52649" lon="16.59791">
        <ele>643.02</ele>
        <time>2018-10-04T00:06:12Z</time>
      </trkpt>
      <trkpt lat="43.52651" lon="16.59794">
        <ele>644.078</ele>
        <time>2018-10-04T00:06:32Z</time>
      </trkpt>
      <trkpt lat="43.52647" lon="16.59803">
        <ele>645.039</ele>
        <time>2018-10-04T00:06:52Z</time>
      </trkpt>
      <trkpt lat="43.52644" lon="16.59811">
        <ele>645.039</ele>
        <time>2018-10-04T00:07:12Z</time>
      </trkpt>
      <trkpt lat="43.52642" lon="16.59817">
        <ele>645.078</ele>
        <time>2018-10-04T00:07:32Z</time>
      </trkpt>
      <trkpt lat="43.52642" lon="16.5982">
        <ele>645.058</ele>
        <time>2018-10-04T00:07:52Z</time>
      </trkpt>
      <trkpt lat="43.52639" lon="16.59829">
        <ele>645.052</ele>
        <time>2018-10-04T00:08:12Z</time>
      </trkpt>
      <trkpt lat="43.52635" lon="16.59847">
        <ele>645.017</ele>
        <time>2018-10-04T00:08:32Z</time>
      </trkpt>
      <trkpt lat="43.52632" lon="16.59857">
        <ele>645.008</ele>
        <time>2018-10-04T00:08:52Z</time>
      </trkpt>
      <trkpt lat="43.52631" lon="16.59864">
        <ele>645.077</ele>
        <time>2018-10-04T00:09:12Z</time>
      </trkpt>
      <trkpt lat="43.52627" lon="16.59881">
        <ele>645.094</ele>
        <time>2018-10-04T00:09:32Z</time>
      </trkpt>
      <trkpt lat="43.52626" lon="16.59891">
        <ele>645.037</ele>
        <time>2018-10-04T00:09:52Z</time>
      </trkpt>
      <trkpt lat="43.52627" lon="16.59898">
        <ele>646.019</ele>
        <time>2018-10-04T00:10:12Z</time>
      </trkpt>
      <trkpt lat="43.52629" lon="16.59903">
        <ele>646.047</ele>
        <time>2018-10-04T00:10:32Z</time>
      </trkpt>
      <trkpt lat="43.52629" lon="16.59907">
        <ele>647.048</ele>
        <time>2018-10-04T00:10:52Z</time>
      </trkpt>
      <trkpt lat="43.52628" lon="16.5991">
        <ele>647.098</ele>
        <time>2018-10-04T00:11:12Z</time>
      </trkpt>
      <trkpt lat="43.52627" lon="16.59914">
        <ele>648.057</ele>
        <time>2018-10-04T00:11:32Z</time>
      </trkpt>
      <trkpt lat="43.52627" lon="16.59925">
        <ele>648.065</ele>
        <time>2018-10-04T00:11:52Z</time>
      </trkpt>
      <trkpt lat="43.52625" lon="16.59932">
        <ele>649.068</ele>
        <time>2018-10-04T00:12:12Z</time>
      </trkpt>
      <trkpt lat="43.52625" lon="16.5994">
        <ele>649.014</ele>
        <time>2018-10-04T00:12:32Z</time>
      </trkpt>
      <trkpt lat="43.52625" lon="16.59946">
        <ele>650.008</ele>
        <time>2018-10-04T00:12:52Z</time>
      </trkpt>
      <trkpt lat="43.52625" lon="16.59951">
        <ele>650.038</ele>
        <time>2018-10-04T00:13:12Z</time>
      </trkpt>
      <trkpt lat="43.52626" lon="16.59953">
        <ele>651.085</ele>
        <time>2018-10-04T00:13:32Z</time>
      </trkpt>
      <trkpt lat="43.52629" lon="16.59961">
        <ele>651.058</ele>
        <time>2018-10-04T00:13:52Z</time>
      </trkpt>
      <trkpt lat="43.52629" lon="16.59965">
        <ele>652.07</ele>
        <time>2018-10-04T00:14:12Z</time>
      </trkpt>
      <trkpt lat="43.52631" lon="16.59977">
        <ele>653.028</ele>
        <time>2018-10-04T00:14:32Z</time>
      </trkpt>
      <trkpt lat="43.52631" lon="16.59987">
        <ele>653.079</ele>
        <time>2018-10-04T00:14:52Z</time>
      </trkpt>
      <trkpt lat="43.52631" lon="16.59992">
        <ele>654.049</ele>
        <time>2018-10-04T00:15:12Z</time>
      </trkpt>
      <trkpt lat="43.5263" lon="16.6">
        <ele>654.028</ele>
        <time>2018-10-04T00:15:32Z</time>
      </trkpt>
      <trkpt lat="43.5263" lon="16.60008">
        <ele>654.025</ele>
        <time>2018-10-04T00:15:52Z</time>
      </trkpt>
      <trkpt lat="43.52629" lon="16.60021">
        <ele>654.026</ele>
        <time>2018-10-04T00:16:12Z</time>
      </trkpt>
      <trkpt lat="43.52629" lon="16.60025">
        <ele>655.008</ele>
        <time>2018-10-04T00:16:32Z</time>
      </trkpt>
      <trkpt lat="43.52631" lon="16.60032">
        <ele>656.008</ele>
        <time>2018-10-04T00:16:52Z</time>
      </trkpt>
      <trkpt lat="43.52631" lon="16.60038">
        <ele>657.084</ele>
        <time>2018-10-04T00:17:12Z</time>
      </trkpt>
      <trkpt lat="43.52631" lon="16.60043">
        <ele>658.021</ele>
        <time>2018-10-04T00:17:32Z</time>
      </trkpt>
      <trkpt lat="43.52631" lon="16.60046">
        <ele>658.044</ele>
        <time>2018-10-04T00:17:52Z</time>
      </trkpt>
      <trkpt lat="43.52629" lon="16.60053">
        <ele>659.026</ele>
        <time>2018-10-04T00:18:12Z</time>
      </trkpt>
      <trkpt lat="43.52627" lon="16.60059">
        <ele>660.014</ele>
        <time>2018-10-04T00:18:32Z</time>
      </trkpt>
      <trkpt lat="43.52627" lon="16.6006">
        <ele>660.055</ele>
        <time>2018-10-04T00:18:52Z</time>
      </trkpt>
      <trkpt lat="43.52626" lon="16.60063">
        <ele>661.035</ele>
        <time>2018-10-04T00:19:12Z</time>
      </trkpt>
      <trkpt lat="43.52626" lon="16.60075">
        <ele>662.084</ele>
        <time>2018-10-04T00:19:32Z</time>
      </trkpt>
      <trkpt lat="43.52625" lon="16.60091">
        <ele>664.015</ele>
        <time>2018-10-04T00:19:52Z</time>
      </trkpt>
      <trkpt lat="43.52625" lon="16.60095">
        <ele>665.065</ele>
        <time>2018-10-04T00:20:12Z</time>
      </trkpt>
      <trkpt lat="43.52623" lon="16.60107">
        <ele>666.011</ele>
        <time>2018-10-04T00:20:32Z</time>
      </trkpt>
      <trkpt lat="43.52621" lon="16.60116">
        <ele>666.008</ele>
        <time>2018-10-04T00:20:52Z</time>
      </trkpt>
      <trkpt lat="43.52618" lon="16.60128">
        <ele>667.043</ele>
        <time>2018-10-04T00:21:12Z</time>
      </trkpt>
      <trkpt lat="43.52618" lon="16.60138">
        <ele>668.08</ele>
        <time>2018-10-04T00:21:32Z</time>
      </trkpt>
      <trkpt lat="43.52617" lon="16.60142">
        <ele>668.073</ele>
        <time>2018-10-04T00:21:52Z</time>
      </trkpt>
      <trkpt lat="43.52614" lon="16.60159">
        <ele>669.045</ele>
        <time>2018-10-04T00:22:12Z</time>
      </trkpt>
      <trkpt lat="43.5261" lon="16.60177">
        <ele>669.013</ele>
        <time>2018-10-04T00:22:32Z</time>
      </trkpt>
      <trkpt lat="43.52605" lon="16.60196">
        <ele>670.084</ele>
        <time>2018-10-04T00:22:52Z</time>
      </trkpt>
      <trkpt lat="43.52603" lon="16.60215">
        <ele>671.044</ele>
        <time>2018-10-04T00:23:12Z</time>
      </trkpt>
      <trkpt lat="43.52602" lon="16.60232">
        <ele>672.053</ele>
        <time>2018-10-04T00:23:32Z</time>
      </trkpt>
      <trkpt lat="43.52602" lon="16.6024">
        <ele>673.094</ele>
        <time>2018-10-04T00:23:52Z</time>
      </trkpt>
      <trkpt lat="43.52603" lon="16.60263">
        <ele>674.057</ele>
        <time>2018-10-04T00:24:12Z</time>
      </trkpt>
      <trkpt lat="43.52605" lon="16.60276">
        <ele>674.022</ele>
        <time>2018-10-04T00:24:32Z</time>
      </trkpt>
      <trkpt lat="43.52605" lon="16.60289">
        <ele>675.008</ele>
        <time>2018-10-04T00:24:52Z</time>
      </trkpt>
      <trkpt lat="43.52605" lon="16.603">
        <ele>676.011</ele>
        <time>2018-10-04T00:25:12Z</time>
      </trkpt>
      <trkpt lat="43.52605" lon="16.60305">
        <ele>677.018</ele>
        <time>2018-10-04T00:25:32Z</time>
      </trkpt>
      <trkpt lat="43.52604" lon="16.60313">
        <ele>679.051</ele>
        <time>2018-10-04T00:25:52Z</time>
      </trkpt>
      <trkpt lat="43.52603" lon="16.60316">
        <ele>679.043</ele>
        <time>2018-10-04T00:26:12Z</time>
      </trkpt>
      <trkpt lat="43.52601" lon="16.60319">
        <ele>680.041</ele>
        <time>2018-10-04T00:26:32Z</time>
      </trkpt>
      <trkpt lat="43.52597" lon="16.60332">
        <ele>682.052</ele>
        <time>2018-10-04T00:26:52Z</time>
      </trkpt>
      <trkpt lat="43.52596" lon="16.60337">
        <ele>683.022</ele>
        <time>2018-10-04T00:27:12Z</time>
      </trkpt>
      <trkpt lat="43.52595" lon="16.60338">
        <ele>683.011</ele>
        <time>2018-10-04T00:27:32Z</time>
      </trkpt>
      <trkpt lat="43.52596" lon="16.60342">
        <ele>684.076</ele>
        <time>2018-10-04T00:27:52Z</time>
      </trkpt>
      <trkpt lat="43.52595" lon="16.60346">
        <ele>684.09</ele>
        <time>2018-10-04T00:28:12Z</time>
      </trkpt>
      <trkpt lat="43.52596" lon="16.60356">
        <ele>686.019</ele>
        <time>2018-10-04T00:28:32Z</time>
      </trkpt>
      <trkpt lat="43.52594" lon="16.60363">
        <ele>687.008</ele>
        <time>2018-10-04T00:28:52Z</time>
      </trkpt>
      <trkpt lat="43.52593" lon="16.60368">
        <ele>688.049</ele>
        <time>2018-10-04T00:29:12Z</time>
      </trkpt>
      <trkpt lat="43.52592" lon="16.60377">
        <ele>689.026</ele>
        <time>2018-10-04T00:29:32Z</time>
      </trkpt>
      <trkpt lat="43.52592" lon="16.60383">
        <ele>689.019</ele>
        <time>2018-10-04T00:29:52Z</time>
      </trkpt>
      <trkpt lat="43.52592" lon="16.60389">
        <ele>690.051</ele>
        <time>2018-10-04T00:30:12Z</time>
      </trkpt>
      <trkpt lat="43.52591" lon="16.60394">
        <ele>691.069</ele>
        <time>2018-10-04T00:30:32Z</time>
      </trkpt>
      <trkpt lat="43.5259" lon="16.60401">
        <ele>692.02</ele>
        <time>2018-10-04T00:30:52Z</time>
      </trkpt>
      <trkpt lat="43.52589" lon="16.60408">
        <ele>693.04</ele>
        <time>2018-10-04T00:31:12Z</time>
      </trkpt>
      <trkpt lat="43.52587" lon="16.60419">
        <ele>694.099</ele>
        <time>2018-10-04T00:31:32Z</time>
      </trkpt>
      <trkpt lat="43.52584" lon="16.60428">
        <ele>696.043</ele>
        <time>2018-10-04T00:31:52Z</time>
      </trkpt>
      <trkpt lat="43.52583" lon="16.60436">
        <ele>697.064</ele>
        <time>2018-10-04T00:32:12Z</time>
      </trkpt>
      <trkpt lat="43.5258" lon="16.60446">
        <ele>699.01</ele>
        <time>2018-10-04T00:32:32Z</time>
      </trkpt>
      <trkpt lat="43.5258" lon="16.60455">
        <ele>701.008</ele>
        <time>2018-10-04T00:32:52Z</time>
      </trkpt>
      <trkpt lat="43.52579" lon="16.60463">
        <ele>702.076</ele>
        <time>2018-10-04T00:33:12Z</time>
      </trkpt>
      <trkpt lat="43.52579" lon="16.60475">
        <ele>703.053</ele>
        <time>2018-10-04T00:33:32Z</time>
      </trkpt>
      <trkpt lat="43.52578" lon="16.60479">
        <ele>704.076</ele>
        <time>2018-10-04T00:33:52Z</time>
      </trkpt>
      <trkpt lat="43.52575" lon="16.60484">
        <ele>705.068</ele>
        <time>2018-10-04T00:34:12Z</time>
      </trkpt>
      <trkpt lat="43.52573" lon="16.60488">
        <ele>705.056</ele>
        <time>2018-10-04T00:34:32Z</time>
      </trkpt>
      <trkpt lat="43.52572" lon="16.60495">
        <ele>706.047</ele>
        <time>2018-10-04T00:34:52Z</time>
      </trkpt>
      <trkpt lat="43.52571" lon="16.60502">
        <ele>707.037</ele>
        <time>2018-10-04T00:35:12Z</time>
      </trkpt>
      <trkpt lat="43.52569" lon="16.60509">
        <ele>708.026</ele>
        <time>2018-10-04T00:35:32Z</time>
      </trkpt>
      <trkpt lat="43.52569" lon="16.60511">
        <ele>708.033</ele>
        <time>2018-10-04T00:35:52Z</time>
      </trkpt>
      <trkpt lat="43.5257" lon="16.60513">
        <ele>709.023</ele>
        <time>2018-10-04T00:36:12Z</time>
      </trkpt>
      <trkpt lat="43.52573" lon="16.6051">
        <ele>710.015</ele>
        <time>2018-10-04T00:36:32Z</time>
      </trkpt>
      <trkpt lat="43.52574" lon="16.60519">
        <ele>711.008</ele>
        <time>2018-10-04T00:36:52Z</time>
      </trkpt>
      <trkpt lat="43.52574" lon="16.60521">
        <ele>712.055</ele>
        <time>2018-10-04T00:37:12Z</time>
      </trkpt>
      <trkpt lat="43.52574" lon="16.60525">
        <ele>713.082</ele>
        <time>2018-10-04T00:37:32Z</time>
      </trkpt>
      <trkpt lat="43.52574" lon="16.60532">
        <ele>715.025</ele>
        <time>2018-10-04T00:37:52Z</time>
      </trkpt>
      <trkpt lat="43.52578" lon="16.60541">
        <ele>717.027</ele>
        <time>2018-10-04T00:38:12Z</time>
      </trkpt>
      <trkpt lat="43.52577" lon="16.60547">
        <ele>719.055</ele>
        <time>2018-10-04T00:38:32Z</time>
      </trkpt>
      <trkpt lat="43.52576" lon="16.60555">
        <ele>721.016</ele>
        <time>2018-10-04T00:38:52Z</time>
      </trkpt>
      <trkpt lat="43.52575" lon="16.60564">
        <ele>722.056</ele>
        <time>2018-10-04T00:39:12Z</time>
      </trkpt>
      <trkpt lat="43.52573" lon="16.60578">
        <ele>724.055</ele>
        <time>2018-10-04T00:39:32Z</time>
      </trkpt>
      <trkpt lat="43.52573" lon="16.60579">
        <ele>724.088</ele>
        <time>2018-10-04T00:39:52Z</time>
      </trkpt>
      <trkpt lat="43.52572" lon="16.60582">
        <ele>724.024</ele>
        <time>2018-10-04T00:40:12Z</time>
      </trkpt>
      <trkpt lat="43.52572" lon="16.60584">
        <ele>725.026</ele>
        <time>2018-10-04T00:40:32Z</time>
      </trkpt>
      <trkpt lat="43.52569" lon="16.6059">
        <ele>726.008</ele>
        <time>2018-10-04T00:40:52Z</time>
      </trkpt>
      <trkpt lat="43.52566" lon="16.60598">
        <ele>726.09</ele>
        <time>2018-10-04T00:41:12Z</time>
      </trkpt>
      <trkpt lat="43.52564" lon="16.60604">
        <ele>727.037</ele>
        <time>2018-10-04T00:41:32Z</time>
      </trkpt>
      <trkpt lat="43.52563" lon="16.60614">
        <ele>728.06</ele>
        <time>2018-10-04T00:41:52Z</time>
      </trkpt>
      <trkpt lat="43.52565" lon="16.60621">
        <ele>729.092</ele>
        <time>2018-10-04T00:42:12Z</time>
      </trkpt>
      <trkpt lat="43.52564" lon="16.60627">
        <ele>731.05</ele>
        <time>2018-10-04T00:42:32Z</time>
      </trkpt>
      <trkpt lat="43.52561" lon="16.60637">
        <ele>733.031</ele>
        <time>2018-10-04T00:42:52Z</time>
      </trkpt>
      <trkpt lat="43.52561" lon="16.60642">
        <ele>734.031</ele>
        <time>2018-10-04T00:43:12Z</time>
      </trkpt>
      <trkpt lat="43.52555" lon="16.60657">
        <ele>735.05</ele>
        <time>2018-10-04T00:43:32Z</time>
      </trkpt>
      <trkpt lat="43.52555" lon="16.60658">
        <ele>735.081</ele>
        <time>2018-10-04T00:43:52Z</time>
      </trkpt>
      <trkpt lat="43.52554" lon="16.60667">
        <ele>736.061</ele>
        <time>2018-10-04T00:44:12Z</time>
      </trkpt>
      <trkpt lat="43.52553" lon="16.6068">
        <ele>739.017</ele>
        <time>2018-10-04T00:44:32Z</time>
      </trkpt>
      <trkpt lat="43.5255" lon="16.60693">
        <ele>741.008</ele>
        <time>2018-10-04T00:44:52Z</time>
      </trkpt>
      <trkpt lat="43.52549" lon="16.60694">
        <ele>741.07</ele>
        <time>2018-10-04T00:45:12Z</time>
      </trkpt>
      <trkpt lat="43.52546" lon="16.60705">
        <ele>742.087</ele>
        <time>2018-10-04T00:45:32Z</time>
      </trkpt>
      <trkpt lat="43.52545" lon="16.6071">
        <ele>743.01</ele>
        <time>2018-10-04T00:45:52Z</time>
      </trkpt>
      <trkpt lat="43.52543" lon="16.60718">
        <ele>744.042</ele>
        <time>2018-10-04T00:46:12Z</time>
      </trkpt>
      <trkpt lat="43.52542" lon="16.60725">
        <ele>745.09</ele>
        <time>2018-10-04T00:46:32Z</time>
      </trkpt>
      <trkpt lat="43.5254" lon="16.6073">
        <ele>746.021</ele>
        <time>2018-10-04T00:46:52Z</time>
      </trkpt>
      <trkpt lat="43.52535" lon="16.60738">
        <ele>747.041</ele>
        <time>2018-10-04T00:47:12Z</time>
      </trkpt>
      <trkpt lat="43.52534" lon="16.6075">
        <ele>750.08</ele>
        <time>2018-10-04T00:47:32Z</time>
      </trkpt>
      <trkpt lat="43.52533" lon="16.60755">
        <ele>751.095</ele>
        <time>2018-10-04T00:47:52Z</time>
      </trkpt>
      <trkpt lat="43.52529" lon="16.60766">
        <ele>753.049</ele>
        <time>2018-10-04T00:48:12Z</time>
      </trkpt>
      <trkpt lat="43.52526" lon="16.6077">
        <ele>753.023</ele>
        <time>2018-10-04T00:48:32Z</time>
      </trkpt>
      <trkpt lat="43.52525" lon="16.60773">
        <ele>754.008</ele>
        <time>2018-10-04T00:48:52Z</time>
      </trkpt>
      <trkpt lat="43.52522" lon="16.60781">
        <ele>755.031</ele>
        <time>2018-10-04T00:49:12Z</time>
      </trkpt>
      <trkpt lat="43.52522" lon="16.60788">
        <ele>756.078</ele>
        <time>2018-10-04T00:49:32Z</time>
      </trkpt>
      <trkpt lat="43.52522" lon="16.60792">
        <ele>756.031</ele>
        <time>2018-10-04T00:49:52Z</time>
      </trkpt>
      <trkpt lat="43.52523" lon="16.60794">
        <ele>756.023</ele>
        <time>2018-10-04T00:50:12Z</time>
      </trkpt>
      <trkpt lat="43.52522" lon="16.60805">
        <ele>758.021</ele>
        <time>2018-10-04T00:50:32Z</time>
      </trkpt>
      <trkpt lat="43.5252" lon="16.60816">
        <ele>759.082</ele>
        <time>2018-10-04T00:50:52Z</time>
      </trkpt>
      <trkpt lat="43.5252" lon="16.60821">
        <ele>760.012</ele>
        <time>2018-10-04T00:51:12Z</time>
      </trkpt>
      <trkpt lat="43.52519" lon="16.6083">
        <ele>762.021</ele>
        <time>2018-10-04T00:51:32Z</time>
      </trkpt>
      <trkpt lat="43.52518" lon="16.60837">
        <ele>763.034</ele>
        <time>2018-10-04T00:51:52Z</time>
      </trkpt>
      <trkpt lat="43.52517" lon="16.60839">
        <ele>764.055</ele>
        <time>2018-10-04T00:52:12Z</time>
      </trkpt>
      <trkpt lat="43.52517" lon="16.60844">
        <ele>765.01</ele>
        <time>2018-10-04T00:52:32Z</time>
      </trkpt>
      <trkpt lat="43.52517" lon="16.60852">
        <ele>767.008</ele>
        <time>2018-10-04T00:52:52Z</time>
      </trkpt>
      <trkpt lat="43.52518" lon="16.60857">
        <ele>768.075</ele>
        <time>2018-10-04T00:53:12Z</time>
      </trkpt>
      <trkpt lat="43.52519" lon="16.60865">
        <ele>770.092</ele>
        <time>2018-10-04T00:53:32Z</time>
      </trkpt>
      <trkpt lat="43.52519" lon="16.60871">
        <ele>773.055</ele>
        <time>2018-10-04T00:53:52Z</time>
      </trkpt>
      <trkpt lat="43.5252" lon="16.60879">
        <ele>775.027</ele>
        <time>2018-10-04T00:54:12Z</time>
      </trkpt>
      <trkpt lat="43.52521" lon="16.60883">
        <ele>777.045</ele>
        <time>2018-10-04T00:54:32Z</time>
      </trkpt>
      <trkpt lat="43.52521" lon="16.60892">
        <ele>779.076</ele>
        <time>2018-10-04T00:54:52Z</time>
      </trkpt>
      <trkpt lat="43.52523" lon="16.60899">
        <ele>782.056</ele>
        <time>2018-10-04T00:55:12Z</time>
      </trkpt>
      <trkpt lat="43.52524" lon="16.60902">
        <ele>783.095</ele>
        <time>2018-10-04T00:55:32Z</time>
      </trkpt>
      <trkpt lat="43.52526" lon="16.6091">
        <ele>785.049</ele>
        <time>2018-10-04T00:55:52Z</time>
      </trkpt>
      <trkpt lat="43.52525" lon="16.60914">
        <ele>787.002</ele>
        <time>2018-10-04T00:56:12Z</time>
      </trkpt>
      <trkpt lat="43.52523" lon="16.60919">
        <ele>788.022</ele>
        <time>2018-10-04T00:56:32Z</time>
      </trkpt>
      <trkpt lat="43.52523" lon="16.6093">
        <ele>790.008</ele>
        <time>2018-10-04T00:56:52Z</time>
      </trkpt>
      <trkpt lat="43.52524" lon="16.6094">
        <ele>792.036</ele>
        <time>2018-10-04T00:57:12Z</time>
      </trkpt>
      <trkpt lat="43.52525" lon="16.60943">
        <ele>793.023</ele>
        <time>2018-10-04T00:57:32Z</time>
      </trkpt>
      <trkpt lat="43.52526" lon="16.60953">
        <ele>796.026</ele>
        <time>2018-10-04T00:57:52Z</time>
      </trkpt>
      <trkpt lat="43.52523" lon="16.60961">
        <ele>797.028</ele>
        <time>2018-10-04T00:58:12Z</time>
      </trkpt>
      <trkpt lat="43.52524" lon="16.6097">
        <ele>798.076</ele>
        <time>2018-10-04T00:58:32Z</time>
      </trkpt>
      <trkpt lat="43.52525" lon="16.60973">
        <ele>799.017</ele>
        <time>2018-10-04T00:58:52Z</time>
      </trkpt>
      <trkpt lat="43.52528" lon="16.60974">
        <ele>800.017</ele>
        <time>2018-10-04T00:59:12Z</time>
      </trkpt>
      <trkpt lat="43.5253" lon="16.6098">
        <ele>802.016</ele>
        <time>2018-10-04T00:59:32Z</time>
      </trkpt>
      <trkpt lat="43.52531" lon="16.60989">
        <ele>805.068</ele>
        <time>2018-10-04T00:59:52Z</time>
      </trkpt>
      <trkpt lat="43.52528" lon="16.61">
        <ele>807.042</ele>
        <time>2018-10-04T01:00:12Z</time>
      </trkpt>
      <trkpt lat="43.52528" lon="16.6101">
        <ele>808.026</ele>
        <time>2018-10-04T01:00:32Z</time>
      </trkpt>
      <trkpt lat="43.52526" lon="16.61029">
        <ele>810.008</ele>
        <time>2018-10-04T01:00:52Z</time>
      </trkpt>
      <trkpt lat="43.52526" lon="16.61036">
        <ele>811.018</ele>
        <time>2018-10-04T01:01:12Z</time>
      </trkpt>
      <trkpt lat="43.52527" lon="16.61041">
        <ele>812.055</ele>
        <time>2018-10-04T01:01:32Z</time>
      </trkpt>
      <trkpt lat="43.52527" lon="16.61052">
        <ele>814.078</ele>
        <time>2018-10-04T01:01:52Z</time>
      </trkpt>
      <trkpt lat="43.52524" lon="16.61064">
        <ele>817.04</ele>
        <time>2018-10-04T01:02:12Z</time>
      </trkpt>
      <trkpt lat="43.52521" lon="16.61074">
        <ele>818.088</ele>
        <time>2018-10-04T01:02:32Z</time>
      </trkpt>
      <trkpt lat="43.5252" lon="16.61088">
        <ele>820.069</ele>
        <time>2018-10-04T01:02:52Z</time>
      </trkpt>
      <trkpt lat="43.5252" lon="16.61098">
        <ele>822.019</ele>
        <time>2018-10-04T01:03:12Z</time>
      </trkpt>
      <trkpt lat="43.52521" lon="16.61104">
        <ele>823.018</ele>
        <time>2018-10-04T01:03:32Z</time>
      </trkpt>
      <trkpt lat="43.52518" lon="16.61113">
        <ele>825.066</ele>
        <time>2018-10-04T01:03:52Z</time>
      </trkpt>
      <trkpt lat="43.52517" lon="16.61128">
        <ele>828.029</ele>
        <time>2018-10-04T01:04:12Z</time>
      </trkpt>
      <trkpt lat="43.52515" lon="16.6114">
        <ele>830.021</ele>
        <time>2018-10-04T01:04:32Z</time>
      </trkpt>
      <trkpt lat="43.52513" lon="16.61146">
        <ele>831.008</ele>
        <time>2018-10-04T01:04:52Z</time>
      </trkpt>
      <trkpt lat="43.52513" lon="16.61152">
        <ele>832.058</ele>
        <time>2018-10-04T01:05:12Z</time>
      </trkpt>
      <trkpt lat="43.52509" lon="16.61158">
        <ele>833.025</ele>
        <time>2018-10-04T01:05:32Z</time>
      </trkpt>
      <trkpt lat="43.52508" lon="16.61166">
        <ele>834.028</ele>
        <time>2018-10-04T01:05:52Z</time>
      </trkpt>
      <trkpt lat="43.52508" lon="16.6117">
        <ele>835.08</ele>
        <time>2018-10-04T01:06:12Z</time>
      </trkpt>
      <trkpt lat="43.52509" lon="16.6118">
        <ele>837.098</ele>
        <time>2018-10-04T01:06:32Z</time>
      </trkpt>
      <trkpt lat="43.5251" lon="16.61193">
        <ele>839.079</ele>
        <time>2018-10-04T01:06:52Z</time>
      </trkpt>
      <trkpt lat="43.5251" lon="16.612">
        <ele>842.049</ele>
        <time>2018-10-04T01:07:12Z</time>
      </trkpt>
      <trkpt lat="43.52513" lon="16.61209">
        <ele>844.058</ele>
        <time>2018-10-04T01:07:32Z</time>
      </trkpt>
      <trkpt lat="43.52512" lon="16.61217">
        <ele>846.098</ele>
        <time>2018-10-04T01:07:52Z</time>
      </trkpt>
      <trkpt lat="43.52507" lon="16.61226">
        <ele>848.015</ele>
        <time>2018-10-04T01:08:12Z</time>
      </trkpt>
      <trkpt lat="43.52508" lon="16.6123">
        <ele>849.026</ele>
        <time>2018-10-04T01:08:32Z</time>
      </trkpt>
      <trkpt lat="43.52509" lon="16.61238">
        <ele>852.008</ele>
        <time>2018-10-04T01:08:52Z</time>
      </trkpt>
      <trkpt lat="43.52507" lon="16.61244">
        <ele>854.041</ele>
        <time>2018-10-04T01:09:12Z</time>
      </trkpt>
      <trkpt lat="43.52504" lon="16.61249">
        <ele>855.028</ele>
        <time>2018-10-04T01:09:32Z</time>
      </trkpt>
      <trkpt lat="43.52503" lon="16.61254">
        <ele>856.081</ele>
        <time>2018-10-04T01:09:52Z</time>
      </trkpt>
      <trkpt lat="43.52502" lon="16.61264">
        <ele>858.063</ele>
        <time>2018-10-04T01:10:12Z</time>
      </trkpt>
      <trkpt lat="43.52498" lon="16.61276">
        <ele>860.021</ele>
        <time>2018-10-04T01:10:32Z</time>
      </trkpt>
      <trkpt lat="43.52495" lon="16.6128">
        <ele>861.012</ele>
        <time>2018-10-04T01:10:52Z</time>
      </trkpt>
      <trkpt lat="43.52492" lon="16.61285">
        <ele>861.052</ele>
        <time>2018-10-04T01:11:12Z</time>
      </trkpt>
      <trkpt lat="43.52491" lon="16.61288">
        <ele>861.031</ele>
        <time>2018-10-04T01:11:32Z</time>
      </trkpt>
      <trkpt lat="43.52486" lon="16.61294">
        <ele>862.063</ele>
        <time>2018-10-04T01:11:52Z</time>
      </trkpt>
      <trkpt lat="43.52476" lon="16.61303">
        <ele>863.044</ele>
        <time>2018-10-04T01:12:12Z</time>
      </trkpt>
      <trkpt lat="43.52459" lon="16.61313">
        <ele>863.018</ele>
        <time>2018-10-04T01:12:32Z</time>
      </trkpt>
      <trkpt lat="43.52448" lon="16.61316">
        <ele>862.008</ele>
        <time>2018-10-04T01:12:52Z</time>
      </trkpt>
      <trkpt lat="43.52444" lon="16.61319">
        <ele>861.068</ele>
        <time>2018-10-04T01:13:12Z</time>
      </trkpt>
      <trkpt lat="43.52432" lon="16.61329">
        <ele>861.015</ele>
        <time>2018-10-04T01:13:32Z</time>
      </trkpt>
      <trkpt lat="43.5243" lon="16.6133">
        <ele>860.048</ele>
        <time>2018-10-04T01:13:52Z</time>
      </trkpt>
      <trkpt lat="43.52423" lon="16.61335">
        <ele>859.04</ele>
        <time>2018-10-04T01:14:12Z</time>
      </trkpt>
      <trkpt lat="43.5242" lon="16.61336">
        <ele>859.088</ele>
        <time>2018-10-04T01:14:32Z</time>
      </trkpt>
      <trkpt lat="43.52409" lon="16.61345">
        <ele>860.069</ele>
        <time>2018-10-04T01:14:52Z</time>
      </trkpt>
      <trkpt lat="43.52408" lon="16.61346">
        <ele>860.099</ele>
        <time>2018-10-04T01:15:12Z</time>
      </trkpt>
      <trkpt lat="43.52402" lon="16.6135">
        <ele>861.068</ele>
        <time>2018-10-04T01:15:32Z</time>
      </trkpt>
      <trkpt lat="43.52399" lon="16.61352">
        <ele>862.087</ele>
        <time>2018-10-04T01:15:52Z</time>
      </trkpt>
      <trkpt lat="43.52399" lon="16.61352">
        <ele>862.042</ele>
        <time>2018-10-04T01:16:12Z</time>
      </trkpt>
      <trkpt lat="43.52392" lon="16.61357">
        <ele>864.026</ele>
        <time>2018-10-04T01:16:32Z</time>
      </trkpt>
      <trkpt lat="43.52385" lon="16.61358">
        <ele>864.008</ele>
        <time>2018-10-04T01:16:52Z</time>
      </trkpt>
      <trkpt lat="43.52381" lon="16.61357">
        <ele>864.08</ele>
        <time>2018-10-04T01:17:12Z</time>
      </trkpt>
      <trkpt lat="43.52377" lon="16.61359">
        <ele>864.037</ele>
        <time>2018-10-04T01:17:32Z</time>
      </trkpt>
      <trkpt lat="43.52371" lon="16.61361">
        <ele>865.02</ele>
        <time>2018-10-04T01:17:52Z</time>
      </trkpt>
      <trkpt lat="43.5237" lon="16.61361">
        <ele>865.062</ele>
        <time>2018-10-04T01:18:12Z</time>
      </trkpt>
      <trkpt lat="43.52366" lon="16.61361">
        <ele>866.03</ele>
        <time>2018-10-04T01:18:32Z</time>
      </trkpt>
      <trkpt lat="43.52364" lon="16.61362">
        <ele>866.081</ele>
        <time>2018-10-04T01:18:52Z</time>
      </trkpt>
      <trkpt lat="43.52362" lon="16.61363">
        <ele>866.011</ele>
        <time>2018-10-04T01:19:12Z</time>
      </trkpt>
      <trkpt lat="43.52358" lon="16.61363">
        <ele>867.02</ele>
        <time>2018-10-04T01:19:32Z</time>
      </trkpt>
      <trkpt lat="43.52348" lon="16.61362">
        <ele>868.034</ele>
        <time>2018-10-04T01:19:52Z</time>
      </trkpt>
      <trkpt lat="43.52343" lon="16.61364">
        <ele>869.055</ele>
        <time>2018-10-04T01:20:12Z</time>
      </trkpt>
      <trkpt lat="43.52335" lon="16.61366">
        <ele>870.01</ele>
        <time>2018-10-04T01:20:32Z</time>
      </trkpt>
      <trkpt lat="43.5233" lon="16.61368">
        <ele>871.008</ele>
        <time>2018-10-04T01:20:52Z</time>
      </trkpt>
      <trkpt lat="43.52326" lon="16.61371">
        <ele>872.035</ele>
        <time>2018-10-04T01:21:12Z</time>
      </trkpt>
      <trkpt lat="43.52319" lon="16.61376">
        <ele>873.092</ele>
        <time>2018-10-04T01:21:32Z</time>
      </trkpt>
      <trkpt lat="43.52312" lon="16.61379">
        <ele>874.065</ele>
        <time>2018-10-04T01:21:52Z</time>
      </trkpt>
      <trkpt lat="43.52308" lon="16.61381">
        <ele>874.027</ele>
        <time>2018-10-04T01:22:12Z</time>
      </trkpt>
      <trkpt lat="43.52301" lon="16.61386">
        <ele>875.015</ele>
        <time>2018-10-04T01:22:32Z</time>
      </trkpt>
      <trkpt lat="43.523" lon="16.61386">
        <ele>875.046</ele>
        <time>2018-10-04T01:22:52Z</time>
      </trkpt>
      <trkpt lat="43.52295" lon="16.61393">
        <ele>875.096</ele>
        <time>2018-10-04T01:23:12Z</time>
      </trkpt>
      <trkpt lat="43.52293" lon="16.61397">
        <ele>876.045</ele>
        <time>2018-10-04T01:23:32Z</time>
      </trkpt>
      <trkpt lat="43.5229" lon="16.61401">
        <ele>876.019</ele>
        <time>2018-10-04T01:23:52Z</time>
      </trkpt>
      <trkpt lat="43.52281" lon="16.61408">
        <ele>877.009</ele>
        <time>2018-10-04T01:24:12Z</time>
      </trkpt>
      <trkpt lat="43.52279" lon="16.61411">
        <ele>877.019</ele>
        <time>2018-10-04T01:24:32Z</time>
      </trkpt>
      <trkpt lat="43.52278" lon="16.61413">
        <ele>878.008</ele>
        <time>2018-10-04T01:24:52Z</time>
      </trkpt>
      <trkpt lat="43.52278" lon="16.61413">
        <ele>878.073</ele>
        <time>2018-10-04T01:25:12Z</time>
      </trkpt>
      <trkpt lat="43.52272" lon="16.61421">
        <ele>879.09</ele>
        <time>2018-10-04T01:25:32Z</time>
      </trkpt>
      <trkpt lat="43.52262" lon="16.61429">
        <ele>879.053</ele>
        <time>2018-10-04T01:25:52Z</time>
      </trkpt>
      <trkpt lat="43.52254" lon="16.61437">
        <ele>880.025</ele>
        <time>2018-10-04T01:26:12Z</time>
      </trkpt>
      <trkpt lat="43.52248" lon="16.61449">
        <ele>881.013</ele>
        <time>2018-10-04T01:26:32Z</time>
      </trkpt>
      <trkpt lat="43.52248" lon="16.61452">
        <ele>881.034</ele>
        <time>2018-10-04T01:26:52Z</time>
      </trkpt>
      <trkpt lat="43.52245" lon="16.61454">
        <ele>881.024</ele>
        <time>2018-10-04T01:27:12Z</time>
      </trkpt>
      <trkpt lat="43.52251" lon="16.61462">
        <ele>882.043</ele>
        <time>2018-10-04T01:27:32Z</time>
      </trkpt>
      <trkpt lat="43.52253" lon="16.61464">
        <ele>882.014</ele>
        <time>2018-10-04T01:27:52Z</time>
      </trkpt>
      <trkpt lat="43.52256" lon="16.61466">
        <ele>883.054</ele>
        <time>2018-10-04T01:28:12Z</time>
      </trkpt>
      <trkpt lat="43.52257" lon="16.61472">
        <ele>884.009</ele>
        <time>2018-10-04T01:28:32Z</time>
      </trkpt>
      <trkpt lat="43.52259" lon="16.61477">
        <ele>885.008</ele>
        <time>2018-10-04T01:28:52Z</time>
      </trkpt>
      <trkpt lat="43.52259" lon="16.61481">
        <ele>885.053</ele>
        <time>2018-10-04T01:29:12Z</time>
      </trkpt>
      <trkpt lat="43.52259" lon="16.61483">
        <ele>886.06</ele>
        <time>2018-10-04T01:29:32Z</time>
      </trkpt>
      <trkpt lat="43.52261" lon="16.61488">
        <ele>887.073</ele>
        <time>2018-10-04T01:29:52Z</time>
      </trkpt>
      <trkpt lat="43.52264" lon="16.61491">
        <ele>888.035</ele>
        <time>2018-10-04T01:30:12Z</time>
      </trkpt>
      <trkpt lat="43.52267" lon="16.61493">
        <ele>888.053</ele>
        <time>2018-10-04T01:30:32Z</time>
      </trkpt>
      <trkpt lat="43.52271" lon="16.61496">
        <ele>889.054</ele>
        <time>2018-10-04T01:30:52Z</time>
      </trkpt>
      <trkpt lat="43.52278" lon="16.61501">
        <ele>890.094</ele>
        <time>2018-10-04T01:31:12Z</time>
      </trkpt>
      <trkpt lat="43.5228" lon="16.61508">
        <ele>891.063</ele>
        <time>2018-10-04T01:31:32Z</time>
      </trkpt>
      <trkpt lat="43.52281" lon="16.61511">
        <ele>892.032</ele>
        <time>2018-10-04T01:31:52Z</time>
      </trkpt>
      <trkpt lat="43.52283" lon="16.61516">
        <ele>893.092</ele>
        <time>2018-10-04T01:32:12Z</time>
      </trkpt>
      <trkpt lat="43.52285" lon="16.61524">
        <ele>893.011</ele>
        <time>2018-10-04T01:32:32Z</time>
      </trkpt>
      <trkpt lat="43.52287" lon="16.61535">
        <ele>893.008</ele>
        <time>2018-10-04T01:32:52Z</time>
      </trkpt>
      <trkpt lat="43.52295" lon="16.61559">
        <ele>892.065</ele>
        <time>2018-10-04T01:33:12Z</time>
      </trkpt>
      <trkpt lat="43.523" lon="16.61571">
        <ele>891.092</ele>
        <time>2018-10-04T01:33:32Z</time>
      </trkpt>
      <trkpt lat="43.52307" lon="16.61589">
        <ele>890.055</ele>
        <time>2018-10-04T01:33:52Z</time>
      </trkpt>
      <trkpt lat="43.52311" lon="16.61595">
        <ele>890.017</ele>
        <time>2018-10-04T01:34:12Z</time>
      </trkpt>
      <trkpt lat="43.52324" lon="16.61617">
        <ele>888.075</ele>
        <time>2018-10-04T01:34:32Z</time>
      </trkpt>
      <trkpt lat="43.52327" lon="16.61624">
        <ele>888.086</ele>
        <time>2018-10-04T01:34:52Z</time>
      </trkpt>
      <trkpt lat="43.52333" lon="16.61637">
        <ele>886.096</ele>
        <time>2018-10-04T01:35:12Z</time>
      </trkpt>
      <trkpt lat="43.52336" lon="16.61642">
        <ele>886.035</ele>
        <time>2018-10-04T01:35:32Z</time>
      </trkpt>
      <trkpt lat="43.52339" lon="16.61647">
        <ele>886.041</ele>
        <time>2018-10-04T01:35:52Z</time>
      </trkpt>
      <trkpt lat="43.52342" lon="16.61659">
        <ele>885.081</ele>
        <time>2018-10-04T01:36:12Z</time>
      </trkpt>
      <trkpt lat="43.52341" lon="16.61671">
        <ele>885.009</ele>
        <time>2018-10-04T01:36:32Z</time>
      </trkpt>
      <trkpt lat="43.5234" lon="16.61676">
        <ele>884.008</ele>
        <time>2018-10-04T01:36:52Z</time>
      </trkpt>
      <trkpt lat="43.52341" lon="16.6168">
        <ele>884.056</ele>
        <time>2018-10-04T01:37:12Z</time>
      </trkpt>
      <trkpt lat="43.52339" lon="16.61699">
        <ele>883.053</ele>
        <time>2018-10-04T01:37:32Z</time>
      </trkpt>
      <trkpt lat="43.52338" lon="16.61704">
        <ele>884.026</ele>
        <time>2018-10-04T01:37:52Z</time>
      </trkpt>
      <trkpt lat="43.52337" lon="16.61711">
        <ele>884.028</ele>
        <time>2018-10-04T01:38:12Z</time>
      </trkpt>
      <trkpt lat="43.52335" lon="16.6172">
        <ele>884.086</ele>
        <time>2018-10-04T01:38:32Z</time>
      </trkpt>
      <trkpt lat="43.52325" lon="16.61746">
        <ele>883.027</ele>
        <time>2018-10-04T01:38:52Z</time>
      </trkpt>
      <trkpt lat="43.52322" lon="16.61756">
        <ele>882.077</ele>
        <time>2018-10-04T01:39:12Z</time>
      </trkpt>
      <trkpt lat="43.52317" lon="16.61781">
        <ele>882.086</ele>
        <time>2018-10-04T01:39:32Z</time>
      </trkpt>
      <trkpt lat="43.52311" lon="16.61804">
        <ele>882.052</ele>
        <time>2018-10-04T01:39:52Z</time>
      </trkpt>
      <trkpt lat="43.52307" lon="16.61821">
        <ele>881.053</ele>
        <time>2018-10-04T01:40:12Z</time>
      </trkpt>
      <trkpt lat="43.52298" lon="16.61852">
        <ele>880.008</ele>
        <time>2018-10-04T01:40:32Z</time>
      </trkpt>
      <trkpt lat="43.52292" lon="16.61873">
        <ele>879.008</ele>
        <time>2018-10-04T01:40:52Z</time>
      </trkpt>
      <trkpt lat="43.52286" lon="16.61889">
        <ele>878.057</ele>
        <time>2018-10-04T01:41:12Z</time>
      </trkpt>
      <trkpt lat="43.52286" lon="16.61891">
        <ele>878.024</ele>
        <time>2018-10-04T01:41:32Z</time>
      </trkpt>
      <trkpt lat="43.52284" lon="16.61893">
        <ele>878.017</ele>
        <time>2018-10-04T01:41:52Z</time>
      </trkpt>
      <trkpt lat="43.52279" lon="16.61896">
        <ele>878.089</ele>
        <time>2018-10-04T01:42:12Z</time>
      </trkpt>
      <trkpt lat="43.52275" lon="16.61899">
        <ele>878.017</ele>
        <time>2018-10-04T01:42:32Z</time>
      </trkpt>
      <trkpt lat="43.52262" lon="16.61916">
        <ele>878.098</ele>
        <time>2018-10-04T01:42:52Z</time>
      </trkpt>
      <trkpt lat="43.52257" lon="16.61924">
        <ele>878.038</ele>
        <time>2018-10-04T01:43:12Z</time>
      </trkpt>
      <trkpt lat="43.52256" lon="16.61926">
        <ele>878.027</ele>
        <time>2018-10-04T01:43:32Z</time>
      </trkpt>
      <trkpt lat="43.52244" lon="16.61935">
        <ele>878.068</ele>
        <time>2018-10-04T01:43:52Z</time>
      </trkpt>
      <trkpt lat="43.52236" lon="16.61939">
        <ele>878.042</ele>
        <time>2018-10-04T01:44:12Z</time>
      </trkpt>
      <trkpt lat="43.52231" lon="16.61944">
        <ele>877.026</ele>
        <time>2018-10-04T01:44:32Z</time>
      </trkpt>
      <trkpt lat="43.52228" lon="16.61947">
        <ele>877.008</ele>
        <time>2018-10-04T01:44:52Z</time>
      </trkpt>
      <trkpt lat="43.52211" lon="16.61953">
        <ele>878.018</ele>
        <time>2018-10-04T01:45:12Z</time>
      </trkpt>
      <trkpt lat="43.52207" lon="16.61953">
        <ele>877.015</ele>
        <time>2018-10-04T01:45:32Z</time>
      </trkpt>
      <trkpt lat="43.52204" lon="16.61956">
        <ele>877.088</ele>
        <time>2018-10-04T01:45:52Z</time>
      </trkpt>
      <trkpt lat="43.52202" lon="16.61962">
        <ele>877.03</ele>
        <time>2018-10-04T01:46:12Z</time>
      </trkpt>
      <trkpt lat="43.52197" lon="16.61967">
        <ele>876.048</ele>
        <time>2018-10-04T01:46:32Z</time>
      </trkpt>
      <trkpt lat="43.52191" lon="16.61967">
        <ele>875.079</ele>
        <time>2018-10-04T01:46:52Z</time>
      </trkpt>
      <trkpt lat="43.5219" lon="16.61966">
        <ele>875.079</ele>
        <time>2018-10-04T01:47:12Z</time>
      </trkpt>
      <trkpt lat="43.52187" lon="16.61968">
        <ele>874.078</ele>
        <time>2018-10-04T01:47:32Z</time>
      </trkpt>
      <trkpt lat="43.52186" lon="16.61968">
        <ele>873.084</ele>
        <time>2018-10-04T01:47:52Z</time>
      </trkpt>
      <trkpt lat="43.52184" lon="16.61965">
        <ele>872.007</ele>
        <time>2018-10-04T01:48:12Z</time>
      </trkpt>
      <trkpt lat="43.52184" lon="16.61964">
        <ele>871.017</ele>
        <time>2018-10-04T01:48:32Z</time>
      </trkpt>
      <trkpt lat="43.52185" lon="16.61961">
        <ele>871.008</ele>
        <time>2018-10-04T01:48:52Z</time>
      </trkpt>
      <trkpt lat="43.52185" lon="16.61958">
        <ele>870.04</ele>
        <time>2018-10-04T01:49:12Z</time>
      </trkpt>
      <trkpt lat="43.52182" lon="16.61953">
        <ele>869.077</ele>
        <time>2018-10-04T01:49:32Z</time>
      </trkpt>
      <trkpt lat="43.52176" lon="16.61945">
        <ele>866.04</ele>
        <time>2018-10-04T01:49:52Z</time>
      </trkpt>
      <trkpt lat="43.52178" lon="16.61936">
        <ele>864.042</ele>
        <time>2018-10-04T01:50:12Z</time>
      </trkpt>
      <trkpt lat="43.52182" lon="16.6192">
        <ele>861.04</ele>
        <time>2018-10-04T01:50:32Z</time>
      </trkpt>
      <trkpt lat="43.52183" lon="16.61917">
        <ele>861.061</ele>
        <time>2018-10-04T01:50:52Z</time>
      </trkpt>
      <trkpt lat="43.52183" lon="16.61912">
        <ele>860.011</ele>
        <time>2018-10-04T01:51:12Z</time>
      </trkpt>
      <trkpt lat="43.52181" lon="16.61895">
        <ele>859.07</ele>
        <time>2018-10-04T01:51:32Z</time>
      </trkpt>
      <trkpt lat="43.5218" lon="16.61887">
        <ele>858.018</ele>
        <time>2018-10-04T01:51:52Z</time>
      </trkpt>
      <trkpt lat="43.52181" lon="16.61877">
        <ele>856.098</ele>
        <time>2018-10-04T01:52:12Z</time>
      </trkpt>
      <trkpt lat="43.5218" lon="16.61873">
        <ele>856.017</ele>
        <time>2018-10-04T01:52:32Z</time>
      </trkpt>
      <trkpt lat="43.52178" lon="16.61854">
        <ele>853.008</ele>
        <time>2018-10-04T01:52:52Z</time>
      </trkpt>
      <trkpt lat="43.52178" lon="16.61851">
        <ele>853.053</ele>
        <time>2018-10-04T01:53:12Z</time>
      </trkpt>
      <trkpt lat="43.52182" lon="16.61834">
        <ele>853.04</ele>
        <time>2018-10-04T01:53:32Z</time>
      </trkpt>
      <trkpt lat="43.52188" lon="16.61823">
        <ele>852.083</ele>
        <time>2018-10-04T01:53:52Z</time>
      </trkpt>
      <trkpt lat="43.52186" lon="16.61811">
        <ele>852.045</ele>
        <time>2018-10-04T01:54:12Z</time>
      </trkpt>
      <trkpt lat="43.52188" lon="16.61767">
        <ele>852.063</ele>
        <time>2018-10-04T01:54:32Z</time>
      </trkpt>
      <trkpt lat="43.52188" lon="16.61753">
        <ele>853.034</ele>
        <time>2018-10-04T01:54:52Z</time>
      </trkpt>
      <trkpt lat="43.52187" lon="16.61752">
        <ele>853.034</ele>
        <time>2018-10-04T01:55:12Z</time>
      </trkpt>
      <trkpt lat="43.52177" lon="16.61748">
        <ele>853.023</ele>
        <time>2018-10-04T01:55:32Z</time>
      </trkpt>
      <trkpt lat="43.52175" lon="16.61747">
        <ele>853.074</ele>
        <time>2018-10-04T01:55:52Z</time>
      </trkpt>
      <trkpt lat="43.52159" lon="16.61741">
        <ele>853.056</ele>
        <time>2018-10-04T01:56:12Z</time>
      </trkpt>
      <trkpt lat="43.52157" lon="16.61736">
        <ele>853.021</ele>
        <time>2018-10-04T01:56:32Z</time>
      </trkpt>
      <trkpt lat="43.52155" lon="16.61736">
        <ele>853.008</ele>
        <time>2018-10-04T01:56:52Z</time>
      </trkpt>
      <trkpt lat="43.52149" lon="16.61737">
        <ele>853.079</ele>
        <time>2018-10-04T01:57:12Z</time>
      </trkpt>
      <trkpt lat="43.52145" lon="16.61732">
        <ele>853.086</ele>
        <time>2018-10-04T01:57:32Z</time>
      </trkpt>
      <trkpt lat="43.52139" lon="16.61729">
        <ele>853.069</ele>
        <time>2018-10-04T01:57:52Z</time>
      </trkpt>
      <trkpt lat="43.52135" lon="16.61726">
        <ele>853.081</ele>
        <time>2018-10-04T01:58:12Z</time>
      </trkpt>
      <trkpt lat="43.52133" lon="16.61724">
        <ele>853.019</ele>
        <time>2018-10-04T01:58:32Z</time>
      </trkpt>
      <trkpt lat="43.52122" lon="16.6172">
        <ele>853.01</ele>
        <time>2018-10-04T01:58:52Z</time>
      </trkpt>
      <trkpt lat="43.52118" lon="16.61717">
        <ele>854.07</ele>
        <time>2018-10-04T01:59:12Z</time>
      </trkpt>
      <trkpt lat="43.52114" lon="16.61712">
        <ele>854.019</ele>
        <time>2018-10-04T01:59:32Z</time>
      </trkpt>
      <trkpt lat="43.52112" lon="16.61711">
        <ele>854.072</ele>
        <time>2018-10-04T01:59:52Z</time>
      </trkpt>
      <trkpt lat="43.5211" lon="16.61709">
        <ele>854.013</ele>
        <time>2018-10-04T02:00:12Z</time>
      </trkpt>
      <trkpt lat="43.52105" lon="16.61707">
        <ele>854.014</ele>
        <time>2018-10-04T02:00:32Z</time>
      </trkpt>
      <trkpt lat="43.521" lon="16.61705">
        <ele>854.008</ele>
        <time>2018-10-04T02:00:52Z</time>
      </trkpt>
      <trkpt lat="43.52095" lon="16.61703">
        <ele>854.079</ele>
        <time>2018-10-04T02:01:12Z</time>
      </trkpt>
      <trkpt lat="43.52088" lon="16.61701">
        <ele>855.066</ele>
        <time>2018-10-04T02:01:32Z</time>
      </trkpt>
      <trkpt lat="43.52085" lon="16.61699">
        <ele>855.019</ele>
        <time>2018-10-04T02:01:52Z</time>
      </trkpt>
      <trkpt lat="43.52078" lon="16.6169">
        <ele>854.091</ele>
        <time>2018-10-04T02:02:12Z</time>
      </trkpt>
      <trkpt lat="43.52074" lon="16.61686">
        <ele>855.029</ele>
        <time>2018-10-04T02:02:32Z</time>
      </trkpt>
      <trkpt lat="43.52058" lon="16.61682">
        <ele>855.07</ele>
        <time>2018-10-04T02:02:52Z</time>
      </trkpt>
      <trkpt lat="43.52057" lon="16.61682">
        <ele>855.01</ele>
        <time>2018-10-04T02:03:12Z</time>
      </trkpt>
      <trkpt lat="43.52053" lon="16.61685">
        <ele>855.079</ele>
        <time>2018-10-04T02:03:32Z</time>
      </trkpt>
      <trkpt lat="43.5204" lon="16.61685">
        <ele>854.085</ele>
        <time>2018-10-04T02:03:52Z</time>
      </trkpt>
      <trkpt lat="43.52018" lon="16.61673">
        <ele>852.089</ele>
        <time>2018-10-04T02:04:12Z</time>
      </trkpt>
      <trkpt lat="43.52017" lon="16.61673">
        <ele>852.017</ele>
        <time>2018-10-04T02:04:32Z</time>
      </trkpt>
      <trkpt lat="43.52016" lon="16.61668">
        <ele>851.008</ele>
        <time>2018-10-04T02:04:52Z</time>
      </trkpt>
      <trkpt lat="43.52016" lon="16.6166">
        <ele>850.03</ele>
        <time>2018-10-04T02:05:12Z</time>
      </trkpt>
      <trkpt lat="43.52017" lon="16.61657">
        <ele>850.097</ele>
        <time>2018-10-04T02:05:32Z</time>
      </trkpt>
      <trkpt lat="43.52018" lon="16.61645">
        <ele>850.09</ele>
        <time>2018-10-04T02:05:52Z</time>
      </trkpt>
      <trkpt lat="43.52017" lon="16.61643">
        <ele>850.092</ele>
        <time>2018-10-04T02:06:12Z</time>
      </trkpt>
      <trkpt lat="43.52016" lon="16.61629">
        <ele>849.05</ele>
        <time>2018-10-04T02:06:32Z</time>
      </trkpt>
      <trkpt lat="43.52017" lon="16.61628">
        <ele>848.061</ele>
        <time>2018-10-04T02:06:52Z</time>
      </trkpt>
      <trkpt lat="43.52017" lon="16.61628">
        <ele>848.091</ele>
        <time>2018-10-04T02:07:12Z</time>
      </trkpt>
      <trkpt lat="43.5202" lon="16.61625">
        <ele>847.08</ele>
        <time>2018-10-04T02:07:32Z</time>
      </trkpt>
      <trkpt lat="43.52019" lon="16.61617">
        <ele>847.068</ele>
        <time>2018-10-04T02:07:52Z</time>
      </trkpt>
      <trkpt lat="43.52019" lon="16.61605">
        <ele>846.042</ele>
        <time>2018-10-04T02:08:12Z</time>
      </trkpt>
      <trkpt lat="43.52016" lon="16.61591">
        <ele>846.026</ele>
        <time>2018-10-04T02:08:32Z</time>
      </trkpt>
      <trkpt lat="43.52016" lon="16.61587">
        <ele>847.008</ele>
        <time>2018-10-04T02:08:52Z</time>
      </trkpt>
      <trkpt lat="43.52015" lon="16.61566">
        <ele>848.018</ele>
        <time>2018-10-04T02:09:12Z</time>
      </trkpt>
      <trkpt lat="43.52015" lon="16.61564">
        <ele>848.045</ele>
        <time>2018-10-04T02:09:32Z</time>
      </trkpt>
      <trkpt lat="43.52021" lon="16.61553">
        <ele>849.078</ele>
        <time>2018-10-04T02:09:52Z</time>
      </trkpt>
      <trkpt lat="43.52026" lon="16.61528">
        <ele>849.01</ele>
        <time>2018-10-04T02:10:12Z</time>
      </trkpt>
      <trkpt lat="43.52029" lon="16.61521">
        <ele>849.058</ele>
        <time>2018-10-04T02:10:32Z</time>
      </trkpt>
      <trkpt lat="43.52033" lon="16.61507">
        <ele>847.039</ele>
        <time>2018-10-04T02:10:52Z</time>
      </trkpt>
      <trkpt lat="43.52032" lon="16.61499">
        <ele>846.049</ele>
        <time>2018-10-04T02:11:12Z</time>
      </trkpt>
      <trkpt lat="43.52032" lon="16.61498">
        <ele>846.078</ele>
        <time>2018-10-04T02:11:32Z</time>
      </trkpt>
      <trkpt lat="43.52035" lon="16.61494">
        <ele>845.071</ele>
        <time>2018-10-04T02:11:52Z</time>
      </trkpt>
      <trkpt lat="43.5204" lon="16.61478">
        <ele>844.041</ele>
        <time>2018-10-04T02:12:12Z</time>
      </trkpt>
      <trkpt lat="43.52045" lon="16.61456">
        <ele>842.015</ele>
        <time>2018-10-04T02:12:32Z</time>
      </trkpt>
      <trkpt lat="43.5205" lon="16.61445">
        <ele>840.008</ele>
        <time>2018-10-04T02:12:52Z</time>
      </trkpt>
      <trkpt lat="43.52052" lon="16.61441">
        <ele>840.099</ele>
        <time>2018-10-04T02:13:12Z</time>
      </trkpt>
      <trkpt lat="43.52054" lon="16.61433">
        <ele>838.066</ele>
        <time>2018-10-04T02:13:32Z</time>
      </trkpt>
      <trkpt lat="43.52057" lon="16.6142">
        <ele>838.099</ele>
        <time>2018-10-04T02:13:52Z</time>
      </trkpt>
      <trkpt lat="43.52056" lon="16.61416">
        <ele>837.021</ele>
        <time>2018-10-04T02:14:12Z</time>
      </trkpt>
      <trkpt lat="43.52058" lon="16.61399">
        <ele>835.019</ele>
        <time>2018-10-04T02:14:32Z</time>
      </trkpt>
      <trkpt lat="43.5206" lon="16.61387">
        <ele>834.01</ele>
        <time>2018-10-04T02:14:52Z</time>
      </trkpt>
      <trkpt lat="43.52063" lon="16.61377">
        <ele>833.06</ele>
        <time>2018-10-04T02:15:12Z</time>
      </trkpt>
      <trkpt lat="43.52062" lon="16.61366">
        <ele>833.019</ele>
        <time>2018-10-04T02:15:32Z</time>
      </trkpt>
      <trkpt lat="43.52066" lon="16.61351">
        <ele>832.041</ele>
        <time>2018-10-04T02:15:52Z</time>
      </trkpt>
      <trkpt lat="43.52071" lon="16.61339">
        <ele>831.081</ele>
        <time>2018-10-04T02:16:12Z</time>
      </trkpt>
      <trkpt lat="43.52076" lon="16.6132">
        <ele>829.009</ele>
        <time>2018-10-04T02:16:32Z</time>
      </trkpt>
      <trkpt lat="43.52078" lon="16.61319">
        <ele>828.008</ele>
        <time>2018-10-04T02:16:52Z</time>
      </trkpt>
      <trkpt lat="43.52081" lon="16.61311">
        <ele>828.096</ele>
        <time>2018-10-04T02:17:12Z</time>
      </trkpt>
      <trkpt lat="43.52082" lon="16.61303">
        <ele>826.013</ele>
        <time>2018-10-04T02:17:32Z</time>
      </trkpt>
      <trkpt lat="43.52084" lon="16.61297">
        <ele>826.016</ele>
        <time>2018-10-04T02:17:52Z</time>
      </trkpt>
      <trkpt lat="43.52084" lon="16.61294">
        <ele>825.028</ele>
        <time>2018-10-04T02:18:12Z</time>
      </trkpt>
      <trkpt lat="43.52084" lon="16.61293">
        <ele>824.056</ele>
        <time>2018-10-04T02:18:32Z</time>
      </trkpt>
      <trkpt lat="43.52087" lon="16.61276">
        <ele>823.097</ele>
        <time>2018-10-04T02:18:52Z</time>
      </trkpt>
      <trkpt lat="43.52089" lon="16.6127">
        <ele>822.067</ele>
        <time>2018-10-04T02:19:12Z</time>
      </trkpt>
      <trkpt lat="43.52095" lon="16.61252">
        <ele>820.016</ele>
        <time>2018-10-04T02:19:32Z</time>
      </trkpt>
      <trkpt lat="43.521" lon="16.61231">
        <ele>818.082</ele>
        <time>2018-10-04T02:19:52Z</time>
      </trkpt>
      <trkpt lat="43.52104" lon="16.61221">
        <ele>817.043</ele>
        <time>2018-10-04T02:20:12Z</time>
      </trkpt>
      <trkpt lat="43.52107" lon="16.61214">
        <ele>817.017</ele>
        <time>2018-10-04T02:20:32Z</time>
      </trkpt>
      <trkpt lat="43.52113" lon="16.6121">
        <ele>817.008</ele>
        <time>2018-10-04T02:20:52Z</time>
      </trkpt>
      <trkpt lat="43.52114" lon="16.61204">
        <ele>817.02</ele>
        <time>2018-10-04T02:21:12Z</time>
      </trkpt>
      <trkpt lat="43.52124" lon="16.61191">
        <ele>816.067</ele>
        <time>2018-10-04T02:21:32Z</time>
      </trkpt>
      <trkpt lat="43.52133" lon="16.61181">
        <ele>815.06</ele>
        <time>2018-10-04T02:21:52Z</time>
      </trkpt>
      <trkpt lat="43.52135" lon="16.6118">
        <ele>815.052</ele>
        <time>2018-10-04T02:22:12Z</time>
      </trkpt>
      <trkpt lat="43.52138" lon="16.61171">
        <ele>814.05</ele>
        <time>2018-10-04T02:22:32Z</time>
      </trkpt>
      <trkpt lat="43.52138" lon="16.6117">
        <ele>813.061</ele>
        <time>2018-10-04T02:22:52Z</time>
      </trkpt>
      <trkpt lat="43.52142" lon="16.61161">
        <ele>811.011</ele>
        <time>2018-10-04T02:23:12Z</time>
      </trkpt>
      <trkpt lat="43.52144" lon="16.61157">
        <ele>810.01</ele>
        <time>2018-10-04T02:23:32Z</time>
      </trkpt>
      <trkpt lat="43.52139" lon="16.61053">
        <ele>787.011</ele>
        <time>2018-10-04T02:23:52Z</time>
      </trkpt>
      <trkpt lat="43.52131" lon="16.61035">
        <ele>784.021</ele>
        <time>2018-10-04T02:24:12Z</time>
      </trkpt>
      <trkpt lat="43.52129" lon="16.61028">
        <ele>783.003</ele>
        <time>2018-10-04T02:24:32Z</time>
      </trkpt>
      <trkpt lat="43.52126" lon="16.61022">
        <ele>782.008</ele>
        <time>2018-10-04T02:24:52Z</time>
      </trkpt>
      <trkpt lat="43.52118" lon="16.61018">
        <ele>780.053</ele>
        <time>2018-10-04T02:25:12Z</time>
      </trkpt>
      <trkpt lat="43.52114" lon="16.61013">
        <ele>779.02</ele>
        <time>2018-10-04T02:25:32Z</time>
      </trkpt>
      <trkpt lat="43.52113" lon="16.61003">
        <ele>778.063</ele>
        <time>2018-10-04T02:25:52Z</time>
      </trkpt>
      <trkpt lat="43.5211" lon="16.60995">
        <ele>777.025</ele>
        <time>2018-10-04T02:26:12Z</time>
      </trkpt>
      <trkpt lat="43.52108" lon="16.60995">
        <ele>777.053</ele>
        <time>2018-10-04T02:26:32Z</time>
      </trkpt>
      <trkpt lat="43.52102" lon="16.60999">
        <ele>776.094</ele>
        <time>2018-10-04T02:26:52Z</time>
      </trkpt>
      <trkpt lat="43.5209" lon="16.61004">
        <ele>774.064</ele>
        <time>2018-10-04T02:27:12Z</time>
      </trkpt>
      <trkpt lat="43.52085" lon="16.61006">
        <ele>773.023</ele>
        <time>2018-10-04T02:27:32Z</time>
      </trkpt>
      <trkpt lat="43.52082" lon="16.61008">
        <ele>772.066</ele>
        <time>2018-10-04T02:27:52Z</time>
      </trkpt>
      <trkpt lat="43.5208" lon="16.6101">
        <ele>771.029</ele>
        <time>2018-10-04T02:28:12Z</time>
      </trkpt>
      <trkpt lat="43.52075" lon="16.61013">
        <ele>771.021</ele>
        <time>2018-10-04T02:28:32Z</time>
      </trkpt>
      <trkpt lat="43.52073" lon="16.61015">
        <ele>770.008</ele>
        <time>2018-10-04T02:28:52Z</time>
      </trkpt>
      <trkpt lat="43.52068" lon="16.61012">
        <ele>769.088</ele>
        <time>2018-10-04T02:29:12Z</time>
      </trkpt>
      <trkpt lat="43.52065" lon="16.61007">
        <ele>768.065</ele>
        <time>2018-10-04T02:29:32Z</time>
      </trkpt>
      <trkpt lat="43.52063" lon="16.61004">
        <ele>768.038</ele>
        <time>2018-10-04T02:29:52Z</time>
      </trkpt>
      <trkpt lat="43.52055" lon="16.61003">
        <ele>766.07</ele>
        <time>2018-10-04T02:30:12Z</time>
      </trkpt>
      <trkpt lat="43.52045" lon="16.61">
        <ele>764.018</ele>
        <time>2018-10-04T02:30:32Z</time>
      </trkpt>
      <trkpt lat="43.52044" lon="16.60999">
        <ele>763.089</ele>
        <time>2018-10-04T02:30:52Z</time>
      </trkpt>
      <trkpt lat="43.5204" lon="16.60999">
        <ele>761.019</ele>
        <time>2018-10-04T02:31:12Z</time>
      </trkpt>
      <trkpt lat="43.52031" lon="16.60996">
        <ele>759.068</ele>
        <time>2018-10-04T02:31:32Z</time>
      </trkpt>
      <trkpt lat="43.52019" lon="16.60999">
        <ele>757.053</ele>
        <time>2018-10-04T02:31:52Z</time>
      </trkpt>
      <trkpt lat="43.52009" lon="16.61003">
        <ele>754.004</ele>
        <time>2018-10-04T02:32:12Z</time>
      </trkpt>
      <trkpt lat="43.52009" lon="16.61004">
        <ele>754.014</ele>
        <time>2018-10-04T02:32:32Z</time>
      </trkpt>
      <trkpt lat="43.52007" lon="16.61005">
        <ele>754.008</ele>
        <time>2018-10-04T02:32:52Z</time>
      </trkpt>
      <trkpt lat="43.52003" lon="16.61005">
        <ele>752.067</ele>
        <time>2018-10-04T02:33:12Z</time>
      </trkpt>
      <trkpt lat="43.52" lon="16.61005">
        <ele>751.064</ele>
        <time>2018-10-04T02:33:32Z</time>
      </trkpt>
      <trkpt lat="43.51994" lon="16.61002">
        <ele>750.037</ele>
        <time>2018-10-04T02:33:52Z</time>
      </trkpt>
      <trkpt lat="43.51985" lon="16.60999">
        <ele>748.039</ele>
        <time>2018-10-04T02:34:12Z</time>
      </trkpt>
      <trkpt lat="43.5198" lon="16.61001">
        <ele>746.097</ele>
        <time>2018-10-04T02:34:32Z</time>
      </trkpt>
      <trkpt lat="43.51972" lon="16.61003">
        <ele>744.048</ele>
        <time>2018-10-04T02:34:52Z</time>
      </trkpt>
      <trkpt lat="43.51967" lon="16.61006">
        <ele>743.078</ele>
        <time>2018-10-04T02:35:12Z</time>
      </trkpt>
      <trkpt lat="43.51964" lon="16.61004">
        <ele>740.047</ele>
        <time>2018-10-04T02:35:32Z</time>
      </trkpt>
      <trkpt lat="43.51962" lon="16.60995">
        <ele>738.024</ele>
        <time>2018-10-04T02:35:52Z</time>
      </trkpt>
      <trkpt lat="43.51961" lon="16.60986">
        <ele>736.004</ele>
        <time>2018-10-04T02:36:12Z</time>
      </trkpt>
      <trkpt lat="43.5196" lon="16.60983">
        <ele>735.014</ele>
        <time>2018-10-04T02:36:32Z</time>
      </trkpt>
      <trkpt lat="43.51959" lon="16.60974">
        <ele>733.008</ele>
        <time>2018-10-04T02:36:52Z</time>
      </trkpt>
      <trkpt lat="43.51958" lon="16.60966">
        <ele>732.054</ele>
        <time>2018-10-04T02:37:12Z</time>
      </trkpt>
      <trkpt lat="43.51958" lon="16.60963">
        <ele>731.051</ele>
        <time>2018-10-04T02:37:32Z</time>
      </trkpt>
      <trkpt lat="43.51962" lon="16.60948">
        <ele>730.034</ele>
        <time>2018-10-04T02:37:52Z</time>
      </trkpt>
      <trkpt lat="43.51964" lon="16.60939">
        <ele>729.046</ele>
        <time>2018-10-04T02:38:12Z</time>
      </trkpt>
      <trkpt lat="43.51963" lon="16.60938">
        <ele>729.044</ele>
        <time>2018-10-04T02:38:32Z</time>
      </trkpt>
      <trkpt lat="43.51959" lon="16.60942">
        <ele>728.085</ele>
        <time>2018-10-04T02:38:52Z</time>
      </trkpt>
      <trkpt lat="43.51952" lon="16.60948">
        <ele>727.075</ele>
        <time>2018-10-04T02:39:12Z</time>
      </trkpt>
      <trkpt lat="43.51948" lon="16.6095">
        <ele>726.034</ele>
        <time>2018-10-04T02:39:32Z</time>
      </trkpt>
      <trkpt lat="43.51948" lon="16.60943">
        <ele>725.054</ele>
        <time>2018-10-04T02:39:52Z</time>
      </trkpt>
      <trkpt lat="43.51949" lon="16.60935">
        <ele>723.056</ele>
        <time>2018-10-04T02:40:12Z</time>
      </trkpt>
      <trkpt lat="43.51949" lon="16.60935">
        <ele>723.011</ele>
        <time>2018-10-04T02:40:32Z</time>
      </trkpt>
      <trkpt lat="43.51952" lon="16.60931">
        <ele>722.008</ele>
        <time>2018-10-04T02:40:52Z</time>
      </trkpt>
      <trkpt lat="43.5196" lon="16.60909">
        <ele>721.047</ele>
        <time>2018-10-04T02:41:12Z</time>
      </trkpt>
      <trkpt lat="43.51962" lon="16.60903">
        <ele>720.054</ele>
        <time>2018-10-04T02:41:32Z</time>
      </trkpt>
      <trkpt lat="43.51965" lon="16.609">
        <ele>719.047</ele>
        <time>2018-10-04T02:41:52Z</time>
      </trkpt>
      <trkpt lat="43.51975" lon="16.60892">
        <ele>718.019</ele>
        <time>2018-10-04T02:42:12Z</time>
      </trkpt>
      <trkpt lat="43.51976" lon="16.60889">
        <ele>717.067</ele>
        <time>2018-10-04T02:42:32Z</time>
      </trkpt>
      <trkpt lat="43.51978" lon="16.60887">
        <ele>716.058</ele>
        <time>2018-10-04T02:42:52Z</time>
      </trkpt>
      <trkpt lat="43.51983" lon="16.60879">
        <ele>714.098</ele>
        <time>2018-10-04T02:43:12Z</time>
      </trkpt>
      <trkpt lat="43.51988" lon="16.60866">
        <ele>711.027</ele>
        <time>2018-10-04T02:43:32Z</time>
      </trkpt>
      <trkpt lat="43.51993" lon="16.60857">
        <ele>709.083</ele>
        <time>2018-10-04T02:43:52Z</time>
      </trkpt>
      <trkpt lat="43.51994" lon="16.60855">
        <ele>708.025</ele>
        <time>2018-10-04T02:44:12Z</time>
      </trkpt>
      <trkpt lat="43.51994" lon="16.60851">
        <ele>707.017</ele>
        <time>2018-10-04T02:44:32Z</time>
      </trkpt>
      <trkpt lat="43.51994" lon="16.6085">
        <ele>707.008</ele>
        <time>2018-10-04T02:44:52Z</time>
      </trkpt>
      <trkpt lat="43.51989" lon="16.6085">
        <ele>706.09</ele>
        <time>2018-10-04T02:45:12Z</time>
      </trkpt>
      <trkpt lat="43.51983" lon="16.60853">
        <ele>704.027</ele>
        <time>2018-10-04T02:45:32Z</time>
      </trkpt>
      <trkpt lat="43.51975" lon="16.6086">
        <ele>703.09</ele>
        <time>2018-10-04T02:45:52Z</time>
      </trkpt>
      <trkpt lat="43.51967" lon="16.60861">
        <ele>702.062</ele>
        <time>2018-10-04T02:46:12Z</time>
      </trkpt>
      <trkpt lat="43.51966" lon="16.60862">
        <ele>701.09</ele>
        <time>2018-10-04T02:46:32Z</time>
      </trkpt>
      <trkpt lat="43.51967" lon="16.60858">
        <ele>699.021</ele>
        <time>2018-10-04T02:46:52Z</time>
      </trkpt>
      <trkpt lat="43.51972" lon="16.6085">
        <ele>697.081</ele>
        <time>2018-10-04T02:47:12Z</time>
      </trkpt>
      <trkpt lat="43.51974" lon="16.60844">
        <ele>696.04</ele>
        <time>2018-10-04T02:47:32Z</time>
      </trkpt>
      <trkpt lat="43.51981" lon="16.6083">
        <ele>693.012</ele>
        <time>2018-10-04T02:47:52Z</time>
      </trkpt>
      <trkpt lat="43.51984" lon="16.60825">
        <ele>692.032</ele>
        <time>2018-10-04T02:48:12Z</time>
      </trkpt>
      <trkpt lat="43.51986" lon="16.60818">
        <ele>690.005</ele>
        <time>2018-10-04T02:48:32Z</time>
      </trkpt>
      <trkpt lat="43.51989" lon="16.6081">
        <ele>689.008</ele>
        <time>2018-10-04T02:48:52Z</time>
      </trkpt>
      <trkpt lat="43.51987" lon="16.60805">
        <ele>688.023</ele>
        <time>2018-10-04T02:49:12Z</time>
      </trkpt>
      <trkpt lat="43.51986" lon="16.60806">
        <ele>688.05</ele>
        <time>2018-10-04T02:49:32Z</time>
      </trkpt>
      <trkpt lat="43.51982" lon="16.6081">
        <ele>687.083</ele>
        <time>2018-10-04T02:49:52Z</time>
      </trkpt>
      <trkpt lat="43.5198" lon="16.60807">
        <ele>685.025</ele>
        <time>2018-10-04T02:50:12Z</time>
      </trkpt>
      <trkpt lat="43.5198" lon="16.60799">
        <ele>683.083</ele>
        <time>2018-10-04T02:50:32Z</time>
      </trkpt>
      <trkpt lat="43.51981" lon="16.60794">
        <ele>681.064</ele>
        <time>2018-10-04T02:50:52Z</time>
      </trkpt>
      <trkpt lat="43.51979" lon="16.60788">
        <ele>680.074</ele>
        <time>2018-10-04T02:51:12Z</time>
      </trkpt>
      <trkpt lat="43.5198" lon="16.60783">
        <ele>679.033</ele>
        <time>2018-10-04T02:51:32Z</time>
      </trkpt>
      <trkpt lat="43.5198" lon="16.60776">
        <ele>678.032</ele>
        <time>2018-10-04T02:51:52Z</time>
      </trkpt>
      <trkpt lat="43.51978" lon="16.60772">
        <ele>677.092</ele>
        <time>2018-10-04T02:52:12Z</time>
      </trkpt>
      <trkpt lat="43.51975" lon="16.60776">
        <ele>676.011</ele>
        <time>2018-10-04T02:52:32Z</time>
      </trkpt>
      <trkpt lat="43.5197" lon="16.60774">
        <ele>673.008</ele>
        <time>2018-10-04T02:52:52Z</time>
      </trkpt>
      <trkpt lat="43.51965" lon="16.60775">
        <ele>670.015</ele>
        <time>2018-10-04T02:53:12Z</time>
      </trkpt>
      <trkpt lat="43.51964" lon="16.6078">
        <ele>669.012</ele>
        <time>2018-10-04T02:53:32Z</time>
      </trkpt>
      <trkpt lat="43.51962" lon="16.60785">
        <ele>667.065</ele>
        <time>2018-10-04T02:53:52Z</time>
      </trkpt>
      <trkpt lat="43.51957" lon="16.60788">
        <ele>665.067</ele>
        <time>2018-10-04T02:54:12Z</time>
      </trkpt>
      <trkpt lat="43.51957" lon="16.60789">
        <ele>664.065</ele>
        <time>2018-10-04T02:54:32Z</time>
      </trkpt>
      <trkpt lat="43.51951" lon="16.60791">
        <ele>663.086</ele>
        <time>2018-10-04T02:54:52Z</time>
      </trkpt>
      <trkpt lat="43.51946" lon="16.60792">
        <ele>661.076</ele>
        <time>2018-10-04T02:55:12Z</time>
      </trkpt>
      <trkpt lat="43.51945" lon="16.60792">
        <ele>661.015</ele>
        <time>2018-10-04T02:55:32Z</time>
      </trkpt>
      <trkpt lat="43.51942" lon="16.60801">
        <ele>661.038</ele>
        <time>2018-10-04T02:55:52Z</time>
      </trkpt>
      <trkpt lat="43.5194" lon="16.60804">
        <ele>660.07</ele>
        <time>2018-10-04T02:56:12Z</time>
      </trkpt>
      <trkpt lat="43.51939" lon="16.608">
        <ele>658.017</ele>
        <time>2018-10-04T02:56:32Z</time>
      </trkpt>
      <trkpt lat="43.51944" lon="16.60787">
        <ele>656.008</ele>
        <time>2018-10-04T02:56:52Z</time>
      </trkpt>
      <trkpt lat="43.51945" lon="16.60775">
        <ele>654.035</ele>
        <time>2018-10-04T02:57:12Z</time>
      </trkpt>
      <trkpt lat="43.51943" lon="16.60775">
        <ele>651.092</ele>
        <time>2018-10-04T02:57:32Z</time>
      </trkpt>
      <trkpt lat="43.51939" lon="16.60777">
        <ele>650.035</ele>
        <time>2018-10-04T02:57:52Z</time>
      </trkpt>
      <trkpt lat="43.51936" lon="16.60773">
        <ele>649.027</ele>
        <time>2018-10-04T02:58:12Z</time>
      </trkpt>
      <trkpt lat="43.51934" lon="16.60761">
        <ele>646.085</ele>
        <time>2018-10-04T02:58:32Z</time>
      </trkpt>
      <trkpt lat="43.51931" lon="16.60753">
        <ele>644.096</ele>
        <time>2018-10-04T02:58:52Z</time>
      </trkpt>
      <trkpt lat="43.51931" lon="16.60751">
        <ele>644.096</ele>
        <time>2018-10-04T02:59:12Z</time>
      </trkpt>
      <trkpt lat="43.5193" lon="16.60749">
        <ele>643.055</ele>
        <time>2018-10-04T02:59:32Z</time>
      </trkpt>
      <trkpt lat="43.5193" lon="16.60749">
        <ele>642.065</ele>
        <time>2018-10-04T02:59:52Z</time>
      </trkpt>
      <trkpt lat="43.5193" lon="16.60749">
        <ele>642.068</ele>
        <time>2018-10-04T03:00:12Z</time>
      </trkpt>
      <trkpt lat="43.51929" lon="16.60755">
        <ele>641.014</ele>
        <time>2018-10-04T03:00:32Z</time>
      </trkpt>
      <trkpt lat="43.51926" lon="16.60765">
        <ele>639.008</ele>
        <time>2018-10-04T03:00:52Z</time>
      </trkpt>
      <trkpt lat="43.51923" lon="16.60771">
        <ele>637.078</ele>
        <time>2018-10-04T03:01:12Z</time>
      </trkpt>
      <trkpt lat="43.51923" lon="16.60773">
        <ele>636.025</ele>
        <time>2018-10-04T03:01:32Z</time>
      </trkpt>
      <trkpt lat="43.51921" lon="16.60775">
        <ele>636.028</ele>
        <time>2018-10-04T03:01:52Z</time>
      </trkpt>
      <trkpt lat="43.5192" lon="16.60776">
        <ele>635.07</ele>
        <time>2018-10-04T03:02:12Z</time>
      </trkpt>
      <trkpt lat="43.51916" lon="16.60782">
        <ele>635.028</ele>
        <time>2018-10-04T03:02:32Z</time>
      </trkpt>
      <trkpt lat="43.51913" lon="16.60777">
        <ele>633.019</ele>
        <time>2018-10-04T03:02:52Z</time>
      </trkpt>
      <trkpt lat="43.51913" lon="16.60771">
        <ele>632.099</ele>
        <time>2018-10-04T03:03:12Z</time>
      </trkpt>
      <trkpt lat="43.5191" lon="16.60772">
        <ele>631.038</ele>
        <time>2018-10-04T03:03:32Z</time>
      </trkpt>
      <trkpt lat="43.51907" lon="16.60777">
        <ele>628.017</ele>
        <time>2018-10-04T03:03:52Z</time>
      </trkpt>
      <trkpt lat="43.51905" lon="16.6078">
        <ele>627.087</ele>
        <time>2018-10-04T03:04:12Z</time>
      </trkpt>
      <trkpt lat="43.51902" lon="16.6078">
        <ele>625.015</ele>
        <time>2018-10-04T03:04:32Z</time>
      </trkpt>
      <trkpt lat="43.51899" lon="16.6078">
        <ele>624.008</ele>
        <time>2018-10-04T03:04:52Z</time>
      </trkpt>
      <trkpt lat="43.51898" lon="16.60779">
        <ele>624.023</ele>
        <time>2018-10-04T03:05:12Z</time>
      </trkpt>
      <trkpt lat="43.51894" lon="16.60771">
        <ele>622.05</ele>
        <time>2018-10-04T03:05:32Z</time>
      </trkpt>
      <trkpt lat="43.51894" lon="16.60764">
        <ele>620.083</ele>
        <time>2018-10-04T03:05:52Z</time>
      </trkpt>
      <trkpt lat="43.51893" lon="16.6076">
        <ele>619.055</ele>
        <time>2018-10-04T03:06:12Z</time>
      </trkpt>
      <trkpt lat="43.51888" lon="16.60754">
        <ele>618.083</ele>
        <time>2018-10-04T03:06:32Z</time>
      </trkpt>
      <trkpt lat="43.51885" lon="16.60753">
        <ele>616.034</ele>
        <time>2018-10-04T03:06:52Z</time>
      </trkpt>
      <trkpt lat="43.51883" lon="16.60754">
        <ele>615.034</ele>
        <time>2018-10-04T03:07:12Z</time>
      </trkpt>
      <trkpt lat="43.51882" lon="16.60756">
        <ele>614.073</ele>
        <time>2018-10-04T03:07:32Z</time>
      </trkpt>
      <trkpt lat="43.51881" lon="16.60754">
        <ele>613.087</ele>
        <time>2018-10-04T03:07:52Z</time>
      </trkpt>
      <trkpt lat="43.51877" lon="16.6075">
        <ele>611.042</ele>
        <time>2018-10-04T03:08:12Z</time>
      </trkpt>
      <trkpt lat="43.51871" lon="16.60748">
        <ele>609.026</ele>
        <time>2018-10-04T03:08:32Z</time>
      </trkpt>
      <trkpt lat="43.51865" lon="16.60746">
        <ele>606.008</ele>
        <time>2018-10-04T03:08:52Z</time>
      </trkpt>
      <trkpt lat="43.5186" lon="16.60742">
        <ele>604.04</ele>
        <time>2018-10-04T03:09:12Z</time>
      </trkpt>
      <trkpt lat="43.51858" lon="16.6074">
        <ele>603.067</ele>
        <time>2018-10-04T03:09:32Z</time>
      </trkpt>
      <trkpt lat="43.51857" lon="16.6074">
        <ele>603.09</ele>
        <time>2018-10-04T03:09:52Z</time>
      </trkpt>
      <trkpt lat="43.51852" lon="16.60747">
        <ele>601.092</ele>
        <time>2018-10-04T03:10:12Z</time>
      </trkpt>
      <trkpt lat="43.51851" lon="16.60749">
        <ele>600.06</ele>
        <time>2018-10-04T03:10:32Z</time>
      </trkpt>
      <trkpt lat="43.51847" lon="16.60752">
        <ele>599.041</ele>
        <time>2018-10-04T03:10:52Z</time>
      </trkpt>
      <trkpt lat="43.51844" lon="16.60759">
        <ele>598.091</ele>
        <time>2018-10-04T03:11:12Z</time>
      </trkpt>
      <trkpt lat="43.51842" lon="16.60771">
        <ele>597.02</ele>
        <time>2018-10-04T03:11:32Z</time>
      </trkpt>
      <trkpt lat="43.51839" lon="16.6078">
        <ele>597.021</ele>
        <time>2018-10-04T03:11:52Z</time>
      </trkpt>
      <trkpt lat="43.51835" lon="16.6079">
        <ele>596.041</ele>
        <time>2018-10-04T03:12:12Z</time>
      </trkpt>
      <trkpt lat="43.51826" lon="16.60804">
        <ele>594.005</ele>
        <time>2018-10-04T03:12:32Z</time>
      </trkpt>
      <trkpt lat="43.51825" lon="16.60808">
        <ele>593.008</ele>
        <time>2018-10-04T03:12:52Z</time>
      </trkpt>
      <trkpt lat="43.51817" lon="16.60827">
        <ele>591.044</ele>
        <time>2018-10-04T03:13:12Z</time>
      </trkpt>
      <trkpt lat="43.5181" lon="16.60835">
        <ele>590.051</ele>
        <time>2018-10-04T03:13:32Z</time>
      </trkpt>
      <trkpt lat="43.51802" lon="16.60847">
        <ele>588.024</ele>
        <time>2018-10-04T03:13:52Z</time>
      </trkpt>
      <trkpt lat="43.51797" lon="16.60855">
        <ele>587.096</ele>
        <time>2018-10-04T03:14:12Z</time>
      </trkpt>
      <trkpt lat="43.51796" lon="16.60858">
        <ele>587.044</ele>
        <time>2018-10-04T03:14:32Z</time>
      </trkpt>
      <trkpt lat="43.51797" lon="16.60858">
        <ele>586.065</ele>
        <time>2018-10-04T03:14:52Z</time>
      </trkpt>
      <trkpt lat="43.51788" lon="16.60863">
        <ele>586.065</ele>
        <time>2018-10-04T03:15:12Z</time>
      </trkpt>
      <trkpt lat="43.5178" lon="16.60877">
        <ele>585.034</ele>
        <time>2018-10-04T03:15:32Z</time>
      </trkpt>
      <trkpt lat="43.51774" lon="16.60891">
        <ele>584.033</ele>
        <time>2018-10-04T03:15:52Z</time>
      </trkpt>
      <trkpt lat="43.51767" lon="16.60907">
        <ele>583.023</ele>
        <time>2018-10-04T03:16:12Z</time>
      </trkpt>
      <trkpt lat="43.51758" lon="16.60931">
        <ele>583.015</ele>
        <time>2018-10-04T03:16:32Z</time>
      </trkpt>
      <trkpt lat="43.51754" lon="16.60948">
        <ele>584.008</ele>
        <time>2018-10-04T03:16:52Z</time>
      </trkpt>
      <trkpt lat="43.5175" lon="16.60963">
        <ele>585.065</ele>
        <time>2018-10-04T03:17:12Z</time>
      </trkpt>
      <trkpt lat="43.51742" lon="16.60986">
        <ele>586.022</ele>
        <time>2018-10-04T03:17:32Z</time>
      </trkpt>
      <trkpt lat="43.51729" lon="16.61006">
        <ele>586.095</ele>
        <time>2018-10-04T03:17:52Z</time>
      </trkpt>
      <trkpt lat="43.51718" lon="16.61027">
        <ele>587.097</ele>
        <time>2018-10-04T03:18:12Z</time>
      </trkpt>
      <trkpt lat="43.51709" lon="16.61042">
        <ele>588.095</ele>
        <time>2018-10-04T03:18:32Z</time>
      </trkpt>
      <trkpt lat="43.51699" lon="16.6106">
        <ele>589.096</ele>
        <time>2018-10-04T03:18:52Z</time>
      </trkpt>
      <trkpt lat="43.51686" lon="16.61081">
        <ele>590.056</ele>
        <time>2018-10-04T03:19:12Z</time>
      </trkpt>
      <trkpt lat="43.5168" lon="16.61093">
        <ele>590.025</ele>
        <time>2018-10-04T03:19:32Z</time>
      </trkpt>
      <trkpt lat="43.51678" lon="16.61094">
        <ele>590.084</ele>
        <time>2018-10-04T03:19:52Z</time>
      </trkpt>
      <trkpt lat="43.51679" lon="16.61094">
        <ele>590.007</ele>
        <time>2018-10-04T03:20:12Z</time>
      </trkpt>
      <trkpt lat="43.51674" lon="16.61096">
        <ele>590.017</ele>
        <time>2018-10-04T03:20:32Z</time>
      </trkpt>
      <trkpt lat="43.5167" lon="16.61105">
        <ele>591.008</ele>
        <time>2018-10-04T03:20:52Z</time>
      </trkpt>
      <trkpt lat="43.51662" lon="16.61123">
        <ele>592.05</ele>
        <time>2018-10-04T03:21:12Z</time>
      </trkpt>
      <trkpt lat="43.51646" lon="16.61143">
        <ele>593.087</ele>
        <time>2018-10-04T03:21:32Z</time>
      </trkpt>
      <trkpt lat="43.51634" lon="16.61164">
        <ele>593.02</ele>
        <time>2018-10-04T03:21:52Z</time>
      </trkpt>
      <trkpt lat="43.51627" lon="16.61178">
        <ele>593.072</ele>
        <time>2018-10-04T03:22:12Z</time>
      </trkpt>
      <trkpt lat="43.51626" lon="16.61182">
        <ele>593.09</ele>
        <time>2018-10-04T03:22:32Z</time>
      </trkpt>
      <trkpt lat="43.51616" lon="16.61192">
        <ele>593.021</ele>
        <time>2018-10-04T03:22:52Z</time>
      </trkpt>
      <trkpt lat="43.51608" lon="16.61202">
        <ele>594.031</ele>
        <time>2018-10-04T03:23:12Z</time>
      </trkpt>
      <trkpt lat="43.51597" lon="16.6123">
        <ele>595.07</ele>
        <time>2018-10-04T03:23:32Z</time>
      </trkpt>
      <trkpt lat="43.51591" lon="16.61262">
        <ele>597.038</ele>
        <time>2018-10-04T03:23:52Z</time>
      </trkpt>
      <trkpt lat="43.51586" lon="16.61272">
        <ele>598.07</ele>
        <time>2018-10-04T03:24:12Z</time>
      </trkpt>
      <trkpt lat="43.51582" lon="16.61288">
        <ele>599.017</ele>
        <time>2018-10-04T03:24:32Z</time>
      </trkpt>
      <trkpt lat="43.51576" lon="16.61304">
        <ele>600.008</ele>
        <time>2018-10-04T03:24:52Z</time>
      </trkpt>
      <trkpt lat="43.51558" lon="16.61323">
        <ele>601.065</ele>
        <time>2018-10-04T03:25:12Z</time>
      </trkpt>
      <trkpt lat="43.51544" lon="16.61342">
        <ele>600.012</ele>
        <time>2018-10-04T03:25:32Z</time>
      </trkpt>
      <trkpt lat="43.51542" lon="16.61344">
        <ele>600.035</ele>
        <time>2018-10-04T03:25:52Z</time>
      </trkpt>
      <trkpt lat="43.51537" lon="16.61357">
        <ele>599.057</ele>
        <time>2018-10-04T03:26:12Z</time>
      </trkpt>
      <trkpt lat="43.51525" lon="16.6137">
        <ele>599.055</ele>
        <time>2018-10-04T03:26:32Z</time>
      </trkpt>
      <trkpt lat="43.51513" lon="16.61384">
        <ele>598.046</ele>
        <time>2018-10-04T03:26:52Z</time>
      </trkpt>
      <trkpt lat="43.51507" lon="16.6139">
        <ele>597.086</ele>
        <time>2018-10-04T03:27:12Z</time>
      </trkpt>
      <trkpt lat="43.51502" lon="16.61392">
        <ele>596.015</ele>
        <time>2018-10-04T03:27:32Z</time>
      </trkpt>
      <trkpt lat="43.51493" lon="16.61407">
        <ele>594.038</ele>
        <time>2018-10-04T03:27:52Z</time>
      </trkpt>
      <trkpt lat="43.51486" lon="16.61433">
        <ele>594.07</ele>
        <time>2018-10-04T03:28:12Z</time>
      </trkpt>
      <trkpt lat="43.51483" lon="16.61448">
        <ele>594.017</ele>
        <time>2018-10-04T03:28:32Z</time>
      </trkpt>
      <trkpt lat="43.51483" lon="16.61452">
        <ele>594.008</ele>
        <time>2018-10-04T03:28:52Z</time>
      </trkpt>
      <trkpt lat="43.5148" lon="16.61462">
        <ele>595.035</ele>
        <time>2018-10-04T03:29:12Z</time>
      </trkpt>
      <trkpt lat="43.51476" lon="16.61489">
        <ele>595.052</ele>
        <time>2018-10-04T03:29:32Z</time>
      </trkpt>
      <trkpt lat="43.51465" lon="16.61512">
        <ele>595.055</ele>
        <time>2018-10-04T03:29:52Z</time>
      </trkpt>
      <trkpt lat="43.51458" lon="16.61526">
        <ele>593.027</ele>
        <time>2018-10-04T03:30:12Z</time>
      </trkpt>
      <trkpt lat="43.51446" lon="16.61555">
        <ele>592.035</ele>
        <time>2018-10-04T03:30:32Z</time>
      </trkpt>
      <trkpt lat="43.51439" lon="16.6157">
        <ele>591.096</ele>
        <time>2018-10-04T03:30:52Z</time>
      </trkpt>
      <trkpt lat="43.51432" lon="16.61584">
        <ele>590.086</ele>
        <time>2018-10-04T03:31:12Z</time>
      </trkpt>
      <trkpt lat="43.51422" lon="16.61611">
        <ele>589.065</ele>
        <time>2018-10-04T03:31:32Z</time>
      </trkpt>
      <trkpt lat="43.51421" lon="16.61614">
        <ele>589.022</ele>
        <time>2018-10-04T03:31:52Z</time>
      </trkpt>
      <trkpt lat="43.51414" lon="16.61638">
        <ele>588.062</ele>
        <time>2018-10-04T03:32:12Z</time>
      </trkpt>
      <trkpt lat="43.51405" lon="16.61667">
        <ele>588.008</ele>
        <time>2018-10-04T03:32:32Z</time>
      </trkpt>
      <trkpt lat="43.51402" lon="16.61679">
        <ele>589.008</ele>
        <time>2018-10-04T03:32:52Z</time>
      </trkpt>
      <trkpt lat="43.51401" lon="16.61688">
        <ele>589.044</ele>
        <time>2018-10-04T03:33:12Z</time>
      </trkpt>
      <trkpt lat="43.51394" lon="16.61712">
        <ele>589.071</ele>
        <time>2018-10-04T03:33:32Z</time>
      </trkpt>
      <trkpt lat="43.51392" lon="16.61729">
        <ele>588.034</ele>
        <time>2018-10-04T03:33:52Z</time>
      </trkpt>
      <trkpt lat="43.5139" lon="16.61739">
        <ele>586.086</ele>
        <time>2018-10-04T03:34:12Z</time>
      </trkpt>
      <trkpt lat="43.51388" lon="16.61746">
        <ele>585.054</ele>
        <time>2018-10-04T03:34:32Z</time>
      </trkpt>
      <trkpt lat="43.51391" lon="16.61759">
        <ele>584.095</ele>
        <time>2018-10-04T03:34:52Z</time>
      </trkpt>
      <trkpt lat="43.51394" lon="16.61781">
        <ele>583.045</ele>
        <time>2018-10-04T03:35:12Z</time>
      </trkpt>
      <trkpt lat="43.51396" lon="16.61787">
        <ele>583.034</ele>
        <time>2018-10-04T03:35:32Z</time>
      </trkpt>
      <trkpt lat="43.51401" lon="16.61799">
        <ele>583.025</ele>
        <time>2018-10-04T03:35:52Z</time>
      </trkpt>
      <trkpt lat="43.51397" lon="16.61811">
        <ele>582.026</ele>
        <time>2018-10-04T03:36:12Z</time>
      </trkpt>
      <trkpt lat="43.5139" lon="16.61835">
        <ele>581.008</ele>
        <time>2018-10-04T03:36:32Z</time>
      </trkpt>
      <trkpt lat="43.51389" lon="16.61845">
        <ele>580.008</ele>
        <time>2018-10-04T03:36:52Z</time>
      </trkpt>
      <trkpt lat="43.5139" lon="16.61848">
        <ele>580.054</ele>
        <time>2018-10-04T03:37:12Z</time>
      </trkpt>
      <trkpt lat="43.5139" lon="16.61858">
        <ele>580.021</ele>
        <time>2018-10-04T03:37:32Z</time>
      </trkpt>
      <trkpt lat="43.5139" lon="16.6186">
        <ele>580.044</ele>
        <time>2018-10-04T03:37:52Z</time>
      </trkpt>
      <trkpt lat="43.51388" lon="16.61865">
        <ele>581.046</ele>
        <time>2018-10-04T03:38:12Z</time>
      </trkpt>
      <trkpt lat="43.51389" lon="16.61869">
        <ele>581.044</ele>
        <time>2018-10-04T03:38:32Z</time>
      </trkpt>
      <trkpt lat="43.51386" lon="16.61894">
        <ele>581.025</ele>
        <time>2018-10-04T03:38:52Z</time>
      </trkpt>
      <trkpt lat="43.51383" lon="16.619">
        <ele>581.075</ele>
        <time>2018-10-04T03:39:12Z</time>
      </trkpt>
      <trkpt lat="43.51383" lon="16.61921">
        <ele>583.024</ele>
        <time>2018-10-04T03:39:32Z</time>
      </trkpt>
      <trkpt lat="43.51383" lon="16.6193">
        <ele>584.083</ele>
        <time>2018-10-04T03:39:52Z</time>
      </trkpt>
      <trkpt lat="43.51382" lon="16.61931">
        <ele>584.025</ele>
        <time>2018-10-04T03:40:12Z</time>
      </trkpt>
      <trkpt lat="43.51372" lon="16.61954">
        <ele>584.017</ele>
        <time>2018-10-04T03:40:32Z</time>
      </trkpt>
      <trkpt lat="43.51367" lon="16.6196">
        <ele>583.008</ele>
        <time>2018-10-04T03:40:52Z</time>
      </trkpt>
      <trkpt lat="43.51366" lon="16.61962">
        <ele>582.09</ele>
        <time>2018-10-04T03:41:12Z</time>
      </trkpt>
      <trkpt lat="43.51364" lon="16.6198">
        <ele>582.087</ele>
        <time>2018-10-04T03:41:32Z</time>
      </trkpt>
      <trkpt lat="43.51356" lon="16.61996">
        <ele>581.04</ele>
        <time>2018-10-04T03:41:52Z</time>
      </trkpt>
      <trkpt lat="43.51352" lon="16.62004">
        <ele>581.092</ele>
        <time>2018-10-04T03:42:12Z</time>
      </trkpt>
      <trkpt lat="43.51357" lon="16.62013">
        <ele>582.08</ele>
        <time>2018-10-04T03:42:32Z</time>
      </trkpt>
      <trkpt lat="43.51358" lon="16.62014">
        <ele>583.061</ele>
        <time>2018-10-04T03:42:52Z</time>
      </trkpt>
      <trkpt lat="43.51359" lon="16.62014">
        <ele>583.041</ele>
        <time>2018-10-04T03:43:12Z</time>
      </trkpt>
      <trkpt lat="43.5136" lon="16.62018">
        <ele>584.05</ele>
        <time>2018-10-04T03:43:32Z</time>
      </trkpt>
      <trkpt lat="43.51361" lon="16.62031">
        <ele>586.073</ele>
        <time>2018-10-04T03:43:52Z</time>
      </trkpt>
      <trkpt lat="43.51362" lon="16.62034">
        <ele>587.085</ele>
        <time>2018-10-04T03:44:12Z</time>
      </trkpt>
      <trkpt lat="43.51363" lon="16.62035">
        <ele>587.013</ele>
        <time>2018-10-04T03:44:32Z</time>
      </trkpt>
      <trkpt lat="43.51367" lon="16.62041">
        <ele>588.008</ele>
        <time>2018-10-04T03:44:52Z</time>
      </trkpt>
      <trkpt lat="43.51369" lon="16.62046">
        <ele>589.059</ele>
        <time>2018-10-04T03:45:12Z</time>
      </trkpt>
      <trkpt lat="43.51371" lon="16.62048">
        <ele>589.076</ele>
        <time>2018-10-04T03:45:32Z</time>
      </trkpt>
      <trkpt lat="43.51372" lon="16.62055">
        <ele>592.049</ele>
        <time>2018-10-04T03:45:52Z</time>
      </trkpt>
      <trkpt lat="43.51375" lon="16.62066">
        <ele>594.061</ele>
        <time>2018-10-04T03:46:12Z</time>
      </trkpt>
      <trkpt lat="43.51375" lon="16.62072">
        <ele>595.039</ele>
        <time>2018-10-04T03:46:32Z</time>
      </trkpt>
      <trkpt lat="43.51372" lon="16.62079">
        <ele>597.02</ele>
        <time>2018-10-04T03:46:52Z</time>
      </trkpt>
      <trkpt lat="43.51371" lon="16.62083">
        <ele>598.08</ele>
        <time>2018-10-04T03:47:12Z</time>
      </trkpt>
      <trkpt lat="43.51368" lon="16.62092">
        <ele>600.059</ele>
        <time>2018-10-04T03:47:32Z</time>
      </trkpt>
      <trkpt lat="43.51366" lon="16.62099">
        <ele>600.058</ele>
        <time>2018-10-04T03:47:52Z</time>
      </trkpt>
      <trkpt lat="43.51365" lon="16.621">
        <ele>601.052</ele>
        <time>2018-10-04T03:48:12Z</time>
      </trkpt>
      <trkpt lat="43.51361" lon="16.62106">
        <ele>601.017</ele>
        <time>2018-10-04T03:48:32Z</time>
      </trkpt>
      <trkpt lat="43.51353" lon="16.6212">
        <ele>602.008</ele>
        <time>2018-10-04T03:48:52Z</time>
      </trkpt>
      <trkpt lat="43.51355" lon="16.62125">
        <ele>602.027</ele>
        <time>2018-10-04T03:49:12Z</time>
      </trkpt>
      <trkpt lat="43.51355" lon="16.62126">
        <ele>603.084</ele>
        <time>2018-10-04T03:49:32Z</time>
      </trkpt>
      <trkpt lat="43.51362" lon="16.62131">
        <ele>604.077</ele>
        <time>2018-10-04T03:49:52Z</time>
      </trkpt>
      <trkpt lat="43.51361" lon="16.62136">
        <ele>605.049</ele>
        <time>2018-10-04T03:50:12Z</time>
      </trkpt>
      <trkpt lat="43.51358" lon="16.62141">
        <ele>606.077</ele>
        <time>2018-10-04T03:50:32Z</time>
      </trkpt>
      <trkpt lat="43.51357" lon="16.62144">
        <ele>607.088</ele>
        <time>2018-10-04T03:50:52Z</time>
      </trkpt>
      <trkpt lat="43.51355" lon="16.62148">
        <ele>607.048</ele>
        <time>2018-10-04T03:51:12Z</time>
      </trkpt>
      <trkpt lat="43.51354" lon="16.62153">
        <ele>608.077</ele>
        <time>2018-10-04T03:51:32Z</time>
      </trkpt>
      <trkpt lat="43.51351" lon="16.6216">
        <ele>609.054</ele>
        <time>2018-10-04T03:51:52Z</time>
      </trkpt>
      <trkpt lat="43.5135" lon="16.62161">
        <ele>609.056</ele>
        <time>2018-10-04T03:52:12Z</time>
      </trkpt>
      <trkpt lat="43.51348" lon="16.62166">
        <ele>610.011</ele>
        <time>2018-10-04T03:52:32Z</time>
      </trkpt>
      <trkpt lat="43.51345" lon="16.62171">
        <ele>611.008</ele>
        <time>2018-10-04T03:52:52Z</time>
      </trkpt>
      <trkpt lat="43.5134" lon="16.62183">
        <ele>614.057</ele>
        <time>2018-10-04T03:53:12Z</time>
      </trkpt>
      <trkpt lat="43.51335" lon="16.62196">
        <ele>616.084</ele>
        <time>2018-10-04T03:53:32Z</time>
      </trkpt>
      <trkpt lat="43.51333" lon="16.62201">
        <ele>617.017</ele>
        <time>2018-10-04T03:53:52Z</time>
      </trkpt>
      <trkpt lat="43.51331" lon="16.62211">
        <ele>619.089</ele>
        <time>2018-10-04T03:54:12Z</time>
      </trkpt>
      <trkpt lat="43.5133" lon="16.62215">
        <ele>620.047</ele>
        <time>2018-10-04T03:54:32Z</time>
      </trkpt>
      <trkpt lat="43.51326" lon="16.62222">
        <ele>621.098</ele>
        <time>2018-10-04T03:54:52Z</time>
      </trkpt>
      <trkpt lat="43.5132" lon="16.62228">
        <ele>623.088</ele>
        <time>2018-10-04T03:55:12Z</time>
      </trkpt>
      <trkpt lat="43.51316" lon="16.62234">
        <ele>624.017</ele>
        <time>2018-10-04T03:55:32Z</time>
      </trkpt>
      <trkpt lat="43.51311" lon="16.62239">
        <ele>625.066</ele>
        <time>2018-10-04T03:55:52Z</time>
      </trkpt>
      <trkpt lat="43.51306" lon="16.62248">
        <ele>626.029</ele>
        <time>2018-10-04T03:56:12Z</time>
      </trkpt>
      <trkpt lat="43.513" lon="16.62257">
        <ele>627.021</ele>
        <time>2018-10-04T03:56:32Z</time>
      </trkpt>
      <trkpt lat="43.51297" lon="16.62262">
        <ele>628.008</ele>
        <time>2018-10-04T03:56:52Z</time>
      </trkpt>
      <trkpt lat="43.51293" lon="16.6227">
        <ele>629.048</ele>
        <time>2018-10-04T03:57:12Z</time>
      </trkpt>
      <trkpt lat="43.51288" lon="16.6228">
        <ele>630.075</ele>
        <time>2018-10-04T03:57:32Z</time>
      </trkpt>
      <trkpt lat="43.51284" lon="16.62287">
        <ele>631.098</ele>
        <time>2018-10-04T03:57:52Z</time>
      </trkpt>
      <trkpt lat="43.51279" lon="16.62297">
        <ele>632.02</ele>
        <time>2018-10-04T03:58:12Z</time>
      </trkpt>
      <trkpt lat="43.51279" lon="16.62299">
        <ele>632.078</ele>
        <time>2018-10-04T03:58:32Z</time>
      </trkpt>
      <trkpt lat="43.51272" lon="16.62316">
        <ele>633.019</ele>
        <time>2018-10-04T03:58:52Z</time>
      </trkpt>
      <trkpt lat="43.51265" lon="16.62329">
        <ele>635.089</ele>
        <time>2018-10-04T03:59:12Z</time>
      </trkpt>
      <trkpt lat="43.51263" lon="16.62335">
        <ele>635.048</ele>
        <time>2018-10-04T03:59:32Z</time>
      </trkpt>
      <trkpt lat="43.51262" lon="16.62338">
        <ele>636.014</ele>
        <time>2018-10-04T03:59:52Z</time>
      </trkpt>
      <trkpt lat="43.5126" lon="16.62343">
        <ele>637.054</ele>
        <time>2018-10-04T04:00:12Z</time>
      </trkpt>
      <trkpt lat="43.51254" lon="16.62351">
        <ele>637.009</ele>
        <time>2018-10-04T04:00:32Z</time>
      </trkpt>
      <trkpt lat="43.5125" lon="16.62356">
        <ele>637.008</ele>
        <time>2018-10-04T04:00:52Z</time>
      </trkpt>
      <trkpt lat="43.51248" lon="16.62359">
        <ele>636.073</ele>
        <time>2018-10-04T04:01:12Z</time>
      </trkpt>
      <trkpt lat="43.51244" lon="16.62361">
        <ele>636.01</ele>
        <time>2018-10-04T04:01:32Z</time>
      </trkpt>
      <trkpt lat="43.51243" lon="16.62364">
        <ele>636.013</ele>
        <time>2018-10-04T04:01:52Z</time>
      </trkpt>
      <trkpt lat="43.51243" lon="16.62362">
        <ele>636.045</ele>
        <time>2018-10-04T04:02:12Z</time>
      </trkpt>
      <trkpt lat="43.51238" lon="16.62366">
        <ele>636.073</ele>
        <time>2018-10-04T04:02:32Z</time>
      </trkpt>
      <trkpt lat="43.51228" lon="16.6238">
        <ele>636.064</ele>
        <time>2018-10-04T04:02:52Z</time>
      </trkpt>
      <trkpt lat="43.51226" lon="16.62384">
        <ele>637.014</ele>
        <time>2018-10-04T04:03:12Z</time>
      </trkpt>
      <trkpt lat="43.5122" lon="16.62395">
        <ele>638.043</ele>
        <time>2018-10-04T04:03:32Z</time>
      </trkpt>
      <trkpt lat="43.51216" lon="16.62406">
        <ele>640.092</ele>
        <time>2018-10-04T04:03:52Z</time>
      </trkpt>
      <trkpt lat="43.51212" lon="16.62415">
        <ele>641.073</ele>
        <time>2018-10-04T04:04:12Z</time>
      </trkpt>
      <trkpt lat="43.51206" lon="16.62427">
        <ele>642.02</ele>
        <time>2018-10-04T04:04:32Z</time>
      </trkpt>
      <trkpt lat="43.51204" lon="16.62433">
        <ele>642.008</ele>
        <time>2018-10-04T04:04:52Z</time>
      </trkpt>
      <trkpt lat="43.51192" lon="16.62458">
        <ele>644.011</ele>
        <time>2018-10-04T04:05:12Z</time>
      </trkpt>
      <trkpt lat="43.51187" lon="16.62469">
        <ele>645.088</ele>
        <time>2018-10-04T04:05:32Z</time>
      </trkpt>
      <trkpt lat="43.51181" lon="16.62479">
        <ele>646.081</ele>
        <time>2018-10-04T04:05:52Z</time>
      </trkpt>
      <trkpt lat="43.51178" lon="16.62489">
        <ele>647.023</ele>
        <time>2018-10-04T04:06:12Z</time>
      </trkpt>
      <trkpt lat="43.51176" lon="16.62499">
        <ele>647.071</ele>
        <time>2018-10-04T04:06:32Z</time>
      </trkpt>
      <trkpt lat="43.5117" lon="16.62517">
        <ele>647.092</ele>
        <time>2018-10-04T04:06:52Z</time>
      </trkpt>
      <trkpt lat="43.51166" lon="16.62526">
        <ele>646.082</ele>
        <time>2018-10-04T04:07:12Z</time>
      </trkpt>
      <trkpt lat="43.51163" lon="16.62532">
        <ele>646.061</ele>
        <time>2018-10-04T04:07:32Z</time>
      </trkpt>
      <trkpt lat="43.51162" lon="16.62533">
        <ele>646.059</ele>
        <time>2018-10-04T04:07:52Z</time>
      </trkpt>
      <trkpt lat="43.51159" lon="16.62538">
        <ele>645.003</ele>
        <time>2018-10-04T04:08:12Z</time>
      </trkpt>
      <trkpt lat="43.51155" lon="16.62542">
        <ele>644.023</ele>
        <time>2018-10-04T04:08:32Z</time>
      </trkpt>
      <trkpt lat="43.5115" lon="16.62547">
        <ele>642.008</ele>
        <time>2018-10-04T04:08:52Z</time>
      </trkpt>
      <trkpt lat="43.51148" lon="16.62549">
        <ele>642.097</ele>
        <time>2018-10-04T04:09:12Z</time>
      </trkpt>
      <trkpt lat="43.51146" lon="16.62551">
        <ele>641.054</ele>
        <time>2018-10-04T04:09:32Z</time>
      </trkpt>
      <trkpt lat="43.51142" lon="16.62552">
        <ele>640.077</ele>
        <time>2018-10-04T04:09:52Z</time>
      </trkpt>
      <trkpt lat="43.51141" lon="16.62553">
        <ele>640.069</ele>
        <time>2018-10-04T04:10:12Z</time>
      </trkpt>
      <trkpt lat="43.51138" lon="16.62555">
        <ele>638.067</ele>
        <time>2018-10-04T04:10:32Z</time>
      </trkpt>
      <trkpt lat="43.51136" lon="16.62557">
        <ele>638.098</ele>
        <time>2018-10-04T04:10:52Z</time>
      </trkpt>
      <trkpt lat="43.51134" lon="16.62559">
        <ele>637.018</ele>
        <time>2018-10-04T04:11:12Z</time>
      </trkpt>
      <trkpt lat="43.51132" lon="16.62562">
        <ele>636.077</ele>
        <time>2018-10-04T04:11:32Z</time>
      </trkpt>
      <trkpt lat="43.51131" lon="16.62563">
        <ele>636.083</ele>
        <time>2018-10-04T04:11:52Z</time>
      </trkpt>
      <trkpt lat="43.51127" lon="16.6257">
        <ele>635.025</ele>
        <time>2018-10-04T04:12:12Z</time>
      </trkpt>
      <trkpt lat="43.51121" lon="16.62579">
        <ele>634.017</ele>
        <time>2018-10-04T04:12:32Z</time>
      </trkpt>
      <trkpt lat="43.51118" lon="16.62586">
        <ele>634.008</ele>
        <time>2018-10-04T04:12:52Z</time>
      </trkpt>
      <trkpt lat="43.51115" lon="16.6259">
        <ele>632.06</ele>
        <time>2018-10-04T04:13:12Z</time>
      </trkpt>
      <trkpt lat="43.5111" lon="16.62602">
        <ele>631.047</ele>
        <time>2018-10-04T04:13:32Z</time>
      </trkpt>
      <trkpt lat="43.51107" lon="16.6261">
        <ele>630.08</ele>
        <time>2018-10-04T04:13:52Z</time>
      </trkpt>
      <trkpt lat="43.51105" lon="16.62612">
        <ele>630.082</ele>
        <time>2018-10-04T04:14:12Z</time>
      </trkpt>
      <trkpt lat="43.51105" lon="16.62614">
        <ele>629.09</ele>
        <time>2018-10-04T04:14:32Z</time>
      </trkpt>
      <trkpt lat="43.51103" lon="16.62615">
        <ele>629.021</ele>
        <time>2018-10-04T04:14:52Z</time>
      </trkpt>
      <trkpt lat="43.511" lon="16.62623">
        <ele>628.071</ele>
        <time>2018-10-04T04:15:12Z</time>
      </trkpt>
      <trkpt lat="43.51099" lon="16.62629">
        <ele>627.06</ele>
        <time>2018-10-04T04:15:32Z</time>
      </trkpt>
      <trkpt lat="43.51095" lon="16.62639">
        <ele>626.056</ele>
        <time>2018-10-04T04:15:52Z</time>
      </trkpt>
      <trkpt lat="43.51089" lon="16.62649">
        <ele>625.059</ele>
        <time>2018-10-04T04:16:12Z</time>
      </trkpt>
      <trkpt lat="43.51089" lon="16.62655">
        <ele>623.014</ele>
        <time>2018-10-04T04:16:32Z</time>
      </trkpt>
      <trkpt lat="43.51087" lon="16.62661">
        <ele>622.008</ele>
        <time>2018-10-04T04:16:52Z</time>
      </trkpt>
      <trkpt lat="43.51086" lon="16.62664">
        <ele>621.017</ele>
        <time>2018-10-04T04:17:12Z</time>
      </trkpt>
      <trkpt lat="43.51084" lon="16.62665">
        <ele>620.054</ele>
        <time>2018-10-04T04:17:32Z</time>
      </trkpt>
      <trkpt lat="43.51082" lon="16.62665">
        <ele>619.087</ele>
        <time>2018-10-04T04:17:52Z</time>
      </trkpt>
      <trkpt lat="43.51081" lon="16.62664">
        <ele>619.059</ele>
        <time>2018-10-04T04:18:12Z</time>
      </trkpt>
      <trkpt lat="43.51078" lon="16.62663">
        <ele>618.077</ele>
        <time>2018-10-04T04:18:32Z</time>
      </trkpt>
      <trkpt lat="43.51074" lon="16.62658">
        <ele>617.088</ele>
        <time>2018-10-04T04:18:52Z</time>
      </trkpt>
      <trkpt lat="43.5107" lon="16.62658">
        <ele>616.098</ele>
        <time>2018-10-04T04:19:12Z</time>
      </trkpt>
      <trkpt lat="43.51063" lon="16.62664">
        <ele>615.087</ele>
        <time>2018-10-04T04:19:32Z</time>
      </trkpt>
      <trkpt lat="43.51061" lon="16.62665">
        <ele>613.037</ele>
        <time>2018-10-04T04:19:52Z</time>
      </trkpt>
      <trkpt lat="43.5106" lon="16.62665">
        <ele>613.049</ele>
        <time>2018-10-04T04:20:12Z</time>
      </trkpt>
      <trkpt lat="43.51055" lon="16.62667">
        <ele>612.013</ele>
        <time>2018-10-04T04:20:32Z</time>
      </trkpt>
      <trkpt lat="43.51054" lon="16.62666">
        <ele>612.008</ele>
        <time>2018-10-04T04:20:52Z</time>
      </trkpt>
      <trkpt lat="43.51052" lon="16.62666">
        <ele>611.085</ele>
        <time>2018-10-04T04:21:12Z</time>
      </trkpt>
      <trkpt lat="43.51049" lon="16.62667">
        <ele>610.062</ele>
        <time>2018-10-04T04:21:32Z</time>
      </trkpt>
      <trkpt lat="43.51045" lon="16.62669">
        <ele>609.025</ele>
        <time>2018-10-04T04:21:52Z</time>
      </trkpt>
      <trkpt lat="43.51044" lon="16.62669">
        <ele>609.057</ele>
        <time>2018-10-04T04:22:12Z</time>
      </trkpt>
      <trkpt lat="43.51042" lon="16.6267">
        <ele>608.065</ele>
        <time>2018-10-04T04:22:32Z</time>
      </trkpt>
      <trkpt lat="43.51039" lon="16.62666">
        <ele>607.056</ele>
        <time>2018-10-04T04:22:52Z</time>
      </trkpt>
      <trkpt lat="43.51035" lon="16.62665">
        <ele>606.076</ele>
        <time>2018-10-04T04:23:12Z</time>
      </trkpt>
      <trkpt lat="43.51028" lon="16.62669">
        <ele>605.035</ele>
        <time>2018-10-04T04:23:32Z</time>
      </trkpt>
      <trkpt lat="43.51026" lon="16.6267">
        <ele>604.042</ele>
        <time>2018-10-04T04:23:52Z</time>
      </trkpt>
      <trkpt lat="43.51017" lon="16.62673">
        <ele>602.022</ele>
        <time>2018-10-04T04:24:12Z</time>
      </trkpt>
      <trkpt lat="43.51014" lon="16.62676">
        <ele>602.014</ele>
        <time>2018-10-04T04:24:32Z</time>
      </trkpt>
      <trkpt lat="43.51007" lon="16.62679">
        <ele>601.008</ele>
        <time>2018-10-04T04:24:52Z</time>
      </trkpt>
      <trkpt lat="43.51004" lon="16.62684">
        <ele>600.056</ele>
        <time>2018-10-04T04:25:12Z</time>
      </trkpt>
      <trkpt lat="43.51002" lon="16.62685">
        <ele>600.023</ele>
        <time>2018-10-04T04:25:32Z</time>
      </trkpt>
      <trkpt lat="43.51" lon="16.62684">
        <ele>600.016</ele>
        <time>2018-10-04T04:25:52Z</time>
      </trkpt>
      <trkpt lat="43.50997" lon="16.62688">
        <ele>599.018</ele>
        <time>2018-10-04T04:26:12Z</time>
      </trkpt>
      <trkpt lat="43.50995" lon="16.62694">
        <ele>599.096</ele>
        <time>2018-10-04T04:26:32Z</time>
      </trkpt>
      <trkpt lat="43.50995" lon="16.62695">
        <ele>599.077</ele>
        <time>2018-10-04T04:26:52Z</time>
      </trkpt>
      <trkpt lat="43.5099" lon="16.62702">
        <ele>599.087</ele>
        <time>2018-10-04T04:27:12Z</time>
      </trkpt>
      <trkpt lat="43.50977" lon="16.62718">
        <ele>597.076</ele>
        <time>2018-10-04T04:27:32Z</time>
      </trkpt>
      <trkpt lat="43.50971" lon="16.62722">
        <ele>597.076</ele>
        <time>2018-10-04T04:27:52Z</time>
      </trkpt>
      <trkpt lat="43.50965" lon="16.62731">
        <ele>596.09</ele>
        <time>2018-10-04T04:28:12Z</time>
      </trkpt>
      <trkpt lat="43.50955" lon="16.6275">
        <ele>595.019</ele>
        <time>2018-10-04T04:28:32Z</time>
      </trkpt>
      <trkpt lat="43.50952" lon="16.62758">
        <ele>595.008</ele>
        <time>2018-10-04T04:28:52Z</time>
      </trkpt>
      <trkpt lat="43.50948" lon="16.62765">
        <ele>595.049</ele>
        <time>2018-10-04T04:29:12Z</time>
      </trkpt>
      <trkpt lat="43.50946" lon="16.6277">
        <ele>594.086</ele>
        <time>2018-10-04T04:29:32Z</time>
      </trkpt>
      <trkpt lat="43.50929" lon="16.62784">
        <ele>593.039</ele>
        <time>2018-10-04T04:29:52Z</time>
      </trkpt>
      <trkpt lat="43.5092" lon="16.62795">
        <ele>593.031</ele>
        <time>2018-10-04T04:30:12Z</time>
      </trkpt>
      <trkpt lat="43.50917" lon="16.62801">
        <ele>593.059</ele>
        <time>2018-10-04T04:30:32Z</time>
      </trkpt>
      <trkpt lat="43.50915" lon="16.62806">
        <ele>593.04</ele>
        <time>2018-10-04T04:30:52Z</time>
      </trkpt>
      <trkpt lat="43.50907" lon="16.62813">
        <ele>592.08</ele>
        <time>2018-10-04T04:31:12Z</time>
      </trkpt>
      <trkpt lat="43.50902" lon="16.62817">
        <ele>592.029</ele>
        <time>2018-10-04T04:31:32Z</time>
      </trkpt>
      <trkpt lat="43.50884" lon="16.62839">
        <ele>590.044</ele>
        <time>2018-10-04T04:31:52Z</time>
      </trkpt>
      <trkpt lat="43.50871" lon="16.62851">
        <ele>589.005</ele>
        <time>2018-10-04T04:32:12Z</time>
      </trkpt>
      <trkpt lat="43.50858" lon="16.62864">
        <ele>588.015</ele>
        <time>2018-10-04T04:32:32Z</time>
      </trkpt>
      <trkpt lat="43.50839" lon="16.62884">
        <ele>587.008</ele>
        <time>2018-10-04T04:32:52Z</time>
      </trkpt>
      <trkpt lat="43.50825" lon="16.629">
        <ele>587.066</ele>
        <time>2018-10-04T04:33:12Z</time>
      </trkpt>
      <trkpt lat="43.50811" lon="16.62922">
        <ele>587.043</ele>
        <time>2018-10-04T04:33:32Z</time>
      </trkpt>
      <trkpt lat="43.50807" lon="16.62927">
        <ele>587.016</ele>
        <time>2018-10-04T04:33:52Z</time>
      </trkpt>
      <trkpt lat="43.508" lon="16.62937">
        <ele>586.088</ele>
        <time>2018-10-04T04:34:12Z</time>
      </trkpt>
      <trkpt lat="43.50789" lon="16.62951">
        <ele>583.016</ele>
        <time>2018-10-04T04:34:32Z</time>
      </trkpt>
      <trkpt lat="43.50788" lon="16.62952">
        <ele>583.097</ele>
        <time>2018-10-04T04:34:52Z</time>
      </trkpt>
      <trkpt lat="43.50783" lon="16.62955">
        <ele>582.017</ele>
        <time>2018-10-04T04:35:12Z</time>
      </trkpt>
      <trkpt lat="43.50779" lon="16.62955">
        <ele>581.086</ele>
        <time>2018-10-04T04:35:32Z</time>
      </trkpt>
      <trkpt lat="43.50771" lon="16.62959">
        <ele>580.016</ele>
        <time>2018-10-04T04:35:52Z</time>
      </trkpt>
      <trkpt lat="43.50765" lon="16.62961">
        <ele>579.076</ele>
        <time>2018-10-04T04:36:12Z</time>
      </trkpt>
      <trkpt lat="43.50763" lon="16.6296">
        <ele>578.013</ele>
        <time>2018-10-04T04:36:32Z</time>
      </trkpt>
      <trkpt lat="43.50754" lon="16.62969">
        <ele>576.008</ele>
        <time>2018-10-04T04:36:52Z</time>
      </trkpt>
      <trkpt lat="43.50748" lon="16.62976">
        <ele>575.023</ele>
        <time>2018-10-04T04:37:12Z</time>
      </trkpt>
      <trkpt lat="43.50746" lon="16.6298">
        <ele>574.06</ele>
        <time>2018-10-04T04:37:32Z</time>
      </trkpt>
      <trkpt lat="43.50744" lon="16.62988">
        <ele>572.023</ele>
        <time>2018-10-04T04:37:52Z</time>
      </trkpt>
      <trkpt lat="43.50736" lon="16.62998">
        <ele>570.065</ele>
        <time>2018-10-04T04:38:12Z</time>
      </trkpt>
      <trkpt lat="43.50731" lon="16.63012">
        <ele>568.013</ele>
        <time>2018-10-04T04:38:32Z</time>
      </trkpt>
      <trkpt lat="43.50728" lon="16.6302">
        <ele>567.044</ele>
        <time>2018-10-04T04:38:52Z</time>
      </trkpt>
      <trkpt lat="43.50727" lon="16.63023">
        <ele>566.014</ele>
        <time>2018-10-04T04:39:12Z</time>
      </trkpt>
      <trkpt lat="43.50723" lon="16.6303">
        <ele>565.023</ele>
        <time>2018-10-04T04:39:32Z</time>
      </trkpt>
      <trkpt lat="43.50719" lon="16.63036">
        <ele>564.065</ele>
        <time>2018-10-04T04:39:52Z</time>
      </trkpt>
      <trkpt lat="43.50712" lon="16.63042">
        <ele>563.068</ele>
        <time>2018-10-04T04:40:12Z</time>
      </trkpt>
      <trkpt lat="43.50703" lon="16.63052">
        <ele>560.014</ele>
        <time>2018-10-04T04:40:32Z</time>
      </trkpt>
      <trkpt lat="43.50698" lon="16.63063">
        <ele>558.008</ele>
        <time>2018-10-04T04:40:52Z</time>
      </trkpt>
      <trkpt lat="43.50694" lon="16.63068">
        <ele>557.058</ele>
        <time>2018-10-04T04:41:12Z</time>
      </trkpt>
      <trkpt lat="43.50693" lon="16.63068">
        <ele>556.075</ele>
        <time>2018-10-04T04:41:32Z</time>
      </trkpt>
      <trkpt lat="43.50689" lon="16.63071">
        <ele>555.058</ele>
        <time>2018-10-04T04:41:52Z</time>
      </trkpt>
      <trkpt lat="43.50686" lon="16.63075">
        <ele>554.04</ele>
        <time>2018-10-04T04:42:12Z</time>
      </trkpt>
      <trkpt lat="43.50683" lon="16.63081">
        <ele>553.048</ele>
        <time>2018-10-04T04:42:32Z</time>
      </trkpt>
      <trkpt lat="43.50678" lon="16.63082">
        <ele>551.049</ele>
        <time>2018-10-04T04:42:52Z</time>
      </trkpt>
      <trkpt lat="43.50675" lon="16.63082">
        <ele>551.049</ele>
        <time>2018-10-04T04:43:12Z</time>
      </trkpt>
      <trkpt lat="43.50673" lon="16.63081">
        <ele>550.078</ele>
        <time>2018-10-04T04:43:32Z</time>
      </trkpt>
      <trkpt lat="43.50668" lon="16.63076">
        <ele>549.027</ele>
        <time>2018-10-04T04:43:52Z</time>
      </trkpt>
      <trkpt lat="43.50665" lon="16.63074">
        <ele>548.068</ele>
        <time>2018-10-04T04:44:12Z</time>
      </trkpt>
      <trkpt lat="43.50659" lon="16.63072">
        <ele>547.014</ele>
        <time>2018-10-04T04:44:32Z</time>
      </trkpt>
      <trkpt lat="43.50657" lon="16.63074">
        <ele>547.008</ele>
        <time>2018-10-04T04:44:52Z</time>
      </trkpt>
      <trkpt lat="43.50654" lon="16.63077">
        <ele>545.014</ele>
        <time>2018-10-04T04:45:12Z</time>
      </trkpt>
      <trkpt lat="43.50651" lon="16.63079">
        <ele>545.021</ele>
        <time>2018-10-04T04:45:32Z</time>
      </trkpt>
      <trkpt lat="43.50647" lon="16.63084">
        <ele>544.044</ele>
        <time>2018-10-04T04:45:52Z</time>
      </trkpt>
      <trkpt lat="43.50645" lon="16.63091">
        <ele>543.026</ele>
        <time>2018-10-04T04:46:12Z</time>
      </trkpt>
      <trkpt lat="43.50644" lon="16.63097">
        <ele>542.024</ele>
        <time>2018-10-04T04:46:32Z</time>
      </trkpt>
      <trkpt lat="43.50644" lon="16.63099">
        <ele>542.035</ele>
        <time>2018-10-04T04:46:52Z</time>
      </trkpt>
      <trkpt lat="43.50646" lon="16.63102">
        <ele>541.075</ele>
        <time>2018-10-04T04:47:12Z</time>
      </trkpt>
      <trkpt lat="43.50645" lon="16.63107">
        <ele>540.074</ele>
        <time>2018-10-04T04:47:32Z</time>
      </trkpt>
      <trkpt lat="43.50644" lon="16.63109">
        <ele>540.017</ele>
        <time>2018-10-04T04:47:52Z</time>
      </trkpt>
      <trkpt lat="43.50638" lon="16.63115">
        <ele>539.087</ele>
        <time>2018-10-04T04:48:12Z</time>
      </trkpt>
      <trkpt lat="43.50634" lon="16.63113">
        <ele>539.015</ele>
        <time>2018-10-04T04:48:32Z</time>
      </trkpt>
      <trkpt lat="43.50632" lon="16.63109">
        <ele>538.008</ele>
        <time>2018-10-04T04:48:52Z</time>
      </trkpt>
      <trkpt lat="43.50629" lon="16.63107">
        <ele>538.023</ele>
        <time>2018-10-04T04:49:12Z</time>
      </trkpt>
      <trkpt lat="43.50627" lon="16.63107">
        <ele>538.01</ele>
        <time>2018-10-04T04:49:32Z</time>
      </trkpt>
      <trkpt lat="43.50624" lon="16.63108">
        <ele>536.093</ele>
        <time>2018-10-04T04:49:52Z</time>
      </trkpt>
      <trkpt lat="43.50623" lon="16.63109">
        <ele>536.025</ele>
        <time>2018-10-04T04:50:12Z</time>
      </trkpt>
      <trkpt lat="43.50622" lon="16.63109">
        <ele>536.073</ele>
        <time>2018-10-04T04:50:32Z</time>
      </trkpt>
      <trkpt lat="43.50619" lon="16.63115">
        <ele>535.034</ele>
        <time>2018-10-04T04:50:52Z</time>
      </trkpt>
      <trkpt lat="43.50614" lon="16.63121">
        <ele>534.094</ele>
        <time>2018-10-04T04:51:12Z</time>
      </trkpt>
      <trkpt lat="43.50604" lon="16.63139">
        <ele>532.013</ele>
        <time>2018-10-04T04:51:32Z</time>
      </trkpt>
      <trkpt lat="43.50601" lon="16.63145">
        <ele>531.092</ele>
        <time>2018-10-04T04:51:52Z</time>
      </trkpt>
      <trkpt lat="43.50594" lon="16.63154">
        <ele>530.073</ele>
        <time>2018-10-04T04:52:12Z</time>
      </trkpt>
      <trkpt lat="43.50587" lon="16.6317">
        <ele>528.02</ele>
        <time>2018-10-04T04:52:32Z</time>
      </trkpt>
      <trkpt lat="43.50578" lon="16.63183">
        <ele>527.008</ele>
        <time>2018-10-04T04:52:52Z</time>
      </trkpt>
      <trkpt lat="43.50567" lon="16.63194">
        <ele>525.061</ele>
        <time>2018-10-04T04:53:12Z</time>
      </trkpt>
      <trkpt lat="43.50561" lon="16.63198">
        <ele>523.048</ele>
        <time>2018-10-04T04:53:32Z</time>
      </trkpt>
      <trkpt lat="43.50559" lon="16.63199">
        <ele>523.021</ele>
        <time>2018-10-04T04:53:52Z</time>
      </trkpt>
      <trkpt lat="43.50558" lon="16.63199">
        <ele>522.053</ele>
        <time>2018-10-04T04:54:12Z</time>
      </trkpt>
      <trkpt lat="43.50556" lon="16.63199">
        <ele>521.041</ele>
        <time>2018-10-04T04:54:32Z</time>
      </trkpt>
      <trkpt lat="43.50555" lon="16.63198">
        <ele>521.092</ele>
        <time>2018-10-04T04:54:52Z</time>
      </trkpt>
      <trkpt lat="43.50549" lon="16.63197">
        <ele>521.082</ele>
        <time>2018-10-04T04:55:12Z</time>
      </trkpt>
      <trkpt lat="43.50544" lon="16.632">
        <ele>520.021</ele>
        <time>2018-10-04T04:55:32Z</time>
      </trkpt>
      <trkpt lat="43.50534" lon="16.6321">
        <ele>519.067</ele>
        <time>2018-10-04T04:55:52Z</time>
      </trkpt>
      <trkpt lat="43.50528" lon="16.63219">
        <ele>517.081</ele>
        <time>2018-10-04T04:56:12Z</time>
      </trkpt>
      <trkpt lat="43.50519" lon="16.63234">
        <ele>516.019</ele>
        <time>2018-10-04T04:56:32Z</time>
      </trkpt>
      <trkpt lat="43.50517" lon="16.63252">
        <ele>517.008</ele>
        <time>2018-10-04T04:56:52Z</time>
      </trkpt>
      <trkpt lat="43.50519" lon="16.6326">
        <ele>518.048</ele>
        <time>2018-10-04T04:57:12Z</time>
      </trkpt>
      <trkpt lat="43.50523" lon="16.63266">
        <ele>519.045</ele>
        <time>2018-10-04T04:57:32Z</time>
      </trkpt>
      <trkpt lat="43.5052" lon="16.63285">
        <ele>521.068</ele>
        <time>2018-10-04T04:57:52Z</time>
      </trkpt>
      <trkpt lat="43.5052" lon="16.63296">
        <ele>522.04</ele>
        <time>2018-10-04T04:58:12Z</time>
      </trkpt>
      <trkpt lat="43.50516" lon="16.63309">
        <ele>523.058</ele>
        <time>2018-10-04T04:58:32Z</time>
      </trkpt>
      <trkpt lat="43.50513" lon="16.63318">
        <ele>523.039</ele>
        <time>2018-10-04T04:58:52Z</time>
      </trkpt>
      <trkpt lat="43.50507" lon="16.63335">
        <ele>522.079</ele>
        <time>2018-10-04T04:59:12Z</time>
      </trkpt>
      <trkpt lat="43.50504" lon="16.63339">
        <ele>521.028</ele>
        <time>2018-10-04T04:59:32Z</time>
      </trkpt>
      <trkpt lat="43.50501" lon="16.63344">
        <ele>521.057</ele>
        <time>2018-10-04T04:59:52Z</time>
      </trkpt>
      <trkpt lat="43.50499" lon="16.63344">
        <ele>520</ele>
        <time>2018-10-04T05:00:12Z</time>
      </trkpt>
      <trkpt lat="43.50492" lon="16.63349">
        <ele>519.02</ele>
        <time>2018-10-04T05:00:32Z</time>
      </trkpt>
      <trkpt lat="43.50484" lon="16.6336">
        <ele>518.008</ele>
        <time>2018-10-04T05:00:52Z</time>
      </trkpt>
      <trkpt lat="43.50474" lon="16.63381">
        <ele>517.077</ele>
        <time>2018-10-04T05:01:12Z</time>
      </trkpt>
      <trkpt lat="43.50464" lon="16.63406">
        <ele>518.044</ele>
        <time>2018-10-04T05:01:32Z</time>
      </trkpt>
      <trkpt lat="43.50461" lon="16.63417">
        <ele>517.017</ele>
        <time>2018-10-04T05:01:52Z</time>
      </trkpt>
      <trkpt lat="43.50451" lon="16.6344">
        <ele>517.019</ele>
        <time>2018-10-04T05:02:12Z</time>
      </trkpt>
      <trkpt lat="43.50441" lon="16.63459">
        <ele>516.047</ele>
        <time>2018-10-04T05:02:32Z</time>
      </trkpt>
      <trkpt lat="43.50433" lon="16.6347">
        <ele>515.098</ele>
        <time>2018-10-04T05:02:52Z</time>
      </trkpt>
      <trkpt lat="43.50427" lon="16.63482">
        <ele>514.048</ele>
        <time>2018-10-04T05:03:12Z</time>
      </trkpt>
      <trkpt lat="43.5042" lon="16.63492">
        <ele>513.037</ele>
        <time>2018-10-04T05:03:32Z</time>
      </trkpt>
      <trkpt lat="43.50418" lon="16.63493">
        <ele>513.043</ele>
        <time>2018-10-04T05:03:52Z</time>
      </trkpt>
      <trkpt lat="43.50416" lon="16.63492">
        <ele>512.064</ele>
        <time>2018-10-04T05:04:12Z</time>
      </trkpt>
      <trkpt lat="43.5041" lon="16.63499">
        <ele>511.01</ele>
        <time>2018-10-04T05:04:32Z</time>
      </trkpt>
      <trkpt lat="43.50402" lon="16.63514">
        <ele>510.008</ele>
        <time>2018-10-04T05:04:52Z</time>
      </trkpt>
      <trkpt lat="43.50401" lon="16.63515">
        <ele>510.036</ele>
        <time>2018-10-04T05:05:12Z</time>
      </trkpt>
      <trkpt lat="43.50394" lon="16.6352">
        <ele>510.033</ele>
        <time>2018-10-04T05:05:32Z</time>
      </trkpt>
      <trkpt lat="43.50384" lon="16.63541">
        <ele>509.066</ele>
        <time>2018-10-04T05:05:52Z</time>
      </trkpt>
      <trkpt lat="43.50375" lon="16.63563">
        <ele>510.068</ele>
        <time>2018-10-04T05:06:12Z</time>
      </trkpt>
      <trkpt lat="43.50368" lon="16.63577">
        <ele>509.046</ele>
        <time>2018-10-04T05:06:32Z</time>
      </trkpt>
      <trkpt lat="43.50367" lon="16.6358">
        <ele>509.087</ele>
        <time>2018-10-04T05:06:52Z</time>
      </trkpt>
      <trkpt lat="43.50365" lon="16.63581">
        <ele>509.097</ele>
        <time>2018-10-04T05:07:12Z</time>
      </trkpt>
      <trkpt lat="43.50365" lon="16.63582">
        <ele>509.046</ele>
        <time>2018-10-04T05:07:32Z</time>
      </trkpt>
      <trkpt lat="43.50359" lon="16.63579">
        <ele>508.016</ele>
        <time>2018-10-04T05:07:52Z</time>
      </trkpt>
      <trkpt lat="43.50357" lon="16.63578">
        <ele>508.076</ele>
        <time>2018-10-04T05:08:12Z</time>
      </trkpt>
      <trkpt lat="43.50353" lon="16.63573">
        <ele>507.013</ele>
        <time>2018-10-04T05:08:32Z</time>
      </trkpt>
      <trkpt lat="43.50349" lon="16.63571">
        <ele>506.008</ele>
        <time>2018-10-04T05:08:52Z</time>
      </trkpt>
      <trkpt lat="43.50348" lon="16.63572">
        <ele>505.083</ele>
        <time>2018-10-04T05:09:12Z</time>
      </trkpt>
      <trkpt lat="43.50338" lon="16.63583">
        <ele>504.07</ele>
        <time>2018-10-04T05:09:32Z</time>
      </trkpt>
      <trkpt lat="43.50323" lon="16.63598">
        <ele>504.013</ele>
        <time>2018-10-04T05:09:52Z</time>
      </trkpt>
      <trkpt lat="43.50317" lon="16.63601">
        <ele>504.025</ele>
        <time>2018-10-04T05:10:12Z</time>
      </trkpt>
      <trkpt lat="43.50305" lon="16.63591">
        <ele>503.043</ele>
        <time>2018-10-04T05:10:32Z</time>
      </trkpt>
      <trkpt lat="43.50302" lon="16.63589">
        <ele>503.064</ele>
        <time>2018-10-04T05:10:52Z</time>
      </trkpt>
      <trkpt lat="43.50292" lon="16.63579">
        <ele>502.094</ele>
        <time>2018-10-04T05:11:12Z</time>
      </trkpt>
      <trkpt lat="43.50281" lon="16.63568">
        <ele>501.043</ele>
        <time>2018-10-04T05:11:32Z</time>
      </trkpt>
      <trkpt lat="43.50274" lon="16.63561">
        <ele>500.015</ele>
        <time>2018-10-04T05:11:52Z</time>
      </trkpt>
      <trkpt lat="43.50264" lon="16.63548">
        <ele>499.065</ele>
        <time>2018-10-04T05:12:12Z</time>
      </trkpt>
      <trkpt lat="43.50257" lon="16.63539">
        <ele>498.011</ele>
        <time>2018-10-04T05:12:32Z</time>
      </trkpt>
      <trkpt lat="43.50249" lon="16.63532">
        <ele>497.008</ele>
        <time>2018-10-04T05:12:52Z</time>
      </trkpt>
      <trkpt lat="43.50242" lon="16.63527">
        <ele>495.023</ele>
        <time>2018-10-04T05:13:12Z</time>
      </trkpt>
      <trkpt lat="43.50235" lon="16.63522">
        <ele>494.06</ele>
        <time>2018-10-04T05:13:32Z</time>
      </trkpt>
      <trkpt lat="43.50223" lon="16.63513">
        <ele>493.033</ele>
        <time>2018-10-04T05:13:52Z</time>
      </trkpt>
      <trkpt lat="43.50215" lon="16.63505">
        <ele>492.025</ele>
        <time>2018-10-04T05:14:12Z</time>
      </trkpt>
      <trkpt lat="43.50205" lon="16.63494">
        <ele>491.013</ele>
        <time>2018-10-04T05:14:32Z</time>
      </trkpt>
      <trkpt lat="43.50192" lon="16.63477">
        <ele>491.024</ele>
        <time>2018-10-04T05:14:52Z</time>
      </trkpt>
      <trkpt lat="43.50185" lon="16.63475">
        <ele>491.054</ele>
        <time>2018-10-04T05:15:12Z</time>
      </trkpt>
      <trkpt lat="43.50169" lon="16.63501">
        <ele>491.013</ele>
        <time>2018-10-04T05:15:32Z</time>
      </trkpt>
      <trkpt lat="43.50156" lon="16.63517">
        <ele>492.069</ele>
        <time>2018-10-04T05:15:52Z</time>
      </trkpt>
      <trkpt lat="43.50146" lon="16.63526">
        <ele>494.004</ele>
        <time>2018-10-04T05:16:12Z</time>
      </trkpt>
      <trkpt lat="43.50142" lon="16.63532">
        <ele>494.024</ele>
        <time>2018-10-04T05:16:32Z</time>
      </trkpt>
      <trkpt lat="43.50132" lon="16.63551">
        <ele>495.008</ele>
        <time>2018-10-04T05:16:52Z</time>
      </trkpt>
      <trkpt lat="43.50125" lon="16.63575">
        <ele>495.028</ele>
        <time>2018-10-04T05:17:12Z</time>
      </trkpt>
      <trkpt lat="43.50118" lon="16.63584">
        <ele>496.015</ele>
        <time>2018-10-04T05:17:32Z</time>
      </trkpt>
      <trkpt lat="43.50107" lon="16.63591">
        <ele>497.028</ele>
        <time>2018-10-04T05:17:52Z</time>
      </trkpt>
      <trkpt lat="43.50097" lon="16.6361">
        <ele>498.02</ele>
        <time>2018-10-04T05:18:12Z</time>
      </trkpt>
      <trkpt lat="43.50097" lon="16.63613">
        <ele>498.058</ele>
        <time>2018-10-04T05:18:32Z</time>
      </trkpt>
      <trkpt lat="43.50094" lon="16.63624">
        <ele>499.069</ele>
        <time>2018-10-04T05:18:52Z</time>
      </trkpt>
      <trkpt lat="43.50093" lon="16.63636">
        <ele>499.099</ele>
        <time>2018-10-04T05:19:12Z</time>
      </trkpt>
      <trkpt lat="43.5009" lon="16.63649">
        <ele>499.078</ele>
        <time>2018-10-04T05:19:32Z</time>
      </trkpt>
      <trkpt lat="43.50086" lon="16.63663">
        <ele>500.016</ele>
        <time>2018-10-04T05:19:52Z</time>
      </trkpt>
      <trkpt lat="43.50083" lon="16.63683">
        <ele>501.076</ele>
        <time>2018-10-04T05:20:12Z</time>
      </trkpt>
      <trkpt lat="43.50083" lon="16.63689">
        <ele>501.013</ele>
        <time>2018-10-04T05:20:32Z</time>
      </trkpt>
      <trkpt lat="43.50077" lon="16.63713">
        <ele>502.008</ele>
        <time>2018-10-04T05:20:52Z</time>
      </trkpt>
      <trkpt lat="43.5007" lon="16.63733">
        <ele>502.043</ele>
        <time>2018-10-04T05:21:12Z</time>
      </trkpt>
      <trkpt lat="43.50068" lon="16.63739">
        <ele>502.09</ele>
        <time>2018-10-04T05:21:32Z</time>
      </trkpt>
      <trkpt lat="43.50056" lon="16.63757">
        <ele>502.033</ele>
        <time>2018-10-04T05:21:52Z</time>
      </trkpt>
      <trkpt lat="43.5004" lon="16.63786">
        <ele>503.045</ele>
        <time>2018-10-04T05:22:12Z</time>
      </trkpt>
      <trkpt lat="43.50032" lon="16.63803">
        <ele>504.063</ele>
        <time>2018-10-04T05:22:32Z</time>
      </trkpt>
      <trkpt lat="43.50027" lon="16.63836">
        <ele>504.034</ele>
        <time>2018-10-04T05:22:52Z</time>
      </trkpt>
      <trkpt lat="43.50026" lon="16.63846">
        <ele>504.064</ele>
        <time>2018-10-04T05:23:12Z</time>
      </trkpt>
      <trkpt lat="43.50017" lon="16.63873">
        <ele>505.033</ele>
        <time>2018-10-04T05:23:32Z</time>
      </trkpt>
      <trkpt lat="43.50011" lon="16.63883">
        <ele>506.064</ele>
        <time>2018-10-04T05:23:52Z</time>
      </trkpt>
      <trkpt lat="43.50004" lon="16.639">
        <ele>507.006</ele>
        <time>2018-10-04T05:24:12Z</time>
      </trkpt>
      <trkpt lat="43.50003" lon="16.63901">
        <ele>507.016</ele>
        <time>2018-10-04T05:24:32Z</time>
      </trkpt>
      <trkpt lat="43.49999" lon="16.63913">
        <ele>508.008</ele>
        <time>2018-10-04T05:24:52Z</time>
      </trkpt>
      <trkpt lat="43.49994" lon="16.63927">
        <ele>509.048</ele>
        <time>2018-10-04T05:25:12Z</time>
      </trkpt>
      <trkpt lat="43.49988" lon="16.63937">
        <ele>511.015</ele>
        <time>2018-10-04T05:25:32Z</time>
      </trkpt>
      <trkpt lat="43.49984" lon="16.63942">
        <ele>511.068</ele>
        <time>2018-10-04T05:25:52Z</time>
      </trkpt>
      <trkpt lat="43.49981" lon="16.63945">
        <ele>512.04</ele>
        <time>2018-10-04T05:26:12Z</time>
      </trkpt>
      <trkpt lat="43.49977" lon="16.63948">
        <ele>513.028</ele>
        <time>2018-10-04T05:26:32Z</time>
      </trkpt>
      <trkpt lat="43.49974" lon="16.63954">
        <ele>513.069</ele>
        <time>2018-10-04T05:26:52Z</time>
      </trkpt>
      <trkpt lat="43.49971" lon="16.63958">
        <ele>514.039</ele>
        <time>2018-10-04T05:27:12Z</time>
      </trkpt>
      <trkpt lat="43.49969" lon="16.63964">
        <ele>514.028</ele>
        <time>2018-10-04T05:27:32Z</time>
      </trkpt>
      <trkpt lat="43.49965" lon="16.63971">
        <ele>515.088</ele>
        <time>2018-10-04T05:27:52Z</time>
      </trkpt>
      <trkpt lat="43.49962" lon="16.63975">
        <ele>515.024</ele>
        <time>2018-10-04T05:28:12Z</time>
      </trkpt>
      <trkpt lat="43.49953" lon="16.63991">
        <ele>516.026</ele>
        <time>2018-10-04T05:28:32Z</time>
      </trkpt>
      <trkpt lat="43.49948" lon="16.63998">
        <ele>516.008</ele>
        <time>2018-10-04T05:28:52Z</time>
      </trkpt>
      <trkpt lat="43.49941" lon="16.64005">
        <ele>518.08</ele>
        <time>2018-10-04T05:29:12Z</time>
      </trkpt>
      <trkpt lat="43.49937" lon="16.6401">
        <ele>519.047</ele>
        <time>2018-10-04T05:29:32Z</time>
      </trkpt>
      <trkpt lat="43.49936" lon="16.64012">
        <ele>520.02</ele>
        <time>2018-10-04T05:29:52Z</time>
      </trkpt>
      <trkpt lat="43.49934" lon="16.64014">
        <ele>520.082</ele>
        <time>2018-10-04T05:30:12Z</time>
      </trkpt>
      <trkpt lat="43.4993" lon="16.64019">
        <ele>521.04</ele>
        <time>2018-10-04T05:30:32Z</time>
      </trkpt>
      <trkpt lat="43.49923" lon="16.64024">
        <ele>523.021</ele>
        <time>2018-10-04T05:30:52Z</time>
      </trkpt>
      <trkpt lat="43.49919" lon="16.64031">
        <ele>524.041</ele>
        <time>2018-10-04T05:31:12Z</time>
      </trkpt>
      <trkpt lat="43.49916" lon="16.64036">
        <ele>525.08</ele>
        <time>2018-10-04T05:31:32Z</time>
      </trkpt>
      <trkpt lat="43.49912" lon="16.64039">
        <ele>525.047</ele>
        <time>2018-10-04T05:31:52Z</time>
      </trkpt>
      <trkpt lat="43.49904" lon="16.64045">
        <ele>526.029</ele>
        <time>2018-10-04T05:32:12Z</time>
      </trkpt>
      <trkpt lat="43.49897" lon="16.64053">
        <ele>526.021</ele>
        <time>2018-10-04T05:32:32Z</time>
      </trkpt>
      <trkpt lat="43.49893" lon="16.64059">
        <ele>527.008</ele>
        <time>2018-10-04T05:32:52Z</time>
      </trkpt>
      <trkpt lat="43.49891" lon="16.64063">
        <ele>527.066</ele>
        <time>2018-10-04T05:33:12Z</time>
      </trkpt>
      <trkpt lat="43.49877" lon="16.64083">
        <ele>528.023</ele>
        <time>2018-10-04T05:33:32Z</time>
      </trkpt>
      <trkpt lat="43.49873" lon="16.64086">
        <ele>528.086</ele>
        <time>2018-10-04T05:33:52Z</time>
      </trkpt>
      <trkpt lat="43.49871" lon="16.64089">
        <ele>529.058</ele>
        <time>2018-10-04T05:34:12Z</time>
      </trkpt>
      <trkpt lat="43.49872" lon="16.64092">
        <ele>530.056</ele>
        <time>2018-10-04T05:34:32Z</time>
      </trkpt>
      <trkpt lat="43.49871" lon="16.64096">
        <ele>530.027</ele>
        <time>2018-10-04T05:34:52Z</time>
      </trkpt>
      <trkpt lat="43.49861" lon="16.64123">
        <ele>531.047</ele>
        <time>2018-10-04T05:35:12Z</time>
      </trkpt>
      <trkpt lat="43.49855" lon="16.64132">
        <ele>532.056</ele>
        <time>2018-10-04T05:35:32Z</time>
      </trkpt>
      <trkpt lat="43.49851" lon="16.64141">
        <ele>534.051</ele>
        <time>2018-10-04T05:35:52Z</time>
      </trkpt>
      <trkpt lat="43.49849" lon="16.64146">
        <ele>534.001</ele>
        <time>2018-10-04T05:36:12Z</time>
      </trkpt>
      <trkpt lat="43.49845" lon="16.64158">
        <ele>536.011</ele>
        <time>2018-10-04T05:36:32Z</time>
      </trkpt>
      <trkpt lat="43.49844" lon="16.64161">
        <ele>536.008</ele>
        <time>2018-10-04T05:36:52Z</time>
      </trkpt>
      <trkpt lat="43.49839" lon="16.64175">
        <ele>537.087</ele>
        <time>2018-10-04T05:37:12Z</time>
      </trkpt>
      <trkpt lat="43.49837" lon="16.64184">
        <ele>538.044</ele>
        <time>2018-10-04T05:37:32Z</time>
      </trkpt>
      <trkpt lat="43.49835" lon="16.64192">
        <ele>539.067</ele>
        <time>2018-10-04T05:37:52Z</time>
      </trkpt>
      <trkpt lat="43.49833" lon="16.64194">
        <ele>540.039</ele>
        <time>2018-10-04T05:38:12Z</time>
      </trkpt>
      <trkpt lat="43.49833" lon="16.64196">
        <ele>540.097</ele>
        <time>2018-10-04T05:38:32Z</time>
      </trkpt>
      <trkpt lat="43.49832" lon="16.64198">
        <ele>541.058</ele>
        <time>2018-10-04T05:38:52Z</time>
      </trkpt>
      <trkpt lat="43.49831" lon="16.64202">
        <ele>542.048</ele>
        <time>2018-10-04T05:39:12Z</time>
      </trkpt>
      <trkpt lat="43.49828" lon="16.64213">
        <ele>545.077</ele>
        <time>2018-10-04T05:39:32Z</time>
      </trkpt>
      <trkpt lat="43.49827" lon="16.6422">
        <ele>545.021</ele>
        <time>2018-10-04T05:39:52Z</time>
      </trkpt>
      <trkpt lat="43.49826" lon="16.64224">
        <ele>546.041</ele>
        <time>2018-10-04T05:40:12Z</time>
      </trkpt>
      <trkpt lat="43.49825" lon="16.64229">
        <ele>548.005</ele>
        <time>2018-10-04T05:40:32Z</time>
      </trkpt>
      <trkpt lat="43.49825" lon="16.64227">
        <ele>548.008</ele>
        <time>2018-10-04T05:40:52Z</time>
      </trkpt>
      <trkpt lat="43.49825" lon="16.64228">
        <ele>548.094</ele>
        <time>2018-10-04T05:41:12Z</time>
      </trkpt>
      <trkpt lat="43.49819" lon="16.64236">
        <ele>549.021</ele>
        <time>2018-10-04T05:41:32Z</time>
      </trkpt>
      <trkpt lat="43.49816" lon="16.64242">
        <ele>549.074</ele>
        <time>2018-10-04T05:41:52Z</time>
      </trkpt>
      <trkpt lat="43.49807" lon="16.64264">
        <ele>548.016</ele>
        <time>2018-10-04T05:42:12Z</time>
      </trkpt>
      <trkpt lat="43.49803" lon="16.64274">
        <ele>547.054</ele>
        <time>2018-10-04T05:42:32Z</time>
      </trkpt>
      <trkpt lat="43.49792" lon="16.64286">
        <ele>546.075</ele>
        <time>2018-10-04T05:42:52Z</time>
      </trkpt>
      <trkpt lat="43.4978" lon="16.64308">
        <ele>545.085</ele>
        <time>2018-10-04T05:43:12Z</time>
      </trkpt>
      <trkpt lat="43.49779" lon="16.6431">
        <ele>545.094</ele>
        <time>2018-10-04T05:43:32Z</time>
      </trkpt>
      <trkpt lat="43.49773" lon="16.64325">
        <ele>544.055</ele>
        <time>2018-10-04T05:43:52Z</time>
      </trkpt>
      <trkpt lat="43.49766" lon="16.64339">
        <ele>543.007</ele>
        <time>2018-10-04T05:44:12Z</time>
      </trkpt>
      <trkpt lat="43.49752" lon="16.64358">
        <ele>542.017</ele>
        <time>2018-10-04T05:44:32Z</time>
      </trkpt>
      <trkpt lat="43.49742" lon="16.64369">
        <ele>541.008</ele>
        <time>2018-10-04T05:44:52Z</time>
      </trkpt>
      <trkpt lat="43.49732" lon="16.64381">
        <ele>540.027</ele>
        <time>2018-10-04T05:45:12Z</time>
      </trkpt>
      <trkpt lat="43.49723" lon="16.64392">
        <ele>538.054</ele>
        <time>2018-10-04T05:45:32Z</time>
      </trkpt>
      <trkpt lat="43.49719" lon="16.64398">
        <ele>537.027</ele>
        <time>2018-10-04T05:45:52Z</time>
      </trkpt>
      <trkpt lat="43.49708" lon="16.64408">
        <ele>536.089</ele>
        <time>2018-10-04T05:46:12Z</time>
      </trkpt>
      <trkpt lat="43.49706" lon="16.64416">
        <ele>536.057</ele>
        <time>2018-10-04T05:46:32Z</time>
      </trkpt>
      <trkpt lat="43.49705" lon="16.64425">
        <ele>536.068</ele>
        <time>2018-10-04T05:46:52Z</time>
      </trkpt>
      <trkpt lat="43.49706" lon="16.64429">
        <ele>535.048</ele>
        <time>2018-10-04T05:47:12Z</time>
      </trkpt>
      <trkpt lat="43.49708" lon="16.64437">
        <ele>534.017</ele>
        <time>2018-10-04T05:47:32Z</time>
      </trkpt>
      <trkpt lat="43.49707" lon="16.6444">
        <ele>533.092</ele>
        <time>2018-10-04T05:47:52Z</time>
      </trkpt>
      <trkpt lat="43.49707" lon="16.64442">
        <ele>533.073</ele>
        <time>2018-10-04T05:48:12Z</time>
      </trkpt>
      <trkpt lat="43.49707" lon="16.64457">
        <ele>532.02</ele>
        <time>2018-10-04T05:48:32Z</time>
      </trkpt>
      <trkpt lat="43.49704" lon="16.64464">
        <ele>531.008</ele>
        <time>2018-10-04T05:48:52Z</time>
      </trkpt>
      <trkpt lat="43.49702" lon="16.64467">
        <ele>530.061</ele>
        <time>2018-10-04T05:49:12Z</time>
      </trkpt>
      <trkpt lat="43.49696" lon="16.64486">
        <ele>528.018</ele>
        <time>2018-10-04T05:49:32Z</time>
      </trkpt>
      <trkpt lat="43.49693" lon="16.64493">
        <ele>527.011</ele>
        <time>2018-10-04T05:49:52Z</time>
      </trkpt>
      <trkpt lat="43.49692" lon="16.64495">
        <ele>527.043</ele>
        <time>2018-10-04T05:50:12Z</time>
      </trkpt>
      <trkpt lat="43.49692" lon="16.64496">
        <ele>526.081</ele>
        <time>2018-10-04T05:50:32Z</time>
      </trkpt>
      <trkpt lat="43.49692" lon="16.64496">
        <ele>526.062</ele>
        <time>2018-10-04T05:50:52Z</time>
      </trkpt>
      <trkpt lat="43.49692" lon="16.64504">
        <ele>525.072</ele>
        <time>2018-10-04T05:51:12Z</time>
      </trkpt>
      <trkpt lat="43.4969" lon="16.64509">
        <ele>525.061</ele>
        <time>2018-10-04T05:51:32Z</time>
      </trkpt>
      <trkpt lat="43.49674" lon="16.64535">
        <ele>524.028</ele>
        <time>2018-10-04T05:51:52Z</time>
      </trkpt>
      <trkpt lat="43.49661" lon="16.64556">
        <ele>523.089</ele>
        <time>2018-10-04T05:52:12Z</time>
      </trkpt>
      <trkpt lat="43.49653" lon="16.6457">
        <ele>522.017</ele>
        <time>2018-10-04T05:52:32Z</time>
      </trkpt>
      <trkpt lat="43.49637" lon="16.64598">
        <ele>521.008</ele>
        <time>2018-10-04T05:52:52Z</time>
      </trkpt>
      <trkpt lat="43.49628" lon="16.64616">
        <ele>520.094</ele>
        <time>2018-10-04T05:53:12Z</time>
      </trkpt>
      <trkpt lat="43.49618" lon="16.64641">
        <ele>519.011</ele>
        <time>2018-10-04T05:53:32Z</time>
      </trkpt>
      <trkpt lat="43.49613" lon="16.64652">
        <ele>518.054</ele>
        <time>2018-10-04T05:53:52Z</time>
      </trkpt>
      <trkpt lat="43.49607" lon="16.64677">
        <ele>517.036</ele>
        <time>2018-10-04T05:54:12Z</time>
      </trkpt>
      <trkpt lat="43.49604" lon="16.64693">
        <ele>515.094</ele>
        <time>2018-10-04T05:54:32Z</time>
      </trkpt>
      <trkpt lat="43.49607" lon="16.64702">
        <ele>513.015</ele>
        <time>2018-10-04T05:54:52Z</time>
      </trkpt>
      <trkpt lat="43.49611" lon="16.64708">
        <ele>511.045</ele>
        <time>2018-10-04T05:55:12Z</time>
      </trkpt>
      <trkpt lat="43.49611" lon="16.64725">
        <ele>509.074</ele>
        <time>2018-10-04T05:55:32Z</time>
      </trkpt>
      <trkpt lat="43.49608" lon="16.64734">
        <ele>508.041</ele>
        <time>2018-10-04T05:55:52Z</time>
      </trkpt>
      <trkpt lat="43.49597" lon="16.64759">
        <ele>507.081</ele>
        <time>2018-10-04T05:56:12Z</time>
      </trkpt>
      <trkpt lat="43.49587" lon="16.64772">
        <ele>506.009</ele>
        <time>2018-10-04T05:56:32Z</time>
      </trkpt>
      <trkpt lat="43.49578" lon="16.64789">
        <ele>505.008</ele>
        <time>2018-10-04T05:56:52Z</time>
      </trkpt>
      <trkpt lat="43.49572" lon="16.64796">
        <ele>504.046</ele>
        <time>2018-10-04T05:57:12Z</time>
      </trkpt>
      <trkpt lat="43.4956" lon="16.64811">
        <ele>504.043</ele>
        <time>2018-10-04T05:57:32Z</time>
      </trkpt>
      <trkpt lat="43.49556" lon="16.64824">
        <ele>504.076</ele>
        <time>2018-10-04T05:57:52Z</time>
      </trkpt>
      <trkpt lat="43.49549" lon="16.64834">
        <ele>503.018</ele>
        <time>2018-10-04T05:58:12Z</time>
      </trkpt>
      <trkpt lat="43.49537" lon="16.64844">
        <ele>503.016</ele>
        <time>2018-10-04T05:58:32Z</time>
      </trkpt>
      <trkpt lat="43.49527" lon="16.64861">
        <ele>503.037</ele>
        <time>2018-10-04T05:58:52Z</time>
      </trkpt>
      <trkpt lat="43.49512" lon="16.6488">
        <ele>502.077</ele>
        <time>2018-10-04T05:59:12Z</time>
      </trkpt>
      <trkpt lat="43.49507" lon="16.6489">
        <ele>501.016</ele>
        <time>2018-10-04T05:59:32Z</time>
      </trkpt>
      <trkpt lat="43.49492" lon="16.64913">
        <ele>500.089</ele>
        <time>2018-10-04T05:59:52Z</time>
      </trkpt>
      <trkpt lat="43.49478" lon="16.64931">
        <ele>499.006</ele>
        <time>2018-10-04T06:00:12Z</time>
      </trkpt>
      <trkpt lat="43.49473" lon="16.64939">
        <ele>498.026</ele>
        <time>2018-10-04T06:00:32Z</time>
      </trkpt>
      <trkpt lat="43.49464" lon="16.64953">
        <ele>497.008</ele>
        <time>2018-10-04T06:00:52Z</time>
      </trkpt>
      <trkpt lat="43.49445" lon="16.64971">
        <ele>496.06</ele>
        <time>2018-10-04T06:01:12Z</time>
      </trkpt>
      <trkpt lat="43.49438" lon="16.6498">
        <ele>494.027</ele>
        <time>2018-10-04T06:01:32Z</time>
      </trkpt>
      <trkpt lat="43.49434" lon="16.64984">
        <ele>493.04</ele>
        <time>2018-10-04T06:01:52Z</time>
      </trkpt>
      <trkpt lat="43.49424" lon="16.64989">
        <ele>492.092</ele>
        <time>2018-10-04T06:02:12Z</time>
      </trkpt>
      <trkpt lat="43.49414" lon="16.64997">
        <ele>491.05</ele>
        <time>2018-10-04T06:02:32Z</time>
      </trkpt>
      <trkpt lat="43.49405" lon="16.65008">
        <ele>490.091</ele>
        <time>2018-10-04T06:02:52Z</time>
      </trkpt>
      <trkpt lat="43.49394" lon="16.65015">
        <ele>489.081</ele>
        <time>2018-10-04T06:03:12Z</time>
      </trkpt>
      <trkpt lat="43.49378" lon="16.65029">
        <ele>488.06</ele>
        <time>2018-10-04T06:03:32Z</time>
      </trkpt>
      <trkpt lat="43.49366" lon="16.65041">
        <ele>487.083</ele>
        <time>2018-10-04T06:03:52Z</time>
      </trkpt>
      <trkpt lat="43.49353" lon="16.65051">
        <ele>486.025</ele>
        <time>2018-10-04T06:04:12Z</time>
      </trkpt>
      <trkpt lat="43.49344" lon="16.65061">
        <ele>485.017</ele>
        <time>2018-10-04T06:04:32Z</time>
      </trkpt>
      <trkpt lat="43.49336" lon="16.65072">
        <ele>483.008</ele>
        <time>2018-10-04T06:04:52Z</time>
      </trkpt>
      <trkpt lat="43.49329" lon="16.65081">
        <ele>483.06</ele>
        <time>2018-10-04T06:05:12Z</time>
      </trkpt>
      <trkpt lat="43.49328" lon="16.65083">
        <ele>482.037</ele>
        <time>2018-10-04T06:05:32Z</time>
      </trkpt>
      <trkpt lat="43.49328" lon="16.65083">
        <ele>482.08</ele>
        <time>2018-10-04T06:05:52Z</time>
      </trkpt>
      <trkpt lat="43.49326" lon="16.65084">
        <ele>481.062</ele>
        <time>2018-10-04T06:06:12Z</time>
      </trkpt>
      <trkpt lat="43.49324" lon="16.65087">
        <ele>482.05</ele>
        <time>2018-10-04T06:06:32Z</time>
      </trkpt>
      <trkpt lat="43.49321" lon="16.65084">
        <ele>482.011</ele>
        <time>2018-10-04T06:06:52Z</time>
      </trkpt>
      <trkpt lat="43.49319" lon="16.65083">
        <ele>482.041</ele>
        <time>2018-10-04T06:07:12Z</time>
      </trkpt>
      <trkpt lat="43.49316" lon="16.65084">
        <ele>482.03</ele>
        <time>2018-10-04T06:07:32Z</time>
      </trkpt>
      <trkpt lat="43.49302" lon="16.65101">
        <ele>481.083</ele>
        <time>2018-10-04T06:07:52Z</time>
      </trkpt>
      <trkpt lat="43.49295" lon="16.6511">
        <ele>480.025</ele>
        <time>2018-10-04T06:08:12Z</time>
      </trkpt>
      <trkpt lat="43.49281" lon="16.65119">
        <ele>479.017</ele>
        <time>2018-10-04T06:08:32Z</time>
      </trkpt>
      <trkpt lat="43.49277" lon="16.65118">
        <ele>479.008</ele>
        <time>2018-10-04T06:08:52Z</time>
      </trkpt>
      <trkpt lat="43.4927" lon="16.6512">
        <ele>480.04</ele>
        <time>2018-10-04T06:09:12Z</time>
      </trkpt>
      <trkpt lat="43.49258" lon="16.65121">
        <ele>480.067</ele>
        <time>2018-10-04T06:09:32Z</time>
      </trkpt>
      <trkpt lat="43.49253" lon="16.6512">
        <ele>480.04</ele>
        <time>2018-10-04T06:09:52Z</time>
      </trkpt>
      <trkpt lat="43.49244" lon="16.65123">
        <ele>480.062</ele>
        <time>2018-10-04T06:10:12Z</time>
      </trkpt>
      <trkpt lat="43.49239" lon="16.65127">
        <ele>480.01</ele>
        <time>2018-10-04T06:10:32Z</time>
      </trkpt>
      <trkpt lat="43.49229" lon="16.65136">
        <ele>479.041</ele>
        <time>2018-10-04T06:10:52Z</time>
      </trkpt>
      <trkpt lat="43.49225" lon="16.65144">
        <ele>478.081</ele>
        <time>2018-10-04T06:11:12Z</time>
      </trkpt>
      <trkpt lat="43.49212" lon="16.65166">
        <ele>477.05</ele>
        <time>2018-10-04T06:11:32Z</time>
      </trkpt>
      <trkpt lat="43.49209" lon="16.65172">
        <ele>476.085</ele>
        <time>2018-10-04T06:11:52Z</time>
      </trkpt>
      <trkpt lat="43.49207" lon="16.65177">
        <ele>476.089</ele>
        <time>2018-10-04T06:12:12Z</time>
      </trkpt>
      <trkpt lat="43.49198" lon="16.65189">
        <ele>475.017</ele>
        <time>2018-10-04T06:12:32Z</time>
      </trkpt>
      <trkpt lat="43.49182" lon="16.65212">
        <ele>475.008</ele>
        <time>2018-10-04T06:12:52Z</time>
      </trkpt>
      <trkpt lat="43.49179" lon="16.65219">
        <ele>475.02</ele>
        <time>2018-10-04T06:13:12Z</time>
      </trkpt>
      <trkpt lat="43.49167" lon="16.65231">
        <ele>475.047</ele>
        <time>2018-10-04T06:13:32Z</time>
      </trkpt>
      <trkpt lat="43.49159" lon="16.65244">
        <ele>475.04</ele>
        <time>2018-10-04T06:13:52Z</time>
      </trkpt>
      <trkpt lat="43.49143" lon="16.65261">
        <ele>476.022</ele>
        <time>2018-10-04T06:14:12Z</time>
      </trkpt>
      <trkpt lat="43.49139" lon="16.65269">
        <ele>475.08</ele>
        <time>2018-10-04T06:14:32Z</time>
      </trkpt>
      <trkpt lat="43.49134" lon="16.65278">
        <ele>473.021</ele>
        <time>2018-10-04T06:14:52Z</time>
      </trkpt>
      <trkpt lat="43.49127" lon="16.65291">
        <ele>471.021</ele>
        <time>2018-10-04T06:15:12Z</time>
      </trkpt>
      <trkpt lat="43.49126" lon="16.65295">
        <ele>471.01</ele>
        <time>2018-10-04T06:15:32Z</time>
      </trkpt>
      <trkpt lat="43.49121" lon="16.653">
        <ele>470.059</ele>
        <time>2018-10-04T06:15:52Z</time>
      </trkpt>
      <trkpt lat="43.49115" lon="16.65309">
        <ele>470.003</ele>
        <time>2018-10-04T06:16:12Z</time>
      </trkpt>
      <trkpt lat="43.49112" lon="16.65313">
        <ele>470.023</ele>
        <time>2018-10-04T06:16:32Z</time>
      </trkpt>
      <trkpt lat="43.4911" lon="16.65319">
        <ele>470.008</ele>
        <time>2018-10-04T06:16:52Z</time>
      </trkpt>
      <trkpt lat="43.49116" lon="16.65326">
        <ele>469.017</ele>
        <time>2018-10-04T06:17:12Z</time>
      </trkpt>
      <trkpt lat="43.4912" lon="16.6533">
        <ele>469.084</ele>
        <time>2018-10-04T06:17:32Z</time>
      </trkpt>
      <trkpt lat="43.49133" lon="16.65347">
        <ele>470.027</ele>
        <time>2018-10-04T06:17:52Z</time>
      </trkpt>
      <trkpt lat="43.49147" lon="16.6537">
        <ele>472.049</ele>
        <time>2018-10-04T06:18:12Z</time>
      </trkpt>
      <trkpt lat="43.49161" lon="16.65388">
        <ele>473.097</ele>
        <time>2018-10-04T06:18:32Z</time>
      </trkpt>
      <trkpt lat="43.49162" lon="16.65388">
        <ele>473.048</ele>
        <time>2018-10-04T06:18:52Z</time>
      </trkpt>
      <trkpt lat="43.49163" lon="16.65388">
        <ele>473.098</ele>
        <time>2018-10-04T06:19:12Z</time>
      </trkpt>
      <trkpt lat="43.49169" lon="16.65393">
        <ele>474.097</ele>
        <time>2018-10-04T06:19:32Z</time>
      </trkpt>
      <trkpt lat="43.49174" lon="16.65397">
        <ele>474.014</ele>
        <time>2018-10-04T06:19:52Z</time>
      </trkpt>
      <trkpt lat="43.49181" lon="16.65405">
        <ele>475.054</ele>
        <time>2018-10-04T06:20:12Z</time>
      </trkpt>
      <trkpt lat="43.49194" lon="16.65418">
        <ele>477.009</ele>
        <time>2018-10-04T06:20:32Z</time>
      </trkpt>
      <trkpt lat="43.49208" lon="16.65427">
        <ele>479.008</ele>
        <time>2018-10-04T06:20:52Z</time>
      </trkpt>
      <trkpt lat="43.49214" lon="16.65433">
        <ele>479.093</ele>
        <time>2018-10-04T06:21:12Z</time>
      </trkpt>
      <trkpt lat="43.49217" lon="16.65439">
        <ele>479.02</ele>
        <time>2018-10-04T06:21:32Z</time>
      </trkpt>
      <trkpt lat="43.49218" lon="16.65443">
        <ele>479.073</ele>
        <time>2018-10-04T06:21:52Z</time>
      </trkpt>
      <trkpt lat="43.49213" lon="16.65453">
        <ele>480.085</ele>
        <time>2018-10-04T06:22:12Z</time>
      </trkpt>
      <trkpt lat="43.49209" lon="16.65462">
        <ele>480.083</ele>
        <time>2018-10-04T06:22:32Z</time>
      </trkpt>
      <trkpt lat="43.49204" lon="16.65473">
        <ele>479.014</ele>
        <time>2018-10-04T06:22:52Z</time>
      </trkpt>
      <trkpt lat="43.49194" lon="16.65487">
        <ele>478.044</ele>
        <time>2018-10-04T06:23:12Z</time>
      </trkpt>
      <trkpt lat="43.49187" lon="16.65502">
        <ele>477.023</ele>
        <time>2018-10-04T06:23:32Z</time>
      </trkpt>
      <trkpt lat="43.49187" lon="16.65507">
        <ele>477.053</ele>
        <time>2018-10-04T06:23:52Z</time>
      </trkpt>
      <trkpt lat="43.49191" lon="16.65522">
        <ele>478.004</ele>
        <time>2018-10-04T06:24:12Z</time>
      </trkpt>
      <trkpt lat="43.49194" lon="16.65534">
        <ele>478.014</ele>
        <time>2018-10-04T06:24:32Z</time>
      </trkpt>
      <trkpt lat="43.49196" lon="16.65541">
        <ele>480.008</ele>
        <time>2018-10-04T06:24:52Z</time>
      </trkpt>
      <trkpt lat="43.49188" lon="16.65559">
        <ele>481.057</ele>
        <time>2018-10-04T06:25:12Z</time>
      </trkpt>
      <trkpt lat="43.49187" lon="16.65564">
        <ele>481.094</ele>
        <time>2018-10-04T06:25:32Z</time>
      </trkpt>
      <trkpt lat="43.49181" lon="16.65571">
        <ele>482.077</ele>
        <time>2018-10-04T06:25:52Z</time>
      </trkpt>
      <trkpt lat="43.4918" lon="16.65574">
        <ele>482.049</ele>
        <time>2018-10-04T06:26:12Z</time>
      </trkpt>
      <trkpt lat="43.49178" lon="16.65582">
        <ele>483.047</ele>
        <time>2018-10-04T06:26:32Z</time>
      </trkpt>
      <trkpt lat="43.49178" lon="16.65585">
        <ele>484.078</ele>
        <time>2018-10-04T06:26:52Z</time>
      </trkpt>
      <trkpt lat="43.49177" lon="16.65588">
        <ele>484.068</ele>
        <time>2018-10-04T06:27:12Z</time>
      </trkpt>
      <trkpt lat="43.49178" lon="16.65591">
        <ele>485.027</ele>
        <time>2018-10-04T06:27:32Z</time>
      </trkpt>
      <trkpt lat="43.49176" lon="16.65606">
        <ele>486.015</ele>
        <time>2018-10-04T06:27:52Z</time>
      </trkpt>
      <trkpt lat="43.49173" lon="16.65616">
        <ele>487.065</ele>
        <time>2018-10-04T06:28:12Z</time>
      </trkpt>
      <trkpt lat="43.49172" lon="16.65618">
        <ele>487.011</ele>
        <time>2018-10-04T06:28:32Z</time>
      </trkpt>
      <trkpt lat="43.49168" lon="16.65619">
        <ele>487.008</ele>
        <time>2018-10-04T06:28:52Z</time>
      </trkpt>
      <trkpt lat="43.49165" lon="16.65622">
        <ele>488.093</ele>
        <time>2018-10-04T06:29:12Z</time>
      </trkpt>
      <trkpt lat="43.4916" lon="16.65626">
        <ele>488.04</ele>
        <time>2018-10-04T06:29:32Z</time>
      </trkpt>
      <trkpt lat="43.49157" lon="16.65629">
        <ele>489.043</ele>
        <time>2018-10-04T06:29:52Z</time>
      </trkpt>
      <trkpt lat="43.49157" lon="16.6563">
        <ele>489.095</ele>
        <time>2018-10-04T06:30:12Z</time>
      </trkpt>
      <trkpt lat="43.49152" lon="16.65632">
        <ele>490.073</ele>
        <time>2018-10-04T06:30:32Z</time>
      </trkpt>
      <trkpt lat="43.49146" lon="16.65639">
        <ele>491.054</ele>
        <time>2018-10-04T06:30:52Z</time>
      </trkpt>
      <trkpt lat="43.49145" lon="16.6564">
        <ele>492.014</ele>
        <time>2018-10-04T06:31:12Z</time>
      </trkpt>
      <trkpt lat="43.49144" lon="16.65641">
        <ele>492.023</ele>
        <time>2018-10-04T06:31:32Z</time>
      </trkpt>
      <trkpt lat="43.49141" lon="16.65643">
        <ele>492.065</ele>
        <time>2018-10-04T06:31:52Z</time>
      </trkpt>
      <trkpt lat="43.4914" lon="16.65645">
        <ele>492.068</ele>
        <time>2018-10-04T06:32:12Z</time>
      </trkpt>
      <trkpt lat="43.49136" lon="16.65647">
        <ele>493.014</ele>
        <time>2018-10-04T06:32:32Z</time>
      </trkpt>
      <trkpt lat="43.49129" lon="16.65651">
        <ele>494.008</ele>
        <time>2018-10-04T06:32:52Z</time>
      </trkpt>
      <trkpt lat="43.49128" lon="16.65651">
        <ele>494.028</ele>
        <time>2018-10-04T06:33:12Z</time>
      </trkpt>
      <trkpt lat="43.49127" lon="16.65653">
        <ele>495.015</ele>
        <time>2018-10-04T06:33:32Z</time>
      </trkpt>
      <trkpt lat="43.49125" lon="16.65657">
        <ele>495.058</ele>
        <time>2018-10-04T06:33:52Z</time>
      </trkpt>
      <trkpt lat="43.49119" lon="16.65664">
        <ele>497.01</ele>
        <time>2018-10-04T06:34:12Z</time>
      </trkpt>
      <trkpt lat="43.49118" lon="16.65665">
        <ele>497.078</ele>
        <time>2018-10-04T06:34:32Z</time>
      </trkpt>
      <trkpt lat="43.49117" lon="16.65667">
        <ele>498.079</ele>
        <time>2018-10-04T06:34:52Z</time>
      </trkpt>
      <trkpt lat="43.49116" lon="16.6567">
        <ele>498.099</ele>
        <time>2018-10-04T06:35:12Z</time>
      </trkpt>
      <trkpt lat="43.49113" lon="16.65678">
        <ele>500.048</ele>
        <time>2018-10-04T06:35:32Z</time>
      </trkpt>
      <trkpt lat="43.49112" lon="16.65688">
        <ele>501.013</ele>
        <time>2018-10-04T06:35:52Z</time>
      </trkpt>
      <trkpt lat="43.49111" lon="16.65692">
        <ele>501.043</ele>
        <time>2018-10-04T06:36:12Z</time>
      </trkpt>
      <trkpt lat="43.49117" lon="16.65691">
        <ele>502.007</ele>
        <time>2018-10-04T06:36:32Z</time>
      </trkpt>
      <trkpt lat="43.49121" lon="16.65689">
        <ele>503.008</ele>
        <time>2018-10-04T06:36:52Z</time>
      </trkpt>
      <trkpt lat="43.4913" lon="16.65699">
        <ele>505.033</ele>
        <time>2018-10-04T06:37:12Z</time>
      </trkpt>
      <trkpt lat="43.49131" lon="16.65706">
        <ele>506.07</ele>
        <time>2018-10-04T06:37:32Z</time>
      </trkpt>
      <trkpt lat="43.49132" lon="16.6571">
        <ele>506.013</ele>
        <time>2018-10-04T06:37:52Z</time>
      </trkpt>
      <trkpt lat="43.49134" lon="16.65715">
        <ele>507.095</ele>
        <time>2018-10-04T06:38:12Z</time>
      </trkpt>
      <trkpt lat="43.49141" lon="16.65732">
        <ele>509.033</ele>
        <time>2018-10-04T06:38:32Z</time>
      </trkpt>
      <trkpt lat="43.49144" lon="16.65737">
        <ele>509.034</ele>
        <time>2018-10-04T06:38:52Z</time>
      </trkpt>
      <trkpt lat="43.49147" lon="16.65744">
        <ele>510.074</ele>
        <time>2018-10-04T06:39:12Z</time>
      </trkpt>
      <trkpt lat="43.4915" lon="16.65753">
        <ele>511.013</ele>
        <time>2018-10-04T06:39:32Z</time>
      </trkpt>
      <trkpt lat="43.49152" lon="16.65755">
        <ele>511.046</ele>
        <time>2018-10-04T06:39:52Z</time>
      </trkpt>
      <trkpt lat="43.49152" lon="16.65763">
        <ele>512.088</ele>
        <time>2018-10-04T06:40:12Z</time>
      </trkpt>
      <trkpt lat="43.49151" lon="16.65766">
        <ele>512.016</ele>
        <time>2018-10-04T06:40:32Z</time>
      </trkpt>
      <trkpt lat="43.49151" lon="16.65773">
        <ele>513.008</ele>
        <time>2018-10-04T06:40:52Z</time>
      </trkpt>
      <trkpt lat="43.49152" lon="16.65775">
        <ele>513.026</ele>
        <time>2018-10-04T06:41:12Z</time>
      </trkpt>
      <trkpt lat="43.49154" lon="16.65783">
        <ele>515.013</ele>
        <time>2018-10-04T06:41:32Z</time>
      </trkpt>
      <trkpt lat="43.49155" lon="16.65784">
        <ele>515.096</ele>
        <time>2018-10-04T06:41:52Z</time>
      </trkpt>
      <trkpt lat="43.49153" lon="16.65794">
        <ele>516.048</ele>
        <time>2018-10-04T06:42:12Z</time>
      </trkpt>
      <trkpt lat="43.49154" lon="16.658">
        <ele>517.036</ele>
        <time>2018-10-04T06:42:32Z</time>
      </trkpt>
      <trkpt lat="43.49155" lon="16.65808">
        <ele>518.077</ele>
        <time>2018-10-04T06:42:52Z</time>
      </trkpt>
      <trkpt lat="43.49155" lon="16.65817">
        <ele>519.077</ele>
        <time>2018-10-04T06:43:12Z</time>
      </trkpt>
      <trkpt lat="43.49159" lon="16.65822">
        <ele>520.056</ele>
        <time>2018-10-04T06:43:32Z</time>
      </trkpt>
      <trkpt lat="43.49161" lon="16.6582">
        <ele>519.085</ele>
        <time>2018-10-04T06:43:52Z</time>
      </trkpt>
      <trkpt lat="43.49161" lon="16.65821">
        <ele>520.089</ele>
        <time>2018-10-04T06:44:12Z</time>
      </trkpt>
      <trkpt lat="43.4916" lon="16.65821">
        <ele>521.017</ele>
        <time>2018-10-04T06:44:32Z</time>
      </trkpt>
      <trkpt lat="43.49157" lon="16.65839">
        <ele>522.008</ele>
        <time>2018-10-04T06:44:52Z</time>
      </trkpt>
      <trkpt lat="43.49157" lon="16.65851">
        <ele>523.04</ele>
        <time>2018-10-04T06:45:12Z</time>
      </trkpt>
      <trkpt lat="43.49156" lon="16.65863">
        <ele>524.037</ele>
        <time>2018-10-04T06:45:32Z</time>
      </trkpt>
      <trkpt lat="43.49157" lon="16.65864">
        <ele>524.03</ele>
        <time>2018-10-04T06:45:52Z</time>
      </trkpt>
      <trkpt lat="43.49155" lon="16.65871">
        <ele>525.092</ele>
        <time>2018-10-04T06:46:12Z</time>
      </trkpt>
      <trkpt lat="43.49154" lon="16.65876">
        <ele>526.01</ele>
        <time>2018-10-04T06:46:32Z</time>
      </trkpt>
      <trkpt lat="43.49155" lon="16.65886">
        <ele>527.011</ele>
        <time>2018-10-04T06:46:52Z</time>
      </trkpt>
      <trkpt lat="43.49156" lon="16.65898">
        <ele>528.091</ele>
        <time>2018-10-04T06:47:12Z</time>
      </trkpt>
      <trkpt lat="43.49157" lon="16.65907">
        <ele>529.06</ele>
        <time>2018-10-04T06:47:32Z</time>
      </trkpt>
      <trkpt lat="43.49163" lon="16.6592">
        <ele>530.039</ele>
        <time>2018-10-04T06:47:52Z</time>
      </trkpt>
      <trkpt lat="43.49165" lon="16.65924">
        <ele>531.001</ele>
        <time>2018-10-04T06:48:12Z</time>
      </trkpt>
      <trkpt lat="43.49166" lon="16.65929">
        <ele>531.021</ele>
        <time>2018-10-04T06:48:32Z</time>
      </trkpt>
      <trkpt lat="43.49166" lon="16.65931">
        <ele>532.008</ele>
        <time>2018-10-04T06:48:52Z</time>
      </trkpt>
      <trkpt lat="43.49169" lon="16.65943">
        <ele>533.085</ele>
        <time>2018-10-04T06:49:12Z</time>
      </trkpt>
      <trkpt lat="43.49172" lon="16.65955">
        <ele>534.082</ele>
        <time>2018-10-04T06:49:32Z</time>
      </trkpt>
      <trkpt lat="43.49177" lon="16.65968">
        <ele>535.085</ele>
        <time>2018-10-04T06:49:52Z</time>
      </trkpt>
      <trkpt lat="43.49179" lon="16.65971">
        <ele>536.017</ele>
        <time>2018-10-04T06:50:12Z</time>
      </trkpt>
      <trkpt lat="43.4918" lon="16.65976">
        <ele>536.025</ele>
        <time>2018-10-04T06:50:32Z</time>
      </trkpt>
      <trkpt lat="43.49179" lon="16.65987">
        <ele>537.016</ele>
        <time>2018-10-04T06:50:52Z</time>
      </trkpt>
      <trkpt lat="43.49178" lon="16.66001">
        <ele>539.096</ele>
        <time>2018-10-04T06:51:12Z</time>
      </trkpt>
      <trkpt lat="43.49175" lon="16.66009">
        <ele>540.075</ele>
        <time>2018-10-04T06:51:32Z</time>
      </trkpt>
      <trkpt lat="43.49172" lon="16.66017">
        <ele>541.053</ele>
        <time>2018-10-04T06:51:52Z</time>
      </trkpt>
      <trkpt lat="43.4917" lon="16.66028">
        <ele>541.004</ele>
        <time>2018-10-04T06:52:12Z</time>
      </trkpt>
      <trkpt lat="43.49171" lon="16.66039">
        <ele>542.014</ele>
        <time>2018-10-04T06:52:32Z</time>
      </trkpt>
      <trkpt lat="43.49172" lon="16.66052">
        <ele>543.008</ele>
        <time>2018-10-04T06:52:52Z</time>
      </trkpt>
      <trkpt lat="43.49172" lon="16.66059">
        <ele>544.077</ele>
        <time>2018-10-04T06:53:12Z</time>
      </trkpt>
      <trkpt lat="43.49169" lon="16.66076">
        <ele>545.054</ele>
        <time>2018-10-04T06:53:32Z</time>
      </trkpt>
      <trkpt lat="43.49167" lon="16.66074">
        <ele>546.027</ele>
        <time>2018-10-04T06:53:52Z</time>
      </trkpt>
      <trkpt lat="43.49162" lon="16.66074">
        <ele>546.069</ele>
        <time>2018-10-04T06:54:12Z</time>
      </trkpt>
      <trkpt lat="43.49158" lon="16.66088">
        <ele>547.097</ele>
        <time>2018-10-04T06:54:32Z</time>
      </trkpt>
      <trkpt lat="43.4916" lon="16.66103">
        <ele>548.068</ele>
        <time>2018-10-04T06:54:52Z</time>
      </trkpt>
      <trkpt lat="43.49159" lon="16.66113">
        <ele>549.088</ele>
        <time>2018-10-04T06:55:12Z</time>
      </trkpt>
      <trkpt lat="43.49157" lon="16.66117">
        <ele>550.087</ele>
        <time>2018-10-04T06:55:32Z</time>
      </trkpt>
      <trkpt lat="43.49157" lon="16.6612">
        <ele>550.065</ele>
        <time>2018-10-04T06:55:52Z</time>
      </trkpt>
      <trkpt lat="43.49155" lon="16.66135">
        <ele>551.068</ele>
        <time>2018-10-04T06:56:12Z</time>
      </trkpt>
      <trkpt lat="43.49151" lon="16.66153">
        <ele>553.014</ele>
        <time>2018-10-04T06:56:32Z</time>
      </trkpt>
      <trkpt lat="43.49151" lon="16.6616">
        <ele>553.008</ele>
        <time>2018-10-04T06:56:52Z</time>
      </trkpt>
      <trkpt lat="43.49146" lon="16.66174">
        <ele>554.058</ele>
        <time>2018-10-04T06:57:12Z</time>
      </trkpt>
      <trkpt lat="43.49142" lon="16.66182">
        <ele>556.075</ele>
        <time>2018-10-04T06:57:32Z</time>
      </trkpt>
      <trkpt lat="43.49139" lon="16.66192">
        <ele>557.078</ele>
        <time>2018-10-04T06:57:52Z</time>
      </trkpt>
      <trkpt lat="43.49137" lon="16.66196">
        <ele>557.07</ele>
        <time>2018-10-04T06:58:12Z</time>
      </trkpt>
      <trkpt lat="43.49137" lon="16.66201">
        <ele>558.088</ele>
        <time>2018-10-04T06:58:32Z</time>
      </trkpt>
      <trkpt lat="43.49136" lon="16.66206">
        <ele>558.039</ele>
        <time>2018-10-04T06:58:52Z</time>
      </trkpt>
      <trkpt lat="43.49136" lon="16.66212">
        <ele>559.049</ele>
        <time>2018-10-04T06:59:12Z</time>
      </trkpt>
      <trkpt lat="43.49133" lon="16.66219">
        <ele>560.088</ele>
        <time>2018-10-04T06:59:32Z</time>
      </trkpt>
      <trkpt lat="43.4913" lon="16.6623">
        <ele>561.097</ele>
        <time>2018-10-04T06:59:52Z</time>
      </trkpt>
      <trkpt lat="43.49129" lon="16.66234">
        <ele>561.023</ele>
        <time>2018-10-04T07:00:12Z</time>
      </trkpt>
      <trkpt lat="43.49126" lon="16.66239">
        <ele>562.025</ele>
        <time>2018-10-04T07:00:32Z</time>
      </trkpt>
      <trkpt lat="43.49123" lon="16.66244">
        <ele>562.008</ele>
        <time>2018-10-04T07:00:52Z</time>
      </trkpt>
      <trkpt lat="43.49118" lon="16.66261">
        <ele>564.031</ele>
        <time>2018-10-04T07:01:12Z</time>
      </trkpt>
      <trkpt lat="43.49114" lon="16.66277">
        <ele>565.078</ele>
        <time>2018-10-04T07:01:32Z</time>
      </trkpt>
      <trkpt lat="43.49112" lon="16.66286">
        <ele>566.071</ele>
        <time>2018-10-04T07:01:52Z</time>
      </trkpt>
      <trkpt lat="43.49106" lon="16.66298">
        <ele>567.033</ele>
        <time>2018-10-04T07:02:12Z</time>
      </trkpt>
      <trkpt lat="43.49104" lon="16.66301">
        <ele>568.031</ele>
        <time>2018-10-04T07:02:32Z</time>
      </trkpt>
      <trkpt lat="43.49099" lon="16.66308">
        <ele>569.072</ele>
        <time>2018-10-04T07:02:52Z</time>
      </trkpt>
      <trkpt lat="43.49098" lon="16.66319">
        <ele>570.072</ele>
        <time>2018-10-04T07:03:12Z</time>
      </trkpt>
      <trkpt lat="43.49096" lon="16.66333">
        <ele>571.071</ele>
        <time>2018-10-04T07:03:32Z</time>
      </trkpt>
      <trkpt lat="43.49094" lon="16.66338">
        <ele>571.065</ele>
        <time>2018-10-04T07:03:52Z</time>
      </trkpt>
      <trkpt lat="43.49088" lon="16.66355">
        <ele>572.068</ele>
        <time>2018-10-04T07:04:12Z</time>
      </trkpt>
      <trkpt lat="43.49081" lon="16.66363">
        <ele>573.014</ele>
        <time>2018-10-04T07:04:32Z</time>
      </trkpt>
      <trkpt lat="43.49071" lon="16.66375">
        <ele>574.008</ele>
        <time>2018-10-04T07:04:52Z</time>
      </trkpt>
      <trkpt lat="43.49062" lon="16.6638">
        <ele>575.058</ele>
        <time>2018-10-04T07:05:12Z</time>
      </trkpt>
      <trkpt lat="43.49061" lon="16.6638">
        <ele>575.055</ele>
        <time>2018-10-04T07:05:32Z</time>
      </trkpt>
      <trkpt lat="43.49054" lon="16.66386">
        <ele>576.068</ele>
        <time>2018-10-04T07:05:52Z</time>
      </trkpt>
      <trkpt lat="43.49036" lon="16.66412">
        <ele>577.01</ele>
        <time>2018-10-04T07:06:12Z</time>
      </trkpt>
      <trkpt lat="43.49034" lon="16.66422">
        <ele>577.088</ele>
        <time>2018-10-04T07:06:32Z</time>
      </trkpt>
      <trkpt lat="43.49033" lon="16.66427">
        <ele>577.059</ele>
        <time>2018-10-04T07:06:52Z</time>
      </trkpt>
      <trkpt lat="43.49028" lon="16.66441">
        <ele>578.079</ele>
        <time>2018-10-04T07:07:12Z</time>
      </trkpt>
      <trkpt lat="43.49024" lon="16.66454">
        <ele>578.058</ele>
        <time>2018-10-04T07:07:32Z</time>
      </trkpt>
      <trkpt lat="43.49024" lon="16.66458">
        <ele>578.067</ele>
        <time>2018-10-04T07:07:52Z</time>
      </trkpt>
      <trkpt lat="43.49023" lon="16.66472">
        <ele>579.081</ele>
        <time>2018-10-04T07:08:12Z</time>
      </trkpt>
      <trkpt lat="43.4902" lon="16.66483">
        <ele>579.019</ele>
        <time>2018-10-04T07:08:32Z</time>
      </trkpt>
      <trkpt lat="43.49012" lon="16.66505">
        <ele>580.008</ele>
        <time>2018-10-04T07:08:52Z</time>
      </trkpt>
      <trkpt lat="43.49009" lon="16.66515">
        <ele>581.098</ele>
        <time>2018-10-04T07:09:12Z</time>
      </trkpt>
      <trkpt lat="43.49005" lon="16.66532">
        <ele>583.025</ele>
        <time>2018-10-04T07:09:32Z</time>
      </trkpt>
      <trkpt lat="43.49" lon="16.66542">
        <ele>584.028</ele>
        <time>2018-10-04T07:09:52Z</time>
      </trkpt>
      <trkpt lat="43.48999" lon="16.66546">
        <ele>585.07</ele>
        <time>2018-10-04T07:10:12Z</time>
      </trkpt>
      <trkpt lat="43.48999" lon="16.6655">
        <ele>585.028</ele>
        <time>2018-10-04T07:10:32Z</time>
      </trkpt>
      <trkpt lat="43.49" lon="16.66555">
        <ele>586.059</ele>
        <time>2018-10-04T07:10:52Z</time>
      </trkpt>
      <trkpt lat="43.48998" lon="16.66563">
        <ele>587.089</ele>
        <time>2018-10-04T07:11:12Z</time>
      </trkpt>
      <trkpt lat="43.48998" lon="16.66565">
        <ele>587.078</ele>
        <time>2018-10-04T07:11:32Z</time>
      </trkpt>
      <trkpt lat="43.48993" lon="16.66574">
        <ele>588.038</ele>
        <time>2018-10-04T07:11:52Z</time>
      </trkpt>
      <trkpt lat="43.48987" lon="16.66586">
        <ele>589.07</ele>
        <time>2018-10-04T07:12:12Z</time>
      </trkpt>
      <trkpt lat="43.48982" lon="16.66592">
        <ele>589.017</ele>
        <time>2018-10-04T07:12:32Z</time>
      </trkpt>
      <trkpt lat="43.48977" lon="16.66602">
        <ele>590.008</ele>
        <time>2018-10-04T07:12:52Z</time>
      </trkpt>
      <trkpt lat="43.4897" lon="16.66619">
        <ele>591.015</ele>
        <time>2018-10-04T07:13:12Z</time>
      </trkpt>
      <trkpt lat="43.48968" lon="16.66626">
        <ele>592.022</ele>
        <time>2018-10-04T07:13:32Z</time>
      </trkpt>
      <trkpt lat="43.48965" lon="16.66633">
        <ele>593.075</ele>
        <time>2018-10-04T07:13:52Z</time>
      </trkpt>
      <trkpt lat="43.48964" lon="16.66637">
        <ele>593.017</ele>
        <time>2018-10-04T07:14:12Z</time>
      </trkpt>
      <trkpt lat="43.48962" lon="16.66645">
        <ele>595.055</ele>
        <time>2018-10-04T07:14:32Z</time>
      </trkpt>
      <trkpt lat="43.4896" lon="16.66652">
        <ele>595.076</ele>
        <time>2018-10-04T07:14:52Z</time>
      </trkpt>
      <trkpt lat="43.48959" lon="16.66658">
        <ele>596.046</ele>
        <time>2018-10-04T07:15:12Z</time>
      </trkpt>
      <trkpt lat="43.48953" lon="16.66671">
        <ele>597.015</ele>
        <time>2018-10-04T07:15:32Z</time>
      </trkpt>
      <trkpt lat="43.48949" lon="16.66678">
        <ele>597.047</ele>
        <time>2018-10-04T07:15:52Z</time>
      </trkpt>
      <trkpt lat="43.48947" lon="16.66683">
        <ele>598.029</ele>
        <time>2018-10-04T07:16:12Z</time>
      </trkpt>
      <trkpt lat="43.48947" lon="16.6669">
        <ele>599.021</ele>
        <time>2018-10-04T07:16:32Z</time>
      </trkpt>
      <trkpt lat="43.48946" lon="16.66694">
        <ele>600.008</ele>
        <time>2018-10-04T07:16:52Z</time>
      </trkpt>
      <trkpt lat="43.48945" lon="16.66699">
        <ele>600.026</ele>
        <time>2018-10-04T07:17:12Z</time>
      </trkpt>
      <trkpt lat="43.48943" lon="16.66709">
        <ele>602.043</ele>
        <time>2018-10-04T07:17:32Z</time>
      </trkpt>
      <trkpt lat="43.48939" lon="16.66723">
        <ele>603.076</ele>
        <time>2018-10-04T07:17:52Z</time>
      </trkpt>
      <trkpt lat="43.48933" lon="16.66733">
        <ele>604.038</ele>
        <time>2018-10-04T07:18:12Z</time>
      </trkpt>
      <trkpt lat="43.48928" lon="16.66749">
        <ele>605.066</ele>
        <time>2018-10-04T07:18:32Z</time>
      </trkpt>
      <trkpt lat="43.48926" lon="16.66758">
        <ele>606.017</ele>
        <time>2018-10-04T07:18:52Z</time>
      </trkpt>
      <trkpt lat="43.48917" lon="16.66782">
        <ele>607.097</ele>
        <time>2018-10-04T07:19:12Z</time>
      </trkpt>
      <trkpt lat="43.48914" lon="16.66791">
        <ele>608.056</ele>
        <time>2018-10-04T07:19:32Z</time>
      </trkpt>
      <trkpt lat="43.48907" lon="16.66812">
        <ele>609.074</ele>
        <time>2018-10-04T07:19:52Z</time>
      </trkpt>
      <trkpt lat="43.48903" lon="16.66818">
        <ele>609.056</ele>
        <time>2018-10-04T07:20:12Z</time>
      </trkpt>
      <trkpt lat="43.48897" lon="16.6683">
        <ele>609.021</ele>
        <time>2018-10-04T07:20:32Z</time>
      </trkpt>
      <trkpt lat="43.48897" lon="16.66837">
        <ele>610.008</ele>
        <time>2018-10-04T07:20:52Z</time>
      </trkpt>
      <trkpt lat="43.48894" lon="16.66852">
        <ele>611.099</ele>
        <time>2018-10-04T07:21:12Z</time>
      </trkpt>
      <trkpt lat="43.48891" lon="16.6686">
        <ele>611.046</ele>
        <time>2018-10-04T07:21:32Z</time>
      </trkpt>
      <trkpt lat="43.48882" lon="16.66875">
        <ele>612.079</ele>
        <time>2018-10-04T07:21:52Z</time>
      </trkpt>
      <trkpt lat="43.4888" lon="16.66879">
        <ele>612.081</ele>
        <time>2018-10-04T07:22:12Z</time>
      </trkpt>
      <trkpt lat="43.48872" lon="16.66898">
        <ele>612.069</ele>
        <time>2018-10-04T07:22:32Z</time>
      </trkpt>
      <trkpt lat="43.48865" lon="16.66927">
        <ele>613.01</ele>
        <time>2018-10-04T07:22:52Z</time>
      </trkpt>
      <trkpt lat="43.48865" lon="16.66929">
        <ele>613.09</ele>
        <time>2018-10-04T07:23:12Z</time>
      </trkpt>
      <trkpt lat="43.48859" lon="16.66954">
        <ele>614.089</ele>
        <time>2018-10-04T07:23:32Z</time>
      </trkpt>
      <trkpt lat="43.48857" lon="16.6696">
        <ele>615.094</ele>
        <time>2018-10-04T07:23:52Z</time>
      </trkpt>
      <trkpt lat="43.48853" lon="16.66972">
        <ele>615.057</ele>
        <time>2018-10-04T07:24:12Z</time>
      </trkpt>
      <trkpt lat="43.48852" lon="16.66974">
        <ele>615.022</ele>
        <time>2018-10-04T07:24:32Z</time>
      </trkpt>
      <trkpt lat="43.48844" lon="16.67001">
        <ele>616.008</ele>
        <time>2018-10-04T07:24:52Z</time>
      </trkpt>
      <trkpt lat="43.48841" lon="16.6701">
        <ele>617.041</ele>
        <time>2018-10-04T07:25:12Z</time>
      </trkpt>
      <trkpt lat="43.48837" lon="16.67017">
        <ele>617.028</ele>
        <time>2018-10-04T07:25:32Z</time>
      </trkpt>
      <trkpt lat="43.48837" lon="16.67029">
        <ele>618.071</ele>
        <time>2018-10-04T07:25:52Z</time>
      </trkpt>
      <trkpt lat="43.48838" lon="16.67035">
        <ele>619.013</ele>
        <time>2018-10-04T07:26:12Z</time>
      </trkpt>
      <trkpt lat="43.48838" lon="16.67039">
        <ele>619.031</ele>
        <time>2018-10-04T07:26:32Z</time>
      </trkpt>
      <trkpt lat="43.48841" lon="16.6706">
        <ele>621.012</ele>
        <time>2018-10-04T07:26:52Z</time>
      </trkpt>
      <trkpt lat="43.48843" lon="16.6707">
        <ele>621.092</ele>
        <time>2018-10-04T07:27:12Z</time>
      </trkpt>
      <trkpt lat="43.48842" lon="16.67078">
        <ele>621.021</ele>
        <time>2018-10-04T07:27:32Z</time>
      </trkpt>
      <trkpt lat="43.48842" lon="16.67082">
        <ele>621.054</ele>
        <time>2018-10-04T07:27:52Z</time>
      </trkpt>
      <trkpt lat="43.48843" lon="16.67085">
        <ele>621.056</ele>
        <time>2018-10-04T07:28:12Z</time>
      </trkpt>
      <trkpt lat="43.48838" lon="16.67106">
        <ele>621.011</ele>
        <time>2018-10-04T07:28:32Z</time>
      </trkpt>
      <trkpt lat="43.48835" lon="16.67125">
        <ele>621.008</ele>
        <time>2018-10-04T07:28:52Z</time>
      </trkpt>
      <trkpt lat="43.48831" lon="16.67151">
        <ele>621.077</ele>
        <time>2018-10-04T07:29:12Z</time>
      </trkpt>
      <trkpt lat="43.48829" lon="16.67155">
        <ele>621.044</ele>
        <time>2018-10-04T07:29:32Z</time>
      </trkpt>
      <trkpt lat="43.48817" lon="16.67174">
        <ele>621.057</ele>
        <time>2018-10-04T07:29:52Z</time>
      </trkpt>
      <trkpt lat="43.48812" lon="16.6718">
        <ele>621.049</ele>
        <time>2018-10-04T07:30:12Z</time>
      </trkpt>
      <trkpt lat="43.48804" lon="16.67193">
        <ele>622.087</ele>
        <time>2018-10-04T07:30:32Z</time>
      </trkpt>
      <trkpt lat="43.48799" lon="16.67202">
        <ele>622.028</ele>
        <time>2018-10-04T07:30:52Z</time>
      </trkpt>
      <trkpt lat="43.48796" lon="16.67209">
        <ele>622.088</ele>
        <time>2018-10-04T07:31:12Z</time>
      </trkpt>
      <trkpt lat="43.48793" lon="16.67218">
        <ele>624.047</ele>
        <time>2018-10-04T07:31:32Z</time>
      </trkpt>
      <trkpt lat="43.48789" lon="16.6723">
        <ele>625.075</ele>
        <time>2018-10-04T07:31:52Z</time>
      </trkpt>
      <trkpt lat="43.48788" lon="16.67231">
        <ele>625.028</ele>
        <time>2018-10-04T07:32:12Z</time>
      </trkpt>
      <trkpt lat="43.48781" lon="16.67249">
        <ele>626.02</ele>
        <time>2018-10-04T07:32:32Z</time>
      </trkpt>
      <trkpt lat="43.4878" lon="16.67258">
        <ele>626.008</ele>
        <time>2018-10-04T07:32:52Z</time>
      </trkpt>
      <trkpt lat="43.48776" lon="16.67273">
        <ele>627.079</ele>
        <time>2018-10-04T07:33:12Z</time>
      </trkpt>
      <trkpt lat="43.48773" lon="16.67278">
        <ele>628.076</ele>
        <time>2018-10-04T07:33:32Z</time>
      </trkpt>
      <trkpt lat="43.48772" lon="16.67282">
        <ele>628.059</ele>
        <time>2018-10-04T07:33:52Z</time>
      </trkpt>
      <trkpt lat="43.48771" lon="16.67286">
        <ele>629.061</ele>
        <time>2018-10-04T07:34:12Z</time>
      </trkpt>
      <trkpt lat="43.48769" lon="16.673">
        <ele>630.069</ele>
        <time>2018-10-04T07:34:32Z</time>
      </trkpt>
      <trkpt lat="43.48768" lon="16.67305">
        <ele>631.05</ele>
        <time>2018-10-04T07:34:52Z</time>
      </trkpt>
      <trkpt lat="43.48769" lon="16.6731">
        <ele>631.03</ele>
        <time>2018-10-04T07:35:12Z</time>
      </trkpt>
      <trkpt lat="43.48766" lon="16.67316">
        <ele>632.039</ele>
        <time>2018-10-04T07:35:32Z</time>
      </trkpt>
      <trkpt lat="43.48765" lon="16.67318">
        <ele>632.087</ele>
        <time>2018-10-04T07:35:52Z</time>
      </trkpt>
      <trkpt lat="43.48762" lon="16.67323">
        <ele>632.042</ele>
        <time>2018-10-04T07:36:12Z</time>
      </trkpt>
      <trkpt lat="43.4876" lon="16.67326">
        <ele>632.026</ele>
        <time>2018-10-04T07:36:32Z</time>
      </trkpt>
      <trkpt lat="43.48747" lon="16.67344">
        <ele>633.008</ele>
        <time>2018-10-04T07:36:52Z</time>
      </trkpt>
      <trkpt lat="43.48745" lon="16.67348">
        <ele>633.08</ele>
        <time>2018-10-04T07:37:12Z</time>
      </trkpt>
      <trkpt lat="43.48742" lon="16.67354">
        <ele>634.027</ele>
        <time>2018-10-04T07:37:32Z</time>
      </trkpt>
      <trkpt lat="43.48736" lon="16.67367">
        <ele>634.05</ele>
        <time>2018-10-04T07:37:52Z</time>
      </trkpt>
      <trkpt lat="43.48733" lon="16.6737">
        <ele>635.022</ele>
        <time>2018-10-04T07:38:12Z</time>
      </trkpt>
      <trkpt lat="43.48729" lon="16.67375">
        <ele>635.09</ele>
        <time>2018-10-04T07:38:32Z</time>
      </trkpt>
      <trkpt lat="43.48719" lon="16.67389">
        <ele>635.021</ele>
        <time>2018-10-04T07:38:52Z</time>
      </trkpt>
      <trkpt lat="43.48714" lon="16.67397">
        <ele>636.071</ele>
        <time>2018-10-04T07:39:12Z</time>
      </trkpt>
      <trkpt lat="43.48707" lon="16.67403">
        <ele>636.09</ele>
        <time>2018-10-04T07:39:32Z</time>
      </trkpt>
      <trkpt lat="43.48697" lon="16.67414">
        <ele>638.068</ele>
        <time>2018-10-04T07:39:52Z</time>
      </trkpt>
      <trkpt lat="43.48689" lon="16.67426">
        <ele>639.042</ele>
        <time>2018-10-04T07:40:12Z</time>
      </trkpt>
      <trkpt lat="43.48684" lon="16.67434">
        <ele>640.026</ele>
        <time>2018-10-04T07:40:32Z</time>
      </trkpt>
      <trkpt lat="43.48678" lon="16.67445">
        <ele>641.008</ele>
        <time>2018-10-04T07:40:52Z</time>
      </trkpt>
      <trkpt lat="43.48674" lon="16.67449">
        <ele>642.038</ele>
        <time>2018-10-04T07:41:12Z</time>
      </trkpt>
      <trkpt lat="43.48666" lon="16.67466">
        <ele>643.025</ele>
        <time>2018-10-04T07:41:32Z</time>
      </trkpt>
      <trkpt lat="43.48665" lon="16.67471">
        <ele>644.018</ele>
        <time>2018-10-04T07:41:52Z</time>
      </trkpt>
      <trkpt lat="43.48663" lon="16.67476">
        <ele>644.06</ele>
        <time>2018-10-04T07:42:12Z</time>
      </trkpt>
      <trkpt lat="43.4866" lon="16.67484">
        <ele>645.068</ele>
        <time>2018-10-04T07:42:32Z</time>
      </trkpt>
      <trkpt lat="43.48655" lon="16.67494">
        <ele>646.079</ele>
        <time>2018-10-04T07:42:52Z</time>
      </trkpt>
      <trkpt lat="43.48655" lon="16.67496">
        <ele>646.069</ele>
        <time>2018-10-04T07:43:12Z</time>
      </trkpt>
      <trkpt lat="43.48651" lon="16.67504">
        <ele>647.048</ele>
        <time>2018-10-04T07:43:32Z</time>
      </trkpt>
      <trkpt lat="43.48648" lon="16.67512">
        <ele>648.097</ele>
        <time>2018-10-04T07:43:52Z</time>
      </trkpt>
      <trkpt lat="43.48647" lon="16.67515">
        <ele>648.023</ele>
        <time>2018-10-04T07:44:12Z</time>
      </trkpt>
      <trkpt lat="43.48643" lon="16.67524">
        <ele>649.025</ele>
        <time>2018-10-04T07:44:32Z</time>
      </trkpt>
      <trkpt lat="43.48643" lon="16.67526">
        <ele>649.008</ele>
        <time>2018-10-04T07:44:52Z</time>
      </trkpt>
      <trkpt lat="43.48642" lon="16.67527">
        <ele>649.091</ele>
        <time>2018-10-04T07:45:12Z</time>
      </trkpt>
      <trkpt lat="43.48638" lon="16.67532">
        <ele>650.028</ele>
        <time>2018-10-04T07:45:32Z</time>
      </trkpt>
      <trkpt lat="43.48632" lon="16.67541">
        <ele>651.041</ele>
        <time>2018-10-04T07:45:52Z</time>
      </trkpt>
      <trkpt lat="43.48624" lon="16.67555">
        <ele>652.073</ele>
        <time>2018-10-04T07:46:12Z</time>
      </trkpt>
      <trkpt lat="43.48615" lon="16.67566">
        <ele>652.011</ele>
        <time>2018-10-04T07:46:32Z</time>
      </trkpt>
      <trkpt lat="43.48605" lon="16.6758">
        <ele>653.092</ele>
        <time>2018-10-04T07:46:52Z</time>
      </trkpt>
      <trkpt lat="43.48594" lon="16.676">
        <ele>655.032</ele>
        <time>2018-10-04T07:47:12Z</time>
      </trkpt>
      <trkpt lat="43.4858" lon="16.67623">
        <ele>656.091</ele>
        <time>2018-10-04T07:47:32Z</time>
      </trkpt>
      <trkpt lat="43.48571" lon="16.67637">
        <ele>656.084</ele>
        <time>2018-10-04T07:47:52Z</time>
      </trkpt>
      <trkpt lat="43.48562" lon="16.67656">
        <ele>657.007</ele>
        <time>2018-10-04T07:48:12Z</time>
      </trkpt>
      <trkpt lat="43.48559" lon="16.67663">
        <ele>657.017</ele>
        <time>2018-10-04T07:48:32Z</time>
      </trkpt>
      <trkpt lat="43.48549" lon="16.67682">
        <ele>658.008</ele>
        <time>2018-10-04T07:48:52Z</time>
      </trkpt>
      <trkpt lat="43.48534" lon="16.67695">
        <ele>656.07</ele>
        <time>2018-10-04T07:49:12Z</time>
      </trkpt>
      <trkpt lat="43.48519" lon="16.67711">
        <ele>656.047</ele>
        <time>2018-10-04T07:49:32Z</time>
      </trkpt>
      <trkpt lat="43.48518" lon="16.67714">
        <ele>656.02</ele>
        <time>2018-10-04T07:49:52Z</time>
      </trkpt>
      <trkpt lat="43.48515" lon="16.67716">
        <ele>656.022</ele>
        <time>2018-10-04T07:50:12Z</time>
      </trkpt>
      <trkpt lat="43.48515" lon="16.67727">
        <ele>657.09</ele>
        <time>2018-10-04T07:50:32Z</time>
      </trkpt>
      <trkpt lat="43.48516" lon="16.67731">
        <ele>657.041</ele>
        <time>2018-10-04T07:50:52Z</time>
      </trkpt>
      <trkpt lat="43.48517" lon="16.67731">
        <ele>658.071</ele>
        <time>2018-10-04T07:51:12Z</time>
      </trkpt>
      <trkpt lat="43.48517" lon="16.67747">
        <ele>659.09</ele>
        <time>2018-10-04T07:51:32Z</time>
      </trkpt>
      <trkpt lat="43.48516" lon="16.67747">
        <ele>659.084</ele>
        <time>2018-10-04T07:51:52Z</time>
      </trkpt>
      <trkpt lat="43.48518" lon="16.67749">
        <ele>660.007</ele>
        <time>2018-10-04T07:52:12Z</time>
      </trkpt>
      <trkpt lat="43.48522" lon="16.67766">
        <ele>662.017</ele>
        <time>2018-10-04T07:52:32Z</time>
      </trkpt>
      <trkpt lat="43.48521" lon="16.67786">
        <ele>664.008</ele>
        <time>2018-10-04T07:52:52Z</time>
      </trkpt>
      <trkpt lat="43.48518" lon="16.67803">
        <ele>666.05</ele>
        <time>2018-10-04T07:53:12Z</time>
      </trkpt>
      <trkpt lat="43.48516" lon="16.67816">
        <ele>667.077</ele>
        <time>2018-10-04T07:53:32Z</time>
      </trkpt>
      <trkpt lat="43.48511" lon="16.67825">
        <ele>669.02</ele>
        <time>2018-10-04T07:53:52Z</time>
      </trkpt>
      <trkpt lat="43.48507" lon="16.67831">
        <ele>670.052</ele>
        <time>2018-10-04T07:54:12Z</time>
      </trkpt>
      <trkpt lat="43.48497" lon="16.67843">
        <ele>672.04</ele>
        <time>2018-10-04T07:54:32Z</time>
      </trkpt>
      <trkpt lat="43.48493" lon="16.67851">
        <ele>673.081</ele>
        <time>2018-10-04T07:54:52Z</time>
      </trkpt>
      <trkpt lat="43.48488" lon="16.67865">
        <ele>675.061</ele>
        <time>2018-10-04T07:55:12Z</time>
      </trkpt>
      <trkpt lat="43.48488" lon="16.67877">
        <ele>677.03</ele>
        <time>2018-10-04T07:55:32Z</time>
      </trkpt>
      <trkpt lat="43.48488" lon="16.67886">
        <ele>677.076</ele>
        <time>2018-10-04T07:55:52Z</time>
      </trkpt>
      <trkpt lat="43.48483" lon="16.67897">
        <ele>679.09</ele>
        <time>2018-10-04T07:56:12Z</time>
      </trkpt>
      <trkpt lat="43.48478" lon="16.67901">
        <ele>680.019</ele>
        <time>2018-10-04T07:56:32Z</time>
      </trkpt>
      <trkpt lat="43.48471" lon="16.67913">
        <ele>681.008</ele>
        <time>2018-10-04T07:56:52Z</time>
      </trkpt>
      <trkpt lat="43.48467" lon="16.67916">
        <ele>682.029</ele>
        <time>2018-10-04T07:57:12Z</time>
      </trkpt>
      <trkpt lat="43.48457" lon="16.6793">
        <ele>683.086</ele>
        <time>2018-10-04T07:57:32Z</time>
      </trkpt>
      <trkpt lat="43.48439" lon="16.67945">
        <ele>684.079</ele>
        <time>2018-10-04T07:57:52Z</time>
      </trkpt>
      <trkpt lat="43.48436" lon="16.67956">
        <ele>684.031</ele>
        <time>2018-10-04T07:58:12Z</time>
      </trkpt>
      <trkpt lat="43.48431" lon="16.67972">
        <ele>686.099</ele>
        <time>2018-10-04T07:58:32Z</time>
      </trkpt>
      <trkpt lat="43.4843" lon="16.67973">
        <ele>686.01</ele>
        <time>2018-10-04T07:58:52Z</time>
      </trkpt>
      <trkpt lat="43.48424" lon="16.67986">
        <ele>687.04</ele>
        <time>2018-10-04T07:59:12Z</time>
      </trkpt>
      <trkpt lat="43.48418" lon="16.68004">
        <ele>688.019</ele>
        <time>2018-10-04T07:59:32Z</time>
      </trkpt>
      <trkpt lat="43.48414" lon="16.6802">
        <ele>689.033</ele>
        <time>2018-10-04T07:59:52Z</time>
      </trkpt>
      <trkpt lat="43.48407" lon="16.68037">
        <ele>690.023</ele>
        <time>2018-10-04T08:00:12Z</time>
      </trkpt>
      <trkpt lat="43.48401" lon="16.68052">
        <ele>692.015</ele>
        <time>2018-10-04T08:00:32Z</time>
      </trkpt>
      <trkpt lat="43.48398" lon="16.68067">
        <ele>692.008</ele>
        <time>2018-10-04T08:00:52Z</time>
      </trkpt>
      <trkpt lat="43.48393" lon="16.68084">
        <ele>693.025</ele>
        <time>2018-10-04T08:01:12Z</time>
      </trkpt>
      <trkpt lat="43.48385" lon="16.68105">
        <ele>694.072</ele>
        <time>2018-10-04T08:01:32Z</time>
      </trkpt>
      <trkpt lat="43.48384" lon="16.68109">
        <ele>694.075</ele>
        <time>2018-10-04T08:01:52Z</time>
      </trkpt>
      <trkpt lat="43.48384" lon="16.68114">
        <ele>694.037</ele>
        <time>2018-10-04T08:02:12Z</time>
      </trkpt>
      <trkpt lat="43.48373" lon="16.68135">
        <ele>694.035</ele>
        <time>2018-10-04T08:02:32Z</time>
      </trkpt>
      <trkpt lat="43.48369" lon="16.68145">
        <ele>694.016</ele>
        <time>2018-10-04T08:02:52Z</time>
      </trkpt>
      <trkpt lat="43.48363" lon="16.68161">
        <ele>694.096</ele>
        <time>2018-10-04T08:03:12Z</time>
      </trkpt>
      <trkpt lat="43.48363" lon="16.68162">
        <ele>694.095</ele>
        <time>2018-10-04T08:03:32Z</time>
      </trkpt>
      <trkpt lat="43.4836" lon="16.68164">
        <ele>694.088</ele>
        <time>2018-10-04T08:03:52Z</time>
      </trkpt>
      <trkpt lat="43.48348" lon="16.68183">
        <ele>693.024</ele>
        <time>2018-10-04T08:04:12Z</time>
      </trkpt>
      <trkpt lat="43.4834" lon="16.68193">
        <ele>692.026</ele>
        <time>2018-10-04T08:04:32Z</time>
      </trkpt>
      <trkpt lat="43.48331" lon="16.68207">
        <ele>691.008</ele>
        <time>2018-10-04T08:04:52Z</time>
      </trkpt>
      <trkpt lat="43.48323" lon="16.68223">
        <ele>690.02</ele>
        <time>2018-10-04T08:05:12Z</time>
      </trkpt>
      <trkpt lat="43.48314" lon="16.68238">
        <ele>689.017</ele>
        <time>2018-10-04T08:05:32Z</time>
      </trkpt>
      <trkpt lat="43.48302" lon="16.6825">
        <ele>687.03</ele>
        <time>2018-10-04T08:05:52Z</time>
      </trkpt>
      <trkpt lat="43.48291" lon="16.68263">
        <ele>685.072</ele>
        <time>2018-10-04T08:06:12Z</time>
      </trkpt>
      <trkpt lat="43.48277" lon="16.68278">
        <ele>683.08</ele>
        <time>2018-10-04T08:06:32Z</time>
      </trkpt>
      <trkpt lat="43.4827" lon="16.68287">
        <ele>681.051</ele>
        <time>2018-10-04T08:06:52Z</time>
      </trkpt>
      <trkpt lat="43.48265" lon="16.68299">
        <ele>680.031</ele>
        <time>2018-10-04T08:07:12Z</time>
      </trkpt>
      <trkpt lat="43.48257" lon="16.68316">
        <ele>679.08</ele>
        <time>2018-10-04T08:07:32Z</time>
      </trkpt>
      <trkpt lat="43.48245" lon="16.68344">
        <ele>678.014</ele>
        <time>2018-10-04T08:07:52Z</time>
      </trkpt>
      <trkpt lat="43.48242" lon="16.68353">
        <ele>677.054</ele>
        <time>2018-10-04T08:08:12Z</time>
      </trkpt>
      <trkpt lat="43.48234" lon="16.68367">
        <ele>676.009</ele>
        <time>2018-10-04T08:08:32Z</time>
      </trkpt>
      <trkpt lat="43.48234" lon="16.68376">
        <ele>673.008</ele>
        <time>2018-10-04T08:08:52Z</time>
      </trkpt>
      <trkpt lat="43.48235" lon="16.68385">
        <ele>673.073</ele>
        <time>2018-10-04T08:09:12Z</time>
      </trkpt>
      <trkpt lat="43.48242" lon="16.68409">
        <ele>674.03</ele>
        <time>2018-10-04T08:09:32Z</time>
      </trkpt>
      <trkpt lat="43.48256" lon="16.68425">
        <ele>673.023</ele>
        <time>2018-10-04T08:09:52Z</time>
      </trkpt>
      <trkpt lat="43.48273" lon="16.68433">
        <ele>673.085</ele>
        <time>2018-10-04T08:10:12Z</time>
      </trkpt>
      <trkpt lat="43.4828" lon="16.68435">
        <ele>674.073</ele>
        <time>2018-10-04T08:10:32Z</time>
      </trkpt>
      <trkpt lat="43.48289" lon="16.68443">
        <ele>674.054</ele>
        <time>2018-10-04T08:10:52Z</time>
      </trkpt>
      <trkpt lat="43.48299" lon="16.68453">
        <ele>674.044</ele>
        <time>2018-10-04T08:11:12Z</time>
      </trkpt>
      <trkpt lat="43.48305" lon="16.68463">
        <ele>674.093</ele>
        <time>2018-10-04T08:11:32Z</time>
      </trkpt>
      <trkpt lat="43.48309" lon="16.68475">
        <ele>674.089</ele>
        <time>2018-10-04T08:11:52Z</time>
      </trkpt>
      <trkpt lat="43.48302" lon="16.68491">
        <ele>673.006</ele>
        <time>2018-10-04T08:12:12Z</time>
      </trkpt>
      <trkpt lat="43.48294" lon="16.68502">
        <ele>671.026</ele>
        <time>2018-10-04T08:12:32Z</time>
      </trkpt>
      <trkpt lat="43.48286" lon="16.68512">
        <ele>671.008</ele>
        <time>2018-10-04T08:12:52Z</time>
      </trkpt>
      <trkpt lat="43.48279" lon="16.68517">
        <ele>670.01</ele>
        <time>2018-10-04T08:13:12Z</time>
      </trkpt>
      <trkpt lat="43.48267" lon="16.68525">
        <ele>669.017</ele>
        <time>2018-10-04T08:13:32Z</time>
      </trkpt>
      <trkpt lat="43.48258" lon="16.68536">
        <ele>668.02</ele>
        <time>2018-10-04T08:13:52Z</time>
      </trkpt>
      <trkpt lat="43.48253" lon="16.68548">
        <ele>667.012</ele>
        <time>2018-10-04T08:14:12Z</time>
      </trkpt>
      <trkpt lat="43.48249" lon="16.68568">
        <ele>664.08</ele>
        <time>2018-10-04T08:14:32Z</time>
      </trkpt>
      <trkpt lat="43.48247" lon="16.68585">
        <ele>662.081</ele>
        <time>2018-10-04T08:14:52Z</time>
      </trkpt>
      <trkpt lat="43.48247" lon="16.68591">
        <ele>661.041</ele>
        <time>2018-10-04T08:15:12Z</time>
      </trkpt>
      <trkpt lat="43.48238" lon="16.6861">
        <ele>658.04</ele>
        <time>2018-10-04T08:15:32Z</time>
      </trkpt>
      <trkpt lat="43.48232" lon="16.6862">
        <ele>657.018</ele>
        <time>2018-10-04T08:15:52Z</time>
      </trkpt>
      <trkpt lat="43.48224" lon="16.68631">
        <ele>655.098</ele>
        <time>2018-10-04T08:16:12Z</time>
      </trkpt>
      <trkpt lat="43.48217" lon="16.68639">
        <ele>653.017</ele>
        <time>2018-10-04T08:16:32Z</time>
      </trkpt>
      <trkpt lat="43.4821" lon="16.68653">
        <ele>650.008</ele>
        <time>2018-10-04T08:16:52Z</time>
      </trkpt>
      <trkpt lat="43.48207" lon="16.6866">
        <ele>649.053</ele>
        <time>2018-10-04T08:17:12Z</time>
      </trkpt>
      <trkpt lat="43.48204" lon="16.68668">
        <ele>648.07</ele>
        <time>2018-10-04T08:17:32Z</time>
      </trkpt>
      <trkpt lat="43.48199" lon="16.68681">
        <ele>646.093</ele>
        <time>2018-10-04T08:17:52Z</time>
      </trkpt>
      <trkpt lat="43.48195" lon="16.68698">
        <ele>644.045</ele>
        <time>2018-10-04T08:18:12Z</time>
      </trkpt>
      <trkpt lat="43.48192" lon="16.68703">
        <ele>643.063</ele>
        <time>2018-10-04T08:18:32Z</time>
      </trkpt>
      <trkpt lat="43.4819" lon="16.68706">
        <ele>642.034</ele>
        <time>2018-10-04T08:18:52Z</time>
      </trkpt>
      <trkpt lat="43.48184" lon="16.68703">
        <ele>641.044</ele>
        <time>2018-10-04T08:19:12Z</time>
      </trkpt>
      <trkpt lat="43.4818" lon="16.68697">
        <ele>641.053</ele>
        <time>2018-10-04T08:19:32Z</time>
      </trkpt>
      <trkpt lat="43.4818" lon="16.68679">
        <ele>639.072</ele>
        <time>2018-10-04T08:19:52Z</time>
      </trkpt>
      <trkpt lat="43.48179" lon="16.6867">
        <ele>640.013</ele>
        <time>2018-10-04T08:20:12Z</time>
      </trkpt>
      <trkpt lat="43.48181" lon="16.68646">
        <ele>640.014</ele>
        <time>2018-10-04T08:20:32Z</time>
      </trkpt>
      <trkpt lat="43.48178" lon="16.68644">
        <ele>640.008</ele>
        <time>2018-10-04T08:20:52Z</time>
      </trkpt>
      <trkpt lat="43.48173" lon="16.68654">
        <ele>638.069</ele>
        <time>2018-10-04T08:21:12Z</time>
      </trkpt>
      <trkpt lat="43.48167" lon="16.68672">
        <ele>636.076</ele>
        <time>2018-10-04T08:21:32Z</time>
      </trkpt>
      <trkpt lat="43.48163" lon="16.68681">
        <ele>635.049</ele>
        <time>2018-10-04T08:21:52Z</time>
      </trkpt>
      <trkpt lat="43.48157" lon="16.68693">
        <ele>633.051</ele>
        <time>2018-10-04T08:22:12Z</time>
      </trkpt>
      <trkpt lat="43.48151" lon="16.68707">
        <ele>631.099</ele>
        <time>2018-10-04T08:22:32Z</time>
      </trkpt>
      <trkpt lat="43.48151" lon="16.68715">
        <ele>631.06</ele>
        <time>2018-10-04T08:22:52Z</time>
      </trkpt>
      <trkpt lat="43.48148" lon="16.68735">
        <ele>629.09</ele>
        <time>2018-10-04T08:23:12Z</time>
      </trkpt>
      <trkpt lat="43.48146" lon="16.68743">
        <ele>628.069</ele>
        <time>2018-10-04T08:23:32Z</time>
      </trkpt>
      <trkpt lat="43.48145" lon="16.68759">
        <ele>626.016</ele>
        <time>2018-10-04T08:23:52Z</time>
      </trkpt>
      <trkpt lat="43.48148" lon="16.68776">
        <ele>624.076</ele>
        <time>2018-10-04T08:24:12Z</time>
      </trkpt>
      <trkpt lat="43.48147" lon="16.68792">
        <ele>623.013</ele>
        <time>2018-10-04T08:24:32Z</time>
      </trkpt>
      <trkpt lat="43.48142" lon="16.68805">
        <ele>622.008</ele>
        <time>2018-10-04T08:24:52Z</time>
      </trkpt>
      <trkpt lat="43.48132" lon="16.68821">
        <ele>621.023</ele>
        <time>2018-10-04T08:25:12Z</time>
      </trkpt>
      <trkpt lat="43.48127" lon="16.68832">
        <ele>620.03</ele>
        <time>2018-10-04T08:25:32Z</time>
      </trkpt>
      <trkpt lat="43.48117" lon="16.68854">
        <ele>619.083</ele>
        <time>2018-10-04T08:25:52Z</time>
      </trkpt>
      <trkpt lat="43.48113" lon="16.68869">
        <ele>618.045</ele>
        <time>2018-10-04T08:26:12Z</time>
      </trkpt>
      <trkpt lat="43.48108" lon="16.68889">
        <ele>617.023</ele>
        <time>2018-10-04T08:26:32Z</time>
      </trkpt>
      <trkpt lat="43.48101" lon="16.68906">
        <ele>616.054</ele>
        <time>2018-10-04T08:26:52Z</time>
      </trkpt>
      <trkpt lat="43.48092" lon="16.68922">
        <ele>614.064</ele>
        <time>2018-10-04T08:27:12Z</time>
      </trkpt>
      <trkpt lat="43.48084" lon="16.68934">
        <ele>613.073</ele>
        <time>2018-10-04T08:27:32Z</time>
      </trkpt>
      <trkpt lat="43.48074" lon="16.68947">
        <ele>612.011</ele>
        <time>2018-10-04T08:27:52Z</time>
      </trkpt>
      <trkpt lat="43.48066" lon="16.68958">
        <ele>611.021</ele>
        <time>2018-10-04T08:28:12Z</time>
      </trkpt>
      <trkpt lat="43.48057" lon="16.68968">
        <ele>609.003</ele>
        <time>2018-10-04T08:28:32Z</time>
      </trkpt>
      <trkpt lat="43.48052" lon="16.68976">
        <ele>608.008</ele>
        <time>2018-10-04T08:28:52Z</time>
      </trkpt>
      <trkpt lat="43.48047" lon="16.68983">
        <ele>607.023</ele>
        <time>2018-10-04T08:29:12Z</time>
      </trkpt>
      <trkpt lat="43.48042" lon="16.68991">
        <ele>606.03</ele>
        <time>2018-10-04T08:29:32Z</time>
      </trkpt>
      <trkpt lat="43.48037" lon="16.68998">
        <ele>605.063</ele>
        <time>2018-10-04T08:29:52Z</time>
      </trkpt>
      <trkpt lat="43.48029" lon="16.6901">
        <ele>604.045</ele>
        <time>2018-10-04T08:30:12Z</time>
      </trkpt>
      <trkpt lat="43.48021" lon="16.69025">
        <ele>602.083</ele>
        <time>2018-10-04T08:30:32Z</time>
      </trkpt>
      <trkpt lat="43.48018" lon="16.6903">
        <ele>600.064</ele>
        <time>2018-10-04T08:30:52Z</time>
      </trkpt>
      <trkpt lat="43.48015" lon="16.69036">
        <ele>599.064</ele>
        <time>2018-10-04T08:31:12Z</time>
      </trkpt>
      <trkpt lat="43.48007" lon="16.69048">
        <ele>598.023</ele>
        <time>2018-10-04T08:31:32Z</time>
      </trkpt>
      <trkpt lat="43.47993" lon="16.69068">
        <ele>597.094</ele>
        <time>2018-10-04T08:31:52Z</time>
      </trkpt>
      <trkpt lat="43.47989" lon="16.69075">
        <ele>596.057</ele>
        <time>2018-10-04T08:32:12Z</time>
      </trkpt>
      <trkpt lat="43.47975" lon="16.69092">
        <ele>594.022</ele>
        <time>2018-10-04T08:32:32Z</time>
      </trkpt>
      <trkpt lat="43.47966" lon="16.69108">
        <ele>592.008</ele>
        <time>2018-10-04T08:32:52Z</time>
      </trkpt>
      <trkpt lat="43.47959" lon="16.69121">
        <ele>589.091</ele>
        <time>2018-10-04T08:33:12Z</time>
      </trkpt>
      <trkpt lat="43.47956" lon="16.69126">
        <ele>588.018</ele>
        <time>2018-10-04T08:33:32Z</time>
      </trkpt>
      <trkpt lat="43.47956" lon="16.69126">
        <ele>588.071</ele>
        <time>2018-10-04T08:33:52Z</time>
      </trkpt>
      <trkpt lat="43.47955" lon="16.69126">
        <ele>588.063</ele>
        <time>2018-10-04T08:34:12Z</time>
      </trkpt>
      <trkpt lat="43.47943" lon="16.69132">
        <ele>587.051</ele>
        <time>2018-10-04T08:34:32Z</time>
      </trkpt>
      <trkpt lat="43.4794" lon="16.69132">
        <ele>585.032</ele>
        <time>2018-10-04T08:34:52Z</time>
      </trkpt>
      <trkpt lat="43.47933" lon="16.69136">
        <ele>584.082</ele>
        <time>2018-10-04T08:35:12Z</time>
      </trkpt>
      <trkpt lat="43.47926" lon="16.69141">
        <ele>583.091</ele>
        <time>2018-10-04T08:35:32Z</time>
      </trkpt>
      <trkpt lat="43.47919" lon="16.69154">
        <ele>581.099</ele>
        <time>2018-10-04T08:35:52Z</time>
      </trkpt>
      <trkpt lat="43.47917" lon="16.69159">
        <ele>580.007</ele>
        <time>2018-10-04T08:36:12Z</time>
      </trkpt>
      <trkpt lat="43.47907" lon="16.69167">
        <ele>577.027</ele>
        <time>2018-10-04T08:36:32Z</time>
      </trkpt>
      <trkpt lat="43.479" lon="16.69174">
        <ele>576.008</ele>
        <time>2018-10-04T08:36:52Z</time>
      </trkpt>
      <trkpt lat="43.47895" lon="16.69186">
        <ele>574.091</ele>
        <time>2018-10-04T08:37:12Z</time>
      </trkpt>
      <trkpt lat="43.47886" lon="16.69202">
        <ele>572.038</ele>
        <time>2018-10-04T08:37:32Z</time>
      </trkpt>
      <trkpt lat="43.47881" lon="16.69212">
        <ele>570.051</ele>
        <time>2018-10-04T08:37:52Z</time>
      </trkpt>
      <trkpt lat="43.47875" lon="16.69226">
        <ele>569.043</ele>
        <time>2018-10-04T08:38:12Z</time>
      </trkpt>
      <trkpt lat="43.47867" lon="16.69247">
        <ele>567.071</ele>
        <time>2018-10-04T08:38:32Z</time>
      </trkpt>
      <trkpt lat="43.47867" lon="16.69251">
        <ele>566.022</ele>
        <time>2018-10-04T08:38:52Z</time>
      </trkpt>
      <trkpt lat="43.47863" lon="16.69265">
        <ele>566.072</ele>
        <time>2018-10-04T08:39:12Z</time>
      </trkpt>
      <trkpt lat="43.47858" lon="16.69284">
        <ele>565.021</ele>
        <time>2018-10-04T08:39:32Z</time>
      </trkpt>
      <trkpt lat="43.47854" lon="16.69301">
        <ele>564.019</ele>
        <time>2018-10-04T08:39:52Z</time>
      </trkpt>
      <trkpt lat="43.47842" lon="16.69318">
        <ele>562.009</ele>
        <time>2018-10-04T08:40:12Z</time>
      </trkpt>
      <trkpt lat="43.47837" lon="16.69326">
        <ele>560.019</ele>
        <time>2018-10-04T08:40:32Z</time>
      </trkpt>
      <trkpt lat="43.47829" lon="16.69335">
        <ele>559.008</ele>
        <time>2018-10-04T08:40:52Z</time>
      </trkpt>
      <trkpt lat="43.47819" lon="16.69351">
        <ele>558.053</ele>
        <time>2018-10-04T08:41:12Z</time>
      </trkpt>
      <trkpt lat="43.47813" lon="16.69361">
        <ele>557.04</ele>
        <time>2018-10-04T08:41:32Z</time>
      </trkpt>
      <trkpt lat="43.47807" lon="16.69371">
        <ele>556.033</ele>
        <time>2018-10-04T08:41:52Z</time>
      </trkpt>
      <trkpt lat="43.47801" lon="16.69378">
        <ele>555.055</ele>
        <time>2018-10-04T08:42:12Z</time>
      </trkpt>
      <trkpt lat="43.47795" lon="16.69388">
        <ele>553.043</ele>
        <time>2018-10-04T08:42:32Z</time>
      </trkpt>
      <trkpt lat="43.47784" lon="16.69399">
        <ele>551.074</ele>
        <time>2018-10-04T08:42:52Z</time>
      </trkpt>
      <trkpt lat="43.4778" lon="16.69406">
        <ele>550.074</ele>
        <time>2018-10-04T08:43:12Z</time>
      </trkpt>
      <trkpt lat="43.47769" lon="16.69423">
        <ele>548.093</ele>
        <time>2018-10-04T08:43:32Z</time>
      </trkpt>
      <trkpt lat="43.47762" lon="16.69438">
        <ele>545.027</ele>
        <time>2018-10-04T08:43:52Z</time>
      </trkpt>
      <trkpt lat="43.47754" lon="16.69451">
        <ele>543.068</ele>
        <time>2018-10-04T08:44:12Z</time>
      </trkpt>
      <trkpt lat="43.4775" lon="16.69468">
        <ele>541.014</ele>
        <time>2018-10-04T08:44:32Z</time>
      </trkpt>
      <trkpt lat="43.4775" lon="16.69472">
        <ele>541.008</ele>
        <time>2018-10-04T08:44:52Z</time>
      </trkpt>
      <trkpt lat="43.47753" lon="16.69479">
        <ele>541.094</ele>
        <time>2018-10-04T08:45:12Z</time>
      </trkpt>
      <trkpt lat="43.47758" lon="16.69495">
        <ele>540.081</ele>
        <time>2018-10-04T08:45:32Z</time>
      </trkpt>
      <trkpt lat="43.47767" lon="16.69514">
        <ele>539.044</ele>
        <time>2018-10-04T08:45:52Z</time>
      </trkpt>
      <trkpt lat="43.47765" lon="16.69534">
        <ele>538.086</ele>
        <time>2018-10-04T08:46:12Z</time>
      </trkpt>
      <trkpt lat="43.47765" lon="16.69557">
        <ele>537.034</ele>
        <time>2018-10-04T08:46:32Z</time>
      </trkpt>
      <trkpt lat="43.47755" lon="16.69577">
        <ele>536.025</ele>
        <time>2018-10-04T08:46:52Z</time>
      </trkpt>
      <trkpt lat="43.47744" lon="16.69591">
        <ele>535.075</ele>
        <time>2018-10-04T08:47:12Z</time>
      </trkpt>
      <trkpt lat="43.47734" lon="16.69605">
        <ele>533.014</ele>
        <time>2018-10-04T08:47:32Z</time>
      </trkpt>
      <trkpt lat="43.47718" lon="16.69621">
        <ele>532.058</ele>
        <time>2018-10-04T08:47:52Z</time>
      </trkpt>
      <trkpt lat="43.4771" lon="16.6963">
        <ele>531.052</ele>
        <time>2018-10-04T08:48:12Z</time>
      </trkpt>
      <trkpt lat="43.47703" lon="16.69638">
        <ele>530.017</ele>
        <time>2018-10-04T08:48:32Z</time>
      </trkpt>
      <trkpt lat="43.47696" lon="16.69649">
        <ele>528.008</ele>
        <time>2018-10-04T08:48:52Z</time>
      </trkpt>
      <trkpt lat="43.47694" lon="16.69653">
        <ele>527.077</ele>
        <time>2018-10-04T08:49:12Z</time>
      </trkpt>
      <trkpt lat="43.47692" lon="16.69656">
        <ele>526.034</ele>
        <time>2018-10-04T08:49:32Z</time>
      </trkpt>
      <trkpt lat="43.47689" lon="16.69663">
        <ele>526.067</ele>
        <time>2018-10-04T08:49:52Z</time>
      </trkpt>
      <trkpt lat="43.47683" lon="16.69676">
        <ele>524.019</ele>
        <time>2018-10-04T08:50:12Z</time>
      </trkpt>
      <trkpt lat="43.47679" lon="16.69687">
        <ele>523.097</ele>
        <time>2018-10-04T08:50:32Z</time>
      </trkpt>
      <trkpt lat="43.47678" lon="16.69701">
        <ele>522.018</ele>
        <time>2018-10-04T08:50:52Z</time>
      </trkpt>
      <trkpt lat="43.47674" lon="16.69715">
        <ele>521.048</ele>
        <time>2018-10-04T08:51:12Z</time>
      </trkpt>
      <trkpt lat="43.4767" lon="16.69727">
        <ele>520.057</ele>
        <time>2018-10-04T08:51:32Z</time>
      </trkpt>
      <trkpt lat="43.47665" lon="16.69737">
        <ele>519.076</ele>
        <time>2018-10-04T08:51:52Z</time>
      </trkpt>
      <trkpt lat="43.47659" lon="16.69747">
        <ele>518.09</ele>
        <time>2018-10-04T08:52:12Z</time>
      </trkpt>
      <trkpt lat="43.47652" lon="16.69754">
        <ele>516.019</ele>
        <time>2018-10-04T08:52:32Z</time>
      </trkpt>
      <trkpt lat="43.47648" lon="16.69754">
        <ele>515.008</ele>
        <time>2018-10-04T08:52:52Z</time>
      </trkpt>
      <trkpt lat="43.47641" lon="16.6975">
        <ele>514.019</ele>
        <time>2018-10-04T08:53:12Z</time>
      </trkpt>
      <trkpt lat="43.4763" lon="16.69737">
        <ele>512.056</ele>
        <time>2018-10-04T08:53:32Z</time>
      </trkpt>
      <trkpt lat="43.4762" lon="16.69727">
        <ele>511.079</ele>
        <time>2018-10-04T08:53:52Z</time>
      </trkpt>
      <trkpt lat="43.47619" lon="16.69727">
        <ele>511.081</ele>
        <time>2018-10-04T08:54:12Z</time>
      </trkpt>
      <trkpt lat="43.47603" lon="16.69721">
        <ele>510.099</ele>
        <time>2018-10-04T08:54:32Z</time>
      </trkpt>
      <trkpt lat="43.47587" lon="16.6972">
        <ele>507.04</ele>
        <time>2018-10-04T08:54:52Z</time>
      </trkpt>
      <trkpt lat="43.47578" lon="16.69731">
        <ele>505.05</ele>
        <time>2018-10-04T08:55:12Z</time>
      </trkpt>
      <trkpt lat="43.47577" lon="16.69735">
        <ele>504.059</ele>
        <time>2018-10-04T08:55:32Z</time>
      </trkpt>
      <trkpt lat="43.47576" lon="16.69735">
        <ele>503.092</ele>
        <time>2018-10-04T08:55:52Z</time>
      </trkpt>
      <trkpt lat="43.47575" lon="16.69744">
        <ele>502.073</ele>
        <time>2018-10-04T08:56:12Z</time>
      </trkpt>
      <trkpt lat="43.47573" lon="16.69749">
        <ele>502.02</ele>
        <time>2018-10-04T08:56:32Z</time>
      </trkpt>
      <trkpt lat="43.47571" lon="16.69752">
        <ele>501.008</ele>
        <time>2018-10-04T08:56:52Z</time>
      </trkpt>
      <trkpt lat="43.4756" lon="16.69763">
        <ele>501.011</ele>
        <time>2018-10-04T08:57:12Z</time>
      </trkpt>
      <trkpt lat="43.47551" lon="16.6977">
        <ele>499.088</ele>
        <time>2018-10-04T08:57:32Z</time>
      </trkpt>
      <trkpt lat="43.47543" lon="16.69778">
        <ele>498.081</ele>
        <time>2018-10-04T08:57:52Z</time>
      </trkpt>
      <trkpt lat="43.47528" lon="16.69799">
        <ele>497.053</ele>
        <time>2018-10-04T08:58:12Z</time>
      </trkpt>
      <trkpt lat="43.4752" lon="16.69817">
        <ele>496.061</ele>
        <time>2018-10-04T08:58:32Z</time>
      </trkpt>
      <trkpt lat="43.47512" lon="16.69842">
        <ele>496.062</ele>
        <time>2018-10-04T08:58:52Z</time>
      </trkpt>
      <trkpt lat="43.47506" lon="16.69854">
        <ele>495.052</ele>
        <time>2018-10-04T08:59:12Z</time>
      </trkpt>
      <trkpt lat="43.47499" lon="16.69874">
        <ele>494.071</ele>
        <time>2018-10-04T08:59:32Z</time>
      </trkpt>
      <trkpt lat="43.47495" lon="16.69896">
        <ele>492.089</ele>
        <time>2018-10-04T08:59:52Z</time>
      </trkpt>
      <trkpt lat="43.47488" lon="16.69907">
        <ele>490.006</ele>
        <time>2018-10-04T09:00:12Z</time>
      </trkpt>
      <trkpt lat="43.47482" lon="16.69913">
        <ele>488.026</ele>
        <time>2018-10-04T09:00:32Z</time>
      </trkpt>
      <trkpt lat="43.47474" lon="16.69927">
        <ele>486.008</ele>
        <time>2018-10-04T09:00:52Z</time>
      </trkpt>
      <trkpt lat="43.4747" lon="16.69937">
        <ele>485.04</ele>
        <time>2018-10-04T09:01:12Z</time>
      </trkpt>
      <trkpt lat="43.47465" lon="16.69944">
        <ele>484.097</ele>
        <time>2018-10-04T09:01:32Z</time>
      </trkpt>
      <trkpt lat="43.47459" lon="16.69954">
        <ele>483.08</ele>
        <time>2018-10-04T09:01:52Z</time>
      </trkpt>
      <trkpt lat="43.47455" lon="16.69964">
        <ele>482.022</ele>
        <time>2018-10-04T09:02:12Z</time>
      </trkpt>
      <trkpt lat="43.47452" lon="16.69984">
        <ele>480.04</ele>
        <time>2018-10-04T09:02:32Z</time>
      </trkpt>
      <trkpt lat="43.47448" lon="16.69999">
        <ele>479.051</ele>
        <time>2018-10-04T09:02:52Z</time>
      </trkpt>
      <trkpt lat="43.4744" lon="16.70024">
        <ele>478.081</ele>
        <time>2018-10-04T09:03:12Z</time>
      </trkpt>
      <trkpt lat="43.47428" lon="16.70042">
        <ele>478.08</ele>
        <time>2018-10-04T09:03:32Z</time>
      </trkpt>
      <trkpt lat="43.47427" lon="16.70061">
        <ele>477.091</ele>
        <time>2018-10-04T09:03:52Z</time>
      </trkpt>
      <trkpt lat="43.47431" lon="16.70071">
        <ele>476.081</ele>
        <time>2018-10-04T09:04:12Z</time>
      </trkpt>
      <trkpt lat="43.47433" lon="16.70075">
        <ele>476.019</ele>
        <time>2018-10-04T09:04:32Z</time>
      </trkpt>
      <trkpt lat="43.47434" lon="16.7008">
        <ele>476.008</ele>
        <time>2018-10-04T09:04:52Z</time>
      </trkpt>
      <trkpt lat="43.47433" lon="16.70081">
        <ele>475.091</ele>
        <time>2018-10-04T09:05:12Z</time>
      </trkpt>
      <trkpt lat="43.4743" lon="16.70092">
        <ele>475.078</ele>
        <time>2018-10-04T09:05:32Z</time>
      </trkpt>
      <trkpt lat="43.47427" lon="16.70105">
        <ele>474.021</ele>
        <time>2018-10-04T09:05:52Z</time>
      </trkpt>
      <trkpt lat="43.47424" lon="16.70111">
        <ele>473.033</ele>
        <time>2018-10-04T09:06:12Z</time>
      </trkpt>
      <trkpt lat="43.47423" lon="16.70122">
        <ele>472.051</ele>
        <time>2018-10-04T09:06:32Z</time>
      </trkpt>
      <trkpt lat="43.47422" lon="16.70133">
        <ele>471.042</ele>
        <time>2018-10-04T09:06:52Z</time>
      </trkpt>
      <trkpt lat="43.47418" lon="16.70155">
        <ele>470.062</ele>
        <time>2018-10-04T09:07:12Z</time>
      </trkpt>
      <trkpt lat="43.47413" lon="16.70176">
        <ele>470.091</ele>
        <time>2018-10-04T09:07:32Z</time>
      </trkpt>
      <trkpt lat="43.47409" lon="16.70188">
        <ele>469.019</ele>
        <time>2018-10-04T09:07:52Z</time>
      </trkpt>
      <trkpt lat="43.47405" lon="16.702">
        <ele>468.009</ele>
        <time>2018-10-04T09:08:12Z</time>
      </trkpt>
      <trkpt lat="43.47399" lon="16.7022">
        <ele>465.019</ele>
        <time>2018-10-04T09:08:32Z</time>
      </trkpt>
      <trkpt lat="43.47397" lon="16.70228">
        <ele>464.008</ele>
        <time>2018-10-04T09:08:52Z</time>
      </trkpt>
      <trkpt lat="43.47394" lon="16.70237">
        <ele>463.053</ele>
        <time>2018-10-04T09:09:12Z</time>
      </trkpt>
      <trkpt lat="43.47384" lon="16.7025">
        <ele>461.02</ele>
        <time>2018-10-04T09:09:32Z</time>
      </trkpt>
      <trkpt lat="43.47374" lon="16.70257">
        <ele>458.083</ele>
        <time>2018-10-04T09:09:52Z</time>
      </trkpt>
      <trkpt lat="43.47363" lon="16.70268">
        <ele>456.025</ele>
        <time>2018-10-04T09:10:12Z</time>
      </trkpt>
      <trkpt lat="43.47357" lon="16.70273">
        <ele>454.063</ele>
        <time>2018-10-04T09:10:32Z</time>
      </trkpt>
      <trkpt lat="43.47352" lon="16.70281">
        <ele>453.024</ele>
        <time>2018-10-04T09:10:52Z</time>
      </trkpt>
      <trkpt lat="43.47343" lon="16.70291">
        <ele>452.074</ele>
        <time>2018-10-04T09:11:12Z</time>
      </trkpt>
      <trkpt lat="43.47337" lon="16.703">
        <ele>451.033</ele>
        <time>2018-10-04T09:11:32Z</time>
      </trkpt>
      <trkpt lat="43.47332" lon="16.7031">
        <ele>450.024</ele>
        <time>2018-10-04T09:11:52Z</time>
      </trkpt>
      <trkpt lat="43.47329" lon="16.70322">
        <ele>449.004</ele>
        <time>2018-10-04T09:12:12Z</time>
      </trkpt>
      <trkpt lat="43.47326" lon="16.70336">
        <ele>447.014</ele>
        <time>2018-10-04T09:12:32Z</time>
      </trkpt>
      <trkpt lat="43.47323" lon="16.70359">
        <ele>446.008</ele>
        <time>2018-10-04T09:12:52Z</time>
      </trkpt>
      <trkpt lat="43.47321" lon="16.70374">
        <ele>445.094</ele>
        <time>2018-10-04T09:13:12Z</time>
      </trkpt>
      <trkpt lat="43.47313" lon="16.70393">
        <ele>444.081</ele>
        <time>2018-10-04T09:13:32Z</time>
      </trkpt>
      <trkpt lat="43.47309" lon="16.70401">
        <ele>443.074</ele>
        <time>2018-10-04T09:13:52Z</time>
      </trkpt>
      <trkpt lat="43.47307" lon="16.70416">
        <ele>442.096</ele>
        <time>2018-10-04T09:14:12Z</time>
      </trkpt>
      <trkpt lat="43.47305" lon="16.70436">
        <ele>441.014</ele>
        <time>2018-10-04T09:14:32Z</time>
      </trkpt>
      <trkpt lat="43.47301" lon="16.70443">
        <ele>440.035</ele>
        <time>2018-10-04T09:14:52Z</time>
      </trkpt>
      <trkpt lat="43.47301" lon="16.70445">
        <ele>440.035</ele>
        <time>2018-10-04T09:15:12Z</time>
      </trkpt>
      <trkpt lat="43.47302" lon="16.7047">
        <ele>439.074</ele>
        <time>2018-10-04T09:15:32Z</time>
      </trkpt>
      <trkpt lat="43.47306" lon="16.70485">
        <ele>440.065</ele>
        <time>2018-10-04T09:15:52Z</time>
      </trkpt>
      <trkpt lat="43.47305" lon="16.7051">
        <ele>440.068</ele>
        <time>2018-10-04T09:16:12Z</time>
      </trkpt>
      <trkpt lat="43.47298" lon="16.70536">
        <ele>439.014</ele>
        <time>2018-10-04T09:16:32Z</time>
      </trkpt>
      <trkpt lat="43.47297" lon="16.70549">
        <ele>438.008</ele>
        <time>2018-10-04T09:16:52Z</time>
      </trkpt>
      <trkpt lat="43.47296" lon="16.70554">
        <ele>438.068</ele>
        <time>2018-10-04T09:17:12Z</time>
      </trkpt>
      <trkpt lat="43.47295" lon="16.7056">
        <ele>437.055</ele>
        <time>2018-10-04T09:17:32Z</time>
      </trkpt>
      <trkpt lat="43.47297" lon="16.70566">
        <ele>437.018</ele>
        <time>2018-10-04T09:17:52Z</time>
      </trkpt>
      <trkpt lat="43.47292" lon="16.70567">
        <ele>437.03</ele>
        <time>2018-10-04T09:18:12Z</time>
      </trkpt>
      <trkpt lat="43.47287" lon="16.70565">
        <ele>435.018</ele>
        <time>2018-10-04T09:18:32Z</time>
      </trkpt>
      <trkpt lat="43.47282" lon="16.70561">
        <ele>434.019</ele>
        <time>2018-10-04T09:18:52Z</time>
      </trkpt>
      <trkpt lat="43.47276" lon="16.70558">
        <ele>434.029</ele>
        <time>2018-10-04T09:19:12Z</time>
      </trkpt>
      <trkpt lat="43.47271" lon="16.70551">
        <ele>433.058</ele>
        <time>2018-10-04T09:19:32Z</time>
      </trkpt>
      <trkpt lat="43.47266" lon="16.70544">
        <ele>432.031</ele>
        <time>2018-10-04T09:19:52Z</time>
      </trkpt>
      <trkpt lat="43.47258" lon="16.70532">
        <ele>430.061</ele>
        <time>2018-10-04T09:20:12Z</time>
      </trkpt>
      <trkpt lat="43.47249" lon="16.70521">
        <ele>428.007</ele>
        <time>2018-10-04T09:20:32Z</time>
      </trkpt>
      <trkpt lat="43.47248" lon="16.7052">
        <ele>428.008</ele>
        <time>2018-10-04T09:20:52Z</time>
      </trkpt>
      <trkpt lat="43.47247" lon="16.70519">
        <ele>428.085</ele>
        <time>2018-10-04T09:21:12Z</time>
      </trkpt>
      <trkpt lat="43.47241" lon="16.70519">
        <ele>427.072</ele>
        <time>2018-10-04T09:21:32Z</time>
      </trkpt>
      <trkpt lat="43.47239" lon="16.70523">
        <ele>426.045</ele>
        <time>2018-10-04T09:21:52Z</time>
      </trkpt>
      <trkpt lat="43.47234" lon="16.7055">
        <ele>424.017</ele>
        <time>2018-10-04T09:22:12Z</time>
      </trkpt>
      <trkpt lat="43.47229" lon="16.70565">
        <ele>423.045</ele>
        <time>2018-10-04T09:22:32Z</time>
      </trkpt>
      <trkpt lat="43.47219" lon="16.70569">
        <ele>422.036</ele>
        <time>2018-10-04T09:22:52Z</time>
      </trkpt>
      <trkpt lat="43.47212" lon="16.70571">
        <ele>420.056</ele>
        <time>2018-10-04T09:23:12Z</time>
      </trkpt>
      <trkpt lat="43.47208" lon="16.70569">
        <ele>419.055</ele>
        <time>2018-10-04T09:23:32Z</time>
      </trkpt>
      <trkpt lat="43.47206" lon="16.70573">
        <ele>418.066</ele>
        <time>2018-10-04T09:23:52Z</time>
      </trkpt>
      <trkpt lat="43.4721" lon="16.7058">
        <ele>418.029</ele>
        <time>2018-10-04T09:24:12Z</time>
      </trkpt>
      <trkpt lat="43.47211" lon="16.70585">
        <ele>417.021</ele>
        <time>2018-10-04T09:24:32Z</time>
      </trkpt>
      <trkpt lat="43.47212" lon="16.70593">
        <ele>416.008</ele>
        <time>2018-10-04T09:24:52Z</time>
      </trkpt>
      <trkpt lat="43.47204" lon="16.70609">
        <ele>414.058</ele>
        <time>2018-10-04T09:25:12Z</time>
      </trkpt>
      <trkpt lat="43.472" lon="16.70613">
        <ele>413.085</ele>
        <time>2018-10-04T09:25:32Z</time>
      </trkpt>
      <trkpt lat="43.47194" lon="16.70633">
        <ele>410.018</ele>
        <time>2018-10-04T09:25:52Z</time>
      </trkpt>
      <trkpt lat="43.47194" lon="16.70636">
        <ele>410.09</ele>
        <time>2018-10-04T09:26:12Z</time>
      </trkpt>
      <trkpt lat="43.47193" lon="16.70643">
        <ele>409.088</ele>
        <time>2018-10-04T09:26:32Z</time>
      </trkpt>
      <trkpt lat="43.47191" lon="16.70647">
        <ele>408.049</ele>
        <time>2018-10-04T09:26:52Z</time>
      </trkpt>
      <trkpt lat="43.47189" lon="16.7065">
        <ele>408.079</ele>
        <time>2018-10-04T09:27:12Z</time>
      </trkpt>
      <trkpt lat="43.47183" lon="16.70662">
        <ele>407.058</ele>
        <time>2018-10-04T09:27:32Z</time>
      </trkpt>
      <trkpt lat="43.47182" lon="16.70665">
        <ele>407.029</ele>
        <time>2018-10-04T09:27:52Z</time>
      </trkpt>
      <trkpt lat="43.47182" lon="16.70667">
        <ele>406</ele>
        <time>2018-10-04T09:28:12Z</time>
      </trkpt>
      <trkpt lat="43.47175" lon="16.70672">
        <ele>405.02</ele>
        <time>2018-10-04T09:28:32Z</time>
      </trkpt>
      <trkpt lat="43.47172" lon="16.70676">
        <ele>403.008</ele>
        <time>2018-10-04T09:28:52Z</time>
      </trkpt>
      <trkpt lat="43.47166" lon="16.70683">
        <ele>402.054</ele>
        <time>2018-10-04T09:29:12Z</time>
      </trkpt>
      <trkpt lat="43.47154" lon="16.70696">
        <ele>400.041</ele>
        <time>2018-10-04T09:29:32Z</time>
      </trkpt>
      <trkpt lat="43.47152" lon="16.70704">
        <ele>399.044</ele>
        <time>2018-10-04T09:29:52Z</time>
      </trkpt>
      <trkpt lat="43.47144" lon="16.70718">
        <ele>397.066</ele>
        <time>2018-10-04T09:30:12Z</time>
      </trkpt>
      <trkpt lat="43.47141" lon="16.70725">
        <ele>396.064</ele>
        <time>2018-10-04T09:30:32Z</time>
      </trkpt>
      <trkpt lat="43.47136" lon="16.7073">
        <ele>395.075</ele>
        <time>2018-10-04T09:30:52Z</time>
      </trkpt>
      <trkpt lat="43.4713" lon="16.70736">
        <ele>394.075</ele>
        <time>2018-10-04T09:31:12Z</time>
      </trkpt>
      <trkpt lat="43.47121" lon="16.70747">
        <ele>393.064</ele>
        <time>2018-10-04T09:31:32Z</time>
      </trkpt>
      <trkpt lat="43.47118" lon="16.70751">
        <ele>392.097</ele>
        <time>2018-10-04T09:31:52Z</time>
      </trkpt>
      <trkpt lat="43.47111" lon="16.70765">
        <ele>391.023</ele>
        <time>2018-10-04T09:32:12Z</time>
      </trkpt>
      <trkpt lat="43.47109" lon="16.70769">
        <ele>390.025</ele>
        <time>2018-10-04T09:32:32Z</time>
      </trkpt>
      <trkpt lat="43.47107" lon="16.70774">
        <ele>390.008</ele>
        <time>2018-10-04T09:32:52Z</time>
      </trkpt>
      <trkpt lat="43.471" lon="16.70781">
        <ele>389.021</ele>
        <time>2018-10-04T09:33:12Z</time>
      </trkpt>
      <trkpt lat="43.47088" lon="16.70791">
        <ele>388.088</ele>
        <time>2018-10-04T09:33:32Z</time>
      </trkpt>
      <trkpt lat="43.47075" lon="16.70798">
        <ele>386.081</ele>
        <time>2018-10-04T09:33:52Z</time>
      </trkpt>
      <trkpt lat="43.47069" lon="16.70802">
        <ele>385.093</ele>
        <time>2018-10-04T09:34:12Z</time>
      </trkpt>
      <trkpt lat="43.47064" lon="16.70804">
        <ele>383.081</ele>
        <time>2018-10-04T09:34:32Z</time>
      </trkpt>
      <trkpt lat="43.47058" lon="16.70807">
        <ele>382.042</ele>
        <time>2018-10-04T09:34:52Z</time>
      </trkpt>
      <trkpt lat="43.47046" lon="16.70811">
        <ele>380.082</ele>
        <time>2018-10-04T09:35:12Z</time>
      </trkpt>
      <trkpt lat="43.47044" lon="16.70811">
        <ele>380.081</ele>
        <time>2018-10-04T09:35:32Z</time>
      </trkpt>
      <trkpt lat="43.47043" lon="16.70811">
        <ele>379.011</ele>
        <time>2018-10-04T09:35:52Z</time>
      </trkpt>
      <trkpt lat="43.47041" lon="16.70812">
        <ele>379.021</ele>
        <time>2018-10-04T09:36:12Z</time>
      </trkpt>
      <trkpt lat="43.47037" lon="16.70815">
        <ele>378.003</ele>
        <time>2018-10-04T09:36:32Z</time>
      </trkpt>
      <trkpt lat="43.4703" lon="16.70816">
        <ele>376.008</ele>
        <time>2018-10-04T09:36:52Z</time>
      </trkpt>
      <trkpt lat="43.47029" lon="16.70816">
        <ele>376.093</ele>
        <time>2018-10-04T09:37:12Z</time>
      </trkpt>
      <trkpt lat="43.47021" lon="16.70822">
        <ele>374.03</ele>
        <time>2018-10-04T09:37:32Z</time>
      </trkpt>
      <trkpt lat="43.47018" lon="16.70824">
        <ele>373.023</ele>
        <time>2018-10-04T09:37:52Z</time>
      </trkpt>
      <trkpt lat="43.47014" lon="16.70827">
        <ele>372.065</ele>
        <time>2018-10-04T09:38:12Z</time>
      </trkpt>
      <trkpt lat="43.4701" lon="16.7083">
        <ele>371.053</ele>
        <time>2018-10-04T09:38:32Z</time>
      </trkpt>
      <trkpt lat="43.47005" lon="16.70833">
        <ele>369.014</ele>
        <time>2018-10-04T09:38:52Z</time>
      </trkpt>
      <trkpt lat="43.47002" lon="16.70834">
        <ele>368.054</ele>
        <time>2018-10-04T09:39:12Z</time>
      </trkpt>
      <trkpt lat="43.47001" lon="16.70834">
        <ele>368.073</ele>
        <time>2018-10-04T09:39:32Z</time>
      </trkpt>
      <trkpt lat="43.46994" lon="16.70829">
        <ele>367.076</ele>
        <time>2018-10-04T09:39:52Z</time>
      </trkpt>
      <trkpt lat="43.46991" lon="16.70827">
        <ele>367.09</ele>
        <time>2018-10-04T09:40:12Z</time>
      </trkpt>
      <trkpt lat="43.46984" lon="16.70824">
        <ele>365.019</ele>
        <time>2018-10-04T09:40:32Z</time>
      </trkpt>
      <trkpt lat="43.46976" lon="16.70823">
        <ele>364.008</ele>
        <time>2018-10-04T09:40:52Z</time>
      </trkpt>
      <trkpt lat="43.4697" lon="16.70853">
        <ele>361.079</ele>
        <time>2018-10-04T09:41:12Z</time>
      </trkpt>
      <trkpt lat="43.4696" lon="16.70877">
        <ele>360.076</ele>
        <time>2018-10-04T09:41:32Z</time>
      </trkpt>
      <trkpt lat="43.46949" lon="16.70885">
        <ele>360.019</ele>
        <time>2018-10-04T09:41:52Z</time>
      </trkpt>
      <trkpt lat="43.46944" lon="16.70887">
        <ele>359.061</ele>
        <time>2018-10-04T09:42:12Z</time>
      </trkpt>
      <trkpt lat="43.46936" lon="16.70891">
        <ele>357.039</ele>
        <time>2018-10-04T09:42:32Z</time>
      </trkpt>
      <trkpt lat="43.4692" lon="16.70906">
        <ele>357.06</ele>
        <time>2018-10-04T09:42:52Z</time>
      </trkpt>
      <trkpt lat="43.46903" lon="16.70919">
        <ele>358.04</ele>
        <time>2018-10-04T09:43:12Z</time>
      </trkpt>
      <trkpt lat="43.46887" lon="16.70937">
        <ele>359.069</ele>
        <time>2018-10-04T09:43:32Z</time>
      </trkpt>
      <trkpt lat="43.46875" lon="16.70957">
        <ele>358.069</ele>
        <time>2018-10-04T09:43:52Z</time>
      </trkpt>
      <trkpt lat="43.4687" lon="16.70964">
        <ele>357.004</ele>
        <time>2018-10-04T09:44:12Z</time>
      </trkpt>
      <trkpt lat="43.46868" lon="16.70968">
        <ele>357.024</ele>
        <time>2018-10-04T09:44:32Z</time>
      </trkpt>
      <trkpt lat="43.46865" lon="16.7097">
        <ele>356.008</ele>
        <time>2018-10-04T09:44:52Z</time>
      </trkpt>
      <trkpt lat="43.4686" lon="16.7098">
        <ele>355.048</ele>
        <time>2018-10-04T09:45:12Z</time>
      </trkpt>
      <trkpt lat="43.46856" lon="16.70991">
        <ele>354.045</ele>
        <time>2018-10-04T09:45:32Z</time>
      </trkpt>
      <trkpt lat="43.46853" lon="16.71005">
        <ele>353.068</ele>
        <time>2018-10-04T09:45:52Z</time>
      </trkpt>
      <trkpt lat="43.46849" lon="16.7102">
        <ele>352.08</ele>
        <time>2018-10-04T09:46:12Z</time>
      </trkpt>
      <trkpt lat="43.46839" lon="16.7104">
        <ele>351.078</ele>
        <time>2018-10-04T09:46:32Z</time>
      </trkpt>
      <trkpt lat="43.46831" lon="16.71064">
        <ele>351.059</ele>
        <time>2018-10-04T09:46:52Z</time>
      </trkpt>
      <trkpt lat="43.46822" lon="16.7109">
        <ele>351.029</ele>
        <time>2018-10-04T09:47:12Z</time>
      </trkpt>
      <trkpt lat="43.46813" lon="16.71113">
        <ele>350.018</ele>
        <time>2018-10-04T09:47:32Z</time>
      </trkpt>
      <trkpt lat="43.46796" lon="16.7114">
        <ele>350.092</ele>
        <time>2018-10-04T09:47:52Z</time>
      </trkpt>
      <trkpt lat="43.46785" lon="16.71148">
        <ele>349.073</ele>
        <time>2018-10-04T09:48:12Z</time>
      </trkpt>
      <trkpt lat="43.46778" lon="16.71151">
        <ele>347.02</ele>
        <time>2018-10-04T09:48:32Z</time>
      </trkpt>
      <trkpt lat="43.46768" lon="16.71153">
        <ele>346.008</ele>
        <time>2018-10-04T09:48:52Z</time>
      </trkpt>
      <trkpt lat="43.46763" lon="16.7115">
        <ele>345.011</ele>
        <time>2018-10-04T09:49:12Z</time>
      </trkpt>
      <trkpt lat="43.46754" lon="16.71135">
        <ele>343.088</ele>
        <time>2018-10-04T09:49:32Z</time>
      </trkpt>
      <trkpt lat="43.46749" lon="16.71122">
        <ele>342.031</ele>
        <time>2018-10-04T09:49:52Z</time>
      </trkpt>
      <trkpt lat="43.46746" lon="16.71113">
        <ele>340.073</ele>
        <time>2018-10-04T09:50:12Z</time>
      </trkpt>
      <trkpt lat="43.46741" lon="16.71103">
        <ele>339.061</ele>
        <time>2018-10-04T09:50:32Z</time>
      </trkpt>
      <trkpt lat="43.46733" lon="16.7109">
        <ele>337.052</ele>
        <time>2018-10-04T09:50:52Z</time>
      </trkpt>
      <trkpt lat="43.46726" lon="16.71077">
        <ele>336.072</ele>
        <time>2018-10-04T09:51:12Z</time>
      </trkpt>
      <trkpt lat="43.46723" lon="16.7107">
        <ele>335.041</ele>
        <time>2018-10-04T09:51:32Z</time>
      </trkpt>
      <trkpt lat="43.46721" lon="16.71067">
        <ele>335.094</ele>
        <time>2018-10-04T09:51:52Z</time>
      </trkpt>
      <trkpt lat="43.46718" lon="16.71063">
        <ele>334.057</ele>
        <time>2018-10-04T09:52:12Z</time>
      </trkpt>
      <trkpt lat="43.46716" lon="16.71058">
        <ele>333.022</ele>
        <time>2018-10-04T09:52:32Z</time>
      </trkpt>
      <trkpt lat="43.46712" lon="16.71052">
        <ele>332.008</ele>
        <time>2018-10-04T09:52:52Z</time>
      </trkpt>
      <trkpt lat="43.46707" lon="16.71048">
        <ele>331.061</ele>
        <time>2018-10-04T09:53:12Z</time>
      </trkpt>
      <trkpt lat="43.46695" lon="16.71032">
        <ele>328.078</ele>
        <time>2018-10-04T09:53:32Z</time>
      </trkpt>
      <trkpt lat="43.46685" lon="16.71023">
        <ele>326.041</ele>
        <time>2018-10-04T09:53:52Z</time>
      </trkpt>
      <trkpt lat="43.46681" lon="16.71021">
        <ele>325.063</ele>
        <time>2018-10-04T09:54:12Z</time>
      </trkpt>
      <trkpt lat="43.46675" lon="16.71018">
        <ele>324.091</ele>
        <time>2018-10-04T09:54:32Z</time>
      </trkpt>
      <trkpt lat="43.46664" lon="16.71015">
        <ele>323.032</ele>
        <time>2018-10-04T09:54:52Z</time>
      </trkpt>
      <trkpt lat="43.46658" lon="16.7101">
        <ele>322.032</ele>
        <time>2018-10-04T09:55:12Z</time>
      </trkpt>
      <trkpt lat="43.46652" lon="16.71004">
        <ele>321.081</ele>
        <time>2018-10-04T09:55:32Z</time>
      </trkpt>
      <trkpt lat="43.46639" lon="16.70992">
        <ele>318.035</ele>
        <time>2018-10-04T09:55:52Z</time>
      </trkpt>
      <trkpt lat="43.46632" lon="16.70984">
        <ele>317.086</ele>
        <time>2018-10-04T09:56:12Z</time>
      </trkpt>
      <trkpt lat="43.46625" lon="16.70976">
        <ele>316.014</ele>
        <time>2018-10-04T09:56:32Z</time>
      </trkpt>
      <trkpt lat="43.46619" lon="16.70967">
        <ele>315.008</ele>
        <time>2018-10-04T09:56:52Z</time>
      </trkpt>
      <trkpt lat="43.46615" lon="16.70966">
        <ele>314.015</ele>
        <time>2018-10-04T09:57:12Z</time>
      </trkpt>
      <trkpt lat="43.46614" lon="16.70966">
        <ele>314.062</ele>
        <time>2018-10-04T09:57:32Z</time>
      </trkpt>
      <trkpt lat="43.46604" lon="16.70969">
        <ele>311.015</ele>
        <time>2018-10-04T09:57:52Z</time>
      </trkpt>
      <trkpt lat="43.46602" lon="16.70969">
        <ele>311.047</ele>
        <time>2018-10-04T09:58:12Z</time>
      </trkpt>
      <trkpt lat="43.46589" lon="16.70966">
        <ele>309.055</ele>
        <time>2018-10-04T09:58:32Z</time>
      </trkpt>
      <trkpt lat="43.46581" lon="16.70966">
        <ele>308.036</ele>
        <time>2018-10-04T09:58:52Z</time>
      </trkpt>
      <trkpt lat="43.46581" lon="16.70971">
        <ele>307.046</ele>
        <time>2018-10-04T09:59:12Z</time>
      </trkpt>
      <trkpt lat="43.4658" lon="16.70974">
        <ele>307.055</ele>
        <time>2018-10-04T09:59:32Z</time>
      </trkpt>
      <trkpt lat="43.46581" lon="16.70974">
        <ele>308.048</ele>
        <time>2018-10-04T09:59:52Z</time>
      </trkpt>
      <trkpt lat="43.4658" lon="16.70988">
        <ele>309.061</ele>
        <time>2018-10-04T10:00:12Z</time>
      </trkpt>
      <trkpt lat="43.4658" lon="16.71001">
        <ele>310.017</ele>
        <time>2018-10-04T10:00:32Z</time>
      </trkpt>
      <trkpt lat="43.46577" lon="16.71011">
        <ele>311.008</ele>
        <time>2018-10-04T10:00:52Z</time>
      </trkpt>
      <trkpt lat="43.46572" lon="16.7103">
        <ele>314.096</ele>
        <time>2018-10-04T10:01:12Z</time>
      </trkpt>
      <trkpt lat="43.46568" lon="16.71041">
        <ele>315.073</ele>
        <time>2018-10-04T10:01:32Z</time>
      </trkpt>
      <trkpt lat="43.4656" lon="16.71064">
        <ele>315.016</ele>
        <time>2018-10-04T10:01:52Z</time>
      </trkpt>
      <trkpt lat="43.46558" lon="16.71089">
        <ele>314.068</ele>
        <time>2018-10-04T10:02:12Z</time>
      </trkpt>
      <trkpt lat="43.46557" lon="16.71107">
        <ele>313.096</ele>
        <time>2018-10-04T10:02:32Z</time>
      </trkpt>
      <trkpt lat="43.46554" lon="16.71124">
        <ele>313.027</ele>
        <time>2018-10-04T10:02:52Z</time>
      </trkpt>
      <trkpt lat="43.4655" lon="16.71135">
        <ele>312.057</ele>
        <time>2018-10-04T10:03:12Z</time>
      </trkpt>
      <trkpt lat="43.46546" lon="16.71141">
        <ele>312.076</ele>
        <time>2018-10-04T10:03:32Z</time>
      </trkpt>
      <trkpt lat="43.46543" lon="16.71148">
        <ele>312.043</ele>
        <time>2018-10-04T10:03:52Z</time>
      </trkpt>
      <trkpt lat="43.46538" lon="16.71162">
        <ele>311.064</ele>
        <time>2018-10-04T10:04:12Z</time>
      </trkpt>
      <trkpt lat="43.46532" lon="16.71165">
        <ele>311.01</ele>
        <time>2018-10-04T10:04:32Z</time>
      </trkpt>
      <trkpt lat="43.4653" lon="16.71172">
        <ele>310.008</ele>
        <time>2018-10-04T10:04:52Z</time>
      </trkpt>
      <trkpt lat="43.46523" lon="16.71181">
        <ele>310.046</ele>
        <time>2018-10-04T10:05:12Z</time>
      </trkpt>
      <trkpt lat="43.4651" lon="16.71195">
        <ele>309.013</ele>
        <time>2018-10-04T10:05:32Z</time>
      </trkpt>
      <trkpt lat="43.46508" lon="16.71197">
        <ele>309.056</ele>
        <time>2018-10-04T10:05:52Z</time>
      </trkpt>
      <trkpt lat="43.46507" lon="16.71198">
        <ele>309.078</ele>
        <time>2018-10-04T10:06:12Z</time>
      </trkpt>
      <trkpt lat="43.46495" lon="16.71203">
        <ele>307.046</ele>
        <time>2018-10-04T10:06:32Z</time>
      </trkpt>
      <trkpt lat="43.46492" lon="16.71204">
        <ele>307.017</ele>
        <time>2018-10-04T10:06:52Z</time>
      </trkpt>
      <trkpt lat="43.46478" lon="16.71202">
        <ele>304.077</ele>
        <time>2018-10-04T10:07:12Z</time>
      </trkpt>
      <trkpt lat="43.46466" lon="16.71199">
        <ele>303.066</ele>
        <time>2018-10-04T10:07:32Z</time>
      </trkpt>
      <trkpt lat="43.46456" lon="16.71196">
        <ele>302.044</ele>
        <time>2018-10-04T10:07:52Z</time>
      </trkpt>
      <trkpt lat="43.46445" lon="16.71192">
        <ele>301.005</ele>
        <time>2018-10-04T10:08:12Z</time>
      </trkpt>
      <trkpt lat="43.46435" lon="16.71187">
        <ele>300.015</ele>
        <time>2018-10-04T10:08:32Z</time>
      </trkpt>
      <trkpt lat="43.46425" lon="16.71179">
        <ele>300.008</ele>
        <time>2018-10-04T10:08:52Z</time>
      </trkpt>
      <trkpt lat="43.46414" lon="16.71171">
        <ele>299.076</ele>
        <time>2018-10-04T10:09:12Z</time>
      </trkpt>
      <trkpt lat="43.46409" lon="16.7117">
        <ele>299.043</ele>
        <time>2018-10-04T10:09:32Z</time>
      </trkpt>
      <trkpt lat="43.46403" lon="16.71176">
        <ele>298.096</ele>
        <time>2018-10-04T10:09:52Z</time>
      </trkpt>
      <trkpt lat="43.464" lon="16.71179">
        <ele>298.058</ele>
        <time>2018-10-04T10:10:12Z</time>
      </trkpt>
      <trkpt lat="43.46384" lon="16.71193">
        <ele>297.086</ele>
        <time>2018-10-04T10:10:32Z</time>
      </trkpt>
      <trkpt lat="43.46371" lon="16.71194">
        <ele>297.037</ele>
        <time>2018-10-04T10:10:52Z</time>
      </trkpt>
      <trkpt lat="43.46371" lon="16.71194">
        <ele>297.097</ele>
        <time>2018-10-04T10:11:12Z</time>
      </trkpt>
      <trkpt lat="43.46375" lon="16.71223">
        <ele>284.096</ele>
        <time>2018-10-04T10:11:32Z</time>
      </trkpt>
      <trkpt lat="43.46375" lon="16.71249">
        <ele>284.024</ele>
        <time>2018-10-04T10:11:52Z</time>
      </trkpt>
      <trkpt lat="43.4637" lon="16.71277">
        <ele>285.004</ele>
        <time>2018-10-04T10:12:12Z</time>
      </trkpt>
      <trkpt lat="43.46366" lon="16.71303">
        <ele>285.014</ele>
        <time>2018-10-04T10:12:32Z</time>
      </trkpt>
      <trkpt lat="43.46366" lon="16.7133">
        <ele>285.008</ele>
        <time>2018-10-04T10:12:52Z</time>
      </trkpt>
      <trkpt lat="43.46358" lon="16.71334">
        <ele>283.014</ele>
        <time>2018-10-04T10:13:12Z</time>
      </trkpt>
      <trkpt lat="43.46353" lon="16.71331">
        <ele>283.021</ele>
        <time>2018-10-04T10:13:32Z</time>
      </trkpt>
      <trkpt lat="43.46348" lon="16.71329">
        <ele>282.034</ele>
        <time>2018-10-04T10:13:52Z</time>
      </trkpt>
      <trkpt lat="43.46344" lon="16.71328">
        <ele>282.096</ele>
        <time>2018-10-04T10:14:12Z</time>
      </trkpt>
      <trkpt lat="43.46342" lon="16.71327">
        <ele>281.064</ele>
        <time>2018-10-04T10:14:32Z</time>
      </trkpt>
      <trkpt lat="43.46339" lon="16.71325">
        <ele>281.085</ele>
        <time>2018-10-04T10:14:52Z</time>
      </trkpt>
      <trkpt lat="43.46323" lon="16.71311">
        <ele>281.055</ele>
        <time>2018-10-04T10:15:12Z</time>
      </trkpt>
      <trkpt lat="43.46313" lon="16.71301">
        <ele>279.034</ele>
        <time>2018-10-04T10:15:32Z</time>
      </trkpt>
      <trkpt lat="43.46304" lon="16.71293">
        <ele>278.038</ele>
        <time>2018-10-04T10:15:52Z</time>
      </trkpt>
      <trkpt lat="43.46289" lon="16.71303">
        <ele>278.07</ele>
        <time>2018-10-04T10:16:12Z</time>
      </trkpt>
      <trkpt lat="43.46279" lon="16.71326">
        <ele>279.017</ele>
        <time>2018-10-04T10:16:32Z</time>
      </trkpt>
      <trkpt lat="43.46267" lon="16.71348">
        <ele>280.008</ele>
        <time>2018-10-04T10:16:52Z</time>
      </trkpt>
      <trkpt lat="43.46257" lon="16.71369">
        <ele>279.045</ele>
        <time>2018-10-04T10:17:12Z</time>
      </trkpt>
      <trkpt lat="43.46253" lon="16.71387">
        <ele>281.012</ele>
        <time>2018-10-04T10:17:32Z</time>
      </trkpt>
      <trkpt lat="43.46253" lon="16.71411">
        <ele>281.025</ele>
        <time>2018-10-04T10:17:52Z</time>
      </trkpt>
      <trkpt lat="43.46248" lon="16.71442">
        <ele>282.087</ele>
        <time>2018-10-04T10:18:12Z</time>
      </trkpt>
      <trkpt lat="43.4624" lon="16.71464">
        <ele>281.015</ele>
        <time>2018-10-04T10:18:32Z</time>
      </trkpt>
      <trkpt lat="43.46234" lon="16.71488">
        <ele>281.046</ele>
        <time>2018-10-04T10:18:52Z</time>
      </trkpt>
      <trkpt lat="43.4623" lon="16.71506">
        <ele>281.056</ele>
        <time>2018-10-04T10:19:12Z</time>
      </trkpt>
      <trkpt lat="43.46231" lon="16.71523">
        <ele>280.085</ele>
        <time>2018-10-04T10:19:32Z</time>
      </trkpt>
      <trkpt lat="43.46228" lon="16.71523">
        <ele>281.074</ele>
        <time>2018-10-04T10:19:52Z</time>
      </trkpt>
      <trkpt lat="43.46229" lon="16.71522">
        <ele>279.056</ele>
        <time>2018-10-04T10:20:12Z</time>
      </trkpt>
      <trkpt lat="43.46227" lon="16.71521">
        <ele>280.021</ele>
        <time>2018-10-04T10:20:32Z</time>
      </trkpt>
      <trkpt lat="43.46226" lon="16.7153">
        <ele>281.008</ele>
        <time>2018-10-04T10:20:52Z</time>
      </trkpt>
      <trkpt lat="43.46226" lon="16.71556">
        <ele>280.019</ele>
        <time>2018-10-04T10:21:12Z</time>
      </trkpt>
      <trkpt lat="43.4622" lon="16.71579">
        <ele>281.016</ele>
        <time>2018-10-04T10:21:32Z</time>
      </trkpt>
      <trkpt lat="43.46219" lon="16.71599">
        <ele>282.049</ele>
        <time>2018-10-04T10:21:52Z</time>
      </trkpt>
      <trkpt lat="43.46215" lon="16.71625">
        <ele>282.041</ele>
        <time>2018-10-04T10:22:12Z</time>
      </trkpt>
      <trkpt lat="43.46206" lon="16.71646">
        <ele>282.079</ele>
        <time>2018-10-04T10:22:32Z</time>
      </trkpt>
      <trkpt lat="43.46196" lon="16.71667">
        <ele>282.06</ele>
        <time>2018-10-04T10:22:52Z</time>
      </trkpt>
      <trkpt lat="43.46188" lon="16.71691">
        <ele>281.09</ele>
        <time>2018-10-04T10:23:12Z</time>
      </trkpt>
      <trkpt lat="43.46181" lon="16.71714">
        <ele>281.039</ele>
        <time>2018-10-04T10:23:32Z</time>
      </trkpt>
      <trkpt lat="43.46175" lon="16.71738">
        <ele>281.025</ele>
        <time>2018-10-04T10:23:52Z</time>
      </trkpt>
      <trkpt lat="43.46164" lon="16.71758">
        <ele>281.026</ele>
        <time>2018-10-04T10:24:12Z</time>
      </trkpt>
      <trkpt lat="43.46146" lon="16.7176">
        <ele>281.008</ele>
        <time>2018-10-04T10:24:32Z</time>
      </trkpt>
      <trkpt lat="43.4614" lon="16.71761">
        <ele>281.008</ele>
        <time>2018-10-04T10:24:52Z</time>
      </trkpt>
      <trkpt lat="43.46126" lon="16.71777">
        <ele>280.014</ele>
        <time>2018-10-04T10:25:12Z</time>
      </trkpt>
      <trkpt lat="43.46111" lon="16.71801">
        <ele>280.051</ele>
        <time>2018-10-04T10:25:32Z</time>
      </trkpt>
      <trkpt lat="43.46108" lon="16.71806">
        <ele>280.054</ele>
        <time>2018-10-04T10:25:52Z</time>
      </trkpt>
      <trkpt lat="43.4609" lon="16.71819">
        <ele>279.026</ele>
        <time>2018-10-04T10:26:12Z</time>
      </trkpt>
      <trkpt lat="43.46073" lon="16.71808">
        <ele>278.024</ele>
        <time>2018-10-04T10:26:32Z</time>
      </trkpt>
      <trkpt lat="43.46061" lon="16.71792">
        <ele>277.035</ele>
        <time>2018-10-04T10:26:52Z</time>
      </trkpt>
      <trkpt lat="43.46061" lon="16.71779">
        <ele>277.035</ele>
        <time>2018-10-04T10:27:12Z</time>
      </trkpt>
      <trkpt lat="43.46056" lon="16.71748">
        <ele>276.054</ele>
        <time>2018-10-04T10:27:32Z</time>
      </trkpt>
      <trkpt lat="43.46054" lon="16.71739">
        <ele>276.047</ele>
        <time>2018-10-04T10:27:52Z</time>
      </trkpt>
      <trkpt lat="43.4605" lon="16.71716">
        <ele>275.029</ele>
        <time>2018-10-04T10:28:12Z</time>
      </trkpt>
      <trkpt lat="43.46042" lon="16.71684">
        <ele>274.021</ele>
        <time>2018-10-04T10:28:32Z</time>
      </trkpt>
      <trkpt lat="43.4604" lon="16.71659">
        <ele>274.008</ele>
        <time>2018-10-04T10:28:52Z</time>
      </trkpt>
      <trkpt lat="43.4604" lon="16.71629">
        <ele>274.076</ele>
        <time>2018-10-04T10:29:12Z</time>
      </trkpt>
      <trkpt lat="43.4604" lon="16.71628">
        <ele>274.073</ele>
        <time>2018-10-04T10:29:32Z</time>
      </trkpt>
      <trkpt lat="43.46041" lon="16.71603">
        <ele>276.076</ele>
        <time>2018-10-04T10:29:52Z</time>
      </trkpt>
      <trkpt lat="43.46041" lon="16.71601">
        <ele>276.058</ele>
        <time>2018-10-04T10:30:12Z</time>
      </trkpt>
      <trkpt lat="43.4604" lon="16.71568">
        <ele>277.086</ele>
        <time>2018-10-04T10:30:32Z</time>
      </trkpt>
      <trkpt lat="43.4604" lon="16.71556">
        <ele>277.047</ele>
        <time>2018-10-04T10:30:52Z</time>
      </trkpt>
      <trkpt lat="43.46036" lon="16.71541">
        <ele>277.037</ele>
        <time>2018-10-04T10:31:12Z</time>
      </trkpt>
      <trkpt lat="43.46024" lon="16.71532">
        <ele>276.086</ele>
        <time>2018-10-04T10:31:32Z</time>
      </trkpt>
      <trkpt lat="43.46007" lon="16.71523">
        <ele>275.067</ele>
        <time>2018-10-04T10:31:52Z</time>
      </trkpt>
      <trkpt lat="43.45993" lon="16.71514">
        <ele>275.081</ele>
        <time>2018-10-04T10:32:12Z</time>
      </trkpt>
      <trkpt lat="43.45983" lon="16.71483">
        <ele>277.019</ele>
        <time>2018-10-04T10:32:32Z</time>
      </trkpt>
      <trkpt lat="43.45981" lon="16.71476">
        <ele>277.008</ele>
        <time>2018-10-04T10:32:52Z</time>
      </trkpt>
      <trkpt lat="43.4598" lon="16.7147">
        <ele>278.098</ele>
        <time>2018-10-04T10:33:12Z</time>
      </trkpt>
      <trkpt lat="43.4598" lon="16.71463">
        <ele>279.015</ele>
        <time>2018-10-04T10:33:32Z</time>
      </trkpt>
      <trkpt lat="43.4598" lon="16.71452">
        <ele>279.038</ele>
        <time>2018-10-04T10:33:52Z</time>
      </trkpt>
      <trkpt lat="43.45978" lon="16.71438">
        <ele>281.03</ele>
        <time>2018-10-04T10:34:12Z</time>
      </trkpt>
      <trkpt lat="43.45974" lon="16.7143">
        <ele>282.088</ele>
        <time>2018-10-04T10:34:32Z</time>
      </trkpt>
      <trkpt lat="43.45968" lon="16.71418">
        <ele>285.089</ele>
        <time>2018-10-04T10:34:52Z</time>
      </trkpt>
      <trkpt lat="43.45962" lon="16.71411">
        <ele>286.069</ele>
        <time>2018-10-04T10:35:12Z</time>
      </trkpt>
      <trkpt lat="43.45962" lon="16.714">
        <ele>287.078</ele>
        <time>2018-10-04T10:35:32Z</time>
      </trkpt>
      <trkpt lat="43.45956" lon="16.71396">
        <ele>287.022</ele>
        <time>2018-10-04T10:35:52Z</time>
      </trkpt>
      <trkpt lat="43.45956" lon="16.71391">
        <ele>288.062</ele>
        <time>2018-10-04T10:36:12Z</time>
      </trkpt>
      <trkpt lat="43.45949" lon="16.71377">
        <ele>290.008</ele>
        <time>2018-10-04T10:36:32Z</time>
      </trkpt>
      <trkpt lat="43.45941" lon="16.71372">
        <ele>292.008</ele>
        <time>2018-10-04T10:36:52Z</time>
      </trkpt>
      <trkpt lat="43.45934" lon="16.7138">
        <ele>293.064</ele>
        <time>2018-10-04T10:37:12Z</time>
      </trkpt>
      <trkpt lat="43.45929" lon="16.7138">
        <ele>296.071</ele>
        <time>2018-10-04T10:37:32Z</time>
      </trkpt>
      <trkpt lat="43.45927" lon="16.71376">
        <ele>298.074</ele>
        <time>2018-10-04T10:37:52Z</time>
      </trkpt>
      <trkpt lat="43.45924" lon="16.7137">
        <ele>299.026</ele>
        <time>2018-10-04T10:38:12Z</time>
      </trkpt>
      <trkpt lat="43.45909" lon="16.71359">
        <ele>301.034</ele>
        <time>2018-10-04T10:38:32Z</time>
      </trkpt>
      <trkpt lat="43.45904" lon="16.71354">
        <ele>302.055</ele>
        <time>2018-10-04T10:38:52Z</time>
      </trkpt>
      <trkpt lat="43.45901" lon="16.71349">
        <ele>303.095</ele>
        <time>2018-10-04T10:39:12Z</time>
      </trkpt>
      <trkpt lat="43.45896" lon="16.71338">
        <ele>304.044</ele>
        <time>2018-10-04T10:39:32Z</time>
      </trkpt>
      <trkpt lat="43.45892" lon="16.71328">
        <ele>305.039</ele>
        <time>2018-10-04T10:39:52Z</time>
      </trkpt>
      <trkpt lat="43.45887" lon="16.71312">
        <ele>307.001</ele>
        <time>2018-10-04T10:40:12Z</time>
      </trkpt>
      <trkpt lat="43.45889" lon="16.71304">
        <ele>310.021</ele>
        <time>2018-10-04T10:40:32Z</time>
      </trkpt>
      <trkpt lat="43.4589" lon="16.713">
        <ele>311.008</ele>
        <time>2018-10-04T10:40:52Z</time>
      </trkpt>
      <trkpt lat="43.45888" lon="16.71297">
        <ele>314.015</ele>
        <time>2018-10-04T10:41:12Z</time>
      </trkpt>
      <trkpt lat="43.45883" lon="16.71273">
        <ele>314.082</ele>
        <time>2018-10-04T10:41:32Z</time>
      </trkpt>
      <trkpt lat="43.45882" lon="16.71248">
        <ele>314.075</ele>
        <time>2018-10-04T10:41:52Z</time>
      </trkpt>
      <trkpt lat="43.45881" lon="16.71241">
        <ele>314.017</ele>
        <time>2018-10-04T10:42:12Z</time>
      </trkpt>
      <trkpt lat="43.45874" lon="16.71233">
        <ele>314.075</ele>
        <time>2018-10-04T10:42:32Z</time>
      </trkpt>
      <trkpt lat="43.45861" lon="16.71227">
        <ele>315.056</ele>
        <time>2018-10-04T10:42:52Z</time>
      </trkpt>
      <trkpt lat="43.45844" lon="16.71216">
        <ele>315.066</ele>
        <time>2018-10-04T10:43:12Z</time>
      </trkpt>
      <trkpt lat="43.45825" lon="16.71218">
        <ele>315.085</ele>
        <time>2018-10-04T10:43:32Z</time>
      </trkpt>
      <trkpt lat="43.45823" lon="16.71218">
        <ele>316.017</ele>
        <time>2018-10-04T10:43:52Z</time>
      </trkpt>
      <trkpt lat="43.45805" lon="16.71228">
        <ele>317.087</ele>
        <time>2018-10-04T10:44:12Z</time>
      </trkpt>
      <trkpt lat="43.45792" lon="16.71234">
        <ele>318.015</ele>
        <time>2018-10-04T10:44:32Z</time>
      </trkpt>
      <trkpt lat="43.45782" lon="16.71233">
        <ele>321.008</ele>
        <time>2018-10-04T10:44:52Z</time>
      </trkpt>
      <trkpt lat="43.45764" lon="16.71225">
        <ele>322.083</ele>
        <time>2018-10-04T10:45:12Z</time>
      </trkpt>
      <trkpt lat="43.45749" lon="16.71209">
        <ele>322.01</ele>
        <time>2018-10-04T10:45:32Z</time>
      </trkpt>
      <trkpt lat="43.45735" lon="16.71193">
        <ele>320.043</ele>
        <time>2018-10-04T10:45:52Z</time>
      </trkpt>
      <trkpt lat="43.45732" lon="16.71188">
        <ele>319.025</ele>
        <time>2018-10-04T10:46:12Z</time>
      </trkpt>
      <trkpt lat="43.45725" lon="16.71174">
        <ele>318.053</ele>
        <time>2018-10-04T10:46:32Z</time>
      </trkpt>
      <trkpt lat="43.45716" lon="16.7116">
        <ele>317.094</ele>
        <time>2018-10-04T10:46:52Z</time>
      </trkpt>
      <trkpt lat="43.45716" lon="16.71157">
        <ele>316.084</ele>
        <time>2018-10-04T10:47:12Z</time>
      </trkpt>
      <trkpt lat="43.45711" lon="16.7115">
        <ele>315.043</ele>
        <time>2018-10-04T10:47:32Z</time>
      </trkpt>
      <trkpt lat="43.45712" lon="16.71142">
        <ele>314.031</ele>
        <time>2018-10-04T10:47:52Z</time>
      </trkpt>
      <trkpt lat="43.45712" lon="16.71137">
        <ele>313.061</ele>
        <time>2018-10-04T10:48:12Z</time>
      </trkpt>
      <trkpt lat="43.45712" lon="16.71134">
        <ele>313.007</ele>
        <time>2018-10-04T10:48:32Z</time>
      </trkpt>
      <trkpt lat="43.45715" lon="16.71129">
        <ele>312.008</ele>
        <time>2018-10-04T10:48:52Z</time>
      </trkpt>
      <trkpt lat="43.45717" lon="16.71121">
        <ele>310.075</ele>
        <time>2018-10-04T10:49:12Z</time>
      </trkpt>
      <trkpt lat="43.45715" lon="16.71117">
        <ele>309.092</ele>
        <time>2018-10-04T10:49:32Z</time>
      </trkpt>
      <trkpt lat="43.45715" lon="16.71112">
        <ele>307.085</ele>
        <time>2018-10-04T10:49:52Z</time>
      </trkpt>
      <trkpt lat="43.45715" lon="16.7111">
        <ele>307.047</ele>
        <time>2018-10-04T10:50:12Z</time>
      </trkpt>
      <trkpt lat="43.45717" lon="16.71106">
        <ele>304.065</ele>
        <time>2018-10-04T10:50:32Z</time>
      </trkpt>
      <trkpt lat="43.45717" lon="16.71103">
        <ele>304.016</ele>
        <time>2018-10-04T10:50:52Z</time>
      </trkpt>
      <trkpt lat="43.45712" lon="16.711">
        <ele>303.076</ele>
        <time>2018-10-04T10:51:12Z</time>
      </trkpt>
      <trkpt lat="43.45709" lon="16.71099">
        <ele>302.015</ele>
        <time>2018-10-04T10:51:32Z</time>
      </trkpt>
      <trkpt lat="43.45711" lon="16.71096">
        <ele>301.012</ele>
        <time>2018-10-04T10:51:52Z</time>
      </trkpt>
      <trkpt lat="43.45712" lon="16.71095">
        <ele>301.032</ele>
        <time>2018-10-04T10:52:12Z</time>
      </trkpt>
      <trkpt lat="43.45715" lon="16.71088">
        <ele>300.005</ele>
        <time>2018-10-04T10:52:32Z</time>
      </trkpt>
      <trkpt lat="43.45715" lon="16.71086">
        <ele>299.008</ele>
        <time>2018-10-04T10:52:52Z</time>
      </trkpt>
      <trkpt lat="43.45721" lon="16.71076">
        <ele>298.033</ele>
        <time>2018-10-04T10:53:12Z</time>
      </trkpt>
      <trkpt lat="43.45731" lon="16.71064">
        <ele>295.04</ele>
        <time>2018-10-04T10:53:32Z</time>
      </trkpt>
      <trkpt lat="43.45737" lon="16.71055">
        <ele>294.073</ele>
        <time>2018-10-04T10:53:52Z</time>
      </trkpt>
      <trkpt lat="43.45745" lon="16.71035">
        <ele>293.035</ele>
        <time>2018-10-04T10:54:12Z</time>
      </trkpt>
      <trkpt lat="43.4575" lon="16.71026">
        <ele>292.083</ele>
        <time>2018-10-04T10:54:32Z</time>
      </trkpt>
      <trkpt lat="43.45752" lon="16.71015">
        <ele>290.064</ele>
        <time>2018-10-04T10:54:52Z</time>
      </trkpt>
      <trkpt lat="43.45754" lon="16.70999">
        <ele>289.054</ele>
        <time>2018-10-04T10:55:12Z</time>
      </trkpt>
      <trkpt lat="43.4575" lon="16.70981">
        <ele>288.053</ele>
        <time>2018-10-04T10:55:32Z</time>
      </trkpt>
      <trkpt lat="43.45747" lon="16.70972">
        <ele>287.075</ele>
        <time>2018-10-04T10:55:52Z</time>
      </trkpt>
      <trkpt lat="43.45744" lon="16.70962">
        <ele>286.028</ele>
        <time>2018-10-04T10:56:12Z</time>
      </trkpt>
      <trkpt lat="43.45734" lon="16.70949">
        <ele>285.02</ele>
        <time>2018-10-04T10:56:32Z</time>
      </trkpt>
      <trkpt lat="43.45728" lon="16.70939">
        <ele>284.008</ele>
        <time>2018-10-04T10:56:52Z</time>
      </trkpt>
      <trkpt lat="43.45724" lon="16.70936">
        <ele>283.099</ele>
        <time>2018-10-04T10:57:12Z</time>
      </trkpt>
      <trkpt lat="43.45713" lon="16.70924">
        <ele>283.076</ele>
        <time>2018-10-04T10:57:32Z</time>
      </trkpt>
      <trkpt lat="43.45701" lon="16.70903">
        <ele>284.029</ele>
        <time>2018-10-04T10:57:52Z</time>
      </trkpt>
      <trkpt lat="43.45693" lon="16.70891">
        <ele>285.011</ele>
        <time>2018-10-04T10:58:12Z</time>
      </trkpt>
      <trkpt lat="43.45689" lon="16.70879">
        <ele>286.069</ele>
        <time>2018-10-04T10:58:32Z</time>
      </trkpt>
      <trkpt lat="43.45683" lon="16.70855">
        <ele>286.07</ele>
        <time>2018-10-04T10:58:52Z</time>
      </trkpt>
      <trkpt lat="43.45686" lon="16.70843">
        <ele>283.09</ele>
        <time>2018-10-04T10:59:12Z</time>
      </trkpt>
      <trkpt lat="43.45687" lon="16.70842">
        <ele>282.039</ele>
        <time>2018-10-04T10:59:32Z</time>
      </trkpt>
      <trkpt lat="43.45686" lon="16.70841">
        <ele>282.094</ele>
        <time>2018-10-04T10:59:52Z</time>
      </trkpt>
      <trkpt lat="43.45689" lon="16.70839">
        <ele>282.057</ele>
        <time>2018-10-04T11:00:12Z</time>
      </trkpt>
      <trkpt lat="43.45689" lon="16.70835">
        <ele>281.022</ele>
        <time>2018-10-04T11:00:32Z</time>
      </trkpt>
      <trkpt lat="43.45688" lon="16.70834">
        <ele>280.008</ele>
        <time>2018-10-04T11:00:52Z</time>
      </trkpt>
      <trkpt lat="43.45687" lon="16.70833">
        <ele>280.071</ele>
        <time>2018-10-04T11:01:12Z</time>
      </trkpt>
      <trkpt lat="43.457" lon="16.70823">
        <ele>277.028</ele>
        <time>2018-10-04T11:01:32Z</time>
      </trkpt>
      <trkpt lat="43.45707" lon="16.70818">
        <ele>274.051</ele>
        <time>2018-10-04T11:01:52Z</time>
      </trkpt>
      <trkpt lat="43.45712" lon="16.70815">
        <ele>273.053</ele>
        <time>2018-10-04T11:02:12Z</time>
      </trkpt>
      <trkpt lat="43.45714" lon="16.7081">
        <ele>272.031</ele>
        <time>2018-10-04T11:02:32Z</time>
      </trkpt>
      <trkpt lat="43.45709" lon="16.7081">
        <ele>271.092</ele>
        <time>2018-10-04T11:02:52Z</time>
      </trkpt>
      <trkpt lat="43.45707" lon="16.70813">
        <ele>270.092</ele>
        <time>2018-10-04T11:03:12Z</time>
      </trkpt>
      <trkpt lat="43.45703" lon="16.70818">
        <ele>269.091</ele>
        <time>2018-10-04T11:03:32Z</time>
      </trkpt>
      <trkpt lat="43.45704" lon="16.70813">
        <ele>267.062</ele>
        <time>2018-10-04T11:03:52Z</time>
      </trkpt>
      <trkpt lat="43.45705" lon="16.70813">
        <ele>266.083</ele>
        <time>2018-10-04T11:04:12Z</time>
      </trkpt>
      <trkpt lat="43.45707" lon="16.70798">
        <ele>264.011</ele>
        <time>2018-10-04T11:04:32Z</time>
      </trkpt>
      <trkpt lat="43.45707" lon="16.70795">
        <ele>263.008</ele>
        <time>2018-10-04T11:04:52Z</time>
      </trkpt>
      <trkpt lat="43.45706" lon="16.70795">
        <ele>263.088</ele>
        <time>2018-10-04T11:05:12Z</time>
      </trkpt>
      <trkpt lat="43.45707" lon="16.70794">
        <ele>263.095</ele>
        <time>2018-10-04T11:05:32Z</time>
      </trkpt>
      <trkpt lat="43.45699" lon="16.70801">
        <ele>262.048</ele>
        <time>2018-10-04T11:05:52Z</time>
      </trkpt>
      <trkpt lat="43.45696" lon="16.70802">
        <ele>262.06</ele>
        <time>2018-10-04T11:06:12Z</time>
      </trkpt>
      <trkpt lat="43.45694" lon="16.70801">
        <ele>261.088</ele>
        <time>2018-10-04T11:06:32Z</time>
      </trkpt>
      <trkpt lat="43.45695" lon="16.70801">
        <ele>261.039</ele>
        <time>2018-10-04T11:06:52Z</time>
      </trkpt>
      <trkpt lat="43.45698" lon="16.70796">
        <ele>259.029</ele>
        <time>2018-10-04T11:07:12Z</time>
      </trkpt>
      <trkpt lat="43.45698" lon="16.70797">
        <ele>258.098</ele>
        <time>2018-10-04T11:07:32Z</time>
      </trkpt>
      <trkpt lat="43.45696" lon="16.70799">
        <ele>258.099</ele>
        <time>2018-10-04T11:07:52Z</time>
      </trkpt>
      <trkpt lat="43.45693" lon="16.70803">
        <ele>257.007</ele>
        <time>2018-10-04T11:08:12Z</time>
      </trkpt>
      <trkpt lat="43.45689" lon="16.70802">
        <ele>256.027</ele>
        <time>2018-10-04T11:08:32Z</time>
      </trkpt>
      <trkpt lat="43.45687" lon="16.70805">
        <ele>254.008</ele>
        <time>2018-10-04T11:08:52Z</time>
      </trkpt>
      <trkpt lat="43.45686" lon="16.70805">
        <ele>254.081</ele>
        <time>2018-10-04T11:09:12Z</time>
      </trkpt>
      <trkpt lat="43.45685" lon="16.70804">
        <ele>253.028</ele>
        <time>2018-10-04T11:09:32Z</time>
      </trkpt>
      <trkpt lat="43.45686" lon="16.708">
        <ele>252.011</ele>
        <time>2018-10-04T11:09:52Z</time>
      </trkpt>
      <trkpt lat="43.45685" lon="16.70798">
        <ele>251.063</ele>
        <time>2018-10-04T11:10:12Z</time>
      </trkpt>
      <trkpt lat="43.4568" lon="16.70807">
        <ele>248.081</ele>
        <time>2018-10-04T11:10:32Z</time>
      </trkpt>
      <trkpt lat="43.45679" lon="16.7081">
        <ele>246.092</ele>
        <time>2018-10-04T11:10:52Z</time>
      </trkpt>
      <trkpt lat="43.45676" lon="16.70815">
        <ele>245.052</ele>
        <time>2018-10-04T11:11:12Z</time>
      </trkpt>
      <trkpt lat="43.45675" lon="16.70815">
        <ele>245.051</ele>
        <time>2018-10-04T11:11:32Z</time>
      </trkpt>
      <trkpt lat="43.45673" lon="16.70815">
        <ele>244.037</ele>
        <time>2018-10-04T11:11:52Z</time>
      </trkpt>
      <trkpt lat="43.4567" lon="16.70808">
        <ele>242.049</ele>
        <time>2018-10-04T11:12:12Z</time>
      </trkpt>
      <trkpt lat="43.45671" lon="16.70799">
        <ele>240.013</ele>
        <time>2018-10-04T11:12:32Z</time>
      </trkpt>
      <trkpt lat="43.45673" lon="16.70787">
        <ele>238.008</ele>
        <time>2018-10-04T11:12:52Z</time>
      </trkpt>
      <trkpt lat="43.45678" lon="16.70773">
        <ele>235.055</ele>
        <time>2018-10-04T11:13:12Z</time>
      </trkpt>
      <trkpt lat="43.45679" lon="16.70768">
        <ele>234.092</ele>
        <time>2018-10-04T11:13:32Z</time>
      </trkpt>
      <trkpt lat="43.45677" lon="16.70771">
        <ele>232.045</ele>
        <time>2018-10-04T11:13:52Z</time>
      </trkpt>
      <trkpt lat="43.45675" lon="16.70775">
        <ele>231.057</ele>
        <time>2018-10-04T11:14:12Z</time>
      </trkpt>
      <trkpt lat="43.45675" lon="16.70776">
        <ele>231.035</ele>
        <time>2018-10-04T11:14:32Z</time>
      </trkpt>
      <trkpt lat="43.4567" lon="16.70781">
        <ele>230.076</ele>
        <time>2018-10-04T11:14:52Z</time>
      </trkpt>
      <trkpt lat="43.45668" lon="16.70777">
        <ele>229.066</ele>
        <time>2018-10-04T11:15:12Z</time>
      </trkpt>
      <trkpt lat="43.45673" lon="16.70768">
        <ele>227.065</ele>
        <time>2018-10-04T11:15:32Z</time>
      </trkpt>
      <trkpt lat="43.45677" lon="16.70752">
        <ele>225.083</ele>
        <time>2018-10-04T11:15:52Z</time>
      </trkpt>
      <trkpt lat="43.45679" lon="16.70737">
        <ele>223.025</ele>
        <time>2018-10-04T11:16:12Z</time>
      </trkpt>
      <trkpt lat="43.45685" lon="16.70721">
        <ele>220.017</ele>
        <time>2018-10-04T11:16:32Z</time>
      </trkpt>
      <trkpt lat="43.45687" lon="16.70717">
        <ele>219.008</ele>
        <time>2018-10-04T11:16:52Z</time>
      </trkpt>
      <trkpt lat="43.45688" lon="16.70714">
        <ele>218.06</ele>
        <time>2018-10-04T11:17:12Z</time>
      </trkpt>
      <trkpt lat="43.45681" lon="16.70719">
        <ele>216.057</ele>
        <time>2018-10-04T11:17:32Z</time>
      </trkpt>
      <trkpt lat="43.45673" lon="16.70727">
        <ele>214.09</ele>
        <time>2018-10-04T11:17:52Z</time>
      </trkpt>
      <trkpt lat="43.45667" lon="16.70737">
        <ele>211.062</ele>
        <time>2018-10-04T11:18:12Z</time>
      </trkpt>
      <trkpt lat="43.45664" lon="16.70742">
        <ele>209.05</ele>
        <time>2018-10-04T11:18:32Z</time>
      </trkpt>
      <trkpt lat="43.4566" lon="16.70748">
        <ele>208.061</ele>
        <time>2018-10-04T11:18:52Z</time>
      </trkpt>
      <trkpt lat="43.45657" lon="16.70759">
        <ele>205.041</ele>
        <time>2018-10-04T11:19:12Z</time>
      </trkpt>
      <trkpt lat="43.45654" lon="16.70773">
        <ele>203.03</ele>
        <time>2018-10-04T11:19:32Z</time>
      </trkpt>
      <trkpt lat="43.45651" lon="16.70781">
        <ele>201.035</ele>
        <time>2018-10-04T11:19:52Z</time>
      </trkpt>
      <trkpt lat="43.45649" lon="16.70786">
        <ele>201.086</ele>
        <time>2018-10-04T11:20:12Z</time>
      </trkpt>
      <trkpt lat="43.45646" lon="16.7078">
        <ele>199.014</ele>
        <time>2018-10-04T11:20:32Z</time>
      </trkpt>
      <trkpt lat="43.45645" lon="16.70768">
        <ele>198.008</ele>
        <time>2018-10-04T11:20:52Z</time>
      </trkpt>
      <trkpt lat="43.45645" lon="16.70757">
        <ele>197.045</ele>
        <time>2018-10-04T11:21:12Z</time>
      </trkpt>
      <trkpt lat="43.45645" lon="16.7075">
        <ele>196.092</ele>
        <time>2018-10-04T11:21:32Z</time>
      </trkpt>
      <trkpt lat="43.45641" lon="16.70759">
        <ele>194.075</ele>
        <time>2018-10-04T11:21:52Z</time>
      </trkpt>
      <trkpt lat="43.45636" lon="16.70773">
        <ele>192.027</ele>
        <time>2018-10-04T11:22:12Z</time>
      </trkpt>
      <trkpt lat="43.45629" lon="16.70787">
        <ele>189.095</ele>
        <time>2018-10-04T11:22:32Z</time>
      </trkpt>
      <trkpt lat="43.45626" lon="16.70794">
        <ele>188.046</ele>
        <time>2018-10-04T11:22:52Z</time>
      </trkpt>
      <trkpt lat="43.45624" lon="16.70803">
        <ele>187.096</ele>
        <time>2018-10-04T11:23:12Z</time>
      </trkpt>
      <trkpt lat="43.45621" lon="16.70811">
        <ele>185.095</ele>
        <time>2018-10-04T11:23:32Z</time>
      </trkpt>
      <trkpt lat="43.45618" lon="16.70821">
        <ele>184.057</ele>
        <time>2018-10-04T11:23:52Z</time>
      </trkpt>
      <trkpt lat="43.45612" lon="16.7084">
        <ele>182</ele>
        <time>2018-10-04T11:24:12Z</time>
      </trkpt>
      <trkpt lat="43.45609" lon="16.7086">
        <ele>181.02</ele>
        <time>2018-10-04T11:24:32Z</time>
      </trkpt>
      <trkpt lat="43.456" lon="16.70892">
        <ele>178.008</ele>
        <time>2018-10-04T11:24:52Z</time>
      </trkpt>
      <trkpt lat="43.45596" lon="16.70903">
        <ele>177.057</ele>
        <time>2018-10-04T11:25:12Z</time>
      </trkpt>
      <trkpt lat="43.45591" lon="16.70912">
        <ele>175.074</ele>
        <time>2018-10-04T11:25:32Z</time>
      </trkpt>
      <trkpt lat="43.45589" lon="16.70921">
        <ele>173.067</ele>
        <time>2018-10-04T11:25:52Z</time>
      </trkpt>
      <trkpt lat="43.45585" lon="16.70932">
        <ele>172.029</ele>
        <time>2018-10-04T11:26:12Z</time>
      </trkpt>
      <trkpt lat="43.45581" lon="16.70947">
        <ele>171.097</ele>
        <time>2018-10-04T11:26:32Z</time>
      </trkpt>
      <trkpt lat="43.45579" lon="16.70955">
        <ele>170.098</ele>
        <time>2018-10-04T11:26:52Z</time>
      </trkpt>
      <trkpt lat="43.45574" lon="16.70964">
        <ele>169.028</ele>
        <time>2018-10-04T11:27:12Z</time>
      </trkpt>
      <trkpt lat="43.45568" lon="16.70976">
        <ele>168.017</ele>
        <time>2018-10-04T11:27:32Z</time>
      </trkpt>
      <trkpt lat="43.4556" lon="16.70993">
        <ele>167.013</ele>
        <time>2018-10-04T11:27:52Z</time>
      </trkpt>
      <trkpt lat="43.45549" lon="16.71011">
        <ele>165.043</ele>
        <time>2018-10-04T11:28:12Z</time>
      </trkpt>
      <trkpt lat="43.45542" lon="16.71019">
        <ele>162.007</ele>
        <time>2018-10-04T11:28:32Z</time>
      </trkpt>
      <trkpt lat="43.45533" lon="16.71029">
        <ele>160.008</ele>
        <time>2018-10-04T11:28:52Z</time>
      </trkpt>
      <trkpt lat="43.45527" lon="16.71038">
        <ele>158.063</ele>
        <time>2018-10-04T11:29:12Z</time>
      </trkpt>
      <trkpt lat="43.45522" lon="16.71045">
        <ele>157.04</ele>
        <time>2018-10-04T11:29:32Z</time>
      </trkpt>
      <trkpt lat="43.45516" lon="16.71055">
        <ele>155.083</ele>
        <time>2018-10-04T11:29:52Z</time>
      </trkpt>
      <trkpt lat="43.45511" lon="16.71063">
        <ele>154.075</ele>
        <time>2018-10-04T11:30:12Z</time>
      </trkpt>
      <trkpt lat="43.45505" lon="16.71072">
        <ele>153.033</ele>
        <time>2018-10-04T11:30:32Z</time>
      </trkpt>
      <trkpt lat="43.45502" lon="16.71076">
        <ele>153.024</ele>
        <time>2018-10-04T11:30:52Z</time>
      </trkpt>
      <trkpt lat="43.45499" lon="16.71076">
        <ele>152.084</ele>
        <time>2018-10-04T11:31:12Z</time>
      </trkpt>
      <trkpt lat="43.45499" lon="16.71071">
        <ele>151.063</ele>
        <time>2018-10-04T11:31:32Z</time>
      </trkpt>
      <trkpt lat="43.45498" lon="16.71069">
        <ele>150.099</ele>
        <time>2018-10-04T11:31:52Z</time>
      </trkpt>
      <trkpt lat="43.45495" lon="16.71067">
        <ele>149.007</ele>
        <time>2018-10-04T11:32:12Z</time>
      </trkpt>
      <trkpt lat="43.4549" lon="16.71072">
        <ele>147.027</ele>
        <time>2018-10-04T11:32:32Z</time>
      </trkpt>
      <trkpt lat="43.4548" lon="16.7108">
        <ele>144.008</ele>
        <time>2018-10-04T11:32:52Z</time>
      </trkpt>
      <trkpt lat="43.45477" lon="16.71084">
        <ele>143.031</ele>
        <time>2018-10-04T11:33:12Z</time>
      </trkpt>
      <trkpt lat="43.45475" lon="16.71085">
        <ele>143.058</ele>
        <time>2018-10-04T11:33:32Z</time>
      </trkpt>
      <trkpt lat="43.45473" lon="16.71085">
        <ele>142.071</ele>
        <time>2018-10-04T11:33:52Z</time>
      </trkpt>
      <trkpt lat="43.45471" lon="16.71084">
        <ele>140.083</ele>
        <time>2018-10-04T11:34:12Z</time>
      </trkpt>
      <trkpt lat="43.45463" lon="16.71086">
        <ele>138.061</ele>
        <time>2018-10-04T11:34:32Z</time>
      </trkpt>
      <trkpt lat="43.45459" lon="16.71086">
        <ele>136.042</ele>
        <time>2018-10-04T11:34:52Z</time>
      </trkpt>
      <trkpt lat="43.45449" lon="16.71088">
        <ele>134.042</ele>
        <time>2018-10-04T11:35:12Z</time>
      </trkpt>
      <trkpt lat="43.45443" lon="16.7109">
        <ele>131.021</ele>
        <time>2018-10-04T11:35:32Z</time>
      </trkpt>
      <trkpt lat="43.4544" lon="16.71091">
        <ele>130.042</ele>
        <time>2018-10-04T11:35:52Z</time>
      </trkpt>
      <trkpt lat="43.45439" lon="16.71091">
        <ele>130.022</ele>
        <time>2018-10-04T11:36:12Z</time>
      </trkpt>
      <trkpt lat="43.45434" lon="16.71091">
        <ele>128.014</ele>
        <time>2018-10-04T11:36:32Z</time>
      </trkpt>
      <trkpt lat="43.45432" lon="16.71087">
        <ele>127.008</ele>
        <time>2018-10-04T11:36:52Z</time>
      </trkpt>
      <trkpt lat="43.45422" lon="16.71084">
        <ele>124.096</ele>
        <time>2018-10-04T11:37:12Z</time>
      </trkpt>
      <trkpt lat="43.45417" lon="16.71084">
        <ele>122.083</ele>
        <time>2018-10-04T11:37:32Z</time>
      </trkpt>
      <trkpt lat="43.4541" lon="16.71084">
        <ele>121.046</ele>
        <time>2018-10-04T11:37:52Z</time>
      </trkpt>
      <trkpt lat="43.45406" lon="16.71085">
        <ele>119.058</ele>
        <time>2018-10-04T11:38:12Z</time>
      </trkpt>
      <trkpt lat="43.45396" lon="16.71086">
        <ele>117.026</ele>
        <time>2018-10-04T11:38:32Z</time>
      </trkpt>
      <trkpt lat="43.45388" lon="16.71092">
        <ele>114.067</ele>
        <time>2018-10-04T11:38:52Z</time>
      </trkpt>
      <trkpt lat="43.45386" lon="16.71094">
        <ele>113.027</ele>
        <time>2018-10-04T11:39:12Z</time>
      </trkpt>
      <trkpt lat="43.45378" lon="16.71098">
        <ele>110.046</ele>
        <time>2018-10-04T11:39:32Z</time>
      </trkpt>
      <trkpt lat="43.45372" lon="16.71097">
        <ele>109.085</ele>
        <time>2018-10-04T11:39:52Z</time>
      </trkpt>
      <trkpt lat="43.4537" lon="16.71098">
        <ele>107.089</ele>
        <time>2018-10-04T11:40:12Z</time>
      </trkpt>
      <trkpt lat="43.45365" lon="16.71103">
        <ele>105.017</ele>
        <time>2018-10-04T11:40:32Z</time>
      </trkpt>
      <trkpt lat="43.45362" lon="16.71105">
        <ele>104.008</ele>
        <time>2018-10-04T11:40:52Z</time>
      </trkpt>
      <trkpt lat="43.45357" lon="16.71111">
        <ele>102.05</ele>
        <time>2018-10-04T11:41:12Z</time>
      </trkpt>
      <trkpt lat="43.45351" lon="16.71116">
        <ele>100.057</ele>
        <time>2018-10-04T11:41:32Z</time>
      </trkpt>
      <trkpt lat="43.45346" lon="16.7112">
        <ele>98.07</ele>
        <time>2018-10-04T11:41:52Z</time>
      </trkpt>
      <trkpt lat="43.45343" lon="16.71121">
        <ele>98.052</ele>
        <time>2018-10-04T11:42:12Z</time>
      </trkpt>
      <trkpt lat="43.45341" lon="16.71119">
        <ele>97.03</ele>
        <time>2018-10-04T11:42:32Z</time>
      </trkpt>
      <trkpt lat="43.45341" lon="16.7112">
        <ele>96.011</ele>
        <time>2018-10-04T11:42:52Z</time>
      </trkpt>
      <trkpt lat="43.45339" lon="16.71122">
        <ele>96.031</ele>
        <time>2018-10-04T11:43:12Z</time>
      </trkpt>
      <trkpt lat="43.45337" lon="16.71121">
        <ele>94.04</ele>
        <time>2018-10-04T11:43:32Z</time>
      </trkpt>
      <trkpt lat="43.45332" lon="16.71119">
        <ele>92.026</ele>
        <time>2018-10-04T11:43:52Z</time>
      </trkpt>
      <trkpt lat="43.45331" lon="16.7112">
        <ele>91.047</ele>
        <time>2018-10-04T11:44:12Z</time>
      </trkpt>
      <trkpt lat="43.45327" lon="16.71123">
        <ele>90.011</ele>
        <time>2018-10-04T11:44:32Z</time>
      </trkpt>
      <trkpt lat="43.45319" lon="16.71129">
        <ele>88.008</ele>
        <time>2018-10-04T11:44:52Z</time>
      </trkpt>
      <trkpt lat="43.45314" lon="16.7114">
        <ele>87.014</ele>
        <time>2018-10-04T11:45:12Z</time>
      </trkpt>
      <trkpt lat="43.45312" lon="16.71148">
        <ele>87.041</ele>
        <time>2018-10-04T11:45:32Z</time>
      </trkpt>
      <trkpt lat="43.45303" lon="16.7117">
        <ele>87.054</ele>
        <time>2018-10-04T11:45:52Z</time>
      </trkpt>
      <trkpt lat="43.45287" lon="16.71189">
        <ele>86.026</ele>
        <time>2018-10-04T11:46:12Z</time>
      </trkpt>
      <trkpt lat="43.45275" lon="16.71203">
        <ele>83.014</ele>
        <time>2018-10-04T11:46:32Z</time>
      </trkpt>
      <trkpt lat="43.45272" lon="16.71207">
        <ele>82.015</ele>
        <time>2018-10-04T11:46:52Z</time>
      </trkpt>
      <trkpt lat="43.45268" lon="16.71214">
        <ele>80.015</ele>
        <time>2018-10-04T11:47:12Z</time>
      </trkpt>
      <trkpt lat="43.45263" lon="16.71221">
        <ele>78.054</ele>
        <time>2018-10-04T11:47:32Z</time>
      </trkpt>
      <trkpt lat="43.4526" lon="16.71228">
        <ele>77.036</ele>
        <time>2018-10-04T11:47:52Z</time>
      </trkpt>
      <trkpt lat="43.45257" lon="16.71232">
        <ele>76.017</ele>
        <time>2018-10-04T11:48:12Z</time>
      </trkpt>
      <trkpt lat="43.45249" lon="16.7124">
        <ele>74.018</ele>
        <time>2018-10-04T11:48:32Z</time>
      </trkpt>
      <trkpt lat="43.45245" lon="16.71248">
        <ele>73.008</ele>
        <time>2018-10-04T11:48:52Z</time>
      </trkpt>
      <trkpt lat="43.45239" lon="16.71264">
        <ele>72.095</ele>
        <time>2018-10-04T11:49:12Z</time>
      </trkpt>
      <trkpt lat="43.45236" lon="16.71272">
        <ele>70.022</ele>
        <time>2018-10-04T11:49:32Z</time>
      </trkpt>
      <trkpt lat="43.45228" lon="16.71282">
        <ele>67.055</ele>
        <time>2018-10-04T11:49:52Z</time>
      </trkpt>
      <trkpt lat="43.4522" lon="16.71294">
        <ele>65.017</ele>
        <time>2018-10-04T11:50:12Z</time>
      </trkpt>
      <trkpt lat="43.45217" lon="16.71298">
        <ele>63.065</ele>
        <time>2018-10-04T11:50:32Z</time>
      </trkpt>
      <trkpt lat="43.45215" lon="16.71304">
        <ele>63.086</ele>
        <time>2018-10-04T11:50:52Z</time>
      </trkpt>
      <trkpt lat="43.45214" lon="16.71303">
        <ele>62.066</ele>
        <time>2018-10-04T11:51:12Z</time>
      </trkpt>
      <trkpt lat="43.45215" lon="16.71301">
        <ele>61.065</ele>
        <time>2018-10-04T11:51:32Z</time>
      </trkpt>
      <trkpt lat="43.45216" lon="16.713">
        <ele>61.032</ele>
        <time>2018-10-04T11:51:52Z</time>
      </trkpt>
      <trkpt lat="43.45214" lon="16.7129">
        <ele>60.092</ele>
        <time>2018-10-04T11:52:12Z</time>
      </trkpt>
      <trkpt lat="43.45212" lon="16.71282">
        <ele>58.011</ele>
        <time>2018-10-04T11:52:32Z</time>
      </trkpt>
      <trkpt lat="43.45213" lon="16.71276">
        <ele>57.008</ele>
        <time>2018-10-04T11:52:52Z</time>
      </trkpt>
      <trkpt lat="43.45213" lon="16.71271">
        <ele>56.085</ele>
        <time>2018-10-04T11:53:12Z</time>
      </trkpt>
      <trkpt lat="43.45211" lon="16.71269">
        <ele>55.032</ele>
        <time>2018-10-04T11:53:32Z</time>
      </trkpt>
      <trkpt lat="43.45211" lon="16.71266">
        <ele>54.095</ele>
        <time>2018-10-04T11:53:52Z</time>
      </trkpt>
      <trkpt lat="43.45207" lon="16.71266">
        <ele>52.057</ele>
        <time>2018-10-04T11:54:12Z</time>
      </trkpt>
      <trkpt lat="43.45197" lon="16.71277">
        <ele>49.065</ele>
        <time>2018-10-04T11:54:32Z</time>
      </trkpt>
      <trkpt lat="43.45191" lon="16.71284">
        <ele>46.066</ele>
        <time>2018-10-04T11:54:52Z</time>
      </trkpt>
      <trkpt lat="43.45185" lon="16.71294">
        <ele>44.076</ele>
        <time>2018-10-04T11:55:12Z</time>
      </trkpt>
      <trkpt lat="43.4518" lon="16.71301">
        <ele>43.025</ele>
        <time>2018-10-04T11:55:32Z</time>
      </trkpt>
      <trkpt lat="43.45178" lon="16.71309">
        <ele>42.046</ele>
        <time>2018-10-04T11:55:52Z</time>
      </trkpt>
      <trkpt lat="43.45174" lon="16.71316">
        <ele>40.088</ele>
        <time>2018-10-04T11:56:12Z</time>
      </trkpt>
      <trkpt lat="43.45174" lon="16.71318">
        <ele>40.016</ele>
        <time>2018-10-04T11:56:32Z</time>
      </trkpt>
      <trkpt lat="43.45173" lon="16.71318">
        <ele>39.008</ele>
        <time>2018-10-04T11:56:52Z</time>
      </trkpt>
      <trkpt lat="43.45172" lon="16.71319">
        <ele>39.066</ele>
        <time>2018-10-04T11:57:12Z</time>
      </trkpt>
      <trkpt lat="43.45173" lon="16.71324">
        <ele>38.053</ele>
        <time>2018-10-04T11:57:32Z</time>
      </trkpt>
      <trkpt lat="43.45174" lon="16.71325">
        <ele>38.066</ele>
        <time>2018-10-04T11:57:52Z</time>
      </trkpt>
      <trkpt lat="43.45171" lon="16.71336">
        <ele>38.088</ele>
        <time>2018-10-04T11:58:12Z</time>
      </trkpt>
      <trkpt lat="43.45162" lon="16.71361">
        <ele>38.056</ele>
        <time>2018-10-04T11:58:32Z</time>
      </trkpt>
      <trkpt lat="43.4516" lon="16.7137">
        <ele>39.057</ele>
        <time>2018-10-04T11:58:52Z</time>
      </trkpt>
      <trkpt lat="43.45158" lon="16.71377">
        <ele>40.017</ele>
        <time>2018-10-04T11:59:12Z</time>
      </trkpt>
      <trkpt lat="43.45149" lon="16.71393">
        <ele>42.086</ele>
        <time>2018-10-04T11:59:32Z</time>
      </trkpt>
      <trkpt lat="43.4514" lon="16.71416">
        <ele>43.074</ele>
        <time>2018-10-04T11:59:52Z</time>
      </trkpt>
      <trkpt lat="43.45137" lon="16.71428">
        <ele>45.056</ele>
        <time>2018-10-04T12:00:12Z</time>
      </trkpt>
      <trkpt lat="43.45136" lon="16.71437">
        <ele>46.021</ele>
        <time>2018-10-04T12:00:32Z</time>
      </trkpt>
      <trkpt lat="43.45134" lon="16.71448">
        <ele>47.008</ele>
        <time>2018-10-04T12:00:52Z</time>
      </trkpt>
      <trkpt lat="43.45133" lon="16.71461">
        <ele>48.099</ele>
        <time>2018-10-04T12:01:12Z</time>
      </trkpt>
      <trkpt lat="43.45136" lon="16.71489">
        <ele>49.066</ele>
        <time>2018-10-04T12:01:32Z</time>
      </trkpt>
      <trkpt lat="43.45137" lon="16.71499">
        <ele>49.059</ele>
        <time>2018-10-04T12:01:52Z</time>
      </trkpt>
      <trkpt lat="43.45139" lon="16.71519">
        <ele>50.091</ele>
        <time>2018-10-04T12:02:12Z</time>
      </trkpt>
      <trkpt lat="43.45139" lon="16.71528">
        <ele>51.089</ele>
        <time>2018-10-04T12:02:32Z</time>
      </trkpt>
      <trkpt lat="43.45143" lon="16.71537">
        <ele>51.02</ele>
        <time>2018-10-04T12:02:52Z</time>
      </trkpt>
      <trkpt lat="43.45146" lon="16.71552">
        <ele>53.05</ele>
        <time>2018-10-04T12:03:12Z</time>
      </trkpt>
      <trkpt lat="43.45145" lon="16.71571">
        <ele>54.059</ele>
        <time>2018-10-04T12:03:32Z</time>
      </trkpt>
      <trkpt lat="43.45144" lon="16.71583">
        <ele>54.033</ele>
        <time>2018-10-04T12:03:52Z</time>
      </trkpt>
      <trkpt lat="43.45142" lon="16.71599">
        <ele>54.023</ele>
        <time>2018-10-04T12:04:12Z</time>
      </trkpt>
      <trkpt lat="43.4514" lon="16.71626">
        <ele>53.015</ele>
        <time>2018-10-04T12:04:32Z</time>
      </trkpt>
      <trkpt lat="43.45139" lon="16.71639">
        <ele>53.008</ele>
        <time>2018-10-04T12:04:52Z</time>
      </trkpt>
      <trkpt lat="43.45136" lon="16.71658">
        <ele>51.085</ele>
        <time>2018-10-04T12:05:12Z</time>
      </trkpt>
      <trkpt lat="43.45135" lon="16.71666">
        <ele>50.012</ele>
        <time>2018-10-04T12:05:32Z</time>
      </trkpt>
      <trkpt lat="43.4513" lon="16.71683">
        <ele>49.045</ele>
        <time>2018-10-04T12:05:52Z</time>
      </trkpt>
      <trkpt lat="43.45127" lon="16.71697">
        <ele>48.047</ele>
        <time>2018-10-04T12:06:12Z</time>
      </trkpt>
      <trkpt lat="43.45126" lon="16.71709">
        <ele>48.055</ele>
        <time>2018-10-04T12:06:32Z</time>
      </trkpt>
      <trkpt lat="43.45123" lon="16.71725">
        <ele>49.016</ele>
        <time>2018-10-04T12:06:52Z</time>
      </trkpt>
      <trkpt lat="43.45117" lon="16.7175">
        <ele>50.076</ele>
        <time>2018-10-04T12:07:12Z</time>
      </trkpt>
      <trkpt lat="43.45109" lon="16.71776">
        <ele>51.085</ele>
        <time>2018-10-04T12:07:32Z</time>
      </trkpt>
      <trkpt lat="43.45099" lon="16.71796">
        <ele>52.047</ele>
        <time>2018-10-04T12:07:52Z</time>
      </trkpt>
      <trkpt lat="43.4509" lon="16.71808">
        <ele>52.029</ele>
        <time>2018-10-04T12:08:12Z</time>
      </trkpt>
      <trkpt lat="43.45083" lon="16.71818">
        <ele>53.021</ele>
        <time>2018-10-04T12:08:32Z</time>
      </trkpt>
      <trkpt lat="43.45075" lon="16.71831">
        <ele>54.008</ele>
        <time>2018-10-04T12:08:52Z</time>
      </trkpt>
      <trkpt lat="43.45069" lon="16.71839">
        <ele>56.086</ele>
        <time>2018-10-04T12:09:12Z</time>
      </trkpt>
      <trkpt lat="43.45064" lon="16.71847">
        <ele>57.053</ele>
        <time>2018-10-04T12:09:32Z</time>
      </trkpt>
      <trkpt lat="43.45063" lon="16.71849">
        <ele>58.026</ele>
        <time>2018-10-04T12:09:52Z</time>
      </trkpt>
      <trkpt lat="43.45056" lon="16.71851">
        <ele>59.078</ele>
        <time>2018-10-04T12:10:12Z</time>
      </trkpt>
      <trkpt lat="43.45051" lon="16.71853">
        <ele>60.056</ele>
        <time>2018-10-04T12:10:32Z</time>
      </trkpt>
      <trkpt lat="43.45047" lon="16.71856">
        <ele>61.097</ele>
        <time>2018-10-04T12:10:52Z</time>
      </trkpt>
      <trkpt lat="43.4504" lon="16.71859">
        <ele>63.097</ele>
        <time>2018-10-04T12:11:12Z</time>
      </trkpt>
      <trkpt lat="43.45028" lon="16.71867">
        <ele>64.076</ele>
        <time>2018-10-04T12:11:32Z</time>
      </trkpt>
      <trkpt lat="43.45025" lon="16.71874">
        <ele>65.063</ele>
        <time>2018-10-04T12:11:52Z</time>
      </trkpt>
      <trkpt lat="43.45024" lon="16.71877">
        <ele>66.044</ele>
        <time>2018-10-04T12:12:12Z</time>
      </trkpt>
      <trkpt lat="43.45023" lon="16.7188">
        <ele>66.018</ele>
        <time>2018-10-04T12:12:32Z</time>
      </trkpt>
      <trkpt lat="43.45019" lon="16.7189">
        <ele>68.008</ele>
        <time>2018-10-04T12:12:52Z</time>
      </trkpt>
      <trkpt lat="43.45016" lon="16.71895">
        <ele>68.038</ele>
        <time>2018-10-04T12:13:12Z</time>
      </trkpt>
      <trkpt lat="43.45015" lon="16.71902">
        <ele>69.055</ele>
        <time>2018-10-04T12:13:32Z</time>
      </trkpt>
      <trkpt lat="43.45015" lon="16.71912">
        <ele>71.028</ele>
        <time>2018-10-04T12:13:52Z</time>
      </trkpt>
      <trkpt lat="43.45016" lon="16.71923">
        <ele>72.02</ele>
        <time>2018-10-04T12:14:12Z</time>
      </trkpt>
      <trkpt lat="43.45017" lon="16.71937">
        <ele>73.098</ele>
        <time>2018-10-04T12:14:32Z</time>
      </trkpt>
      <trkpt lat="43.45018" lon="16.71954">
        <ele>75.069</ele>
        <time>2018-10-04T12:14:52Z</time>
      </trkpt>
      <trkpt lat="43.45018" lon="16.71959">
        <ele>75.069</ele>
        <time>2018-10-04T12:15:12Z</time>
      </trkpt>
      <trkpt lat="43.45019" lon="16.71967">
        <ele>76.018</ele>
        <time>2018-10-04T12:15:32Z</time>
      </trkpt>
      <trkpt lat="43.45019" lon="16.71976">
        <ele>78.061</ele>
        <time>2018-10-04T12:15:52Z</time>
      </trkpt>
      <trkpt lat="43.45015" lon="16.71991">
        <ele>80.021</ele>
        <time>2018-10-04T12:16:12Z</time>
      </trkpt>
      <trkpt lat="43.45014" lon="16.72">
        <ele>81.013</ele>
        <time>2018-10-04T12:16:32Z</time>
      </trkpt>
      <trkpt lat="43.45014" lon="16.72002">
        <ele>81.008</ele>
        <time>2018-10-04T12:16:52Z</time>
      </trkpt>
      <trkpt lat="43.45014" lon="16.72008">
        <ele>82.088</ele>
        <time>2018-10-04T12:17:12Z</time>
      </trkpt>
      <trkpt lat="43.45013" lon="16.72017">
        <ele>83.035</ele>
        <time>2018-10-04T12:17:32Z</time>
      </trkpt>
      <trkpt lat="43.45011" lon="16.72026">
        <ele>84.098</ele>
        <time>2018-10-04T12:17:52Z</time>
      </trkpt>
      <trkpt lat="43.45007" lon="16.72042">
        <ele>85.03</ele>
        <time>2018-10-04T12:18:12Z</time>
      </trkpt>
      <trkpt lat="43.45007" lon="16.72071">
        <ele>85.078</ele>
        <time>2018-10-04T12:18:32Z</time>
      </trkpt>
      <trkpt lat="43.45004" lon="16.72091">
        <ele>84.089</ele>
        <time>2018-10-04T12:18:52Z</time>
      </trkpt>
      <trkpt lat="43.45006" lon="16.72116">
        <ele>84.069</ele>
        <time>2018-10-04T12:19:12Z</time>
      </trkpt>
      <trkpt lat="43.45005" lon="16.72129">
        <ele>83.018</ele>
        <time>2018-10-04T12:19:32Z</time>
      </trkpt>
      <trkpt lat="43.44997" lon="16.72162">
        <ele>84.087</ele>
        <time>2018-10-04T12:19:52Z</time>
      </trkpt>
      <trkpt lat="43.44992" lon="16.72189">
        <ele>86.042</ele>
        <time>2018-10-04T12:20:12Z</time>
      </trkpt>
      <trkpt lat="43.44992" lon="16.72194">
        <ele>86.026</ele>
        <time>2018-10-04T12:20:32Z</time>
      </trkpt>
      <trkpt lat="43.44991" lon="16.72196">
        <ele>87.008</ele>
        <time>2018-10-04T12:20:52Z</time>
      </trkpt>
      <trkpt lat="43.44989" lon="16.72216">
        <ele>88.06</ele>
        <time>2018-10-04T12:21:12Z</time>
      </trkpt>
      <trkpt lat="43.44989" lon="16.72218">
        <ele>89.067</ele>
        <time>2018-10-04T12:21:32Z</time>
      </trkpt>
      <trkpt lat="43.44987" lon="16.72228">
        <ele>90.06</ele>
        <time>2018-10-04T12:21:52Z</time>
      </trkpt>
      <trkpt lat="43.44982" lon="16.72246">
        <ele>91.012</ele>
        <time>2018-10-04T12:22:12Z</time>
      </trkpt>
      <trkpt lat="43.44978" lon="16.72269">
        <ele>93.01</ele>
        <time>2018-10-04T12:22:32Z</time>
      </trkpt>
      <trkpt lat="43.44976" lon="16.72277">
        <ele>94.091</ele>
        <time>2018-10-04T12:22:52Z</time>
      </trkpt>
      <trkpt lat="43.44976" lon="16.72282">
        <ele>95.071</ele>
        <time>2018-10-04T12:23:12Z</time>
      </trkpt>
      <trkpt lat="43.44975" lon="16.72293">
        <ele>96.01</ele>
        <time>2018-10-04T12:23:32Z</time>
      </trkpt>
      <trkpt lat="43.44976" lon="16.72305">
        <ele>97.067</ele>
        <time>2018-10-04T12:23:52Z</time>
      </trkpt>
      <trkpt lat="43.44973" lon="16.72317">
        <ele>98.081</ele>
        <time>2018-10-04T12:24:12Z</time>
      </trkpt>
      <trkpt lat="43.44969" lon="16.72326">
        <ele>98.019</ele>
        <time>2018-10-04T12:24:32Z</time>
      </trkpt>
      <trkpt lat="43.44962" lon="16.7234">
        <ele>98.008</ele>
        <time>2018-10-04T12:24:52Z</time>
      </trkpt>
      <trkpt lat="43.44957" lon="16.72352">
        <ele>97.028</ele>
        <time>2018-10-04T12:25:12Z</time>
      </trkpt>
      <trkpt lat="43.4495" lon="16.72364">
        <ele>96.025</ele>
        <time>2018-10-04T12:25:32Z</time>
      </trkpt>
      <trkpt lat="43.44944" lon="16.72385">
        <ele>94.038</ele>
        <time>2018-10-04T12:25:52Z</time>
      </trkpt>
      <trkpt lat="43.44941" lon="16.72391">
        <ele>94.04</ele>
        <time>2018-10-04T12:26:12Z</time>
      </trkpt>
      <trkpt lat="43.44934" lon="16.72399">
        <ele>92.048</ele>
        <time>2018-10-04T12:26:32Z</time>
      </trkpt>
      <trkpt lat="43.44928" lon="16.72405">
        <ele>91.039</ele>
        <time>2018-10-04T12:26:52Z</time>
      </trkpt>
      <trkpt lat="43.44918" lon="16.72423">
        <ele>90.089</ele>
        <time>2018-10-04T12:27:12Z</time>
      </trkpt>
      <trkpt lat="43.44916" lon="16.72429">
        <ele>89.078</ele>
        <time>2018-10-04T12:27:32Z</time>
      </trkpt>
      <trkpt lat="43.44908" lon="16.72438">
        <ele>88.056</ele>
        <time>2018-10-04T12:27:52Z</time>
      </trkpt>
      <trkpt lat="43.449" lon="16.72451">
        <ele>87.059</ele>
        <time>2018-10-04T12:28:12Z</time>
      </trkpt>
      <trkpt lat="43.44896" lon="16.72463">
        <ele>86.014</ele>
        <time>2018-10-04T12:28:32Z</time>
      </trkpt>
      <trkpt lat="43.44891" lon="16.72482">
        <ele>86.008</ele>
        <time>2018-10-04T12:28:52Z</time>
      </trkpt>
      <trkpt lat="43.44889" lon="16.72486">
        <ele>87.077</ele>
        <time>2018-10-04T12:29:12Z</time>
      </trkpt>
      <trkpt lat="43.44878" lon="16.72502">
        <ele>85.074</ele>
        <time>2018-10-04T12:29:32Z</time>
      </trkpt>
      <trkpt lat="43.44873" lon="16.72511">
        <ele>84.077</ele>
        <time>2018-10-04T12:29:52Z</time>
      </trkpt>
      <trkpt lat="43.44862" lon="16.7253">
        <ele>85.079</ele>
        <time>2018-10-04T12:30:12Z</time>
      </trkpt>
      <trkpt lat="43.44851" lon="16.72552">
        <ele>85.057</ele>
        <time>2018-10-04T12:30:32Z</time>
      </trkpt>
      <trkpt lat="43.44845" lon="16.72573">
        <ele>85.068</ele>
        <time>2018-10-04T12:30:52Z</time>
      </trkpt>
      <trkpt lat="43.44841" lon="16.72585">
        <ele>86.098</ele>
        <time>2018-10-04T12:31:12Z</time>
      </trkpt>
      <trkpt lat="43.44834" lon="16.72598">
        <ele>86.047</ele>
        <time>2018-10-04T12:31:32Z</time>
      </trkpt>
      <trkpt lat="43.44822" lon="16.72618">
        <ele>85.029</ele>
        <time>2018-10-04T12:31:52Z</time>
      </trkpt>
      <trkpt lat="43.44811" lon="16.72639">
        <ele>84</ele>
        <time>2018-10-04T12:32:12Z</time>
      </trkpt>
      <trkpt lat="43.44799" lon="16.72661">
        <ele>85.02</ele>
        <time>2018-10-04T12:32:32Z</time>
      </trkpt>
      <trkpt lat="43.44791" lon="16.72675">
        <ele>86.008</ele>
        <time>2018-10-04T12:32:52Z</time>
      </trkpt>
      <trkpt lat="43.44786" lon="16.72684">
        <ele>88.074</ele>
        <time>2018-10-04T12:33:12Z</time>
      </trkpt>
      <trkpt lat="43.44782" lon="16.72689">
        <ele>89.021</ele>
        <time>2018-10-04T12:33:32Z</time>
      </trkpt>
      <trkpt lat="43.44779" lon="16.72693">
        <ele>90.084</ele>
        <time>2018-10-04T12:33:52Z</time>
      </trkpt>
      <trkpt lat="43.44775" lon="16.72699">
        <ele>91.066</ele>
        <time>2018-10-04T12:34:12Z</time>
      </trkpt>
      <trkpt lat="43.44772" lon="16.72704">
        <ele>92.024</ele>
        <time>2018-10-04T12:34:32Z</time>
      </trkpt>
      <trkpt lat="43.44771" lon="16.72705">
        <ele>93.075</ele>
        <time>2018-10-04T12:34:52Z</time>
      </trkpt>
      <trkpt lat="43.44766" lon="16.72708">
        <ele>94.025</ele>
        <time>2018-10-04T12:35:12Z</time>
      </trkpt>
      <trkpt lat="43.4476" lon="16.72712">
        <ele>95.054</ele>
        <time>2018-10-04T12:35:32Z</time>
      </trkpt>
      <trkpt lat="43.44755" lon="16.72716">
        <ele>96.035</ele>
        <time>2018-10-04T12:35:52Z</time>
      </trkpt>
      <trkpt lat="43.4475" lon="16.72724">
        <ele>97.086</ele>
        <time>2018-10-04T12:36:12Z</time>
      </trkpt>
      <trkpt lat="43.44748" lon="16.72727">
        <ele>98.014</ele>
        <time>2018-10-04T12:36:32Z</time>
      </trkpt>
      <trkpt lat="43.44745" lon="16.72729">
        <ele>99.008</ele>
        <time>2018-10-04T12:36:52Z</time>
      </trkpt>
      <trkpt lat="43.44741" lon="16.72731">
        <ele>99.035</ele>
        <time>2018-10-04T12:37:12Z</time>
      </trkpt>
      <trkpt lat="43.44735" lon="16.72735">
        <ele>100.022</ele>
        <time>2018-10-04T12:37:32Z</time>
      </trkpt>
      <trkpt lat="43.44726" lon="16.72743">
        <ele>101.025</ele>
        <time>2018-10-04T12:37:52Z</time>
      </trkpt>
      <trkpt lat="43.44724" lon="16.72745">
        <ele>102.017</ele>
        <time>2018-10-04T12:38:12Z</time>
      </trkpt>
      <trkpt lat="43.4472" lon="16.72748">
        <ele>103.075</ele>
        <time>2018-10-04T12:38:32Z</time>
      </trkpt>
      <trkpt lat="43.44718" lon="16.72751">
        <ele>103.066</ele>
        <time>2018-10-04T12:38:52Z</time>
      </trkpt>
      <trkpt lat="43.44711" lon="16.72751">
        <ele>104.056</ele>
        <time>2018-10-04T12:39:12Z</time>
      </trkpt>
      <trkpt lat="43.44707" lon="16.7275">
        <ele>105.095</ele>
        <time>2018-10-04T12:39:32Z</time>
      </trkpt>
      <trkpt lat="43.44705" lon="16.72749">
        <ele>105.051</ele>
        <time>2018-10-04T12:39:52Z</time>
      </trkpt>
      <trkpt lat="43.44701" lon="16.7275">
        <ele>106.001</ele>
        <time>2018-10-04T12:40:12Z</time>
      </trkpt>
      <trkpt lat="43.44699" lon="16.72749">
        <ele>106.011</ele>
        <time>2018-10-04T12:40:32Z</time>
      </trkpt>
      <trkpt lat="43.44692" lon="16.72749">
        <ele>107.008</ele>
        <time>2018-10-04T12:40:52Z</time>
      </trkpt>
      <trkpt lat="43.44684" lon="16.72745">
        <ele>108.037</ele>
        <time>2018-10-04T12:41:12Z</time>
      </trkpt>
      <trkpt lat="43.44678" lon="16.72742">
        <ele>109.084</ele>
        <time>2018-10-04T12:41:32Z</time>
      </trkpt>
      <trkpt lat="43.44672" lon="16.72739">
        <ele>109.057</ele>
        <time>2018-10-04T12:41:52Z</time>
      </trkpt>
      <trkpt lat="43.44664" lon="16.72737">
        <ele>111.079</ele>
        <time>2018-10-04T12:42:12Z</time>
      </trkpt>
      <trkpt lat="43.4466" lon="16.72736">
        <ele>111.057</ele>
        <time>2018-10-04T12:42:32Z</time>
      </trkpt>
      <trkpt lat="43.44658" lon="16.72736">
        <ele>112.078</ele>
        <time>2018-10-04T12:42:52Z</time>
      </trkpt>
      <trkpt lat="43.4465" lon="16.72734">
        <ele>113.098</ele>
        <time>2018-10-04T12:43:12Z</time>
      </trkpt>
      <trkpt lat="43.44641" lon="16.7273">
        <ele>114.087</ele>
        <time>2018-10-04T12:43:32Z</time>
      </trkpt>
      <trkpt lat="43.44637" lon="16.7273">
        <ele>115.047</ele>
        <time>2018-10-04T12:43:52Z</time>
      </trkpt>
      <trkpt lat="43.44632" lon="16.72732">
        <ele>116.029</ele>
        <time>2018-10-04T12:44:12Z</time>
      </trkpt>
      <trkpt lat="43.44627" lon="16.72734">
        <ele>117.021</ele>
        <time>2018-10-04T12:44:32Z</time>
      </trkpt>
      <trkpt lat="43.44624" lon="16.72737">
        <ele>118.008</ele>
        <time>2018-10-04T12:44:52Z</time>
      </trkpt>
      <trkpt lat="43.44619" lon="16.72743">
        <ele>120.066</ele>
        <time>2018-10-04T12:45:12Z</time>
      </trkpt>
      <trkpt lat="43.44615" lon="16.7275">
        <ele>121.023</ele>
        <time>2018-10-04T12:45:32Z</time>
      </trkpt>
      <trkpt lat="43.44613" lon="16.72754">
        <ele>122.066</ele>
        <time>2018-10-04T12:45:52Z</time>
      </trkpt>
      <trkpt lat="43.44606" lon="16.72762">
        <ele>124.068</ele>
        <time>2018-10-04T12:46:12Z</time>
      </trkpt>
      <trkpt lat="43.44603" lon="16.72765">
        <ele>124.066</ele>
        <time>2018-10-04T12:46:32Z</time>
      </trkpt>
      <trkpt lat="43.4459" lon="16.72784">
        <ele>124.047</ele>
        <time>2018-10-04T12:46:52Z</time>
      </trkpt>
      <trkpt lat="43.44583" lon="16.72817">
        <ele>124.037</ele>
        <time>2018-10-04T12:47:12Z</time>
      </trkpt>
      <trkpt lat="43.44582" lon="16.72827">
        <ele>123.016</ele>
        <time>2018-10-04T12:47:32Z</time>
      </trkpt>
      <trkpt lat="43.44587" lon="16.72839">
        <ele>120.093</ele>
        <time>2018-10-04T12:47:52Z</time>
      </trkpt>
      <trkpt lat="43.44589" lon="16.72847">
        <ele>119.065</ele>
        <time>2018-10-04T12:48:12Z</time>
      </trkpt>
      <trkpt lat="43.44594" lon="16.72856">
        <ele>118.021</ele>
        <time>2018-10-04T12:48:32Z</time>
      </trkpt>
      <trkpt lat="43.44606" lon="16.72872">
        <ele>115.008</ele>
        <time>2018-10-04T12:48:52Z</time>
      </trkpt>
      <trkpt lat="43.44611" lon="16.72882">
        <ele>113.071</ele>
        <time>2018-10-04T12:49:12Z</time>
      </trkpt>
      <trkpt lat="43.44617" lon="16.72891">
        <ele>112.048</ele>
        <time>2018-10-04T12:49:32Z</time>
      </trkpt>
      <trkpt lat="43.44624" lon="16.72899">
        <ele>111.091</ele>
        <time>2018-10-04T12:49:52Z</time>
      </trkpt>
      <trkpt lat="43.44631" lon="16.72909">
        <ele>109.023</ele>
        <time>2018-10-04T12:50:12Z</time>
      </trkpt>
      <trkpt lat="43.44637" lon="16.7292">
        <ele>108.071</ele>
        <time>2018-10-04T12:50:32Z</time>
      </trkpt>
      <trkpt lat="43.44644" lon="16.72928">
        <ele>107.092</ele>
        <time>2018-10-04T12:50:52Z</time>
      </trkpt>
      <trkpt lat="43.44648" lon="16.72937">
        <ele>106.072</ele>
        <time>2018-10-04T12:51:12Z</time>
      </trkpt>
      <trkpt lat="43.44654" lon="16.72945">
        <ele>105.011</ele>
        <time>2018-10-04T12:51:32Z</time>
      </trkpt>
      <trkpt lat="43.44659" lon="16.72954">
        <ele>103.087</ele>
        <time>2018-10-04T12:51:52Z</time>
      </trkpt>
      <trkpt lat="43.44662" lon="16.72964">
        <ele>102.042</ele>
        <time>2018-10-04T12:52:12Z</time>
      </trkpt>
      <trkpt lat="43.44668" lon="16.72976">
        <ele>101.026</ele>
        <time>2018-10-04T12:52:32Z</time>
      </trkpt>
      <trkpt lat="43.44672" lon="16.72986">
        <ele>100.008</ele>
        <time>2018-10-04T12:52:52Z</time>
      </trkpt>
      <trkpt lat="43.4468" lon="16.73013">
        <ele>98.01</ele>
        <time>2018-10-04T12:53:12Z</time>
      </trkpt>
      <trkpt lat="43.44683" lon="16.73019">
        <ele>96.027</ele>
        <time>2018-10-04T12:53:32Z</time>
      </trkpt>
      <trkpt lat="43.44685" lon="16.73025">
        <ele>95.03</ele>
        <time>2018-10-04T12:53:52Z</time>
      </trkpt>
      <trkpt lat="43.4469" lon="16.73036">
        <ele>93.032</ele>
        <time>2018-10-04T12:54:12Z</time>
      </trkpt>
      <trkpt lat="43.44695" lon="16.73044">
        <ele>92.06</ele>
        <time>2018-10-04T12:54:32Z</time>
      </trkpt>
      <trkpt lat="43.44696" lon="16.73046">
        <ele>92.041</ele>
        <time>2018-10-04T12:54:52Z</time>
      </trkpt>
      <trkpt lat="43.44699" lon="16.73056">
        <ele>90.081</ele>
        <time>2018-10-04T12:55:12Z</time>
      </trkpt>
      <trkpt lat="43.447" lon="16.73064">
        <ele>89.07</ele>
        <time>2018-10-04T12:55:32Z</time>
      </trkpt>
      <trkpt lat="43.44708" lon="16.73092">
        <ele>89.016</ele>
        <time>2018-10-04T12:55:52Z</time>
      </trkpt>
      <trkpt lat="43.44708" lon="16.73098">
        <ele>90.076</ele>
        <time>2018-10-04T12:56:12Z</time>
      </trkpt>
      <trkpt lat="43.44708" lon="16.73118">
        <ele>90.013</ele>
        <time>2018-10-04T12:56:32Z</time>
      </trkpt>
      <trkpt lat="43.44706" lon="16.73132">
        <ele>90.008</ele>
        <time>2018-10-04T12:56:52Z</time>
      </trkpt>
      <trkpt lat="43.44702" lon="16.73157">
        <ele>90.023</ele>
        <time>2018-10-04T12:57:12Z</time>
      </trkpt>
      <trkpt lat="43.44702" lon="16.7316">
        <ele>90.03</ele>
        <time>2018-10-04T12:57:32Z</time>
      </trkpt>
      <trkpt lat="43.44701" lon="16.73167">
        <ele>92.043</ele>
        <time>2018-10-04T12:57:52Z</time>
      </trkpt>
      <trkpt lat="43.44701" lon="16.73172">
        <ele>93.075</ele>
        <time>2018-10-04T12:58:12Z</time>
      </trkpt>
      <trkpt lat="43.44701" lon="16.7318">
        <ele>93.043</ele>
        <time>2018-10-04T12:58:32Z</time>
      </trkpt>
      <trkpt lat="43.447" lon="16.73189">
        <ele>94.024</ele>
        <time>2018-10-04T12:58:52Z</time>
      </trkpt>
      <trkpt lat="43.44694" lon="16.73215">
        <ele>95.034</ele>
        <time>2018-10-04T12:59:12Z</time>
      </trkpt>
      <trkpt lat="43.44694" lon="16.73233">
        <ele>95.023</ele>
        <time>2018-10-04T12:59:32Z</time>
      </trkpt>
      <trkpt lat="43.44686" lon="16.73261">
        <ele>92.075</ele>
        <time>2018-10-04T12:59:52Z</time>
      </trkpt>
      <trkpt lat="43.44683" lon="16.7327">
        <ele>92.028</ele>
        <time>2018-10-04T13:00:12Z</time>
      </trkpt>
      <trkpt lat="43.44681" lon="16.73286">
        <ele>90.02</ele>
        <time>2018-10-04T13:00:32Z</time>
      </trkpt>
      <trkpt lat="43.44681" lon="16.7331">
        <ele>89.008</ele>
        <time>2018-10-04T13:00:52Z</time>
      </trkpt>
      <trkpt lat="43.44679" lon="16.73323">
        <ele>87.069</ele>
        <time>2018-10-04T13:01:12Z</time>
      </trkpt>
      <trkpt lat="43.44677" lon="16.73334">
        <ele>86.016</ele>
        <time>2018-10-04T13:01:32Z</time>
      </trkpt>
      <trkpt lat="43.44672" lon="16.73348">
        <ele>85.079</ele>
        <time>2018-10-04T13:01:52Z</time>
      </trkpt>
      <trkpt lat="43.44675" lon="16.73375">
        <ele>86.051</ele>
        <time>2018-10-04T13:02:12Z</time>
      </trkpt>
      <trkpt lat="43.44663" lon="16.73405">
        <ele>85.099</ele>
        <time>2018-10-04T13:02:32Z</time>
      </trkpt>
      <trkpt lat="43.4466" lon="16.7342">
        <ele>83.04</ele>
        <time>2018-10-04T13:02:52Z</time>
      </trkpt>
      <trkpt lat="43.44655" lon="16.73431">
        <ele>81.03</ele>
        <time>2018-10-04T13:03:12Z</time>
      </trkpt>
      <trkpt lat="43.44655" lon="16.73433">
        <ele>80.099</ele>
        <time>2018-10-04T13:03:32Z</time>
      </trkpt>
      <trkpt lat="43.44653" lon="16.73447">
        <ele>79.061</ele>
        <time>2018-10-04T13:03:52Z</time>
      </trkpt>
      <trkpt lat="43.44652" lon="16.73468">
        <ele>77.021</ele>
        <time>2018-10-04T13:04:12Z</time>
      </trkpt>
      <trkpt lat="43.44656" lon="16.73493">
        <ele>77.013</ele>
        <time>2018-10-04T13:04:32Z</time>
      </trkpt>
      <trkpt lat="43.44656" lon="16.73495">
        <ele>78.008</ele>
        <time>2018-10-04T13:04:52Z</time>
      </trkpt>
      <trkpt lat="43.44658" lon="16.73506">
        <ele>79.018</ele>
        <time>2018-10-04T13:05:12Z</time>
      </trkpt>
      <trkpt lat="43.44668" lon="16.73533">
        <ele>79.055</ele>
        <time>2018-10-04T13:05:32Z</time>
      </trkpt>
      <trkpt lat="43.44672" lon="16.73556">
        <ele>80.068</ele>
        <time>2018-10-04T13:05:52Z</time>
      </trkpt>
      <trkpt lat="43.44672" lon="16.73574">
        <ele>82.08</ele>
        <time>2018-10-04T13:06:12Z</time>
      </trkpt>
      <trkpt lat="43.44674" lon="16.73585">
        <ele>84.048</ele>
        <time>2018-10-04T13:06:32Z</time>
      </trkpt>
      <trkpt lat="43.44678" lon="16.73592">
        <ele>85.099</ele>
        <time>2018-10-04T13:06:52Z</time>
      </trkpt>
      <trkpt lat="43.44677" lon="16.73602">
        <ele>85.049</ele>
        <time>2018-10-04T13:07:12Z</time>
      </trkpt>
      <trkpt lat="43.44671" lon="16.73632">
        <ele>86.098</ele>
        <time>2018-10-04T13:07:32Z</time>
      </trkpt>
      <trkpt lat="43.44667" lon="16.7365">
        <ele>87.075</ele>
        <time>2018-10-04T13:07:52Z</time>
      </trkpt>
      <trkpt lat="43.44656" lon="16.73681">
        <ele>86.028</ele>
        <time>2018-10-04T13:08:12Z</time>
      </trkpt>
      <trkpt lat="43.4465" lon="16.73703">
        <ele>89.02</ele>
        <time>2018-10-04T13:08:32Z</time>
      </trkpt>
      <trkpt lat="43.44648" lon="16.73707">
        <ele>89.008</ele>
        <time>2018-10-04T13:08:52Z</time>
      </trkpt>
      <trkpt lat="43.44646" lon="16.73711">
        <ele>90.059</ele>
        <time>2018-10-04T13:09:12Z</time>
      </trkpt>
      <trkpt lat="43.4464" lon="16.73727">
        <ele>90.056</ele>
        <time>2018-10-04T13:09:32Z</time>
      </trkpt>
      <trkpt lat="43.44634" lon="16.7374">
        <ele>91.089</ele>
        <time>2018-10-04T13:09:52Z</time>
      </trkpt>
      <trkpt lat="43.44625" lon="16.73754">
        <ele>93.051</ele>
        <time>2018-10-04T13:10:12Z</time>
      </trkpt>
      <trkpt lat="43.44621" lon="16.73759">
        <ele>94.099</ele>
        <time>2018-10-04T13:10:32Z</time>
      </trkpt>
      <trkpt lat="43.44613" lon="16.73778">
        <ele>96.03</ele>
        <time>2018-10-04T13:10:52Z</time>
      </trkpt>
      <trkpt lat="43.4461" lon="16.73784">
        <ele>96.04</ele>
        <time>2018-10-04T13:11:12Z</time>
      </trkpt>
      <trkpt lat="43.44596" lon="16.7381">
        <ele>97.019</ele>
        <time>2018-10-04T13:11:32Z</time>
      </trkpt>
      <trkpt lat="43.44594" lon="16.73816">
        <ele>97.061</ele>
        <time>2018-10-04T13:11:52Z</time>
      </trkpt>
      <trkpt lat="43.44587" lon="16.73829">
        <ele>99.021</ele>
        <time>2018-10-04T13:12:12Z</time>
      </trkpt>
      <trkpt lat="43.44581" lon="16.7384">
        <ele>102.013</ele>
        <time>2018-10-04T13:12:32Z</time>
      </trkpt>
      <trkpt lat="43.44581" lon="16.73844">
        <ele>103.008</ele>
        <time>2018-10-04T13:12:52Z</time>
      </trkpt>
      <trkpt lat="43.44578" lon="16.73853">
        <ele>105.038</ele>
        <time>2018-10-04T13:13:12Z</time>
      </trkpt>
      <trkpt lat="43.44573" lon="16.7386">
        <ele>106.035</ele>
        <time>2018-10-04T13:13:32Z</time>
      </trkpt>
      <trkpt lat="43.44572" lon="16.73862">
        <ele>107.078</ele>
        <time>2018-10-04T13:13:52Z</time>
      </trkpt>
      <trkpt lat="43.4457" lon="16.73864">
        <ele>108.06</ele>
        <time>2018-10-04T13:14:12Z</time>
      </trkpt>
      <trkpt lat="43.44568" lon="16.73866">
        <ele>109.038</ele>
        <time>2018-10-04T13:14:32Z</time>
      </trkpt>
      <trkpt lat="43.44567" lon="16.73867">
        <ele>110.089</ele>
        <time>2018-10-04T13:14:52Z</time>
      </trkpt>
      <trkpt lat="43.44564" lon="16.7387">
        <ele>111.069</ele>
        <time>2018-10-04T13:15:12Z</time>
      </trkpt>
      <trkpt lat="43.44561" lon="16.73872">
        <ele>112.068</ele>
        <time>2018-10-04T13:15:32Z</time>
      </trkpt>
      <trkpt lat="43.44553" lon="16.73875">
        <ele>114.025</ele>
        <time>2018-10-04T13:15:52Z</time>
      </trkpt>
      <trkpt lat="43.44552" lon="16.73877">
        <ele>115.026</ele>
        <time>2018-10-04T13:16:12Z</time>
      </trkpt>
      <trkpt lat="43.44553" lon="16.7388">
        <ele>116.008</ele>
        <time>2018-10-04T13:16:32Z</time>
      </trkpt>
      <trkpt lat="43.44551" lon="16.73882">
        <ele>117.008</ele>
        <time>2018-10-04T13:16:52Z</time>
      </trkpt>
      <trkpt lat="43.44551" lon="16.73883">
        <ele>117.014</ele>
        <time>2018-10-04T13:17:12Z</time>
      </trkpt>
      <trkpt lat="43.44549" lon="16.73885">
        <ele>118.061</ele>
        <time>2018-10-04T13:17:32Z</time>
      </trkpt>
      <trkpt lat="43.44548" lon="16.73886">
        <ele>119.034</ele>
        <time>2018-10-04T13:17:52Z</time>
      </trkpt>
      <trkpt lat="43.44544" lon="16.73889">
        <ele>120.016</ele>
        <time>2018-10-04T13:18:12Z</time>
      </trkpt>
      <trkpt lat="43.44541" lon="16.73893">
        <ele>120.024</ele>
        <time>2018-10-04T13:18:32Z</time>
      </trkpt>
      <trkpt lat="43.44536" lon="16.73899">
        <ele>122.015</ele>
        <time>2018-10-04T13:18:52Z</time>
      </trkpt>
      <trkpt lat="43.44532" lon="16.73902">
        <ele>124.075</ele>
        <time>2018-10-04T13:19:12Z</time>
      </trkpt>
      <trkpt lat="43.44529" lon="16.73903">
        <ele>124.064</ele>
        <time>2018-10-04T13:19:32Z</time>
      </trkpt>
      <trkpt lat="43.44526" lon="16.73906">
        <ele>125.047</ele>
        <time>2018-10-04T13:19:52Z</time>
      </trkpt>
      <trkpt lat="43.44524" lon="16.7391">
        <ele>127.029</ele>
        <time>2018-10-04T13:20:12Z</time>
      </trkpt>
      <trkpt lat="43.44521" lon="16.73911">
        <ele>128.021</ele>
        <time>2018-10-04T13:20:32Z</time>
      </trkpt>
      <trkpt lat="43.44519" lon="16.73911">
        <ele>128.008</ele>
        <time>2018-10-04T13:20:52Z</time>
      </trkpt>
      <trkpt lat="43.44514" lon="16.73912">
        <ele>129.076</ele>
        <time>2018-10-04T13:21:12Z</time>
      </trkpt>
      <trkpt lat="43.44509" lon="16.73916">
        <ele>131.013</ele>
        <time>2018-10-04T13:21:32Z</time>
      </trkpt>
      <trkpt lat="43.44505" lon="16.7392">
        <ele>132.046</ele>
        <time>2018-10-04T13:21:52Z</time>
      </trkpt>
      <trkpt lat="43.44502" lon="16.73924">
        <ele>133.018</ele>
        <time>2018-10-04T13:22:12Z</time>
      </trkpt>
      <trkpt lat="43.44501" lon="16.73926">
        <ele>134.026</ele>
        <time>2018-10-04T13:22:32Z</time>
      </trkpt>
      <trkpt lat="43.44499" lon="16.73926">
        <ele>134.027</ele>
        <time>2018-10-04T13:22:52Z</time>
      </trkpt>
      <trkpt lat="43.44496" lon="16.7393">
        <ele>135.097</ele>
        <time>2018-10-04T13:23:12Z</time>
      </trkpt>
      <trkpt lat="43.44494" lon="16.73933">
        <ele>136.096</ele>
        <time>2018-10-04T13:23:32Z</time>
      </trkpt>
      <trkpt lat="43.44496" lon="16.73932">
        <ele>136.083</ele>
        <time>2018-10-04T13:23:52Z</time>
      </trkpt>
      <trkpt lat="43.44499" lon="16.7393">
        <ele>137.025</ele>
        <time>2018-10-04T13:24:12Z</time>
      </trkpt>
      <trkpt lat="43.44502" lon="16.73932">
        <ele>138.017</ele>
        <time>2018-10-04T13:24:32Z</time>
      </trkpt>
      <trkpt lat="43.44503" lon="16.73933">
        <ele>139.008</ele>
        <time>2018-10-04T13:24:52Z</time>
      </trkpt>
      <trkpt lat="43.44508" lon="16.73937">
        <ele>140.06</ele>
        <time>2018-10-04T13:25:12Z</time>
      </trkpt>
      <trkpt lat="43.44506" lon="16.7394">
        <ele>142.057</ele>
        <time>2018-10-04T13:25:32Z</time>
      </trkpt>
      <trkpt lat="43.44504" lon="16.73943">
        <ele>142.05</ele>
        <time>2018-10-04T13:25:52Z</time>
      </trkpt>
      <trkpt lat="43.44502" lon="16.73947">
        <ele>143.012</ele>
        <time>2018-10-04T13:26:12Z</time>
      </trkpt>
      <trkpt lat="43.44499" lon="16.73951">
        <ele>144.06</ele>
        <time>2018-10-04T13:26:32Z</time>
      </trkpt>
      <trkpt lat="43.44498" lon="16.73952">
        <ele>144.051</ele>
        <time>2018-10-04T13:26:52Z</time>
      </trkpt>
      <trkpt lat="43.44495" lon="16.73954">
        <ele>145.061</ele>
        <time>2018-10-04T13:27:12Z</time>
      </trkpt>
      <trkpt lat="43.44493" lon="16.73955">
        <ele>146.08</ele>
        <time>2018-10-04T13:27:32Z</time>
      </trkpt>
      <trkpt lat="43.44492" lon="16.73961">
        <ele>147.052</ele>
        <time>2018-10-04T13:27:52Z</time>
      </trkpt>
      <trkpt lat="43.44495" lon="16.73962">
        <ele>148.053</ele>
        <time>2018-10-04T13:28:12Z</time>
      </trkpt>
      <trkpt lat="43.44498" lon="16.73964">
        <ele>149.008</ele>
        <time>2018-10-04T13:28:32Z</time>
      </trkpt>
      <trkpt lat="43.44502" lon="16.73964">
        <ele>150.008</ele>
        <time>2018-10-04T13:28:52Z</time>
      </trkpt>
      <trkpt lat="43.44502" lon="16.73968">
        <ele>151.057</ele>
        <time>2018-10-04T13:29:12Z</time>
      </trkpt>
      <trkpt lat="43.44499" lon="16.73973">
        <ele>152.084</ele>
        <time>2018-10-04T13:29:32Z</time>
      </trkpt>
      <trkpt lat="43.44494" lon="16.73979">
        <ele>153.037</ele>
        <time>2018-10-04T13:29:52Z</time>
      </trkpt>
      <trkpt lat="43.4449" lon="16.73988">
        <ele>155.079</ele>
        <time>2018-10-04T13:30:12Z</time>
      </trkpt>
      <trkpt lat="43.4449" lon="16.73991">
        <ele>156.087</ele>
        <time>2018-10-04T13:30:32Z</time>
      </trkpt>
      <trkpt lat="43.44493" lon="16.73993">
        <ele>157.048</ele>
        <time>2018-10-04T13:30:52Z</time>
      </trkpt>
      <trkpt lat="43.44499" lon="16.73993">
        <ele>159.018</ele>
        <time>2018-10-04T13:31:12Z</time>
      </trkpt>
      <trkpt lat="43.445" lon="16.73996">
        <ele>162.057</ele>
        <time>2018-10-04T13:31:32Z</time>
      </trkpt>
      <trkpt lat="43.44498" lon="16.74004">
        <ele>163.097</ele>
        <time>2018-10-04T13:31:52Z</time>
      </trkpt>
      <trkpt lat="43.44493" lon="16.74018">
        <ele>164.023</ele>
        <time>2018-10-04T13:32:12Z</time>
      </trkpt>
      <trkpt lat="43.44491" lon="16.74022">
        <ele>165.025</ele>
        <time>2018-10-04T13:32:32Z</time>
      </trkpt>
      <trkpt lat="43.44489" lon="16.74026">
        <ele>166.008</ele>
        <time>2018-10-04T13:32:52Z</time>
      </trkpt>
      <trkpt lat="43.44484" lon="16.7403">
        <ele>167.091</ele>
        <time>2018-10-04T13:33:12Z</time>
      </trkpt>
      <trkpt lat="43.44479" lon="16.7404">
        <ele>169.088</ele>
        <time>2018-10-04T13:33:32Z</time>
      </trkpt>
      <trkpt lat="43.44476" lon="16.74044">
        <ele>170.081</ele>
        <time>2018-10-04T13:33:52Z</time>
      </trkpt>
      <trkpt lat="43.44476" lon="16.74047">
        <ele>170.023</ele>
        <time>2018-10-04T13:34:12Z</time>
      </trkpt>
      <trkpt lat="43.44472" lon="16.74051">
        <ele>172.061</ele>
        <time>2018-10-04T13:34:32Z</time>
      </trkpt>
      <trkpt lat="43.4447" lon="16.74055">
        <ele>173.062</ele>
        <time>2018-10-04T13:34:52Z</time>
      </trkpt>
      <trkpt lat="43.44469" lon="16.74057">
        <ele>173.072</ele>
        <time>2018-10-04T13:35:12Z</time>
      </trkpt>
      <trkpt lat="43.44466" lon="16.74061">
        <ele>174.081</ele>
        <time>2018-10-04T13:35:32Z</time>
      </trkpt>
      <trkpt lat="43.44463" lon="16.74065">
        <ele>175.034</ele>
        <time>2018-10-04T13:35:52Z</time>
      </trkpt>
      <trkpt lat="43.4446" lon="16.74069">
        <ele>176.055</ele>
        <time>2018-10-04T13:36:12Z</time>
      </trkpt>
      <trkpt lat="43.44458" lon="16.74071">
        <ele>177.01</ele>
        <time>2018-10-04T13:36:32Z</time>
      </trkpt>
      <trkpt lat="43.44454" lon="16.74076">
        <ele>178.008</ele>
        <time>2018-10-04T13:36:52Z</time>
      </trkpt>
      <trkpt lat="43.44453" lon="16.74078">
        <ele>179.075</ele>
        <time>2018-10-04T13:37:12Z</time>
      </trkpt>
      <trkpt lat="43.44458" lon="16.74078">
        <ele>180.012</ele>
        <time>2018-10-04T13:37:32Z</time>
      </trkpt>
      <trkpt lat="43.44459" lon="16.74076">
        <ele>181.045</ele>
        <time>2018-10-04T13:37:52Z</time>
      </trkpt>
      <trkpt lat="43.4446" lon="16.74076">
        <ele>181.097</ele>
        <time>2018-10-04T13:38:12Z</time>
      </trkpt>
      <trkpt lat="43.44463" lon="16.74079">
        <ele>182.085</ele>
        <time>2018-10-04T13:38:32Z</time>
      </trkpt>
      <trkpt lat="43.44464" lon="16.7408">
        <ele>183.086</ele>
        <time>2018-10-04T13:38:52Z</time>
      </trkpt>
      <trkpt lat="43.44464" lon="16.74082">
        <ele>183.056</ele>
        <time>2018-10-04T13:39:12Z</time>
      </trkpt>
      <trkpt lat="43.44461" lon="16.74085">
        <ele>184.035</ele>
        <time>2018-10-04T13:39:32Z</time>
      </trkpt>
      <trkpt lat="43.4446" lon="16.74086">
        <ele>184.063</ele>
        <time>2018-10-04T13:39:52Z</time>
      </trkpt>
      <trkpt lat="43.44454" lon="16.74091">
        <ele>186.044</ele>
        <time>2018-10-04T13:40:12Z</time>
      </trkpt>
      <trkpt lat="43.44452" lon="16.74098">
        <ele>187.018</ele>
        <time>2018-10-04T13:40:32Z</time>
      </trkpt>
      <trkpt lat="43.44449" lon="16.74102">
        <ele>189.008</ele>
        <time>2018-10-04T13:40:52Z</time>
      </trkpt>
      <trkpt lat="43.44448" lon="16.74104">
        <ele>189.068</ele>
        <time>2018-10-04T13:41:12Z</time>
      </trkpt>
      <trkpt lat="43.44452" lon="16.74107">
        <ele>191.025</ele>
        <time>2018-10-04T13:41:32Z</time>
      </trkpt>
      <trkpt lat="43.44453" lon="16.74109">
        <ele>191.048</ele>
        <time>2018-10-04T13:41:52Z</time>
      </trkpt>
      <trkpt lat="43.44455" lon="16.74113">
        <ele>192.08</ele>
        <time>2018-10-04T13:42:12Z</time>
      </trkpt>
      <trkpt lat="43.44455" lon="16.74113">
        <ele>192.018</ele>
        <time>2018-10-04T13:42:32Z</time>
      </trkpt>
      <trkpt lat="43.44457" lon="16.74112">
        <ele>193.089</ele>
        <time>2018-10-04T13:42:52Z</time>
      </trkpt>
      <trkpt lat="43.44457" lon="16.74111">
        <ele>194.089</ele>
        <time>2018-10-04T13:43:12Z</time>
      </trkpt>
      <trkpt lat="43.44459" lon="16.74108">
        <ele>194.078</ele>
        <time>2018-10-04T13:43:32Z</time>
      </trkpt>
      <trkpt lat="43.4446" lon="16.74109">
        <ele>195.077</ele>
        <time>2018-10-04T13:43:52Z</time>
      </trkpt>
      <trkpt lat="43.44462" lon="16.74109">
        <ele>195.061</ele>
        <time>2018-10-04T13:44:12Z</time>
      </trkpt>
      <trkpt lat="43.44464" lon="16.74109">
        <ele>196.027</ele>
        <time>2018-10-04T13:44:32Z</time>
      </trkpt>
      <trkpt lat="43.44466" lon="16.74109">
        <ele>196.008</ele>
        <time>2018-10-04T13:44:52Z</time>
      </trkpt>
      <trkpt lat="43.4447" lon="16.74108">
        <ele>198.019</ele>
        <time>2018-10-04T13:45:12Z</time>
      </trkpt>
      <trkpt lat="43.44475" lon="16.74105">
        <ele>199.066</ele>
        <time>2018-10-04T13:45:32Z</time>
      </trkpt>
      <trkpt lat="43.44484" lon="16.741">
        <ele>200.079</ele>
        <time>2018-10-04T13:45:52Z</time>
      </trkpt>
      <trkpt lat="43.44489" lon="16.74094">
        <ele>202.041</ele>
        <time>2018-10-04T13:46:12Z</time>
      </trkpt>
      <trkpt lat="43.44494" lon="16.7409">
        <ele>203.069</ele>
        <time>2018-10-04T13:46:32Z</time>
      </trkpt>
      <trkpt lat="43.44497" lon="16.74087">
        <ele>204.09</ele>
        <time>2018-10-04T13:46:52Z</time>
      </trkpt>
      <trkpt lat="43.445" lon="16.74086">
        <ele>205.05</ele>
        <time>2018-10-04T13:47:12Z</time>
      </trkpt>
      <trkpt lat="43.44511" lon="16.74082">
        <ele>207.029</ele>
        <time>2018-10-04T13:47:32Z</time>
      </trkpt>
      <trkpt lat="43.44517" lon="16.7408">
        <ele>209.059</ele>
        <time>2018-10-04T13:47:52Z</time>
      </trkpt>
      <trkpt lat="43.44518" lon="16.7408">
        <ele>210.003</ele>
        <time>2018-10-04T13:48:12Z</time>
      </trkpt>
      <trkpt lat="43.44523" lon="16.74078">
        <ele>211.023</ele>
        <time>2018-10-04T13:48:32Z</time>
      </trkpt>
      <trkpt lat="43.44529" lon="16.74076">
        <ele>213.008</ele>
        <time>2018-10-04T13:48:52Z</time>
      </trkpt>
      <trkpt lat="43.44537" lon="16.74075">
        <ele>214.077</ele>
        <time>2018-10-04T13:49:12Z</time>
      </trkpt>
      <trkpt lat="43.44546" lon="16.74075">
        <ele>217.044</ele>
        <time>2018-10-04T13:49:32Z</time>
      </trkpt>
      <trkpt lat="43.44551" lon="16.74075">
        <ele>218.037</ele>
        <time>2018-10-04T13:49:52Z</time>
      </trkpt>
      <trkpt lat="43.44556" lon="16.74073">
        <ele>219.059</ele>
        <time>2018-10-04T13:50:12Z</time>
      </trkpt>
      <trkpt lat="43.44559" lon="16.74072">
        <ele>220.087</ele>
        <time>2018-10-04T13:50:32Z</time>
      </trkpt>
      <trkpt lat="43.44562" lon="16.7407">
        <ele>221.068</ele>
        <time>2018-10-04T13:50:52Z</time>
      </trkpt>
      <trkpt lat="43.44562" lon="16.7407">
        <ele>221.098</ele>
        <time>2018-10-04T13:51:12Z</time>
      </trkpt>
      <trkpt lat="43.44563" lon="16.74078">
        <ele>223.057</ele>
        <time>2018-10-04T13:51:32Z</time>
      </trkpt>
      <trkpt lat="43.44562" lon="16.74085">
        <ele>224.011</ele>
        <time>2018-10-04T13:51:52Z</time>
      </trkpt>
      <trkpt lat="43.44555" lon="16.74093">
        <ele>226.021</ele>
        <time>2018-10-04T13:52:12Z</time>
      </trkpt>
      <trkpt lat="43.44551" lon="16.741">
        <ele>228.003</ele>
        <time>2018-10-04T13:52:32Z</time>
      </trkpt>
      <trkpt lat="43.44549" lon="16.74102">
        <ele>228.008</ele>
        <time>2018-10-04T13:52:52Z</time>
      </trkpt>
      <trkpt lat="43.44545" lon="16.74108">
        <ele>230.043</ele>
        <time>2018-10-04T13:53:12Z</time>
      </trkpt>
      <trkpt lat="43.44545" lon="16.74108">
        <ele>231.08</ele>
        <time>2018-10-04T13:53:32Z</time>
      </trkpt>
      <trkpt lat="43.44549" lon="16.74103">
        <ele>232.073</ele>
        <time>2018-10-04T13:53:52Z</time>
      </trkpt>
      <trkpt lat="43.44557" lon="16.74106">
        <ele>233.095</ele>
        <time>2018-10-04T13:54:12Z</time>
      </trkpt>
      <trkpt lat="43.44554" lon="16.74111">
        <ele>234.083</ele>
        <time>2018-10-04T13:54:32Z</time>
      </trkpt>
      <trkpt lat="43.44549" lon="16.74119">
        <ele>236.014</ele>
        <time>2018-10-04T13:54:52Z</time>
      </trkpt>
      <trkpt lat="43.44546" lon="16.74124">
        <ele>237.094</ele>
        <time>2018-10-04T13:55:12Z</time>
      </trkpt>
      <trkpt lat="43.44543" lon="16.74133">
        <ele>239.043</ele>
        <time>2018-10-04T13:55:32Z</time>
      </trkpt>
      <trkpt lat="43.44536" lon="16.74141">
        <ele>241.095</ele>
        <time>2018-10-04T13:55:52Z</time>
      </trkpt>
      <trkpt lat="43.44528" lon="16.7415">
        <ele>244.049</ele>
        <time>2018-10-04T13:56:12Z</time>
      </trkpt>
      <trkpt lat="43.44527" lon="16.74153">
        <ele>245.023</ele>
        <time>2018-10-04T13:56:32Z</time>
      </trkpt>
      <trkpt lat="43.44524" lon="16.74159">
        <ele>247.008</ele>
        <time>2018-10-04T13:56:52Z</time>
      </trkpt>
      <trkpt lat="43.4452" lon="16.74166">
        <ele>248.041</ele>
        <time>2018-10-04T13:57:12Z</time>
      </trkpt>
      <trkpt lat="43.44518" lon="16.74169">
        <ele>249.018</ele>
        <time>2018-10-04T13:57:32Z</time>
      </trkpt>
      <trkpt lat="43.44518" lon="16.74169">
        <ele>249.031</ele>
        <time>2018-10-04T13:57:52Z</time>
      </trkpt>
      <trkpt lat="43.44519" lon="16.74169">
        <ele>250.033</ele>
        <time>2018-10-04T13:58:12Z</time>
      </trkpt>
      <trkpt lat="43.44521" lon="16.74168">
        <ele>251.091</ele>
        <time>2018-10-04T13:58:32Z</time>
      </trkpt>
      <trkpt lat="43.44519" lon="16.74175">
        <ele>252.092</ele>
        <time>2018-10-04T13:58:52Z</time>
      </trkpt>
      <trkpt lat="43.44517" lon="16.74176">
        <ele>253.052</ele>
        <time>2018-10-04T13:59:12Z</time>
      </trkpt>
      <trkpt lat="43.44513" lon="16.74181">
        <ele>254.071</ele>
        <time>2018-10-04T13:59:32Z</time>
      </trkpt>
      <trkpt lat="43.44517" lon="16.7418">
        <ele>255.066</ele>
        <time>2018-10-04T13:59:52Z</time>
      </trkpt>
      <trkpt lat="43.44519" lon="16.74179">
        <ele>256.029</ele>
        <time>2018-10-04T14:00:12Z</time>
      </trkpt>
      <trkpt lat="43.44522" lon="16.74179">
        <ele>256.021</ele>
        <time>2018-10-04T14:00:32Z</time>
      </trkpt>
      <trkpt lat="43.44523" lon="16.7418">
        <ele>256.008</ele>
        <time>2018-10-04T14:00:52Z</time>
      </trkpt>
      <trkpt lat="43.44521" lon="16.74187">
        <ele>257.078</ele>
        <time>2018-10-04T14:01:12Z</time>
      </trkpt>
      <trkpt lat="43.44519" lon="16.74192">
        <ele>259.065</ele>
        <time>2018-10-04T14:01:32Z</time>
      </trkpt>
      <trkpt lat="43.44518" lon="16.74198">
        <ele>260.058</ele>
        <time>2018-10-04T14:01:52Z</time>
      </trkpt>
      <trkpt lat="43.44523" lon="16.74209">
        <ele>261.09</ele>
        <time>2018-10-04T14:02:12Z</time>
      </trkpt>
      <trkpt lat="43.44526" lon="16.74213">
        <ele>262.088</ele>
        <time>2018-10-04T14:02:32Z</time>
      </trkpt>
      <trkpt lat="43.44536" lon="16.74216">
        <ele>264.099</ele>
        <time>2018-10-04T14:02:52Z</time>
      </trkpt>
      <trkpt lat="43.44542" lon="16.74217">
        <ele>265.069</ele>
        <time>2018-10-04T14:03:12Z</time>
      </trkpt>
      <trkpt lat="43.4455" lon="16.74216">
        <ele>266.058</ele>
        <time>2018-10-04T14:03:32Z</time>
      </trkpt>
      <trkpt lat="43.44559" lon="16.74217">
        <ele>267.044</ele>
        <time>2018-10-04T14:03:52Z</time>
      </trkpt>
      <trkpt lat="43.44564" lon="16.74217">
        <ele>269.005</ele>
        <time>2018-10-04T14:04:12Z</time>
      </trkpt>
      <trkpt lat="43.44569" lon="16.74215">
        <ele>270.015</ele>
        <time>2018-10-04T14:04:32Z</time>
      </trkpt>
      <trkpt lat="43.44581" lon="16.74211">
        <ele>272.008</ele>
        <time>2018-10-04T14:04:52Z</time>
      </trkpt>
      <trkpt lat="43.44589" lon="16.74208">
        <ele>273.066</ele>
        <time>2018-10-04T14:05:12Z</time>
      </trkpt>
      <trkpt lat="43.44597" lon="16.7421">
        <ele>274.073</ele>
        <time>2018-10-04T14:05:32Z</time>
      </trkpt>
      <trkpt lat="43.44604" lon="16.74217">
        <ele>275.056</ele>
        <time>2018-10-04T14:05:52Z</time>
      </trkpt>
      <trkpt lat="43.44611" lon="16.74223">
        <ele>276.088</ele>
        <time>2018-10-04T14:06:12Z</time>
      </trkpt>
      <trkpt lat="43.44617" lon="16.74229">
        <ele>277.066</ele>
        <time>2018-10-04T14:06:32Z</time>
      </trkpt>
      <trkpt lat="43.44625" lon="16.74234">
        <ele>279.067</ele>
        <time>2018-10-04T14:06:52Z</time>
      </trkpt>
      <trkpt lat="43.44634" lon="16.74239">
        <ele>280.047</ele>
        <time>2018-10-04T14:07:12Z</time>
      </trkpt>
      <trkpt lat="43.44645" lon="16.74242">
        <ele>280.056</ele>
        <time>2018-10-04T14:07:32Z</time>
      </trkpt>
      <trkpt lat="43.44655" lon="16.74251">
        <ele>279.061</ele>
        <time>2018-10-04T14:07:52Z</time>
      </trkpt>
      <trkpt lat="43.44658" lon="16.74253">
        <ele>278.021</ele>
        <time>2018-10-04T14:08:12Z</time>
      </trkpt>
      <trkpt lat="43.44659" lon="16.74264">
        <ele>277.013</ele>
        <time>2018-10-04T14:08:32Z</time>
      </trkpt>
      <trkpt lat="43.44662" lon="16.74278">
        <ele>276.008</ele>
        <time>2018-10-04T14:08:52Z</time>
      </trkpt>
      <trkpt lat="43.4468" lon="16.7429">
        <ele>276.058</ele>
        <time>2018-10-04T14:09:12Z</time>
      </trkpt>
      <trkpt lat="43.44695" lon="16.74302">
        <ele>276.045</ele>
        <time>2018-10-04T14:09:32Z</time>
      </trkpt>
      <trkpt lat="43.44713" lon="16.74323">
        <ele>275.038</ele>
        <time>2018-10-04T14:09:52Z</time>
      </trkpt>
      <trkpt lat="43.44724" lon="16.74328">
        <ele>274.03</ele>
        <time>2018-10-04T14:10:12Z</time>
      </trkpt>
      <trkpt lat="43.44742" lon="16.74338">
        <ele>273.048</ele>
        <time>2018-10-04T14:10:32Z</time>
      </trkpt>
      <trkpt lat="43.44759" lon="16.74347">
        <ele>273.049</ele>
        <time>2018-10-04T14:10:52Z</time>
      </trkpt>
      <trkpt lat="43.44779" lon="16.74357">
        <ele>273.039</ele>
        <time>2018-10-04T14:11:12Z</time>
      </trkpt>
      <trkpt lat="43.44795" lon="16.74361">
        <ele>273.078</ele>
        <time>2018-10-04T14:11:32Z</time>
      </trkpt>
      <trkpt lat="43.44797" lon="16.74386">
        <ele>274.027</ele>
        <time>2018-10-04T14:11:52Z</time>
      </trkpt>
      <trkpt lat="43.44798" lon="16.74413">
        <ele>273.068</ele>
        <time>2018-10-04T14:12:12Z</time>
      </trkpt>
      <trkpt lat="43.44795" lon="16.74435">
        <ele>273.014</ele>
        <time>2018-10-04T14:12:32Z</time>
      </trkpt>
      <trkpt lat="43.44793" lon="16.74462">
        <ele>272.008</ele>
        <time>2018-10-04T14:12:52Z</time>
      </trkpt>
      <trkpt lat="43.44789" lon="16.74489">
        <ele>273.014</ele>
        <time>2018-10-04T14:13:12Z</time>
      </trkpt>
      <trkpt lat="43.44784" lon="16.74512">
        <ele>272.041</ele>
        <time>2018-10-04T14:13:32Z</time>
      </trkpt>
      <trkpt lat="43.44773" lon="16.74538">
        <ele>271.074</ele>
        <time>2018-10-04T14:13:52Z</time>
      </trkpt>
      <trkpt lat="43.44766" lon="16.74561">
        <ele>270.016</ele>
        <time>2018-10-04T14:14:12Z</time>
      </trkpt>
      <trkpt lat="43.44759" lon="16.74584">
        <ele>269.024</ele>
        <time>2018-10-04T14:14:32Z</time>
      </trkpt>
      <trkpt lat="43.44756" lon="16.74608">
        <ele>269.095</ele>
        <time>2018-10-04T14:14:52Z</time>
      </trkpt>
      <trkpt lat="43.4476" lon="16.74618">
        <ele>269.045</ele>
        <time>2018-10-04T14:15:12Z</time>
      </trkpt>
      <trkpt lat="43.44766" lon="16.74616">
        <ele>269.094</ele>
        <time>2018-10-04T14:15:32Z</time>
      </trkpt>
      <trkpt lat="43.44771" lon="16.74609">
        <ele>269.034</ele>
        <time>2018-10-04T14:15:52Z</time>
      </trkpt>
      <trkpt lat="43.4479" lon="16.74598">
        <ele>269.055</ele>
        <time>2018-10-04T14:16:12Z</time>
      </trkpt>
      <trkpt lat="43.448" lon="16.74602">
        <ele>268.01</ele>
        <time>2018-10-04T14:16:32Z</time>
      </trkpt>
      <trkpt lat="43.44809" lon="16.74614">
        <ele>266.008</ele>
        <time>2018-10-04T14:16:52Z</time>
      </trkpt>
      <trkpt lat="43.44816" lon="16.74614">
        <ele>265.025</ele>
        <time>2018-10-04T14:17:12Z</time>
      </trkpt>
      <trkpt lat="43.44822" lon="16.74611">
        <ele>264.072</ele>
        <time>2018-10-04T14:17:32Z</time>
      </trkpt>
      <trkpt lat="43.44827" lon="16.74614">
        <ele>263.075</ele>
        <time>2018-10-04T14:17:52Z</time>
      </trkpt>
      <trkpt lat="43.44831" lon="16.74609">
        <ele>263.017</ele>
        <time>2018-10-04T14:18:12Z</time>
      </trkpt>
      <trkpt lat="43.44838" lon="16.74614">
        <ele>261.075</ele>
        <time>2018-10-04T14:18:32Z</time>
      </trkpt>
      <trkpt lat="43.44841" lon="16.7462">
        <ele>259.046</ele>
        <time>2018-10-04T14:18:52Z</time>
      </trkpt>
      <trkpt lat="43.44838" lon="16.74635">
        <ele>257.036</ele>
        <time>2018-10-04T14:19:12Z</time>
      </trkpt>
      <trkpt lat="43.44838" lon="16.74641">
        <ele>256.015</ele>
        <time>2018-10-04T14:19:32Z</time>
      </trkpt>
      <trkpt lat="43.44834" lon="16.74657">
        <ele>254.078</ele>
        <time>2018-10-04T14:19:52Z</time>
      </trkpt>
      <trkpt lat="43.44827" lon="16.74672">
        <ele>251.033</ele>
        <time>2018-10-04T14:20:12Z</time>
      </trkpt>
      <trkpt lat="43.44824" lon="16.74683">
        <ele>250.026</ele>
        <time>2018-10-04T14:20:32Z</time>
      </trkpt>
      <trkpt lat="43.44823" lon="16.74698">
        <ele>248.008</ele>
        <time>2018-10-04T14:20:52Z</time>
      </trkpt>
      <trkpt lat="43.44823" lon="16.7471">
        <ele>246.099</ele>
        <time>2018-10-04T14:21:12Z</time>
      </trkpt>
      <trkpt lat="43.44825" lon="16.74712">
        <ele>245.096</ele>
        <time>2018-10-04T14:21:32Z</time>
      </trkpt>
      <trkpt lat="43.44829" lon="16.74712">
        <ele>244.089</ele>
        <time>2018-10-04T14:21:52Z</time>
      </trkpt>
      <trkpt lat="43.4483" lon="16.74714">
        <ele>243.081</ele>
        <time>2018-10-04T14:22:12Z</time>
      </trkpt>
      <trkpt lat="43.44832" lon="16.74724">
        <ele>242.049</ele>
        <time>2018-10-04T14:22:32Z</time>
      </trkpt>
      <trkpt lat="43.44836" lon="16.74736">
        <ele>241.01</ele>
        <time>2018-10-04T14:22:52Z</time>
      </trkpt>
      <trkpt lat="43.44839" lon="16.74741">
        <ele>241.02</ele>
        <time>2018-10-04T14:23:12Z</time>
      </trkpt>
      <trkpt lat="43.44846" lon="16.74745">
        <ele>240.089</ele>
        <time>2018-10-04T14:23:32Z</time>
      </trkpt>
      <trkpt lat="43.44866" lon="16.7475">
        <ele>239.024</ele>
        <time>2018-10-04T14:23:52Z</time>
      </trkpt>
      <trkpt lat="43.44891" lon="16.74747">
        <ele>238.004</ele>
        <time>2018-10-04T14:24:12Z</time>
      </trkpt>
      <trkpt lat="43.44893" lon="16.74746">
        <ele>238.014</ele>
        <time>2018-10-04T14:24:32Z</time>
      </trkpt>
      <trkpt lat="43.44907" lon="16.74735">
        <ele>237.008</ele>
        <time>2018-10-04T14:24:52Z</time>
      </trkpt>
      <trkpt lat="43.44916" lon="16.74729">
        <ele>238.044</ele>
        <time>2018-10-04T14:25:12Z</time>
      </trkpt>
      <trkpt lat="43.4492" lon="16.74724">
        <ele>239.071</ele>
        <time>2018-10-04T14:25:32Z</time>
      </trkpt>
      <trkpt lat="43.44922" lon="16.74721">
        <ele>239.044</ele>
        <time>2018-10-04T14:25:52Z</time>
      </trkpt>
      <trkpt lat="43.44939" lon="16.74712">
        <ele>239.036</ele>
        <time>2018-10-04T14:26:12Z</time>
      </trkpt>
      <trkpt lat="43.44949" lon="16.7471">
        <ele>238.034</ele>
        <time>2018-10-04T14:26:32Z</time>
      </trkpt>
      <trkpt lat="43.4496" lon="16.74716">
        <ele>237.085</ele>
        <time>2018-10-04T14:26:52Z</time>
      </trkpt>
      <trkpt lat="43.44968" lon="16.74725">
        <ele>236.085</ele>
        <time>2018-10-04T14:27:12Z</time>
      </trkpt>
      <trkpt lat="43.44987" lon="16.74747">
        <ele>236.094</ele>
        <time>2018-10-04T14:27:32Z</time>
      </trkpt>
      <trkpt lat="43.44988" lon="16.7475">
        <ele>237.093</ele>
        <time>2018-10-04T14:27:52Z</time>
      </trkpt>
      <trkpt lat="43.45" lon="16.74763">
        <ele>237.065</ele>
        <time>2018-10-04T14:28:12Z</time>
      </trkpt>
      <trkpt lat="43.45005" lon="16.74762">
        <ele>237.021</ele>
        <time>2018-10-04T14:28:32Z</time>
      </trkpt>
      <trkpt lat="43.45006" lon="16.74768">
        <ele>238.008</ele>
        <time>2018-10-04T14:28:52Z</time>
      </trkpt>
      <trkpt lat="43.45002" lon="16.74778">
        <ele>237.051</ele>
        <time>2018-10-04T14:29:12Z</time>
      </trkpt>
      <trkpt lat="43.44992" lon="16.74801">
        <ele>237.078</ele>
        <time>2018-10-04T14:29:32Z</time>
      </trkpt>
      <trkpt lat="43.44987" lon="16.74821">
        <ele>236.031</ele>
        <time>2018-10-04T14:29:52Z</time>
      </trkpt>
      <trkpt lat="43.44975" lon="16.74844">
        <ele>235.013</ele>
        <time>2018-10-04T14:30:12Z</time>
      </trkpt>
      <trkpt lat="43.44969" lon="16.74856">
        <ele>235.071</ele>
        <time>2018-10-04T14:30:32Z</time>
      </trkpt>
      <trkpt lat="43.44959" lon="16.74877">
        <ele>234.062</ele>
        <time>2018-10-04T14:30:52Z</time>
      </trkpt>
      <trkpt lat="43.44945" lon="16.74895">
        <ele>235.022</ele>
        <time>2018-10-04T14:31:12Z</time>
      </trkpt>
      <trkpt lat="43.44937" lon="16.74907">
        <ele>234.011</ele>
        <time>2018-10-04T14:31:32Z</time>
      </trkpt>
      <trkpt lat="43.44921" lon="16.74922">
        <ele>233.043</ele>
        <time>2018-10-04T14:31:52Z</time>
      </trkpt>
      <trkpt lat="43.44907" lon="16.74941">
        <ele>233.064</ele>
        <time>2018-10-04T14:32:12Z</time>
      </trkpt>
      <trkpt lat="43.44896" lon="16.74955">
        <ele>233.01</ele>
        <time>2018-10-04T14:32:32Z</time>
      </trkpt>
      <trkpt lat="43.44882" lon="16.74977">
        <ele>232.008</ele>
        <time>2018-10-04T14:32:52Z</time>
      </trkpt>
      <trkpt lat="43.44871" lon="16.74997">
        <ele>232.046</ele>
        <time>2018-10-04T14:33:12Z</time>
      </trkpt>
      <trkpt lat="43.44858" lon="16.75018">
        <ele>232.043</ele>
        <time>2018-10-04T14:33:32Z</time>
      </trkpt>
      <trkpt lat="43.44848" lon="16.75038">
        <ele>233.036</ele>
        <time>2018-10-04T14:33:52Z</time>
      </trkpt>
      <trkpt lat="43.44843" lon="16.75062">
        <ele>232.078</ele>
        <time>2018-10-04T14:34:12Z</time>
      </trkpt>
      <trkpt lat="43.44833" lon="16.75084">
        <ele>233.086</ele>
        <time>2018-10-04T14:34:32Z</time>
      </trkpt>
      <trkpt lat="43.44818" lon="16.75102">
        <ele>233.067</ele>
        <time>2018-10-04T14:34:52Z</time>
      </trkpt>
      <trkpt lat="43.44815" lon="16.75111">
        <ele>233.067</ele>
        <time>2018-10-04T14:35:12Z</time>
      </trkpt>
      <trkpt lat="43.44827" lon="16.75131">
        <ele>233.076</ele>
        <time>2018-10-04T14:35:32Z</time>
      </trkpt>
      <trkpt lat="43.44835" lon="16.75152">
        <ele>234.086</ele>
        <time>2018-10-04T14:35:52Z</time>
      </trkpt>
      <trkpt lat="43.44826" lon="16.75167">
        <ele>235.06</ele>
        <time>2018-10-04T14:36:12Z</time>
      </trkpt>
      <trkpt lat="43.44814" lon="16.7519">
        <ele>235.026</ele>
        <time>2018-10-04T14:36:32Z</time>
      </trkpt>
      <trkpt lat="43.44806" lon="16.75206">
        <ele>236.008</ele>
        <time>2018-10-04T14:36:52Z</time>
      </trkpt>
      <trkpt lat="43.44797" lon="16.7522">
        <ele>237.04</ele>
        <time>2018-10-04T14:37:12Z</time>
      </trkpt>
      <trkpt lat="43.44787" lon="16.75234">
        <ele>238.047</ele>
        <time>2018-10-04T14:37:32Z</time>
      </trkpt>
      <trkpt lat="43.44787" lon="16.75238">
        <ele>237.09</ele>
        <time>2018-10-04T14:37:52Z</time>
      </trkpt>
      <trkpt lat="43.44779" lon="16.75238">
        <ele>237.062</ele>
        <time>2018-10-04T14:38:12Z</time>
      </trkpt>
      <trkpt lat="43.44768" lon="16.75246">
        <ele>236.01</ele>
        <time>2018-10-04T14:38:32Z</time>
      </trkpt>
      <trkpt lat="43.44761" lon="16.75251">
        <ele>235.091</ele>
        <time>2018-10-04T14:38:52Z</time>
      </trkpt>
      <trkpt lat="43.44751" lon="16.75262">
        <ele>234.021</ele>
        <time>2018-10-04T14:39:12Z</time>
      </trkpt>
      <trkpt lat="43.44743" lon="16.75271">
        <ele>233.06</ele>
        <time>2018-10-04T14:39:32Z</time>
      </trkpt>
      <trkpt lat="43.44725" lon="16.7528">
        <ele>232.059</ele>
        <time>2018-10-04T14:39:52Z</time>
      </trkpt>
      <trkpt lat="43.44706" lon="16.75285">
        <ele>232.003</ele>
        <time>2018-10-04T14:40:12Z</time>
      </trkpt>
      <trkpt lat="43.44704" lon="16.75285">
        <ele>232.023</ele>
        <time>2018-10-04T14:40:32Z</time>
      </trkpt>
      <trkpt lat="43.44685" lon="16.75297">
        <ele>232.008</ele>
        <time>2018-10-04T14:40:52Z</time>
      </trkpt>
      <trkpt lat="43.44668" lon="16.75313">
        <ele>231.027</ele>
        <time>2018-10-04T14:41:12Z</time>
      </trkpt>
      <trkpt lat="43.4466" lon="16.75331">
        <ele>231.044</ele>
        <time>2018-10-04T14:41:32Z</time>
      </trkpt>
      <trkpt lat="43.44653" lon="16.75342">
        <ele>230.067</ele>
        <time>2018-10-04T14:41:52Z</time>
      </trkpt>
      <trkpt lat="43.44644" lon="16.75353">
        <ele>228.049</ele>
        <time>2018-10-04T14:42:12Z</time>
      </trkpt>
      <trkpt lat="43.44637" lon="16.7536">
        <ele>227.097</ele>
        <time>2018-10-04T14:42:32Z</time>
      </trkpt>
      <trkpt lat="43.4463" lon="16.75368">
        <ele>226.038</ele>
        <time>2018-10-04T14:42:52Z</time>
      </trkpt>
      <trkpt lat="43.44613" lon="16.75389">
        <ele>225.048</ele>
        <time>2018-10-04T14:43:12Z</time>
      </trkpt>
      <trkpt lat="43.44599" lon="16.7541">
        <ele>224.017</ele>
        <time>2018-10-04T14:43:32Z</time>
      </trkpt>
      <trkpt lat="43.44585" lon="16.7543">
        <ele>224.096</ele>
        <time>2018-10-04T14:43:52Z</time>
      </trkpt>
      <trkpt lat="43.44575" lon="16.75455">
        <ele>225.031</ele>
        <time>2018-10-04T14:44:12Z</time>
      </trkpt>
      <trkpt lat="43.44566" lon="16.75481">
        <ele>225.024</ele>
        <time>2018-10-04T14:44:32Z</time>
      </trkpt>
      <trkpt lat="43.44558" lon="16.75504">
        <ele>225.008</ele>
        <time>2018-10-04T14:44:52Z</time>
      </trkpt>
      <trkpt lat="43.44552" lon="16.75529">
        <ele>224.021</ele>
        <time>2018-10-04T14:45:12Z</time>
      </trkpt>
      <trkpt lat="43.44548" lon="16.75556">
        <ele>225.078</ele>
        <time>2018-10-04T14:45:32Z</time>
      </trkpt>
      <trkpt lat="43.44541" lon="16.75579">
        <ele>225.041</ele>
        <time>2018-10-04T14:45:52Z</time>
      </trkpt>
      <trkpt lat="43.44532" lon="16.75603">
        <ele>225.023</ele>
        <time>2018-10-04T14:46:12Z</time>
      </trkpt>
      <trkpt lat="43.44522" lon="16.75632">
        <ele>226.041</ele>
        <time>2018-10-04T14:46:32Z</time>
      </trkpt>
      <trkpt lat="43.44513" lon="16.75657">
        <ele>227.042</ele>
        <time>2018-10-04T14:46:52Z</time>
      </trkpt>
      <trkpt lat="43.44507" lon="16.75681">
        <ele>228.092</ele>
        <time>2018-10-04T14:47:12Z</time>
      </trkpt>
      <trkpt lat="43.44502" lon="16.75707">
        <ele>227.021</ele>
        <time>2018-10-04T14:47:32Z</time>
      </trkpt>
      <trkpt lat="43.44493" lon="16.75738">
        <ele>226.086</ele>
        <time>2018-10-04T14:47:52Z</time>
      </trkpt>
      <trkpt lat="43.44487" lon="16.75757">
        <ele>224.06</ele>
        <time>2018-10-04T14:48:12Z</time>
      </trkpt>
      <trkpt lat="43.44485" lon="16.75777">
        <ele>223.026</ele>
        <time>2018-10-04T14:48:32Z</time>
      </trkpt>
      <trkpt lat="43.44481" lon="16.75796">
        <ele>222.008</ele>
        <time>2018-10-04T14:48:52Z</time>
      </trkpt>
      <trkpt lat="43.44475" lon="16.7582">
        <ele>222.07</ele>
        <time>2018-10-04T14:49:12Z</time>
      </trkpt>
      <trkpt lat="43.44468" lon="16.75847">
        <ele>222.057</ele>
        <time>2018-10-04T14:49:32Z</time>
      </trkpt>
      <trkpt lat="43.44459" lon="16.75871">
        <ele>222.06</ele>
        <time>2018-10-04T14:49:52Z</time>
      </trkpt>
      <trkpt lat="43.44447" lon="16.75892">
        <ele>222.042</ele>
        <time>2018-10-04T14:50:12Z</time>
      </trkpt>
      <trkpt lat="43.44439" lon="16.75915">
        <ele>223.01</ele>
        <time>2018-10-04T14:50:32Z</time>
      </trkpt>
      <trkpt lat="43.44435" lon="16.75941">
        <ele>223.031</ele>
        <time>2018-10-04T14:50:52Z</time>
      </trkpt>
      <trkpt lat="43.4443" lon="16.7595">
        <ele>223.041</ele>
        <time>2018-10-04T14:51:12Z</time>
      </trkpt>
      <trkpt lat="43.44423" lon="16.75972">
        <ele>223.07</ele>
        <time>2018-10-04T14:51:32Z</time>
      </trkpt>
      <trkpt lat="43.44423" lon="16.75996">
        <ele>222.067</ele>
        <time>2018-10-04T14:51:52Z</time>
      </trkpt>
      <trkpt lat="43.4442" lon="16.76006">
        <ele>221.081</ele>
        <time>2018-10-04T14:52:12Z</time>
      </trkpt>
      <trkpt lat="43.44417" lon="16.76018">
        <ele>219.019</ele>
        <time>2018-10-04T14:52:32Z</time>
      </trkpt>
      <trkpt lat="43.44416" lon="16.76034">
        <ele>218.008</ele>
        <time>2018-10-04T14:52:52Z</time>
      </trkpt>
      <trkpt lat="43.44418" lon="16.76057">
        <ele>217.038</ele>
        <time>2018-10-04T14:53:12Z</time>
      </trkpt>
      <trkpt lat="43.4442" lon="16.76076">
        <ele>216.045</ele>
        <time>2018-10-04T14:53:32Z</time>
      </trkpt>
      <trkpt lat="43.44421" lon="16.76096">
        <ele>215.068</ele>
        <time>2018-10-04T14:53:52Z</time>
      </trkpt>
      <trkpt lat="43.44419" lon="16.76121">
        <ele>214.04</ele>
        <time>2018-10-04T14:54:12Z</time>
      </trkpt>
      <trkpt lat="43.44428" lon="16.76147">
        <ele>213.018</ele>
        <time>2018-10-04T14:54:32Z</time>
      </trkpt>
      <trkpt lat="43.44445" lon="16.76163">
        <ele>213.039</ele>
        <time>2018-10-04T14:54:52Z</time>
      </trkpt>
      <trkpt lat="43.44444" lon="16.76183">
        <ele>213.039</ele>
        <time>2018-10-04T14:55:12Z</time>
      </trkpt>
      <trkpt lat="43.44439" lon="16.7621">
        <ele>213.088</ele>
        <time>2018-10-04T14:55:32Z</time>
      </trkpt>
      <trkpt lat="43.44432" lon="16.76237">
        <ele>212.075</ele>
        <time>2018-10-04T14:55:52Z</time>
      </trkpt>
      <trkpt lat="43.44428" lon="16.76255">
        <ele>212.028</ele>
        <time>2018-10-04T14:56:12Z</time>
      </trkpt>
      <trkpt lat="43.44426" lon="16.76271">
        <ele>210.02</ele>
        <time>2018-10-04T14:56:32Z</time>
      </trkpt>
      <trkpt lat="43.44424" lon="16.76299">
        <ele>210.008</ele>
        <time>2018-10-04T14:56:52Z</time>
      </trkpt>
      <trkpt lat="43.44411" lon="16.76328">
        <ele>209.039</ele>
        <time>2018-10-04T14:57:12Z</time>
      </trkpt>
      <trkpt lat="43.44403" lon="16.7635">
        <ele>209.036</ele>
        <time>2018-10-04T14:57:32Z</time>
      </trkpt>
      <trkpt lat="43.444" lon="16.76367">
        <ele>208.039</ele>
        <time>2018-10-04T14:57:52Z</time>
      </trkpt>
      <trkpt lat="43.44394" lon="16.76392">
        <ele>207.041</ele>
        <time>2018-10-04T14:58:12Z</time>
      </trkpt>
      <trkpt lat="43.44391" lon="16.76415">
        <ele>206.069</ele>
        <time>2018-10-04T14:58:32Z</time>
      </trkpt>
      <trkpt lat="43.44391" lon="16.76435">
        <ele>205.02</ele>
        <time>2018-10-04T14:58:52Z</time>
      </trkpt>
      <trkpt lat="43.4439" lon="16.76462">
        <ele>204.02</ele>
        <time>2018-10-04T14:59:12Z</time>
      </trkpt>
      <trkpt lat="43.44386" lon="16.76487">
        <ele>204.019</ele>
        <time>2018-10-04T14:59:32Z</time>
      </trkpt>
      <trkpt lat="43.44382" lon="16.76513">
        <ele>204.078</ele>
        <time>2018-10-04T14:59:52Z</time>
      </trkpt>
      <trkpt lat="43.44374" lon="16.76531">
        <ele>203.033</ele>
        <time>2018-10-04T15:00:12Z</time>
      </trkpt>
      <trkpt lat="43.44369" lon="16.76547">
        <ele>201.026</ele>
        <time>2018-10-04T15:00:32Z</time>
      </trkpt>
      <trkpt lat="43.44362" lon="16.76573">
        <ele>201.008</ele>
        <time>2018-10-04T15:00:52Z</time>
      </trkpt>
      <trkpt lat="43.44362" lon="16.76584">
        <ele>200.039</ele>
        <time>2018-10-04T15:01:12Z</time>
      </trkpt>
      <trkpt lat="43.44354" lon="16.76616">
        <ele>199.066</ele>
        <time>2018-10-04T15:01:32Z</time>
      </trkpt>
      <trkpt lat="43.44346" lon="16.7664">
        <ele>199.029</ele>
        <time>2018-10-04T15:01:52Z</time>
      </trkpt>
      <trkpt lat="43.44342" lon="16.76667">
        <ele>199.041</ele>
        <time>2018-10-04T15:02:12Z</time>
      </trkpt>
      <trkpt lat="43.4434" lon="16.76694">
        <ele>199.089</ele>
        <time>2018-10-04T15:02:32Z</time>
      </trkpt>
      <trkpt lat="43.44339" lon="16.76712">
        <ele>200.01</ele>
        <time>2018-10-04T15:02:52Z</time>
      </trkpt>
      <trkpt lat="43.44335" lon="16.76738">
        <ele>201.02</ele>
        <time>2018-10-04T15:03:12Z</time>
      </trkpt>
      <trkpt lat="43.44336" lon="16.76759">
        <ele>201.039</ele>
        <time>2018-10-04T15:03:32Z</time>
      </trkpt>
      <trkpt lat="43.44338" lon="16.76782">
        <ele>202.044</ele>
        <time>2018-10-04T15:03:52Z</time>
      </trkpt>
      <trkpt lat="43.4434" lon="16.76803">
        <ele>203.005</ele>
        <time>2018-10-04T15:04:12Z</time>
      </trkpt>
      <trkpt lat="43.44341" lon="16.76815">
        <ele>205.015</ele>
        <time>2018-10-04T15:04:32Z</time>
      </trkpt>
      <trkpt lat="43.44339" lon="16.76841">
        <ele>206.008</ele>
        <time>2018-10-04T15:04:52Z</time>
      </trkpt>
      <trkpt lat="43.44338" lon="16.76861">
        <ele>207.086</ele>
        <time>2018-10-04T15:05:12Z</time>
      </trkpt>
      <trkpt lat="43.44338" lon="16.76863">
        <ele>207.023</ele>
        <time>2018-10-04T15:05:32Z</time>
      </trkpt>
      <trkpt lat="43.44347" lon="16.76856">
        <ele>208.096</ele>
        <time>2018-10-04T15:05:52Z</time>
      </trkpt>
      <trkpt lat="43.44352" lon="16.76843">
        <ele>210.048</ele>
        <time>2018-10-04T15:06:12Z</time>
      </trkpt>
      <trkpt lat="43.44352" lon="16.76841">
        <ele>210.076</ele>
        <time>2018-10-04T15:06:32Z</time>
      </trkpt>
      <trkpt lat="43.44358" lon="16.7683">
        <ele>212.097</ele>
        <time>2018-10-04T15:06:52Z</time>
      </trkpt>
      <trkpt lat="43.44362" lon="16.76818">
        <ele>214.087</ele>
        <time>2018-10-04T15:07:12Z</time>
      </trkpt>
      <trkpt lat="43.44363" lon="16.76816">
        <ele>215.046</ele>
        <time>2018-10-04T15:07:32Z</time>
      </trkpt>
      <trkpt lat="43.44364" lon="16.76812">
        <ele>216.037</ele>
        <time>2018-10-04T15:07:52Z</time>
      </trkpt>
      <trkpt lat="43.44368" lon="16.76805">
        <ele>217.049</ele>
        <time>2018-10-04T15:08:12Z</time>
      </trkpt>
      <trkpt lat="43.44372" lon="16.76795">
        <ele>218.013</ele>
        <time>2018-10-04T15:08:32Z</time>
      </trkpt>
      <trkpt lat="43.4438" lon="16.76778">
        <ele>221.008</ele>
        <time>2018-10-04T15:08:52Z</time>
      </trkpt>
      <trkpt lat="43.44384" lon="16.76772">
        <ele>222.085</ele>
        <time>2018-10-04T15:09:12Z</time>
      </trkpt>
      <trkpt lat="43.44388" lon="16.76767">
        <ele>223.012</ele>
        <time>2018-10-04T15:09:32Z</time>
      </trkpt>
      <trkpt lat="43.44395" lon="16.76753">
        <ele>225.065</ele>
        <time>2018-10-04T15:09:52Z</time>
      </trkpt>
      <trkpt lat="43.44398" lon="16.76745">
        <ele>226.067</ele>
        <time>2018-10-04T15:10:12Z</time>
      </trkpt>
      <trkpt lat="43.44401" lon="16.76734">
        <ele>227.065</ele>
        <time>2018-10-04T15:10:32Z</time>
      </trkpt>
      <trkpt lat="43.4441" lon="16.76719">
        <ele>230.016</ele>
        <time>2018-10-04T15:10:52Z</time>
      </trkpt>
      <trkpt lat="43.44417" lon="16.76703">
        <ele>232.086</ele>
        <time>2018-10-04T15:11:12Z</time>
      </trkpt>
      <trkpt lat="43.44418" lon="16.76697">
        <ele>234.085</ele>
        <time>2018-10-04T15:11:32Z</time>
      </trkpt>
      <trkpt lat="43.44423" lon="16.76679">
        <ele>236.095</ele>
        <time>2018-10-04T15:11:52Z</time>
      </trkpt>
      <trkpt lat="43.44428" lon="16.76662">
        <ele>238.049</ele>
        <time>2018-10-04T15:12:12Z</time>
      </trkpt>
      <trkpt lat="43.44433" lon="16.76647">
        <ele>239.023</ele>
        <time>2018-10-04T15:12:32Z</time>
      </trkpt>
      <trkpt lat="43.44438" lon="16.76638">
        <ele>240.008</ele>
        <time>2018-10-04T15:12:52Z</time>
      </trkpt>
      <trkpt lat="43.44444" lon="16.76621">
        <ele>243.091</ele>
        <time>2018-10-04T15:13:12Z</time>
      </trkpt>
      <trkpt lat="43.44451" lon="16.76611">
        <ele>245.038</ele>
        <time>2018-10-04T15:13:32Z</time>
      </trkpt>
      <trkpt lat="43.44458" lon="16.76599">
        <ele>247.021</ele>
        <time>2018-10-04T15:13:52Z</time>
      </trkpt>
      <trkpt lat="43.44466" lon="16.76587">
        <ele>250.093</ele>
        <time>2018-10-04T15:14:12Z</time>
      </trkpt>
      <trkpt lat="43.44475" lon="16.76578">
        <ele>251.041</ele>
        <time>2018-10-04T15:14:32Z</time>
      </trkpt>
      <trkpt lat="43.4448" lon="16.76572">
        <ele>252.092</ele>
        <time>2018-10-04T15:14:52Z</time>
      </trkpt>
      <trkpt lat="43.44483" lon="16.76566">
        <ele>252.092</ele>
        <time>2018-10-04T15:15:12Z</time>
      </trkpt>
      <trkpt lat="43.44489" lon="16.76561">
        <ele>253.041</ele>
        <time>2018-10-04T15:15:32Z</time>
      </trkpt>
      <trkpt lat="43.44505" lon="16.76544">
        <ele>253.081</ele>
        <time>2018-10-04T15:15:52Z</time>
      </trkpt>
      <trkpt lat="43.4451" lon="16.76534">
        <ele>252.061</ele>
        <time>2018-10-04T15:16:12Z</time>
      </trkpt>
      <trkpt lat="43.44523" lon="16.76517">
        <ele>252.017</ele>
        <time>2018-10-04T15:16:32Z</time>
      </trkpt>
      <trkpt lat="43.44535" lon="16.76493">
        <ele>252.008</ele>
        <time>2018-10-04T15:16:52Z</time>
      </trkpt>
      <trkpt lat="43.4454" lon="16.76482">
        <ele>253.05</ele>
        <time>2018-10-04T15:17:12Z</time>
      </trkpt>
      <trkpt lat="43.44551" lon="16.76451">
        <ele>254.027</ele>
        <time>2018-10-04T15:17:32Z</time>
      </trkpt>
      <trkpt lat="43.44561" lon="16.76425">
        <ele>255.02</ele>
        <time>2018-10-04T15:17:52Z</time>
      </trkpt>
      <trkpt lat="43.44573" lon="16.76409">
        <ele>256.072</ele>
        <time>2018-10-04T15:18:12Z</time>
      </trkpt>
      <trkpt lat="43.44589" lon="16.76392">
        <ele>257.03</ele>
        <time>2018-10-04T15:18:32Z</time>
      </trkpt>
      <trkpt lat="43.44603" lon="16.76373">
        <ele>257.041</ele>
        <time>2018-10-04T15:18:52Z</time>
      </trkpt>
      <trkpt lat="43.44617" lon="16.76357">
        <ele>257.051</ele>
        <time>2018-10-04T15:19:12Z</time>
      </trkpt>
      <trkpt lat="43.44624" lon="16.76341">
        <ele>257.08</ele>
        <time>2018-10-04T15:19:32Z</time>
      </trkpt>
      <trkpt lat="43.4463" lon="16.76328">
        <ele>258.045</ele>
        <time>2018-10-04T15:19:52Z</time>
      </trkpt>
      <trkpt lat="43.44634" lon="16.76314">
        <ele>259.047</ele>
        <time>2018-10-04T15:20:12Z</time>
      </trkpt>
      <trkpt lat="43.44642" lon="16.763">
        <ele>260.011</ele>
        <time>2018-10-04T15:20:32Z</time>
      </trkpt>
      <trkpt lat="43.44655" lon="16.76277">
        <ele>262.008</ele>
        <time>2018-10-04T15:20:52Z</time>
      </trkpt>
      <trkpt lat="43.44658" lon="16.76266">
        <ele>263.076</ele>
        <time>2018-10-04T15:21:12Z</time>
      </trkpt>
      <trkpt lat="43.44665" lon="16.76254">
        <ele>264.023</ele>
        <time>2018-10-04T15:21:32Z</time>
      </trkpt>
      <trkpt lat="43.44672" lon="16.7624">
        <ele>265.026</ele>
        <time>2018-10-04T15:21:52Z</time>
      </trkpt>
      <trkpt lat="43.4468" lon="16.76209">
        <ele>266.028</ele>
        <time>2018-10-04T15:22:12Z</time>
      </trkpt>
      <trkpt lat="43.44681" lon="16.76206">
        <ele>266.036</ele>
        <time>2018-10-04T15:22:32Z</time>
      </trkpt>
      <trkpt lat="43.44684" lon="16.76192">
        <ele>267.037</ele>
        <time>2018-10-04T15:22:52Z</time>
      </trkpt>
      <trkpt lat="43.44687" lon="16.76174">
        <ele>269.057</ele>
        <time>2018-10-04T15:23:12Z</time>
      </trkpt>
      <trkpt lat="43.44689" lon="16.76157">
        <ele>271.016</ele>
        <time>2018-10-04T15:23:32Z</time>
      </trkpt>
      <trkpt lat="43.44692" lon="16.76146">
        <ele>272.036</ele>
        <time>2018-10-04T15:23:52Z</time>
      </trkpt>
      <trkpt lat="43.44699" lon="16.76121">
        <ele>273.017</ele>
        <time>2018-10-04T15:24:12Z</time>
      </trkpt>
      <trkpt lat="43.44708" lon="16.76092">
        <ele>274.018</ele>
        <time>2018-10-04T15:24:32Z</time>
      </trkpt>
      <trkpt lat="43.44717" lon="16.76067">
        <ele>274.008</ele>
        <time>2018-10-04T15:24:52Z</time>
      </trkpt>
      <trkpt lat="43.44726" lon="16.76048">
        <ele>275.095</ele>
        <time>2018-10-04T15:25:12Z</time>
      </trkpt>
      <trkpt lat="43.44731" lon="16.76034">
        <ele>276.012</ele>
        <time>2018-10-04T15:25:32Z</time>
      </trkpt>
      <trkpt lat="43.44734" lon="16.76009">
        <ele>278.095</ele>
        <time>2018-10-04T15:25:52Z</time>
      </trkpt>
      <trkpt lat="43.44737" lon="16.76003">
        <ele>279.047</ele>
        <time>2018-10-04T15:26:12Z</time>
      </trkpt>
      <trkpt lat="43.44745" lon="16.75991">
        <ele>280.015</ele>
        <time>2018-10-04T15:26:32Z</time>
      </trkpt>
      <trkpt lat="43.44759" lon="16.75974">
        <ele>280.086</ele>
        <time>2018-10-04T15:26:52Z</time>
      </trkpt>
      <trkpt lat="43.44774" lon="16.75956">
        <ele>280.096</ele>
        <time>2018-10-04T15:27:12Z</time>
      </trkpt>
      <trkpt lat="43.44787" lon="16.75935">
        <ele>281.095</ele>
        <time>2018-10-04T15:27:32Z</time>
      </trkpt>
      <trkpt lat="43.448" lon="16.75905">
        <ele>282.056</ele>
        <time>2018-10-04T15:27:52Z</time>
      </trkpt>
      <trkpt lat="43.44806" lon="16.7588">
        <ele>282.059</ele>
        <time>2018-10-04T15:28:12Z</time>
      </trkpt>
      <trkpt lat="43.44818" lon="16.75856">
        <ele>281.014</ele>
        <time>2018-10-04T15:28:32Z</time>
      </trkpt>
      <trkpt lat="43.44827" lon="16.75851">
        <ele>279.008</ele>
        <time>2018-10-04T15:28:52Z</time>
      </trkpt>
      <trkpt lat="43.44841" lon="16.75853">
        <ele>277.027</ele>
        <time>2018-10-04T15:29:12Z</time>
      </trkpt>
      <trkpt lat="43.4485" lon="16.75857">
        <ele>276.044</ele>
        <time>2018-10-04T15:29:32Z</time>
      </trkpt>
      <trkpt lat="43.44869" lon="16.75872">
        <ele>277.087</ele>
        <time>2018-10-04T15:29:52Z</time>
      </trkpt>
      <trkpt lat="43.44874" lon="16.75877">
        <ele>278.049</ele>
        <time>2018-10-04T15:30:12Z</time>
      </trkpt>
      <trkpt lat="43.44876" lon="16.75888">
        <ele>279.017</ele>
        <time>2018-10-04T15:30:32Z</time>
      </trkpt>
      <trkpt lat="43.44876" lon="16.75906">
        <ele>281.088</ele>
        <time>2018-10-04T15:30:52Z</time>
      </trkpt>
      <trkpt lat="43.44877" lon="16.75913">
        <ele>282.058</ele>
        <time>2018-10-04T15:31:12Z</time>
      </trkpt>
      <trkpt lat="43.44877" lon="16.75918">
        <ele>283.097</ele>
        <time>2018-10-04T15:31:32Z</time>
      </trkpt>
      <trkpt lat="43.44874" lon="16.75929">
        <ele>284.071</ele>
        <time>2018-10-04T15:31:52Z</time>
      </trkpt>
      <trkpt lat="43.44872" lon="16.75942">
        <ele>286.041</ele>
        <time>2018-10-04T15:32:12Z</time>
      </trkpt>
      <trkpt lat="43.44876" lon="16.75945">
        <ele>288.015</ele>
        <time>2018-10-04T15:32:32Z</time>
      </trkpt>
      <trkpt lat="43.44888" lon="16.75943">
        <ele>290.008</ele>
        <time>2018-10-04T15:32:52Z</time>
      </trkpt>
      <trkpt lat="43.44897" lon="16.75942">
        <ele>293.099</ele>
        <time>2018-10-04T15:33:12Z</time>
      </trkpt>
      <trkpt lat="43.44906" lon="16.75942">
        <ele>294.016</ele>
        <time>2018-10-04T15:33:32Z</time>
      </trkpt>
      <trkpt lat="43.44912" lon="16.75947">
        <ele>295.019</ele>
        <time>2018-10-04T15:33:52Z</time>
      </trkpt>
      <trkpt lat="43.44912" lon="16.75962">
        <ele>297.011</ele>
        <time>2018-10-04T15:34:12Z</time>
      </trkpt>
      <trkpt lat="43.4491" lon="16.7597">
        <ele>299.099</ele>
        <time>2018-10-04T15:34:32Z</time>
      </trkpt>
      <trkpt lat="43.44905" lon="16.75976">
        <ele>300.06</ele>
        <time>2018-10-04T15:34:52Z</time>
      </trkpt>
      <trkpt lat="43.449" lon="16.75991">
        <ele>300.08</ele>
        <time>2018-10-04T15:35:12Z</time>
      </trkpt>
      <trkpt lat="43.44904" lon="16.75991">
        <ele>298.099</ele>
        <time>2018-10-04T15:35:32Z</time>
      </trkpt>
      <trkpt lat="43.44909" lon="16.75986">
        <ele>296.039</ele>
        <time>2018-10-04T15:35:52Z</time>
      </trkpt>
      <trkpt lat="43.44911" lon="16.75983">
        <ele>294.001</ele>
        <time>2018-10-04T15:36:12Z</time>
      </trkpt>
      <trkpt lat="43.44916" lon="16.75977">
        <ele>293.021</ele>
        <time>2018-10-04T15:36:32Z</time>
      </trkpt>
      <trkpt lat="43.4492" lon="16.75971">
        <ele>293.008</ele>
        <time>2018-10-04T15:36:52Z</time>
      </trkpt>
      <trkpt lat="43.44925" lon="16.75966">
        <ele>290.075</ele>
        <time>2018-10-04T15:37:12Z</time>
      </trkpt>
      <trkpt lat="43.44932" lon="16.7596">
        <ele>288.042</ele>
        <time>2018-10-04T15:37:32Z</time>
      </trkpt>
      <trkpt lat="43.44941" lon="16.75957">
        <ele>286.085</ele>
        <time>2018-10-04T15:37:52Z</time>
      </trkpt>
      <trkpt lat="43.44946" lon="16.75953">
        <ele>284.057</ele>
        <time>2018-10-04T15:38:12Z</time>
      </trkpt>
      <trkpt lat="43.44949" lon="16.75952">
        <ele>283.035</ele>
        <time>2018-10-04T15:38:32Z</time>
      </trkpt>
      <trkpt lat="43.4495" lon="16.75958">
        <ele>281.036</ele>
        <time>2018-10-04T15:38:52Z</time>
      </trkpt>
      <trkpt lat="43.44949" lon="16.75968">
        <ele>278.046</ele>
        <time>2018-10-04T15:39:12Z</time>
      </trkpt>
      <trkpt lat="43.44948" lon="16.75978">
        <ele>275.035</ele>
        <time>2018-10-04T15:39:32Z</time>
      </trkpt>
      <trkpt lat="43.44946" lon="16.75987">
        <ele>272.085</ele>
        <time>2018-10-04T15:39:52Z</time>
      </trkpt>
      <trkpt lat="43.44946" lon="16.75999">
        <ele>269.089</ele>
        <time>2018-10-04T15:40:12Z</time>
      </trkpt>
      <trkpt lat="43.44946" lon="16.76009">
        <ele>266.017</ele>
        <time>2018-10-04T15:40:32Z</time>
      </trkpt>
      <trkpt lat="43.44945" lon="16.76018">
        <ele>264.008</ele>
        <time>2018-10-04T15:40:52Z</time>
      </trkpt>
      <trkpt lat="43.44945" lon="16.76026">
        <ele>261.02</ele>
        <time>2018-10-04T15:41:12Z</time>
      </trkpt>
      <trkpt lat="43.44946" lon="16.76033">
        <ele>260.027</ele>
        <time>2018-10-04T15:41:32Z</time>
      </trkpt>
      <trkpt lat="43.44946" lon="16.76035">
        <ele>259.02</ele>
        <time>2018-10-04T15:41:52Z</time>
      </trkpt>
      <trkpt lat="43.44946" lon="16.76036">
        <ele>259.032</ele>
        <time>2018-10-04T15:42:12Z</time>
      </trkpt>
      <trkpt lat="43.44948" lon="16.76036">
        <ele>258.07</ele>
        <time>2018-10-04T15:42:32Z</time>
      </trkpt>
      <trkpt lat="43.44953" lon="16.76032">
        <ele>255.091</ele>
        <time>2018-10-04T15:42:52Z</time>
      </trkpt>
      <trkpt lat="43.44957" lon="16.76027">
        <ele>252.021</ele>
        <time>2018-10-04T15:43:12Z</time>
      </trkpt>
      <trkpt lat="43.44961" lon="16.76023">
        <ele>251.06</ele>
        <time>2018-10-04T15:43:32Z</time>
      </trkpt>
      <trkpt lat="43.44967" lon="16.76012">
        <ele>248.053</ele>
        <time>2018-10-04T15:43:52Z</time>
      </trkpt>
      <trkpt lat="43.44974" lon="16.75999">
        <ele>245.004</ele>
        <time>2018-10-04T15:44:12Z</time>
      </trkpt>
      <trkpt lat="43.44977" lon="16.75994">
        <ele>243.014</ele>
        <time>2018-10-04T15:44:32Z</time>
      </trkpt>
      <trkpt lat="43.44982" lon="16.75987">
        <ele>240.008</ele>
        <time>2018-10-04T15:44:52Z</time>
      </trkpt>
      <trkpt lat="43.44992" lon="16.75979">
        <ele>238.017</ele>
        <time>2018-10-04T15:45:12Z</time>
      </trkpt>
      <trkpt lat="43.44995" lon="16.75975">
        <ele>237.024</ele>
        <time>2018-10-04T15:45:32Z</time>
      </trkpt>
      <trkpt lat="43.45003" lon="16.75966">
        <ele>234.057</ele>
        <time>2018-10-04T15:45:52Z</time>
      </trkpt>
      <trkpt lat="43.45012" lon="16.75955">
        <ele>232.029</ele>
        <time>2018-10-04T15:46:12Z</time>
      </trkpt>
      <trkpt lat="43.45014" lon="16.75952">
        <ele>231.027</ele>
        <time>2018-10-04T15:46:32Z</time>
      </trkpt>
      <trkpt lat="43.45015" lon="16.7595">
        <ele>231.038</ele>
        <time>2018-10-04T15:46:52Z</time>
      </trkpt>
      <trkpt lat="43.45021" lon="16.75951">
        <ele>230.048</ele>
        <time>2018-10-04T15:47:12Z</time>
      </trkpt>
      <trkpt lat="43.45024" lon="16.75959">
        <ele>227.067</ele>
        <time>2018-10-04T15:47:32Z</time>
      </trkpt>
      <trkpt lat="43.45025" lon="16.75964">
        <ele>226.036</ele>
        <time>2018-10-04T15:47:52Z</time>
      </trkpt>
      <trkpt lat="43.45024" lon="16.75968">
        <ele>225.017</ele>
        <time>2018-10-04T15:48:12Z</time>
      </trkpt>
      <trkpt lat="43.45021" lon="16.75973">
        <ele>223.018</ele>
        <time>2018-10-04T15:48:32Z</time>
      </trkpt>
      <trkpt lat="43.45022" lon="16.75981">
        <ele>222.008</ele>
        <time>2018-10-04T15:48:52Z</time>
      </trkpt>
      <trkpt lat="43.45021" lon="16.75984">
        <ele>221.045</ele>
        <time>2018-10-04T15:49:12Z</time>
      </trkpt>
      <trkpt lat="43.45021" lon="16.75987">
        <ele>221.012</ele>
        <time>2018-10-04T15:49:32Z</time>
      </trkpt>
      <trkpt lat="43.45031" lon="16.75984">
        <ele>219.025</ele>
        <time>2018-10-04T15:49:52Z</time>
      </trkpt>
      <trkpt lat="43.45038" lon="16.75973">
        <ele>218.097</ele>
        <time>2018-10-04T15:50:12Z</time>
      </trkpt>
      <trkpt lat="43.4505" lon="16.75956">
        <ele>217.035</ele>
        <time>2018-10-04T15:50:32Z</time>
      </trkpt>
      <trkpt lat="43.45058" lon="16.75945">
        <ele>215.096</ele>
        <time>2018-10-04T15:50:52Z</time>
      </trkpt>
      <trkpt lat="43.45068" lon="16.75934">
        <ele>214.056</ele>
        <time>2018-10-04T15:51:12Z</time>
      </trkpt>
      <trkpt lat="43.45079" lon="16.75917">
        <ele>213.065</ele>
        <time>2018-10-04T15:51:32Z</time>
      </trkpt>
      <trkpt lat="43.45085" lon="16.75909">
        <ele>212.095</ele>
        <time>2018-10-04T15:51:52Z</time>
      </trkpt>
      <trkpt lat="43.45094" lon="16.75899">
        <ele>211.049</ele>
        <time>2018-10-04T15:52:12Z</time>
      </trkpt>
      <trkpt lat="43.45103" lon="16.75888">
        <ele>210.023</ele>
        <time>2018-10-04T15:52:32Z</time>
      </trkpt>
      <trkpt lat="43.45122" lon="16.75862">
        <ele>208.008</ele>
        <time>2018-10-04T15:52:52Z</time>
      </trkpt>
      <trkpt lat="43.45134" lon="16.75836">
        <ele>207.011</ele>
        <time>2018-10-04T15:53:12Z</time>
      </trkpt>
      <trkpt lat="43.45141" lon="16.75818">
        <ele>206.028</ele>
        <time>2018-10-04T15:53:32Z</time>
      </trkpt>
      <trkpt lat="43.45152" lon="16.75796">
        <ele>206.061</ele>
        <time>2018-10-04T15:53:52Z</time>
      </trkpt>
      <trkpt lat="43.45158" lon="16.75791">
        <ele>205.063</ele>
        <time>2018-10-04T15:54:12Z</time>
      </trkpt>
      <trkpt lat="43.45164" lon="16.75789">
        <ele>204.021</ele>
        <time>2018-10-04T15:54:32Z</time>
      </trkpt>
      <trkpt lat="43.45167" lon="16.75799">
        <ele>203.052</ele>
        <time>2018-10-04T15:54:52Z</time>
      </trkpt>
      <trkpt lat="43.45167" lon="16.75812">
        <ele>202.092</ele>
        <time>2018-10-04T15:55:12Z</time>
      </trkpt>
      <trkpt lat="43.45166" lon="16.75824">
        <ele>200.051</ele>
        <time>2018-10-04T15:55:32Z</time>
      </trkpt>
      <trkpt lat="43.45166" lon="16.75845">
        <ele>199.078</ele>
        <time>2018-10-04T15:55:52Z</time>
      </trkpt>
      <trkpt lat="43.45166" lon="16.75866">
        <ele>198.033</ele>
        <time>2018-10-04T15:56:12Z</time>
      </trkpt>
      <trkpt lat="43.45163" lon="16.75891">
        <ele>197.026</ele>
        <time>2018-10-04T15:56:32Z</time>
      </trkpt>
      <trkpt lat="43.45161" lon="16.75915">
        <ele>196.008</ele>
        <time>2018-10-04T15:56:52Z</time>
      </trkpt>
      <trkpt lat="43.45156" lon="16.75944">
        <ele>195.069</ele>
        <time>2018-10-04T15:57:12Z</time>
      </trkpt>
      <trkpt lat="43.45155" lon="16.75959">
        <ele>194.086</ele>
        <time>2018-10-04T15:57:32Z</time>
      </trkpt>
      <trkpt lat="43.45155" lon="16.75974">
        <ele>194.049</ele>
        <time>2018-10-04T15:57:52Z</time>
      </trkpt>
      <trkpt lat="43.4515" lon="16.76004">
        <ele>193.011</ele>
        <time>2018-10-04T15:58:12Z</time>
      </trkpt>
      <trkpt lat="43.45148" lon="16.76031">
        <ele>192.019</ele>
        <time>2018-10-04T15:58:32Z</time>
      </trkpt>
      <trkpt lat="43.45147" lon="16.76055">
        <ele>192.06</ele>
        <time>2018-10-04T15:58:52Z</time>
      </trkpt>
      <trkpt lat="43.45145" lon="16.7608">
        <ele>191.01</ele>
        <time>2018-10-04T15:59:12Z</time>
      </trkpt>
      <trkpt lat="43.45146" lon="16.76102">
        <ele>191.019</ele>
        <time>2018-10-04T15:59:32Z</time>
      </trkpt>
      <trkpt lat="43.45149" lon="16.7612">
        <ele>190.067</ele>
        <time>2018-10-04T15:59:52Z</time>
      </trkpt>
      <trkpt lat="43.45153" lon="16.76148">
        <ele>189.081</ele>
        <time>2018-10-04T16:00:12Z</time>
      </trkpt>
      <trkpt lat="43.45157" lon="16.76167">
        <ele>188.019</ele>
        <time>2018-10-04T16:00:32Z</time>
      </trkpt>
      <trkpt lat="43.45161" lon="16.76167">
        <ele>189.008</ele>
        <time>2018-10-04T16:00:52Z</time>
      </trkpt>
      <trkpt lat="43.45167" lon="16.76183">
        <ele>190.018</ele>
        <time>2018-10-04T16:01:12Z</time>
      </trkpt>
      <trkpt lat="43.45167" lon="16.76197">
        <ele>190.075</ele>
        <time>2018-10-04T16:01:32Z</time>
      </trkpt>
      <trkpt lat="43.45168" lon="16.76214">
        <ele>191.018</ele>
        <time>2018-10-04T16:01:52Z</time>
      </trkpt>
      <trkpt lat="43.45165" lon="16.76235">
        <ele>191.01</ele>
        <time>2018-10-04T16:02:12Z</time>
      </trkpt>
      <trkpt lat="43.45161" lon="16.76248">
        <ele>192.068</ele>
        <time>2018-10-04T16:02:32Z</time>
      </trkpt>
      <trkpt lat="43.45156" lon="16.76272">
        <ele>193.089</ele>
        <time>2018-10-04T16:02:52Z</time>
      </trkpt>
      <trkpt lat="43.45152" lon="16.76287">
        <ele>194.019</ele>
        <time>2018-10-04T16:03:12Z</time>
      </trkpt>
      <trkpt lat="43.45146" lon="16.76312">
        <ele>194.048</ele>
        <time>2018-10-04T16:03:32Z</time>
      </trkpt>
      <trkpt lat="43.45138" lon="16.76335">
        <ele>193.024</ele>
        <time>2018-10-04T16:03:52Z</time>
      </trkpt>
      <trkpt lat="43.45134" lon="16.76349">
        <ele>193.004</ele>
        <time>2018-10-04T16:04:12Z</time>
      </trkpt>
      <trkpt lat="43.45126" lon="16.76374">
        <ele>192.014</ele>
        <time>2018-10-04T16:04:32Z</time>
      </trkpt>
      <trkpt lat="43.45123" lon="16.76383">
        <ele>192.008</ele>
        <time>2018-10-04T16:04:52Z</time>
      </trkpt>
      <trkpt lat="43.45118" lon="16.76411">
        <ele>192.094</ele>
        <time>2018-10-04T16:05:12Z</time>
      </trkpt>
      <trkpt lat="43.45119" lon="16.7643">
        <ele>190.011</ele>
        <time>2018-10-04T16:05:32Z</time>
      </trkpt>
      <trkpt lat="43.45115" lon="16.76452">
        <ele>188.064</ele>
        <time>2018-10-04T16:05:52Z</time>
      </trkpt>
      <trkpt lat="43.45114" lon="16.76455">
        <ele>188.096</ele>
        <time>2018-10-04T16:06:12Z</time>
      </trkpt>
      <trkpt lat="43.45108" lon="16.76465">
        <ele>187.094</ele>
        <time>2018-10-04T16:06:32Z</time>
      </trkpt>
      <trkpt lat="43.45103" lon="16.76474">
        <ele>186.025</ele>
        <time>2018-10-04T16:06:52Z</time>
      </trkpt>
      <trkpt lat="43.45097" lon="16.76482">
        <ele>184.015</ele>
        <time>2018-10-04T16:07:12Z</time>
      </trkpt>
      <trkpt lat="43.45086" lon="16.76503">
        <ele>182.094</ele>
        <time>2018-10-04T16:07:32Z</time>
      </trkpt>
      <trkpt lat="43.45079" lon="16.76515">
        <ele>180.056</ele>
        <time>2018-10-04T16:07:52Z</time>
      </trkpt>
      <trkpt lat="43.45074" lon="16.76524">
        <ele>178.059</ele>
        <time>2018-10-04T16:08:12Z</time>
      </trkpt>
      <trkpt lat="43.45068" lon="16.76539">
        <ele>177.014</ele>
        <time>2018-10-04T16:08:32Z</time>
      </trkpt>
      <trkpt lat="43.45065" lon="16.76557">
        <ele>176.008</ele>
        <time>2018-10-04T16:08:52Z</time>
      </trkpt>
      <trkpt lat="43.45062" lon="16.7657">
        <ele>175.027</ele>
        <time>2018-10-04T16:09:12Z</time>
      </trkpt>
      <trkpt lat="43.45056" lon="16.76589">
        <ele>174.034</ele>
        <time>2018-10-04T16:09:32Z</time>
      </trkpt>
      <trkpt lat="43.45049" lon="16.76605">
        <ele>172.057</ele>
        <time>2018-10-04T16:09:52Z</time>
      </trkpt>
      <trkpt lat="43.45043" lon="16.76625">
        <ele>171.039</ele>
        <time>2018-10-04T16:10:12Z</time>
      </trkpt>
      <trkpt lat="43.4504" lon="16.76646">
        <ele>170.027</ele>
        <time>2018-10-04T16:10:32Z</time>
      </trkpt>
      <trkpt lat="43.45038" lon="16.76664">
        <ele>169.018</ele>
        <time>2018-10-04T16:10:52Z</time>
      </trkpt>
      <trkpt lat="43.45029" lon="16.76681">
        <ele>168.088</ele>
        <time>2018-10-04T16:11:12Z</time>
      </trkpt>
      <trkpt lat="43.45023" lon="16.76691">
        <ele>166.057</ele>
        <time>2018-10-04T16:11:32Z</time>
      </trkpt>
      <trkpt lat="43.45017" lon="16.76706">
        <ele>164.074</ele>
        <time>2018-10-04T16:11:52Z</time>
      </trkpt>
      <trkpt lat="43.45014" lon="16.7671">
        <ele>163.056</ele>
        <time>2018-10-04T16:12:12Z</time>
      </trkpt>
      <trkpt lat="43.45012" lon="16.76719">
        <ele>160.021</ele>
        <time>2018-10-04T16:12:32Z</time>
      </trkpt>
      <trkpt lat="43.45015" lon="16.76731">
        <ele>158.008</ele>
        <time>2018-10-04T16:12:52Z</time>
      </trkpt>
      <trkpt lat="43.45018" lon="16.76739">
        <ele>157.089</ele>
        <time>2018-10-04T16:13:12Z</time>
      </trkpt>
      <trkpt lat="43.45013" lon="16.76752">
        <ele>154.096</ele>
        <time>2018-10-04T16:13:32Z</time>
      </trkpt>
      <trkpt lat="43.45008" lon="16.76757">
        <ele>153.059</ele>
        <time>2018-10-04T16:13:52Z</time>
      </trkpt>
      <trkpt lat="43.45004" lon="16.76767">
        <ele>152.051</ele>
        <time>2018-10-04T16:14:12Z</time>
      </trkpt>
      <trkpt lat="43.44997" lon="16.76788">
        <ele>149.019</ele>
        <time>2018-10-04T16:14:32Z</time>
      </trkpt>
      <trkpt lat="43.44991" lon="16.768">
        <ele>148.06</ele>
        <time>2018-10-04T16:14:52Z</time>
      </trkpt>
      <trkpt lat="43.44981" lon="16.76814">
        <ele>147.07</ele>
        <time>2018-10-04T16:15:12Z</time>
      </trkpt>
      <trkpt lat="43.44974" lon="16.76824">
        <ele>146.059</ele>
        <time>2018-10-04T16:15:32Z</time>
      </trkpt>
      <trkpt lat="43.44961" lon="16.76848">
        <ele>145.073</ele>
        <time>2018-10-04T16:15:52Z</time>
      </trkpt>
      <trkpt lat="43.44952" lon="16.76862">
        <ele>145.085</ele>
        <time>2018-10-04T16:16:12Z</time>
      </trkpt>
      <trkpt lat="43.44939" lon="16.76882">
        <ele>144.013</ele>
        <time>2018-10-04T16:16:32Z</time>
      </trkpt>
      <trkpt lat="43.4493" lon="16.76896">
        <ele>144.008</ele>
        <time>2018-10-04T16:16:52Z</time>
      </trkpt>
      <trkpt lat="43.44923" lon="16.76907">
        <ele>143.089</ele>
        <time>2018-10-04T16:17:12Z</time>
      </trkpt>
      <trkpt lat="43.44923" lon="16.76915">
        <ele>142.056</ele>
        <time>2018-10-04T16:17:32Z</time>
      </trkpt>
      <trkpt lat="43.44912" lon="16.76936">
        <ele>142.069</ele>
        <time>2018-10-04T16:17:52Z</time>
      </trkpt>
      <trkpt lat="43.449" lon="16.76959">
        <ele>142.031</ele>
        <time>2018-10-04T16:18:12Z</time>
      </trkpt>
      <trkpt lat="43.44889" lon="16.7698">
        <ele>141.029</ele>
        <time>2018-10-04T16:18:32Z</time>
      </trkpt>
      <trkpt lat="43.4488" lon="16.77">
        <ele>140.02</ele>
        <time>2018-10-04T16:18:52Z</time>
      </trkpt>
      <trkpt lat="43.4487" lon="16.77024">
        <ele>140.07</ele>
        <time>2018-10-04T16:19:12Z</time>
      </trkpt>
      <trkpt lat="43.44868" lon="16.77037">
        <ele>139.089</ele>
        <time>2018-10-04T16:19:32Z</time>
      </trkpt>
      <trkpt lat="43.44866" lon="16.77065">
        <ele>139.091</ele>
        <time>2018-10-04T16:19:52Z</time>
      </trkpt>
      <trkpt lat="43.44868" lon="16.77079">
        <ele>138.081</ele>
        <time>2018-10-04T16:20:12Z</time>
      </trkpt>
      <trkpt lat="43.44876" lon="16.77111">
        <ele>137.019</ele>
        <time>2018-10-04T16:20:32Z</time>
      </trkpt>
      <trkpt lat="43.44881" lon="16.77133">
        <ele>136.008</ele>
        <time>2018-10-04T16:20:52Z</time>
      </trkpt>
      <trkpt lat="43.44881" lon="16.77155">
        <ele>136.031</ele>
        <time>2018-10-04T16:21:12Z</time>
      </trkpt>
      <trkpt lat="43.44878" lon="16.77184">
        <ele>135.048</ele>
        <time>2018-10-04T16:21:32Z</time>
      </trkpt>
      <trkpt lat="43.44876" lon="16.77208">
        <ele>135.071</ele>
        <time>2018-10-04T16:21:52Z</time>
      </trkpt>
      <trkpt lat="43.44876" lon="16.77234">
        <ele>134.033</ele>
        <time>2018-10-04T16:22:12Z</time>
      </trkpt>
      <trkpt lat="43.44878" lon="16.77252">
        <ele>134.021</ele>
        <time>2018-10-04T16:22:32Z</time>
      </trkpt>
      <trkpt lat="43.44879" lon="16.77279">
        <ele>134.072</ele>
        <time>2018-10-04T16:22:52Z</time>
      </trkpt>
      <trkpt lat="43.44876" lon="16.77304">
        <ele>133.062</ele>
        <time>2018-10-04T16:23:12Z</time>
      </trkpt>
      <trkpt lat="43.44866" lon="16.77328">
        <ele>133.091</ele>
        <time>2018-10-04T16:23:32Z</time>
      </trkpt>
      <trkpt lat="43.4486" lon="16.77356">
        <ele>133.032</ele>
        <time>2018-10-04T16:23:52Z</time>
      </trkpt>
      <trkpt lat="43.44868" lon="16.77378">
        <ele>133.092</ele>
        <time>2018-10-04T16:24:12Z</time>
      </trkpt>
      <trkpt lat="43.44886" lon="16.77392">
        <ele>132.011</ele>
        <time>2018-10-04T16:24:32Z</time>
      </trkpt>
      <trkpt lat="43.44901" lon="16.77401">
        <ele>131.008</ele>
        <time>2018-10-04T16:24:52Z</time>
      </trkpt>
      <trkpt lat="43.4491" lon="16.77427">
        <ele>130.085</ele>
        <time>2018-10-04T16:25:12Z</time>
      </trkpt>
      <trkpt lat="43.44909" lon="16.77439">
        <ele>128.092</ele>
        <time>2018-10-04T16:25:32Z</time>
      </trkpt>
      <trkpt lat="43.44914" lon="16.77449">
        <ele>127.065</ele>
        <time>2018-10-04T16:25:52Z</time>
      </trkpt>
      <trkpt lat="43.44929" lon="16.77458">
        <ele>126.047</ele>
        <time>2018-10-04T16:26:12Z</time>
      </trkpt>
      <trkpt lat="43.4493" lon="16.77459">
        <ele>127.065</ele>
        <time>2018-10-04T16:26:32Z</time>
      </trkpt>
      <trkpt lat="43.44926" lon="16.77467">
        <ele>128.076</ele>
        <time>2018-10-04T16:26:52Z</time>
      </trkpt>
      <trkpt lat="43.44927" lon="16.77469">
        <ele>128.076</ele>
        <time>2018-10-04T16:27:12Z</time>
      </trkpt>
      <trkpt lat="43.44926" lon="16.77472">
        <ele>129.075</ele>
        <time>2018-10-04T16:27:32Z</time>
      </trkpt>
      <trkpt lat="43.44927" lon="16.77477">
        <ele>130.012</ele>
        <time>2018-10-04T16:27:52Z</time>
      </trkpt>
      <trkpt lat="43.44926" lon="16.77479">
        <ele>131.032</ele>
        <time>2018-10-04T16:28:12Z</time>
      </trkpt>
      <trkpt lat="43.44921" lon="16.77482">
        <ele>132.005</ele>
        <time>2018-10-04T16:28:32Z</time>
      </trkpt>
      <trkpt lat="43.44912" lon="16.77486">
        <ele>133.008</ele>
        <time>2018-10-04T16:28:52Z</time>
      </trkpt>
      <trkpt lat="43.44906" lon="16.77488">
        <ele>134.093</ele>
        <time>2018-10-04T16:29:12Z</time>
      </trkpt>
      <trkpt lat="43.44897" lon="16.77493">
        <ele>135.06</ele>
        <time>2018-10-04T16:29:32Z</time>
      </trkpt>
      <trkpt lat="43.44897" lon="16.77493">
        <ele>135.083</ele>
        <time>2018-10-04T16:29:52Z</time>
      </trkpt>
      <trkpt lat="43.44889" lon="16.77495">
        <ele>136.035</ele>
        <time>2018-10-04T16:30:12Z</time>
      </trkpt>
      <trkpt lat="43.44883" lon="16.77497">
        <ele>136.053</ele>
        <time>2018-10-04T16:30:32Z</time>
      </trkpt>
      <trkpt lat="43.44864" lon="16.77498">
        <ele>137.064</ele>
        <time>2018-10-04T16:30:52Z</time>
      </trkpt>
      <trkpt lat="43.44852" lon="16.77495">
        <ele>138.064</ele>
        <time>2018-10-04T16:31:12Z</time>
      </trkpt>
      <trkpt lat="43.44842" lon="16.77492">
        <ele>139.073</ele>
        <time>2018-10-04T16:31:32Z</time>
      </trkpt>
      <trkpt lat="43.44841" lon="16.77492">
        <ele>139.055</ele>
        <time>2018-10-04T16:31:52Z</time>
      </trkpt>
      <trkpt lat="43.44834" lon="16.77491">
        <ele>140.007</ele>
        <time>2018-10-04T16:32:12Z</time>
      </trkpt>
      <trkpt lat="43.44834" lon="16.77491">
        <ele>140.017</ele>
        <time>2018-10-04T16:32:32Z</time>
      </trkpt>
      <trkpt lat="43.4483" lon="16.77489">
        <ele>141.008</ele>
        <time>2018-10-04T16:32:52Z</time>
      </trkpt>
      <trkpt lat="43.44825" lon="16.77489">
        <ele>142.087</ele>
        <time>2018-10-04T16:33:12Z</time>
      </trkpt>
      <trkpt lat="43.44824" lon="16.77489">
        <ele>142.064</ele>
        <time>2018-10-04T16:33:32Z</time>
      </trkpt>
      <trkpt lat="43.4482" lon="16.77487">
        <ele>143.067</ele>
        <time>2018-10-04T16:33:52Z</time>
      </trkpt>
      <trkpt lat="43.44818" lon="16.77486">
        <ele>144.039</ele>
        <time>2018-10-04T16:34:12Z</time>
      </trkpt>
      <trkpt lat="43.44815" lon="16.77486">
        <ele>145.087</ele>
        <time>2018-10-04T16:34:32Z</time>
      </trkpt>
      <trkpt lat="43.4481" lon="16.77486">
        <ele>146.088</ele>
        <time>2018-10-04T16:34:52Z</time>
      </trkpt>
      <trkpt lat="43.44807" lon="16.77486">
        <ele>147.068</ele>
        <time>2018-10-04T16:35:12Z</time>
      </trkpt>
      <trkpt lat="43.44802" lon="16.77484">
        <ele>147.017</ele>
        <time>2018-10-04T16:35:32Z</time>
      </trkpt>
      <trkpt lat="43.44795" lon="16.77483">
        <ele>148.021</ele>
        <time>2018-10-04T16:35:52Z</time>
      </trkpt>
      <trkpt lat="43.44794" lon="16.77483">
        <ele>149.041</ele>
        <time>2018-10-04T16:36:12Z</time>
      </trkpt>
      <trkpt lat="43.44781" lon="16.77479">
        <ele>149.005</ele>
        <time>2018-10-04T16:36:32Z</time>
      </trkpt>
      <trkpt lat="43.44773" lon="16.77475">
        <ele>150.008</ele>
        <time>2018-10-04T16:36:52Z</time>
      </trkpt>
      <trkpt lat="43.44768" lon="16.77474">
        <ele>151.044</ele>
        <time>2018-10-04T16:37:12Z</time>
      </trkpt>
      <trkpt lat="43.44763" lon="16.77473">
        <ele>153.061</ele>
        <time>2018-10-04T16:37:32Z</time>
      </trkpt>
      <trkpt lat="43.44757" lon="16.77471">
        <ele>154.044</ele>
        <time>2018-10-04T16:37:52Z</time>
      </trkpt>
      <trkpt lat="43.44752" lon="16.77469">
        <ele>155.086</ele>
        <time>2018-10-04T16:38:12Z</time>
      </trkpt>
      <trkpt lat="43.44753" lon="16.77471">
        <ele>156.064</ele>
        <time>2018-10-04T16:38:32Z</time>
      </trkpt>
      <trkpt lat="43.44755" lon="16.77473">
        <ele>157.015</ele>
        <time>2018-10-04T16:38:52Z</time>
      </trkpt>
      <trkpt lat="43.44758" lon="16.77474">
        <ele>157.085</ele>
        <time>2018-10-04T16:39:12Z</time>
      </trkpt>
      <trkpt lat="43.4476" lon="16.77478">
        <ele>158.024</ele>
        <time>2018-10-04T16:39:32Z</time>
      </trkpt>
      <trkpt lat="43.4476" lon="16.7748">
        <ele>158.037</ele>
        <time>2018-10-04T16:39:52Z</time>
      </trkpt>
      <trkpt lat="43.44757" lon="16.77481">
        <ele>159.049</ele>
        <time>2018-10-04T16:40:12Z</time>
      </trkpt>
      <trkpt lat="43.44752" lon="16.7748">
        <ele>161.013</ele>
        <time>2018-10-04T16:40:32Z</time>
      </trkpt>
      <trkpt lat="43.44741" lon="16.77484">
        <ele>163.008</ele>
        <time>2018-10-04T16:40:52Z</time>
      </trkpt>
      <trkpt lat="43.44737" lon="16.77487">
        <ele>164.075</ele>
        <time>2018-10-04T16:41:12Z</time>
      </trkpt>
      <trkpt lat="43.44735" lon="16.7749">
        <ele>166.012</ele>
        <time>2018-10-04T16:41:32Z</time>
      </trkpt>
      <trkpt lat="43.44735" lon="16.77491">
        <ele>166.055</ele>
        <time>2018-10-04T16:41:52Z</time>
      </trkpt>
      <trkpt lat="43.44737" lon="16.77493">
        <ele>168.087</ele>
        <time>2018-10-04T16:42:12Z</time>
      </trkpt>
      <trkpt lat="43.44739" lon="16.77494">
        <ele>168.015</ele>
        <time>2018-10-04T16:42:32Z</time>
      </trkpt>
      <trkpt lat="43.4474" lon="16.77494">
        <ele>169.076</ele>
        <time>2018-10-04T16:42:52Z</time>
      </trkpt>
      <trkpt lat="43.44741" lon="16.77496">
        <ele>170.076</ele>
        <time>2018-10-04T16:43:12Z</time>
      </trkpt>
      <trkpt lat="43.4474" lon="16.77497">
        <ele>170.095</ele>
        <time>2018-10-04T16:43:32Z</time>
      </trkpt>
      <trkpt lat="43.44738" lon="16.77499">
        <ele>171.096</ele>
        <time>2018-10-04T16:43:52Z</time>
      </trkpt>
      <trkpt lat="43.44737" lon="16.775">
        <ele>172.031</ele>
        <time>2018-10-04T16:44:12Z</time>
      </trkpt>
      <trkpt lat="43.44741" lon="16.77502">
        <ele>173.024</ele>
        <time>2018-10-04T16:44:32Z</time>
      </trkpt>
      <trkpt lat="43.44742" lon="16.77503">
        <ele>174.008</ele>
        <time>2018-10-04T16:44:52Z</time>
      </trkpt>
      <trkpt lat="43.44749" lon="16.77505">
        <ele>174.071</ele>
        <time>2018-10-04T16:45:12Z</time>
      </trkpt>
      <trkpt lat="43.44748" lon="16.77505">
        <ele>174.028</ele>
        <time>2018-10-04T16:45:32Z</time>
      </trkpt>
      <trkpt lat="43.4475" lon="16.77512">
        <ele>174.021</ele>
        <time>2018-10-04T16:45:52Z</time>
      </trkpt>
      <trkpt lat="43.44767" lon="16.77518">
        <ele>174.093</ele>
        <time>2018-10-04T16:46:12Z</time>
      </trkpt>
      <trkpt lat="43.44771" lon="16.77527">
        <ele>174.061</ele>
        <time>2018-10-04T16:46:32Z</time>
      </trkpt>
      <trkpt lat="43.44775" lon="16.77535">
        <ele>174.072</ele>
        <time>2018-10-04T16:46:52Z</time>
      </trkpt>
      <trkpt lat="43.44785" lon="16.77555">
        <ele>174.072</ele>
        <time>2018-10-04T16:47:12Z</time>
      </trkpt>
      <trkpt lat="43.44798" lon="16.77567">
        <ele>175.061</ele>
        <time>2018-10-04T16:47:32Z</time>
      </trkpt>
      <trkpt lat="43.44811" lon="16.7758">
        <ele>177.058</ele>
        <time>2018-10-04T16:47:52Z</time>
      </trkpt>
      <trkpt lat="43.44816" lon="16.7759">
        <ele>179.052</ele>
        <time>2018-10-04T16:48:12Z</time>
      </trkpt>
      <trkpt lat="43.44818" lon="16.77595">
        <ele>179.017</ele>
        <time>2018-10-04T16:48:32Z</time>
      </trkpt>
      <trkpt lat="43.4482" lon="16.77615">
        <ele>182.008</ele>
        <time>2018-10-04T16:48:52Z</time>
      </trkpt>
      <trkpt lat="43.44821" lon="16.77621">
        <ele>183.097</ele>
        <time>2018-10-04T16:49:12Z</time>
      </trkpt>
      <trkpt lat="43.44815" lon="16.77634">
        <ele>184.094</ele>
        <time>2018-10-04T16:49:32Z</time>
      </trkpt>
      <trkpt lat="43.44811" lon="16.77645">
        <ele>185.047</ele>
        <time>2018-10-04T16:49:52Z</time>
      </trkpt>
      <trkpt lat="43.44803" lon="16.77668">
        <ele>185.099</ele>
        <time>2018-10-04T16:50:12Z</time>
      </trkpt>
      <trkpt lat="43.44795" lon="16.77689">
        <ele>184.027</ele>
        <time>2018-10-04T16:50:32Z</time>
      </trkpt>
      <trkpt lat="43.44785" lon="16.77713">
        <ele>183.058</ele>
        <time>2018-10-04T16:50:52Z</time>
      </trkpt>
      <trkpt lat="43.44781" lon="16.77722">
        <ele>183.028</ele>
        <time>2018-10-04T16:51:12Z</time>
      </trkpt>
      <trkpt lat="43.44774" lon="16.77743">
        <ele>182.017</ele>
        <time>2018-10-04T16:51:32Z</time>
      </trkpt>
      <trkpt lat="43.44767" lon="16.77767">
        <ele>181.087</ele>
        <time>2018-10-04T16:51:52Z</time>
      </trkpt>
      <trkpt lat="43.44764" lon="16.77791">
        <ele>181.042</ele>
        <time>2018-10-04T16:52:12Z</time>
      </trkpt>
      <trkpt lat="43.44765" lon="16.77811">
        <ele>182.026</ele>
        <time>2018-10-04T16:52:32Z</time>
      </trkpt>
      <trkpt lat="43.44761" lon="16.77824">
        <ele>183.008</ele>
        <time>2018-10-04T16:52:52Z</time>
      </trkpt>
      <trkpt lat="43.44758" lon="16.77837">
        <ele>184.02</ele>
        <time>2018-10-04T16:53:12Z</time>
      </trkpt>
      <trkpt lat="43.44744" lon="16.77852">
        <ele>184.037</ele>
        <time>2018-10-04T16:53:32Z</time>
      </trkpt>
      <trkpt lat="43.44728" lon="16.77874">
        <ele>182.01</ele>
        <time>2018-10-04T16:53:52Z</time>
      </trkpt>
      <trkpt lat="43.44725" lon="16.7789">
        <ele>182.072</ele>
        <time>2018-10-04T16:54:12Z</time>
      </trkpt>
      <trkpt lat="43.44722" lon="16.77916">
        <ele>182.05</ele>
        <time>2018-10-04T16:54:32Z</time>
      </trkpt>
      <trkpt lat="43.44724" lon="16.77949">
        <ele>183.021</ele>
        <time>2018-10-04T16:54:52Z</time>
      </trkpt>
      <trkpt lat="43.44718" lon="16.77974">
        <ele>183.071</ele>
        <time>2018-10-04T16:55:12Z</time>
      </trkpt>
      <trkpt lat="43.44707" lon="16.77997">
        <ele>182.08</ele>
        <time>2018-10-04T16:55:32Z</time>
      </trkpt>
      <trkpt lat="43.447" lon="16.78021">
        <ele>182.087</ele>
        <time>2018-10-04T16:55:52Z</time>
      </trkpt>
      <trkpt lat="43.44697" lon="16.78034">
        <ele>184.042</ele>
        <time>2018-10-04T16:56:12Z</time>
      </trkpt>
      <trkpt lat="43.44692" lon="16.78042">
        <ele>185.026</ele>
        <time>2018-10-04T16:56:32Z</time>
      </trkpt>
      <trkpt lat="43.44686" lon="16.78063">
        <ele>186.008</ele>
        <time>2018-10-04T16:56:52Z</time>
      </trkpt>
      <trkpt lat="43.44673" lon="16.78094">
        <ele>185.04</ele>
        <time>2018-10-04T16:57:12Z</time>
      </trkpt>
      <trkpt lat="43.44669" lon="16.7812">
        <ele>183.057</ele>
        <time>2018-10-04T16:57:32Z</time>
      </trkpt>
      <trkpt lat="43.4467" lon="16.78138">
        <ele>180.07</ele>
        <time>2018-10-04T16:57:52Z</time>
      </trkpt>
      <trkpt lat="43.44665" lon="16.78156">
        <ele>179.032</ele>
        <time>2018-10-04T16:58:12Z</time>
      </trkpt>
      <trkpt lat="43.44663" lon="16.78162">
        <ele>179.01</ele>
        <time>2018-10-04T16:58:32Z</time>
      </trkpt>
      <trkpt lat="43.4466" lon="16.78176">
        <ele>178.071</ele>
        <time>2018-10-04T16:58:52Z</time>
      </trkpt>
      <trkpt lat="43.4466" lon="16.78178">
        <ele>178.051</ele>
        <time>2018-10-04T16:59:12Z</time>
      </trkpt>
      <trkpt lat="43.44659" lon="16.78194">
        <ele>176.09</ele>
        <time>2018-10-04T16:59:32Z</time>
      </trkpt>
      <trkpt lat="43.44658" lon="16.78203">
        <ele>176.037</ele>
        <time>2018-10-04T16:59:52Z</time>
      </trkpt>
      <trkpt lat="43.44643" lon="16.7822">
        <ele>176.049</ele>
        <time>2018-10-04T17:00:12Z</time>
      </trkpt>
      <trkpt lat="43.4463" lon="16.78239">
        <ele>176.013</ele>
        <time>2018-10-04T17:00:32Z</time>
      </trkpt>
      <trkpt lat="43.44617" lon="16.78259">
        <ele>176.008</ele>
        <time>2018-10-04T17:00:52Z</time>
      </trkpt>
      <trkpt lat="43.4461" lon="16.78284">
        <ele>176.085</ele>
        <time>2018-10-04T17:01:12Z</time>
      </trkpt>
      <trkpt lat="43.44602" lon="16.78309">
        <ele>176.052</ele>
        <time>2018-10-04T17:01:32Z</time>
      </trkpt>
      <trkpt lat="43.44599" lon="16.78325">
        <ele>176.095</ele>
        <time>2018-10-04T17:01:52Z</time>
      </trkpt>
      <trkpt lat="43.44603" lon="16.7835">
        <ele>177.027</ele>
        <time>2018-10-04T17:02:12Z</time>
      </trkpt>
      <trkpt lat="43.44606" lon="16.78383">
        <ele>176.095</ele>
        <time>2018-10-04T17:02:32Z</time>
      </trkpt>
      <trkpt lat="43.44613" lon="16.78407">
        <ele>177.046</ele>
        <time>2018-10-04T17:02:52Z</time>
      </trkpt>
      <trkpt lat="43.44618" lon="16.78432">
        <ele>176.056</ele>
        <time>2018-10-04T17:03:12Z</time>
      </trkpt>
      <trkpt lat="43.44623" lon="16.78449">
        <ele>176.085</ele>
        <time>2018-10-04T17:03:32Z</time>
      </trkpt>
      <trkpt lat="43.44627" lon="16.78458">
        <ele>177.058</ele>
        <time>2018-10-04T17:03:52Z</time>
      </trkpt>
      <trkpt lat="43.44627" lon="16.78474">
        <ele>178.052</ele>
        <time>2018-10-04T17:04:12Z</time>
      </trkpt>
      <trkpt lat="43.44627" lon="16.78501">
        <ele>178.017</ele>
        <time>2018-10-04T17:04:32Z</time>
      </trkpt>
      <trkpt lat="43.44621" lon="16.78525">
        <ele>179.008</ele>
        <time>2018-10-04T17:04:52Z</time>
      </trkpt>
      <trkpt lat="43.44615" lon="16.78553">
        <ele>178.077</ele>
        <time>2018-10-04T17:05:12Z</time>
      </trkpt>
      <trkpt lat="43.4461" lon="16.78565">
        <ele>177.064</ele>
        <time>2018-10-04T17:05:32Z</time>
      </trkpt>
      <trkpt lat="43.44606" lon="16.78577">
        <ele>176.037</ele>
        <time>2018-10-04T17:05:52Z</time>
      </trkpt>
      <trkpt lat="43.44602" lon="16.78588">
        <ele>175.069</ele>
        <time>2018-10-04T17:06:12Z</time>
      </trkpt>
      <trkpt lat="43.44594" lon="16.78613">
        <ele>173.077</ele>
        <time>2018-10-04T17:06:32Z</time>
      </trkpt>
      <trkpt lat="43.44591" lon="16.78619">
        <ele>172.068</ele>
        <time>2018-10-04T17:06:52Z</time>
      </trkpt>
      <trkpt lat="43.44584" lon="16.78635">
        <ele>171.068</ele>
        <time>2018-10-04T17:07:12Z</time>
      </trkpt>
      <trkpt lat="43.44584" lon="16.78651">
        <ele>170.067</ele>
        <time>2018-10-04T17:07:32Z</time>
      </trkpt>
      <trkpt lat="43.44584" lon="16.78658">
        <ele>170.011</ele>
        <time>2018-10-04T17:07:52Z</time>
      </trkpt>
      <trkpt lat="43.44578" lon="16.78677">
        <ele>169.021</ele>
        <time>2018-10-04T17:08:12Z</time>
      </trkpt>
      <trkpt lat="43.44578" lon="16.78679">
        <ele>169.003</ele>
        <time>2018-10-04T17:08:32Z</time>
      </trkpt>
      <trkpt lat="43.44573" lon="16.78704">
        <ele>168.008</ele>
        <time>2018-10-04T17:08:52Z</time>
      </trkpt>
      <trkpt lat="43.44576" lon="16.78729">
        <ele>168.023</ele>
        <time>2018-10-04T17:09:12Z</time>
      </trkpt>
      <trkpt lat="43.44579" lon="16.7874">
        <ele>166.03</ele>
        <time>2018-10-04T17:09:32Z</time>
      </trkpt>
      <trkpt lat="43.4458" lon="16.78752">
        <ele>165.083</ele>
        <time>2018-10-04T17:09:52Z</time>
      </trkpt>
      <trkpt lat="43.4458" lon="16.78768">
        <ele>164.045</ele>
        <time>2018-10-04T17:10:12Z</time>
      </trkpt>
      <trkpt lat="43.44577" lon="16.78776">
        <ele>163.043</ele>
        <time>2018-10-04T17:10:32Z</time>
      </trkpt>
      <trkpt lat="43.44573" lon="16.78787">
        <ele>162.064</ele>
        <time>2018-10-04T17:10:52Z</time>
      </trkpt>
      <trkpt lat="43.44569" lon="16.78792">
        <ele>161.064</ele>
        <time>2018-10-04T17:11:12Z</time>
      </trkpt>
      <trkpt lat="43.44569" lon="16.78796">
        <ele>161.083</ele>
        <time>2018-10-04T17:11:32Z</time>
      </trkpt>
      <trkpt lat="43.44572" lon="16.78793">
        <ele>161.013</ele>
        <time>2018-10-04T17:11:52Z</time>
      </trkpt>
      <trkpt lat="43.44576" lon="16.78798">
        <ele>161.043</ele>
        <time>2018-10-04T17:12:12Z</time>
      </trkpt>
      <trkpt lat="43.44581" lon="16.788">
        <ele>160.007</ele>
        <time>2018-10-04T17:12:32Z</time>
      </trkpt>
      <trkpt lat="43.44586" lon="16.78799">
        <ele>159.008</ele>
        <time>2018-10-04T17:12:52Z</time>
      </trkpt>
      <trkpt lat="43.4459" lon="16.78794">
        <ele>158.063</ele>
        <time>2018-10-04T17:13:12Z</time>
      </trkpt>
      <trkpt lat="43.44592" lon="16.78793">
        <ele>157.07</ele>
        <time>2018-10-04T17:13:32Z</time>
      </trkpt>
      <trkpt lat="43.44593" lon="16.78793">
        <ele>156.083</ele>
        <time>2018-10-04T17:13:52Z</time>
      </trkpt>
      <trkpt lat="43.44593" lon="16.78796">
        <ele>155.055</ele>
        <time>2018-10-04T17:14:12Z</time>
      </trkpt>
      <trkpt lat="43.44593" lon="16.78802">
        <ele>154.073</ele>
        <time>2018-10-04T17:14:32Z</time>
      </trkpt>
      <trkpt lat="43.44595" lon="16.78809">
        <ele>153.044</ele>
        <time>2018-10-04T17:14:52Z</time>
      </trkpt>
      <trkpt lat="43.446" lon="16.78823">
        <ele>150.054</ele>
        <time>2018-10-04T17:15:12Z</time>
      </trkpt>
      <trkpt lat="43.44601" lon="16.78825">
        <ele>150.023</ele>
        <time>2018-10-04T17:15:32Z</time>
      </trkpt>
      <trkpt lat="43.44604" lon="16.78827">
        <ele>149.056</ele>
        <time>2018-10-04T17:15:52Z</time>
      </trkpt>
      <trkpt lat="43.44607" lon="16.78827">
        <ele>149.059</ele>
        <time>2018-10-04T17:16:12Z</time>
      </trkpt>
      <trkpt lat="43.44607" lon="16.78825">
        <ele>148.014</ele>
        <time>2018-10-04T17:16:32Z</time>
      </trkpt>
      <trkpt lat="43.4461" lon="16.78819">
        <ele>147.008</ele>
        <time>2018-10-04T17:16:52Z</time>
      </trkpt>
      <trkpt lat="43.44621" lon="16.78811">
        <ele>144.037</ele>
        <time>2018-10-04T17:17:12Z</time>
      </trkpt>
      <trkpt lat="43.44626" lon="16.78808">
        <ele>142.084</ele>
        <time>2018-10-04T17:17:32Z</time>
      </trkpt>
      <trkpt lat="43.44631" lon="16.78804">
        <ele>141.037</ele>
        <time>2018-10-04T17:17:52Z</time>
      </trkpt>
      <trkpt lat="43.44632" lon="16.78803">
        <ele>140.029</ele>
        <time>2018-10-04T17:18:12Z</time>
      </trkpt>
      <trkpt lat="43.44635" lon="16.788">
        <ele>140.087</ele>
        <time>2018-10-04T17:18:32Z</time>
      </trkpt>
      <trkpt lat="43.44637" lon="16.78802">
        <ele>138.038</ele>
        <time>2018-10-04T17:18:52Z</time>
      </trkpt>
      <trkpt lat="43.44636" lon="16.78807">
        <ele>137.048</ele>
        <time>2018-10-04T17:19:12Z</time>
      </trkpt>
      <trkpt lat="43.44634" lon="16.7881">
        <ele>136.037</ele>
        <time>2018-10-04T17:19:32Z</time>
      </trkpt>
      <trkpt lat="43.44634" lon="16.78814">
        <ele>136.016</ele>
        <time>2018-10-04T17:19:52Z</time>
      </trkpt>
      <trkpt lat="43.44635" lon="16.78817">
        <ele>135.076</ele>
        <time>2018-10-04T17:20:12Z</time>
      </trkpt>
      <trkpt lat="43.44636" lon="16.78818">
        <ele>135.013</ele>
        <time>2018-10-04T17:20:32Z</time>
      </trkpt>
      <trkpt lat="43.44641" lon="16.78818">
        <ele>133.008</ele>
        <time>2018-10-04T17:20:52Z</time>
      </trkpt>
      <trkpt lat="43.44646" lon="16.78814">
        <ele>132.013</ele>
        <time>2018-10-04T17:21:12Z</time>
      </trkpt>
      <trkpt lat="43.44647" lon="16.78813">
        <ele>132.04</ele>
        <time>2018-10-04T17:21:32Z</time>
      </trkpt>
      <trkpt lat="43.44647" lon="16.78817">
        <ele>131.083</ele>
        <time>2018-10-04T17:21:52Z</time>
      </trkpt>
      <trkpt lat="43.44647" lon="16.7882">
        <ele>130.095</ele>
        <time>2018-10-04T17:22:12Z</time>
      </trkpt>
      <trkpt lat="43.44646" lon="16.7883">
        <ele>129.073</ele>
        <time>2018-10-04T17:22:32Z</time>
      </trkpt>
      <trkpt lat="43.44645" lon="16.78835">
        <ele>127.084</ele>
        <time>2018-10-04T17:22:52Z</time>
      </trkpt>
      <trkpt lat="43.44645" lon="16.78849">
        <ele>125.024</ele>
        <time>2018-10-04T17:23:12Z</time>
      </trkpt>
      <trkpt lat="43.44647" lon="16.78857">
        <ele>124.083</ele>
        <time>2018-10-04T17:23:32Z</time>
      </trkpt>
      <trkpt lat="43.44647" lon="16.7886">
        <ele>123.043</ele>
        <time>2018-10-04T17:23:52Z</time>
      </trkpt>
      <trkpt lat="43.44647" lon="16.78864">
        <ele>122.064</ele>
        <time>2018-10-04T17:24:12Z</time>
      </trkpt>
      <trkpt lat="43.44647" lon="16.78869">
        <ele>121.01</ele>
        <time>2018-10-04T17:24:32Z</time>
      </trkpt>
      <trkpt lat="43.44647" lon="16.78877">
        <ele>119.008</ele>
        <time>2018-10-04T17:24:52Z</time>
      </trkpt>
      <trkpt lat="43.44648" lon="16.7889">
        <ele>117.066</ele>
        <time>2018-10-04T17:25:12Z</time>
      </trkpt>
      <trkpt lat="43.44648" lon="16.78893">
        <ele>116.013</ele>
        <time>2018-10-04T17:25:32Z</time>
      </trkpt>
      <trkpt lat="43.44644" lon="16.78905">
        <ele>114.036</ele>
        <time>2018-10-04T17:25:52Z</time>
      </trkpt>
      <trkpt lat="43.44642" lon="16.78916">
        <ele>113.088</ele>
        <time>2018-10-04T17:26:12Z</time>
      </trkpt>
      <trkpt lat="43.44642" lon="16.78927">
        <ele>112.016</ele>
        <time>2018-10-04T17:26:32Z</time>
      </trkpt>
      <trkpt lat="43.44641" lon="16.78937">
        <ele>110.087</ele>
        <time>2018-10-04T17:26:52Z</time>
      </trkpt>
      <trkpt lat="43.44643" lon="16.78945">
        <ele>109.087</ele>
        <time>2018-10-04T17:27:12Z</time>
      </trkpt>
      <trkpt lat="43.44647" lon="16.78945">
        <ele>108.036</ele>
        <time>2018-10-04T17:27:32Z</time>
      </trkpt>
      <trkpt lat="43.44649" lon="16.78945">
        <ele>108.021</ele>
        <time>2018-10-04T17:27:52Z</time>
      </trkpt>
      <trkpt lat="43.44651" lon="16.78945">
        <ele>107.041</ele>
        <time>2018-10-04T17:28:12Z</time>
      </trkpt>
      <trkpt lat="43.44657" lon="16.78936">
        <ele>106.005</ele>
        <time>2018-10-04T17:28:32Z</time>
      </trkpt>
      <trkpt lat="43.44659" lon="16.78931">
        <ele>104.008</ele>
        <time>2018-10-04T17:28:52Z</time>
      </trkpt>
      <trkpt lat="43.44665" lon="16.78927">
        <ele>103.094</ele>
        <time>2018-10-04T17:29:12Z</time>
      </trkpt>
      <trkpt lat="43.44666" lon="16.78929">
        <ele>101.051</ele>
        <time>2018-10-04T17:29:32Z</time>
      </trkpt>
      <trkpt lat="43.44666" lon="16.78931">
        <ele>101.034</ele>
        <time>2018-10-04T17:29:52Z</time>
      </trkpt>
      <trkpt lat="43.44665" lon="16.78938">
        <ele>99.056</ele>
        <time>2018-10-04T17:30:12Z</time>
      </trkpt>
      <trkpt lat="43.44666" lon="16.78944">
        <ele>99.094</ele>
        <time>2018-10-04T17:30:32Z</time>
      </trkpt>
      <trkpt lat="43.44671" lon="16.78955">
        <ele>98.075</ele>
        <time>2018-10-04T17:30:52Z</time>
      </trkpt>
      <trkpt lat="43.44673" lon="16.78961">
        <ele>96.075</ele>
        <time>2018-10-04T17:31:12Z</time>
      </trkpt>
      <trkpt lat="43.44676" lon="16.78967">
        <ele>95.094</ele>
        <time>2018-10-04T17:31:32Z</time>
      </trkpt>
      <trkpt lat="43.44679" lon="16.7897">
        <ele>94.073</ele>
        <time>2018-10-04T17:31:52Z</time>
      </trkpt>
      <trkpt lat="43.4468" lon="16.78974">
        <ele>92.085</ele>
        <time>2018-10-04T17:32:12Z</time>
      </trkpt>
      <trkpt lat="43.44678" lon="16.78983">
        <ele>91.013</ele>
        <time>2018-10-04T17:32:32Z</time>
      </trkpt>
      <trkpt lat="43.44677" lon="16.78989">
        <ele>90.008</ele>
        <time>2018-10-04T17:32:52Z</time>
      </trkpt>
      <trkpt lat="43.44675" lon="16.78998">
        <ele>89.049</ele>
        <time>2018-10-04T17:33:12Z</time>
      </trkpt>
      <trkpt lat="43.44673" lon="16.79012">
        <ele>87.036</ele>
        <time>2018-10-04T17:33:32Z</time>
      </trkpt>
      <trkpt lat="43.44674" lon="16.79022">
        <ele>85.089</ele>
        <time>2018-10-04T17:33:52Z</time>
      </trkpt>
      <trkpt lat="43.44674" lon="16.79034">
        <ele>84.041</ele>
        <time>2018-10-04T17:34:12Z</time>
      </trkpt>
      <trkpt lat="43.44672" lon="16.79042">
        <ele>82.039</ele>
        <time>2018-10-04T17:34:32Z</time>
      </trkpt>
      <trkpt lat="43.44672" lon="16.79049">
        <ele>82.05</ele>
        <time>2018-10-04T17:34:52Z</time>
      </trkpt>
      <trkpt lat="43.44673" lon="16.79064">
        <ele>80.02</ele>
        <time>2018-10-04T17:35:12Z</time>
      </trkpt>
      <trkpt lat="43.44673" lon="16.79075">
        <ele>79.019</ele>
        <time>2018-10-04T17:35:32Z</time>
      </trkpt>
      <trkpt lat="43.44673" lon="16.79078">
        <ele>78.098</ele>
        <time>2018-10-04T17:35:52Z</time>
      </trkpt>
      <trkpt lat="43.44676" lon="16.79078">
        <ele>77.015</ele>
        <time>2018-10-04T17:36:12Z</time>
      </trkpt>
      <trkpt lat="43.44683" lon="16.7907">
        <ele>75.026</ele>
        <time>2018-10-04T17:36:32Z</time>
      </trkpt>
      <trkpt lat="43.44686" lon="16.79064">
        <ele>74.008</ele>
        <time>2018-10-04T17:36:52Z</time>
      </trkpt>
      <trkpt lat="43.44691" lon="16.79058">
        <ele>72.051</ele>
        <time>2018-10-04T17:37:12Z</time>
      </trkpt>
      <trkpt lat="43.44692" lon="16.79057">
        <ele>72.078</ele>
        <time>2018-10-04T17:37:32Z</time>
      </trkpt>
      <trkpt lat="43.44694" lon="16.79057">
        <ele>71.051</ele>
        <time>2018-10-04T17:37:52Z</time>
      </trkpt>
      <trkpt lat="43.44695" lon="16.79063">
        <ele>70.013</ele>
        <time>2018-10-04T17:38:12Z</time>
      </trkpt>
      <trkpt lat="43.44698" lon="16.79068">
        <ele>68.051</ele>
        <time>2018-10-04T17:38:32Z</time>
      </trkpt>
      <trkpt lat="43.44701" lon="16.79074">
        <ele>67.022</ele>
        <time>2018-10-04T17:38:52Z</time>
      </trkpt>
      <trkpt lat="43.44706" lon="16.7908">
        <ele>66.012</ele>
        <time>2018-10-04T17:39:12Z</time>
      </trkpt>
      <trkpt lat="43.44709" lon="16.79083">
        <ele>64.091</ele>
        <time>2018-10-04T17:39:32Z</time>
      </trkpt>
      <trkpt lat="43.44713" lon="16.79086">
        <ele>63.062</ele>
        <time>2018-10-04T17:39:52Z</time>
      </trkpt>
      <trkpt lat="43.44716" lon="16.79089">
        <ele>62.083</ele>
        <time>2018-10-04T17:40:12Z</time>
      </trkpt>
      <trkpt lat="43.44715" lon="16.79102">
        <ele>60.011</ele>
        <time>2018-10-04T17:40:32Z</time>
      </trkpt>
      <trkpt lat="43.44714" lon="16.79108">
        <ele>59.008</ele>
        <time>2018-10-04T17:40:52Z</time>
      </trkpt>
      <trkpt lat="43.44707" lon="16.79117">
        <ele>56.058</ele>
        <time>2018-10-04T17:41:12Z</time>
      </trkpt>
      <trkpt lat="43.44703" lon="16.7912">
        <ele>55.035</ele>
        <time>2018-10-04T17:41:32Z</time>
      </trkpt>
      <trkpt lat="43.44696" lon="16.79125">
        <ele>53.018</ele>
        <time>2018-10-04T17:41:52Z</time>
      </trkpt>
      <trkpt lat="43.44696" lon="16.79125">
        <ele>53.04</ele>
        <time>2018-10-04T17:42:12Z</time>
      </trkpt>
      <trkpt lat="43.44696" lon="16.79129">
        <ele>52.038</ele>
        <time>2018-10-04T17:42:32Z</time>
      </trkpt>
      <trkpt lat="43.44707" lon="16.79128">
        <ele>50.039</ele>
        <time>2018-10-04T17:42:52Z</time>
      </trkpt>
      <trkpt lat="43.44709" lon="16.79127">
        <ele>50.019</ele>
        <time>2018-10-04T17:43:12Z</time>
      </trkpt>
      <trkpt lat="43.44715" lon="16.79127">
        <ele>47.068</ele>
        <time>2018-10-04T17:43:32Z</time>
      </trkpt>
      <trkpt lat="43.44723" lon="16.79126">
        <ele>46.033</ele>
        <time>2018-10-04T17:43:52Z</time>
      </trkpt>
      <trkpt lat="43.44731" lon="16.79126">
        <ele>45.023</ele>
        <time>2018-10-04T17:44:12Z</time>
      </trkpt>
      <trkpt lat="43.44741" lon="16.79124">
        <ele>44.015</ele>
        <time>2018-10-04T17:44:32Z</time>
      </trkpt>
      <trkpt lat="43.44742" lon="16.79129">
        <ele>43.008</ele>
        <time>2018-10-04T17:44:52Z</time>
      </trkpt>
      <trkpt lat="43.44744" lon="16.79135">
        <ele>42.085</ele>
        <time>2018-10-04T17:45:12Z</time>
      </trkpt>
      <trkpt lat="43.44749" lon="16.79148">
        <ele>41.072</ele>
        <time>2018-10-04T17:45:32Z</time>
      </trkpt>
      <trkpt lat="43.4475" lon="16.79153">
        <ele>41.045</ele>
        <time>2018-10-04T17:45:52Z</time>
      </trkpt>
      <trkpt lat="43.44743" lon="16.79156">
        <ele>41.047</ele>
        <time>2018-10-04T17:46:12Z</time>
      </trkpt>
      <trkpt lat="43.44728" lon="16.79159">
        <ele>39.085</ele>
        <time>2018-10-04T17:46:32Z</time>
      </trkpt>
      <trkpt lat="43.44714" lon="16.7917">
        <ele>38.036</ele>
        <time>2018-10-04T17:46:52Z</time>
      </trkpt>
      <trkpt lat="43.44698" lon="16.79194">
        <ele>38.076</ele>
        <time>2018-10-04T17:47:12Z</time>
      </trkpt>
      <trkpt lat="43.44695" lon="16.792">
        <ele>37.035</ele>
        <time>2018-10-04T17:47:32Z</time>
      </trkpt>
      <trkpt lat="43.44684" lon="16.79222">
        <ele>36.099</ele>
        <time>2018-10-04T17:47:52Z</time>
      </trkpt>
      <trkpt lat="43.44676" lon="16.79241">
        <ele>36.007</ele>
        <time>2018-10-04T17:48:12Z</time>
      </trkpt>
      <trkpt lat="43.44665" lon="16.7926">
        <ele>35.027</ele>
        <time>2018-10-04T17:48:32Z</time>
      </trkpt>
      <trkpt lat="43.44656" lon="16.79285">
        <ele>35.008</ele>
        <time>2018-10-04T17:48:52Z</time>
      </trkpt>
      <trkpt lat="43.44653" lon="16.79301">
        <ele>34.081</ele>
        <time>2018-10-04T17:49:12Z</time>
      </trkpt>
      <trkpt lat="43.44655" lon="16.79331">
        <ele>33.088</ele>
        <time>2018-10-04T17:49:32Z</time>
      </trkpt>
      <trkpt lat="43.44658" lon="16.79352">
        <ele>32.021</ele>
        <time>2018-10-04T17:49:52Z</time>
      </trkpt>
      <trkpt lat="43.44665" lon="16.79363">
        <ele>32.013</ele>
        <time>2018-10-04T17:50:12Z</time>
      </trkpt>
      <trkpt lat="43.44671" lon="16.79375">
        <ele>31.081</ele>
        <time>2018-10-04T17:50:32Z</time>
      </trkpt>
      <trkpt lat="43.44674" lon="16.7938">
        <ele>31.032</ele>
        <time>2018-10-04T17:50:52Z</time>
      </trkpt>
      <trkpt lat="43.44676" lon="16.79406">
        <ele>30.042</ele>
        <time>2018-10-04T17:51:12Z</time>
      </trkpt>
      <trkpt lat="43.44676" lon="16.79438">
        <ele>30.011</ele>
        <time>2018-10-04T17:51:32Z</time>
      </trkpt>
      <trkpt lat="43.44678" lon="16.79462">
        <ele>30.026</ele>
        <time>2018-10-04T17:51:52Z</time>
      </trkpt>
      <trkpt lat="43.44683" lon="16.7949">
        <ele>30.047</ele>
        <time>2018-10-04T17:52:12Z</time>
      </trkpt>
      <trkpt lat="43.44689" lon="16.79515">
        <ele>29.011</ele>
        <time>2018-10-04T17:52:32Z</time>
      </trkpt>
      <trkpt lat="43.44697" lon="16.79537">
        <ele>29.008</ele>
        <time>2018-10-04T17:52:52Z</time>
      </trkpt>
      <trkpt lat="43.44705" lon="16.7955">
        <ele>29.074</ele>
        <time>2018-10-04T17:53:12Z</time>
      </trkpt>
      <trkpt lat="43.44719" lon="16.79568">
        <ele>29.091</ele>
        <time>2018-10-04T17:53:32Z</time>
      </trkpt>
      <trkpt lat="43.44726" lon="16.79596">
        <ele>28.074</ele>
        <time>2018-10-04T17:53:52Z</time>
      </trkpt>
      <trkpt lat="43.44727" lon="16.79613">
        <ele>27.046</ele>
        <time>2018-10-04T17:54:12Z</time>
      </trkpt>
      <trkpt lat="43.44734" lon="16.79635">
        <ele>26.074</ele>
        <time>2018-10-04T17:54:32Z</time>
      </trkpt>
      <trkpt lat="43.4473" lon="16.7965">
        <ele>25.035</ele>
        <time>2018-10-04T17:54:52Z</time>
      </trkpt>
      <trkpt lat="43.44731" lon="16.79672">
        <ele>24.055</ele>
        <time>2018-10-04T17:55:12Z</time>
      </trkpt>
      <trkpt lat="43.44731" lon="16.79687">
        <ele>23.044</ele>
        <time>2018-10-04T17:55:32Z</time>
      </trkpt>
      <trkpt lat="43.44731" lon="16.79698">
        <ele>22.062</ele>
        <time>2018-10-04T17:55:52Z</time>
      </trkpt>
      <trkpt lat="43.44731" lon="16.79707">
        <ele>21.083</ele>
        <time>2018-10-04T17:56:12Z</time>
      </trkpt>
      <trkpt lat="43.44729" lon="16.79714">
        <ele>21.011</ele>
        <time>2018-10-04T17:56:32Z</time>
      </trkpt>
      <trkpt lat="43.44728" lon="16.79723">
        <ele>20.008</ele>
        <time>2018-10-04T17:56:52Z</time>
      </trkpt>
      <trkpt lat="43.44725" lon="16.79735">
        <ele>20.048</ele>
        <time>2018-10-04T17:57:12Z</time>
      </trkpt>
      <trkpt lat="43.44722" lon="16.79746">
        <ele>18.055</ele>
        <time>2018-10-04T17:57:32Z</time>
      </trkpt>
      <trkpt lat="43.44718" lon="16.79756">
        <ele>17.088</ele>
        <time>2018-10-04T17:57:52Z</time>
      </trkpt>
      <trkpt lat="43.44717" lon="16.79771">
        <ele>17.09</ele>
        <time>2018-10-04T17:58:12Z</time>
      </trkpt>
      <trkpt lat="43.44717" lon="16.79787">
        <ele>17.058</ele>
        <time>2018-10-04T17:58:32Z</time>
      </trkpt>
      <trkpt lat="43.44712" lon="16.79814">
        <ele>17.069</ele>
        <time>2018-10-04T17:58:52Z</time>
      </trkpt>
      <trkpt lat="43.44711" lon="16.7984">
        <ele>17.089</ele>
        <time>2018-10-04T17:59:12Z</time>
      </trkpt>
      <trkpt lat="43.44707" lon="16.7986">
        <ele>17.038</ele>
        <time>2018-10-04T17:59:32Z</time>
      </trkpt>
      <trkpt lat="43.44707" lon="16.79875">
        <ele>17.036</ele>
        <time>2018-10-04T17:59:52Z</time>
      </trkpt>
      <trkpt lat="43.44705" lon="16.799">
        <ele>17.017</ele>
        <time>2018-10-04T18:00:12Z</time>
      </trkpt>
      <trkpt lat="43.44701" lon="16.79915">
        <ele>17.018</ele>
        <time>2018-10-04T18:00:32Z</time>
      </trkpt>
      <trkpt lat="43.44696" lon="16.79928">
        <ele>17.008</ele>
        <time>2018-10-04T18:00:52Z</time>
      </trkpt>
      <trkpt lat="43.44696" lon="16.79946">
        <ele>17.075</ele>
        <time>2018-10-04T18:01:12Z</time>
      </trkpt>
      <trkpt lat="43.44696" lon="16.79954">
        <ele>17.022</ele>
        <time>2018-10-04T18:01:32Z</time>
      </trkpt>
      <trkpt lat="43.44692" lon="16.79976">
        <ele>17.065</ele>
        <time>2018-10-04T18:01:52Z</time>
      </trkpt>
      <trkpt lat="43.44682" lon="16.80004">
        <ele>17.097</ele>
        <time>2018-10-04T18:02:12Z</time>
      </trkpt>
      <trkpt lat="43.4468" lon="16.80015">
        <ele>17.075</ele>
        <time>2018-10-04T18:02:32Z</time>
      </trkpt>
      <trkpt lat="43.44675" lon="16.80041">
        <ele>17.096</ele>
        <time>2018-10-04T18:02:52Z</time>
      </trkpt>
      <trkpt lat="43.44678" lon="16.80066">
        <ele>17.086</ele>
        <time>2018-10-04T18:03:12Z</time>
      </trkpt>
      <trkpt lat="43.44677" lon="16.8009">
        <ele>18.065</ele>
        <time>2018-10-04T18:03:32Z</time>
      </trkpt>
      <trkpt lat="43.44677" lon="16.80098">
        <ele>19.091</ele>
        <time>2018-10-04T18:03:52Z</time>
      </trkpt>
      <trkpt lat="43.44676" lon="16.80106">
        <ele>19.081</ele>
        <time>2018-10-04T18:04:12Z</time>
      </trkpt>
      <trkpt lat="43.44677" lon="16.80123">
        <ele>20.019</ele>
        <time>2018-10-04T18:04:32Z</time>
      </trkpt>
      <trkpt lat="43.44673" lon="16.80158">
        <ele>21.008</ele>
        <time>2018-10-04T18:04:52Z</time>
      </trkpt>
      <trkpt lat="43.44671" lon="16.80171">
        <ele>21.011</ele>
        <time>2018-10-04T18:05:12Z</time>
      </trkpt>
      <trkpt lat="43.44671" lon="16.80177">
        <ele>21.028</ele>
        <time>2018-10-04T18:05:32Z</time>
      </trkpt>
      <trkpt lat="43.44668" lon="16.80193">
        <ele>21.071</ele>
        <time>2018-10-04T18:05:52Z</time>
      </trkpt>
      <trkpt lat="43.44656" lon="16.80214">
        <ele>21.013</ele>
        <time>2018-10-04T18:06:12Z</time>
      </trkpt>
      <trkpt lat="43.44649" lon="16.80223">
        <ele>20.061</ele>
        <time>2018-10-04T18:06:32Z</time>
      </trkpt>
      <trkpt lat="43.44641" lon="16.8023">
        <ele>20.082</ele>
        <time>2018-10-04T18:06:52Z</time>
      </trkpt>
      <trkpt lat="43.44633" lon="16.80248">
        <ele>20.072</ele>
        <time>2018-10-04T18:07:12Z</time>
      </trkpt>
      <trkpt lat="43.44618" lon="16.80275">
        <ele>21.051</ele>
        <time>2018-10-04T18:07:32Z</time>
      </trkpt>
      <trkpt lat="43.44611" lon="16.80284">
        <ele>21.023</ele>
        <time>2018-10-04T18:07:52Z</time>
      </trkpt>
      <trkpt lat="43.44597" lon="16.80299">
        <ele>22.083</ele>
        <time>2018-10-04T18:08:12Z</time>
      </trkpt>
      <trkpt lat="43.44589" lon="16.80315">
        <ele>23.011</ele>
        <time>2018-10-04T18:08:32Z</time>
      </trkpt>
      <trkpt lat="43.44585" lon="16.80334">
        <ele>23.008</ele>
        <time>2018-10-04T18:08:52Z</time>
      </trkpt>
      <trkpt lat="43.44579" lon="16.80359">
        <ele>24.054</ele>
        <time>2018-10-04T18:09:12Z</time>
      </trkpt>
      <trkpt lat="43.44576" lon="16.80372">
        <ele>25.041</ele>
        <time>2018-10-04T18:09:32Z</time>
      </trkpt>
      <trkpt lat="43.4458" lon="16.80384">
        <ele>25.034</ele>
        <time>2018-10-04T18:09:52Z</time>
      </trkpt>
      <trkpt lat="43.44581" lon="16.80407">
        <ele>26.066</ele>
        <time>2018-10-04T18:10:12Z</time>
      </trkpt>
      <trkpt lat="43.44572" lon="16.80431">
        <ele>25.024</ele>
        <time>2018-10-04T18:10:32Z</time>
      </trkpt>
      <trkpt lat="43.44565" lon="16.80447">
        <ele>24.025</ele>
        <time>2018-10-04T18:10:52Z</time>
      </trkpt>
      <trkpt lat="43.44559" lon="16.80468">
        <ele>24.065</ele>
        <time>2018-10-04T18:11:12Z</time>
      </trkpt>
      <trkpt lat="43.44555" lon="16.80478">
        <ele>26.014</ele>
        <time>2018-10-04T18:11:32Z</time>
      </trkpt>
      <trkpt lat="43.44553" lon="16.80481">
        <ele>26.048</ele>
        <time>2018-10-04T18:11:52Z</time>
      </trkpt>
      <trkpt lat="43.44551" lon="16.80488">
        <ele>27.061</ele>
        <time>2018-10-04T18:12:12Z</time>
      </trkpt>
      <trkpt lat="43.44546" lon="16.80493">
        <ele>27.017</ele>
        <time>2018-10-04T18:12:32Z</time>
      </trkpt>
      <trkpt lat="43.44543" lon="16.80499">
        <ele>28.008</ele>
        <time>2018-10-04T18:12:52Z</time>
      </trkpt>
      <trkpt lat="43.44535" lon="16.8051">
        <ele>29.056</ele>
        <time>2018-10-04T18:13:12Z</time>
      </trkpt>
      <trkpt lat="43.44535" lon="16.80517">
        <ele>29.083</ele>
        <time>2018-10-04T18:13:32Z</time>
      </trkpt>
      <trkpt lat="43.44533" lon="16.80529">
        <ele>30.086</ele>
        <time>2018-10-04T18:13:52Z</time>
      </trkpt>
      <trkpt lat="43.4453" lon="16.80533">
        <ele>30.088</ele>
        <time>2018-10-04T18:14:12Z</time>
      </trkpt>
      <trkpt lat="43.44524" lon="16.80549">
        <ele>30.096</ele>
        <time>2018-10-04T18:14:32Z</time>
      </trkpt>
      <trkpt lat="43.44524" lon="16.8055">
        <ele>30.067</ele>
        <time>2018-10-04T18:14:52Z</time>
      </trkpt>
      <trkpt lat="43.44523" lon="16.80555">
        <ele>30.087</ele>
        <time>2018-10-04T18:15:12Z</time>
      </trkpt>
      <trkpt lat="43.44526" lon="16.80556">
        <ele>30.046</ele>
        <time>2018-10-04T18:15:32Z</time>
      </trkpt>
      <trkpt lat="43.44525" lon="16.80576">
        <ele>30.063</ele>
        <time>2018-10-04T18:15:52Z</time>
      </trkpt>
      <trkpt lat="43.44523" lon="16.80588">
        <ele>31.044</ele>
        <time>2018-10-04T18:16:12Z</time>
      </trkpt>
      <trkpt lat="43.44515" lon="16.80602">
        <ele>32.018</ele>
        <time>2018-10-04T18:16:32Z</time>
      </trkpt>
      <trkpt lat="43.44513" lon="16.80608">
        <ele>32.008</ele>
        <time>2018-10-04T18:16:52Z</time>
      </trkpt>
      <trkpt lat="43.44499" lon="16.80627">
        <ele>32.028</ele>
        <time>2018-10-04T18:17:12Z</time>
      </trkpt>
      <trkpt lat="43.44496" lon="16.8065">
        <ele>31.045</ele>
        <time>2018-10-04T18:17:32Z</time>
      </trkpt>
      <trkpt lat="43.44485" lon="16.80677">
        <ele>30.058</ele>
        <time>2018-10-04T18:17:52Z</time>
      </trkpt>
      <trkpt lat="43.44482" lon="16.80687">
        <ele>30.06</ele>
        <time>2018-10-04T18:18:12Z</time>
      </trkpt>
      <trkpt lat="43.44481" lon="16.80719">
        <ele>31.088</ele>
        <time>2018-10-04T18:18:32Z</time>
      </trkpt>
      <trkpt lat="43.44481" lon="16.80734">
        <ele>31.049</ele>
        <time>2018-10-04T18:18:52Z</time>
      </trkpt>
      <trkpt lat="43.44484" lon="16.80755">
        <ele>31.089</ele>
        <time>2018-10-04T18:19:12Z</time>
      </trkpt>
      <trkpt lat="43.44487" lon="16.80764">
        <ele>31.048</ele>
        <time>2018-10-04T18:19:32Z</time>
      </trkpt>
      <trkpt lat="43.44493" lon="16.80786">
        <ele>31.046</ele>
        <time>2018-10-04T18:19:52Z</time>
      </trkpt>
      <trkpt lat="43.4449" lon="16.80812">
        <ele>32.088</ele>
        <time>2018-10-04T18:20:12Z</time>
      </trkpt>
      <trkpt lat="43.44484" lon="16.80837">
        <ele>33.016</ele>
        <time>2018-10-04T18:20:32Z</time>
      </trkpt>
      <trkpt lat="43.44477" lon="16.8086">
        <ele>32.008</ele>
        <time>2018-10-04T18:20:52Z</time>
      </trkpt>
      <trkpt lat="43.44473" lon="16.80893">
        <ele>33.076</ele>
        <time>2018-10-04T18:21:12Z</time>
      </trkpt>
      <trkpt lat="43.44474" lon="16.80909">
        <ele>32.013</ele>
        <time>2018-10-04T18:21:32Z</time>
      </trkpt>
      <trkpt lat="43.44473" lon="16.80937">
        <ele>32.086</ele>
        <time>2018-10-04T18:21:52Z</time>
      </trkpt>
      <trkpt lat="43.44468" lon="16.80964">
        <ele>32.028</ele>
        <time>2018-10-04T18:22:12Z</time>
      </trkpt>
      <trkpt lat="43.44463" lon="16.80991">
        <ele>33.076</ele>
        <time>2018-10-04T18:22:32Z</time>
      </trkpt>
      <trkpt lat="43.4446" lon="16.80999">
        <ele>34.077</ele>
        <time>2018-10-04T18:22:52Z</time>
      </trkpt>
      <trkpt lat="43.4446" lon="16.81001">
        <ele>35.057</ele>
        <time>2018-10-04T18:23:12Z</time>
      </trkpt>
      <trkpt lat="43.4446" lon="16.81015">
        <ele>35.086</ele>
        <time>2018-10-04T18:23:32Z</time>
      </trkpt>
      <trkpt lat="43.4447" lon="16.81047">
        <ele>36.045</ele>
        <time>2018-10-04T18:23:52Z</time>
      </trkpt>
      <trkpt lat="43.44471" lon="16.8105">
        <ele>36.047</ele>
        <time>2018-10-04T18:24:12Z</time>
      </trkpt>
      <trkpt lat="43.44464" lon="16.81084">
        <ele>37.011</ele>
        <time>2018-10-04T18:24:32Z</time>
      </trkpt>
      <trkpt lat="43.44462" lon="16.81089">
        <ele>37.008</ele>
        <time>2018-10-04T18:24:52Z</time>
      </trkpt>
      <trkpt lat="43.44454" lon="16.81098">
        <ele>39.056</ele>
        <time>2018-10-04T18:25:12Z</time>
      </trkpt>
      <trkpt lat="43.44452" lon="16.81109">
        <ele>39.083</ele>
        <time>2018-10-04T18:25:32Z</time>
      </trkpt>
      <trkpt lat="43.44451" lon="16.81113">
        <ele>40.076</ele>
        <time>2018-10-04T18:25:52Z</time>
      </trkpt>
      <trkpt lat="43.44449" lon="16.81138">
        <ele>42.028</ele>
        <time>2018-10-04T18:26:12Z</time>
      </trkpt>
      <trkpt lat="43.44449" lon="16.81144">
        <ele>42.096</ele>
        <time>2018-10-04T18:26:32Z</time>
      </trkpt>
      <trkpt lat="43.44445" lon="16.8116">
        <ele>43.097</ele>
        <time>2018-10-04T18:26:52Z</time>
      </trkpt>
      <trkpt lat="43.44433" lon="16.81175">
        <ele>44.087</ele>
        <time>2018-10-04T18:27:12Z</time>
      </trkpt>
      <trkpt lat="43.44429" lon="16.81182">
        <ele>45.026</ele>
        <time>2018-10-04T18:27:32Z</time>
      </trkpt>
      <trkpt lat="43.44422" lon="16.81197">
        <ele>45.032</ele>
        <time>2018-10-04T18:27:52Z</time>
      </trkpt>
      <trkpt lat="43.44414" lon="16.81221">
        <ele>45.092</ele>
        <time>2018-10-04T18:28:12Z</time>
      </trkpt>
      <trkpt lat="43.44411" lon="16.81238">
        <ele>45.011</ele>
        <time>2018-10-04T18:28:32Z</time>
      </trkpt>
      <trkpt lat="43.44411" lon="16.81251">
        <ele>46.008</ele>
        <time>2018-10-04T18:28:52Z</time>
      </trkpt>
      <trkpt lat="43.44406" lon="16.81273">
        <ele>47.085</ele>
        <time>2018-10-04T18:29:12Z</time>
      </trkpt>
      <trkpt lat="43.44396" lon="16.81299">
        <ele>46.022</ele>
        <time>2018-10-04T18:29:32Z</time>
      </trkpt>
      <trkpt lat="43.44384" lon="16.81318">
        <ele>47.045</ele>
        <time>2018-10-04T18:29:52Z</time>
      </trkpt>
      <trkpt lat="43.44378" lon="16.81337">
        <ele>48.017</ele>
        <time>2018-10-04T18:30:12Z</time>
      </trkpt>
      <trkpt lat="43.44372" lon="16.81348">
        <ele>49.055</ele>
        <time>2018-10-04T18:30:32Z</time>
      </trkpt>
      <trkpt lat="43.44368" lon="16.81359">
        <ele>50.086</ele>
        <time>2018-10-04T18:30:52Z</time>
      </trkpt>
      <trkpt lat="43.44358" lon="16.81386">
        <ele>51.046</ele>
        <time>2018-10-04T18:31:12Z</time>
      </trkpt>
      <trkpt lat="43.44357" lon="16.81389">
        <ele>51.025</ele>
        <time>2018-10-04T18:31:32Z</time>
      </trkpt>
      <trkpt lat="43.44353" lon="16.81414">
        <ele>51.068</ele>
        <time>2018-10-04T18:31:52Z</time>
      </trkpt>
      <trkpt lat="43.44349" lon="16.81433">
        <ele>51.042</ele>
        <time>2018-10-04T18:32:12Z</time>
      </trkpt>
      <trkpt lat="43.44345" lon="16.8146">
        <ele>52.026</ele>
        <time>2018-10-04T18:32:32Z</time>
      </trkpt>
      <trkpt lat="43.44344" lon="16.81476">
        <ele>53.008</ele>
        <time>2018-10-04T18:32:52Z</time>
      </trkpt>
      <trkpt lat="43.44335" lon="16.81508">
        <ele>54.048</ele>
        <time>2018-10-04T18:33:12Z</time>
      </trkpt>
      <trkpt lat="43.44324" lon="16.81532">
        <ele>54.025</ele>
        <time>2018-10-04T18:33:32Z</time>
      </trkpt>
      <trkpt lat="43.44317" lon="16.81539">
        <ele>55.088</ele>
        <time>2018-10-04T18:33:52Z</time>
      </trkpt>
      <trkpt lat="43.443" lon="16.81523">
        <ele>51.01</ele>
        <time>2018-10-04T18:34:12Z</time>
      </trkpt>
      <trkpt lat="43.44292" lon="16.81514">
        <ele>49.098</ele>
        <time>2018-10-04T18:34:32Z</time>
      </trkpt>
      <trkpt lat="43.44284" lon="16.81499">
        <ele>47.029</ele>
        <time>2018-10-04T18:34:52Z</time>
      </trkpt>
      <trkpt lat="43.4428" lon="16.81491">
        <ele>46.019</ele>
        <time>2018-10-04T18:35:12Z</time>
      </trkpt>
      <trkpt lat="43.44276" lon="16.81482">
        <ele>45.068</ele>
        <time>2018-10-04T18:35:32Z</time>
      </trkpt>
      <trkpt lat="43.44273" lon="16.81469">
        <ele>43.021</ele>
        <time>2018-10-04T18:35:52Z</time>
      </trkpt>
      <trkpt lat="43.44272" lon="16.81459">
        <ele>42.041</ele>
        <time>2018-10-04T18:36:12Z</time>
      </trkpt>
      <trkpt lat="43.44267" lon="16.81447">
        <ele>41.005</ele>
        <time>2018-10-04T18:36:32Z</time>
      </trkpt>
      <trkpt lat="43.44259" lon="16.81442">
        <ele>39.008</ele>
        <time>2018-10-04T18:36:52Z</time>
      </trkpt>
      <trkpt lat="43.44249" lon="16.81437">
        <ele>38.094</ele>
        <time>2018-10-04T18:37:12Z</time>
      </trkpt>
      <trkpt lat="43.44234" lon="16.81423">
        <ele>37.051</ele>
        <time>2018-10-04T18:37:32Z</time>
      </trkpt>
      <trkpt lat="43.44225" lon="16.81401">
        <ele>37.084</ele>
        <time>2018-10-04T18:37:52Z</time>
      </trkpt>
      <trkpt lat="43.44218" lon="16.81375">
        <ele>37.046</ele>
        <time>2018-10-04T18:38:12Z</time>
      </trkpt>
      <trkpt lat="43.44214" lon="16.8135">
        <ele>36.064</ele>
        <time>2018-10-04T18:38:32Z</time>
      </trkpt>
      <trkpt lat="43.44214" lon="16.81333">
        <ele>35.065</ele>
        <time>2018-10-04T18:38:52Z</time>
      </trkpt>
      <trkpt lat="43.44214" lon="16.8133">
        <ele>35.095</ele>
        <time>2018-10-04T18:39:12Z</time>
      </trkpt>
      <trkpt lat="43.44201" lon="16.81314">
        <ele>34.084</ele>
        <time>2018-10-04T18:39:32Z</time>
      </trkpt>
      <trkpt lat="43.44183" lon="16.81305">
        <ele>34.041</ele>
        <time>2018-10-04T18:39:52Z</time>
      </trkpt>
      <trkpt lat="43.44177" lon="16.81301">
        <ele>33.081</ele>
        <time>2018-10-04T18:40:12Z</time>
      </trkpt>
      <trkpt lat="43.44162" lon="16.81295">
        <ele>32.009</ele>
        <time>2018-10-04T18:40:32Z</time>
      </trkpt>
      <trkpt lat="43.44147" lon="16.81304">
        <ele>31.008</ele>
        <time>2018-10-04T18:40:52Z</time>
      </trkpt>
      <trkpt lat="43.44129" lon="16.81314">
        <ele>31.086</ele>
        <time>2018-10-04T18:41:12Z</time>
      </trkpt>
      <trkpt lat="43.44112" lon="16.81326">
        <ele>32.063</ele>
        <time>2018-10-04T18:41:32Z</time>
      </trkpt>
      <trkpt lat="43.44105" lon="16.8133">
        <ele>32.056</ele>
        <time>2018-10-04T18:41:52Z</time>
      </trkpt>
      <trkpt lat="43.44087" lon="16.8134">
        <ele>32.078</ele>
        <time>2018-10-04T18:42:12Z</time>
      </trkpt>
      <trkpt lat="43.44078" lon="16.81349">
        <ele>33.066</ele>
        <time>2018-10-04T18:42:32Z</time>
      </trkpt>
      <trkpt lat="43.44061" lon="16.81363">
        <ele>33.027</ele>
        <time>2018-10-04T18:42:52Z</time>
      </trkpt>
      <trkpt lat="43.44049" lon="16.8137">
        <ele>34.077</ele>
        <time>2018-10-04T18:43:12Z</time>
      </trkpt>
      <trkpt lat="43.44036" lon="16.81379">
        <ele>35.076</ele>
        <time>2018-10-04T18:43:32Z</time>
      </trkpt>
      <trkpt lat="43.44017" lon="16.81388">
        <ele>35.057</ele>
        <time>2018-10-04T18:43:52Z</time>
      </trkpt>
      <trkpt lat="43.43999" lon="16.81394">
        <ele>35</ele>
        <time>2018-10-04T18:44:12Z</time>
      </trkpt>
      <trkpt lat="43.43985" lon="16.81413">
        <ele>35.02</ele>
        <time>2018-10-04T18:44:32Z</time>
      </trkpt>
      <trkpt lat="43.43976" lon="16.8143">
        <ele>36.008</ele>
        <time>2018-10-04T18:44:52Z</time>
      </trkpt>
      <trkpt lat="43.43959" lon="16.81444">
        <ele>37.047</ele>
        <time>2018-10-04T18:45:12Z</time>
      </trkpt>
      <trkpt lat="43.43944" lon="16.81462">
        <ele>37.034</ele>
        <time>2018-10-04T18:45:32Z</time>
      </trkpt>
      <trkpt lat="43.43929" lon="16.81479">
        <ele>37.037</ele>
        <time>2018-10-04T18:45:52Z</time>
      </trkpt>
      <trkpt lat="43.43913" lon="16.81496">
        <ele>37.079</ele>
        <time>2018-10-04T18:46:12Z</time>
      </trkpt>
      <trkpt lat="43.43898" lon="16.8151">
        <ele>37.087</ele>
        <time>2018-10-04T18:46:32Z</time>
      </trkpt>
      <trkpt lat="43.43879" lon="16.81531">
        <ele>37.078</ele>
        <time>2018-10-04T18:46:52Z</time>
      </trkpt>
      <trkpt lat="43.43865" lon="16.81547">
        <ele>38.088</ele>
        <time>2018-10-04T18:47:12Z</time>
      </trkpt>
      <trkpt lat="43.43851" lon="16.81565">
        <ele>37.087</ele>
        <time>2018-10-04T18:47:32Z</time>
      </trkpt>
      <trkpt lat="43.43839" lon="16.81598">
        <ele>38.077</ele>
        <time>2018-10-04T18:47:52Z</time>
      </trkpt>
      <trkpt lat="43.43831" lon="16.81619">
        <ele>39.061</ele>
        <time>2018-10-04T18:48:12Z</time>
      </trkpt>
      <trkpt lat="43.43821" lon="16.81643">
        <ele>38.027</ele>
        <time>2018-10-04T18:48:32Z</time>
      </trkpt>
      <trkpt lat="43.43807" lon="16.81666">
        <ele>39.008</ele>
        <time>2018-10-04T18:48:52Z</time>
      </trkpt>
      <trkpt lat="43.43795" lon="16.81683">
        <ele>39.099</ele>
        <time>2018-10-04T18:49:12Z</time>
      </trkpt>
      <trkpt lat="43.43786" lon="16.81696">
        <ele>39.026</ele>
        <time>2018-10-04T18:49:32Z</time>
      </trkpt>
      <trkpt lat="43.43772" lon="16.81715">
        <ele>40.029</ele>
        <time>2018-10-04T18:49:52Z</time>
      </trkpt>
      <trkpt lat="43.43758" lon="16.81731">
        <ele>40.071</ele>
        <time>2018-10-04T18:50:12Z</time>
      </trkpt>
      <trkpt lat="43.43745" lon="16.8175">
        <ele>39.059</ele>
        <time>2018-10-04T18:50:32Z</time>
      </trkpt>
      <trkpt lat="43.43734" lon="16.81773">
        <ele>39.03</ele>
        <time>2018-10-04T18:50:52Z</time>
      </trkpt>
      <trkpt lat="43.43725" lon="16.81797">
        <ele>39.09</ele>
        <time>2018-10-04T18:51:12Z</time>
      </trkpt>
      <trkpt lat="43.43718" lon="16.81818">
        <ele>38.099</ele>
        <time>2018-10-04T18:51:32Z</time>
      </trkpt>
      <trkpt lat="43.43713" lon="16.81841">
        <ele>37.013</ele>
        <time>2018-10-04T18:51:52Z</time>
      </trkpt>
      <trkpt lat="43.43707" lon="16.81861">
        <ele>36.043</ele>
        <time>2018-10-04T18:52:12Z</time>
      </trkpt>
      <trkpt lat="43.437" lon="16.81877">
        <ele>35.007</ele>
        <time>2018-10-04T18:52:32Z</time>
      </trkpt>
      <trkpt lat="43.43695" lon="16.81886">
        <ele>33.008</ele>
        <time>2018-10-04T18:52:52Z</time>
      </trkpt>
      <trkpt lat="43.43691" lon="16.81897">
        <ele>32.033</ele>
        <time>2018-10-04T18:53:12Z</time>
      </trkpt>
      <trkpt lat="43.43687" lon="16.81912">
        <ele>31.03</ele>
        <time>2018-10-04T18:53:32Z</time>
      </trkpt>
      <trkpt lat="43.43681" lon="16.81937">
        <ele>30.093</ele>
        <time>2018-10-04T18:53:52Z</time>
      </trkpt>
      <trkpt lat="43.4367" lon="16.81958">
        <ele>29.025</ele>
        <time>2018-10-04T18:54:12Z</time>
      </trkpt>
      <trkpt lat="43.43669" lon="16.81976">
        <ele>29.093</ele>
        <time>2018-10-04T18:54:32Z</time>
      </trkpt>
      <trkpt lat="43.43668" lon="16.8199">
        <ele>28.014</ele>
        <time>2018-10-04T18:54:52Z</time>
      </trkpt>
      <trkpt lat="43.4366" lon="16.82013">
        <ele>28.034</ele>
        <time>2018-10-04T18:55:12Z</time>
      </trkpt>
      <trkpt lat="43.43652" lon="16.82036">
        <ele>28.063</ele>
        <time>2018-10-04T18:55:32Z</time>
      </trkpt>
      <trkpt lat="43.43647" lon="16.82064">
        <ele>28.053</ele>
        <time>2018-10-04T18:55:52Z</time>
      </trkpt>
      <trkpt lat="43.43645" lon="16.82074">
        <ele>29.004</ele>
        <time>2018-10-04T18:56:12Z</time>
      </trkpt>
      <trkpt lat="43.43642" lon="16.82081">
        <ele>29.014</ele>
        <time>2018-10-04T18:56:32Z</time>
      </trkpt>
      <trkpt lat="43.43638" lon="16.82096">
        <ele>30.008</ele>
        <time>2018-10-04T18:56:52Z</time>
      </trkpt>
      <trkpt lat="43.43638" lon="16.82102">
        <ele>31.027</ele>
        <time>2018-10-04T18:57:12Z</time>
      </trkpt>
      <trkpt lat="43.43637" lon="16.82107">
        <ele>31.054</ele>
        <time>2018-10-04T18:57:32Z</time>
      </trkpt>
      <trkpt lat="43.43637" lon="16.82115">
        <ele>32.047</ele>
        <time>2018-10-04T18:57:52Z</time>
      </trkpt>
      <trkpt lat="43.43636" lon="16.82122">
        <ele>33.049</ele>
        <time>2018-10-04T18:58:12Z</time>
      </trkpt>
      <trkpt lat="43.43627" lon="16.82144">
        <ele>34.027</ele>
        <time>2018-10-04T18:58:32Z</time>
      </trkpt>
      <trkpt lat="43.43621" lon="16.82153">
        <ele>34.018</ele>
        <time>2018-10-04T18:58:52Z</time>
      </trkpt>
      <trkpt lat="43.43614" lon="16.82171">
        <ele>35.058</ele>
        <time>2018-10-04T18:59:12Z</time>
      </trkpt>
      <trkpt lat="43.43611" lon="16.82178">
        <ele>35.047</ele>
        <time>2018-10-04T18:59:32Z</time>
      </trkpt>
      <trkpt lat="43.4361" lon="16.82185">
        <ele>36.044</ele>
        <time>2018-10-04T18:59:52Z</time>
      </trkpt>
      <trkpt lat="43.43608" lon="16.822">
        <ele>37.005</ele>
        <time>2018-10-04T19:00:12Z</time>
      </trkpt>
      <trkpt lat="43.43609" lon="16.82215">
        <ele>38.015</ele>
        <time>2018-10-04T19:00:32Z</time>
      </trkpt>
      <trkpt lat="43.43609" lon="16.82219">
        <ele>38.008</ele>
        <time>2018-10-04T19:00:52Z</time>
      </trkpt>
      <trkpt lat="43.43608" lon="16.82232">
        <ele>37.026</ele>
        <time>2018-10-04T19:01:12Z</time>
      </trkpt>
      <trkpt lat="43.43603" lon="16.82258">
        <ele>36.013</ele>
        <time>2018-10-04T19:01:32Z</time>
      </trkpt>
      <trkpt lat="43.43598" lon="16.82289">
        <ele>36.036</ele>
        <time>2018-10-04T19:01:52Z</time>
      </trkpt>
      <trkpt lat="43.43598" lon="16.823">
        <ele>36.048</ele>
        <time>2018-10-04T19:02:12Z</time>
      </trkpt>
      <trkpt lat="43.43591" lon="16.82313">
        <ele>36.026</ele>
        <time>2018-10-04T19:02:32Z</time>
      </trkpt>
      <trkpt lat="43.43582" lon="16.82337">
        <ele>35.077</ele>
        <time>2018-10-04T19:02:52Z</time>
      </trkpt>
      <trkpt lat="43.43579" lon="16.82347">
        <ele>35.017</ele>
        <time>2018-10-04T19:03:12Z</time>
      </trkpt>
      <trkpt lat="43.43575" lon="16.82363">
        <ele>34.066</ele>
        <time>2018-10-04T19:03:32Z</time>
      </trkpt>
      <trkpt lat="43.43571" lon="16.82385">
        <ele>33.041</ele>
        <time>2018-10-04T19:03:52Z</time>
      </trkpt>
      <trkpt lat="43.43572" lon="16.82387">
        <ele>33.081</ele>
        <time>2018-10-04T19:04:12Z</time>
      </trkpt>
      <trkpt lat="43.43571" lon="16.82384">
        <ele>33.009</ele>
        <time>2018-10-04T19:04:32Z</time>
      </trkpt>
      <trkpt lat="43.43578" lon="16.82379">
        <ele>35.008</ele>
        <time>2018-10-04T19:04:52Z</time>
      </trkpt>
      <trkpt lat="43.43582" lon="16.8238">
        <ele>36.056</ele>
        <time>2018-10-04T19:05:12Z</time>
      </trkpt>
      <trkpt lat="43.43583" lon="16.82382">
        <ele>36.033</ele>
        <time>2018-10-04T19:05:32Z</time>
      </trkpt>
      <trkpt lat="43.43587" lon="16.82385">
        <ele>37.086</ele>
        <time>2018-10-04T19:05:52Z</time>
      </trkpt>
      <trkpt lat="43.43589" lon="16.82387">
        <ele>38.078</ele>
        <time>2018-10-04T19:06:12Z</time>
      </trkpt>
      <trkpt lat="43.4359" lon="16.82388">
        <ele>39.046</ele>
        <time>2018-10-04T19:06:32Z</time>
      </trkpt>
      <trkpt lat="43.43593" lon="16.82394">
        <ele>40.097</ele>
        <time>2018-10-04T19:06:52Z</time>
      </trkpt>
      <trkpt lat="43.43594" lon="16.82398">
        <ele>41.087</ele>
        <time>2018-10-04T19:07:12Z</time>
      </trkpt>
      <trkpt lat="43.43595" lon="16.82401">
        <ele>41.096</ele>
        <time>2018-10-04T19:07:32Z</time>
      </trkpt>
      <trkpt lat="43.43595" lon="16.82403">
        <ele>42.072</ele>
        <time>2018-10-04T19:07:52Z</time>
      </trkpt>
      <trkpt lat="43.43601" lon="16.82408">
        <ele>43.013</ele>
        <time>2018-10-04T19:08:12Z</time>
      </trkpt>
      <trkpt lat="43.43603" lon="16.82411">
        <ele>44.014</ele>
        <time>2018-10-04T19:08:32Z</time>
      </trkpt>
      <trkpt lat="43.43609" lon="16.82414">
        <ele>45.008</ele>
        <time>2018-10-04T19:08:52Z</time>
      </trkpt>
      <trkpt lat="43.43611" lon="16.82414">
        <ele>45.079</ele>
        <time>2018-10-04T19:09:12Z</time>
      </trkpt>
      <trkpt lat="43.43614" lon="16.82415">
        <ele>46.066</ele>
        <time>2018-10-04T19:09:32Z</time>
      </trkpt>
      <trkpt lat="43.43615" lon="16.82416">
        <ele>46.049</ele>
        <time>2018-10-04T19:09:52Z</time>
      </trkpt>
      <trkpt lat="43.43616" lon="16.82416">
        <ele>47.081</ele>
        <time>2018-10-04T19:10:12Z</time>
      </trkpt>
      <trkpt lat="43.43618" lon="16.82416">
        <ele>47.019</ele>
        <time>2018-10-04T19:10:32Z</time>
      </trkpt>
      <trkpt lat="43.43618" lon="16.8241">
        <ele>49.09</ele>
        <time>2018-10-04T19:10:52Z</time>
      </trkpt>
      <trkpt lat="43.43615" lon="16.82401">
        <ele>50.05</ele>
        <time>2018-10-04T19:11:12Z</time>
      </trkpt>
      <trkpt lat="43.43613" lon="16.824">
        <ele>51.069</ele>
        <time>2018-10-04T19:11:32Z</time>
      </trkpt>
      <trkpt lat="43.4361" lon="16.82399">
        <ele>51.084</ele>
        <time>2018-10-04T19:11:52Z</time>
      </trkpt>
      <trkpt lat="43.4361" lon="16.8239">
        <ele>53.007</ele>
        <time>2018-10-04T19:12:12Z</time>
      </trkpt>
      <trkpt lat="43.43608" lon="16.82388">
        <ele>53.017</ele>
        <time>2018-10-04T19:12:32Z</time>
      </trkpt>
      <trkpt lat="43.43607" lon="16.82386">
        <ele>54.008</ele>
        <time>2018-10-04T19:12:52Z</time>
      </trkpt>
      <trkpt lat="43.43608" lon="16.82383">
        <ele>55.06</ele>
        <time>2018-10-04T19:13:12Z</time>
      </trkpt>
      <trkpt lat="43.43614" lon="16.82384">
        <ele>57.087</ele>
        <time>2018-10-04T19:13:32Z</time>
      </trkpt>
      <trkpt lat="43.43621" lon="16.82388">
        <ele>58.05</ele>
        <time>2018-10-04T19:13:52Z</time>
      </trkpt>
      <trkpt lat="43.43627" lon="16.82393">
        <ele>59.052</ele>
        <time>2018-10-04T19:14:12Z</time>
      </trkpt>
      <trkpt lat="43.43627" lon="16.82395">
        <ele>59.03</ele>
        <time>2018-10-04T19:14:32Z</time>
      </trkpt>
      <trkpt lat="43.4363" lon="16.82397">
        <ele>60.031</ele>
        <time>2018-10-04T19:14:52Z</time>
      </trkpt>
      <trkpt lat="43.4363" lon="16.82395">
        <ele>60.011</ele>
        <time>2018-10-04T19:15:12Z</time>
      </trkpt>
      <trkpt lat="43.43627" lon="16.82387">
        <ele>62.02</ele>
        <time>2018-10-04T19:15:32Z</time>
      </trkpt>
      <trkpt lat="43.43624" lon="16.82381">
        <ele>62.043</ele>
        <time>2018-10-04T19:15:52Z</time>
      </trkpt>
      <trkpt lat="43.43621" lon="16.82374">
        <ele>63.064</ele>
        <time>2018-10-04T19:16:12Z</time>
      </trkpt>
      <trkpt lat="43.43619" lon="16.82369">
        <ele>63.01</ele>
        <time>2018-10-04T19:16:32Z</time>
      </trkpt>
      <trkpt lat="43.43618" lon="16.82364">
        <ele>63.008</ele>
        <time>2018-10-04T19:16:52Z</time>
      </trkpt>
      <trkpt lat="43.43619" lon="16.8236">
        <ele>64.096</ele>
        <time>2018-10-04T19:17:12Z</time>
      </trkpt>
      <trkpt lat="43.4362" lon="16.82359">
        <ele>64.063</ele>
        <time>2018-10-04T19:17:32Z</time>
      </trkpt>
      <trkpt lat="43.43624" lon="16.82356">
        <ele>65.076</ele>
        <time>2018-10-04T19:17:52Z</time>
      </trkpt>
      <trkpt lat="43.43628" lon="16.82358">
        <ele>66.048</ele>
        <time>2018-10-04T19:18:12Z</time>
      </trkpt>
      <trkpt lat="43.43633" lon="16.82366">
        <ele>67.046</ele>
        <time>2018-10-04T19:18:32Z</time>
      </trkpt>
      <trkpt lat="43.4364" lon="16.82375">
        <ele>69.017</ele>
        <time>2018-10-04T19:18:52Z</time>
      </trkpt>
      <trkpt lat="43.43641" lon="16.8237">
        <ele>70.077</ele>
        <time>2018-10-04T19:19:12Z</time>
      </trkpt>
      <trkpt lat="43.43641" lon="16.82369">
        <ele>71.066</ele>
        <time>2018-10-04T19:19:32Z</time>
      </trkpt>
      <trkpt lat="43.43642" lon="16.82363">
        <ele>71.071</ele>
        <time>2018-10-04T19:19:52Z</time>
      </trkpt>
      <trkpt lat="43.43639" lon="16.82353">
        <ele>71.041</ele>
        <time>2018-10-04T19:20:12Z</time>
      </trkpt>
      <trkpt lat="43.43638" lon="16.82349">
        <ele>72.015</ele>
        <time>2018-10-04T19:20:32Z</time>
      </trkpt>
      <trkpt lat="43.43641" lon="16.82351">
        <ele>73.008</ele>
        <time>2018-10-04T19:20:52Z</time>
      </trkpt>
      <trkpt lat="43.43646" lon="16.82363">
        <ele>75.079</ele>
        <time>2018-10-04T19:21:12Z</time>
      </trkpt>
      <trkpt lat="43.43647" lon="16.8237">
        <ele>75.076</ele>
        <time>2018-10-04T19:21:32Z</time>
      </trkpt>
      <trkpt lat="43.4365" lon="16.82374">
        <ele>76.029</ele>
        <time>2018-10-04T19:21:52Z</time>
      </trkpt>
      <trkpt lat="43.43652" lon="16.82376">
        <ele>76.051</ele>
        <time>2018-10-04T19:22:12Z</time>
      </trkpt>
      <trkpt lat="43.43653" lon="16.82377">
        <ele>76.039</ele>
        <time>2018-10-04T19:22:32Z</time>
      </trkpt>
      <trkpt lat="43.43655" lon="16.82377">
        <ele>76.04</ele>
        <time>2018-10-04T19:22:52Z</time>
      </trkpt>
      <trkpt lat="43.43657" lon="16.82374">
        <ele>77.09</ele>
        <time>2018-10-04T19:23:12Z</time>
      </trkpt>
      <trkpt lat="43.43656" lon="16.82367">
        <ele>78.069</ele>
        <time>2018-10-04T19:23:32Z</time>
      </trkpt>
      <trkpt lat="43.43656" lon="16.82363">
        <ele>79.077</ele>
        <time>2018-10-04T19:23:52Z</time>
      </trkpt>
      <trkpt lat="43.43657" lon="16.82357">
        <ele>80.061</ele>
        <time>2018-10-04T19:24:12Z</time>
      </trkpt>
      <trkpt lat="43.43658" lon="16.82356">
        <ele>80.027</ele>
        <time>2018-10-04T19:24:32Z</time>
      </trkpt>
      <trkpt lat="43.4366" lon="16.82352">
        <ele>81.008</ele>
        <time>2018-10-04T19:24:52Z</time>
      </trkpt>
      <trkpt lat="43.43662" lon="16.82352">
        <ele>82.059</ele>
        <time>2018-10-04T19:25:12Z</time>
      </trkpt>
      <trkpt lat="43.43663" lon="16.82361">
        <ele>84.066</ele>
        <time>2018-10-04T19:25:32Z</time>
      </trkpt>
      <trkpt lat="43.43664" lon="16.82366">
        <ele>84.099</ele>
        <time>2018-10-04T19:25:52Z</time>
      </trkpt>
      <trkpt lat="43.43666" lon="16.82374">
        <ele>85.081</ele>
        <time>2018-10-04T19:26:12Z</time>
      </trkpt>
      <trkpt lat="43.43668" lon="16.82387">
        <ele>88.099</ele>
        <time>2018-10-04T19:26:32Z</time>
      </trkpt>
      <trkpt lat="43.43669" lon="16.82391">
        <ele>89.09</ele>
        <time>2018-10-04T19:26:52Z</time>
      </trkpt>
      <trkpt lat="43.43672" lon="16.82394">
        <ele>90.06</ele>
        <time>2018-10-04T19:27:12Z</time>
      </trkpt>
      <trkpt lat="43.43679" lon="16.824">
        <ele>92.089</ele>
        <time>2018-10-04T19:27:32Z</time>
      </trkpt>
      <trkpt lat="43.43684" lon="16.82409">
        <ele>94.094</ele>
        <time>2018-10-04T19:27:52Z</time>
      </trkpt>
      <trkpt lat="43.43684" lon="16.82415">
        <ele>95.057</ele>
        <time>2018-10-04T19:28:12Z</time>
      </trkpt>
      <trkpt lat="43.43683" lon="16.82419">
        <ele>96.022</ele>
        <time>2018-10-04T19:28:32Z</time>
      </trkpt>
      <trkpt lat="43.43686" lon="16.82423">
        <ele>97.008</ele>
        <time>2018-10-04T19:28:52Z</time>
      </trkpt>
      <trkpt lat="43.43688" lon="16.82424">
        <ele>98.051</ele>
        <time>2018-10-04T19:29:12Z</time>
      </trkpt>
      <trkpt lat="43.4369" lon="16.82424">
        <ele>99.058</ele>
        <time>2018-10-04T19:29:32Z</time>
      </trkpt>
      <trkpt lat="43.43692" lon="16.8242">
        <ele>100.011</ele>
        <time>2018-10-04T19:29:52Z</time>
      </trkpt>
      <trkpt lat="43.43696" lon="16.8242">
        <ele>102.043</ele>
        <time>2018-10-04T19:30:12Z</time>
      </trkpt>
      <trkpt lat="43.43705" lon="16.82426">
        <ele>105.081</ele>
        <time>2018-10-04T19:30:32Z</time>
      </trkpt>
      <trkpt lat="43.4371" lon="16.82433">
        <ele>107.092</ele>
        <time>2018-10-04T19:30:52Z</time>
      </trkpt>
      <trkpt lat="43.43715" lon="16.82439">
        <ele>109.022</ele>
        <time>2018-10-04T19:31:12Z</time>
      </trkpt>
      <trkpt lat="43.43719" lon="16.82443">
        <ele>111.081</ele>
        <time>2018-10-04T19:31:32Z</time>
      </trkpt>
      <trkpt lat="43.43724" lon="16.82446">
        <ele>113.098</ele>
        <time>2018-10-04T19:31:52Z</time>
      </trkpt>
      <trkpt lat="43.43726" lon="16.82446">
        <ele>115.015</ele>
        <time>2018-10-04T19:32:12Z</time>
      </trkpt>
      <trkpt lat="43.43731" lon="16.82446">
        <ele>116.026</ele>
        <time>2018-10-04T19:32:32Z</time>
      </trkpt>
      <trkpt lat="43.4374" lon="16.82448">
        <ele>117.008</ele>
        <time>2018-10-04T19:32:52Z</time>
      </trkpt>
      <trkpt lat="43.43743" lon="16.82448">
        <ele>118.021</ele>
        <time>2018-10-04T19:33:12Z</time>
      </trkpt>
      <trkpt lat="43.43743" lon="16.82455">
        <ele>119.058</ele>
        <time>2018-10-04T19:33:32Z</time>
      </trkpt>
      <trkpt lat="43.43742" lon="16.82484">
        <ele>116.051</ele>
        <time>2018-10-04T19:33:52Z</time>
      </trkpt>
      <trkpt lat="43.43742" lon="16.82492">
        <ele>115.043</ele>
        <time>2018-10-04T19:34:12Z</time>
      </trkpt>
      <trkpt lat="43.43746" lon="16.82507">
        <ele>114.021</ele>
        <time>2018-10-04T19:34:32Z</time>
      </trkpt>
      <trkpt lat="43.43753" lon="16.82523">
        <ele>113.082</ele>
        <time>2018-10-04T19:34:52Z</time>
      </trkpt>
      <trkpt lat="43.43754" lon="16.82537">
        <ele>114.032</ele>
        <time>2018-10-04T19:35:12Z</time>
      </trkpt>
      <trkpt lat="43.43756" lon="16.82544">
        <ele>115.091</ele>
        <time>2018-10-04T19:35:32Z</time>
      </trkpt>
      <trkpt lat="43.43757" lon="16.82547">
        <ele>115.094</ele>
        <time>2018-10-04T19:35:52Z</time>
      </trkpt>
      <trkpt lat="43.43755" lon="16.82552">
        <ele>116.057</ele>
        <time>2018-10-04T19:36:12Z</time>
      </trkpt>
      <trkpt lat="43.43754" lon="16.82556">
        <ele>117.022</ele>
        <time>2018-10-04T19:36:32Z</time>
      </trkpt>
      <trkpt lat="43.43753" lon="16.82562">
        <ele>118.008</ele>
        <time>2018-10-04T19:36:52Z</time>
      </trkpt>
      <trkpt lat="43.43753" lon="16.82568">
        <ele>119.071</ele>
        <time>2018-10-04T19:37:12Z</time>
      </trkpt>
      <trkpt lat="43.43751" lon="16.82577">
        <ele>119.058</ele>
        <time>2018-10-04T19:37:32Z</time>
      </trkpt>
      <trkpt lat="43.4375" lon="16.82605">
        <ele>120.091</ele>
        <time>2018-10-04T19:37:52Z</time>
      </trkpt>
      <trkpt lat="43.4375" lon="16.82614">
        <ele>120.013</ele>
        <time>2018-10-04T19:38:12Z</time>
      </trkpt>
      <trkpt lat="43.43749" lon="16.8263">
        <ele>121.031</ele>
        <time>2018-10-04T19:38:32Z</time>
      </trkpt>
      <trkpt lat="43.43749" lon="16.82634">
        <ele>121.012</ele>
        <time>2018-10-04T19:38:52Z</time>
      </trkpt>
      <trkpt lat="43.43748" lon="16.82645">
        <ele>122.062</ele>
        <time>2018-10-04T19:39:12Z</time>
      </trkpt>
      <trkpt lat="43.43748" lon="16.82662">
        <ele>123.041</ele>
        <time>2018-10-04T19:39:32Z</time>
      </trkpt>
      <trkpt lat="43.43753" lon="16.82672">
        <ele>123.011</ele>
        <time>2018-10-04T19:39:52Z</time>
      </trkpt>
      <trkpt lat="43.43755" lon="16.82675">
        <ele>124.021</ele>
        <time>2018-10-04T19:40:12Z</time>
      </trkpt>
      <trkpt lat="43.43756" lon="16.82679">
        <ele>124.003</ele>
        <time>2018-10-04T19:40:32Z</time>
      </trkpt>
      <trkpt lat="43.43758" lon="16.82683">
        <ele>125.008</ele>
        <time>2018-10-04T19:40:52Z</time>
      </trkpt>
      <trkpt lat="43.4376" lon="16.82687">
        <ele>126.083</ele>
        <time>2018-10-04T19:41:12Z</time>
      </trkpt>
      <trkpt lat="43.43761" lon="16.82688">
        <ele>126.06</ele>
        <time>2018-10-04T19:41:32Z</time>
      </trkpt>
      <trkpt lat="43.43763" lon="16.82691">
        <ele>127.053</ele>
        <time>2018-10-04T19:41:52Z</time>
      </trkpt>
      <trkpt lat="43.43764" lon="16.82692">
        <ele>127.025</ele>
        <time>2018-10-04T19:42:12Z</time>
      </trkpt>
      <trkpt lat="43.43766" lon="16.82694">
        <ele>128.053</ele>
        <time>2018-10-04T19:42:32Z</time>
      </trkpt>
      <trkpt lat="43.4377" lon="16.827">
        <ele>129.044</ele>
        <time>2018-10-04T19:42:52Z</time>
      </trkpt>
      <trkpt lat="43.43773" lon="16.82703">
        <ele>130.024</ele>
        <time>2018-10-04T19:43:12Z</time>
      </trkpt>
      <trkpt lat="43.43779" lon="16.82706">
        <ele>133.043</ele>
        <time>2018-10-04T19:43:32Z</time>
      </trkpt>
      <trkpt lat="43.43784" lon="16.82708">
        <ele>134.099</ele>
        <time>2018-10-04T19:43:52Z</time>
      </trkpt>
      <trkpt lat="43.4379" lon="16.82708">
        <ele>135.007</ele>
        <time>2018-10-04T19:44:12Z</time>
      </trkpt>
      <trkpt lat="43.43797" lon="16.82709">
        <ele>136.027</ele>
        <time>2018-10-04T19:44:32Z</time>
      </trkpt>
      <trkpt lat="43.43802" lon="16.82711">
        <ele>137.008</ele>
        <time>2018-10-04T19:44:52Z</time>
      </trkpt>
      <trkpt lat="43.43809" lon="16.82716">
        <ele>139.011</ele>
        <time>2018-10-04T19:45:12Z</time>
      </trkpt>
      <trkpt lat="43.43811" lon="16.8272">
        <ele>139.078</ele>
        <time>2018-10-04T19:45:32Z</time>
      </trkpt>
      <trkpt lat="43.43814" lon="16.82725">
        <ele>140.031</ele>
        <time>2018-10-04T19:45:52Z</time>
      </trkpt>
      <trkpt lat="43.4382" lon="16.82737">
        <ele>142.063</ele>
        <time>2018-10-04T19:46:12Z</time>
      </trkpt>
      <trkpt lat="43.43822" lon="16.82739">
        <ele>142.011</ele>
        <time>2018-10-04T19:46:32Z</time>
      </trkpt>
      <trkpt lat="43.43837" lon="16.82757">
        <ele>144.012</ele>
        <time>2018-10-04T19:46:52Z</time>
      </trkpt>
      <trkpt lat="43.43845" lon="16.82759">
        <ele>144.072</ele>
        <time>2018-10-04T19:47:12Z</time>
      </trkpt>
      <trkpt lat="43.43852" lon="16.8276">
        <ele>145.091</ele>
        <time>2018-10-04T19:47:32Z</time>
      </trkpt>
      <trkpt lat="43.43856" lon="16.82761">
        <ele>145.079</ele>
        <time>2018-10-04T19:47:52Z</time>
      </trkpt>
      <trkpt lat="43.43867" lon="16.82775">
        <ele>145.005</ele>
        <time>2018-10-04T19:48:12Z</time>
      </trkpt>
      <trkpt lat="43.43859" lon="16.82798">
        <ele>144.025</ele>
        <time>2018-10-04T19:48:32Z</time>
      </trkpt>
      <trkpt lat="43.43847" lon="16.82819">
        <ele>144.008</ele>
        <time>2018-10-04T19:48:52Z</time>
      </trkpt>
      <trkpt lat="43.43838" lon="16.82843">
        <ele>144.089</ele>
        <time>2018-10-04T19:49:12Z</time>
      </trkpt>
      <trkpt lat="43.43827" lon="16.8286">
        <ele>143.076</ele>
        <time>2018-10-04T19:49:32Z</time>
      </trkpt>
      <trkpt lat="43.43815" lon="16.82871">
        <ele>144.039</ele>
        <time>2018-10-04T19:49:52Z</time>
      </trkpt>
      <trkpt lat="43.43814" lon="16.82874">
        <ele>145.021</ele>
        <time>2018-10-04T19:50:12Z</time>
      </trkpt>
      <trkpt lat="43.43813" lon="16.82875">
        <ele>145.049</ele>
        <time>2018-10-04T19:50:32Z</time>
      </trkpt>
      <trkpt lat="43.43812" lon="16.82878">
        <ele>147.08</ele>
        <time>2018-10-04T19:50:52Z</time>
      </trkpt>
      <trkpt lat="43.4381" lon="16.82883">
        <ele>148.05</ele>
        <time>2018-10-04T19:51:12Z</time>
      </trkpt>
      <trkpt lat="43.43809" lon="16.82884">
        <ele>149.079</ele>
        <time>2018-10-04T19:51:32Z</time>
      </trkpt>
      <trkpt lat="43.43808" lon="16.82887">
        <ele>149.081</ele>
        <time>2018-10-04T19:51:52Z</time>
      </trkpt>
      <trkpt lat="43.43806" lon="16.82888">
        <ele>150.061</ele>
        <time>2018-10-04T19:52:12Z</time>
      </trkpt>
      <trkpt lat="43.43804" lon="16.82892">
        <ele>151.017</ele>
        <time>2018-10-04T19:52:32Z</time>
      </trkpt>
      <trkpt lat="43.438" lon="16.82902">
        <ele>152.008</ele>
        <time>2018-10-04T19:52:52Z</time>
      </trkpt>
      <trkpt lat="43.43799" lon="16.82908">
        <ele>153.05</ele>
        <time>2018-10-04T19:53:12Z</time>
      </trkpt>
      <trkpt lat="43.43798" lon="16.82913">
        <ele>154.027</ele>
        <time>2018-10-04T19:53:32Z</time>
      </trkpt>
      <trkpt lat="43.43798" lon="16.82917">
        <ele>155.09</ele>
        <time>2018-10-04T19:53:52Z</time>
      </trkpt>
      <trkpt lat="43.43797" lon="16.82923">
        <ele>157.042</ele>
        <time>2018-10-04T19:54:12Z</time>
      </trkpt>
      <trkpt lat="43.43799" lon="16.82926">
        <ele>157.01</ele>
        <time>2018-10-04T19:54:32Z</time>
      </trkpt>
      <trkpt lat="43.43801" lon="16.82931">
        <ele>158.041</ele>
        <time>2018-10-04T19:54:52Z</time>
      </trkpt>
      <trkpt lat="43.43804" lon="16.82934">
        <ele>159.061</ele>
        <time>2018-10-04T19:55:12Z</time>
      </trkpt>
      <trkpt lat="43.43807" lon="16.8294">
        <ele>161.08</ele>
        <time>2018-10-04T19:55:32Z</time>
      </trkpt>
      <trkpt lat="43.4381" lon="16.82945">
        <ele>161.045</ele>
        <time>2018-10-04T19:55:52Z</time>
      </trkpt>
      <trkpt lat="43.43812" lon="16.82948">
        <ele>162.047</ele>
        <time>2018-10-04T19:56:12Z</time>
      </trkpt>
      <trkpt lat="43.43814" lon="16.82951">
        <ele>162.011</ele>
        <time>2018-10-04T19:56:32Z</time>
      </trkpt>
      <trkpt lat="43.43817" lon="16.82957">
        <ele>163.008</ele>
        <time>2018-10-04T19:56:52Z</time>
      </trkpt>
      <trkpt lat="43.43818" lon="16.82966">
        <ele>163.036</ele>
        <time>2018-10-04T19:57:12Z</time>
      </trkpt>
      <trkpt lat="43.43818" lon="16.82973">
        <ele>164.093</ele>
        <time>2018-10-04T19:57:32Z</time>
      </trkpt>
      <trkpt lat="43.43817" lon="16.82983">
        <ele>164.026</ele>
        <time>2018-10-04T19:57:52Z</time>
      </trkpt>
      <trkpt lat="43.43819" lon="16.82998">
        <ele>165.028</ele>
        <time>2018-10-04T19:58:12Z</time>
      </trkpt>
      <trkpt lat="43.4382" lon="16.83004">
        <ele>166.026</ele>
        <time>2018-10-04T19:58:32Z</time>
      </trkpt>
      <trkpt lat="43.4382" lon="16.83014">
        <ele>166.097</ele>
        <time>2018-10-04T19:58:52Z</time>
      </trkpt>
      <trkpt lat="43.43823" lon="16.83027">
        <ele>168.067</ele>
        <time>2018-10-04T19:59:12Z</time>
      </trkpt>
      <trkpt lat="43.43824" lon="16.8303">
        <ele>168.056</ele>
        <time>2018-10-04T19:59:32Z</time>
      </trkpt>
      <trkpt lat="43.43827" lon="16.83045">
        <ele>169.049</ele>
        <time>2018-10-04T19:59:52Z</time>
      </trkpt>
      <trkpt lat="43.4383" lon="16.83066">
        <ele>170.002</ele>
        <time>2018-10-04T20:00:12Z</time>
      </trkpt>
      <trkpt lat="43.4383" lon="16.83067">
        <ele>170.022</ele>
        <time>2018-10-04T20:00:32Z</time>
      </trkpt>
      <trkpt lat="43.43831" lon="16.83089">
        <ele>171.008</ele>
        <time>2018-10-04T20:00:52Z</time>
      </trkpt>
      <trkpt lat="43.43834" lon="16.83098">
        <ele>172.066</ele>
        <time>2018-10-04T20:01:12Z</time>
      </trkpt>
      <trkpt lat="43.43834" lon="16.83109">
        <ele>173.023</ele>
        <time>2018-10-04T20:01:32Z</time>
      </trkpt>
      <trkpt lat="43.43833" lon="16.83111">
        <ele>173.046</ele>
        <time>2018-10-04T20:01:52Z</time>
      </trkpt>
      <trkpt lat="43.43832" lon="16.83115">
        <ele>174.058</ele>
        <time>2018-10-04T20:02:12Z</time>
      </trkpt>
      <trkpt lat="43.43828" lon="16.83122">
        <ele>175.066</ele>
        <time>2018-10-04T20:02:32Z</time>
      </trkpt>
      <trkpt lat="43.43821" lon="16.8313">
        <ele>177.067</ele>
        <time>2018-10-04T20:02:52Z</time>
      </trkpt>
      <trkpt lat="43.43818" lon="16.83133">
        <ele>178.097</ele>
        <time>2018-10-04T20:03:12Z</time>
      </trkpt>
      <trkpt lat="43.43816" lon="16.83141">
        <ele>179.036</ele>
        <time>2018-10-04T20:03:32Z</time>
      </trkpt>
      <trkpt lat="43.43815" lon="16.83144">
        <ele>180.052</ele>
        <time>2018-10-04T20:03:52Z</time>
      </trkpt>
      <trkpt lat="43.43811" lon="16.83154">
        <ele>181.053</ele>
        <time>2018-10-04T20:04:12Z</time>
      </trkpt>
      <trkpt lat="43.43817" lon="16.83177">
        <ele>181.008</ele>
        <time>2018-10-04T20:04:32Z</time>
      </trkpt>
      <trkpt lat="43.43819" lon="16.83179">
        <ele>182.008</ele>
        <time>2018-10-04T20:04:52Z</time>
      </trkpt>
      <trkpt lat="43.43827" lon="16.83183">
        <ele>182.047</ele>
        <time>2018-10-04T20:05:12Z</time>
      </trkpt>
      <trkpt lat="43.43844" lon="16.83189">
        <ele>182.074</ele>
        <time>2018-10-04T20:05:32Z</time>
      </trkpt>
      <trkpt lat="43.43854" lon="16.83194">
        <ele>183.057</ele>
        <time>2018-10-04T20:05:52Z</time>
      </trkpt>
      <trkpt lat="43.43874" lon="16.83209">
        <ele>184.059</ele>
        <time>2018-10-04T20:06:12Z</time>
      </trkpt>
      <trkpt lat="43.43875" lon="16.8321">
        <ele>184.067</ele>
        <time>2018-10-04T20:06:32Z</time>
      </trkpt>
      <trkpt lat="43.43879" lon="16.83225">
        <ele>185.088</ele>
        <time>2018-10-04T20:06:52Z</time>
      </trkpt>
      <trkpt lat="43.43886" lon="16.83243">
        <ele>186.098</ele>
        <time>2018-10-04T20:07:12Z</time>
      </trkpt>
      <trkpt lat="43.43897" lon="16.83252">
        <ele>187.087</ele>
        <time>2018-10-04T20:07:32Z</time>
      </trkpt>
      <trkpt lat="43.43913" lon="16.83263">
        <ele>188.017</ele>
        <time>2018-10-04T20:07:52Z</time>
      </trkpt>
      <trkpt lat="43.43922" lon="16.83275">
        <ele>189.087</ele>
        <time>2018-10-04T20:08:12Z</time>
      </trkpt>
      <trkpt lat="43.43931" lon="16.83286">
        <ele>190.015</ele>
        <time>2018-10-04T20:08:32Z</time>
      </trkpt>
      <trkpt lat="43.43935" lon="16.83297">
        <ele>190.008</ele>
        <time>2018-10-04T20:08:52Z</time>
      </trkpt>
      <trkpt lat="43.43938" lon="16.83315">
        <ele>191.013</ele>
        <time>2018-10-04T20:09:12Z</time>
      </trkpt>
      <trkpt lat="43.43939" lon="16.83336">
        <ele>193.07</ele>
        <time>2018-10-04T20:09:32Z</time>
      </trkpt>
      <trkpt lat="43.43944" lon="16.83343">
        <ele>194.033</ele>
        <time>2018-10-04T20:09:52Z</time>
      </trkpt>
      <trkpt lat="43.43948" lon="16.83344">
        <ele>194.095</ele>
        <time>2018-10-04T20:10:12Z</time>
      </trkpt>
      <trkpt lat="43.43961" lon="16.83353">
        <ele>195.013</ele>
        <time>2018-10-04T20:10:32Z</time>
      </trkpt>
      <trkpt lat="43.43971" lon="16.83356">
        <ele>196.054</ele>
        <time>2018-10-04T20:10:52Z</time>
      </trkpt>
      <trkpt lat="43.43974" lon="16.83357">
        <ele>196.084</ele>
        <time>2018-10-04T20:11:12Z</time>
      </trkpt>
      <trkpt lat="43.43974" lon="16.83361">
        <ele>196.043</ele>
        <time>2018-10-04T20:11:32Z</time>
      </trkpt>
      <trkpt lat="43.43973" lon="16.83363">
        <ele>197.014</ele>
        <time>2018-10-04T20:11:52Z</time>
      </trkpt>
      <trkpt lat="43.43971" lon="16.83383">
        <ele>197.054</ele>
        <time>2018-10-04T20:12:12Z</time>
      </trkpt>
      <trkpt lat="43.43971" lon="16.83383">
        <ele>197.009</ele>
        <time>2018-10-04T20:12:32Z</time>
      </trkpt>
      <trkpt lat="43.4397" lon="16.83358">
        <ele>197.008</ele>
        <time>2018-10-04T20:12:52Z</time>
      </trkpt>
      <trkpt lat="43.43968" lon="16.83357">
        <ele>196.063</ele>
        <time>2018-10-04T20:13:12Z</time>
      </trkpt>
      <trkpt lat="43.43958" lon="16.83354">
        <ele>195.03</ele>
        <time>2018-10-04T20:13:32Z</time>
      </trkpt>
      <trkpt lat="43.4394" lon="16.83353">
        <ele>195.053</ele>
        <time>2018-10-04T20:13:52Z</time>
      </trkpt>
      <trkpt lat="43.43925" lon="16.83355">
        <ele>194.035</ele>
        <time>2018-10-04T20:14:12Z</time>
      </trkpt>
      <trkpt lat="43.43915" lon="16.83355">
        <ele>193.023</ele>
        <time>2018-10-04T20:14:32Z</time>
      </trkpt>
      <trkpt lat="43.43895" lon="16.83349">
        <ele>191.034</ele>
        <time>2018-10-04T20:14:52Z</time>
      </trkpt>
      <trkpt lat="43.43889" lon="16.83347">
        <ele>190.054</ele>
        <time>2018-10-04T20:15:12Z</time>
      </trkpt>
      <trkpt lat="43.43885" lon="16.83346">
        <ele>189.013</ele>
        <time>2018-10-04T20:15:32Z</time>
      </trkpt>
      <trkpt lat="43.43882" lon="16.83349">
        <ele>189.027</ele>
        <time>2018-10-04T20:15:52Z</time>
      </trkpt>
      <trkpt lat="43.43874" lon="16.83371">
        <ele>189.068</ele>
        <time>2018-10-04T20:16:12Z</time>
      </trkpt>
      <trkpt lat="43.43863" lon="16.83387">
        <ele>190.014</ele>
        <time>2018-10-04T20:16:32Z</time>
      </trkpt>
      <trkpt lat="43.43852" lon="16.83408">
        <ele>189.008</ele>
        <time>2018-10-04T20:16:52Z</time>
      </trkpt>
      <trkpt lat="43.43851" lon="16.83422">
        <ele>189.044</ele>
        <time>2018-10-04T20:17:12Z</time>
      </trkpt>
      <trkpt lat="43.4385" lon="16.83429">
        <ele>188.031</ele>
        <time>2018-10-04T20:17:32Z</time>
      </trkpt>
      <trkpt lat="43.43839" lon="16.83441">
        <ele>188.064</ele>
        <time>2018-10-04T20:17:52Z</time>
      </trkpt>
      <trkpt lat="43.4384" lon="16.83455">
        <ele>187.096</ele>
        <time>2018-10-04T20:18:12Z</time>
      </trkpt>
      <trkpt lat="43.43841" lon="16.83469">
        <ele>185.044</ele>
        <time>2018-10-04T20:18:32Z</time>
      </trkpt>
      <trkpt lat="43.43843" lon="16.83494">
        <ele>185.045</ele>
        <time>2018-10-04T20:18:52Z</time>
      </trkpt>
      <trkpt lat="43.43841" lon="16.83519">
        <ele>185.065</ele>
        <time>2018-10-04T20:19:12Z</time>
      </trkpt>
      <trkpt lat="43.43838" lon="16.83546">
        <ele>185.054</ele>
        <time>2018-10-04T20:19:32Z</time>
      </trkpt>
      <trkpt lat="43.43836" lon="16.83556">
        <ele>184.023</ele>
        <time>2018-10-04T20:19:52Z</time>
      </trkpt>
      <trkpt lat="43.43833" lon="16.83582">
        <ele>185.083</ele>
        <time>2018-10-04T20:20:12Z</time>
      </trkpt>
      <trkpt lat="43.43839" lon="16.83604">
        <ele>184.011</ele>
        <time>2018-10-04T20:20:32Z</time>
      </trkpt>
      <trkpt lat="43.43834" lon="16.83621">
        <ele>183.008</ele>
        <time>2018-10-04T20:20:52Z</time>
      </trkpt>
      <trkpt lat="43.43833" lon="16.83637">
        <ele>182.074</ele>
        <time>2018-10-04T20:21:12Z</time>
      </trkpt>
      <trkpt lat="43.43831" lon="16.83654">
        <ele>181.021</ele>
        <time>2018-10-04T20:21:32Z</time>
      </trkpt>
      <trkpt lat="43.43832" lon="16.83666">
        <ele>180.034</ele>
        <time>2018-10-04T20:21:52Z</time>
      </trkpt>
      <trkpt lat="43.43826" lon="16.83676">
        <ele>178.096</ele>
        <time>2018-10-04T20:22:12Z</time>
      </trkpt>
      <trkpt lat="43.43817" lon="16.83686">
        <ele>177.044</ele>
        <time>2018-10-04T20:22:32Z</time>
      </trkpt>
      <trkpt lat="43.43807" lon="16.83697">
        <ele>176.055</ele>
        <time>2018-10-04T20:22:52Z</time>
      </trkpt>
      <trkpt lat="43.4381" lon="16.83717">
        <ele>177.025</ele>
        <time>2018-10-04T20:23:12Z</time>
      </trkpt>
      <trkpt lat="43.43808" lon="16.83739">
        <ele>176.044</ele>
        <time>2018-10-04T20:23:32Z</time>
      </trkpt>
      <trkpt lat="43.43803" lon="16.83762">
        <ele>175.071</ele>
        <time>2018-10-04T20:23:52Z</time>
      </trkpt>
      <trkpt lat="43.43797" lon="16.83785">
        <ele>174.041</ele>
        <time>2018-10-04T20:24:12Z</time>
      </trkpt>
      <trkpt lat="43.4379" lon="16.83809">
        <ele>173.015</ele>
        <time>2018-10-04T20:24:32Z</time>
      </trkpt>
      <trkpt lat="43.43782" lon="16.83834">
        <ele>174.008</ele>
        <time>2018-10-04T20:24:52Z</time>
      </trkpt>
      <trkpt lat="43.43776" lon="16.8385">
        <ele>175.019</ele>
        <time>2018-10-04T20:25:12Z</time>
      </trkpt>
      <trkpt lat="43.43776" lon="16.83861">
        <ele>176.056</ele>
        <time>2018-10-04T20:25:32Z</time>
      </trkpt>
      <trkpt lat="43.43775" lon="16.83872">
        <ele>177.069</ele>
        <time>2018-10-04T20:25:52Z</time>
      </trkpt>
      <trkpt lat="43.43775" lon="16.83886">
        <ele>178.051</ele>
        <time>2018-10-04T20:26:12Z</time>
      </trkpt>
      <trkpt lat="43.43776" lon="16.83888">
        <ele>178.029</ele>
        <time>2018-10-04T20:26:32Z</time>
      </trkpt>
      <trkpt lat="43.43781" lon="16.83897">
        <ele>179.06</ele>
        <time>2018-10-04T20:26:52Z</time>
      </trkpt>
      <trkpt lat="43.43786" lon="16.839">
        <ele>180.05</ele>
        <time>2018-10-04T20:27:12Z</time>
      </trkpt>
      <trkpt lat="43.438" lon="16.83909">
        <ele>181.079</ele>
        <time>2018-10-04T20:27:32Z</time>
      </trkpt>
      <trkpt lat="43.43809" lon="16.83919">
        <ele>182.067</ele>
        <time>2018-10-04T20:27:52Z</time>
      </trkpt>
      <trkpt lat="43.43811" lon="16.83921">
        <ele>182.081</ele>
        <time>2018-10-04T20:28:12Z</time>
      </trkpt>
      <trkpt lat="43.43816" lon="16.8393">
        <ele>183.019</ele>
        <time>2018-10-04T20:28:32Z</time>
      </trkpt>
      <trkpt lat="43.43829" lon="16.83944">
        <ele>184.008</ele>
        <time>2018-10-04T20:28:52Z</time>
      </trkpt>
      <trkpt lat="43.43846" lon="16.83956">
        <ele>185.048</ele>
        <time>2018-10-04T20:29:12Z</time>
      </trkpt>
      <trkpt lat="43.4386" lon="16.83963">
        <ele>186.015</ele>
        <time>2018-10-04T20:29:32Z</time>
      </trkpt>
      <trkpt lat="43.43866" lon="16.83966">
        <ele>186.068</ele>
        <time>2018-10-04T20:29:52Z</time>
      </trkpt>
      <trkpt lat="43.43869" lon="16.83969">
        <ele>186.07</ele>
        <time>2018-10-04T20:30:12Z</time>
      </trkpt>
      <trkpt lat="43.43877" lon="16.83971">
        <ele>188.058</ele>
        <time>2018-10-04T20:30:32Z</time>
      </trkpt>
      <trkpt lat="43.43887" lon="16.83979">
        <ele>189.099</ele>
        <time>2018-10-04T20:30:52Z</time>
      </trkpt>
      <trkpt lat="43.43892" lon="16.83996">
        <ele>190.059</ele>
        <time>2018-10-04T20:31:12Z</time>
      </trkpt>
      <trkpt lat="43.43894" lon="16.84007">
        <ele>191.078</ele>
        <time>2018-10-04T20:31:32Z</time>
      </trkpt>
      <trkpt lat="43.43897" lon="16.84029">
        <ele>192.086</ele>
        <time>2018-10-04T20:31:52Z</time>
      </trkpt>
      <trkpt lat="43.43914" lon="16.84044">
        <ele>193.06</ele>
        <time>2018-10-04T20:32:12Z</time>
      </trkpt>
      <trkpt lat="43.43926" lon="16.84057">
        <ele>194.026</ele>
        <time>2018-10-04T20:32:32Z</time>
      </trkpt>
      <trkpt lat="43.43936" lon="16.84074">
        <ele>195.008</ele>
        <time>2018-10-04T20:32:52Z</time>
      </trkpt>
      <trkpt lat="43.43941" lon="16.84091">
        <ele>196.01</ele>
        <time>2018-10-04T20:33:12Z</time>
      </trkpt>
      <trkpt lat="43.43947" lon="16.8411">
        <ele>197.017</ele>
        <time>2018-10-04T20:33:32Z</time>
      </trkpt>
      <trkpt lat="43.43953" lon="16.84134">
        <ele>198.02</ele>
        <time>2018-10-04T20:33:52Z</time>
      </trkpt>
      <trkpt lat="43.43958" lon="16.84153">
        <ele>199.032</ele>
        <time>2018-10-04T20:34:12Z</time>
      </trkpt>
      <trkpt lat="43.4396" lon="16.84171">
        <ele>199.01</ele>
        <time>2018-10-04T20:34:32Z</time>
      </trkpt>
      <trkpt lat="43.43967" lon="16.84202">
        <ele>200.041</ele>
        <time>2018-10-04T20:34:52Z</time>
      </trkpt>
      <trkpt lat="43.43975" lon="16.84227">
        <ele>200.011</ele>
        <time>2018-10-04T20:35:12Z</time>
      </trkpt>
      <trkpt lat="43.43976" lon="16.84255">
        <ele>201.01</ele>
        <time>2018-10-04T20:35:32Z</time>
      </trkpt>
      <trkpt lat="43.43976" lon="16.84274">
        <ele>202.067</ele>
        <time>2018-10-04T20:35:52Z</time>
      </trkpt>
      <trkpt lat="43.43979" lon="16.84289">
        <ele>202.081</ele>
        <time>2018-10-04T20:36:12Z</time>
      </trkpt>
      <trkpt lat="43.43988" lon="16.84292">
        <ele>202.019</ele>
        <time>2018-10-04T20:36:32Z</time>
      </trkpt>
      <trkpt lat="43.44006" lon="16.84295">
        <ele>202.008</ele>
        <time>2018-10-04T20:36:52Z</time>
      </trkpt>
      <trkpt lat="43.44018" lon="16.84296">
        <ele>203.078</ele>
        <time>2018-10-04T20:37:12Z</time>
      </trkpt>
      <trkpt lat="43.44026" lon="16.84296">
        <ele>204.085</ele>
        <time>2018-10-04T20:37:32Z</time>
      </trkpt>
      <trkpt lat="43.44027" lon="16.84295">
        <ele>204.028</ele>
        <time>2018-10-04T20:37:52Z</time>
      </trkpt>
      <trkpt lat="43.44026" lon="16.84294">
        <ele>205.04</ele>
        <time>2018-10-04T20:38:12Z</time>
      </trkpt>
      <trkpt lat="43.4403" lon="16.843">
        <ele>205.038</ele>
        <time>2018-10-04T20:38:32Z</time>
      </trkpt>
      <trkpt lat="43.44029" lon="16.84315">
        <ele>207.099</ele>
        <time>2018-10-04T20:38:52Z</time>
      </trkpt>
      <trkpt lat="43.44027" lon="16.84326">
        <ele>208.079</ele>
        <time>2018-10-04T20:39:12Z</time>
      </trkpt>
      <trkpt lat="43.44022" lon="16.84333">
        <ele>208.038</ele>
        <time>2018-10-04T20:39:32Z</time>
      </trkpt>
      <trkpt lat="43.44016" lon="16.84336">
        <ele>208.067</ele>
        <time>2018-10-04T20:39:52Z</time>
      </trkpt>
      <trkpt lat="43.44014" lon="16.84337">
        <ele>208.081</ele>
        <time>2018-10-04T20:40:12Z</time>
      </trkpt>
      <trkpt lat="43.44012" lon="16.84345">
        <ele>209.019</ele>
        <time>2018-10-04T20:40:32Z</time>
      </trkpt>
      <trkpt lat="43.44011" lon="16.84355">
        <ele>210.008</ele>
        <time>2018-10-04T20:40:52Z</time>
      </trkpt>
      <trkpt lat="43.4401" lon="16.84358">
        <ele>210.038</ele>
        <time>2018-10-04T20:41:12Z</time>
      </trkpt>
      <trkpt lat="43.4401" lon="16.84361">
        <ele>210.085</ele>
        <time>2018-10-04T20:41:32Z</time>
      </trkpt>
      <trkpt lat="43.44013" lon="16.84362">
        <ele>210.058</ele>
        <time>2018-10-04T20:41:52Z</time>
      </trkpt>
      <trkpt lat="43.44002" lon="16.84379">
        <ele>211.02</ele>
        <time>2018-10-04T20:42:12Z</time>
      </trkpt>
      <trkpt lat="43.44003" lon="16.8439">
        <ele>211.088</ele>
        <time>2018-10-04T20:42:32Z</time>
      </trkpt>
      <trkpt lat="43.44" lon="16.844">
        <ele>212.019</ele>
        <time>2018-10-04T20:42:52Z</time>
      </trkpt>
      <trkpt lat="43.44" lon="16.84412">
        <ele>212.079</ele>
        <time>2018-10-04T20:43:12Z</time>
      </trkpt>
      <trkpt lat="43.44004" lon="16.84431">
        <ele>211.068</ele>
        <time>2018-10-04T20:43:32Z</time>
      </trkpt>
      <trkpt lat="43.44005" lon="16.84442">
        <ele>211.046</ele>
        <time>2018-10-04T20:43:52Z</time>
      </trkpt>
      <trkpt lat="43.44002" lon="16.84455">
        <ele>212.088</ele>
        <time>2018-10-04T20:44:12Z</time>
      </trkpt>
      <trkpt lat="43.44001" lon="16.84461">
        <ele>212.016</ele>
        <time>2018-10-04T20:44:32Z</time>
      </trkpt>
      <trkpt lat="43.43999" lon="16.84486">
        <ele>211.008</ele>
        <time>2018-10-04T20:44:52Z</time>
      </trkpt>
      <trkpt lat="43.43998" lon="16.84514">
        <ele>211.066</ele>
        <time>2018-10-04T20:45:12Z</time>
      </trkpt>
      <trkpt lat="43.43996" lon="16.8454">
        <ele>211.063</ele>
        <time>2018-10-04T20:45:32Z</time>
      </trkpt>
      <trkpt lat="43.43995" lon="16.84565">
        <ele>212.076</ele>
        <time>2018-10-04T20:45:52Z</time>
      </trkpt>
      <trkpt lat="43.43987" lon="16.84586">
        <ele>212.078</ele>
        <time>2018-10-04T20:46:12Z</time>
      </trkpt>
      <trkpt lat="43.43976" lon="16.84607">
        <ele>212.046</ele>
        <time>2018-10-04T20:46:32Z</time>
      </trkpt>
      <trkpt lat="43.43971" lon="16.84611">
        <ele>212.087</ele>
        <time>2018-10-04T20:46:52Z</time>
      </trkpt>
      <trkpt lat="43.4396" lon="16.84623">
        <ele>210.097</ele>
        <time>2018-10-04T20:47:12Z</time>
      </trkpt>
      <trkpt lat="43.4396" lon="16.84628">
        <ele>210.096</ele>
        <time>2018-10-04T20:47:32Z</time>
      </trkpt>
      <trkpt lat="43.43958" lon="16.84654">
        <ele>211.018</ele>
        <time>2018-10-04T20:47:52Z</time>
      </trkpt>
      <trkpt lat="43.43956" lon="16.8468">
        <ele>211.098</ele>
        <time>2018-10-04T20:48:12Z</time>
      </trkpt>
      <trkpt lat="43.43956" lon="16.84705">
        <ele>211.017</ele>
        <time>2018-10-04T20:48:32Z</time>
      </trkpt>
      <trkpt lat="43.43949" lon="16.84728">
        <ele>211.008</ele>
        <time>2018-10-04T20:48:52Z</time>
      </trkpt>
      <trkpt lat="43.43944" lon="16.84747">
        <ele>211.013</ele>
        <time>2018-10-04T20:49:12Z</time>
      </trkpt>
      <trkpt lat="43.43946" lon="16.8476">
        <ele>211.04</ele>
        <time>2018-10-04T20:49:32Z</time>
      </trkpt>
      <trkpt lat="43.43945" lon="16.84777">
        <ele>212.023</ele>
        <time>2018-10-04T20:49:52Z</time>
      </trkpt>
      <trkpt lat="43.43942" lon="16.84802">
        <ele>213.045</ele>
        <time>2018-10-04T20:50:12Z</time>
      </trkpt>
      <trkpt lat="43.43935" lon="16.84826">
        <ele>212.083</ele>
        <time>2018-10-04T20:50:32Z</time>
      </trkpt>
      <trkpt lat="43.43937" lon="16.84846">
        <ele>213.054</ele>
        <time>2018-10-04T20:50:52Z</time>
      </trkpt>
      <trkpt lat="43.43939" lon="16.84864">
        <ele>213.084</ele>
        <time>2018-10-04T20:51:12Z</time>
      </trkpt>
      <trkpt lat="43.43939" lon="16.84889">
        <ele>212.023</ele>
        <time>2018-10-04T20:51:32Z</time>
      </trkpt>
      <trkpt lat="43.43943" lon="16.84916">
        <ele>213.026</ele>
        <time>2018-10-04T20:51:52Z</time>
      </trkpt>
      <trkpt lat="43.43943" lon="16.84925">
        <ele>214.047</ele>
        <time>2018-10-04T20:52:12Z</time>
      </trkpt>
      <trkpt lat="43.43943" lon="16.84931">
        <ele>215.011</ele>
        <time>2018-10-04T20:52:32Z</time>
      </trkpt>
      <trkpt lat="43.43941" lon="16.84939">
        <ele>216.008</ele>
        <time>2018-10-04T20:52:52Z</time>
      </trkpt>
      <trkpt lat="43.43939" lon="16.84955">
        <ele>215.024</ele>
        <time>2018-10-04T20:53:12Z</time>
      </trkpt>
      <trkpt lat="43.43938" lon="16.84968">
        <ele>217.091</ele>
        <time>2018-10-04T20:53:32Z</time>
      </trkpt>
      <trkpt lat="43.43938" lon="16.84972">
        <ele>218.034</ele>
        <time>2018-10-04T20:53:52Z</time>
      </trkpt>
      <trkpt lat="43.43935" lon="16.8498">
        <ele>218.046</ele>
        <time>2018-10-04T20:54:12Z</time>
      </trkpt>
      <trkpt lat="43.43933" lon="16.84991">
        <ele>219.044</ele>
        <time>2018-10-04T20:54:32Z</time>
      </trkpt>
      <trkpt lat="43.4393" lon="16.84999">
        <ele>219.035</ele>
        <time>2018-10-04T20:54:52Z</time>
      </trkpt>
      <trkpt lat="43.43932" lon="16.85005">
        <ele>220.085</ele>
        <time>2018-10-04T20:55:12Z</time>
      </trkpt>
      <trkpt lat="43.43931" lon="16.85012">
        <ele>221.064</ele>
        <time>2018-10-04T20:55:32Z</time>
      </trkpt>
      <trkpt lat="43.43931" lon="16.85015">
        <ele>222.037</ele>
        <time>2018-10-04T20:55:52Z</time>
      </trkpt>
      <trkpt lat="43.4393" lon="16.85018">
        <ele>223.049</ele>
        <time>2018-10-04T20:56:12Z</time>
      </trkpt>
      <trkpt lat="43.4393" lon="16.85026">
        <ele>224.013</ele>
        <time>2018-10-04T20:56:32Z</time>
      </trkpt>
      <trkpt lat="43.4393" lon="16.85029">
        <ele>224.008</ele>
        <time>2018-10-04T20:56:52Z</time>
      </trkpt>
      <trkpt lat="43.43929" lon="16.85034">
        <ele>224.095</ele>
        <time>2018-10-04T20:57:12Z</time>
      </trkpt>
      <trkpt lat="43.43921" lon="16.85038">
        <ele>224.022</ele>
        <time>2018-10-04T20:57:32Z</time>
      </trkpt>
      <trkpt lat="43.43912" lon="16.85039">
        <ele>222.065</ele>
        <time>2018-10-04T20:57:52Z</time>
      </trkpt>
      <trkpt lat="43.43907" lon="16.85047">
        <ele>221.047</ele>
        <time>2018-10-04T20:58:12Z</time>
      </trkpt>
      <trkpt lat="43.43903" lon="16.85063">
        <ele>220.095</ele>
        <time>2018-10-04T20:58:32Z</time>
      </trkpt>
      <trkpt lat="43.43901" lon="16.85074">
        <ele>219.056</ele>
        <time>2018-10-04T20:58:52Z</time>
      </trkpt>
      <trkpt lat="43.43898" lon="16.85078">
        <ele>219.026</ele>
        <time>2018-10-04T20:59:12Z</time>
      </trkpt>
      <trkpt lat="43.43893" lon="16.85079">
        <ele>218.075</ele>
        <time>2018-10-04T20:59:32Z</time>
      </trkpt>
      <trkpt lat="43.43892" lon="16.8508">
        <ele>218.018</ele>
        <time>2018-10-04T20:59:52Z</time>
      </trkpt>
      <trkpt lat="43.43889" lon="16.8508">
        <ele>217.098</ele>
        <time>2018-10-04T21:00:12Z</time>
      </trkpt>
      <trkpt lat="43.43888" lon="16.85079">
        <ele>216.017</ele>
        <time>2018-10-04T21:00:32Z</time>
      </trkpt>
      <trkpt lat="43.43885" lon="16.85082">
        <ele>214.008</ele>
        <time>2018-10-04T21:00:52Z</time>
      </trkpt>
      <trkpt lat="43.43882" lon="16.85088">
        <ele>213.013</ele>
        <time>2018-10-04T21:01:12Z</time>
      </trkpt>
      <trkpt lat="43.43878" lon="16.85085">
        <ele>211.01</ele>
        <time>2018-10-04T21:01:32Z</time>
      </trkpt>
      <trkpt lat="43.43871" lon="16.85079">
        <ele>211.033</ele>
        <time>2018-10-04T21:01:52Z</time>
      </trkpt>
      <trkpt lat="43.43868" lon="16.85078">
        <ele>211.035</ele>
        <time>2018-10-04T21:02:12Z</time>
      </trkpt>
      <trkpt lat="43.43862" lon="16.85074">
        <ele>210.093</ele>
        <time>2018-10-04T21:02:32Z</time>
      </trkpt>
      <trkpt lat="43.4386" lon="16.85073">
        <ele>210.094</ele>
        <time>2018-10-04T21:02:52Z</time>
      </trkpt>
      <trkpt lat="43.43854" lon="16.85069">
        <ele>211.064</ele>
        <time>2018-10-04T21:03:12Z</time>
      </trkpt>
      <trkpt lat="43.4385" lon="16.85068">
        <ele>211.023</ele>
        <time>2018-10-04T21:03:32Z</time>
      </trkpt>
      <trkpt lat="43.43848" lon="16.85075">
        <ele>211.045</ele>
        <time>2018-10-04T21:03:52Z</time>
      </trkpt>
      <trkpt lat="43.43847" lon="16.85084">
        <ele>210.047</ele>
        <time>2018-10-04T21:04:12Z</time>
      </trkpt>
      <trkpt lat="43.43847" lon="16.85097">
        <ele>209.011</ele>
        <time>2018-10-04T21:04:32Z</time>
      </trkpt>
      <trkpt lat="43.43847" lon="16.85104">
        <ele>208.008</ele>
        <time>2018-10-04T21:04:52Z</time>
      </trkpt>
      <trkpt lat="43.43848" lon="16.85115">
        <ele>206.046</ele>
        <time>2018-10-04T21:05:12Z</time>
      </trkpt>
      <trkpt lat="43.43845" lon="16.85135">
        <ele>205.043</ele>
        <time>2018-10-04T21:05:32Z</time>
      </trkpt>
      <trkpt lat="43.43837" lon="16.85151">
        <ele>204.086</ele>
        <time>2018-10-04T21:05:52Z</time>
      </trkpt>
      <trkpt lat="43.43824" lon="16.85168">
        <ele>204.068</ele>
        <time>2018-10-04T21:06:12Z</time>
      </trkpt>
      <trkpt lat="43.43809" lon="16.85184">
        <ele>204.096</ele>
        <time>2018-10-04T21:06:32Z</time>
      </trkpt>
      <trkpt lat="43.43791" lon="16.85196">
        <ele>204.027</ele>
        <time>2018-10-04T21:06:52Z</time>
      </trkpt>
      <trkpt lat="43.43774" lon="16.8519">
        <ele>205.087</ele>
        <time>2018-10-04T21:07:12Z</time>
      </trkpt>
      <trkpt lat="43.43759" lon="16.85178">
        <ele>205.076</ele>
        <time>2018-10-04T21:07:32Z</time>
      </trkpt>
      <trkpt lat="43.43745" lon="16.85158">
        <ele>204.023</ele>
        <time>2018-10-04T21:07:52Z</time>
      </trkpt>
      <trkpt lat="43.43741" lon="16.85149">
        <ele>203.083</ele>
        <time>2018-10-04T21:08:12Z</time>
      </trkpt>
      <trkpt lat="43.43731" lon="16.85135">
        <ele>202.011</ele>
        <time>2018-10-04T21:08:32Z</time>
      </trkpt>
      <trkpt lat="43.43714" lon="16.85118">
        <ele>201.008</ele>
        <time>2018-10-04T21:08:52Z</time>
      </trkpt>
      <trkpt lat="43.43704" lon="16.85106">
        <ele>199.014</ele>
        <time>2018-10-04T21:09:12Z</time>
      </trkpt>
      <trkpt lat="43.43699" lon="16.851">
        <ele>198.011</ele>
        <time>2018-10-04T21:09:32Z</time>
      </trkpt>
      <trkpt lat="43.43689" lon="16.85085">
        <ele>195.094</ele>
        <time>2018-10-04T21:09:52Z</time>
      </trkpt>
      <trkpt lat="43.43688" lon="16.85075">
        <ele>194.076</ele>
        <time>2018-10-04T21:10:12Z</time>
      </trkpt>
      <trkpt lat="43.43684" lon="16.8506">
        <ele>193.054</ele>
        <time>2018-10-04T21:10:32Z</time>
      </trkpt>
      <trkpt lat="43.43676" lon="16.85048">
        <ele>190.045</ele>
        <time>2018-10-04T21:10:52Z</time>
      </trkpt>
      <trkpt lat="43.43667" lon="16.85039">
        <ele>188.075</ele>
        <time>2018-10-04T21:11:12Z</time>
      </trkpt>
      <trkpt lat="43.43662" lon="16.85033">
        <ele>187.034</ele>
        <time>2018-10-04T21:11:32Z</time>
      </trkpt>
      <trkpt lat="43.43656" lon="16.85026">
        <ele>186.077</ele>
        <time>2018-10-04T21:11:52Z</time>
      </trkpt>
      <trkpt lat="43.43643" lon="16.85012">
        <ele>183.061</ele>
        <time>2018-10-04T21:12:12Z</time>
      </trkpt>
      <trkpt lat="43.43635" lon="16.85005">
        <ele>182.027</ele>
        <time>2018-10-04T21:12:32Z</time>
      </trkpt>
      <trkpt lat="43.43624" lon="16.84995">
        <ele>181.008</ele>
        <time>2018-10-04T21:12:52Z</time>
      </trkpt>
      <trkpt lat="43.43617" lon="16.8499">
        <ele>180.069</ele>
        <time>2018-10-04T21:13:12Z</time>
      </trkpt>
      <trkpt lat="43.43604" lon="16.84981">
        <ele>178.056</ele>
        <time>2018-10-04T21:13:32Z</time>
      </trkpt>
      <trkpt lat="43.43585" lon="16.84973">
        <ele>178.039</ele>
        <time>2018-10-04T21:13:52Z</time>
      </trkpt>
      <trkpt lat="43.43575" lon="16.84953">
        <ele>178.061</ele>
        <time>2018-10-04T21:14:12Z</time>
      </trkpt>
      <trkpt lat="43.43569" lon="16.84936">
        <ele>177.099</ele>
        <time>2018-10-04T21:14:32Z</time>
      </trkpt>
      <trkpt lat="43.43557" lon="16.84915">
        <ele>176.09</ele>
        <time>2018-10-04T21:14:52Z</time>
      </trkpt>
      <trkpt lat="43.43545" lon="16.84896">
        <ele>176.01</ele>
        <time>2018-10-04T21:15:12Z</time>
      </trkpt>
      <trkpt lat="43.43529" lon="16.84878">
        <ele>176.069</ele>
        <time>2018-10-04T21:15:32Z</time>
      </trkpt>
      <trkpt lat="43.43517" lon="16.84858">
        <ele>176.085</ele>
        <time>2018-10-04T21:15:52Z</time>
      </trkpt>
      <trkpt lat="43.43506" lon="16.84825">
        <ele>177.089</ele>
        <time>2018-10-04T21:16:12Z</time>
      </trkpt>
      <trkpt lat="43.43502" lon="16.84811">
        <ele>179.017</ele>
        <time>2018-10-04T21:16:32Z</time>
      </trkpt>
      <trkpt lat="43.43494" lon="16.8479">
        <ele>180.008</ele>
        <time>2018-10-04T21:16:52Z</time>
      </trkpt>
      <trkpt lat="43.43484" lon="16.84765">
        <ele>181.03</ele>
        <time>2018-10-04T21:17:12Z</time>
      </trkpt>
      <trkpt lat="43.43478" lon="16.84741">
        <ele>181.047</ele>
        <time>2018-10-04T21:17:32Z</time>
      </trkpt>
      <trkpt lat="43.43469" lon="16.84719">
        <ele>180.01</ele>
        <time>2018-10-04T21:17:52Z</time>
      </trkpt>
      <trkpt lat="43.43462" lon="16.84696">
        <ele>180.032</ele>
        <time>2018-10-04T21:18:12Z</time>
      </trkpt>
      <trkpt lat="43.43453" lon="16.8468">
        <ele>180.04</ele>
        <time>2018-10-04T21:18:32Z</time>
      </trkpt>
      <trkpt lat="43.43442" lon="16.84667">
        <ele>180.091</ele>
        <time>2018-10-04T21:18:52Z</time>
      </trkpt>
      <trkpt lat="43.43427" lon="16.84652">
        <ele>180.041</ele>
        <time>2018-10-04T21:19:12Z</time>
      </trkpt>
      <trkpt lat="43.43414" lon="16.84635">
        <ele>180.01</ele>
        <time>2018-10-04T21:19:32Z</time>
      </trkpt>
      <trkpt lat="43.43394" lon="16.84635">
        <ele>177.034</ele>
        <time>2018-10-04T21:19:52Z</time>
      </trkpt>
      <trkpt lat="43.43386" lon="16.84637">
        <ele>176.055</ele>
        <time>2018-10-04T21:20:12Z</time>
      </trkpt>
      <trkpt lat="43.43376" lon="16.8464">
        <ele>175.01</ele>
        <time>2018-10-04T21:20:32Z</time>
      </trkpt>
      <trkpt lat="43.43363" lon="16.8466">
        <ele>175.008</ele>
        <time>2018-10-04T21:20:52Z</time>
      </trkpt>
      <trkpt lat="43.4335" lon="16.84676">
        <ele>174.065</ele>
        <time>2018-10-04T21:21:12Z</time>
      </trkpt>
      <trkpt lat="43.43341" lon="16.84703">
        <ele>176.062</ele>
        <time>2018-10-04T21:21:32Z</time>
      </trkpt>
      <trkpt lat="43.43333" lon="16.84728">
        <ele>175.025</ele>
        <time>2018-10-04T21:21:52Z</time>
      </trkpt>
      <trkpt lat="43.43325" lon="16.84738">
        <ele>176.027</ele>
        <time>2018-10-04T21:22:12Z</time>
      </trkpt>
      <trkpt lat="43.43318" lon="16.84749">
        <ele>176.055</ele>
        <time>2018-10-04T21:22:32Z</time>
      </trkpt>
      <trkpt lat="43.43308" lon="16.84772">
        <ele>176.016</ele>
        <time>2018-10-04T21:22:52Z</time>
      </trkpt>
      <trkpt lat="43.43296" lon="16.84793">
        <ele>176.026</ele>
        <time>2018-10-04T21:23:12Z</time>
      </trkpt>
      <trkpt lat="43.43286" lon="16.84807">
        <ele>175.035</ele>
        <time>2018-10-04T21:23:32Z</time>
      </trkpt>
      <trkpt lat="43.43274" lon="16.84823">
        <ele>174.082</ele>
        <time>2018-10-04T21:23:52Z</time>
      </trkpt>
      <trkpt lat="43.43265" lon="16.84837">
        <ele>172.043</ele>
        <time>2018-10-04T21:24:12Z</time>
      </trkpt>
      <trkpt lat="43.43256" lon="16.8485">
        <ele>171.017</ele>
        <time>2018-10-04T21:24:32Z</time>
      </trkpt>
      <trkpt lat="43.43247" lon="16.84863">
        <ele>170.008</ele>
        <time>2018-10-04T21:24:52Z</time>
      </trkpt>
      <trkpt lat="43.43239" lon="16.84875">
        <ele>169.04</ele>
        <time>2018-10-04T21:25:12Z</time>
      </trkpt>
      <trkpt lat="43.43232" lon="16.84885">
        <ele>168.047</ele>
        <time>2018-10-04T21:25:32Z</time>
      </trkpt>
      <trkpt lat="43.43221" lon="16.84889">
        <ele>167.03</ele>
        <time>2018-10-04T21:25:52Z</time>
      </trkpt>
      <trkpt lat="43.43211" lon="16.84891">
        <ele>165.082</ele>
        <time>2018-10-04T21:26:12Z</time>
      </trkpt>
      <trkpt lat="43.43201" lon="16.84889">
        <ele>164.07</ele>
        <time>2018-10-04T21:26:32Z</time>
      </trkpt>
      <trkpt lat="43.43188" lon="16.84884">
        <ele>163.081</ele>
        <time>2018-10-04T21:26:52Z</time>
      </trkpt>
      <trkpt lat="43.43171" lon="16.84878">
        <ele>162.011</ele>
        <time>2018-10-04T21:27:12Z</time>
      </trkpt>
      <trkpt lat="43.4315" lon="16.84876">
        <ele>159.09</ele>
        <time>2018-10-04T21:27:32Z</time>
      </trkpt>
      <trkpt lat="43.43143" lon="16.84877">
        <ele>157.023</ele>
        <time>2018-10-04T21:27:52Z</time>
      </trkpt>
      <trkpt lat="43.4313" lon="16.84877">
        <ele>155.083</ele>
        <time>2018-10-04T21:28:12Z</time>
      </trkpt>
      <trkpt lat="43.43123" lon="16.84881">
        <ele>153.011</ele>
        <time>2018-10-04T21:28:32Z</time>
      </trkpt>
      <trkpt lat="43.43115" lon="16.84891">
        <ele>150.008</ele>
        <time>2018-10-04T21:28:52Z</time>
      </trkpt>
      <trkpt lat="43.43107" lon="16.84915">
        <ele>150.024</ele>
        <time>2018-10-04T21:29:12Z</time>
      </trkpt>
      <trkpt lat="43.43097" lon="16.84937">
        <ele>151.091</ele>
        <time>2018-10-04T21:29:32Z</time>
      </trkpt>
      <trkpt lat="43.43087" lon="16.8496">
        <ele>150.044</ele>
        <time>2018-10-04T21:29:52Z</time>
      </trkpt>
      <trkpt lat="43.43083" lon="16.84975">
        <ele>149.096</ele>
        <time>2018-10-04T21:30:12Z</time>
      </trkpt>
      <trkpt lat="43.43081" lon="16.84976">
        <ele>148.064</ele>
        <time>2018-10-04T21:30:32Z</time>
      </trkpt>
      <trkpt lat="43.4308" lon="16.84976">
        <ele>148.055</ele>
        <time>2018-10-04T21:30:52Z</time>
      </trkpt>
      <trkpt lat="43.43078" lon="16.84979">
        <ele>147.035</ele>
        <time>2018-10-04T21:31:12Z</time>
      </trkpt>
      <trkpt lat="43.43075" lon="16.84982">
        <ele>146.074</ele>
        <time>2018-10-04T21:31:32Z</time>
      </trkpt>
      <trkpt lat="43.43073" lon="16.84983">
        <ele>145.045</ele>
        <time>2018-10-04T21:31:52Z</time>
      </trkpt>
      <trkpt lat="43.43071" lon="16.84986">
        <ele>143.047</ele>
        <time>2018-10-04T21:32:12Z</time>
      </trkpt>
      <trkpt lat="43.43063" lon="16.84998">
        <ele>141.011</ele>
        <time>2018-10-04T21:32:32Z</time>
      </trkpt>
      <trkpt lat="43.43055" lon="16.85007">
        <ele>139.008</ele>
        <time>2018-10-04T21:32:52Z</time>
      </trkpt>
      <trkpt lat="43.4305" lon="16.85013">
        <ele>138.036</ele>
        <time>2018-10-04T21:33:12Z</time>
      </trkpt>
      <trkpt lat="43.43048" lon="16.85015">
        <ele>138.023</ele>
        <time>2018-10-04T21:33:32Z</time>
      </trkpt>
      <trkpt lat="43.43037" lon="16.85029">
        <ele>136.026</ele>
        <time>2018-10-04T21:33:52Z</time>
      </trkpt>
      <trkpt lat="43.43034" lon="16.85034">
        <ele>135.098</ele>
        <time>2018-10-04T21:34:12Z</time>
      </trkpt>
      <trkpt lat="43.43031" lon="16.85041">
        <ele>133.096</ele>
        <time>2018-10-04T21:34:32Z</time>
      </trkpt>
      <trkpt lat="43.4303" lon="16.85043">
        <ele>133.047</ele>
        <time>2018-10-04T21:34:52Z</time>
      </trkpt>
      <trkpt lat="43.43025" lon="16.85048">
        <ele>132.057</ele>
        <time>2018-10-04T21:35:12Z</time>
      </trkpt>
      <trkpt lat="43.43024" lon="16.85049">
        <ele>132.026</ele>
        <time>2018-10-04T21:35:32Z</time>
      </trkpt>
      <trkpt lat="43.43016" lon="16.85065">
        <ele>131.063</ele>
        <time>2018-10-04T21:35:52Z</time>
      </trkpt>
      <trkpt lat="43.43014" lon="16.85071">
        <ele>131.044</ele>
        <time>2018-10-04T21:36:12Z</time>
      </trkpt>
      <trkpt lat="43.43011" lon="16.85081">
        <ele>131.018</ele>
        <time>2018-10-04T21:36:32Z</time>
      </trkpt>
      <trkpt lat="43.43007" lon="16.8509">
        <ele>132.008</ele>
        <time>2018-10-04T21:36:52Z</time>
      </trkpt>
      <trkpt lat="43.43003" lon="16.85099">
        <ele>132.068</ele>
        <time>2018-10-04T21:37:12Z</time>
      </trkpt>
      <trkpt lat="43.42999" lon="16.85106">
        <ele>132.035</ele>
        <time>2018-10-04T21:37:32Z</time>
      </trkpt>
      <trkpt lat="43.42995" lon="16.85116">
        <ele>131.098</ele>
        <time>2018-10-04T21:37:52Z</time>
      </trkpt>
      <trkpt lat="43.42994" lon="16.85119">
        <ele>130.03</ele>
        <time>2018-10-04T21:38:12Z</time>
      </trkpt>
      <trkpt lat="43.42993" lon="16.85122">
        <ele>130.098</ele>
        <time>2018-10-04T21:38:32Z</time>
      </trkpt>
      <trkpt lat="43.42989" lon="16.85127">
        <ele>129.029</ele>
        <time>2018-10-04T21:38:52Z</time>
      </trkpt>
      <trkpt lat="43.42989" lon="16.85129">
        <ele>129.019</ele>
        <time>2018-10-04T21:39:12Z</time>
      </trkpt>
      <trkpt lat="43.42986" lon="16.85135">
        <ele>128.088</ele>
        <time>2018-10-04T21:39:32Z</time>
      </trkpt>
      <trkpt lat="43.4298" lon="16.85155">
        <ele>126.096</ele>
        <time>2018-10-04T21:39:52Z</time>
      </trkpt>
      <trkpt lat="43.42977" lon="16.85172">
        <ele>124.031</ele>
        <time>2018-10-04T21:40:12Z</time>
      </trkpt>
      <trkpt lat="43.42976" lon="16.85179">
        <ele>123.024</ele>
        <time>2018-10-04T21:40:32Z</time>
      </trkpt>
      <trkpt lat="43.42971" lon="16.852">
        <ele>121.008</ele>
        <time>2018-10-04T21:40:52Z</time>
      </trkpt>
      <trkpt lat="43.42968" lon="16.85227">
        <ele>121.091</ele>
        <time>2018-10-04T21:41:12Z</time>
      </trkpt>
      <trkpt lat="43.42967" lon="16.85232">
        <ele>121.038</ele>
        <time>2018-10-04T21:41:32Z</time>
      </trkpt>
      <trkpt lat="43.42964" lon="16.85243">
        <ele>120.081</ele>
        <time>2018-10-04T21:41:52Z</time>
      </trkpt>
      <trkpt lat="43.42964" lon="16.8525">
        <ele>120.073</ele>
        <time>2018-10-04T21:42:12Z</time>
      </trkpt>
      <trkpt lat="43.42964" lon="16.85254">
        <ele>119.071</ele>
        <time>2018-10-04T21:42:32Z</time>
      </trkpt>
      <trkpt lat="43.42966" lon="16.85263">
        <ele>119.092</ele>
        <time>2018-10-04T21:42:52Z</time>
      </trkpt>
      <trkpt lat="43.42961" lon="16.85263">
        <ele>117.022</ele>
        <time>2018-10-04T21:43:12Z</time>
      </trkpt>
      <trkpt lat="43.42958" lon="16.85261">
        <ele>116.091</ele>
        <time>2018-10-04T21:43:32Z</time>
      </trkpt>
      <trkpt lat="43.42958" lon="16.8526">
        <ele>116.042</ele>
        <time>2018-10-04T21:43:52Z</time>
      </trkpt>
      <trkpt lat="43.42956" lon="16.85266">
        <ele>115.022</ele>
        <time>2018-10-04T21:44:12Z</time>
      </trkpt>
      <trkpt lat="43.42956" lon="16.85269">
        <ele>114.014</ele>
        <time>2018-10-04T21:44:32Z</time>
      </trkpt>
      <trkpt lat="43.42958" lon="16.85273">
        <ele>114.008</ele>
        <time>2018-10-04T21:44:52Z</time>
      </trkpt>
      <trkpt lat="43.42956" lon="16.85286">
        <ele>111.076</ele>
        <time>2018-10-04T21:45:12Z</time>
      </trkpt>
      <trkpt lat="43.42957" lon="16.85295">
        <ele>110.063</ele>
        <time>2018-10-04T21:45:32Z</time>
      </trkpt>
      <trkpt lat="43.42954" lon="16.853">
        <ele>109.046</ele>
        <time>2018-10-04T21:45:52Z</time>
      </trkpt>
      <trkpt lat="43.42951" lon="16.85298">
        <ele>108.068</ele>
        <time>2018-10-04T21:46:12Z</time>
      </trkpt>
      <trkpt lat="43.42937" lon="16.85281">
        <ele>106.026</ele>
        <time>2018-10-04T21:46:32Z</time>
      </trkpt>
      <trkpt lat="43.42935" lon="16.85279">
        <ele>104.067</ele>
        <time>2018-10-04T21:46:52Z</time>
      </trkpt>
      <trkpt lat="43.42933" lon="16.85287">
        <ele>102.067</ele>
        <time>2018-10-04T21:47:12Z</time>
      </trkpt>
      <trkpt lat="43.42932" lon="16.85296">
        <ele>100.026</ele>
        <time>2018-10-04T21:47:32Z</time>
      </trkpt>
      <trkpt lat="43.42933" lon="16.85305">
        <ele>98.028</ele>
        <time>2018-10-04T21:47:52Z</time>
      </trkpt>
      <trkpt lat="43.42934" lon="16.8531">
        <ele>97.089</ele>
        <time>2018-10-04T21:48:12Z</time>
      </trkpt>
      <trkpt lat="43.42936" lon="16.85319">
        <ele>96.017</ele>
        <time>2018-10-04T21:48:32Z</time>
      </trkpt>
      <trkpt lat="43.42936" lon="16.85323">
        <ele>95.008</ele>
        <time>2018-10-04T21:48:52Z</time>
      </trkpt>
      <trkpt lat="43.42937" lon="16.85328">
        <ele>94.034</ele>
        <time>2018-10-04T21:49:12Z</time>
      </trkpt>
      <trkpt lat="43.42933" lon="16.8533">
        <ele>94.061</ele>
        <time>2018-10-04T21:49:32Z</time>
      </trkpt>
      <trkpt lat="43.42933" lon="16.8533">
        <ele>93.074</ele>
        <time>2018-10-04T21:49:52Z</time>
      </trkpt>
      <trkpt lat="43.42931" lon="16.8533">
        <ele>93.016</ele>
        <time>2018-10-04T21:50:12Z</time>
      </trkpt>
      <trkpt lat="43.4293" lon="16.85334">
        <ele>92.054</ele>
        <time>2018-10-04T21:50:32Z</time>
      </trkpt>
      <trkpt lat="43.42932" lon="16.85341">
        <ele>91.015</ele>
        <time>2018-10-04T21:50:52Z</time>
      </trkpt>
      <trkpt lat="43.42933" lon="16.85346">
        <ele>89.025</ele>
        <time>2018-10-04T21:51:12Z</time>
      </trkpt>
      <trkpt lat="43.42934" lon="16.85351">
        <ele>88.014</ele>
        <time>2018-10-04T21:51:32Z</time>
      </trkpt>
      <trkpt lat="43.42937" lon="16.85354">
        <ele>87.026</ele>
        <time>2018-10-04T21:51:52Z</time>
      </trkpt>
      <trkpt lat="43.4294" lon="16.85357">
        <ele>86.047</ele>
        <time>2018-10-04T21:52:12Z</time>
      </trkpt>
      <trkpt lat="43.42943" lon="16.85363">
        <ele>85.011</ele>
        <time>2018-10-04T21:52:32Z</time>
      </trkpt>
      <trkpt lat="43.42943" lon="16.85364">
        <ele>84.008</ele>
        <time>2018-10-04T21:52:52Z</time>
      </trkpt>
      <trkpt lat="43.42942" lon="16.85369">
        <ele>84.014</ele>
        <time>2018-10-04T21:53:12Z</time>
      </trkpt>
      <trkpt lat="43.42927" lon="16.85383">
        <ele>85.071</ele>
        <time>2018-10-04T21:53:32Z</time>
      </trkpt>
      <trkpt lat="43.42921" lon="16.85396">
        <ele>85.094</ele>
        <time>2018-10-04T21:53:52Z</time>
      </trkpt>
      <trkpt lat="43.42919" lon="16.85398">
        <ele>86.096</ele>
        <time>2018-10-04T21:54:12Z</time>
      </trkpt>
      <trkpt lat="43.42917" lon="16.85404">
        <ele>87.054</ele>
        <time>2018-10-04T21:54:32Z</time>
      </trkpt>
      <trkpt lat="43.42916" lon="16.85413">
        <ele>87.015</ele>
        <time>2018-10-04T21:54:52Z</time>
      </trkpt>
      <trkpt lat="43.42914" lon="16.85426">
        <ele>86.065</ele>
        <time>2018-10-04T21:55:12Z</time>
      </trkpt>
      <trkpt lat="43.42915" lon="16.85443">
        <ele>84.044</ele>
        <time>2018-10-04T21:55:32Z</time>
      </trkpt>
      <trkpt lat="43.42914" lon="16.85453">
        <ele>83.046</ele>
        <time>2018-10-04T21:55:52Z</time>
      </trkpt>
      <trkpt lat="43.42916" lon="16.85474">
        <ele>81.088</ele>
        <time>2018-10-04T21:56:12Z</time>
      </trkpt>
      <trkpt lat="43.42916" lon="16.85479">
        <ele>80.016</ele>
        <time>2018-10-04T21:56:32Z</time>
      </trkpt>
      <trkpt lat="43.42916" lon="16.85491">
        <ele>79.008</ele>
        <time>2018-10-04T21:56:52Z</time>
      </trkpt>
      <trkpt lat="43.42915" lon="16.85494">
        <ele>79.076</ele>
        <time>2018-10-04T21:57:12Z</time>
      </trkpt>
      <trkpt lat="43.42915" lon="16.85501">
        <ele>78.053</ele>
        <time>2018-10-04T21:57:32Z</time>
      </trkpt>
      <trkpt lat="43.42917" lon="16.85507">
        <ele>77.036</ele>
        <time>2018-10-04T21:57:52Z</time>
      </trkpt>
      <trkpt lat="43.42919" lon="16.85515">
        <ele>76.058</ele>
        <time>2018-10-04T21:58:12Z</time>
      </trkpt>
      <trkpt lat="43.4292" lon="16.85517">
        <ele>76.026</ele>
        <time>2018-10-04T21:58:32Z</time>
      </trkpt>
      <trkpt lat="43.42921" lon="16.85521">
        <ele>75.017</ele>
        <time>2018-10-04T21:58:52Z</time>
      </trkpt>
      <trkpt lat="43.42922" lon="16.8553">
        <ele>74.017</ele>
        <time>2018-10-04T21:59:12Z</time>
      </trkpt>
      <trkpt lat="43.42923" lon="16.85536">
        <ele>72.046</ele>
        <time>2018-10-04T21:59:32Z</time>
      </trkpt>
      <trkpt lat="43.42923" lon="16.85539">
        <ele>72.026</ele>
        <time>2018-10-04T21:59:52Z</time>
      </trkpt>
      <trkpt lat="43.4292" lon="16.85547">
        <ele>70.047</ele>
        <time>2018-10-04T22:00:12Z</time>
      </trkpt>
      <trkpt lat="43.4292" lon="16.85556">
        <ele>69.011</ele>
        <time>2018-10-04T22:00:32Z</time>
      </trkpt>
      <trkpt lat="43.42922" lon="16.85561">
        <ele>68.008</ele>
        <time>2018-10-04T22:00:52Z</time>
      </trkpt>
      <trkpt lat="43.42923" lon="16.85564">
        <ele>67.074</ele>
        <time>2018-10-04T22:01:12Z</time>
      </trkpt>
      <trkpt lat="43.42927" lon="16.8557">
        <ele>64.091</ele>
        <time>2018-10-04T22:01:32Z</time>
      </trkpt>
      <trkpt lat="43.42929" lon="16.85572">
        <ele>63.044</ele>
        <time>2018-10-04T22:01:52Z</time>
      </trkpt>
      <trkpt lat="43.42933" lon="16.85575">
        <ele>62.016</ele>
        <time>2018-10-04T22:02:12Z</time>
      </trkpt>
      <trkpt lat="43.42939" lon="16.85581">
        <ele>61.084</ele>
        <time>2018-10-04T22:02:32Z</time>
      </trkpt>
      <trkpt lat="43.42941" lon="16.85586">
        <ele>60.035</ele>
        <time>2018-10-04T22:02:52Z</time>
      </trkpt>
      <trkpt lat="43.42945" lon="16.85596">
        <ele>58.075</ele>
        <time>2018-10-04T22:03:12Z</time>
      </trkpt>
      <trkpt lat="43.42951" lon="16.85607">
        <ele>56.044</ele>
        <time>2018-10-04T22:03:32Z</time>
      </trkpt>
      <trkpt lat="43.42955" lon="16.85621">
        <ele>54.062</ele>
        <time>2018-10-04T22:03:52Z</time>
      </trkpt>
      <trkpt lat="43.42957" lon="16.85627">
        <ele>53.083</ele>
        <time>2018-10-04T22:04:12Z</time>
      </trkpt>
      <trkpt lat="43.42957" lon="16.85629">
        <ele>52.011</ele>
        <time>2018-10-04T22:04:32Z</time>
      </trkpt>
      <trkpt lat="43.42956" lon="16.85635">
        <ele>51.008</ele>
        <time>2018-10-04T22:04:52Z</time>
      </trkpt>
      <trkpt lat="43.42955" lon="16.85636">
        <ele>50.098</ele>
        <time>2018-10-04T22:05:12Z</time>
      </trkpt>
      <trkpt lat="43.42955" lon="16.85644">
        <ele>49.085</ele>
        <time>2018-10-04T22:05:32Z</time>
      </trkpt>
      <trkpt lat="43.42955" lon="16.85645">
        <ele>49.078</ele>
        <time>2018-10-04T22:05:52Z</time>
      </trkpt>
      <trkpt lat="43.42955" lon="16.85648">
        <ele>49.03</ele>
        <time>2018-10-04T22:06:12Z</time>
      </trkpt>
      <trkpt lat="43.42958" lon="16.85646">
        <ele>48.018</ele>
        <time>2018-10-04T22:06:32Z</time>
      </trkpt>
      <trkpt lat="43.42959" lon="16.85646">
        <ele>47.029</ele>
        <time>2018-10-04T22:06:52Z</time>
      </trkpt>
      <trkpt lat="43.4296" lon="16.85647">
        <ele>47.069</ele>
        <time>2018-10-04T22:07:12Z</time>
      </trkpt>
      <trkpt lat="43.4296" lon="16.85648">
        <ele>47.068</ele>
        <time>2018-10-04T22:07:32Z</time>
      </trkpt>
      <trkpt lat="43.42963" lon="16.85657">
        <ele>47.051</ele>
        <time>2018-10-04T22:07:52Z</time>
      </trkpt>
      <trkpt lat="43.42962" lon="16.85661">
        <ele>46.001</ele>
        <time>2018-10-04T22:08:12Z</time>
      </trkpt>
      <trkpt lat="43.42962" lon="16.85665">
        <ele>45.011</ele>
        <time>2018-10-04T22:08:32Z</time>
      </trkpt>
      <trkpt lat="43.4296" lon="16.85672">
        <ele>43.008</ele>
        <time>2018-10-04T22:08:52Z</time>
      </trkpt>
      <trkpt lat="43.4296" lon="16.85676">
        <ele>42.047</ele>
        <time>2018-10-04T22:09:12Z</time>
      </trkpt>
      <trkpt lat="43.42962" lon="16.85685">
        <ele>42.094</ele>
        <time>2018-10-04T22:09:32Z</time>
      </trkpt>
      <trkpt lat="43.42968" lon="16.85693">
        <ele>42.067</ele>
        <time>2018-10-04T22:09:52Z</time>
      </trkpt>
      <trkpt lat="43.42973" lon="16.85694">
        <ele>42.019</ele>
        <time>2018-10-04T22:10:12Z</time>
      </trkpt>
      <trkpt lat="43.42981" lon="16.85695">
        <ele>43.067</ele>
        <time>2018-10-04T22:10:32Z</time>
      </trkpt>
      <trkpt lat="43.42983" lon="16.85694">
        <ele>43.058</ele>
        <time>2018-10-04T22:10:52Z</time>
      </trkpt>
      <trkpt lat="43.42987" lon="16.85701">
        <ele>43.038</ele>
        <time>2018-10-04T22:11:12Z</time>
      </trkpt>
      <trkpt lat="43.4299" lon="16.85706">
        <ele>43.067</ele>
        <time>2018-10-04T22:11:32Z</time>
      </trkpt>
      <trkpt lat="43.42993" lon="16.85712">
        <ele>43.021</ele>
        <time>2018-10-04T22:11:52Z</time>
      </trkpt>
      <trkpt lat="43.43011" lon="16.8573">
        <ele>44.041</ele>
        <time>2018-10-04T22:12:12Z</time>
      </trkpt>
      <trkpt lat="43.43012" lon="16.85731">
        <ele>44.005</ele>
        <time>2018-10-04T22:12:32Z</time>
      </trkpt>
      <trkpt lat="43.43023" lon="16.8574">
        <ele>45.008</ele>
        <time>2018-10-04T22:12:52Z</time>
      </trkpt>
      <trkpt lat="43.43028" lon="16.85744">
        <ele>47.014</ele>
        <time>2018-10-04T22:13:12Z</time>
      </trkpt>
      <trkpt lat="43.43033" lon="16.85752">
        <ele>48.031</ele>
        <time>2018-10-04T22:13:32Z</time>
      </trkpt>
      <trkpt lat="43.43038" lon="16.85756">
        <ele>49.054</ele>
        <time>2018-10-04T22:13:52Z</time>
      </trkpt>
      <trkpt lat="43.43045" lon="16.85765">
        <ele>50.096</ele>
        <time>2018-10-04T22:14:12Z</time>
      </trkpt>
      <trkpt lat="43.4305" lon="16.85773">
        <ele>50.094</ele>
        <time>2018-10-04T22:14:32Z</time>
      </trkpt>
      <trkpt lat="43.43053" lon="16.85779">
        <ele>50.015</ele>
        <time>2018-10-04T22:14:52Z</time>
      </trkpt>
      <trkpt lat="43.4306" lon="16.85788">
        <ele>49.075</ele>
        <time>2018-10-04T22:15:12Z</time>
      </trkpt>
      <trkpt lat="43.43063" lon="16.85797">
        <ele>47.044</ele>
        <time>2018-10-04T22:15:32Z</time>
      </trkpt>
      <trkpt lat="43.43065" lon="16.85805">
        <ele>47.032</ele>
        <time>2018-10-04T22:15:52Z</time>
      </trkpt>
      <trkpt lat="43.43076" lon="16.85827">
        <ele>47.092</ele>
        <time>2018-10-04T22:16:12Z</time>
      </trkpt>
      <trkpt lat="43.43078" lon="16.8583">
        <ele>48.011</ele>
        <time>2018-10-04T22:16:32Z</time>
      </trkpt>
      <trkpt lat="43.43082" lon="16.85837">
        <ele>49.008</ele>
        <time>2018-10-04T22:16:52Z</time>
      </trkpt>
      <trkpt lat="43.43084" lon="16.8584">
        <ele>49.035</ele>
        <time>2018-10-04T22:17:12Z</time>
      </trkpt>
      <trkpt lat="43.43087" lon="16.85849">
        <ele>49.082</ele>
        <time>2018-10-04T22:17:32Z</time>
      </trkpt>
      <trkpt lat="43.43092" lon="16.85856">
        <ele>50.025</ele>
        <time>2018-10-04T22:17:52Z</time>
      </trkpt>
      <trkpt lat="43.43096" lon="16.85863">
        <ele>51.027</ele>
        <time>2018-10-04T22:18:12Z</time>
      </trkpt>
      <trkpt lat="43.43098" lon="16.85868">
        <ele>52.045</ele>
        <time>2018-10-04T22:18:32Z</time>
      </trkpt>
      <trkpt lat="43.43102" lon="16.85882">
        <ele>52.066</ele>
        <time>2018-10-04T22:18:52Z</time>
      </trkpt>
      <trkpt lat="43.4311" lon="16.85911">
        <ele>52.036</ele>
        <time>2018-10-04T22:19:12Z</time>
      </trkpt>
      <trkpt lat="43.4311" lon="16.85914">
        <ele>52.045</ele>
        <time>2018-10-04T22:19:32Z</time>
      </trkpt>
      <trkpt lat="43.43117" lon="16.85938">
        <ele>51.087</ele>
        <time>2018-10-04T22:19:52Z</time>
      </trkpt>
      <trkpt lat="43.43119" lon="16.8595">
        <ele>51.042</ele>
        <time>2018-10-04T22:20:12Z</time>
      </trkpt>
      <trkpt lat="43.43119" lon="16.85951">
        <ele>50.026</ele>
        <time>2018-10-04T22:20:32Z</time>
      </trkpt>
      <trkpt lat="43.4312" lon="16.85954">
        <ele>50.008</ele>
        <time>2018-10-04T22:20:52Z</time>
      </trkpt>
      <trkpt lat="43.43116" lon="16.85971">
        <ele>50.03</ele>
        <time>2018-10-04T22:21:12Z</time>
      </trkpt>
      <trkpt lat="43.43115" lon="16.85986">
        <ele>49.027</ele>
        <time>2018-10-04T22:21:32Z</time>
      </trkpt>
      <trkpt lat="43.43117" lon="16.86003">
        <ele>49.05</ele>
        <time>2018-10-04T22:21:52Z</time>
      </trkpt>
      <trkpt lat="43.43121" lon="16.86015">
        <ele>48.072</ele>
        <time>2018-10-04T22:22:12Z</time>
      </trkpt>
      <trkpt lat="43.43123" lon="16.86022">
        <ele>48.07</ele>
        <time>2018-10-04T22:22:32Z</time>
      </trkpt>
      <trkpt lat="43.43125" lon="16.86041">
        <ele>47.051</ele>
        <time>2018-10-04T22:22:52Z</time>
      </trkpt>
      <trkpt lat="43.43127" lon="16.86053">
        <ele>48.061</ele>
        <time>2018-10-04T22:23:12Z</time>
      </trkpt>
      <trkpt lat="43.43128" lon="16.8606">
        <ele>48.09</ele>
        <time>2018-10-04T22:23:32Z</time>
      </trkpt>
      <trkpt lat="43.43132" lon="16.86088">
        <ele>47.048</ele>
        <time>2018-10-04T22:23:52Z</time>
      </trkpt>
      <trkpt lat="43.4313" lon="16.86113">
        <ele>48.061</ele>
        <time>2018-10-04T22:24:12Z</time>
      </trkpt>
      <trkpt lat="43.4313" lon="16.86138">
        <ele>48.017</ele>
        <time>2018-10-04T22:24:32Z</time>
      </trkpt>
      <trkpt lat="43.43132" lon="16.86165">
        <ele>48.008</ele>
        <time>2018-10-04T22:24:52Z</time>
      </trkpt>
      <trkpt lat="43.43128" lon="16.86179">
        <ele>49.046</ele>
        <time>2018-10-04T22:25:12Z</time>
      </trkpt>
      <trkpt lat="43.43126" lon="16.86193">
        <ele>49.053</ele>
        <time>2018-10-04T22:25:32Z</time>
      </trkpt>
      <trkpt lat="43.43125" lon="16.86214">
        <ele>50.056</ele>
        <time>2018-10-04T22:25:52Z</time>
      </trkpt>
      <trkpt lat="43.43125" lon="16.86219">
        <ele>50.048</ele>
        <time>2018-10-04T22:26:12Z</time>
      </trkpt>
      <trkpt lat="43.43121" lon="16.86222">
        <ele>50.046</ele>
        <time>2018-10-04T22:26:32Z</time>
      </trkpt>
      <trkpt lat="43.43112" lon="16.86222">
        <ele>48.057</ele>
        <time>2018-10-04T22:26:52Z</time>
      </trkpt>
      <trkpt lat="43.43098" lon="16.86223">
        <ele>48.037</ele>
        <time>2018-10-04T22:27:12Z</time>
      </trkpt>
      <trkpt lat="43.43081" lon="16.86219">
        <ele>48.046</ele>
        <time>2018-10-04T22:27:32Z</time>
      </trkpt>
      <trkpt lat="43.43074" lon="16.86218">
        <ele>48.029</ele>
        <time>2018-10-04T22:27:52Z</time>
      </trkpt>
      <trkpt lat="43.43064" lon="16.86216">
        <ele>48</ele>
        <time>2018-10-04T22:28:12Z</time>
      </trkpt>
      <trkpt lat="43.43053" lon="16.86219">
        <ele>48.02</ele>
        <time>2018-10-04T22:28:32Z</time>
      </trkpt>
      <trkpt lat="43.43036" lon="16.86209">
        <ele>48.008</ele>
        <time>2018-10-04T22:28:52Z</time>
      </trkpt>
      <trkpt lat="43.43034" lon="16.86208">
        <ele>48.074</ele>
        <time>2018-10-04T22:29:12Z</time>
      </trkpt>
      <trkpt lat="43.43034" lon="16.8621">
        <ele>47.011</ele>
        <time>2018-10-04T22:29:32Z</time>
      </trkpt>
      <trkpt lat="43.4303" lon="16.86209">
        <ele>47.094</ele>
        <time>2018-10-04T22:29:52Z</time>
      </trkpt>
      <trkpt lat="43.4302" lon="16.86232">
        <ele>48.066</ele>
        <time>2018-10-04T22:30:12Z</time>
      </trkpt>
      <trkpt lat="43.4302" lon="16.86235">
        <ele>48.064</ele>
        <time>2018-10-04T22:30:32Z</time>
      </trkpt>
      <trkpt lat="43.43017" lon="16.8626">
        <ele>48.065</ele>
        <time>2018-10-04T22:30:52Z</time>
      </trkpt>
      <trkpt lat="43.43016" lon="16.86273">
        <ele>48.015</ele>
        <time>2018-10-04T22:31:12Z</time>
      </trkpt>
      <trkpt lat="43.43012" lon="16.86288">
        <ele>49.094</ele>
        <time>2018-10-04T22:31:32Z</time>
      </trkpt>
      <trkpt lat="43.43002" lon="16.8631">
        <ele>49.054</ele>
        <time>2018-10-04T22:31:52Z</time>
      </trkpt>
      <trkpt lat="43.42993" lon="16.8633">
        <ele>49.056</ele>
        <time>2018-10-04T22:32:12Z</time>
      </trkpt>
      <trkpt lat="43.42988" lon="16.86351">
        <ele>49.011</ele>
        <time>2018-10-04T22:32:32Z</time>
      </trkpt>
      <trkpt lat="43.42982" lon="16.86365">
        <ele>49.008</ele>
        <time>2018-10-04T22:32:52Z</time>
      </trkpt>
      <trkpt lat="43.42978" lon="16.86384">
        <ele>49.057</ele>
        <time>2018-10-04T22:33:12Z</time>
      </trkpt>
      <trkpt lat="43.42975" lon="16.86396">
        <ele>49.044</ele>
        <time>2018-10-04T22:33:32Z</time>
      </trkpt>
      <trkpt lat="43.4297" lon="16.86413">
        <ele>49.087</ele>
        <time>2018-10-04T22:33:52Z</time>
      </trkpt>
      <trkpt lat="43.42967" lon="16.86424">
        <ele>49.089</ele>
        <time>2018-10-04T22:34:12Z</time>
      </trkpt>
      <trkpt lat="43.42958" lon="16.86446">
        <ele>49.087</ele>
        <time>2018-10-04T22:34:32Z</time>
      </trkpt>
      <trkpt lat="43.42954" lon="16.86459">
        <ele>49.078</ele>
        <time>2018-10-04T22:34:52Z</time>
      </trkpt>
      <trkpt lat="43.42951" lon="16.86493">
        <ele>50.048</ele>
        <time>2018-10-04T22:35:12Z</time>
      </trkpt>
      <trkpt lat="43.4295" lon="16.86501">
        <ele>50.017</ele>
        <time>2018-10-04T22:35:32Z</time>
      </trkpt>
      <trkpt lat="43.42944" lon="16.86528">
        <ele>50.056</ele>
        <time>2018-10-04T22:35:52Z</time>
      </trkpt>
      <trkpt lat="43.4294" lon="16.86555">
        <ele>50.059</ele>
        <time>2018-10-04T22:36:12Z</time>
      </trkpt>
      <trkpt lat="43.42936" lon="16.8658">
        <ele>50.014</ele>
        <time>2018-10-04T22:36:32Z</time>
      </trkpt>
      <trkpt lat="43.42933" lon="16.86608">
        <ele>50.008</ele>
        <time>2018-10-04T22:36:52Z</time>
      </trkpt>
      <trkpt lat="43.42933" lon="16.86634">
        <ele>49.017</ele>
        <time>2018-10-04T22:37:12Z</time>
      </trkpt>
      <trkpt lat="43.42935" lon="16.86647">
        <ele>50.084</ele>
        <time>2018-10-04T22:37:32Z</time>
      </trkpt>
      <trkpt lat="43.42936" lon="16.8665">
        <ele>50.037</ele>
        <time>2018-10-04T22:37:52Z</time>
      </trkpt>
      <trkpt lat="43.4293" lon="16.86657">
        <ele>50.039</ele>
        <time>2018-10-04T22:38:12Z</time>
      </trkpt>
      <trkpt lat="43.42929" lon="16.86658">
        <ele>50.087</ele>
        <time>2018-10-04T22:38:32Z</time>
      </trkpt>
      <trkpt lat="43.42923" lon="16.8666">
        <ele>52.058</ele>
        <time>2018-10-04T22:38:52Z</time>
      </trkpt>
      <trkpt lat="43.42916" lon="16.86661">
        <ele>53.018</ele>
        <time>2018-10-04T22:39:12Z</time>
      </trkpt>
      <trkpt lat="43.4291" lon="16.8666">
        <ele>54.087</ele>
        <time>2018-10-04T22:39:32Z</time>
      </trkpt>
      <trkpt lat="43.42906" lon="16.8666">
        <ele>55.083</ele>
        <time>2018-10-04T22:39:52Z</time>
      </trkpt>
      <trkpt lat="43.42901" lon="16.86659">
        <ele>55.025</ele>
        <time>2018-10-04T22:40:12Z</time>
      </trkpt>
      <trkpt lat="43.42898" lon="16.86658">
        <ele>56.017</ele>
        <time>2018-10-04T22:40:32Z</time>
      </trkpt>
      <trkpt lat="43.42896" lon="16.86657">
        <ele>56.008</ele>
        <time>2018-10-04T22:40:52Z</time>
      </trkpt>
      <trkpt lat="43.42891" lon="16.86647">
        <ele>57.09</ele>
        <time>2018-10-04T22:41:12Z</time>
      </trkpt>
      <trkpt lat="43.42892" lon="16.8664">
        <ele>60.077</ele>
        <time>2018-10-04T22:41:32Z</time>
      </trkpt>
      <trkpt lat="43.42892" lon="16.86632">
        <ele>62.09</ele>
        <time>2018-10-04T22:41:52Z</time>
      </trkpt>
      <trkpt lat="43.42894" lon="16.8663">
        <ele>63.032</ele>
        <time>2018-10-04T22:42:12Z</time>
      </trkpt>
      <trkpt lat="43.429" lon="16.86624">
        <ele>65.07</ele>
        <time>2018-10-04T22:42:32Z</time>
      </trkpt>
      <trkpt lat="43.42901" lon="16.86618">
        <ele>67.071</ele>
        <time>2018-10-04T22:42:52Z</time>
      </trkpt>
      <trkpt lat="43.42899" lon="16.86614">
        <ele>68.041</ele>
        <time>2018-10-04T22:43:12Z</time>
      </trkpt>
      <trkpt lat="43.42899" lon="16.86613">
        <ele>69.09</ele>
        <time>2018-10-04T22:43:32Z</time>
      </trkpt>
      <trkpt lat="43.42897" lon="16.86615">
        <ele>71.076</ele>
        <time>2018-10-04T22:43:52Z</time>
      </trkpt>
      <trkpt lat="43.42891" lon="16.86612">
        <ele>73.09</ele>
        <time>2018-10-04T22:44:12Z</time>
      </trkpt>
      <trkpt lat="43.42889" lon="16.8661">
        <ele>74.019</ele>
        <time>2018-10-04T22:44:32Z</time>
      </trkpt>
      <trkpt lat="43.42888" lon="16.86604">
        <ele>76.008</ele>
        <time>2018-10-04T22:44:52Z</time>
      </trkpt>
      <trkpt lat="43.42889" lon="16.86594">
        <ele>78.029</ele>
        <time>2018-10-04T22:45:12Z</time>
      </trkpt>
      <trkpt lat="43.42891" lon="16.86588">
        <ele>79.086</ele>
        <time>2018-10-04T22:45:32Z</time>
      </trkpt>
      <trkpt lat="43.42892" lon="16.86583">
        <ele>81.029</ele>
        <time>2018-10-04T22:45:52Z</time>
      </trkpt>
      <trkpt lat="43.4289" lon="16.86566">
        <ele>83.051</ele>
        <time>2018-10-04T22:46:12Z</time>
      </trkpt>
      <trkpt lat="43.42889" lon="16.86563">
        <ele>84.049</ele>
        <time>2018-10-04T22:46:32Z</time>
      </trkpt>
      <trkpt lat="43.42887" lon="16.86554">
        <ele>86.05</ele>
        <time>2018-10-04T22:46:52Z</time>
      </trkpt>
      <trkpt lat="43.42884" lon="16.86546">
        <ele>88.06</ele>
        <time>2018-10-04T22:47:12Z</time>
      </trkpt>
      <trkpt lat="43.42877" lon="16.86541">
        <ele>89.019</ele>
        <time>2018-10-04T22:47:32Z</time>
      </trkpt>
      <trkpt lat="43.42878" lon="16.86538">
        <ele>90.049</ele>
        <time>2018-10-04T22:47:52Z</time>
      </trkpt>
      <trkpt lat="43.42881" lon="16.86544">
        <ele>93.002</ele>
        <time>2018-10-04T22:48:12Z</time>
      </trkpt>
      <trkpt lat="43.42879" lon="16.86552">
        <ele>95.022</ele>
        <time>2018-10-04T22:48:32Z</time>
      </trkpt>
      <trkpt lat="43.42876" lon="16.86564">
        <ele>97.008</ele>
        <time>2018-10-04T22:48:52Z</time>
      </trkpt>
      <trkpt lat="43.42876" lon="16.86565">
        <ele>97.016</ele>
        <time>2018-10-04T22:49:12Z</time>
      </trkpt>
      <trkpt lat="43.42875" lon="16.86572">
        <ele>97.073</ele>
        <time>2018-10-04T22:49:32Z</time>
      </trkpt>
      <trkpt lat="43.42866" lon="16.86579">
        <ele>98.046</ele>
        <time>2018-10-04T22:49:52Z</time>
      </trkpt>
      <trkpt lat="43.42862" lon="16.86584">
        <ele>98.028</ele>
        <time>2018-10-04T22:50:12Z</time>
      </trkpt>
      <trkpt lat="43.42856" lon="16.86592">
        <ele>100.086</ele>
        <time>2018-10-04T22:50:32Z</time>
      </trkpt>
      <trkpt lat="43.42854" lon="16.86595">
        <ele>101.017</ele>
        <time>2018-10-04T22:50:52Z</time>
      </trkpt>
      <trkpt lat="43.42851" lon="16.86598">
        <ele>102.057</ele>
        <time>2018-10-04T22:51:12Z</time>
      </trkpt>
      <trkpt lat="43.42844" lon="16.86601">
        <ele>104.096</ele>
        <time>2018-10-04T22:51:32Z</time>
      </trkpt>
      <trkpt lat="43.42837" lon="16.86601">
        <ele>105.037</ele>
        <time>2018-10-04T22:51:52Z</time>
      </trkpt>
      <trkpt lat="43.42833" lon="16.86603">
        <ele>106.049</ele>
        <time>2018-10-04T22:52:12Z</time>
      </trkpt>
      <trkpt lat="43.4283" lon="16.86604">
        <ele>107.013</ele>
        <time>2018-10-04T22:52:32Z</time>
      </trkpt>
      <trkpt lat="43.42824" lon="16.86605">
        <ele>108.008</ele>
        <time>2018-10-04T22:52:52Z</time>
      </trkpt>
      <trkpt lat="43.42824" lon="16.86605">
        <ele>108.075</ele>
        <time>2018-10-04T22:53:12Z</time>
      </trkpt>
      <trkpt lat="43.4282" lon="16.86607">
        <ele>109.012</ele>
        <time>2018-10-04T22:53:32Z</time>
      </trkpt>
      <trkpt lat="43.42817" lon="16.8661">
        <ele>110.025</ele>
        <time>2018-10-04T22:53:52Z</time>
      </trkpt>
      <trkpt lat="43.42813" lon="16.86614">
        <ele>111.017</ele>
        <time>2018-10-04T22:54:12Z</time>
      </trkpt>
      <trkpt lat="43.42804" lon="16.86618">
        <ele>112.025</ele>
        <time>2018-10-04T22:54:32Z</time>
      </trkpt>
      <trkpt lat="43.42803" lon="16.86618">
        <ele>112.086</ele>
        <time>2018-10-04T22:54:52Z</time>
      </trkpt>
      <trkpt lat="43.42796" lon="16.86621">
        <ele>113.026</ele>
        <time>2018-10-04T22:55:12Z</time>
      </trkpt>
      <trkpt lat="43.42793" lon="16.86619">
        <ele>114.065</ele>
        <time>2018-10-04T22:55:32Z</time>
      </trkpt>
      <trkpt lat="43.42791" lon="16.86617">
        <ele>115.021</ele>
        <time>2018-10-04T22:55:52Z</time>
      </trkpt>
      <trkpt lat="43.42789" lon="16.86616">
        <ele>116.041</ele>
        <time>2018-10-04T22:56:12Z</time>
      </trkpt>
      <trkpt lat="43.42788" lon="16.86616">
        <ele>117.005</ele>
        <time>2018-10-04T22:56:32Z</time>
      </trkpt>
      <trkpt lat="43.42787" lon="16.86616">
        <ele>117.008</ele>
        <time>2018-10-04T22:56:52Z</time>
      </trkpt>
      <trkpt lat="43.42782" lon="16.86613">
        <ele>118.074</ele>
        <time>2018-10-04T22:57:12Z</time>
      </trkpt>
      <trkpt lat="43.42779" lon="16.86612">
        <ele>119.041</ele>
        <time>2018-10-04T22:57:32Z</time>
      </trkpt>
      <trkpt lat="43.42777" lon="16.86612">
        <ele>119.034</ele>
        <time>2018-10-04T22:57:52Z</time>
      </trkpt>
      <trkpt lat="43.42776" lon="16.86612">
        <ele>119.036</ele>
        <time>2018-10-04T22:58:12Z</time>
      </trkpt>
      <trkpt lat="43.42776" lon="16.86613">
        <ele>119.054</ele>
        <time>2018-10-04T22:58:32Z</time>
      </trkpt>
      <trkpt lat="43.42773" lon="16.86613">
        <ele>120.085</ele>
        <time>2018-10-04T22:58:52Z</time>
      </trkpt>
      <trkpt lat="43.42772" lon="16.86612">
        <ele>121.085</ele>
        <time>2018-10-04T22:59:12Z</time>
      </trkpt>
      <trkpt lat="43.42765" lon="16.86612">
        <ele>124.064</ele>
        <time>2018-10-04T22:59:32Z</time>
      </trkpt>
      <trkpt lat="43.42761" lon="16.86612">
        <ele>125.079</ele>
        <time>2018-10-04T22:59:52Z</time>
      </trkpt>
      <trkpt lat="43.42759" lon="16.86611">
        <ele>126.005</ele>
        <time>2018-10-04T23:00:12Z</time>
      </trkpt>
      <trkpt lat="43.42756" lon="16.86612">
        <ele>127.025</ele>
        <time>2018-10-04T23:00:32Z</time>
      </trkpt>
      <trkpt lat="43.42752" lon="16.86616">
        <ele>128.008</ele>
        <time>2018-10-04T23:00:52Z</time>
      </trkpt>
      <trkpt lat="43.42748" lon="16.86616">
        <ele>129.019</ele>
        <time>2018-10-04T23:01:12Z</time>
      </trkpt>
      <trkpt lat="43.42744" lon="16.86617">
        <ele>130.056</ele>
        <time>2018-10-04T23:01:32Z</time>
      </trkpt>
      <trkpt lat="43.42741" lon="16.86615">
        <ele>131.079</ele>
        <time>2018-10-04T23:01:52Z</time>
      </trkpt>
      <trkpt lat="43.42738" lon="16.86614">
        <ele>131.021</ele>
        <time>2018-10-04T23:02:12Z</time>
      </trkpt>
      <trkpt lat="43.42735" lon="16.86609">
        <ele>134.069</ele>
        <time>2018-10-04T23:02:32Z</time>
      </trkpt>
      <trkpt lat="43.42729" lon="16.86603">
        <ele>136.09</ele>
        <time>2018-10-04T23:02:52Z</time>
      </trkpt>
      <trkpt lat="43.42725" lon="16.866">
        <ele>137.07</ele>
        <time>2018-10-04T23:03:12Z</time>
      </trkpt>
      <trkpt lat="43.42721" lon="16.86599">
        <ele>138.059</ele>
        <time>2018-10-04T23:03:32Z</time>
      </trkpt>
      <trkpt lat="43.4272" lon="16.86596">
        <ele>139.054</ele>
        <time>2018-10-04T23:03:52Z</time>
      </trkpt>
      <trkpt lat="43.42713" lon="16.86591">
        <ele>140.056</ele>
        <time>2018-10-04T23:04:12Z</time>
      </trkpt>
      <trkpt lat="43.42707" lon="16.86578">
        <ele>141.011</ele>
        <time>2018-10-04T23:04:32Z</time>
      </trkpt>
      <trkpt lat="43.42705" lon="16.86569">
        <ele>142.008</ele>
        <time>2018-10-04T23:04:52Z</time>
      </trkpt>
      <trkpt lat="43.42703" lon="16.8656">
        <ele>143.047</ele>
        <time>2018-10-04T23:05:12Z</time>
      </trkpt>
      <trkpt lat="43.42699" lon="16.86557">
        <ele>144.064</ele>
        <time>2018-10-04T23:05:32Z</time>
      </trkpt>
      <trkpt lat="43.42678" lon="16.86556">
        <ele>145.017</ele>
        <time>2018-10-04T23:05:52Z</time>
      </trkpt>
      <trkpt lat="43.42677" lon="16.86556">
        <ele>145.049</ele>
        <time>2018-10-04T23:06:12Z</time>
      </trkpt>
      <trkpt lat="43.42673" lon="16.86557">
        <ele>146.017</ele>
        <time>2018-10-04T23:06:32Z</time>
      </trkpt>
      <trkpt lat="43.42668" lon="16.86557">
        <ele>147.018</ele>
        <time>2018-10-04T23:06:52Z</time>
      </trkpt>
      <trkpt lat="43.42662" lon="16.86557">
        <ele>148.028</ele>
        <time>2018-10-04T23:07:12Z</time>
      </trkpt>
      <trkpt lat="43.42653" lon="16.86557">
        <ele>149.027</ele>
        <time>2018-10-04T23:07:32Z</time>
      </trkpt>
      <trkpt lat="43.42634" lon="16.86559">
        <ele>149.076</ele>
        <time>2018-10-04T23:07:52Z</time>
      </trkpt>
      <trkpt lat="43.42625" lon="16.86561">
        <ele>150.09</ele>
        <time>2018-10-04T23:08:12Z</time>
      </trkpt>
      <trkpt lat="43.42622" lon="16.86565">
        <ele>152.019</ele>
        <time>2018-10-04T23:08:32Z</time>
      </trkpt>
      <trkpt lat="43.42619" lon="16.86569">
        <ele>153.008</ele>
        <time>2018-10-04T23:08:52Z</time>
      </trkpt>
      <trkpt lat="43.42618" lon="16.86572">
        <ele>154.099</ele>
        <time>2018-10-04T23:09:12Z</time>
      </trkpt>
      <trkpt lat="43.42615" lon="16.86576">
        <ele>155.066</ele>
        <time>2018-10-04T23:09:32Z</time>
      </trkpt>
      <trkpt lat="43.4261" lon="16.86582">
        <ele>156.019</ele>
        <time>2018-10-04T23:09:52Z</time>
      </trkpt>
      <trkpt lat="43.42609" lon="16.86586">
        <ele>157.031</ele>
        <time>2018-10-04T23:10:12Z</time>
      </trkpt>
      <trkpt lat="43.42606" lon="16.86593">
        <ele>158.079</ele>
        <time>2018-10-04T23:10:32Z</time>
      </trkpt>
      <trkpt lat="43.42603" lon="16.866">
        <ele>159.02</ele>
        <time>2018-10-04T23:10:52Z</time>
      </trkpt>
      <trkpt lat="43.42602" lon="16.86601">
        <ele>159.03</ele>
        <time>2018-10-04T23:11:12Z</time>
      </trkpt>
      <trkpt lat="43.42597" lon="16.86611">
        <ele>160.089</ele>
        <time>2018-10-04T23:11:32Z</time>
      </trkpt>
      <trkpt lat="43.42592" lon="16.86616">
        <ele>161.024</ele>
        <time>2018-10-04T23:11:52Z</time>
      </trkpt>
      <trkpt lat="43.42587" lon="16.86619">
        <ele>163.004</ele>
        <time>2018-10-04T23:12:12Z</time>
      </trkpt>
      <trkpt lat="43.42563" lon="16.86614">
        <ele>164.014</ele>
        <time>2018-10-04T23:12:32Z</time>
      </trkpt>
      <trkpt lat="43.42541" lon="16.86609">
        <ele>164.008</ele>
        <time>2018-10-04T23:12:52Z</time>
      </trkpt>
      <trkpt lat="43.42536" lon="16.8661">
        <ele>164.014</ele>
        <time>2018-10-04T23:13:12Z</time>
      </trkpt>
      <trkpt lat="43.42532" lon="16.8661">
        <ele>165.061</ele>
        <time>2018-10-04T23:13:32Z</time>
      </trkpt>
      <trkpt lat="43.42516" lon="16.86623">
        <ele>166.034</ele>
        <time>2018-10-04T23:13:52Z</time>
      </trkpt>
      <trkpt lat="43.42503" lon="16.86643">
        <ele>165.076</ele>
        <time>2018-10-04T23:14:12Z</time>
      </trkpt>
      <trkpt lat="43.42491" lon="16.86657">
        <ele>164.094</ele>
        <time>2018-10-04T23:14:32Z</time>
      </trkpt>
      <trkpt lat="43.4248" lon="16.86676">
        <ele>163.095</ele>
        <time>2018-10-04T23:14:52Z</time>
      </trkpt>
      <trkpt lat="43.42467" lon="16.86696">
        <ele>163.065</ele>
        <time>2018-10-04T23:15:12Z</time>
      </trkpt>
      <trkpt lat="43.42454" lon="16.86713">
        <ele>164.074</ele>
        <time>2018-10-04T23:15:32Z</time>
      </trkpt>
      <trkpt lat="43.42442" lon="16.86727">
        <ele>165.077</ele>
        <time>2018-10-04T23:15:52Z</time>
      </trkpt>
      <trkpt lat="43.42424" lon="16.86742">
        <ele>165.061</ele>
        <time>2018-10-04T23:16:12Z</time>
      </trkpt>
      <trkpt lat="43.42411" lon="16.86762">
        <ele>165.027</ele>
        <time>2018-10-04T23:16:32Z</time>
      </trkpt>
      <trkpt lat="43.42399" lon="16.86785">
        <ele>166.008</ele>
        <time>2018-10-04T23:16:52Z</time>
      </trkpt>
      <trkpt lat="43.42389" lon="16.86808">
        <ele>165.039</ele>
        <time>2018-10-04T23:17:12Z</time>
      </trkpt>
      <trkpt lat="43.4238" lon="16.8683">
        <ele>166.046</ele>
        <time>2018-10-04T23:17:32Z</time>
      </trkpt>
      <trkpt lat="43.42364" lon="16.86837">
        <ele>166.039</ele>
        <time>2018-10-04T23:17:52Z</time>
      </trkpt>
      <trkpt lat="43.4236" lon="16.86837">
        <ele>165.041</ele>
        <time>2018-10-04T23:18:12Z</time>
      </trkpt>
      <trkpt lat="43.42354" lon="16.86845">
        <ele>165.019</ele>
        <time>2018-10-04T23:18:32Z</time>
      </trkpt>
      <trkpt lat="43.4234" lon="16.86865">
        <ele>164.01</ele>
        <time>2018-10-04T23:18:52Z</time>
      </trkpt>
      <trkpt lat="43.4233" lon="16.86878">
        <ele>164.03</ele>
        <time>2018-10-04T23:19:12Z</time>
      </trkpt>
      <trkpt lat="43.42317" lon="16.86896">
        <ele>163.059</ele>
        <time>2018-10-04T23:19:32Z</time>
      </trkpt>
      <trkpt lat="43.42307" lon="16.86911">
        <ele>163.029</ele>
        <time>2018-10-04T23:19:52Z</time>
      </trkpt>
      <trkpt lat="43.42298" lon="16.86924">
        <ele>162</ele>
        <time>2018-10-04T23:20:12Z</time>
      </trkpt>
      <trkpt lat="43.42289" lon="16.86948">
        <ele>162.02</ele>
        <time>2018-10-04T23:20:32Z</time>
      </trkpt>
      <trkpt lat="43.42284" lon="16.86975">
        <ele>162.008</ele>
        <time>2018-10-04T23:20:52Z</time>
      </trkpt>
      <trkpt lat="43.4228" lon="16.87002">
        <ele>162.044</ele>
        <time>2018-10-04T23:21:12Z</time>
      </trkpt>
      <trkpt lat="43.42276" lon="16.87033">
        <ele>162.011</ele>
        <time>2018-10-04T23:21:32Z</time>
      </trkpt>
      <trkpt lat="43.42279" lon="16.87055">
        <ele>163.084</ele>
        <time>2018-10-04T23:21:52Z</time>
      </trkpt>
      <trkpt lat="43.42282" lon="16.87072">
        <ele>163.056</ele>
        <time>2018-10-04T23:22:12Z</time>
      </trkpt>
      <trkpt lat="43.42286" lon="16.87087">
        <ele>162.084</ele>
        <time>2018-10-04T23:22:32Z</time>
      </trkpt>
      <trkpt lat="43.42276" lon="16.87108">
        <ele>163.015</ele>
        <time>2018-10-04T23:22:52Z</time>
      </trkpt>
      <trkpt lat="43.42276" lon="16.8711">
        <ele>163.025</ele>
        <time>2018-10-04T23:23:12Z</time>
      </trkpt>
      <trkpt lat="43.42279" lon="16.87105">
        <ele>163.044</ele>
        <time>2018-10-04T23:23:32Z</time>
      </trkpt>
      <trkpt lat="43.42279" lon="16.87086">
        <ele>163.057</ele>
        <time>2018-10-04T23:23:52Z</time>
      </trkpt>
      <trkpt lat="43.42275" lon="16.8708">
        <ele>163</ele>
        <time>2018-10-04T23:24:12Z</time>
      </trkpt>
      <trkpt lat="43.42268" lon="16.87057">
        <ele>163.02</ele>
        <time>2018-10-04T23:24:32Z</time>
      </trkpt>
      <trkpt lat="43.42258" lon="16.87032">
        <ele>164.008</ele>
        <time>2018-10-04T23:24:52Z</time>
      </trkpt>
      <trkpt lat="43.42246" lon="16.87009">
        <ele>165.017</ele>
        <time>2018-10-04T23:25:12Z</time>
      </trkpt>
      <trkpt lat="43.42239" lon="16.86993">
        <ele>166.024</ele>
        <time>2018-10-04T23:25:32Z</time>
      </trkpt>
      <trkpt lat="43.42232" lon="16.86981">
        <ele>167.087</ele>
        <time>2018-10-04T23:25:52Z</time>
      </trkpt>
      <trkpt lat="43.42227" lon="16.86971">
        <ele>168.039</ele>
        <time>2018-10-04T23:26:12Z</time>
      </trkpt>
      <trkpt lat="43.42222" lon="16.86963">
        <ele>168.057</ele>
        <time>2018-10-04T23:26:32Z</time>
      </trkpt>
      <trkpt lat="43.4222" lon="16.86962">
        <ele>168.048</ele>
        <time>2018-10-04T23:26:52Z</time>
      </trkpt>
      <trkpt lat="43.42219" lon="16.86958">
        <ele>169.078</ele>
        <time>2018-10-04T23:27:12Z</time>
      </trkpt>
      <trkpt lat="43.42217" lon="16.8695">
        <ele>171.017</ele>
        <time>2018-10-04T23:27:32Z</time>
      </trkpt>
      <trkpt lat="43.42215" lon="16.86947">
        <ele>171.077</ele>
        <time>2018-10-04T23:27:52Z</time>
      </trkpt>
      <trkpt lat="43.42214" lon="16.86947">
        <ele>172.061</ele>
        <time>2018-10-04T23:28:12Z</time>
      </trkpt>
      <trkpt lat="43.42211" lon="16.86946">
        <ele>172.027</ele>
        <time>2018-10-04T23:28:32Z</time>
      </trkpt>
      <trkpt lat="43.42208" lon="16.86944">
        <ele>173.008</ele>
        <time>2018-10-04T23:28:52Z</time>
      </trkpt>
      <trkpt lat="43.42206" lon="16.86941">
        <ele>174.069</ele>
        <time>2018-10-04T23:29:12Z</time>
      </trkpt>
      <trkpt lat="43.42202" lon="16.86933">
        <ele>176.056</ele>
        <time>2018-10-04T23:29:32Z</time>
      </trkpt>
      <trkpt lat="43.42201" lon="16.86927">
        <ele>177.079</ele>
        <time>2018-10-04T23:29:52Z</time>
      </trkpt>
      <trkpt lat="43.42196" lon="16.86925">
        <ele>178.091</ele>
        <time>2018-10-04T23:30:12Z</time>
      </trkpt>
      <trkpt lat="43.42192" lon="16.86925">
        <ele>178.019</ele>
        <time>2018-10-04T23:30:32Z</time>
      </trkpt>
      <trkpt lat="43.42189" lon="16.86926">
        <ele>179.07</ele>
        <time>2018-10-04T23:30:52Z</time>
      </trkpt>
      <trkpt lat="43.42187" lon="16.86926">
        <ele>180.07</ele>
        <time>2018-10-04T23:31:12Z</time>
      </trkpt>
      <trkpt lat="43.42179" lon="16.86924">
        <ele>181.019</ele>
        <time>2018-10-04T23:31:32Z</time>
      </trkpt>
      <trkpt lat="43.42171" lon="16.86925">
        <ele>182.024</ele>
        <time>2018-10-04T23:31:52Z</time>
      </trkpt>
      <trkpt lat="43.42168" lon="16.86925">
        <ele>183.004</ele>
        <time>2018-10-04T23:32:12Z</time>
      </trkpt>
      <trkpt lat="43.42167" lon="16.86924">
        <ele>183.014</ele>
        <time>2018-10-04T23:32:32Z</time>
      </trkpt>
      <trkpt lat="43.42158" lon="16.86924">
        <ele>184.008</ele>
        <time>2018-10-04T23:32:52Z</time>
      </trkpt>
      <trkpt lat="43.42155" lon="16.86921">
        <ele>186.074</ele>
        <time>2018-10-04T23:33:12Z</time>
      </trkpt>
      <trkpt lat="43.42153" lon="16.86919">
        <ele>187.071</ele>
        <time>2018-10-04T23:33:32Z</time>
      </trkpt>
      <trkpt lat="43.42148" lon="16.86906">
        <ele>190.084</ele>
        <time>2018-10-04T23:33:52Z</time>
      </trkpt>
      <trkpt lat="43.42149" lon="16.86896">
        <ele>191.066</ele>
        <time>2018-10-04T23:34:12Z</time>
      </trkpt>
      <trkpt lat="43.42151" lon="16.86888">
        <ele>192.054</ele>
        <time>2018-10-04T23:34:32Z</time>
      </trkpt>
      <trkpt lat="43.42153" lon="16.86882">
        <ele>193.045</ele>
        <time>2018-10-04T23:34:52Z</time>
      </trkpt>
      <trkpt lat="43.42156" lon="16.86876">
        <ele>194.045</ele>
        <time>2018-10-04T23:35:12Z</time>
      </trkpt>
      <trkpt lat="43.42158" lon="16.86873">
        <ele>195.074</ele>
        <time>2018-10-04T23:35:32Z</time>
      </trkpt>
      <trkpt lat="43.42162" lon="16.86871">
        <ele>197.078</ele>
        <time>2018-10-04T23:35:52Z</time>
      </trkpt>
      <trkpt lat="43.42169" lon="16.86869">
        <ele>198.033</ele>
        <time>2018-10-04T23:36:12Z</time>
      </trkpt>
      <trkpt lat="43.42177" lon="16.86863">
        <ele>199.026</ele>
        <time>2018-10-04T23:36:32Z</time>
      </trkpt>
      <trkpt lat="43.42183" lon="16.86855">
        <ele>200.008</ele>
        <time>2018-10-04T23:36:52Z</time>
      </trkpt>
      <trkpt lat="43.42185" lon="16.86847">
        <ele>201.019</ele>
        <time>2018-10-04T23:37:12Z</time>
      </trkpt>
      <trkpt lat="43.42181" lon="16.86843">
        <ele>202.056</ele>
        <time>2018-10-04T23:37:32Z</time>
      </trkpt>
      <trkpt lat="43.42177" lon="16.86844">
        <ele>204.039</ele>
        <time>2018-10-04T23:37:52Z</time>
      </trkpt>
      <trkpt lat="43.42175" lon="16.86844">
        <ele>204.041</ele>
        <time>2018-10-04T23:38:12Z</time>
      </trkpt>
      <trkpt lat="43.42171" lon="16.86843">
        <ele>205.049</ele>
        <time>2018-10-04T23:38:32Z</time>
      </trkpt>
      <trkpt lat="43.42166" lon="16.8684">
        <ele>206.06</ele>
        <time>2018-10-04T23:38:52Z</time>
      </trkpt>
      <trkpt lat="43.42162" lon="16.8684">
        <ele>207.07</ele>
        <time>2018-10-04T23:39:12Z</time>
      </trkpt>
      <trkpt lat="43.42158" lon="16.8684">
        <ele>208.049</ele>
        <time>2018-10-04T23:39:32Z</time>
      </trkpt>
      <trkpt lat="43.42153" lon="16.86838">
        <ele>209.098</ele>
        <time>2018-10-04T23:39:52Z</time>
      </trkpt>
      <trkpt lat="43.4215" lon="16.86837">
        <ele>210.015</ele>
        <time>2018-10-04T23:40:12Z</time>
      </trkpt>
      <trkpt lat="43.42146" lon="16.86836">
        <ele>210.026</ele>
        <time>2018-10-04T23:40:32Z</time>
      </trkpt>
      <trkpt lat="43.42139" lon="16.86836">
        <ele>212.008</ele>
        <time>2018-10-04T23:40:52Z</time>
      </trkpt>
      <trkpt lat="43.42132" lon="16.86839">
        <ele>213.011</ele>
        <time>2018-10-04T23:41:12Z</time>
      </trkpt>
      <trkpt lat="43.42128" lon="16.86842">
        <ele>214.028</ele>
        <time>2018-10-04T23:41:32Z</time>
      </trkpt>
      <trkpt lat="43.42123" lon="16.86845">
        <ele>215.031</ele>
        <time>2018-10-04T23:41:52Z</time>
      </trkpt>
      <trkpt lat="43.42118" lon="16.86847">
        <ele>217.083</ele>
        <time>2018-10-04T23:42:12Z</time>
      </trkpt>
      <trkpt lat="43.42116" lon="16.86847">
        <ele>217.061</ele>
        <time>2018-10-04T23:42:32Z</time>
      </trkpt>
      <trkpt lat="43.42113" lon="16.86848">
        <ele>218.052</ele>
        <time>2018-10-04T23:42:52Z</time>
      </trkpt>
      <trkpt lat="43.42109" lon="16.8685">
        <ele>219.022</ele>
        <time>2018-10-04T23:43:12Z</time>
      </trkpt>
      <trkpt lat="43.42107" lon="16.86851">
        <ele>219.051</ele>
        <time>2018-10-04T23:43:32Z</time>
      </trkpt>
      <trkpt lat="43.42106" lon="16.86852">
        <ele>219.075</ele>
        <time>2018-10-04T23:43:52Z</time>
      </trkpt>
      <trkpt lat="43.42105" lon="16.8685">
        <ele>220.028</ele>
        <time>2018-10-04T23:44:12Z</time>
      </trkpt>
      <trkpt lat="43.42106" lon="16.86841">
        <ele>222.02</ele>
        <time>2018-10-04T23:44:32Z</time>
      </trkpt>
      <trkpt lat="43.42108" lon="16.86834">
        <ele>223.008</ele>
        <time>2018-10-04T23:44:52Z</time>
      </trkpt>
      <trkpt lat="43.42109" lon="16.86829">
        <ele>224.059</ele>
        <time>2018-10-04T23:45:12Z</time>
      </trkpt>
      <trkpt lat="43.4211" lon="16.86826">
        <ele>224.026</ele>
        <time>2018-10-04T23:45:32Z</time>
      </trkpt>
      <trkpt lat="43.42106" lon="16.86823">
        <ele>225.069</ele>
        <time>2018-10-04T23:45:52Z</time>
      </trkpt>
      <trkpt lat="43.42101" lon="16.86825">
        <ele>226.091</ele>
        <time>2018-10-04T23:46:12Z</time>
      </trkpt>
      <trkpt lat="43.42097" lon="16.86828">
        <ele>228.089</ele>
        <time>2018-10-04T23:46:32Z</time>
      </trkpt>
      <trkpt lat="43.42094" lon="16.86832">
        <ele>229.09</ele>
        <time>2018-10-04T23:46:52Z</time>
      </trkpt>
      <trkpt lat="43.42089" lon="16.86835">
        <ele>230.03</ele>
        <time>2018-10-04T23:47:12Z</time>
      </trkpt>
      <trkpt lat="43.42089" lon="16.86836">
        <ele>230.019</ele>
        <time>2018-10-04T23:47:32Z</time>
      </trkpt>
      <trkpt lat="43.42084" lon="16.86836">
        <ele>232.056</ele>
        <time>2018-10-04T23:47:52Z</time>
      </trkpt>
      <trkpt lat="43.42079" lon="16.86834">
        <ele>233.059</ele>
        <time>2018-10-04T23:48:12Z</time>
      </trkpt>
      <trkpt lat="43.42074" lon="16.8683">
        <ele>235.014</ele>
        <time>2018-10-04T23:48:32Z</time>
      </trkpt>
      <trkpt lat="43.42073" lon="16.86828">
        <ele>235.008</ele>
        <time>2018-10-04T23:48:52Z</time>
      </trkpt>
      <trkpt lat="43.42066" lon="16.86824">
        <ele>235.067</ele>
        <time>2018-10-04T23:49:12Z</time>
      </trkpt>
      <trkpt lat="43.42062" lon="16.86821">
        <ele>236.044</ele>
        <time>2018-10-04T23:49:32Z</time>
      </trkpt>
      <trkpt lat="43.4206" lon="16.86818">
        <ele>236.017</ele>
        <time>2018-10-04T23:49:52Z</time>
      </trkpt>
      <trkpt lat="43.42045" lon="16.86799">
        <ele>235.089</ele>
        <time>2018-10-04T23:50:12Z</time>
      </trkpt>
      <trkpt lat="43.42032" lon="16.86786">
        <ele>235.017</ele>
        <time>2018-10-04T23:50:32Z</time>
      </trkpt>
      <trkpt lat="43.4203" lon="16.86781">
        <ele>235.058</ele>
        <time>2018-10-04T23:50:52Z</time>
      </trkpt>
      <trkpt lat="43.42023" lon="16.86769">
        <ele>235.038</ele>
        <time>2018-10-04T23:51:12Z</time>
      </trkpt>
      <trkpt lat="43.42009" lon="16.86754">
        <ele>236.027</ele>
        <time>2018-10-04T23:51:32Z</time>
      </trkpt>
      <trkpt lat="43.41993" lon="16.86741">
        <ele>236.076</ele>
        <time>2018-10-04T23:51:52Z</time>
      </trkpt>
      <trkpt lat="43.41981" lon="16.86729">
        <ele>235.09</ele>
        <time>2018-10-04T23:52:12Z</time>
      </trkpt>
      <trkpt lat="43.41965" lon="16.8671">
        <ele>234.019</ele>
        <time>2018-10-04T23:52:32Z</time>
      </trkpt>
      <trkpt lat="43.41964" lon="16.86709">
        <ele>234.008</ele>
        <time>2018-10-04T23:52:52Z</time>
      </trkpt>
      <trkpt lat="43.4196" lon="16.867">
        <ele>234.029</ele>
        <time>2018-10-04T23:53:12Z</time>
      </trkpt>
      <trkpt lat="43.41957" lon="16.86694">
        <ele>235.036</ele>
        <time>2018-10-04T23:53:32Z</time>
      </trkpt>
      <trkpt lat="43.41955" lon="16.86689">
        <ele>234.049</ele>
        <time>2018-10-04T23:53:52Z</time>
      </trkpt>
      <trkpt lat="43.4195" lon="16.86677">
        <ele>234.061</ele>
        <time>2018-10-04T23:54:12Z</time>
      </trkpt>
      <trkpt lat="43.41937" lon="16.86657">
        <ele>233.059</ele>
        <time>2018-10-04T23:54:32Z</time>
      </trkpt>
      <trkpt lat="43.41925" lon="16.86638">
        <ele>235.05</ele>
        <time>2018-10-04T23:54:52Z</time>
      </trkpt>
      <trkpt lat="43.41918" lon="16.86632">
        <ele>235.05</ele>
        <time>2018-10-04T23:55:12Z</time>
      </trkpt>
      <trkpt lat="43.41907" lon="16.86636">
        <ele>235.029</ele>
        <time>2018-10-04T23:55:32Z</time>
      </trkpt>
      <trkpt lat="43.41903" lon="16.86634">
        <ele>235.039</ele>
        <time>2018-10-04T23:55:52Z</time>
      </trkpt>
      <trkpt lat="43.419" lon="16.86632">
        <ele>235.001</ele>
        <time>2018-10-04T23:56:12Z</time>
      </trkpt>
      <trkpt lat="43.41885" lon="16.86614">
        <ele>235.021</ele>
        <time>2018-10-04T23:56:32Z</time>
      </trkpt>
      <trkpt lat="43.41873" lon="16.86594">
        <ele>235.008</ele>
        <time>2018-10-04T23:56:52Z</time>
      </trkpt>
      <trkpt lat="43.41865" lon="16.8657">
        <ele>235.015</ele>
        <time>2018-10-04T23:57:12Z</time>
      </trkpt>
      <trkpt lat="43.4186" lon="16.86547">
        <ele>236.062</ele>
        <time>2018-10-04T23:57:32Z</time>
      </trkpt>
      <trkpt lat="43.41849" lon="16.86525">
        <ele>236.055</ele>
        <time>2018-10-04T23:57:52Z</time>
      </trkpt>
      <trkpt lat="43.41835" lon="16.86508">
        <ele>237.057</ele>
        <time>2018-10-04T23:58:12Z</time>
      </trkpt>
      <trkpt lat="43.41825" lon="16.86495">
        <ele>238.025</ele>
        <time>2018-10-04T23:58:32Z</time>
      </trkpt>
      <trkpt lat="43.4182" lon="16.8647">
        <ele>238.036</ele>
        <time>2018-10-04T23:58:52Z</time>
      </trkpt>
      <trkpt lat="43.41815" lon="16.86445">
        <ele>238.076</ele>
        <time>2018-10-04T23:59:12Z</time>
      </trkpt>
      <trkpt lat="43.41804" lon="16.86424">
        <ele>237.085</ele>
        <time>2018-10-04T23:59:32Z</time>
      </trkpt>
      <trkpt lat="43.41806" lon="16.864">
        <ele>237.071</ele>
        <time>2018-10-04T23:59:52Z</time>
      </trkpt>
      <trkpt lat="43.41809" lon="16.86388">
        <ele>237.041</ele>
        <time>2018-10-05T00:00:12Z</time>
      </trkpt>
      <trkpt lat="43.41813" lon="16.86361">
        <ele>236.015</ele>
        <time>2018-10-05T00:00:32Z</time>
      </trkpt>
      <trkpt lat="43.41818" lon="16.86334">
        <ele>236.008</ele>
        <time>2018-10-05T00:00:52Z</time>
      </trkpt>
      <trkpt lat="43.41824" lon="16.8631">
        <ele>235.099</ele>
        <time>2018-10-05T00:01:12Z</time>
      </trkpt>
      <trkpt lat="43.41834" lon="16.86286">
        <ele>235.076</ele>
        <time>2018-10-05T00:01:32Z</time>
      </trkpt>
      <trkpt lat="43.4184" lon="16.86266">
        <ele>234.049</ele>
        <time>2018-10-05T00:01:52Z</time>
      </trkpt>
      <trkpt lat="43.41843" lon="16.86248">
        <ele>233.081</ele>
        <time>2018-10-05T00:02:12Z</time>
      </trkpt>
      <trkpt lat="43.41837" lon="16.86229">
        <ele>232.099</ele>
        <time>2018-10-05T00:02:32Z</time>
      </trkpt>
      <trkpt lat="43.41833" lon="16.86203">
        <ele>232.01</ele>
        <time>2018-10-05T00:02:52Z</time>
      </trkpt>
      <trkpt lat="43.41832" lon="16.86177">
        <ele>233.03</ele>
        <time>2018-10-05T00:03:12Z</time>
      </trkpt>
      <trkpt lat="43.41832" lon="16.86144">
        <ele>233.049</ele>
        <time>2018-10-05T00:03:32Z</time>
      </trkpt>
      <trkpt lat="43.41833" lon="16.86117">
        <ele>234.019</ele>
        <time>2018-10-05T00:03:52Z</time>
      </trkpt>
      <trkpt lat="43.41836" lon="16.86104">
        <ele>234.009</ele>
        <time>2018-10-05T00:04:12Z</time>
      </trkpt>
      <trkpt lat="43.41839" lon="16.86075">
        <ele>235.019</ele>
        <time>2018-10-05T00:04:32Z</time>
      </trkpt>
      <trkpt lat="43.41844" lon="16.86055">
        <ele>237.008</ele>
        <time>2018-10-05T00:04:52Z</time>
      </trkpt>
      <trkpt lat="43.41849" lon="16.86031">
        <ele>237.033</ele>
        <time>2018-10-05T00:05:12Z</time>
      </trkpt>
      <trkpt lat="43.41868" lon="16.86017">
        <ele>238.03</ele>
        <time>2018-10-05T00:05:32Z</time>
      </trkpt>
      <trkpt lat="43.41885" lon="16.86007">
        <ele>237.033</ele>
        <time>2018-10-05T00:05:52Z</time>
      </trkpt>
      <trkpt lat="43.419" lon="16.85993">
        <ele>238.095</ele>
        <time>2018-10-05T00:06:12Z</time>
      </trkpt>
      <trkpt lat="43.41911" lon="16.85978">
        <ele>239.033</ele>
        <time>2018-10-05T00:06:32Z</time>
      </trkpt>
      <trkpt lat="43.41908" lon="16.85959">
        <ele>240.044</ele>
        <time>2018-10-05T00:06:52Z</time>
      </trkpt>
      <trkpt lat="43.41905" lon="16.85948">
        <ele>241.014</ele>
        <time>2018-10-05T00:07:12Z</time>
      </trkpt>
      <trkpt lat="43.41901" lon="16.85935">
        <ele>242.043</ele>
        <time>2018-10-05T00:07:32Z</time>
      </trkpt>
      <trkpt lat="43.41892" lon="16.85913">
        <ele>243.069</ele>
        <time>2018-10-05T00:07:52Z</time>
      </trkpt>
      <trkpt lat="43.41883" lon="16.8589">
        <ele>243.004</ele>
        <time>2018-10-05T00:08:12Z</time>
      </trkpt>
      <trkpt lat="43.41879" lon="16.85864">
        <ele>243.024</ele>
        <time>2018-10-05T00:08:32Z</time>
      </trkpt>
      <trkpt lat="43.41874" lon="16.85837">
        <ele>243.008</ele>
        <time>2018-10-05T00:08:52Z</time>
      </trkpt>
      <trkpt lat="43.4187" lon="16.85823">
        <ele>244.088</ele>
        <time>2018-10-05T00:09:12Z</time>
      </trkpt>
      <trkpt lat="43.41864" lon="16.85805">
        <ele>245.045</ele>
        <time>2018-10-05T00:09:32Z</time>
      </trkpt>
      <trkpt lat="43.4186" lon="16.85787">
        <ele>246.068</ele>
        <time>2018-10-05T00:09:52Z</time>
      </trkpt>
      <trkpt lat="43.41857" lon="16.85772">
        <ele>247.09</ele>
        <time>2018-10-05T00:10:12Z</time>
      </trkpt>
      <trkpt lat="43.41853" lon="16.85755">
        <ele>248.068</ele>
        <time>2018-10-05T00:10:32Z</time>
      </trkpt>
      <trkpt lat="43.41852" lon="16.85736">
        <ele>249.099</ele>
        <time>2018-10-05T00:10:52Z</time>
      </trkpt>
      <trkpt lat="43.41851" lon="16.85711">
        <ele>250.029</ele>
        <time>2018-10-05T00:11:12Z</time>
      </trkpt>
      <trkpt lat="43.41847" lon="16.85691">
        <ele>252.038</ele>
        <time>2018-10-05T00:11:32Z</time>
      </trkpt>
      <trkpt lat="43.41842" lon="16.85682">
        <ele>252.025</ele>
        <time>2018-10-05T00:11:52Z</time>
      </trkpt>
      <trkpt lat="43.41836" lon="16.85669">
        <ele>253.026</ele>
        <time>2018-10-05T00:12:12Z</time>
      </trkpt>
      <trkpt lat="43.41833" lon="16.85665">
        <ele>253.008</ele>
        <time>2018-10-05T00:12:32Z</time>
      </trkpt>
      <trkpt lat="43.41832" lon="16.85664">
        <ele>254.008</ele>
        <time>2018-10-05T00:12:52Z</time>
      </trkpt>
      <trkpt lat="43.41824" lon="16.85654">
        <ele>255.094</ele>
        <time>2018-10-05T00:13:12Z</time>
      </trkpt>
      <trkpt lat="43.41818" lon="16.85647">
        <ele>256.081</ele>
        <time>2018-10-05T00:13:32Z</time>
      </trkpt>
      <trkpt lat="43.41814" lon="16.85642">
        <ele>257.064</ele>
        <time>2018-10-05T00:13:52Z</time>
      </trkpt>
      <trkpt lat="43.41811" lon="16.85642">
        <ele>257.056</ele>
        <time>2018-10-05T00:14:12Z</time>
      </trkpt>
      <trkpt lat="43.41811" lon="16.85642">
        <ele>257.014</ele>
        <time>2018-10-05T00:14:32Z</time>
      </trkpt>
      <trkpt lat="43.41805" lon="16.8564">
        <ele>258.065</ele>
        <time>2018-10-05T00:14:52Z</time>
      </trkpt>
      <trkpt lat="43.41788" lon="16.85631">
        <ele>259.075</ele>
        <time>2018-10-05T00:15:12Z</time>
      </trkpt>
      <trkpt lat="43.41771" lon="16.8562">
        <ele>260.094</ele>
        <time>2018-10-05T00:15:32Z</time>
      </trkpt>
      <trkpt lat="43.4175" lon="16.85617">
        <ele>258.064</ele>
        <time>2018-10-05T00:15:52Z</time>
      </trkpt>
      <trkpt lat="43.41741" lon="16.85613">
        <ele>257.006</ele>
        <time>2018-10-05T00:16:12Z</time>
      </trkpt>
      <trkpt lat="43.41733" lon="16.85609">
        <ele>256.016</ele>
        <time>2018-10-05T00:16:32Z</time>
      </trkpt>
      <trkpt lat="43.41724" lon="16.85603">
        <ele>254.008</ele>
        <time>2018-10-05T00:16:52Z</time>
      </trkpt>
      <trkpt lat="43.41713" lon="16.85594">
        <ele>253.018</ele>
        <time>2018-10-05T00:17:12Z</time>
      </trkpt>
      <trkpt lat="43.417" lon="16.85587">
        <ele>252.025</ele>
        <time>2018-10-05T00:17:32Z</time>
      </trkpt>
      <trkpt lat="43.41688" lon="16.85582">
        <ele>251.088</ele>
        <time>2018-10-05T00:17:52Z</time>
      </trkpt>
      <trkpt lat="43.41674" lon="16.85574">
        <ele>250.03</ele>
        <time>2018-10-05T00:18:12Z</time>
      </trkpt>
      <trkpt lat="43.41663" lon="16.85567">
        <ele>249.018</ele>
        <time>2018-10-05T00:18:32Z</time>
      </trkpt>
      <trkpt lat="43.41642" lon="16.85551">
        <ele>247.079</ele>
        <time>2018-10-05T00:18:52Z</time>
      </trkpt>
      <trkpt lat="43.41631" lon="16.85544">
        <ele>246.079</ele>
        <time>2018-10-05T00:19:12Z</time>
      </trkpt>
      <trkpt lat="43.41613" lon="16.85536">
        <ele>245.078</ele>
        <time>2018-10-05T00:19:32Z</time>
      </trkpt>
      <trkpt lat="43.41597" lon="16.85527">
        <ele>247.046</ele>
        <time>2018-10-05T00:19:52Z</time>
      </trkpt>
      <trkpt lat="43.41586" lon="16.85519">
        <ele>248.088</ele>
        <time>2018-10-05T00:20:12Z</time>
      </trkpt>
      <trkpt lat="43.41582" lon="16.85517">
        <ele>249.016</ele>
        <time>2018-10-05T00:20:32Z</time>
      </trkpt>
      <trkpt lat="43.41571" lon="16.8552">
        <ele>251.008</ele>
        <time>2018-10-05T00:20:52Z</time>
      </trkpt>
      <trkpt lat="43.41566" lon="16.85522">
        <ele>252.076</ele>
        <time>2018-10-05T00:21:12Z</time>
      </trkpt>
      <trkpt lat="43.41556" lon="16.85519">
        <ele>254.023</ele>
        <time>2018-10-05T00:21:32Z</time>
      </trkpt>
      <trkpt lat="43.41555" lon="16.85519">
        <ele>254.026</ele>
        <time>2018-10-05T00:21:52Z</time>
      </trkpt>
      <trkpt lat="43.41547" lon="16.85521">
        <ele>255.028</ele>
        <time>2018-10-05T00:22:12Z</time>
      </trkpt>
      <trkpt lat="43.41546" lon="16.85522">
        <ele>255.066</ele>
        <time>2018-10-05T00:22:32Z</time>
      </trkpt>
      <trkpt lat="43.41539" lon="16.85526">
        <ele>256.037</ele>
        <time>2018-10-05T00:22:52Z</time>
      </trkpt>
      <trkpt lat="43.41536" lon="16.85532">
        <ele>257.097</ele>
        <time>2018-10-05T00:23:12Z</time>
      </trkpt>
      <trkpt lat="43.41533" lon="16.85535">
        <ele>257.046</ele>
        <time>2018-10-05T00:23:32Z</time>
      </trkpt>
      <trkpt lat="43.41524" lon="16.85547">
        <ele>258.083</ele>
        <time>2018-10-05T00:23:52Z</time>
      </trkpt>
      <trkpt lat="43.4152" lon="16.8555">
        <ele>258.025</ele>
        <time>2018-10-05T00:24:12Z</time>
      </trkpt>
      <trkpt lat="43.41512" lon="16.85556">
        <ele>259.017</ele>
        <time>2018-10-05T00:24:32Z</time>
      </trkpt>
      <trkpt lat="43.41498" lon="16.85557">
        <ele>261.008</ele>
        <time>2018-10-05T00:24:52Z</time>
      </trkpt>
      <trkpt lat="43.41488" lon="16.85554">
        <ele>262.03</ele>
        <time>2018-10-05T00:25:12Z</time>
      </trkpt>
      <trkpt lat="43.41479" lon="16.85552">
        <ele>263.027</ele>
        <time>2018-10-05T00:25:32Z</time>
      </trkpt>
      <trkpt lat="43.41477" lon="16.85553">
        <ele>264.02</ele>
        <time>2018-10-05T00:25:52Z</time>
      </trkpt>
      <trkpt lat="43.41483" lon="16.85563">
        <ele>264.032</ele>
        <time>2018-10-05T00:26:12Z</time>
      </trkpt>
      <trkpt lat="43.41486" lon="16.85569">
        <ele>265.08</ele>
        <time>2018-10-05T00:26:32Z</time>
      </trkpt>
      <trkpt lat="43.41486" lon="16.8557">
        <ele>265.051</ele>
        <time>2018-10-05T00:26:52Z</time>
      </trkpt>
      <trkpt lat="43.41488" lon="16.85576">
        <ele>266.061</ele>
        <time>2018-10-05T00:27:12Z</time>
      </trkpt>
      <trkpt lat="43.4149" lon="16.85583">
        <ele>267.08</ele>
        <time>2018-10-05T00:27:32Z</time>
      </trkpt>
      <trkpt lat="43.41492" lon="16.85586">
        <ele>267.022</ele>
        <time>2018-10-05T00:27:52Z</time>
      </trkpt>
      <trkpt lat="43.41493" lon="16.85589">
        <ele>268.062</ele>
        <time>2018-10-05T00:28:12Z</time>
      </trkpt>
      <trkpt lat="43.41494" lon="16.85594">
        <ele>269.008</ele>
        <time>2018-10-05T00:28:32Z</time>
      </trkpt>
      <trkpt lat="43.41493" lon="16.85598">
        <ele>270.008</ele>
        <time>2018-10-05T00:28:52Z</time>
      </trkpt>
      <trkpt lat="43.41492" lon="16.856">
        <ele>270.054</ele>
        <time>2018-10-05T00:29:12Z</time>
      </trkpt>
      <trkpt lat="43.4149" lon="16.85603">
        <ele>272.021</ele>
        <time>2018-10-05T00:29:32Z</time>
      </trkpt>
      <trkpt lat="43.41479" lon="16.85604">
        <ele>273.044</ele>
        <time>2018-10-05T00:29:52Z</time>
      </trkpt>
      <trkpt lat="43.41475" lon="16.85605">
        <ele>274.046</ele>
        <time>2018-10-05T00:30:12Z</time>
      </trkpt>
      <trkpt lat="43.41474" lon="16.85609">
        <ele>275.084</ele>
        <time>2018-10-05T00:30:32Z</time>
      </trkpt>
      <trkpt lat="43.41474" lon="16.85615">
        <ele>276.055</ele>
        <time>2018-10-05T00:30:52Z</time>
      </trkpt>
      <trkpt lat="43.41475" lon="16.85616">
        <ele>277.095</ele>
        <time>2018-10-05T00:31:12Z</time>
      </trkpt>
      <trkpt lat="43.41477" lon="16.85618">
        <ele>277.054</ele>
        <time>2018-10-05T00:31:32Z</time>
      </trkpt>
      <trkpt lat="43.41482" lon="16.85621">
        <ele>278.042</ele>
        <time>2018-10-05T00:31:52Z</time>
      </trkpt>
      <trkpt lat="43.41483" lon="16.85622">
        <ele>278.022</ele>
        <time>2018-10-05T00:32:12Z</time>
      </trkpt>
      <trkpt lat="43.4149" lon="16.85623">
        <ele>279.014</ele>
        <time>2018-10-05T00:32:32Z</time>
      </trkpt>
      <trkpt lat="43.41494" lon="16.85622">
        <ele>280.008</ele>
        <time>2018-10-05T00:32:52Z</time>
      </trkpt>
      <trkpt lat="43.41495" lon="16.85622">
        <ele>280.066</ele>
        <time>2018-10-05T00:33:12Z</time>
      </trkpt>
      <trkpt lat="43.41497" lon="16.85623">
        <ele>280.043</ele>
        <time>2018-10-05T00:33:32Z</time>
      </trkpt>
      <trkpt lat="43.41497" lon="16.85624">
        <ele>281.036</ele>
        <time>2018-10-05T00:33:52Z</time>
      </trkpt>
      <trkpt lat="43.41497" lon="16.85626">
        <ele>281.088</ele>
        <time>2018-10-05T00:34:12Z</time>
      </trkpt>
      <trkpt lat="43.41498" lon="16.85628">
        <ele>282.046</ele>
        <time>2018-10-05T00:34:32Z</time>
      </trkpt>
      <trkpt lat="43.4149" lon="16.85644">
        <ele>284.087</ele>
        <time>2018-10-05T00:34:52Z</time>
      </trkpt>
      <trkpt lat="43.41487" lon="16.85647">
        <ele>285.067</ele>
        <time>2018-10-05T00:35:12Z</time>
      </trkpt>
      <trkpt lat="43.41484" lon="16.85652">
        <ele>286.036</ele>
        <time>2018-10-05T00:35:32Z</time>
      </trkpt>
      <trkpt lat="43.41483" lon="16.85654">
        <ele>287.054</ele>
        <time>2018-10-05T00:35:52Z</time>
      </trkpt>
      <trkpt lat="43.41479" lon="16.85662">
        <ele>288.056</ele>
        <time>2018-10-05T00:36:12Z</time>
      </trkpt>
      <trkpt lat="43.41478" lon="16.85666">
        <ele>289.011</ele>
        <time>2018-10-05T00:36:32Z</time>
      </trkpt>
      <trkpt lat="43.41477" lon="16.85669">
        <ele>289.008</ele>
        <time>2018-10-05T00:36:52Z</time>
      </trkpt>
      <trkpt lat="43.41476" lon="16.8567">
        <ele>290.067</ele>
        <time>2018-10-05T00:37:12Z</time>
      </trkpt>
      <trkpt lat="43.41476" lon="16.8567">
        <ele>290.054</ele>
        <time>2018-10-05T00:37:32Z</time>
      </trkpt>
      <trkpt lat="43.41474" lon="16.85669">
        <ele>291.067</ele>
        <time>2018-10-05T00:37:52Z</time>
      </trkpt>
      <trkpt lat="43.41465" lon="16.85672">
        <ele>292.049</ele>
        <time>2018-10-05T00:38:12Z</time>
      </trkpt>
      <trkpt lat="43.41461" lon="16.85678">
        <ele>294.097</ele>
        <time>2018-10-05T00:38:32Z</time>
      </trkpt>
      <trkpt lat="43.41459" lon="16.85685">
        <ele>295.048</ele>
        <time>2018-10-05T00:38:52Z</time>
      </trkpt>
      <trkpt lat="43.41458" lon="16.85687">
        <ele>295.038</ele>
        <time>2018-10-05T00:39:12Z</time>
      </trkpt>
      <trkpt lat="43.41457" lon="16.85688">
        <ele>295.057</ele>
        <time>2018-10-05T00:39:32Z</time>
      </trkpt>
      <trkpt lat="43.41452" lon="16.85691">
        <ele>296.086</ele>
        <time>2018-10-05T00:39:52Z</time>
      </trkpt>
      <trkpt lat="43.4145" lon="16.85695">
        <ele>296.06</ele>
        <time>2018-10-05T00:40:12Z</time>
      </trkpt>
      <trkpt lat="43.41447" lon="16.85698">
        <ele>297.026</ele>
        <time>2018-10-05T00:40:32Z</time>
      </trkpt>
      <trkpt lat="43.41445" lon="16.85701">
        <ele>297.008</ele>
        <time>2018-10-05T00:40:52Z</time>
      </trkpt>
      <trkpt lat="43.41443" lon="16.85708">
        <ele>298.05</ele>
        <time>2018-10-05T00:41:12Z</time>
      </trkpt>
      <trkpt lat="43.41438" lon="16.85716">
        <ele>299.097</ele>
        <time>2018-10-05T00:41:32Z</time>
      </trkpt>
      <trkpt lat="43.41435" lon="16.8572">
        <ele>299.08</ele>
        <time>2018-10-05T00:41:52Z</time>
      </trkpt>
      <trkpt lat="43.41434" lon="16.85722">
        <ele>300.092</ele>
        <time>2018-10-05T00:42:12Z</time>
      </trkpt>
      <trkpt lat="43.41432" lon="16.85726">
        <ele>301.09</ele>
        <time>2018-10-05T00:42:32Z</time>
      </trkpt>
      <trkpt lat="43.41428" lon="16.85731">
        <ele>302.061</ele>
        <time>2018-10-05T00:42:52Z</time>
      </trkpt>
      <trkpt lat="43.41426" lon="16.85736">
        <ele>302.081</ele>
        <time>2018-10-05T00:43:12Z</time>
      </trkpt>
      <trkpt lat="43.41425" lon="16.85739">
        <ele>303.07</ele>
        <time>2018-10-05T00:43:32Z</time>
      </trkpt>
      <trkpt lat="43.41425" lon="16.85745">
        <ele>304.044</ele>
        <time>2018-10-05T00:43:52Z</time>
      </trkpt>
      <trkpt lat="43.41423" lon="16.85755">
        <ele>304.005</ele>
        <time>2018-10-05T00:44:12Z</time>
      </trkpt>
      <trkpt lat="43.41421" lon="16.85762">
        <ele>305.015</ele>
        <time>2018-10-05T00:44:32Z</time>
      </trkpt>
      <trkpt lat="43.41419" lon="16.85765">
        <ele>305.008</ele>
        <time>2018-10-05T00:44:52Z</time>
      </trkpt>
      <trkpt lat="43.41418" lon="16.85767">
        <ele>306.046</ele>
        <time>2018-10-05T00:45:12Z</time>
      </trkpt>
      <trkpt lat="43.41416" lon="16.85772">
        <ele>307.053</ele>
        <time>2018-10-05T00:45:32Z</time>
      </trkpt>
      <trkpt lat="43.41416" lon="16.85776">
        <ele>307.096</ele>
        <time>2018-10-05T00:45:52Z</time>
      </trkpt>
      <trkpt lat="43.41415" lon="16.85778">
        <ele>307.028</ele>
        <time>2018-10-05T00:46:12Z</time>
      </trkpt>
      <trkpt lat="43.41415" lon="16.85783">
        <ele>308.036</ele>
        <time>2018-10-05T00:46:32Z</time>
      </trkpt>
      <trkpt lat="43.41414" lon="16.85789">
        <ele>309.087</ele>
        <time>2018-10-05T00:46:52Z</time>
      </trkpt>
      <trkpt lat="43.41414" lon="16.85792">
        <ele>309.057</ele>
        <time>2018-10-05T00:47:12Z</time>
      </trkpt>
      <trkpt lat="43.41415" lon="16.85796">
        <ele>310.096</ele>
        <time>2018-10-05T00:47:32Z</time>
      </trkpt>
      <trkpt lat="43.41414" lon="16.858">
        <ele>311.043</ele>
        <time>2018-10-05T00:47:52Z</time>
      </trkpt>
      <trkpt lat="43.41413" lon="16.85801">
        <ele>311.064</ele>
        <time>2018-10-05T00:48:12Z</time>
      </trkpt>
      <trkpt lat="43.41413" lon="16.85803">
        <ele>312.01</ele>
        <time>2018-10-05T00:48:32Z</time>
      </trkpt>
      <trkpt lat="43.41413" lon="16.85804">
        <ele>312.008</ele>
        <time>2018-10-05T00:48:52Z</time>
      </trkpt>
      <trkpt lat="43.41413" lon="16.8581">
        <ele>313.026</ele>
        <time>2018-10-05T00:49:12Z</time>
      </trkpt>
      <trkpt lat="43.41413" lon="16.85813">
        <ele>314.053</ele>
        <time>2018-10-05T00:49:32Z</time>
      </trkpt>
      <trkpt lat="43.41412" lon="16.85818">
        <ele>315.096</ele>
        <time>2018-10-05T00:49:52Z</time>
      </trkpt>
      <trkpt lat="43.41413" lon="16.85819">
        <ele>315.068</ele>
        <time>2018-10-05T00:50:12Z</time>
      </trkpt>
      <trkpt lat="43.41419" lon="16.85818">
        <ele>316.076</ele>
        <time>2018-10-05T00:50:32Z</time>
      </trkpt>
      <trkpt lat="43.41421" lon="16.85818">
        <ele>316.087</ele>
        <time>2018-10-05T00:50:52Z</time>
      </trkpt>
      <trkpt lat="43.41423" lon="16.85817">
        <ele>316.077</ele>
        <time>2018-10-05T00:51:12Z</time>
      </trkpt>
      <trkpt lat="43.41425" lon="16.85823">
        <ele>318.036</ele>
        <time>2018-10-05T00:51:32Z</time>
      </trkpt>
      <trkpt lat="43.41424" lon="16.8583">
        <ele>319.097</ele>
        <time>2018-10-05T00:51:52Z</time>
      </trkpt>
      <trkpt lat="43.41423" lon="16.85834">
        <ele>320.023</ele>
        <time>2018-10-05T00:52:12Z</time>
      </trkpt>
      <trkpt lat="43.41421" lon="16.85839">
        <ele>321.025</ele>
        <time>2018-10-05T00:52:32Z</time>
      </trkpt>
      <trkpt lat="43.41419" lon="16.85846">
        <ele>322.008</ele>
        <time>2018-10-05T00:52:52Z</time>
      </trkpt>
      <trkpt lat="43.41417" lon="16.85852">
        <ele>323.041</ele>
        <time>2018-10-05T00:53:12Z</time>
      </trkpt>
      <trkpt lat="43.41417" lon="16.85853">
        <ele>324.078</ele>
        <time>2018-10-05T00:53:32Z</time>
      </trkpt>
      <trkpt lat="43.41415" lon="16.85857">
        <ele>325.051</ele>
        <time>2018-10-05T00:53:52Z</time>
      </trkpt>
      <trkpt lat="43.41411" lon="16.85865">
        <ele>326.043</ele>
        <time>2018-10-05T00:54:12Z</time>
      </trkpt>
      <trkpt lat="43.41407" lon="16.85874">
        <ele>327.081</ele>
        <time>2018-10-05T00:54:32Z</time>
      </trkpt>
      <trkpt lat="43.41406" lon="16.85875">
        <ele>328.062</ele>
        <time>2018-10-05T00:54:52Z</time>
      </trkpt>
      <trkpt lat="43.41406" lon="16.85877">
        <ele>328.062</ele>
        <time>2018-10-05T00:55:12Z</time>
      </trkpt>
      <trkpt lat="43.41405" lon="16.85878">
        <ele>328.071</ele>
        <time>2018-10-05T00:55:32Z</time>
      </trkpt>
      <trkpt lat="43.41402" lon="16.85882">
        <ele>329.099</ele>
        <time>2018-10-05T00:55:52Z</time>
      </trkpt>
      <trkpt lat="43.414" lon="16.85885">
        <ele>330.007</ele>
        <time>2018-10-05T00:56:12Z</time>
      </trkpt>
      <trkpt lat="43.41401" lon="16.85887">
        <ele>330.027</ele>
        <time>2018-10-05T00:56:32Z</time>
      </trkpt>
      <trkpt lat="43.41404" lon="16.85888">
        <ele>331.008</ele>
        <time>2018-10-05T00:56:52Z</time>
      </trkpt>
      <trkpt lat="43.41407" lon="16.85889">
        <ele>332.041</ele>
        <time>2018-10-05T00:57:12Z</time>
      </trkpt>
      <trkpt lat="43.4141" lon="16.85889">
        <ele>333.078</ele>
        <time>2018-10-05T00:57:32Z</time>
      </trkpt>
      <trkpt lat="43.41414" lon="16.8589">
        <ele>334.071</ele>
        <time>2018-10-05T00:57:52Z</time>
      </trkpt>
      <trkpt lat="43.41416" lon="16.85891">
        <ele>335.043</ele>
        <time>2018-10-05T00:58:12Z</time>
      </trkpt>
      <trkpt lat="43.41414" lon="16.85904">
        <ele>337.011</ele>
        <time>2018-10-05T00:58:32Z</time>
      </trkpt>
      <trkpt lat="43.41413" lon="16.8591">
        <ele>338.072</ele>
        <time>2018-10-05T00:58:52Z</time>
      </trkpt>
      <trkpt lat="43.41412" lon="16.85912">
        <ele>338.032</ele>
        <time>2018-10-05T00:59:12Z</time>
      </trkpt>
      <trkpt lat="43.41409" lon="16.85915">
        <ele>339.011</ele>
        <time>2018-10-05T00:59:32Z</time>
      </trkpt>
      <trkpt lat="43.41405" lon="16.85919">
        <ele>340.047</ele>
        <time>2018-10-05T00:59:52Z</time>
      </trkpt>
      <trkpt lat="43.41404" lon="16.85923">
        <ele>340.029</ele>
        <time>2018-10-05T01:00:12Z</time>
      </trkpt>
      <trkpt lat="43.414" lon="16.85929">
        <ele>342.021</ele>
        <time>2018-10-05T01:00:32Z</time>
      </trkpt>
      <trkpt lat="43.414" lon="16.85931">
        <ele>342.008</ele>
        <time>2018-10-05T01:00:52Z</time>
      </trkpt>
      <trkpt lat="43.41398" lon="16.85933">
        <ele>343.096</ele>
        <time>2018-10-05T01:01:12Z</time>
      </trkpt>
      <trkpt lat="43.41396" lon="16.85936">
        <ele>344.093</ele>
        <time>2018-10-05T01:01:32Z</time>
      </trkpt>
      <trkpt lat="43.41398" lon="16.85938">
        <ele>344.096</ele>
        <time>2018-10-05T01:01:52Z</time>
      </trkpt>
      <trkpt lat="43.41399" lon="16.85939">
        <ele>345.018</ele>
        <time>2018-10-05T01:02:12Z</time>
      </trkpt>
      <trkpt lat="43.41402" lon="16.85939">
        <ele>345.076</ele>
        <time>2018-10-05T01:02:32Z</time>
      </trkpt>
      <trkpt lat="43.41406" lon="16.85941">
        <ele>346.017</ele>
        <time>2018-10-05T01:02:52Z</time>
      </trkpt>
      <trkpt lat="43.4141" lon="16.85941">
        <ele>347.027</ele>
        <time>2018-10-05T01:03:12Z</time>
      </trkpt>
      <trkpt lat="43.41412" lon="16.8594">
        <ele>348.066</ele>
        <time>2018-10-05T01:03:32Z</time>
      </trkpt>
      <trkpt lat="43.41413" lon="16.8594">
        <ele>348.075</ele>
        <time>2018-10-05T01:03:52Z</time>
      </trkpt>
      <trkpt lat="43.41413" lon="16.85945">
        <ele>350.028</ele>
        <time>2018-10-05T01:04:12Z</time>
      </trkpt>
      <trkpt lat="43.41413" lon="16.85948">
        <ele>351.02</ele>
        <time>2018-10-05T01:04:32Z</time>
      </trkpt>
      <trkpt lat="43.41409" lon="16.85956">
        <ele>353.008</ele>
        <time>2018-10-05T01:04:52Z</time>
      </trkpt>
      <trkpt lat="43.41402" lon="16.85966">
        <ele>355.029</ele>
        <time>2018-10-05T01:05:12Z</time>
      </trkpt>
      <trkpt lat="43.41394" lon="16.85976">
        <ele>357.016</ele>
        <time>2018-10-05T01:05:32Z</time>
      </trkpt>
      <trkpt lat="43.41391" lon="16.85983">
        <ele>357.049</ele>
        <time>2018-10-05T01:05:52Z</time>
      </trkpt>
      <trkpt lat="43.41387" lon="16.8599">
        <ele>359.021</ele>
        <time>2018-10-05T01:06:12Z</time>
      </trkpt>
      <trkpt lat="43.41385" lon="16.85995">
        <ele>359.099</ele>
        <time>2018-10-05T01:06:32Z</time>
      </trkpt>
      <trkpt lat="43.41386" lon="16.85999">
        <ele>360.03</ele>
        <time>2018-10-05T01:06:52Z</time>
      </trkpt>
      <trkpt lat="43.41386" lon="16.86002">
        <ele>361.09</ele>
        <time>2018-10-05T01:07:12Z</time>
      </trkpt>
      <trkpt lat="43.41386" lon="16.86011">
        <ele>363.079</ele>
        <time>2018-10-05T01:07:32Z</time>
      </trkpt>
      <trkpt lat="43.41387" lon="16.86014">
        <ele>364.076</ele>
        <time>2018-10-05T01:07:52Z</time>
      </trkpt>
      <trkpt lat="43.41387" lon="16.86017">
        <ele>366.09</ele>
        <time>2018-10-05T01:08:12Z</time>
      </trkpt>
      <trkpt lat="43.41378" lon="16.86026">
        <ele>367.019</ele>
        <time>2018-10-05T01:08:32Z</time>
      </trkpt>
      <trkpt lat="43.41376" lon="16.86029">
        <ele>367.008</ele>
        <time>2018-10-05T01:08:52Z</time>
      </trkpt>
      <trkpt lat="43.41371" lon="16.86033">
        <ele>369.029</ele>
        <time>2018-10-05T01:09:12Z</time>
      </trkpt>
      <trkpt lat="43.41368" lon="16.86035">
        <ele>369.016</ele>
        <time>2018-10-05T01:09:32Z</time>
      </trkpt>
      <trkpt lat="43.41363" lon="16.86039">
        <ele>370.079</ele>
        <time>2018-10-05T01:09:52Z</time>
      </trkpt>
      <trkpt lat="43.41359" lon="16.86044">
        <ele>371.021</ele>
        <time>2018-10-05T01:10:12Z</time>
      </trkpt>
      <trkpt lat="43.41356" lon="16.86049">
        <ele>372.089</ele>
        <time>2018-10-05T01:10:32Z</time>
      </trkpt>
      <trkpt lat="43.41356" lon="16.86049">
        <ele>372.02</ele>
        <time>2018-10-05T01:10:52Z</time>
      </trkpt>
      <trkpt lat="43.41352" lon="16.86052">
        <ele>373.01</ele>
        <time>2018-10-05T01:11:12Z</time>
      </trkpt>
      <trkpt lat="43.41352" lon="16.86052">
        <ele>373.059</ele>
        <time>2018-10-05T01:11:32Z</time>
      </trkpt>
      <trkpt lat="43.41347" lon="16.8606">
        <ele>375.015</ele>
        <time>2018-10-05T01:11:52Z</time>
      </trkpt>
      <trkpt lat="43.41344" lon="16.86071">
        <ele>375.065</ele>
        <time>2018-10-05T01:12:12Z</time>
      </trkpt>
      <trkpt lat="43.41344" lon="16.86072">
        <ele>376.011</ele>
        <time>2018-10-05T01:12:32Z</time>
      </trkpt>
      <trkpt lat="43.41344" lon="16.86077">
        <ele>376.008</ele>
        <time>2018-10-05T01:12:52Z</time>
      </trkpt>
      <trkpt lat="43.41344" lon="16.86082">
        <ele>376.063</ele>
        <time>2018-10-05T01:13:12Z</time>
      </trkpt>
      <trkpt lat="43.41345" lon="16.86088">
        <ele>377.02</ele>
        <time>2018-10-05T01:13:32Z</time>
      </trkpt>
      <trkpt lat="43.41346" lon="16.86092">
        <ele>377.053</ele>
        <time>2018-10-05T01:13:52Z</time>
      </trkpt>
      <trkpt lat="43.41347" lon="16.86097">
        <ele>378.065</ele>
        <time>2018-10-05T01:14:12Z</time>
      </trkpt>
      <trkpt lat="43.41349" lon="16.86107">
        <ele>378.023</ele>
        <time>2018-10-05T01:14:32Z</time>
      </trkpt>
      <trkpt lat="43.41349" lon="16.86111">
        <ele>379.064</ele>
        <time>2018-10-05T01:14:52Z</time>
      </trkpt>
      <trkpt lat="43.41349" lon="16.86119">
        <ele>380.014</ele>
        <time>2018-10-05T01:15:12Z</time>
      </trkpt>
      <trkpt lat="43.41349" lon="16.86125">
        <ele>381.053</ele>
        <time>2018-10-05T01:15:32Z</time>
      </trkpt>
      <trkpt lat="43.41346" lon="16.86133">
        <ele>382.029</ele>
        <time>2018-10-05T01:15:52Z</time>
      </trkpt>
      <trkpt lat="43.41345" lon="16.86139">
        <ele>383</ele>
        <time>2018-10-05T01:16:12Z</time>
      </trkpt>
      <trkpt lat="43.41345" lon="16.86141">
        <ele>384.02</ele>
        <time>2018-10-05T01:16:32Z</time>
      </trkpt>
      <trkpt lat="43.41344" lon="16.86144">
        <ele>385.008</ele>
        <time>2018-10-05T01:16:52Z</time>
      </trkpt>
      <trkpt lat="43.41344" lon="16.86145">
        <ele>386.034</ele>
        <time>2018-10-05T01:17:12Z</time>
      </trkpt>
      <trkpt lat="43.41342" lon="16.86149">
        <ele>386.061</ele>
        <time>2018-10-05T01:17:32Z</time>
      </trkpt>
      <trkpt lat="43.41341" lon="16.86154">
        <ele>387.044</ele>
        <time>2018-10-05T01:17:52Z</time>
      </trkpt>
      <trkpt lat="43.4134" lon="16.86156">
        <ele>388.056</ele>
        <time>2018-10-05T01:18:12Z</time>
      </trkpt>
      <trkpt lat="43.41338" lon="16.86164">
        <ele>389.024</ele>
        <time>2018-10-05T01:18:32Z</time>
      </trkpt>
      <trkpt lat="43.41337" lon="16.8617">
        <ele>390.085</ele>
        <time>2018-10-05T01:18:52Z</time>
      </trkpt>
      <trkpt lat="43.41337" lon="16.86176">
        <ele>390.095</ele>
        <time>2018-10-05T01:19:12Z</time>
      </trkpt>
      <trkpt lat="43.41337" lon="16.86175">
        <ele>391.074</ele>
        <time>2018-10-05T01:19:32Z</time>
      </trkpt>
      <trkpt lat="43.41338" lon="16.86188">
        <ele>392.044</ele>
        <time>2018-10-05T01:19:52Z</time>
      </trkpt>
      <trkpt lat="43.41336" lon="16.86191">
        <ele>393.005</ele>
        <time>2018-10-05T01:20:12Z</time>
      </trkpt>
      <trkpt lat="43.41334" lon="16.86192">
        <ele>393.015</ele>
        <time>2018-10-05T01:20:32Z</time>
      </trkpt>
      <trkpt lat="43.41332" lon="16.86192">
        <ele>393.008</ele>
        <time>2018-10-05T01:20:52Z</time>
      </trkpt>
      <trkpt lat="43.41328" lon="16.86197">
        <ele>394.036</ele>
        <time>2018-10-05T01:21:12Z</time>
      </trkpt>
      <trkpt lat="43.41327" lon="16.86199">
        <ele>394.093</ele>
        <time>2018-10-05T01:21:32Z</time>
      </trkpt>
      <trkpt lat="43.41325" lon="16.86203">
        <ele>395.036</ele>
        <time>2018-10-05T01:21:52Z</time>
      </trkpt>
      <trkpt lat="43.41324" lon="16.86208">
        <ele>396.028</ele>
        <time>2018-10-05T01:22:12Z</time>
      </trkpt>
      <trkpt lat="43.41323" lon="16.8621">
        <ele>396.056</ele>
        <time>2018-10-05T01:22:32Z</time>
      </trkpt>
      <trkpt lat="43.41321" lon="16.86215">
        <ele>397.057</ele>
        <time>2018-10-05T01:22:52Z</time>
      </trkpt>
      <trkpt lat="43.41317" lon="16.86221">
        <ele>398.037</ele>
        <time>2018-10-05T01:23:12Z</time>
      </trkpt>
      <trkpt lat="43.41313" lon="16.86225">
        <ele>399.086</ele>
        <time>2018-10-05T01:23:32Z</time>
      </trkpt>
      <trkpt lat="43.41313" lon="16.86226">
        <ele>400.069</ele>
        <time>2018-10-05T01:23:52Z</time>
      </trkpt>
      <trkpt lat="43.41311" lon="16.86229">
        <ele>401.004</ele>
        <time>2018-10-05T01:24:12Z</time>
      </trkpt>
      <trkpt lat="43.4131" lon="16.86231">
        <ele>401.024</ele>
        <time>2018-10-05T01:24:32Z</time>
      </trkpt>
      <trkpt lat="43.41309" lon="16.86241">
        <ele>403.008</ele>
        <time>2018-10-05T01:24:52Z</time>
      </trkpt>
      <trkpt lat="43.41307" lon="16.86245">
        <ele>404.058</ele>
        <time>2018-10-05T01:25:12Z</time>
      </trkpt>
      <trkpt lat="43.41306" lon="16.86248">
        <ele>404.015</ele>
        <time>2018-10-05T01:25:32Z</time>
      </trkpt>
      <trkpt lat="43.41305" lon="16.86251">
        <ele>405.078</ele>
        <time>2018-10-05T01:25:52Z</time>
      </trkpt>
      <trkpt lat="43.41297" lon="16.86266">
        <ele>408.08</ele>
        <time>2018-10-05T01:26:12Z</time>
      </trkpt>
      <trkpt lat="43.41295" lon="16.86272">
        <ele>409.038</ele>
        <time>2018-10-05T01:26:32Z</time>
      </trkpt>
      <trkpt lat="43.41294" lon="16.86275">
        <ele>410.079</ele>
        <time>2018-10-05T01:26:52Z</time>
      </trkpt>
      <trkpt lat="43.41293" lon="16.86278">
        <ele>411.049</ele>
        <time>2018-10-05T01:27:12Z</time>
      </trkpt>
      <trkpt lat="43.41292" lon="16.86279">
        <ele>411.018</ele>
        <time>2018-10-05T01:27:32Z</time>
      </trkpt>
      <trkpt lat="43.4129" lon="16.86283">
        <ele>413.077</ele>
        <time>2018-10-05T01:27:52Z</time>
      </trkpt>
      <trkpt lat="43.41288" lon="16.86286">
        <ele>414.061</ele>
        <time>2018-10-05T01:28:12Z</time>
      </trkpt>
      <trkpt lat="43.41284" lon="16.86294">
        <ele>416.027</ele>
        <time>2018-10-05T01:28:32Z</time>
      </trkpt>
      <trkpt lat="43.41283" lon="16.86295">
        <ele>417.008</ele>
        <time>2018-10-05T01:28:52Z</time>
      </trkpt>
      <trkpt lat="43.4128" lon="16.86298">
        <ele>418.089</ele>
        <time>2018-10-05T01:29:12Z</time>
      </trkpt>
      <trkpt lat="43.41276" lon="16.86304">
        <ele>419.086</ele>
        <time>2018-10-05T01:29:32Z</time>
      </trkpt>
      <trkpt lat="43.41269" lon="16.86314">
        <ele>420.029</ele>
        <time>2018-10-05T01:29:52Z</time>
      </trkpt>
      <trkpt lat="43.41263" lon="16.86318">
        <ele>420.041</ele>
        <time>2018-10-05T01:30:12Z</time>
      </trkpt>
      <trkpt lat="43.41255" lon="16.86322">
        <ele>421.079</ele>
        <time>2018-10-05T01:30:32Z</time>
      </trkpt>
      <trkpt lat="43.41254" lon="16.86322">
        <ele>421.08</ele>
        <time>2018-10-05T01:30:52Z</time>
      </trkpt>
      <trkpt lat="43.41252" lon="16.86324">
        <ele>421.08</ele>
        <time>2018-10-05T01:31:12Z</time>
      </trkpt>
      <trkpt lat="43.41251" lon="16.8633">
        <ele>423.099</ele>
        <time>2018-10-05T01:31:32Z</time>
      </trkpt>
      <trkpt lat="43.4125" lon="16.86335">
        <ele>423.034</ele>
        <time>2018-10-05T01:31:52Z</time>
      </trkpt>
      <trkpt lat="43.4125" lon="16.86335">
        <ele>423.055</ele>
        <time>2018-10-05T01:32:12Z</time>
      </trkpt>
      <trkpt lat="43.41249" lon="16.8634">
        <ele>424.01</ele>
        <time>2018-10-05T01:32:32Z</time>
      </trkpt>
      <trkpt lat="43.4125" lon="16.86347">
        <ele>425.008</ele>
        <time>2018-10-05T01:32:52Z</time>
      </trkpt>
      <trkpt lat="43.4125" lon="16.86349">
        <ele>426.035</ele>
        <time>2018-10-05T01:33:12Z</time>
      </trkpt>
      <trkpt lat="43.4125" lon="16.86353">
        <ele>426.072</ele>
        <time>2018-10-05T01:33:32Z</time>
      </trkpt>
      <trkpt lat="43.4125" lon="16.86354">
        <ele>426.085</ele>
        <time>2018-10-05T01:33:52Z</time>
      </trkpt>
      <trkpt lat="43.41246" lon="16.86359">
        <ele>428.077</ele>
        <time>2018-10-05T01:34:12Z</time>
      </trkpt>
      <trkpt lat="43.4124" lon="16.86363">
        <ele>429.045</ele>
        <time>2018-10-05T01:34:32Z</time>
      </trkpt>
      <trkpt lat="43.41236" lon="16.8637">
        <ele>430.066</ele>
        <time>2018-10-05T01:34:52Z</time>
      </trkpt>
      <trkpt lat="43.41234" lon="16.86381">
        <ele>432.096</ele>
        <time>2018-10-05T01:35:12Z</time>
      </trkpt>
      <trkpt lat="43.41233" lon="16.86386">
        <ele>433.085</ele>
        <time>2018-10-05T01:35:32Z</time>
      </trkpt>
      <trkpt lat="43.41232" lon="16.86399">
        <ele>434.028</ele>
        <time>2018-10-05T01:35:52Z</time>
      </trkpt>
      <trkpt lat="43.41232" lon="16.86406">
        <ele>435.089</ele>
        <time>2018-10-05T01:36:12Z</time>
      </trkpt>
      <trkpt lat="43.41229" lon="16.86421">
        <ele>437.017</ele>
        <time>2018-10-05T01:36:32Z</time>
      </trkpt>
      <trkpt lat="43.4123" lon="16.86424">
        <ele>437.008</ele>
        <time>2018-10-05T01:36:52Z</time>
      </trkpt>
      <trkpt lat="43.41222" lon="16.86445">
        <ele>438.074</ele>
        <time>2018-10-05T01:37:12Z</time>
      </trkpt>
      <trkpt lat="43.41221" lon="16.8645">
        <ele>439.041</ele>
        <time>2018-10-05T01:37:32Z</time>
      </trkpt>
      <trkpt lat="43.41221" lon="16.86456">
        <ele>440.024</ele>
        <time>2018-10-05T01:37:52Z</time>
      </trkpt>
      <trkpt lat="43.41221" lon="16.86458">
        <ele>440.056</ele>
        <time>2018-10-05T01:38:12Z</time>
      </trkpt>
      <trkpt lat="43.41221" lon="16.86464">
        <ele>441.064</ele>
        <time>2018-10-05T01:38:32Z</time>
      </trkpt>
      <trkpt lat="43.4122" lon="16.86471">
        <ele>442.095</ele>
        <time>2018-10-05T01:38:52Z</time>
      </trkpt>
      <trkpt lat="43.41219" lon="16.86476">
        <ele>442.035</ele>
        <time>2018-10-05T01:39:12Z</time>
      </trkpt>
      <trkpt lat="43.4122" lon="16.86483">
        <ele>443.034</ele>
        <time>2018-10-05T01:39:32Z</time>
      </trkpt>
      <trkpt lat="43.41219" lon="16.86488">
        <ele>444.028</ele>
        <time>2018-10-05T01:39:52Z</time>
      </trkpt>
      <trkpt lat="43.4122" lon="16.86497">
        <ele>444.089</ele>
        <time>2018-10-05T01:40:12Z</time>
      </trkpt>
      <trkpt lat="43.4122" lon="16.865">
        <ele>445.017</ele>
        <time>2018-10-05T01:40:32Z</time>
      </trkpt>
      <trkpt lat="43.41219" lon="16.86504">
        <ele>445.008</ele>
        <time>2018-10-05T01:40:52Z</time>
      </trkpt>
      <trkpt lat="43.41219" lon="16.86505">
        <ele>445.044</ele>
        <time>2018-10-05T01:41:12Z</time>
      </trkpt>
      <trkpt lat="43.41219" lon="16.86508">
        <ele>445.041</ele>
        <time>2018-10-05T01:41:32Z</time>
      </trkpt>
      <trkpt lat="43.41221" lon="16.86513">
        <ele>446.054</ele>
        <time>2018-10-05T01:41:52Z</time>
      </trkpt>
      <trkpt lat="43.41222" lon="16.86514">
        <ele>446.046</ele>
        <time>2018-10-05T01:42:12Z</time>
      </trkpt>
      <trkpt lat="43.4122" lon="16.86525">
        <ele>447.014</ele>
        <time>2018-10-05T01:42:32Z</time>
      </trkpt>
      <trkpt lat="43.4122" lon="16.86531">
        <ele>448.045</ele>
        <time>2018-10-05T01:42:52Z</time>
      </trkpt>
      <trkpt lat="43.41221" lon="16.86533">
        <ele>449.035</ele>
        <time>2018-10-05T01:43:12Z</time>
      </trkpt>
      <trkpt lat="43.41223" lon="16.86539">
        <ele>449.094</ele>
        <time>2018-10-05T01:43:32Z</time>
      </trkpt>
      <trkpt lat="43.41225" lon="16.86549">
        <ele>450.055</ele>
        <time>2018-10-05T01:43:52Z</time>
      </trkpt>
      <trkpt lat="43.41226" lon="16.8656">
        <ele>451.007</ele>
        <time>2018-10-05T01:44:12Z</time>
      </trkpt>
      <trkpt lat="43.41226" lon="16.86567">
        <ele>451.017</ele>
        <time>2018-10-05T01:44:32Z</time>
      </trkpt>
      <trkpt lat="43.41226" lon="16.86572">
        <ele>452.008</ele>
        <time>2018-10-05T01:44:52Z</time>
      </trkpt>
      <trkpt lat="43.41224" lon="16.86583">
        <ele>452.067</ele>
        <time>2018-10-05T01:45:12Z</time>
      </trkpt>
      <trkpt lat="43.41223" lon="16.86593">
        <ele>453.054</ele>
        <time>2018-10-05T01:45:32Z</time>
      </trkpt>
      <trkpt lat="43.41223" lon="16.86598">
        <ele>454.077</ele>
        <time>2018-10-05T01:45:52Z</time>
      </trkpt>
      <trkpt lat="43.41225" lon="16.86607">
        <ele>455.069</ele>
        <time>2018-10-05T01:46:12Z</time>
      </trkpt>
      <trkpt lat="43.41224" lon="16.8661">
        <ele>455.037</ele>
        <time>2018-10-05T01:46:32Z</time>
      </trkpt>
      <trkpt lat="43.41224" lon="16.86613">
        <ele>456.098</ele>
        <time>2018-10-05T01:46:52Z</time>
      </trkpt>
      <trkpt lat="43.41226" lon="16.86615">
        <ele>456.098</ele>
        <time>2018-10-05T01:47:12Z</time>
      </trkpt>
      <trkpt lat="43.41227" lon="16.86617">
        <ele>456.027</ele>
        <time>2018-10-05T01:47:32Z</time>
      </trkpt>
      <trkpt lat="43.41227" lon="16.86628">
        <ele>457.083</ele>
        <time>2018-10-05T01:47:52Z</time>
      </trkpt>
      <trkpt lat="43.41227" lon="16.8663">
        <ele>457.025</ele>
        <time>2018-10-05T01:48:12Z</time>
      </trkpt>
      <trkpt lat="43.41224" lon="16.86646">
        <ele>459.017</ele>
        <time>2018-10-05T01:48:32Z</time>
      </trkpt>
      <trkpt lat="43.41224" lon="16.86652">
        <ele>459.008</ele>
        <time>2018-10-05T01:48:52Z</time>
      </trkpt>
      <trkpt lat="43.41222" lon="16.86667">
        <ele>460.07</ele>
        <time>2018-10-05T01:49:12Z</time>
      </trkpt>
      <trkpt lat="43.41219" lon="16.86674">
        <ele>461.087</ele>
        <time>2018-10-05T01:49:32Z</time>
      </trkpt>
      <trkpt lat="43.41217" lon="16.86679">
        <ele>462.06</ele>
        <time>2018-10-05T01:49:52Z</time>
      </trkpt>
      <trkpt lat="43.41216" lon="16.86685">
        <ele>463.082</ele>
        <time>2018-10-05T01:50:12Z</time>
      </trkpt>
      <trkpt lat="43.41216" lon="16.8669">
        <ele>464.04</ele>
        <time>2018-10-05T01:50:32Z</time>
      </trkpt>
      <trkpt lat="43.41215" lon="16.86695">
        <ele>465.061</ele>
        <time>2018-10-05T01:50:52Z</time>
      </trkpt>
      <trkpt lat="43.41214" lon="16.86698">
        <ele>465.051</ele>
        <time>2018-10-05T01:51:12Z</time>
      </trkpt>
      <trkpt lat="43.41213" lon="16.86703">
        <ele>466.09</ele>
        <time>2018-10-05T01:51:32Z</time>
      </trkpt>
      <trkpt lat="43.41211" lon="16.8671">
        <ele>467.019</ele>
        <time>2018-10-05T01:51:52Z</time>
      </trkpt>
      <trkpt lat="43.41207" lon="16.8672">
        <ele>468.009</ele>
        <time>2018-10-05T01:52:12Z</time>
      </trkpt>
      <trkpt lat="43.41206" lon="16.86722">
        <ele>468.019</ele>
        <time>2018-10-05T01:52:32Z</time>
      </trkpt>
      <trkpt lat="43.412" lon="16.8673">
        <ele>469.008</ele>
        <time>2018-10-05T01:52:52Z</time>
      </trkpt>
      <trkpt lat="43.41199" lon="16.86733">
        <ele>469.033</ele>
        <time>2018-10-05T01:53:12Z</time>
      </trkpt>
      <trkpt lat="43.41197" lon="16.86741">
        <ele>470.01</ele>
        <time>2018-10-05T01:53:32Z</time>
      </trkpt>
      <trkpt lat="43.41194" lon="16.86748">
        <ele>472.033</ele>
        <time>2018-10-05T01:53:52Z</time>
      </trkpt>
      <trkpt lat="43.41193" lon="16.8675">
        <ele>472.075</ele>
        <time>2018-10-05T01:54:12Z</time>
      </trkpt>
      <trkpt lat="43.41186" lon="16.86758">
        <ele>473.083</ele>
        <time>2018-10-05T01:54:32Z</time>
      </trkpt>
      <trkpt lat="43.41182" lon="16.86765">
        <ele>474.064</ele>
        <time>2018-10-05T01:54:52Z</time>
      </trkpt>
      <trkpt lat="43.4118" lon="16.86767">
        <ele>474.014</ele>
        <time>2018-10-05T01:55:12Z</time>
      </trkpt>
      <trkpt lat="43.4118" lon="16.86771">
        <ele>475.073</ele>
        <time>2018-10-05T01:55:32Z</time>
      </trkpt>
      <trkpt lat="43.41177" lon="16.86776">
        <ele>476.073</ele>
        <time>2018-10-05T01:55:52Z</time>
      </trkpt>
      <trkpt lat="43.41173" lon="16.86782">
        <ele>477.085</ele>
        <time>2018-10-05T01:56:12Z</time>
      </trkpt>
      <trkpt lat="43.4117" lon="16.86789">
        <ele>478.013</ele>
        <time>2018-10-05T01:56:32Z</time>
      </trkpt>
      <trkpt lat="43.41166" lon="16.86796">
        <ele>479.008</ele>
        <time>2018-10-05T01:56:52Z</time>
      </trkpt>
      <trkpt lat="43.41165" lon="16.86799">
        <ele>479.099</ele>
        <time>2018-10-05T01:57:12Z</time>
      </trkpt>
      <trkpt lat="43.41161" lon="16.86807">
        <ele>481.096</ele>
        <time>2018-10-05T01:57:32Z</time>
      </trkpt>
      <trkpt lat="43.4116" lon="16.86812">
        <ele>482.069</ele>
        <time>2018-10-05T01:57:52Z</time>
      </trkpt>
      <trkpt lat="43.41159" lon="16.86815">
        <ele>483.081</ele>
        <time>2018-10-05T01:58:12Z</time>
      </trkpt>
      <trkpt lat="43.41158" lon="16.86818">
        <ele>483.059</ele>
        <time>2018-10-05T01:58:32Z</time>
      </trkpt>
      <trkpt lat="43.41156" lon="16.86827">
        <ele>484.06</ele>
        <time>2018-10-05T01:58:52Z</time>
      </trkpt>
      <trkpt lat="43.41151" lon="16.86839">
        <ele>486.04</ele>
        <time>2018-10-05T01:59:12Z</time>
      </trkpt>
      <trkpt lat="43.41148" lon="16.86847">
        <ele>488.099</ele>
        <time>2018-10-05T01:59:32Z</time>
      </trkpt>
      <trkpt lat="43.41147" lon="16.86853">
        <ele>489.092</ele>
        <time>2018-10-05T01:59:52Z</time>
      </trkpt>
      <trkpt lat="43.41147" lon="16.86859">
        <ele>491.073</ele>
        <time>2018-10-05T02:00:12Z</time>
      </trkpt>
      <trkpt lat="43.41147" lon="16.86863">
        <ele>491.02</ele>
        <time>2018-10-05T02:00:32Z</time>
      </trkpt>
      <trkpt lat="43.41147" lon="16.86867">
        <ele>492.008</ele>
        <time>2018-10-05T02:00:52Z</time>
      </trkpt>
      <trkpt lat="43.41145" lon="16.8687">
        <ele>492.011</ele>
        <time>2018-10-05T02:01:12Z</time>
      </trkpt>
      <trkpt lat="43.41144" lon="16.86874">
        <ele>493.038</ele>
        <time>2018-10-05T02:01:32Z</time>
      </trkpt>
      <trkpt lat="43.41144" lon="16.86876">
        <ele>493.011</ele>
        <time>2018-10-05T02:01:52Z</time>
      </trkpt>
      <trkpt lat="43.41143" lon="16.86878">
        <ele>494.033</ele>
        <time>2018-10-05T02:02:12Z</time>
      </trkpt>
      <trkpt lat="43.41143" lon="16.86882">
        <ele>494.031</ele>
        <time>2018-10-05T02:02:32Z</time>
      </trkpt>
      <trkpt lat="43.41143" lon="16.86883">
        <ele>495.062</ele>
        <time>2018-10-05T02:02:52Z</time>
      </trkpt>
      <trkpt lat="43.41142" lon="16.86887">
        <ele>495.072</ele>
        <time>2018-10-05T02:03:12Z</time>
      </trkpt>
      <trkpt lat="43.41138" lon="16.86895">
        <ele>496.021</ele>
        <time>2018-10-05T02:03:32Z</time>
      </trkpt>
      <trkpt lat="43.41135" lon="16.86903">
        <ele>497.035</ele>
        <time>2018-10-05T02:03:52Z</time>
      </trkpt>
      <trkpt lat="43.41134" lon="16.86906">
        <ele>497.086</ele>
        <time>2018-10-05T02:04:12Z</time>
      </trkpt>
      <trkpt lat="43.41132" lon="16.86914">
        <ele>498.014</ele>
        <time>2018-10-05T02:04:32Z</time>
      </trkpt>
      <trkpt lat="43.41132" lon="16.86919">
        <ele>499.008</ele>
        <time>2018-10-05T02:04:52Z</time>
      </trkpt>
      <trkpt lat="43.41131" lon="16.86922">
        <ele>499.085</ele>
        <time>2018-10-05T02:05:12Z</time>
      </trkpt>
      <trkpt lat="43.41132" lon="16.86924">
        <ele>499.092</ele>
        <time>2018-10-05T02:05:32Z</time>
      </trkpt>
      <trkpt lat="43.41131" lon="16.86931">
        <ele>500.055</ele>
        <time>2018-10-05T02:05:52Z</time>
      </trkpt>
      <trkpt lat="43.4113" lon="16.86934">
        <ele>501.047</ele>
        <time>2018-10-05T02:06:12Z</time>
      </trkpt>
      <trkpt lat="43.41127" lon="16.86939">
        <ele>502.025</ele>
        <time>2018-10-05T02:06:32Z</time>
      </trkpt>
      <trkpt lat="43.41124" lon="16.86946">
        <ele>502.086</ele>
        <time>2018-10-05T02:06:52Z</time>
      </trkpt>
      <trkpt lat="43.41124" lon="16.86949">
        <ele>502.036</ele>
        <time>2018-10-05T02:07:12Z</time>
      </trkpt>
      <trkpt lat="43.41122" lon="16.86952">
        <ele>502.055</ele>
        <time>2018-10-05T02:07:32Z</time>
      </trkpt>
      <trkpt lat="43.41121" lon="16.86956">
        <ele>503.025</ele>
        <time>2018-10-05T02:07:52Z</time>
      </trkpt>
      <trkpt lat="43.41119" lon="16.86969">
        <ele>503.026</ele>
        <time>2018-10-05T02:08:12Z</time>
      </trkpt>
      <trkpt lat="43.41116" lon="16.86976">
        <ele>504.008</ele>
        <time>2018-10-05T02:08:32Z</time>
      </trkpt>
      <trkpt lat="43.41111" lon="16.86991">
        <ele>505.008</ele>
        <time>2018-10-05T02:08:52Z</time>
      </trkpt>
      <trkpt lat="43.4111" lon="16.86994">
        <ele>505.064</ele>
        <time>2018-10-05T02:09:12Z</time>
      </trkpt>
      <trkpt lat="43.41107" lon="16.87005">
        <ele>507.081</ele>
        <time>2018-10-05T02:09:32Z</time>
      </trkpt>
      <trkpt lat="43.41107" lon="16.87008">
        <ele>507.064</ele>
        <time>2018-10-05T02:09:52Z</time>
      </trkpt>
      <trkpt lat="43.41107" lon="16.87012">
        <ele>508.056</ele>
        <time>2018-10-05T02:10:12Z</time>
      </trkpt>
      <trkpt lat="43.41106" lon="16.87013">
        <ele>508.044</ele>
        <time>2018-10-05T02:10:32Z</time>
      </trkpt>
      <trkpt lat="43.41106" lon="16.87018">
        <ele>509.015</ele>
        <time>2018-10-05T02:10:52Z</time>
      </trkpt>
      <trkpt lat="43.41105" lon="16.87022">
        <ele>509.015</ele>
        <time>2018-10-05T02:11:12Z</time>
      </trkpt>
      <trkpt lat="43.41101" lon="16.87036">
        <ele>510.074</ele>
        <time>2018-10-05T02:11:32Z</time>
      </trkpt>
      <trkpt lat="43.41101" lon="16.87039">
        <ele>511.097</ele>
        <time>2018-10-05T02:11:52Z</time>
      </trkpt>
      <trkpt lat="43.41099" lon="16.87045">
        <ele>511.023</ele>
        <time>2018-10-05T02:12:12Z</time>
      </trkpt>
      <trkpt lat="43.41097" lon="16.87049">
        <ele>512.025</ele>
        <time>2018-10-05T02:12:32Z</time>
      </trkpt>
      <trkpt lat="43.41094" lon="16.87056">
        <ele>512.008</ele>
        <time>2018-10-05T02:12:52Z</time>
      </trkpt>
      <trkpt lat="43.41089" lon="16.87064">
        <ele>512.031</ele>
        <time>2018-10-05T02:13:12Z</time>
      </trkpt>
      <trkpt lat="43.41086" lon="16.87074">
        <ele>513.048</ele>
        <time>2018-10-05T02:13:32Z</time>
      </trkpt>
      <trkpt lat="43.41085" lon="16.87076">
        <ele>514.061</ele>
        <time>2018-10-05T02:13:52Z</time>
      </trkpt>
      <trkpt lat="43.41085" lon="16.87078">
        <ele>514.083</ele>
        <time>2018-10-05T02:14:12Z</time>
      </trkpt>
      <trkpt lat="43.41083" lon="16.87085">
        <ele>514.041</ele>
        <time>2018-10-05T02:14:32Z</time>
      </trkpt>
      <trkpt lat="43.41082" lon="16.87095">
        <ele>515.082</ele>
        <time>2018-10-05T02:14:52Z</time>
      </trkpt>
      <trkpt lat="43.41078" lon="16.8711">
        <ele>516.012</ele>
        <time>2018-10-05T02:15:12Z</time>
      </trkpt>
      <trkpt lat="43.41078" lon="16.87112">
        <ele>517.051</ele>
        <time>2018-10-05T02:15:32Z</time>
      </trkpt>
      <trkpt lat="43.41078" lon="16.87116">
        <ele>518.049</ele>
        <time>2018-10-05T02:15:52Z</time>
      </trkpt>
      <trkpt lat="43.41078" lon="16.87126">
        <ele>519.002</ele>
        <time>2018-10-05T02:16:12Z</time>
      </trkpt>
      <trkpt lat="43.41078" lon="16.87134">
        <ele>520.022</ele>
        <time>2018-10-05T02:16:32Z</time>
      </trkpt>
      <trkpt lat="43.41078" lon="16.87138">
        <ele>520.008</ele>
        <time>2018-10-05T02:16:52Z</time>
      </trkpt>
      <trkpt lat="43.41078" lon="16.87147">
        <ele>521.096</ele>
        <time>2018-10-05T02:17:12Z</time>
      </trkpt>
      <trkpt lat="43.41076" lon="16.87159">
        <ele>522.083</ele>
        <time>2018-10-05T02:17:32Z</time>
      </trkpt>
      <trkpt lat="43.41074" lon="16.87163">
        <ele>522.076</ele>
        <time>2018-10-05T02:17:52Z</time>
      </trkpt>
      <trkpt lat="43.41073" lon="16.87168">
        <ele>523.068</ele>
        <time>2018-10-05T02:18:12Z</time>
      </trkpt>
      <trkpt lat="43.41075" lon="16.87178">
        <ele>524.056</ele>
        <time>2018-10-05T02:18:32Z</time>
      </trkpt>
      <trkpt lat="43.41076" lon="16.87182">
        <ele>525.057</ele>
        <time>2018-10-05T02:18:52Z</time>
      </trkpt>
      <trkpt lat="43.41077" lon="16.87187">
        <ele>526.077</ele>
        <time>2018-10-05T02:19:12Z</time>
      </trkpt>
      <trkpt lat="43.41078" lon="16.87189">
        <ele>526.046</ele>
        <time>2018-10-05T02:19:32Z</time>
      </trkpt>
      <trkpt lat="43.41072" lon="16.87198">
        <ele>527.039</ele>
        <time>2018-10-05T02:19:52Z</time>
      </trkpt>
      <trkpt lat="43.41066" lon="16.87202">
        <ele>527.001</ele>
        <time>2018-10-05T02:20:12Z</time>
      </trkpt>
      <trkpt lat="43.4106" lon="16.87205">
        <ele>527.021</ele>
        <time>2018-10-05T02:20:32Z</time>
      </trkpt>
      <trkpt lat="43.41053" lon="16.87211">
        <ele>527.008</ele>
        <time>2018-10-05T02:20:52Z</time>
      </trkpt>
      <trkpt lat="43.41052" lon="16.87212">
        <ele>527.055</ele>
        <time>2018-10-05T02:21:12Z</time>
      </trkpt>
      <trkpt lat="43.41044" lon="16.87216">
        <ele>527.022</ele>
        <time>2018-10-05T02:21:32Z</time>
      </trkpt>
      <trkpt lat="43.41036" lon="16.87223">
        <ele>528.035</ele>
        <time>2018-10-05T02:21:52Z</time>
      </trkpt>
      <trkpt lat="43.4103" lon="16.87232">
        <ele>528.037</ele>
        <time>2018-10-05T02:22:12Z</time>
      </trkpt>
      <trkpt lat="43.4103" lon="16.87237">
        <ele>528.055</ele>
        <time>2018-10-05T02:22:32Z</time>
      </trkpt>
      <trkpt lat="43.41026" lon="16.87246">
        <ele>529.076</ele>
        <time>2018-10-05T02:22:52Z</time>
      </trkpt>
      <trkpt lat="43.41024" lon="16.8725">
        <ele>529.066</ele>
        <time>2018-10-05T02:23:12Z</time>
      </trkpt>
      <trkpt lat="43.41023" lon="16.87256">
        <ele>529.025</ele>
        <time>2018-10-05T02:23:32Z</time>
      </trkpt>
      <trkpt lat="43.41018" lon="16.87275">
        <ele>530.042</ele>
        <time>2018-10-05T02:23:52Z</time>
      </trkpt>
      <trkpt lat="43.41018" lon="16.87278">
        <ele>530.022</ele>
        <time>2018-10-05T02:24:12Z</time>
      </trkpt>
      <trkpt lat="43.41017" lon="16.87283">
        <ele>531.014</ele>
        <time>2018-10-05T02:24:32Z</time>
      </trkpt>
      <trkpt lat="43.41016" lon="16.87287">
        <ele>531.008</ele>
        <time>2018-10-05T02:24:52Z</time>
      </trkpt>
      <trkpt lat="43.41013" lon="16.87298">
        <ele>531.086</ele>
        <time>2018-10-05T02:25:12Z</time>
      </trkpt>
      <trkpt lat="43.41006" lon="16.87322">
        <ele>531.043</ele>
        <time>2018-10-05T02:25:32Z</time>
      </trkpt>
      <trkpt lat="43.41" lon="16.87337">
        <ele>532.056</ele>
        <time>2018-10-05T02:25:52Z</time>
      </trkpt>
      <trkpt lat="43.40997" lon="16.87358">
        <ele>533.048</ele>
        <time>2018-10-05T02:26:12Z</time>
      </trkpt>
      <trkpt lat="43.40998" lon="16.87367">
        <ele>532.056</ele>
        <time>2018-10-05T02:26:32Z</time>
      </trkpt>
      <trkpt lat="43.40997" lon="16.87374">
        <ele>532.077</ele>
        <time>2018-10-05T02:26:52Z</time>
      </trkpt>
      <trkpt lat="43.40999" lon="16.8738">
        <ele>532.097</ele>
        <time>2018-10-05T02:27:12Z</time>
      </trkpt>
      <trkpt lat="43.40996" lon="16.87403">
        <ele>532.046</ele>
        <time>2018-10-05T02:27:32Z</time>
      </trkpt>
      <trkpt lat="43.40994" lon="16.87422">
        <ele>531.089</ele>
        <time>2018-10-05T02:27:52Z</time>
      </trkpt>
      <trkpt lat="43.40996" lon="16.87427">
        <ele>531.006</ele>
        <time>2018-10-05T02:28:12Z</time>
      </trkpt>
      <trkpt lat="43.40998" lon="16.87455">
        <ele>530.026</ele>
        <time>2018-10-05T02:28:32Z</time>
      </trkpt>
      <trkpt lat="43.40999" lon="16.87466">
        <ele>529.008</ele>
        <time>2018-10-05T02:28:52Z</time>
      </trkpt>
      <trkpt lat="43.40999" lon="16.87471">
        <ele>529.07</ele>
        <time>2018-10-05T02:29:12Z</time>
      </trkpt>
      <trkpt lat="43.40999" lon="16.87483">
        <ele>529.097</ele>
        <time>2018-10-05T02:29:32Z</time>
      </trkpt>
      <trkpt lat="43.40997" lon="16.87506">
        <ele>527.07</ele>
        <time>2018-10-05T02:29:52Z</time>
      </trkpt>
      <trkpt lat="43.40998" lon="16.87518">
        <ele>526.072</ele>
        <time>2018-10-05T02:30:12Z</time>
      </trkpt>
      <trkpt lat="43.40996" lon="16.87537">
        <ele>525.01</ele>
        <time>2018-10-05T02:30:32Z</time>
      </trkpt>
      <trkpt lat="43.40993" lon="16.87558">
        <ele>524.081</ele>
        <time>2018-10-05T02:30:52Z</time>
      </trkpt>
      <trkpt lat="43.40987" lon="16.87581">
        <ele>521.051</ele>
        <time>2018-10-05T02:31:12Z</time>
      </trkpt>
      <trkpt lat="43.40981" lon="16.87602">
        <ele>518.06</ele>
        <time>2018-10-05T02:31:32Z</time>
      </trkpt>
      <trkpt lat="43.40979" lon="16.87611">
        <ele>517.091</ele>
        <time>2018-10-05T02:31:52Z</time>
      </trkpt>
      <trkpt lat="43.40973" lon="16.87629">
        <ele>515.081</ele>
        <time>2018-10-05T02:32:12Z</time>
      </trkpt>
      <trkpt lat="43.40966" lon="16.87648">
        <ele>513.019</ele>
        <time>2018-10-05T02:32:32Z</time>
      </trkpt>
      <trkpt lat="43.40965" lon="16.87655">
        <ele>512.008</ele>
        <time>2018-10-05T02:32:52Z</time>
      </trkpt>
      <trkpt lat="43.40957" lon="16.87679">
        <ele>509.041</ele>
        <time>2018-10-05T02:33:12Z</time>
      </trkpt>
      <trkpt lat="43.40953" lon="16.87687">
        <ele>508.048</ele>
        <time>2018-10-05T02:33:32Z</time>
      </trkpt>
      <trkpt lat="43.40947" lon="16.87707">
        <ele>506.021</ele>
        <time>2018-10-05T02:33:52Z</time>
      </trkpt>
      <trkpt lat="43.40944" lon="16.87715">
        <ele>505.063</ele>
        <time>2018-10-05T02:34:12Z</time>
      </trkpt>
      <trkpt lat="43.40943" lon="16.87722">
        <ele>503.081</ele>
        <time>2018-10-05T02:34:32Z</time>
      </trkpt>
      <trkpt lat="43.40939" lon="16.87734">
        <ele>502.072</ele>
        <time>2018-10-05T02:34:52Z</time>
      </trkpt>
      <trkpt lat="43.40932" lon="16.87754">
        <ele>500.082</ele>
        <time>2018-10-05T02:35:12Z</time>
      </trkpt>
      <trkpt lat="43.40928" lon="16.87769">
        <ele>497.051</ele>
        <time>2018-10-05T02:35:32Z</time>
      </trkpt>
      <trkpt lat="43.40926" lon="16.87776">
        <ele>496.082</ele>
        <time>2018-10-05T02:35:52Z</time>
      </trkpt>
      <trkpt lat="43.40923" lon="16.87788">
        <ele>495.043</ele>
        <time>2018-10-05T02:36:12Z</time>
      </trkpt>
      <trkpt lat="43.4092" lon="16.87801">
        <ele>494.017</ele>
        <time>2018-10-05T02:36:32Z</time>
      </trkpt>
      <trkpt lat="43.40915" lon="16.87818">
        <ele>493.008</ele>
        <time>2018-10-05T02:36:52Z</time>
      </trkpt>
      <trkpt lat="43.40911" lon="16.87835">
        <ele>492.01</ele>
        <time>2018-10-05T02:37:12Z</time>
      </trkpt>
      <trkpt lat="43.40907" lon="16.87851">
        <ele>490.047</ele>
        <time>2018-10-05T02:37:32Z</time>
      </trkpt>
      <trkpt lat="43.40903" lon="16.87863">
        <ele>489.05</ele>
        <time>2018-10-05T02:37:52Z</time>
      </trkpt>
      <trkpt lat="43.40899" lon="16.87875">
        <ele>488.092</ele>
        <time>2018-10-05T02:38:12Z</time>
      </trkpt>
      <trkpt lat="43.40895" lon="16.87887">
        <ele>487.07</ele>
        <time>2018-10-05T02:38:32Z</time>
      </trkpt>
      <trkpt lat="43.40891" lon="16.87899">
        <ele>486.071</ele>
        <time>2018-10-05T02:38:52Z</time>
      </trkpt>
      <trkpt lat="43.40885" lon="16.87917">
        <ele>484.071</ele>
        <time>2018-10-05T02:39:12Z</time>
      </trkpt>
      <trkpt lat="43.40878" lon="16.8793">
        <ele>483.06</ele>
        <time>2018-10-05T02:39:32Z</time>
      </trkpt>
      <trkpt lat="43.4087" lon="16.87943">
        <ele>482.045</ele>
        <time>2018-10-05T02:39:52Z</time>
      </trkpt>
      <trkpt lat="43.40863" lon="16.87967">
        <ele>481.047</ele>
        <time>2018-10-05T02:40:12Z</time>
      </trkpt>
      <trkpt lat="43.40862" lon="16.87969">
        <ele>480.011</ele>
        <time>2018-10-05T02:40:32Z</time>
      </trkpt>
      <trkpt lat="43.4086" lon="16.87974">
        <ele>477.008</ele>
        <time>2018-10-05T02:40:52Z</time>
      </trkpt>
      <trkpt lat="43.40859" lon="16.87979">
        <ele>476.046</ele>
        <time>2018-10-05T02:41:12Z</time>
      </trkpt>
      <trkpt lat="43.40859" lon="16.87984">
        <ele>476.013</ele>
        <time>2018-10-05T02:41:32Z</time>
      </trkpt>
      <trkpt lat="43.40859" lon="16.87986">
        <ele>476.046</ele>
        <time>2018-10-05T02:41:52Z</time>
      </trkpt>
      <trkpt lat="43.40859" lon="16.87991">
        <ele>476.038</ele>
        <time>2018-10-05T02:42:12Z</time>
      </trkpt>
      <trkpt lat="43.4086" lon="16.87993">
        <ele>475.066</ele>
        <time>2018-10-05T02:42:32Z</time>
      </trkpt>
      <trkpt lat="43.40859" lon="16.87997">
        <ele>474.077</ele>
        <time>2018-10-05T02:42:52Z</time>
      </trkpt>
      <trkpt lat="43.40858" lon="16.88006">
        <ele>472.057</ele>
        <time>2018-10-05T02:43:12Z</time>
      </trkpt>
      <trkpt lat="43.40855" lon="16.88018">
        <ele>469.086</ele>
        <time>2018-10-05T02:43:32Z</time>
      </trkpt>
      <trkpt lat="43.40853" lon="16.88025">
        <ele>467.048</ele>
        <time>2018-10-05T02:43:52Z</time>
      </trkpt>
      <trkpt lat="43.40853" lon="16.88028">
        <ele>467.061</ele>
        <time>2018-10-05T02:44:12Z</time>
      </trkpt>
      <trkpt lat="43.40848" lon="16.88043">
        <ele>464.017</ele>
        <time>2018-10-05T02:44:32Z</time>
      </trkpt>
      <trkpt lat="43.40841" lon="16.88058">
        <ele>461.008</ele>
        <time>2018-10-05T02:44:52Z</time>
      </trkpt>
      <trkpt lat="43.40834" lon="16.88075">
        <ele>458.096</ele>
        <time>2018-10-05T02:45:12Z</time>
      </trkpt>
      <trkpt lat="43.40829" lon="16.88087">
        <ele>456.043</ele>
        <time>2018-10-05T02:45:32Z</time>
      </trkpt>
      <trkpt lat="43.40827" lon="16.88091">
        <ele>455.016</ele>
        <time>2018-10-05T02:45:52Z</time>
      </trkpt>
      <trkpt lat="43.40825" lon="16.88098">
        <ele>453.028</ele>
        <time>2018-10-05T02:46:12Z</time>
      </trkpt>
      <trkpt lat="43.40821" lon="16.88102">
        <ele>451.066</ele>
        <time>2018-10-05T02:46:32Z</time>
      </trkpt>
      <trkpt lat="43.40817" lon="16.88106">
        <ele>450.077</ele>
        <time>2018-10-05T02:46:52Z</time>
      </trkpt>
      <trkpt lat="43.40814" lon="16.88118">
        <ele>448.077</ele>
        <time>2018-10-05T02:47:12Z</time>
      </trkpt>
      <trkpt lat="43.40815" lon="16.88121">
        <ele>447.036</ele>
        <time>2018-10-05T02:47:32Z</time>
      </trkpt>
      <trkpt lat="43.40816" lon="16.88122">
        <ele>445.045</ele>
        <time>2018-10-05T02:47:52Z</time>
      </trkpt>
      <trkpt lat="43.40815" lon="16.88126">
        <ele>444.047</ele>
        <time>2018-10-05T02:48:12Z</time>
      </trkpt>
      <trkpt lat="43.40816" lon="16.88131">
        <ele>442.011</ele>
        <time>2018-10-05T02:48:32Z</time>
      </trkpt>
      <trkpt lat="43.40817" lon="16.88137">
        <ele>441.008</ele>
        <time>2018-10-05T02:48:52Z</time>
      </trkpt>
      <trkpt lat="43.40816" lon="16.8814">
        <ele>439.036</ele>
        <time>2018-10-05T02:49:12Z</time>
      </trkpt>
      <trkpt lat="43.40813" lon="16.88144">
        <ele>437.043</ele>
        <time>2018-10-05T02:49:32Z</time>
      </trkpt>
      <trkpt lat="43.40814" lon="16.88147">
        <ele>436.086</ele>
        <time>2018-10-05T02:49:52Z</time>
      </trkpt>
      <trkpt lat="43.40815" lon="16.88152">
        <ele>435.058</ele>
        <time>2018-10-05T02:50:12Z</time>
      </trkpt>
      <trkpt lat="43.40816" lon="16.88156">
        <ele>433.026</ele>
        <time>2018-10-05T02:50:32Z</time>
      </trkpt>
      <trkpt lat="43.40815" lon="16.8816">
        <ele>432.057</ele>
        <time>2018-10-05T02:50:52Z</time>
      </trkpt>
      <trkpt lat="43.40813" lon="16.88165">
        <ele>430.047</ele>
        <time>2018-10-05T02:51:12Z</time>
      </trkpt>
      <trkpt lat="43.40811" lon="16.88167">
        <ele>429.046</ele>
        <time>2018-10-05T02:51:32Z</time>
      </trkpt>
      <trkpt lat="43.40812" lon="16.88173">
        <ele>428.046</ele>
        <time>2018-10-05T02:51:52Z</time>
      </trkpt>
      <trkpt lat="43.40813" lon="16.88176">
        <ele>427.088</ele>
        <time>2018-10-05T02:52:12Z</time>
      </trkpt>
      <trkpt lat="43.40813" lon="16.88182">
        <ele>425.016</ele>
        <time>2018-10-05T02:52:32Z</time>
      </trkpt>
      <trkpt lat="43.40812" lon="16.88184">
        <ele>423.008</ele>
        <time>2018-10-05T02:52:52Z</time>
      </trkpt>
      <trkpt lat="43.40812" lon="16.88187">
        <ele>422.026</ele>
        <time>2018-10-05T02:53:12Z</time>
      </trkpt>
      <trkpt lat="43.40812" lon="16.88192">
        <ele>421.053</ele>
        <time>2018-10-05T02:53:32Z</time>
      </trkpt>
      <trkpt lat="43.40812" lon="16.88196">
        <ele>420.046</ele>
        <time>2018-10-05T02:53:52Z</time>
      </trkpt>
      <trkpt lat="43.40811" lon="16.88201">
        <ele>418.038</ele>
        <time>2018-10-05T02:54:12Z</time>
      </trkpt>
      <trkpt lat="43.4081" lon="16.88203">
        <ele>417.026</ele>
        <time>2018-10-05T02:54:32Z</time>
      </trkpt>
      <trkpt lat="43.40812" lon="16.88208">
        <ele>415.097</ele>
        <time>2018-10-05T02:54:52Z</time>
      </trkpt>
      <trkpt lat="43.40812" lon="16.8821">
        <ele>415.047</ele>
        <time>2018-10-05T02:55:12Z</time>
      </trkpt>
      <trkpt lat="43.40811" lon="16.88213">
        <ele>413.026</ele>
        <time>2018-10-05T02:55:32Z</time>
      </trkpt>
      <trkpt lat="43.4081" lon="16.88216">
        <ele>412.086</ele>
        <time>2018-10-05T02:55:52Z</time>
      </trkpt>
      <trkpt lat="43.4081" lon="16.88226">
        <ele>409.06</ele>
        <time>2018-10-05T02:56:12Z</time>
      </trkpt>
      <trkpt lat="43.40811" lon="16.88233">
        <ele>407.026</ele>
        <time>2018-10-05T02:56:32Z</time>
      </trkpt>
      <trkpt lat="43.40809" lon="16.88237">
        <ele>406.008</ele>
        <time>2018-10-05T02:56:52Z</time>
      </trkpt>
      <trkpt lat="43.40808" lon="16.88242">
        <ele>403.05</ele>
        <time>2018-10-05T02:57:12Z</time>
      </trkpt>
      <trkpt lat="43.40808" lon="16.88249">
        <ele>401.087</ele>
        <time>2018-10-05T02:57:32Z</time>
      </trkpt>
      <trkpt lat="43.40809" lon="16.88257">
        <ele>399.02</ele>
        <time>2018-10-05T02:57:52Z</time>
      </trkpt>
      <trkpt lat="43.40811" lon="16.88264">
        <ele>397.032</ele>
        <time>2018-10-05T02:58:12Z</time>
      </trkpt>
      <trkpt lat="43.40812" lon="16.88275">
        <ele>395.01</ele>
        <time>2018-10-05T02:58:32Z</time>
      </trkpt>
      <trkpt lat="43.40812" lon="16.88277">
        <ele>395.041</ele>
        <time>2018-10-05T02:58:52Z</time>
      </trkpt>
      <trkpt lat="43.40809" lon="16.88282">
        <ele>393.061</ele>
        <time>2018-10-05T02:59:12Z</time>
      </trkpt>
      <trkpt lat="43.40807" lon="16.88283">
        <ele>392.03</ele>
        <time>2018-10-05T02:59:32Z</time>
      </trkpt>
      <trkpt lat="43.40801" lon="16.88285">
        <ele>391.046</ele>
        <time>2018-10-05T02:59:52Z</time>
      </trkpt>
      <trkpt lat="43.40794" lon="16.88288">
        <ele>389.088</ele>
        <time>2018-10-05T03:00:12Z</time>
      </trkpt>
      <trkpt lat="43.40788" lon="16.88294">
        <ele>389.016</ele>
        <time>2018-10-05T03:00:32Z</time>
      </trkpt>
      <trkpt lat="43.40782" lon="16.88302">
        <ele>388.008</ele>
        <time>2018-10-05T03:00:52Z</time>
      </trkpt>
      <trkpt lat="43.40779" lon="16.88305">
        <ele>387.056</ele>
        <time>2018-10-05T03:01:12Z</time>
      </trkpt>
      <trkpt lat="43.40779" lon="16.88305">
        <ele>387.083</ele>
        <time>2018-10-05T03:01:32Z</time>
      </trkpt>
      <trkpt lat="43.40773" lon="16.88311">
        <ele>386.076</ele>
        <time>2018-10-05T03:01:52Z</time>
      </trkpt>
      <trkpt lat="43.40765" lon="16.88319">
        <ele>386.078</ele>
        <time>2018-10-05T03:02:12Z</time>
      </trkpt>
      <trkpt lat="43.40752" lon="16.88319">
        <ele>385.026</ele>
        <time>2018-10-05T03:02:32Z</time>
      </trkpt>
      <trkpt lat="43.40742" lon="16.88314">
        <ele>384.037</ele>
        <time>2018-10-05T03:02:52Z</time>
      </trkpt>
      <trkpt lat="43.40731" lon="16.88305">
        <ele>383.077</ele>
        <time>2018-10-05T03:03:12Z</time>
      </trkpt>
      <trkpt lat="43.40718" lon="16.88293">
        <ele>381.016</ele>
        <time>2018-10-05T03:03:32Z</time>
      </trkpt>
      <trkpt lat="43.4071" lon="16.88286">
        <ele>379.035</ele>
        <time>2018-10-05T03:03:52Z</time>
      </trkpt>
      <trkpt lat="43.40702" lon="16.8828">
        <ele>378.086</ele>
        <time>2018-10-05T03:04:12Z</time>
      </trkpt>
      <trkpt lat="43.40693" lon="16.88279">
        <ele>377.014</ele>
        <time>2018-10-05T03:04:32Z</time>
      </trkpt>
      <trkpt lat="43.40689" lon="16.88284">
        <ele>375.008</ele>
        <time>2018-10-05T03:04:52Z</time>
      </trkpt>
      <trkpt lat="43.40687" lon="16.8829">
        <ele>374.075</ele>
        <time>2018-10-05T03:05:12Z</time>
      </trkpt>
      <trkpt lat="43.40694" lon="16.88297">
        <ele>373.032</ele>
        <time>2018-10-05T03:05:32Z</time>
      </trkpt>
      <trkpt lat="43.40703" lon="16.88311">
        <ele>372.065</ele>
        <time>2018-10-05T03:05:52Z</time>
      </trkpt>
      <trkpt lat="43.40716" lon="16.88341">
        <ele>370.067</ele>
        <time>2018-10-05T03:06:12Z</time>
      </trkpt>
      <trkpt lat="43.40714" lon="16.88356">
        <ele>368.025</ele>
        <time>2018-10-05T03:06:32Z</time>
      </trkpt>
      <trkpt lat="43.40714" lon="16.88365">
        <ele>365.056</ele>
        <time>2018-10-05T03:06:52Z</time>
      </trkpt>
      <trkpt lat="43.40715" lon="16.88372">
        <ele>364.096</ele>
        <time>2018-10-05T03:07:12Z</time>
      </trkpt>
      <trkpt lat="43.40714" lon="16.88382">
        <ele>362.075</ele>
        <time>2018-10-05T03:07:32Z</time>
      </trkpt>
      <trkpt lat="43.40713" lon="16.88391">
        <ele>360.041</ele>
        <time>2018-10-05T03:07:52Z</time>
      </trkpt>
      <trkpt lat="43.40712" lon="16.88405">
        <ele>357.081</ele>
        <time>2018-10-05T03:08:12Z</time>
      </trkpt>
      <trkpt lat="43.40711" lon="16.8842">
        <ele>354.009</ele>
        <time>2018-10-05T03:08:32Z</time>
      </trkpt>
      <trkpt lat="43.40711" lon="16.8844">
        <ele>350.008</ele>
        <time>2018-10-05T03:08:52Z</time>
      </trkpt>
      <trkpt lat="43.40707" lon="16.88455">
        <ele>348.056</ele>
        <time>2018-10-05T03:09:12Z</time>
      </trkpt>
      <trkpt lat="43.40707" lon="16.8847">
        <ele>344.083</ele>
        <time>2018-10-05T03:09:32Z</time>
      </trkpt>
      <trkpt lat="43.40708" lon="16.88474">
        <ele>343.076</ele>
        <time>2018-10-05T03:09:52Z</time>
      </trkpt>
      <trkpt lat="43.40709" lon="16.88482">
        <ele>342.038</ele>
        <time>2018-10-05T03:10:12Z</time>
      </trkpt>
      <trkpt lat="43.407" lon="16.88509">
        <ele>339.056</ele>
        <time>2018-10-05T03:10:32Z</time>
      </trkpt>
      <trkpt lat="43.40696" lon="16.88526">
        <ele>336.087</ele>
        <time>2018-10-05T03:10:52Z</time>
      </trkpt>
      <trkpt lat="43.40694" lon="16.88534">
        <ele>333.037</ele>
        <time>2018-10-05T03:11:12Z</time>
      </trkpt>
      <trkpt lat="43.4069" lon="16.88545">
        <ele>331.066</ele>
        <time>2018-10-05T03:11:32Z</time>
      </trkpt>
      <trkpt lat="43.40688" lon="16.88554">
        <ele>328.023</ele>
        <time>2018-10-05T03:11:52Z</time>
      </trkpt>
      <trkpt lat="43.40688" lon="16.88563">
        <ele>326.083</ele>
        <time>2018-10-05T03:12:12Z</time>
      </trkpt>
      <trkpt lat="43.40686" lon="16.88573">
        <ele>324.011</ele>
        <time>2018-10-05T03:12:32Z</time>
      </trkpt>
      <trkpt lat="43.40684" lon="16.88584">
        <ele>323.008</ele>
        <time>2018-10-05T03:12:52Z</time>
      </trkpt>
      <trkpt lat="43.40683" lon="16.88603">
        <ele>321.034</ele>
        <time>2018-10-05T03:13:12Z</time>
      </trkpt>
      <trkpt lat="43.40682" lon="16.88627">
        <ele>320.011</ele>
        <time>2018-10-05T03:13:32Z</time>
      </trkpt>
      <trkpt lat="43.40679" lon="16.88642">
        <ele>319.084</ele>
        <time>2018-10-05T03:13:52Z</time>
      </trkpt>
      <trkpt lat="43.40678" lon="16.88646">
        <ele>318.096</ele>
        <time>2018-10-05T03:14:12Z</time>
      </trkpt>
      <trkpt lat="43.40677" lon="16.88651">
        <ele>317.054</ele>
        <time>2018-10-05T03:14:32Z</time>
      </trkpt>
      <trkpt lat="43.40671" lon="16.88666">
        <ele>316.015</ele>
        <time>2018-10-05T03:14:52Z</time>
      </trkpt>
      <trkpt lat="43.40664" lon="16.88682">
        <ele>315.015</ele>
        <time>2018-10-05T03:15:12Z</time>
      </trkpt>
      <trkpt lat="43.40658" lon="16.887">
        <ele>314.034</ele>
        <time>2018-10-05T03:15:32Z</time>
      </trkpt>
      <trkpt lat="43.40651" lon="16.88717">
        <ele>313.021</ele>
        <time>2018-10-05T03:15:52Z</time>
      </trkpt>
      <trkpt lat="43.40644" lon="16.88735">
        <ele>312.041</ele>
        <time>2018-10-05T03:16:12Z</time>
      </trkpt>
      <trkpt lat="43.40636" lon="16.88756">
        <ele>311.005</ele>
        <time>2018-10-05T03:16:32Z</time>
      </trkpt>
      <trkpt lat="43.40629" lon="16.88777">
        <ele>310.008</ele>
        <time>2018-10-05T03:16:52Z</time>
      </trkpt>
      <trkpt lat="43.40621" lon="16.88796">
        <ele>309.024</ele>
        <time>2018-10-05T03:17:12Z</time>
      </trkpt>
      <trkpt lat="43.40614" lon="16.88811">
        <ele>308.031</ele>
        <time>2018-10-05T03:17:32Z</time>
      </trkpt>
      <trkpt lat="43.40605" lon="16.88819">
        <ele>306.084</ele>
        <time>2018-10-05T03:17:52Z</time>
      </trkpt>
      <trkpt lat="43.40597" lon="16.88823">
        <ele>305.096</ele>
        <time>2018-10-05T03:18:12Z</time>
      </trkpt>
      <trkpt lat="43.40582" lon="16.8883">
        <ele>304.044</ele>
        <time>2018-10-05T03:18:32Z</time>
      </trkpt>
      <trkpt lat="43.40571" lon="16.88835">
        <ele>303.085</ele>
        <time>2018-10-05T03:18:52Z</time>
      </trkpt>
      <trkpt lat="43.40561" lon="16.88838">
        <ele>302.085</ele>
        <time>2018-10-05T03:19:12Z</time>
      </trkpt>
      <trkpt lat="43.40553" lon="16.8884">
        <ele>301.084</ele>
        <time>2018-10-05T03:19:32Z</time>
      </trkpt>
      <trkpt lat="43.40546" lon="16.88844">
        <ele>299.084</ele>
        <time>2018-10-05T03:19:52Z</time>
      </trkpt>
      <trkpt lat="43.40538" lon="16.88857">
        <ele>298.007</ele>
        <time>2018-10-05T03:20:12Z</time>
      </trkpt>
      <trkpt lat="43.40533" lon="16.8887">
        <ele>297.017</ele>
        <time>2018-10-05T03:20:32Z</time>
      </trkpt>
      <trkpt lat="43.40529" lon="16.88884">
        <ele>296.008</ele>
        <time>2018-10-05T03:20:52Z</time>
      </trkpt>
      <trkpt lat="43.40526" lon="16.88902">
        <ele>295.07</ele>
        <time>2018-10-05T03:21:12Z</time>
      </trkpt>
      <trkpt lat="43.40523" lon="16.88915">
        <ele>294.097</ele>
        <time>2018-10-05T03:21:32Z</time>
      </trkpt>
      <trkpt lat="43.4052" lon="16.88929">
        <ele>292.03</ele>
        <time>2018-10-05T03:21:52Z</time>
      </trkpt>
      <trkpt lat="43.40516" lon="16.8895">
        <ele>291.042</ele>
        <time>2018-10-05T03:22:12Z</time>
      </trkpt>
      <trkpt lat="43.40512" lon="16.88975">
        <ele>290.07</ele>
        <time>2018-10-05T03:22:32Z</time>
      </trkpt>
      <trkpt lat="43.40509" lon="16.88997">
        <ele>289.011</ele>
        <time>2018-10-05T03:22:52Z</time>
      </trkpt>
      <trkpt lat="43.40507" lon="16.89024">
        <ele>288.061</ele>
        <time>2018-10-05T03:23:12Z</time>
      </trkpt>
      <trkpt lat="43.40504" lon="16.89035">
        <ele>288.02</ele>
        <time>2018-10-05T03:23:32Z</time>
      </trkpt>
      <trkpt lat="43.40498" lon="16.8906">
        <ele>287.036</ele>
        <time>2018-10-05T03:23:52Z</time>
      </trkpt>
      <trkpt lat="43.40494" lon="16.89076">
        <ele>286.017</ele>
        <time>2018-10-05T03:24:12Z</time>
      </trkpt>
      <trkpt lat="43.40483" lon="16.89104">
        <ele>285.018</ele>
        <time>2018-10-05T03:24:32Z</time>
      </trkpt>
      <trkpt lat="43.40474" lon="16.89125">
        <ele>283.008</ele>
        <time>2018-10-05T03:24:52Z</time>
      </trkpt>
      <trkpt lat="43.40465" lon="16.89151">
        <ele>282.045</ele>
        <time>2018-10-05T03:25:12Z</time>
      </trkpt>
      <trkpt lat="43.40457" lon="16.89176">
        <ele>281.092</ele>
        <time>2018-10-05T03:25:32Z</time>
      </trkpt>
      <trkpt lat="43.4045" lon="16.89201">
        <ele>280.015</ele>
        <time>2018-10-05T03:25:52Z</time>
      </trkpt>
      <trkpt lat="43.40441" lon="16.89227">
        <ele>279.027</ele>
        <time>2018-10-05T03:26:12Z</time>
      </trkpt>
      <trkpt lat="43.40433" lon="16.89244">
        <ele>278.035</ele>
        <time>2018-10-05T03:26:32Z</time>
      </trkpt>
      <trkpt lat="43.40422" lon="16.89257">
        <ele>279.066</ele>
        <time>2018-10-05T03:26:52Z</time>
      </trkpt>
      <trkpt lat="43.40411" lon="16.89268">
        <ele>280.046</ele>
        <time>2018-10-05T03:27:12Z</time>
      </trkpt>
      <trkpt lat="43.40394" lon="16.8928">
        <ele>281.025</ele>
        <time>2018-10-05T03:27:32Z</time>
      </trkpt>
      <trkpt lat="43.40378" lon="16.8929">
        <ele>282.076</ele>
        <time>2018-10-05T03:27:52Z</time>
      </trkpt>
      <trkpt lat="43.4036" lon="16.89303">
        <ele>284.09</ele>
        <time>2018-10-05T03:28:12Z</time>
      </trkpt>
      <trkpt lat="43.40349" lon="16.89311">
        <ele>285.019</ele>
        <time>2018-10-05T03:28:32Z</time>
      </trkpt>
      <trkpt lat="43.40337" lon="16.89324">
        <ele>286.008</ele>
        <time>2018-10-05T03:28:52Z</time>
      </trkpt>
      <trkpt lat="43.40322" lon="16.89343">
        <ele>287.099</ele>
        <time>2018-10-05T03:29:12Z</time>
      </trkpt>
      <trkpt lat="43.40315" lon="16.89351">
        <ele>288.076</ele>
        <time>2018-10-05T03:29:32Z</time>
      </trkpt>
      <trkpt lat="43.40309" lon="16.89361">
        <ele>289.039</ele>
        <time>2018-10-05T03:29:52Z</time>
      </trkpt>
      <trkpt lat="43.40307" lon="16.89365">
        <ele>289.081</ele>
        <time>2018-10-05T03:30:12Z</time>
      </trkpt>
      <trkpt lat="43.40305" lon="16.8937">
        <ele>289.039</ele>
        <time>2018-10-05T03:30:32Z</time>
      </trkpt>
      <trkpt lat="43.40302" lon="16.89374">
        <ele>289.02</ele>
        <time>2018-10-05T03:30:52Z</time>
      </trkpt>
      <trkpt lat="43.40299" lon="16.89379">
        <ele>288.03</ele>
        <time>2018-10-05T03:31:12Z</time>
      </trkpt>
      <trkpt lat="43.40294" lon="16.8938">
        <ele>289.079</ele>
        <time>2018-10-05T03:31:32Z</time>
      </trkpt>
      <trkpt lat="43.40292" lon="16.89399">
        <ele>288.062</ele>
        <time>2018-10-05T03:31:52Z</time>
      </trkpt>
      <trkpt lat="43.40283" lon="16.89424">
        <ele>289.083</ele>
        <time>2018-10-05T03:32:12Z</time>
      </trkpt>
      <trkpt lat="43.40283" lon="16.89428">
        <ele>289.011</ele>
        <time>2018-10-05T03:32:32Z</time>
      </trkpt>
      <trkpt lat="43.40277" lon="16.89444">
        <ele>289.008</ele>
        <time>2018-10-05T03:32:52Z</time>
      </trkpt>
      <trkpt lat="43.40272" lon="16.89471">
        <ele>290.028</ele>
        <time>2018-10-05T03:33:12Z</time>
      </trkpt>
      <trkpt lat="43.40271" lon="16.89477">
        <ele>289.085</ele>
        <time>2018-10-05T03:33:32Z</time>
      </trkpt>
      <trkpt lat="43.40269" lon="16.89487">
        <ele>290.018</ele>
        <time>2018-10-05T03:33:52Z</time>
      </trkpt>
      <trkpt lat="43.40273" lon="16.89497">
        <ele>288.03</ele>
        <time>2018-10-05T03:34:12Z</time>
      </trkpt>
      <trkpt lat="43.40278" lon="16.89508">
        <ele>286.068</ele>
        <time>2018-10-05T03:34:32Z</time>
      </trkpt>
      <trkpt lat="43.40281" lon="16.89517">
        <ele>285.069</ele>
        <time>2018-10-05T03:34:52Z</time>
      </trkpt>
      <trkpt lat="43.40283" lon="16.89535">
        <ele>283.059</ele>
        <time>2018-10-05T03:35:12Z</time>
      </trkpt>
      <trkpt lat="43.40288" lon="16.89552">
        <ele>280.088</ele>
        <time>2018-10-05T03:35:32Z</time>
      </trkpt>
      <trkpt lat="43.40292" lon="16.89569">
        <ele>278.047</ele>
        <time>2018-10-05T03:35:52Z</time>
      </trkpt>
      <trkpt lat="43.40296" lon="16.89583">
        <ele>276.029</ele>
        <time>2018-10-05T03:36:12Z</time>
      </trkpt>
      <trkpt lat="43.40298" lon="16.89593">
        <ele>274.021</ele>
        <time>2018-10-05T03:36:32Z</time>
      </trkpt>
      <trkpt lat="43.40301" lon="16.89598">
        <ele>273.008</ele>
        <time>2018-10-05T03:36:52Z</time>
      </trkpt>
      <trkpt lat="43.40305" lon="16.89605">
        <ele>272.096</ele>
        <time>2018-10-05T03:37:12Z</time>
      </trkpt>
      <trkpt lat="43.4031" lon="16.89612">
        <ele>271.043</ele>
        <time>2018-10-05T03:37:32Z</time>
      </trkpt>
      <trkpt lat="43.40316" lon="16.89618">
        <ele>270.096</ele>
        <time>2018-10-05T03:37:52Z</time>
      </trkpt>
      <trkpt lat="43.40324" lon="16.89627">
        <ele>269.038</ele>
        <time>2018-10-05T03:38:12Z</time>
      </trkpt>
      <trkpt lat="43.40334" lon="16.89639">
        <ele>267.066</ele>
        <time>2018-10-05T03:38:32Z</time>
      </trkpt>
      <trkpt lat="43.40346" lon="16.89652">
        <ele>266.017</ele>
        <time>2018-10-05T03:38:52Z</time>
      </trkpt>
      <trkpt lat="43.4035" lon="16.89664">
        <ele>265.087</ele>
        <time>2018-10-05T03:39:12Z</time>
      </trkpt>
      <trkpt lat="43.40356" lon="16.8968">
        <ele>264.076</ele>
        <time>2018-10-05T03:39:32Z</time>
      </trkpt>
      <trkpt lat="43.40365" lon="16.89685">
        <ele>264.046</ele>
        <time>2018-10-05T03:39:52Z</time>
      </trkpt>
      <trkpt lat="43.40378" lon="16.897">
        <ele>263.088</ele>
        <time>2018-10-05T03:40:12Z</time>
      </trkpt>
      <trkpt lat="43.4039" lon="16.89723">
        <ele>263.016</ele>
        <time>2018-10-05T03:40:32Z</time>
      </trkpt>
      <trkpt lat="43.40405" lon="16.89737">
        <ele>263.008</ele>
        <time>2018-10-05T03:40:52Z</time>
      </trkpt>
      <trkpt lat="43.40424" lon="16.89756">
        <ele>262.036</ele>
        <time>2018-10-05T03:41:12Z</time>
      </trkpt>
      <trkpt lat="43.40437" lon="16.89775">
        <ele>262.063</ele>
        <time>2018-10-05T03:41:32Z</time>
      </trkpt>
      <trkpt lat="43.40453" lon="16.89791">
        <ele>262.046</ele>
        <time>2018-10-05T03:41:52Z</time>
      </trkpt>
      <trkpt lat="43.40473" lon="16.89809">
        <ele>261.078</ele>
        <time>2018-10-05T03:42:12Z</time>
      </trkpt>
      <trkpt lat="43.40476" lon="16.89813">
        <ele>261.036</ele>
        <time>2018-10-05T03:42:32Z</time>
      </trkpt>
      <trkpt lat="43.40486" lon="16.89824">
        <ele>260.097</ele>
        <time>2018-10-05T03:42:52Z</time>
      </trkpt>
      <trkpt lat="43.40492" lon="16.89828">
        <ele>260.017</ele>
        <time>2018-10-05T03:43:12Z</time>
      </trkpt>
      <trkpt lat="43.40494" lon="16.8983">
        <ele>260.046</ele>
        <time>2018-10-05T03:43:32Z</time>
      </trkpt>
      <trkpt lat="43.405" lon="16.89836">
        <ele>259.061</ele>
        <time>2018-10-05T03:43:52Z</time>
      </trkpt>
      <trkpt lat="43.40502" lon="16.89836">
        <ele>259.021</ele>
        <time>2018-10-05T03:44:12Z</time>
      </trkpt>
      <trkpt lat="43.40504" lon="16.89835">
        <ele>258.013</ele>
        <time>2018-10-05T03:44:32Z</time>
      </trkpt>
      <trkpt lat="43.40505" lon="16.89832">
        <ele>258.008</ele>
        <time>2018-10-05T03:44:52Z</time>
      </trkpt>
      <trkpt lat="43.40507" lon="16.89834">
        <ele>257.028</ele>
        <time>2018-10-05T03:45:12Z</time>
      </trkpt>
      <trkpt lat="43.4051" lon="16.89839">
        <ele>255.015</ele>
        <time>2018-10-05T03:45:32Z</time>
      </trkpt>
      <trkpt lat="43.40514" lon="16.89843">
        <ele>255.098</ele>
        <time>2018-10-05T03:45:52Z</time>
      </trkpt>
      <trkpt lat="43.40516" lon="16.89844">
        <ele>254.08</ele>
        <time>2018-10-05T03:46:12Z</time>
      </trkpt>
      <trkpt lat="43.40516" lon="16.89844">
        <ele>254.048</ele>
        <time>2018-10-05T03:46:32Z</time>
      </trkpt>
      <trkpt lat="43.40517" lon="16.89843">
        <ele>254.049</ele>
        <time>2018-10-05T03:46:52Z</time>
      </trkpt>
      <trkpt lat="43.4052" lon="16.89837">
        <ele>252.039</ele>
        <time>2018-10-05T03:47:12Z</time>
      </trkpt>
      <trkpt lat="43.40524" lon="16.89832">
        <ele>250.098</ele>
        <time>2018-10-05T03:47:32Z</time>
      </trkpt>
      <trkpt lat="43.40528" lon="16.89829">
        <ele>249.024</ele>
        <time>2018-10-05T03:47:52Z</time>
      </trkpt>
      <trkpt lat="43.40534" lon="16.89827">
        <ele>248.004</ele>
        <time>2018-10-05T03:48:12Z</time>
      </trkpt>
      <trkpt lat="43.40541" lon="16.89823">
        <ele>246.014</ele>
        <time>2018-10-05T03:48:32Z</time>
      </trkpt>
      <trkpt lat="43.40542" lon="16.89822">
        <ele>246.008</ele>
        <time>2018-10-05T03:48:52Z</time>
      </trkpt>
      <trkpt lat="43.40543" lon="16.89826">
        <ele>245.054</ele>
        <time>2018-10-05T03:49:12Z</time>
      </trkpt>
      <trkpt lat="43.40542" lon="16.8983">
        <ele>244.071</ele>
        <time>2018-10-05T03:49:32Z</time>
      </trkpt>
      <trkpt lat="43.40539" lon="16.89835">
        <ele>242.094</ele>
        <time>2018-10-05T03:49:52Z</time>
      </trkpt>
      <trkpt lat="43.40534" lon="16.89849">
        <ele>242.046</ele>
        <time>2018-10-05T03:50:12Z</time>
      </trkpt>
      <trkpt lat="43.40532" lon="16.89856">
        <ele>241.034</ele>
        <time>2018-10-05T03:50:32Z</time>
      </trkpt>
      <trkpt lat="43.40533" lon="16.89867">
        <ele>240.065</ele>
        <time>2018-10-05T03:50:52Z</time>
      </trkpt>
      <trkpt lat="43.40534" lon="16.89874">
        <ele>239.035</ele>
        <time>2018-10-05T03:51:12Z</time>
      </trkpt>
      <trkpt lat="43.40534" lon="16.89881">
        <ele>238.024</ele>
        <time>2018-10-05T03:51:32Z</time>
      </trkpt>
      <trkpt lat="43.40533" lon="16.89887">
        <ele>236.045</ele>
        <time>2018-10-05T03:51:52Z</time>
      </trkpt>
      <trkpt lat="43.40534" lon="16.89889">
        <ele>236.047</ele>
        <time>2018-10-05T03:52:12Z</time>
      </trkpt>
      <trkpt lat="43.40537" lon="16.89888">
        <ele>234.011</ele>
        <time>2018-10-05T03:52:32Z</time>
      </trkpt>
      <trkpt lat="43.40538" lon="16.89885">
        <ele>234.008</ele>
        <time>2018-10-05T03:52:52Z</time>
      </trkpt>
      <trkpt lat="43.40538" lon="16.89883">
        <ele>233.086</ele>
        <time>2018-10-05T03:53:12Z</time>
      </trkpt>
      <trkpt lat="43.40539" lon="16.89881">
        <ele>232.043</ele>
        <time>2018-10-05T03:53:32Z</time>
      </trkpt>
      <trkpt lat="43.40538" lon="16.8989">
        <ele>230.046</ele>
        <time>2018-10-05T03:53:52Z</time>
      </trkpt>
      <trkpt lat="43.40538" lon="16.89896">
        <ele>228.098</ele>
        <time>2018-10-05T03:54:12Z</time>
      </trkpt>
      <trkpt lat="43.40536" lon="16.89904">
        <ele>226.076</ele>
        <time>2018-10-05T03:54:32Z</time>
      </trkpt>
      <trkpt lat="43.40536" lon="16.8991">
        <ele>225.087</ele>
        <time>2018-10-05T03:54:52Z</time>
      </trkpt>
      <trkpt lat="43.40535" lon="16.89917">
        <ele>224.057</ele>
        <time>2018-10-05T03:55:12Z</time>
      </trkpt>
      <trkpt lat="43.40535" lon="16.89919">
        <ele>224.026</ele>
        <time>2018-10-05T03:55:32Z</time>
      </trkpt>
      <trkpt lat="43.40535" lon="16.8992">
        <ele>223.036</ele>
        <time>2018-10-05T03:55:52Z</time>
      </trkpt>
      <trkpt lat="43.4054" lon="16.89916">
        <ele>222.017</ele>
        <time>2018-10-05T03:56:12Z</time>
      </trkpt>
      <trkpt lat="43.40546" lon="16.89906">
        <ele>221.018</ele>
        <time>2018-10-05T03:56:32Z</time>
      </trkpt>
      <trkpt lat="43.40547" lon="16.89904">
        <ele>220.008</ele>
        <time>2018-10-05T03:56:52Z</time>
      </trkpt>
      <trkpt lat="43.40551" lon="16.899">
        <ele>218.065</ele>
        <time>2018-10-05T03:57:12Z</time>
      </trkpt>
      <trkpt lat="43.40554" lon="16.89896">
        <ele>217.022</ele>
        <time>2018-10-05T03:57:32Z</time>
      </trkpt>
      <trkpt lat="43.40556" lon="16.89893">
        <ele>216.055</ele>
        <time>2018-10-05T03:57:52Z</time>
      </trkpt>
      <trkpt lat="43.40564" lon="16.8989">
        <ele>215.067</ele>
        <time>2018-10-05T03:58:12Z</time>
      </trkpt>
      <trkpt lat="43.40568" lon="16.89885">
        <ele>214.075</ele>
        <time>2018-10-05T03:58:32Z</time>
      </trkpt>
      <trkpt lat="43.40578" lon="16.89889">
        <ele>212.016</ele>
        <time>2018-10-05T03:58:52Z</time>
      </trkpt>
      <trkpt lat="43.40585" lon="16.89886">
        <ele>211.026</ele>
        <time>2018-10-05T03:59:12Z</time>
      </trkpt>
      <trkpt lat="43.40589" lon="16.89885">
        <ele>211.065</ele>
        <time>2018-10-05T03:59:32Z</time>
      </trkpt>
      <trkpt lat="43.40593" lon="16.89882">
        <ele>211.017</ele>
        <time>2018-10-05T03:59:52Z</time>
      </trkpt>
      <trkpt lat="43.40601" lon="16.89874">
        <ele>210.087</ele>
        <time>2018-10-05T04:00:12Z</time>
      </trkpt>
      <trkpt lat="43.4061" lon="16.89857">
        <ele>210.015</ele>
        <time>2018-10-05T04:00:32Z</time>
      </trkpt>
      <trkpt lat="43.40611" lon="16.89855">
        <ele>210.008</ele>
        <time>2018-10-05T04:00:52Z</time>
      </trkpt>
      <trkpt lat="43.40618" lon="16.89857">
        <ele>213.043</ele>
        <time>2018-10-05T04:01:12Z</time>
      </trkpt>
      <trkpt lat="43.40628" lon="16.89866">
        <ele>215.09</ele>
        <time>2018-10-05T04:01:32Z</time>
      </trkpt>
      <trkpt lat="43.40633" lon="16.89874">
        <ele>217.093</ele>
        <time>2018-10-05T04:01:52Z</time>
      </trkpt>
      <trkpt lat="43.40638" lon="16.89878">
        <ele>219.095</ele>
        <time>2018-10-05T04:02:12Z</time>
      </trkpt>
      <trkpt lat="43.40639" lon="16.89881">
        <ele>220.063</ele>
        <time>2018-10-05T04:02:32Z</time>
      </trkpt>
      <trkpt lat="43.40645" lon="16.89878">
        <ele>223.094</ele>
        <time>2018-10-05T04:02:52Z</time>
      </trkpt>
      <trkpt lat="43.40646" lon="16.89872">
        <ele>224.084</ele>
        <time>2018-10-05T04:03:12Z</time>
      </trkpt>
      <trkpt lat="43.40649" lon="16.89869">
        <ele>226.063</ele>
        <time>2018-10-05T04:03:32Z</time>
      </trkpt>
      <trkpt lat="43.40653" lon="16.89871">
        <ele>227.018</ele>
        <time>2018-10-05T04:03:52Z</time>
      </trkpt>
      <trkpt lat="43.40657" lon="16.89872">
        <ele>228.098</ele>
        <time>2018-10-05T04:04:12Z</time>
      </trkpt>
      <trkpt lat="43.40662" lon="16.89868">
        <ele>230.017</ele>
        <time>2018-10-05T04:04:32Z</time>
      </trkpt>
      <trkpt lat="43.40665" lon="16.89861">
        <ele>231.008</ele>
        <time>2018-10-05T04:04:52Z</time>
      </trkpt>
      <trkpt lat="43.40665" lon="16.8986">
        <ele>231.093</ele>
        <time>2018-10-05T04:05:12Z</time>
      </trkpt>
      <trkpt lat="43.40667" lon="16.8986">
        <ele>231.09</ele>
        <time>2018-10-05T04:05:32Z</time>
      </trkpt>
      <trkpt lat="43.40672" lon="16.89866">
        <ele>233.073</ele>
        <time>2018-10-05T04:05:52Z</time>
      </trkpt>
      <trkpt lat="43.40682" lon="16.89868">
        <ele>235.085</ele>
        <time>2018-10-05T04:06:12Z</time>
      </trkpt>
      <trkpt lat="43.40683" lon="16.89867">
        <ele>235.053</ele>
        <time>2018-10-05T04:06:32Z</time>
      </trkpt>
      <trkpt lat="43.40687" lon="16.89858">
        <ele>236.024</ele>
        <time>2018-10-05T04:06:52Z</time>
      </trkpt>
      <trkpt lat="43.40694" lon="16.89842">
        <ele>233.054</ele>
        <time>2018-10-05T04:07:12Z</time>
      </trkpt>
      <trkpt lat="43.40696" lon="16.89832">
        <ele>232.053</ele>
        <time>2018-10-05T04:07:32Z</time>
      </trkpt>
      <trkpt lat="43.40701" lon="16.89818">
        <ele>230.021</ele>
        <time>2018-10-05T04:07:52Z</time>
      </trkpt>
      <trkpt lat="43.40702" lon="16.89812">
        <ele>229.041</ele>
        <time>2018-10-05T04:08:12Z</time>
      </trkpt>
      <trkpt lat="43.40703" lon="16.89793">
        <ele>227.005</ele>
        <time>2018-10-05T04:08:32Z</time>
      </trkpt>
      <trkpt lat="43.40704" lon="16.89785">
        <ele>225.008</ele>
        <time>2018-10-05T04:08:52Z</time>
      </trkpt>
      <trkpt lat="43.40704" lon="16.89781">
        <ele>225.054</ele>
        <time>2018-10-05T04:09:12Z</time>
      </trkpt>
      <trkpt lat="43.40702" lon="16.89757">
        <ele>223.061</ele>
        <time>2018-10-05T04:09:32Z</time>
      </trkpt>
      <trkpt lat="43.40701" lon="16.89754">
        <ele>223.024</ele>
        <time>2018-10-05T04:09:52Z</time>
      </trkpt>
      <trkpt lat="43.40701" lon="16.89743">
        <ele>222.026</ele>
        <time>2018-10-05T04:10:12Z</time>
      </trkpt>
      <trkpt lat="43.40705" lon="16.8973">
        <ele>221.054</ele>
        <time>2018-10-05T04:10:32Z</time>
      </trkpt>
      <trkpt lat="43.40711" lon="16.89723">
        <ele>221.095</ele>
        <time>2018-10-05T04:10:52Z</time>
      </trkpt>
      <trkpt lat="43.4072" lon="16.89715">
        <ele>223.075</ele>
        <time>2018-10-05T04:11:12Z</time>
      </trkpt>
      <trkpt lat="43.40722" lon="16.89714">
        <ele>224.054</ele>
        <time>2018-10-05T04:11:32Z</time>
      </trkpt>
      <trkpt lat="43.40726" lon="16.89703">
        <ele>221.019</ele>
        <time>2018-10-05T04:11:52Z</time>
      </trkpt>
      <trkpt lat="43.40725" lon="16.89692">
        <ele>219.009</ele>
        <time>2018-10-05T04:12:12Z</time>
      </trkpt>
      <trkpt lat="43.40725" lon="16.89687">
        <ele>219.019</ele>
        <time>2018-10-05T04:12:32Z</time>
      </trkpt>
      <trkpt lat="43.40725" lon="16.89683">
        <ele>218.008</ele>
        <time>2018-10-05T04:12:52Z</time>
      </trkpt>
      <trkpt lat="43.40725" lon="16.89681">
        <ele>217.053</ele>
        <time>2018-10-05T04:13:12Z</time>
      </trkpt>
      <trkpt lat="43.40721" lon="16.89668">
        <ele>216.05</ele>
        <time>2018-10-05T04:13:32Z</time>
      </trkpt>
      <trkpt lat="43.40719" lon="16.89651">
        <ele>215.063</ele>
        <time>2018-10-05T04:13:52Z</time>
      </trkpt>
      <trkpt lat="43.40727" lon="16.89638">
        <ele>214.065</ele>
        <time>2018-10-05T04:14:12Z</time>
      </trkpt>
      <trkpt lat="43.40733" lon="16.89623">
        <ele>214.073</ele>
        <time>2018-10-05T04:14:32Z</time>
      </trkpt>
      <trkpt lat="43.40736" lon="16.8962">
        <ele>213.094</ele>
        <time>2018-10-05T04:14:52Z</time>
      </trkpt>
      <trkpt lat="43.40737" lon="16.89618">
        <ele>213.024</ele>
        <time>2018-10-05T04:15:12Z</time>
      </trkpt>
      <trkpt lat="43.40729" lon="16.8961">
        <ele>212.033</ele>
        <time>2018-10-05T04:15:32Z</time>
      </trkpt>
      <trkpt lat="43.40744" lon="16.89596">
        <ele>211.029</ele>
        <time>2018-10-05T04:15:52Z</time>
      </trkpt>
      <trkpt lat="43.40747" lon="16.89592">
        <ele>211</ele>
        <time>2018-10-05T04:16:12Z</time>
      </trkpt>
      <trkpt lat="43.4075" lon="16.8958">
        <ele>210.02</ele>
        <time>2018-10-05T04:16:32Z</time>
      </trkpt>
      <trkpt lat="43.40755" lon="16.89572">
        <ele>209.008</ele>
        <time>2018-10-05T04:16:52Z</time>
      </trkpt>
      <trkpt lat="43.40757" lon="16.8957">
        <ele>208.014</ele>
        <time>2018-10-05T04:17:12Z</time>
      </trkpt>
      <trkpt lat="43.4076" lon="16.89568">
        <ele>206.061</ele>
        <time>2018-10-05T04:17:32Z</time>
      </trkpt>
      <trkpt lat="43.40761" lon="16.89568">
        <ele>205.064</ele>
        <time>2018-10-05T04:17:52Z</time>
      </trkpt>
      <trkpt lat="43.40761" lon="16.89568">
        <ele>205.066</ele>
        <time>2018-10-05T04:18:12Z</time>
      </trkpt>
      <trkpt lat="43.40765" lon="16.89572">
        <ele>204.094</ele>
        <time>2018-10-05T04:18:32Z</time>
      </trkpt>
      <trkpt lat="43.40768" lon="16.89572">
        <ele>204.035</ele>
        <time>2018-10-05T04:18:52Z</time>
      </trkpt>
      <trkpt lat="43.40771" lon="16.89568">
        <ele>203.045</ele>
        <time>2018-10-05T04:19:12Z</time>
      </trkpt>
      <trkpt lat="43.40773" lon="16.8957">
        <ele>202.014</ele>
        <time>2018-10-05T04:19:32Z</time>
      </trkpt>
      <trkpt lat="43.40776" lon="16.89569">
        <ele>201.014</ele>
        <time>2018-10-05T04:19:52Z</time>
      </trkpt>
      <trkpt lat="43.40776" lon="16.89569">
        <ele>200.054</ele>
        <time>2018-10-05T04:20:12Z</time>
      </trkpt>
      <trkpt lat="43.40783" lon="16.89572">
        <ele>199.009</ele>
        <time>2018-10-05T04:20:32Z</time>
      </trkpt>
      <trkpt lat="43.40786" lon="16.89573">
        <ele>198.008</ele>
        <time>2018-10-05T04:20:52Z</time>
      </trkpt>
      <trkpt lat="43.40796" lon="16.89578">
        <ele>195.043</ele>
        <time>2018-10-05T04:21:12Z</time>
      </trkpt>
      <trkpt lat="43.408" lon="16.89578">
        <ele>194.03</ele>
        <time>2018-10-05T04:21:32Z</time>
      </trkpt>
      <trkpt lat="43.40803" lon="16.89577">
        <ele>193.033</ele>
        <time>2018-10-05T04:21:52Z</time>
      </trkpt>
      <trkpt lat="43.40808" lon="16.89576">
        <ele>192.075</ele>
        <time>2018-10-05T04:22:12Z</time>
      </trkpt>
      <trkpt lat="43.40817" lon="16.89577">
        <ele>191.093</ele>
        <time>2018-10-05T04:22:32Z</time>
      </trkpt>
      <trkpt lat="43.40827" lon="16.89574">
        <ele>190.034</ele>
        <time>2018-10-05T04:22:52Z</time>
      </trkpt>
      <trkpt lat="43.40834" lon="16.89572">
        <ele>188.074</ele>
        <time>2018-10-05T04:23:12Z</time>
      </trkpt>
      <trkpt lat="43.40836" lon="16.89571">
        <ele>187.063</ele>
        <time>2018-10-05T04:23:32Z</time>
      </trkpt>
      <trkpt lat="43.40842" lon="16.89569">
        <ele>186.063</ele>
        <time>2018-10-05T04:23:52Z</time>
      </trkpt>
      <trkpt lat="43.40843" lon="16.89568">
        <ele>186.044</ele>
        <time>2018-10-05T04:24:12Z</time>
      </trkpt>
      <trkpt lat="43.4085" lon="16.89562">
        <ele>185.018</ele>
        <time>2018-10-05T04:24:32Z</time>
      </trkpt>
      <trkpt lat="43.40852" lon="16.89562">
        <ele>185.008</ele>
        <time>2018-10-05T04:24:52Z</time>
      </trkpt>
      <trkpt lat="43.40853" lon="16.89561">
        <ele>184.038</ele>
        <time>2018-10-05T04:25:12Z</time>
      </trkpt>
      <trkpt lat="43.40856" lon="16.8956">
        <ele>184.045</ele>
        <time>2018-10-05T04:25:32Z</time>
      </trkpt>
      <trkpt lat="43.40856" lon="16.89569">
        <ele>184.058</ele>
        <time>2018-10-05T04:25:52Z</time>
      </trkpt>
      <trkpt lat="43.40862" lon="16.89569">
        <ele>184.02</ele>
        <time>2018-10-05T04:26:12Z</time>
      </trkpt>
      <trkpt lat="43.40872" lon="16.89559">
        <ele>183.018</ele>
        <time>2018-10-05T04:26:32Z</time>
      </trkpt>
      <trkpt lat="43.40873" lon="16.89556">
        <ele>182.059</ele>
        <time>2018-10-05T04:26:52Z</time>
      </trkpt>
      <trkpt lat="43.40875" lon="16.89539">
        <ele>181.089</ele>
        <time>2018-10-05T04:27:12Z</time>
      </trkpt>
      <trkpt lat="43.4088" lon="16.8953">
        <ele>181.078</ele>
        <time>2018-10-05T04:27:32Z</time>
      </trkpt>
      <trkpt lat="43.40889" lon="16.89517">
        <ele>179.047</ele>
        <time>2018-10-05T04:27:52Z</time>
      </trkpt>
      <trkpt lat="43.40891" lon="16.89516">
        <ele>179.029</ele>
        <time>2018-10-05T04:28:12Z</time>
      </trkpt>
      <trkpt lat="43.40898" lon="16.89511">
        <ele>178.021</ele>
        <time>2018-10-05T04:28:32Z</time>
      </trkpt>
      <trkpt lat="43.40904" lon="16.8951">
        <ele>177.008</ele>
        <time>2018-10-05T04:28:52Z</time>
      </trkpt>
      <trkpt lat="43.40909" lon="16.8951">
        <ele>177.046</ele>
        <time>2018-10-05T04:29:12Z</time>
      </trkpt>
      <trkpt lat="43.4092" lon="16.89517">
        <ele>170.023</ele>
        <time>2018-10-05T04:29:32Z</time>
      </trkpt>
      <trkpt lat="43.40933" lon="16.89524">
        <ele>169.096</ele>
        <time>2018-10-05T04:29:52Z</time>
      </trkpt>
      <trkpt lat="43.4094" lon="16.8953">
        <ele>169.048</ele>
        <time>2018-10-05T04:30:12Z</time>
      </trkpt>
      <trkpt lat="43.40954" lon="16.89541">
        <ele>168.086</ele>
        <time>2018-10-05T04:30:32Z</time>
      </trkpt>
      <trkpt lat="43.40957" lon="16.89544">
        <ele>167.047</ele>
        <time>2018-10-05T04:30:52Z</time>
      </trkpt>
      <trkpt lat="43.40967" lon="16.8956">
        <ele>165.087</ele>
        <time>2018-10-05T04:31:12Z</time>
      </trkpt>
      <trkpt lat="43.40974" lon="16.89573">
        <ele>165.086</ele>
        <time>2018-10-05T04:31:32Z</time>
      </trkpt>
      <trkpt lat="43.40986" lon="16.89586">
        <ele>163.065</ele>
        <time>2018-10-05T04:31:52Z</time>
      </trkpt>
      <trkpt lat="43.40994" lon="16.89597">
        <ele>163.068</ele>
        <time>2018-10-05T04:32:12Z</time>
      </trkpt>
      <trkpt lat="43.41006" lon="16.89615">
        <ele>161.014</ele>
        <time>2018-10-05T04:32:32Z</time>
      </trkpt>
      <trkpt lat="43.41016" lon="16.89624">
        <ele>160.008</ele>
        <time>2018-10-05T04:32:52Z</time>
      </trkpt>
      <trkpt lat="43.41027" lon="16.89632">
        <ele>159.028</ele>
        <time>2018-10-05T04:33:12Z</time>
      </trkpt>
      <trkpt lat="43.41044" lon="16.89637">
        <ele>158.025</ele>
        <time>2018-10-05T04:33:32Z</time>
      </trkpt>
      <trkpt lat="43.41055" lon="16.89635">
        <ele>157.018</ele>
        <time>2018-10-05T04:33:52Z</time>
      </trkpt>
      <trkpt lat="43.41064" lon="16.89635">
        <ele>155.01</ele>
        <time>2018-10-05T04:34:12Z</time>
      </trkpt>
      <trkpt lat="43.41076" lon="16.89638">
        <ele>154.018</ele>
        <time>2018-10-05T04:34:32Z</time>
      </trkpt>
      <trkpt lat="43.41089" lon="16.89649">
        <ele>153.089</ele>
        <time>2018-10-05T04:34:52Z</time>
      </trkpt>
      <trkpt lat="43.41099" lon="16.89664">
        <ele>153.069</ele>
        <time>2018-10-05T04:35:12Z</time>
      </trkpt>
      <trkpt lat="43.41115" lon="16.89679">
        <ele>153.098</ele>
        <time>2018-10-05T04:35:32Z</time>
      </trkpt>
      <trkpt lat="43.41128" lon="16.89699">
        <ele>152.095</ele>
        <time>2018-10-05T04:35:52Z</time>
      </trkpt>
      <trkpt lat="43.41133" lon="16.89711">
        <ele>152.049</ele>
        <time>2018-10-05T04:36:12Z</time>
      </trkpt>
      <trkpt lat="43.41147" lon="16.89721">
        <ele>151.023</ele>
        <time>2018-10-05T04:36:32Z</time>
      </trkpt>
      <trkpt lat="43.41163" lon="16.8973">
        <ele>150.008</ele>
        <time>2018-10-05T04:36:52Z</time>
      </trkpt>
      <trkpt lat="43.41177" lon="16.89741">
        <ele>149.081</ele>
        <time>2018-10-05T04:37:12Z</time>
      </trkpt>
      <trkpt lat="43.41195" lon="16.89744">
        <ele>148.078</ele>
        <time>2018-10-05T04:37:32Z</time>
      </trkpt>
      <trkpt lat="43.41206" lon="16.89747">
        <ele>146.031</ele>
        <time>2018-10-05T04:37:52Z</time>
      </trkpt>
      <trkpt lat="43.4122" lon="16.89754">
        <ele>144.023</ele>
        <time>2018-10-05T04:38:12Z</time>
      </trkpt>
      <trkpt lat="43.41229" lon="16.89759">
        <ele>143.041</ele>
        <time>2018-10-05T04:38:32Z</time>
      </trkpt>
      <trkpt lat="43.41235" lon="16.89765">
        <ele>142.032</ele>
        <time>2018-10-05T04:38:52Z</time>
      </trkpt>
      <trkpt lat="43.41245" lon="16.89773">
        <ele>141.052</ele>
        <time>2018-10-05T04:39:12Z</time>
      </trkpt>
      <trkpt lat="43.41258" lon="16.89785">
        <ele>140.051</ele>
        <time>2018-10-05T04:39:32Z</time>
      </trkpt>
      <trkpt lat="43.41268" lon="16.89794">
        <ele>139.032</ele>
        <time>2018-10-05T04:39:52Z</time>
      </trkpt>
      <trkpt lat="43.41276" lon="16.898">
        <ele>138.092</ele>
        <time>2018-10-05T04:40:12Z</time>
      </trkpt>
      <trkpt lat="43.41289" lon="16.89808">
        <ele>139.011</ele>
        <time>2018-10-05T04:40:32Z</time>
      </trkpt>
      <trkpt lat="43.41299" lon="16.89813">
        <ele>140.008</ele>
        <time>2018-10-05T04:40:52Z</time>
      </trkpt>
      <trkpt lat="43.41302" lon="16.89816">
        <ele>141.085</ele>
        <time>2018-10-05T04:41:12Z</time>
      </trkpt>
      <trkpt lat="43.41304" lon="16.89819">
        <ele>142.042</ele>
        <time>2018-10-05T04:41:32Z</time>
      </trkpt>
      <trkpt lat="43.41308" lon="16.89822">
        <ele>143.045</ele>
        <time>2018-10-05T04:41:52Z</time>
      </trkpt>
      <trkpt lat="43.41313" lon="16.89828">
        <ele>144.087</ele>
        <time>2018-10-05T04:42:12Z</time>
      </trkpt>
      <trkpt lat="43.41315" lon="16.89832">
        <ele>145.095</ele>
        <time>2018-10-05T04:42:32Z</time>
      </trkpt>
      <trkpt lat="43.41318" lon="16.89836">
        <ele>147.056</ele>
        <time>2018-10-05T04:42:52Z</time>
      </trkpt>
      <trkpt lat="43.41321" lon="16.89838">
        <ele>148.016</ele>
        <time>2018-10-05T04:43:12Z</time>
      </trkpt>
      <trkpt lat="43.41323" lon="16.89841">
        <ele>149.035</ele>
        <time>2018-10-05T04:43:32Z</time>
      </trkpt>
      <trkpt lat="43.41323" lon="16.89844">
        <ele>150.048</ele>
        <time>2018-10-05T04:43:52Z</time>
      </trkpt>
      <trkpt lat="43.41326" lon="16.89848">
        <ele>151.061</ele>
        <time>2018-10-05T04:44:12Z</time>
      </trkpt>
      <trkpt lat="43.41326" lon="16.89849">
        <ele>151.017</ele>
        <time>2018-10-05T04:44:32Z</time>
      </trkpt>
      <trkpt lat="43.41328" lon="16.89851">
        <ele>152.008</ele>
        <time>2018-10-05T04:44:52Z</time>
      </trkpt>
      <trkpt lat="43.41329" lon="16.89855">
        <ele>153.056</ele>
        <time>2018-10-05T04:45:12Z</time>
      </trkpt>
      <trkpt lat="43.41331" lon="16.89858">
        <ele>153.083</ele>
        <time>2018-10-05T04:45:32Z</time>
      </trkpt>
      <trkpt lat="43.41333" lon="16.89862">
        <ele>154.076</ele>
        <time>2018-10-05T04:45:52Z</time>
      </trkpt>
      <trkpt lat="43.41334" lon="16.8987">
        <ele>155.028</ele>
        <time>2018-10-05T04:46:12Z</time>
      </trkpt>
      <trkpt lat="43.41331" lon="16.89877">
        <ele>157.036</ele>
        <time>2018-10-05T04:46:32Z</time>
      </trkpt>
      <trkpt lat="43.4133" lon="16.89882">
        <ele>158.017</ele>
        <time>2018-10-05T04:46:52Z</time>
      </trkpt>
      <trkpt lat="43.41328" lon="16.89889">
        <ele>159.087</ele>
        <time>2018-10-05T04:47:12Z</time>
      </trkpt>
      <trkpt lat="43.41325" lon="16.89897">
        <ele>159.066</ele>
        <time>2018-10-05T04:47:32Z</time>
      </trkpt>
      <trkpt lat="43.41322" lon="16.89907">
        <ele>160.099</ele>
        <time>2018-10-05T04:47:52Z</time>
      </trkpt>
      <trkpt lat="43.41322" lon="16.89914">
        <ele>161.007</ele>
        <time>2018-10-05T04:48:12Z</time>
      </trkpt>
      <trkpt lat="43.41322" lon="16.89932">
        <ele>163.027</ele>
        <time>2018-10-05T04:48:32Z</time>
      </trkpt>
      <trkpt lat="43.41322" lon="16.8994">
        <ele>164.008</ele>
        <time>2018-10-05T04:48:52Z</time>
      </trkpt>
      <trkpt lat="43.41322" lon="16.89952">
        <ele>166.041</ele>
        <time>2018-10-05T04:49:12Z</time>
      </trkpt>
      <trkpt lat="43.41322" lon="16.89957">
        <ele>167.078</ele>
        <time>2018-10-05T04:49:32Z</time>
      </trkpt>
      <trkpt lat="43.41322" lon="16.89964">
        <ele>168.051</ele>
        <time>2018-10-05T04:49:52Z</time>
      </trkpt>
      <trkpt lat="43.41322" lon="16.89972">
        <ele>169.053</ele>
        <time>2018-10-05T04:50:12Z</time>
      </trkpt>
      <trkpt lat="43.41322" lon="16.89987">
        <ele>171.031</ele>
        <time>2018-10-05T04:50:32Z</time>
      </trkpt>
      <trkpt lat="43.41325" lon="16.89999">
        <ele>172.052</ele>
        <time>2018-10-05T04:50:52Z</time>
      </trkpt>
      <trkpt lat="43.41327" lon="16.90004">
        <ele>173.042</ele>
        <time>2018-10-05T04:51:12Z</time>
      </trkpt>
      <trkpt lat="43.41333" lon="16.90014">
        <ele>175.011</ele>
        <time>2018-10-05T04:51:32Z</time>
      </trkpt>
      <trkpt lat="43.41334" lon="16.90017">
        <ele>175.085</ele>
        <time>2018-10-05T04:51:52Z</time>
      </trkpt>
      <trkpt lat="43.41335" lon="16.9002">
        <ele>176.089</ele>
        <time>2018-10-05T04:52:12Z</time>
      </trkpt>
      <trkpt lat="43.41339" lon="16.90023">
        <ele>177.017</ele>
        <time>2018-10-05T04:52:32Z</time>
      </trkpt>
      <trkpt lat="43.41342" lon="16.90021">
        <ele>178.008</ele>
        <time>2018-10-05T04:52:52Z</time>
      </trkpt>
      <trkpt lat="43.41342" lon="16.90009">
        <ele>181.01</ele>
        <time>2018-10-05T04:53:12Z</time>
      </trkpt>
      <trkpt lat="43.41344" lon="16.89997">
        <ele>183.037</ele>
        <time>2018-10-05T04:53:32Z</time>
      </trkpt>
      <trkpt lat="43.41348" lon="16.89985">
        <ele>185.04</ele>
        <time>2018-10-05T04:53:52Z</time>
      </trkpt>
      <trkpt lat="43.41354" lon="16.89971">
        <ele>187.022</ele>
        <time>2018-10-05T04:54:12Z</time>
      </trkpt>
      <trkpt lat="43.41361" lon="16.89961">
        <ele>190.07</ele>
        <time>2018-10-05T04:54:32Z</time>
      </trkpt>
      <trkpt lat="43.41363" lon="16.89956">
        <ele>191.091</ele>
        <time>2018-10-05T04:54:52Z</time>
      </trkpt>
      <trkpt lat="43.41363" lon="16.89955">
        <ele>191.041</ele>
        <time>2018-10-05T04:55:12Z</time>
      </trkpt>
      <trkpt lat="43.41367" lon="16.89955">
        <ele>192.06</ele>
        <time>2018-10-05T04:55:32Z</time>
      </trkpt>
      <trkpt lat="43.41368" lon="16.89962">
        <ele>193.065</ele>
        <time>2018-10-05T04:55:52Z</time>
      </trkpt>
      <trkpt lat="43.41371" lon="16.89969">
        <ele>194.068</ele>
        <time>2018-10-05T04:56:12Z</time>
      </trkpt>
      <trkpt lat="43.41372" lon="16.89974">
        <ele>195.014</ele>
        <time>2018-10-05T04:56:32Z</time>
      </trkpt>
      <trkpt lat="43.41373" lon="16.89977">
        <ele>195.008</ele>
        <time>2018-10-05T04:56:52Z</time>
      </trkpt>
      <trkpt lat="43.41376" lon="16.89984">
        <ele>197.068</ele>
        <time>2018-10-05T04:57:12Z</time>
      </trkpt>
      <trkpt lat="43.41378" lon="16.89992">
        <ele>199.095</ele>
        <time>2018-10-05T04:57:32Z</time>
      </trkpt>
      <trkpt lat="43.41381" lon="16.90003">
        <ele>200.028</ele>
        <time>2018-10-05T04:57:52Z</time>
      </trkpt>
      <trkpt lat="43.41389" lon="16.90011">
        <ele>202.01</ele>
        <time>2018-10-05T04:58:12Z</time>
      </trkpt>
      <trkpt lat="43.41393" lon="16.90015">
        <ele>203.098</ele>
        <time>2018-10-05T04:58:32Z</time>
      </trkpt>
      <trkpt lat="43.41402" lon="16.90024">
        <ele>204.039</ele>
        <time>2018-10-05T04:58:52Z</time>
      </trkpt>
      <trkpt lat="43.41403" lon="16.90024">
        <ele>204.089</ele>
        <time>2018-10-05T04:59:12Z</time>
      </trkpt>
      <trkpt lat="43.41419" lon="16.90018">
        <ele>204.048</ele>
        <time>2018-10-05T04:59:32Z</time>
      </trkpt>
      <trkpt lat="43.41427" lon="16.90017">
        <ele>204.045</ele>
        <time>2018-10-05T04:59:52Z</time>
      </trkpt>
      <trkpt lat="43.41435" lon="16.90017">
        <ele>203.047</ele>
        <time>2018-10-05T05:00:12Z</time>
      </trkpt>
      <trkpt lat="43.41449" lon="16.9002">
        <ele>202.011</ele>
        <time>2018-10-05T05:00:32Z</time>
      </trkpt>
      <trkpt lat="43.41466" lon="16.9001">
        <ele>202.008</ele>
        <time>2018-10-05T05:00:52Z</time>
      </trkpt>
      <trkpt lat="43.41484" lon="16.89999">
        <ele>202.036</ele>
        <time>2018-10-05T05:01:12Z</time>
      </trkpt>
      <trkpt lat="43.41495" lon="16.9">
        <ele>203.063</ele>
        <time>2018-10-05T05:01:32Z</time>
      </trkpt>
      <trkpt lat="43.41503" lon="16.90007">
        <ele>203.096</ele>
        <time>2018-10-05T05:01:52Z</time>
      </trkpt>
      <trkpt lat="43.41512" lon="16.90014">
        <ele>202.018</ele>
        <time>2018-10-05T05:02:12Z</time>
      </trkpt>
      <trkpt lat="43.41518" lon="16.90017">
        <ele>202.086</ele>
        <time>2018-10-05T05:02:32Z</time>
      </trkpt>
      <trkpt lat="43.41527" lon="16.90025">
        <ele>201.097</ele>
        <time>2018-10-05T05:02:52Z</time>
      </trkpt>
      <trkpt lat="43.41545" lon="16.90038">
        <ele>201.057</ele>
        <time>2018-10-05T05:03:12Z</time>
      </trkpt>
      <trkpt lat="43.41565" lon="16.90052">
        <ele>200.096</ele>
        <time>2018-10-05T05:03:32Z</time>
      </trkpt>
      <trkpt lat="43.41585" lon="16.90063">
        <ele>198.063</ele>
        <time>2018-10-05T05:03:52Z</time>
      </trkpt>
      <trkpt lat="43.41591" lon="16.90065">
        <ele>197.044</ele>
        <time>2018-10-05T05:04:12Z</time>
      </trkpt>
      <trkpt lat="43.41598" lon="16.90071">
        <ele>195.018</ele>
        <time>2018-10-05T05:04:32Z</time>
      </trkpt>
      <trkpt lat="43.41605" lon="16.90079">
        <ele>195.008</ele>
        <time>2018-10-05T05:04:52Z</time>
      </trkpt>
      <trkpt lat="43.41612" lon="16.90088">
        <ele>194.048</ele>
        <time>2018-10-05T05:05:12Z</time>
      </trkpt>
      <trkpt lat="43.41624" lon="16.90104">
        <ele>195.075</ele>
        <time>2018-10-05T05:05:32Z</time>
      </trkpt>
      <trkpt lat="43.41631" lon="16.9011">
        <ele>196.068</ele>
        <time>2018-10-05T05:05:52Z</time>
      </trkpt>
      <trkpt lat="43.41632" lon="16.90111">
        <ele>197.06</ele>
        <time>2018-10-05T05:06:12Z</time>
      </trkpt>
      <trkpt lat="43.4164" lon="16.90114">
        <ele>198.088</ele>
        <time>2018-10-05T05:06:32Z</time>
      </trkpt>
      <trkpt lat="43.41653" lon="16.90119">
        <ele>200.079</ele>
        <time>2018-10-05T05:06:52Z</time>
      </trkpt>
      <trkpt lat="43.41657" lon="16.90119">
        <ele>201.029</ele>
        <time>2018-10-05T05:07:12Z</time>
      </trkpt>
      <trkpt lat="43.41662" lon="16.90121">
        <ele>202.098</ele>
        <time>2018-10-05T05:07:32Z</time>
      </trkpt>
      <trkpt lat="43.41665" lon="16.90123">
        <ele>202.047</ele>
        <time>2018-10-05T05:07:52Z</time>
      </trkpt>
      <trkpt lat="43.41671" lon="16.90125">
        <ele>203.029</ele>
        <time>2018-10-05T05:08:12Z</time>
      </trkpt>
      <trkpt lat="43.41675" lon="16.90128">
        <ele>204.021</ele>
        <time>2018-10-05T05:08:32Z</time>
      </trkpt>
      <trkpt lat="43.41676" lon="16.90129">
        <ele>205.008</ele>
        <time>2018-10-05T05:08:52Z</time>
      </trkpt>
      <trkpt lat="43.41682" lon="16.90133">
        <ele>206.046</ele>
        <time>2018-10-05T05:09:12Z</time>
      </trkpt>
      <trkpt lat="43.41686" lon="16.90136">
        <ele>207.033</ele>
        <time>2018-10-05T05:09:32Z</time>
      </trkpt>
      <trkpt lat="43.41692" lon="16.90137">
        <ele>208.076</ele>
        <time>2018-10-05T05:09:52Z</time>
      </trkpt>
      <trkpt lat="43.41697" lon="16.90138">
        <ele>209.048</ele>
        <time>2018-10-05T05:10:12Z</time>
      </trkpt>
      <trkpt lat="43.41706" lon="16.9014">
        <ele>211.056</ele>
        <time>2018-10-05T05:10:32Z</time>
      </trkpt>
      <trkpt lat="43.41707" lon="16.9014">
        <ele>211.097</ele>
        <time>2018-10-05T05:10:52Z</time>
      </trkpt>
      <trkpt lat="43.41716" lon="16.9014">
        <ele>213.087</ele>
        <time>2018-10-05T05:11:12Z</time>
      </trkpt>
      <trkpt lat="43.41719" lon="16.90141">
        <ele>214.076</ele>
        <time>2018-10-05T05:11:32Z</time>
      </trkpt>
      <trkpt lat="43.41732" lon="16.90144">
        <ele>215.037</ele>
        <time>2018-10-05T05:11:52Z</time>
      </trkpt>
      <trkpt lat="43.41736" lon="16.90145">
        <ele>216.049</ele>
        <time>2018-10-05T05:12:12Z</time>
      </trkpt>
      <trkpt lat="43.41741" lon="16.90147">
        <ele>217.013</ele>
        <time>2018-10-05T05:12:32Z</time>
      </trkpt>
      <trkpt lat="43.41753" lon="16.9015">
        <ele>219.008</ele>
        <time>2018-10-05T05:12:52Z</time>
      </trkpt>
      <trkpt lat="43.41754" lon="16.9015">
        <ele>219.075</ele>
        <time>2018-10-05T05:13:12Z</time>
      </trkpt>
      <trkpt lat="43.41763" lon="16.90157">
        <ele>220.042</ele>
        <time>2018-10-05T05:13:32Z</time>
      </trkpt>
      <trkpt lat="43.41767" lon="16.9016">
        <ele>221.055</ele>
        <time>2018-10-05T05:13:52Z</time>
      </trkpt>
      <trkpt lat="43.4178" lon="16.90168">
        <ele>223.027</ele>
        <time>2018-10-05T05:14:12Z</time>
      </trkpt>
      <trkpt lat="43.41785" lon="16.9017">
        <ele>224.095</ele>
        <time>2018-10-05T05:14:32Z</time>
      </trkpt>
      <trkpt lat="43.41791" lon="16.90173">
        <ele>225.046</ele>
        <time>2018-10-05T05:14:52Z</time>
      </trkpt>
      <trkpt lat="43.41801" lon="16.90177">
        <ele>227.046</ele>
        <time>2018-10-05T05:15:12Z</time>
      </trkpt>
      <trkpt lat="43.41807" lon="16.90181">
        <ele>228.075</ele>
        <time>2018-10-05T05:15:32Z</time>
      </trkpt>
      <trkpt lat="43.41808" lon="16.90181">
        <ele>228.028</ele>
        <time>2018-10-05T05:15:52Z</time>
      </trkpt>
      <trkpt lat="43.41815" lon="16.90185">
        <ele>230.089</ele>
        <time>2018-10-05T05:16:12Z</time>
      </trkpt>
      <trkpt lat="43.4182" lon="16.90189">
        <ele>231.017</ele>
        <time>2018-10-05T05:16:32Z</time>
      </trkpt>
      <trkpt lat="43.41827" lon="16.90193">
        <ele>231.008</ele>
        <time>2018-10-05T05:16:52Z</time>
      </trkpt>
      <trkpt lat="43.41829" lon="16.90193">
        <ele>231.044</ele>
        <time>2018-10-05T05:17:12Z</time>
      </trkpt>
      <trkpt lat="43.41841" lon="16.90191">
        <ele>232.061</ele>
        <time>2018-10-05T05:17:32Z</time>
      </trkpt>
      <trkpt lat="43.41845" lon="16.90188">
        <ele>233.044</ele>
        <time>2018-10-05T05:17:52Z</time>
      </trkpt>
      <trkpt lat="43.41845" lon="16.90187">
        <ele>233.036</ele>
        <time>2018-10-05T05:18:12Z</time>
      </trkpt>
      <trkpt lat="43.41847" lon="16.90187">
        <ele>234.044</ele>
        <time>2018-10-05T05:18:32Z</time>
      </trkpt>
      <trkpt lat="43.4185" lon="16.90181">
        <ele>235.085</ele>
        <time>2018-10-05T05:18:52Z</time>
      </trkpt>
      <trkpt lat="43.41851" lon="16.9017">
        <ele>236.085</ele>
        <time>2018-10-05T05:19:12Z</time>
      </trkpt>
      <trkpt lat="43.41852" lon="16.90158">
        <ele>238.044</ele>
        <time>2018-10-05T05:19:32Z</time>
      </trkpt>
      <trkpt lat="43.41856" lon="16.90145">
        <ele>239.075</ele>
        <time>2018-10-05T05:19:52Z</time>
      </trkpt>
      <trkpt lat="43.41863" lon="16.90137">
        <ele>240.028</ele>
        <time>2018-10-05T05:20:12Z</time>
      </trkpt>
      <trkpt lat="43.41876" lon="16.90126">
        <ele>242.02</ele>
        <time>2018-10-05T05:20:32Z</time>
      </trkpt>
      <trkpt lat="43.4188" lon="16.90123">
        <ele>243.008</ele>
        <time>2018-10-05T05:20:52Z</time>
      </trkpt>
      <trkpt lat="43.41887" lon="16.90121">
        <ele>244.049</ele>
        <time>2018-10-05T05:21:12Z</time>
      </trkpt>
      <trkpt lat="43.4189" lon="16.90117">
        <ele>245.066</ele>
        <time>2018-10-05T05:21:32Z</time>
      </trkpt>
      <trkpt lat="43.41892" lon="16.90114">
        <ele>245.049</ele>
        <time>2018-10-05T05:21:52Z</time>
      </trkpt>
      <trkpt lat="43.41897" lon="16.90108">
        <ele>246.041</ele>
        <time>2018-10-05T05:22:12Z</time>
      </trkpt>
      <trkpt lat="43.41913" lon="16.90095">
        <ele>247.019</ele>
        <time>2018-10-05T05:22:32Z</time>
      </trkpt>
      <trkpt lat="43.4192" lon="16.90076">
        <ele>249.02</ele>
        <time>2018-10-05T05:22:52Z</time>
      </trkpt>
      <trkpt lat="43.41928" lon="16.90052">
        <ele>249.02</ele>
        <time>2018-10-05T05:23:12Z</time>
      </trkpt>
      <trkpt lat="43.41932" lon="16.90041">
        <ele>250.059</ele>
        <time>2018-10-05T05:23:32Z</time>
      </trkpt>
      <trkpt lat="43.41938" lon="16.90031">
        <ele>250.021</ele>
        <time>2018-10-05T05:23:52Z</time>
      </trkpt>
      <trkpt lat="43.41946" lon="16.90007">
        <ele>249.041</ele>
        <time>2018-10-05T05:24:12Z</time>
      </trkpt>
      <trkpt lat="43.41959" lon="16.89989">
        <ele>249.005</ele>
        <time>2018-10-05T05:24:32Z</time>
      </trkpt>
      <trkpt lat="43.41961" lon="16.89983">
        <ele>250.008</ele>
        <time>2018-10-05T05:24:52Z</time>
      </trkpt>
      <trkpt lat="43.4197" lon="16.89966">
        <ele>251.024</ele>
        <time>2018-10-05T05:25:12Z</time>
      </trkpt>
      <trkpt lat="43.41976" lon="16.89958">
        <ele>251.011</ele>
        <time>2018-10-05T05:25:32Z</time>
      </trkpt>
      <trkpt lat="43.41979" lon="16.89953">
        <ele>252.064</ele>
        <time>2018-10-05T05:25:52Z</time>
      </trkpt>
      <trkpt lat="43.41989" lon="16.89938">
        <ele>253.016</ele>
        <time>2018-10-05T05:26:12Z</time>
      </trkpt>
      <trkpt lat="43.41994" lon="16.8993">
        <ele>254.074</ele>
        <time>2018-10-05T05:26:32Z</time>
      </trkpt>
      <trkpt lat="43.41999" lon="16.89916">
        <ele>255.035</ele>
        <time>2018-10-05T05:26:52Z</time>
      </trkpt>
      <trkpt lat="43.42012" lon="16.89896">
        <ele>255.085</ele>
        <time>2018-10-05T05:27:12Z</time>
      </trkpt>
      <trkpt lat="43.42019" lon="16.89873">
        <ele>255.044</ele>
        <time>2018-10-05T05:27:32Z</time>
      </trkpt>
      <trkpt lat="43.42035" lon="16.89847">
        <ele>254.078</ele>
        <time>2018-10-05T05:27:52Z</time>
      </trkpt>
      <trkpt lat="43.42039" lon="16.8984">
        <ele>254.033</ele>
        <time>2018-10-05T05:28:12Z</time>
      </trkpt>
      <trkpt lat="43.42045" lon="16.89835">
        <ele>254.026</ele>
        <time>2018-10-05T05:28:32Z</time>
      </trkpt>
      <trkpt lat="43.42053" lon="16.89831">
        <ele>254.008</ele>
        <time>2018-10-05T05:28:52Z</time>
      </trkpt>
      <trkpt lat="43.42064" lon="16.89812">
        <ele>254.099</ele>
        <time>2018-10-05T05:29:12Z</time>
      </trkpt>
      <trkpt lat="43.42073" lon="16.89792">
        <ele>253.026</ele>
        <time>2018-10-05T05:29:32Z</time>
      </trkpt>
      <trkpt lat="43.42081" lon="16.89774">
        <ele>252.079</ele>
        <time>2018-10-05T05:29:52Z</time>
      </trkpt>
      <trkpt lat="43.42094" lon="16.89749">
        <ele>251.031</ele>
        <time>2018-10-05T05:30:12Z</time>
      </trkpt>
      <trkpt lat="43.42108" lon="16.89732">
        <ele>250.039</ele>
        <time>2018-10-05T05:30:32Z</time>
      </trkpt>
      <trkpt lat="43.42123" lon="16.89717">
        <ele>250.09</ele>
        <time>2018-10-05T05:30:52Z</time>
      </trkpt>
      <trkpt lat="43.42138" lon="16.89702">
        <ele>250.01</ele>
        <time>2018-10-05T05:31:12Z</time>
      </trkpt>
      <trkpt lat="43.42153" lon="16.89684">
        <ele>249.089</ele>
        <time>2018-10-05T05:31:32Z</time>
      </trkpt>
      <trkpt lat="43.42166" lon="16.89667">
        <ele>249.018</ele>
        <time>2018-10-05T05:31:52Z</time>
      </trkpt>
      <trkpt lat="43.4217" lon="16.89648">
        <ele>250.098</ele>
        <time>2018-10-05T05:32:12Z</time>
      </trkpt>
      <trkpt lat="43.42179" lon="16.89625">
        <ele>250.017</ele>
        <time>2018-10-05T05:32:32Z</time>
      </trkpt>
      <trkpt lat="43.42189" lon="16.89604">
        <ele>251.008</ele>
        <time>2018-10-05T05:32:52Z</time>
      </trkpt>
      <trkpt lat="43.42198" lon="16.89579">
        <ele>250.083</ele>
        <time>2018-10-05T05:33:12Z</time>
      </trkpt>
      <trkpt lat="43.42203" lon="16.89569">
        <ele>250.04</ele>
        <time>2018-10-05T05:33:32Z</time>
      </trkpt>
      <trkpt lat="43.42208" lon="16.89555">
        <ele>249.023</ele>
        <time>2018-10-05T05:33:52Z</time>
      </trkpt>
      <trkpt lat="43.42212" lon="16.89533">
        <ele>246.085</ele>
        <time>2018-10-05T05:34:12Z</time>
      </trkpt>
      <trkpt lat="43.42215" lon="16.89516">
        <ele>244.083</ele>
        <time>2018-10-05T05:34:32Z</time>
      </trkpt>
      <trkpt lat="43.42215" lon="16.89509">
        <ele>243.054</ele>
        <time>2018-10-05T05:34:52Z</time>
      </trkpt>
      <trkpt lat="43.42217" lon="16.89499">
        <ele>242.084</ele>
        <time>2018-10-05T05:35:12Z</time>
      </trkpt>
      <trkpt lat="43.42226" lon="16.89483">
        <ele>241.043</ele>
        <time>2018-10-05T05:35:32Z</time>
      </trkpt>
      <trkpt lat="43.42241" lon="16.89455">
        <ele>239.092</ele>
        <time>2018-10-05T05:35:52Z</time>
      </trkpt>
      <trkpt lat="43.42252" lon="16.89438">
        <ele>238.073</ele>
        <time>2018-10-05T05:36:12Z</time>
      </trkpt>
      <trkpt lat="43.42266" lon="16.89415">
        <ele>237.02</ele>
        <time>2018-10-05T05:36:32Z</time>
      </trkpt>
      <trkpt lat="43.42273" lon="16.89403">
        <ele>236.008</ele>
        <time>2018-10-05T05:36:52Z</time>
      </trkpt>
      <trkpt lat="43.42291" lon="16.8939">
        <ele>235.051</ele>
        <time>2018-10-05T05:37:12Z</time>
      </trkpt>
      <trkpt lat="43.42298" lon="16.89378">
        <ele>234.018</ele>
        <time>2018-10-05T05:37:32Z</time>
      </trkpt>
      <trkpt lat="43.42307" lon="16.89356">
        <ele>232.071</ele>
        <time>2018-10-05T05:37:52Z</time>
      </trkpt>
      <trkpt lat="43.4231" lon="16.89342">
        <ele>230.073</ele>
        <time>2018-10-05T05:38:12Z</time>
      </trkpt>
      <trkpt lat="43.42315" lon="16.89328">
        <ele>229.021</ele>
        <time>2018-10-05T05:38:32Z</time>
      </trkpt>
      <trkpt lat="43.42326" lon="16.89313">
        <ele>227.042</ele>
        <time>2018-10-05T05:38:52Z</time>
      </trkpt>
      <trkpt lat="43.42333" lon="16.89308">
        <ele>224.072</ele>
        <time>2018-10-05T05:39:12Z</time>
      </trkpt>
      <trkpt lat="43.42355" lon="16.89299">
        <ele>238.061</ele>
        <time>2018-10-05T05:39:32Z</time>
      </trkpt>
      <trkpt lat="43.42357" lon="16.89301">
        <ele>239.092</ele>
        <time>2018-10-05T05:39:52Z</time>
      </trkpt>
      <trkpt lat="43.42366" lon="16.893">
        <ele>240.073</ele>
        <time>2018-10-05T05:40:12Z</time>
      </trkpt>
      <trkpt lat="43.42368" lon="16.893">
        <ele>240.02</ele>
        <time>2018-10-05T05:40:32Z</time>
      </trkpt>
      <trkpt lat="43.42375" lon="16.89299">
        <ele>240.008</ele>
        <time>2018-10-05T05:40:52Z</time>
      </trkpt>
      <trkpt lat="43.42387" lon="16.89291">
        <ele>239.071</ele>
        <time>2018-10-05T05:41:12Z</time>
      </trkpt>
      <trkpt lat="43.42398" lon="16.89278">
        <ele>241.028</ele>
        <time>2018-10-05T05:41:32Z</time>
      </trkpt>
      <trkpt lat="43.42406" lon="16.89265">
        <ele>227.031</ele>
        <time>2018-10-05T05:41:52Z</time>
      </trkpt>
      <trkpt lat="43.42414" lon="16.89259">
        <ele>228.063</ele>
        <time>2018-10-05T05:42:12Z</time>
      </trkpt>
      <trkpt lat="43.42418" lon="16.89256">
        <ele>229.021</ele>
        <time>2018-10-05T05:42:32Z</time>
      </trkpt>
      <trkpt lat="43.42421" lon="16.89254">
        <ele>229.052</ele>
        <time>2018-10-05T05:42:52Z</time>
      </trkpt>
      <trkpt lat="43.42423" lon="16.89252">
        <ele>229.082</ele>
        <time>2018-10-05T05:43:12Z</time>
      </trkpt>
      <trkpt lat="43.42429" lon="16.89249">
        <ele>228.021</ele>
        <time>2018-10-05T05:43:32Z</time>
      </trkpt>
      <trkpt lat="43.42432" lon="16.89248">
        <ele>227.035</ele>
        <time>2018-10-05T05:43:52Z</time>
      </trkpt>
      <trkpt lat="43.42436" lon="16.89247">
        <ele>227.086</ele>
        <time>2018-10-05T05:44:12Z</time>
      </trkpt>
      <trkpt lat="43.42437" lon="16.89246">
        <ele>226.014</ele>
        <time>2018-10-05T05:44:32Z</time>
      </trkpt>
      <trkpt lat="43.42439" lon="16.89241">
        <ele>226.008</ele>
        <time>2018-10-05T05:44:52Z</time>
      </trkpt>
      <trkpt lat="43.42444" lon="16.89234">
        <ele>226.035</ele>
        <time>2018-10-05T05:45:12Z</time>
      </trkpt>
      <trkpt lat="43.4245" lon="16.89227">
        <ele>227.032</ele>
        <time>2018-10-05T05:45:32Z</time>
      </trkpt>
      <trkpt lat="43.42452" lon="16.89224">
        <ele>228.055</ele>
        <time>2018-10-05T05:45:52Z</time>
      </trkpt>
      <trkpt lat="43.42458" lon="16.89224">
        <ele>229.087</ele>
        <time>2018-10-05T05:46:12Z</time>
      </trkpt>
      <trkpt lat="43.42461" lon="16.89222">
        <ele>229.075</ele>
        <time>2018-10-05T05:46:32Z</time>
      </trkpt>
      <trkpt lat="43.42462" lon="16.8922">
        <ele>229.086</ele>
        <time>2018-10-05T05:46:52Z</time>
      </trkpt>
      <trkpt lat="43.42468" lon="16.89204">
        <ele>230.096</ele>
        <time>2018-10-05T05:47:12Z</time>
      </trkpt>
      <trkpt lat="43.42469" lon="16.89202">
        <ele>230.015</ele>
        <time>2018-10-05T05:47:32Z</time>
      </trkpt>
      <trkpt lat="43.42475" lon="16.89188">
        <ele>230.037</ele>
        <time>2018-10-05T05:47:52Z</time>
      </trkpt>
      <trkpt lat="43.4248" lon="16.89185">
        <ele>231.049</ele>
        <time>2018-10-05T05:48:12Z</time>
      </trkpt>
      <trkpt lat="43.42483" lon="16.89178">
        <ele>232.013</ele>
        <time>2018-10-05T05:48:32Z</time>
      </trkpt>
      <trkpt lat="43.42484" lon="16.89177">
        <ele>232.008</ele>
        <time>2018-10-05T05:48:52Z</time>
      </trkpt>
      <trkpt lat="43.4249" lon="16.89171">
        <ele>232.095</ele>
        <time>2018-10-05T05:49:12Z</time>
      </trkpt>
      <trkpt lat="43.42496" lon="16.89166">
        <ele>232.022</ele>
        <time>2018-10-05T05:49:32Z</time>
      </trkpt>
      <trkpt lat="43.42511" lon="16.89151">
        <ele>233.065</ele>
        <time>2018-10-05T05:49:52Z</time>
      </trkpt>
      <trkpt lat="43.42518" lon="16.89143">
        <ele>232.057</ele>
        <time>2018-10-05T05:50:12Z</time>
      </trkpt>
      <trkpt lat="43.42523" lon="16.89136">
        <ele>232.045</ele>
        <time>2018-10-05T05:50:32Z</time>
      </trkpt>
      <trkpt lat="43.42523" lon="16.89134">
        <ele>232.096</ele>
        <time>2018-10-05T05:50:52Z</time>
      </trkpt>
      <trkpt lat="43.42534" lon="16.89129">
        <ele>233.016</ele>
        <time>2018-10-05T05:51:12Z</time>
      </trkpt>
      <trkpt lat="43.42534" lon="16.89124">
        <ele>233.045</ele>
        <time>2018-10-05T05:51:32Z</time>
      </trkpt>
      <trkpt lat="43.42538" lon="16.89116">
        <ele>233.032</ele>
        <time>2018-10-05T05:51:52Z</time>
      </trkpt>
      <trkpt lat="43.42547" lon="16.89109">
        <ele>233.092</ele>
        <time>2018-10-05T05:52:12Z</time>
      </trkpt>
      <trkpt lat="43.42551" lon="16.89107">
        <ele>233.011</ele>
        <time>2018-10-05T05:52:32Z</time>
      </trkpt>
      <trkpt lat="43.42558" lon="16.89102">
        <ele>233.008</ele>
        <time>2018-10-05T05:52:52Z</time>
      </trkpt>
      <trkpt lat="43.4257" lon="16.89095">
        <ele>234.055</ele>
        <time>2018-10-05T05:53:12Z</time>
      </trkpt>
      <trkpt lat="43.42585" lon="16.89088">
        <ele>234.082</ele>
        <time>2018-10-05T05:53:32Z</time>
      </trkpt>
      <trkpt lat="43.42589" lon="16.89085">
        <ele>234.085</ele>
        <time>2018-10-05T05:53:52Z</time>
      </trkpt>
      <trkpt lat="43.42603" lon="16.89081">
        <ele>235.017</ele>
        <time>2018-10-05T05:54:12Z</time>
      </trkpt>
      <trkpt lat="43.42615" lon="16.89074">
        <ele>234.065</ele>
        <time>2018-10-05T05:54:32Z</time>
      </trkpt>
      <trkpt lat="43.42619" lon="16.89071">
        <ele>234.066</ele>
        <time>2018-10-05T05:54:52Z</time>
      </trkpt>
      <trkpt lat="43.42634" lon="16.89065">
        <ele>233.036</ele>
        <time>2018-10-05T05:55:12Z</time>
      </trkpt>
      <trkpt lat="43.42652" lon="16.89057">
        <ele>233.035</ele>
        <time>2018-10-05T05:55:32Z</time>
      </trkpt>
      <trkpt lat="43.42652" lon="16.89056">
        <ele>233.099</ele>
        <time>2018-10-05T05:55:52Z</time>
      </trkpt>
      <trkpt lat="43.42652" lon="16.89056">
        <ele>233.007</ele>
        <time>2018-10-05T05:56:12Z</time>
      </trkpt>
      <trkpt lat="43.42657" lon="16.89062">
        <ele>233.027</ele>
        <time>2018-10-05T05:56:32Z</time>
      </trkpt>
      <trkpt lat="43.42665" lon="16.89071">
        <ele>233.008</ele>
        <time>2018-10-05T05:56:52Z</time>
      </trkpt>
      <trkpt lat="43.4267" lon="16.89078">
        <ele>232.011</ele>
        <time>2018-10-05T05:57:12Z</time>
      </trkpt>
      <trkpt lat="43.42687" lon="16.89083">
        <ele>231.018</ele>
        <time>2018-10-05T05:57:32Z</time>
      </trkpt>
      <trkpt lat="43.42689" lon="16.89083">
        <ele>231.051</ele>
        <time>2018-10-05T05:57:52Z</time>
      </trkpt>
      <trkpt lat="43.42702" lon="16.89081">
        <ele>230.073</ele>
        <time>2018-10-05T05:58:12Z</time>
      </trkpt>
      <trkpt lat="43.42707" lon="16.89078">
        <ele>230.051</ele>
        <time>2018-10-05T05:58:32Z</time>
      </trkpt>
      <trkpt lat="43.42722" lon="16.89078">
        <ele>228.082</ele>
        <time>2018-10-05T05:58:52Z</time>
      </trkpt>
      <trkpt lat="43.42723" lon="16.89078">
        <ele>228.022</ele>
        <time>2018-10-05T05:59:12Z</time>
      </trkpt>
      <trkpt lat="43.42729" lon="16.89081">
        <ele>227.041</ele>
        <time>2018-10-05T05:59:32Z</time>
      </trkpt>
      <trkpt lat="43.42741" lon="16.89084">
        <ele>226.088</ele>
        <time>2018-10-05T05:59:52Z</time>
      </trkpt>
      <trkpt lat="43.42755" lon="16.89083">
        <ele>225.024</ele>
        <time>2018-10-05T06:00:12Z</time>
      </trkpt>
      <trkpt lat="43.42762" lon="16.89082">
        <ele>224.026</ele>
        <time>2018-10-05T06:00:32Z</time>
      </trkpt>
      <trkpt lat="43.42781" lon="16.89082">
        <ele>224.008</ele>
        <time>2018-10-05T06:00:52Z</time>
      </trkpt>
      <trkpt lat="43.42795" lon="16.89078">
        <ele>224.08</ele>
        <time>2018-10-05T06:01:12Z</time>
      </trkpt>
      <trkpt lat="43.42811" lon="16.89065">
        <ele>224.097</ele>
        <time>2018-10-05T06:01:32Z</time>
      </trkpt>
      <trkpt lat="43.42828" lon="16.89053">
        <ele>224.08</ele>
        <time>2018-10-05T06:01:52Z</time>
      </trkpt>
      <trkpt lat="43.42843" lon="16.89036">
        <ele>224.022</ele>
        <time>2018-10-05T06:02:12Z</time>
      </trkpt>
      <trkpt lat="43.42854" lon="16.89019">
        <ele>224.04</ele>
        <time>2018-10-05T06:02:32Z</time>
      </trkpt>
      <trkpt lat="43.42855" lon="16.89018">
        <ele>225.081</ele>
        <time>2018-10-05T06:02:52Z</time>
      </trkpt>
      <trkpt lat="43.42855" lon="16.89018">
        <ele>225.011</ele>
        <time>2018-10-05T06:03:12Z</time>
      </trkpt>
      <trkpt lat="43.42857" lon="16.89016">
        <ele>226.05</ele>
        <time>2018-10-05T06:03:32Z</time>
      </trkpt>
      <trkpt lat="43.42855" lon="16.89012">
        <ele>227.063</ele>
        <time>2018-10-05T06:03:52Z</time>
      </trkpt>
      <trkpt lat="43.42857" lon="16.89006">
        <ele>229.044</ele>
        <time>2018-10-05T06:04:12Z</time>
      </trkpt>
      <trkpt lat="43.42857" lon="16.89005">
        <ele>230.018</ele>
        <time>2018-10-05T06:04:32Z</time>
      </trkpt>
      <trkpt lat="43.42862" lon="16.89003">
        <ele>232.008</ele>
        <time>2018-10-05T06:04:52Z</time>
      </trkpt>
      <trkpt lat="43.42866" lon="16.88998">
        <ele>234.048</ele>
        <time>2018-10-05T06:05:12Z</time>
      </trkpt>
      <trkpt lat="43.42872" lon="16.88987">
        <ele>236.095</ele>
        <time>2018-10-05T06:05:32Z</time>
      </trkpt>
      <trkpt lat="43.42879" lon="16.88976">
        <ele>236.088</ele>
        <time>2018-10-05T06:05:52Z</time>
      </trkpt>
      <trkpt lat="43.42884" lon="16.8897">
        <ele>238.05</ele>
        <time>2018-10-05T06:06:12Z</time>
      </trkpt>
      <trkpt lat="43.42894" lon="16.8896">
        <ele>239.068</ele>
        <time>2018-10-05T06:06:32Z</time>
      </trkpt>
      <trkpt lat="43.429" lon="16.88956">
        <ele>240.089</ele>
        <time>2018-10-05T06:06:52Z</time>
      </trkpt>
      <trkpt lat="43.429" lon="16.88957">
        <ele>241.049</ele>
        <time>2018-10-05T06:07:12Z</time>
      </trkpt>
      <trkpt lat="43.429" lon="16.88961">
        <ele>242.048</ele>
        <time>2018-10-05T06:07:32Z</time>
      </trkpt>
      <trkpt lat="43.42896" lon="16.88971">
        <ele>243.027</ele>
        <time>2018-10-05T06:07:52Z</time>
      </trkpt>
      <trkpt lat="43.42894" lon="16.88978">
        <ele>244.068</ele>
        <time>2018-10-05T06:08:12Z</time>
      </trkpt>
      <trkpt lat="43.42889" lon="16.88986">
        <ele>245.014</ele>
        <time>2018-10-05T06:08:32Z</time>
      </trkpt>
      <trkpt lat="43.42886" lon="16.88994">
        <ele>246.008</ele>
        <time>2018-10-05T06:08:52Z</time>
      </trkpt>
      <trkpt lat="43.42885" lon="16.88998">
        <ele>247.084</ele>
        <time>2018-10-05T06:09:12Z</time>
      </trkpt>
      <trkpt lat="43.42888" lon="16.88993">
        <ele>248.011</ele>
        <time>2018-10-05T06:09:32Z</time>
      </trkpt>
      <trkpt lat="43.42893" lon="16.88988">
        <ele>249.054</ele>
        <time>2018-10-05T06:09:52Z</time>
      </trkpt>
      <trkpt lat="43.429" lon="16.88981">
        <ele>250.016</ele>
        <time>2018-10-05T06:10:12Z</time>
      </trkpt>
      <trkpt lat="43.4291" lon="16.88969">
        <ele>252.034</ele>
        <time>2018-10-05T06:10:32Z</time>
      </trkpt>
      <trkpt lat="43.42917" lon="16.88962">
        <ele>253.035</ele>
        <time>2018-10-05T06:10:52Z</time>
      </trkpt>
      <trkpt lat="43.42924" lon="16.88957">
        <ele>254.045</ele>
        <time>2018-10-05T06:11:12Z</time>
      </trkpt>
      <trkpt lat="43.42931" lon="16.88946">
        <ele>256.074</ele>
        <time>2018-10-05T06:11:32Z</time>
      </trkpt>
      <trkpt lat="43.42942" lon="16.88938">
        <ele>257.056</ele>
        <time>2018-10-05T06:11:52Z</time>
      </trkpt>
      <trkpt lat="43.42964" lon="16.88924">
        <ele>258.059</ele>
        <time>2018-10-05T06:12:12Z</time>
      </trkpt>
      <trkpt lat="43.42972" lon="16.88919">
        <ele>259.014</ele>
        <time>2018-10-05T06:12:32Z</time>
      </trkpt>
      <trkpt lat="43.4298" lon="16.88914">
        <ele>260.008</ele>
        <time>2018-10-05T06:12:52Z</time>
      </trkpt>
      <trkpt lat="43.42987" lon="16.88911">
        <ele>261.037</ele>
        <time>2018-10-05T06:13:12Z</time>
      </trkpt>
      <trkpt lat="43.42991" lon="16.88911">
        <ele>262.054</ele>
        <time>2018-10-05T06:13:32Z</time>
      </trkpt>
      <trkpt lat="43.42992" lon="16.88917">
        <ele>262.067</ele>
        <time>2018-10-05T06:13:52Z</time>
      </trkpt>
      <trkpt lat="43.42992" lon="16.88921">
        <ele>262.069</ele>
        <time>2018-10-05T06:14:12Z</time>
      </trkpt>
      <trkpt lat="43.42989" lon="16.88931">
        <ele>262.087</ele>
        <time>2018-10-05T06:14:32Z</time>
      </trkpt>
      <trkpt lat="43.42988" lon="16.8894">
        <ele>262.048</ele>
        <time>2018-10-05T06:14:52Z</time>
      </trkpt>
      <trkpt lat="43.42986" lon="16.88953">
        <ele>262.048</ele>
        <time>2018-10-05T06:15:12Z</time>
      </trkpt>
      <trkpt lat="43.42986" lon="16.88957">
        <ele>262.017</ele>
        <time>2018-10-05T06:15:32Z</time>
      </trkpt>
      <trkpt lat="43.42995" lon="16.88963">
        <ele>260.037</ele>
        <time>2018-10-05T06:15:52Z</time>
      </trkpt>
      <trkpt lat="43.43003" lon="16.88964">
        <ele>258.049</ele>
        <time>2018-10-05T06:16:12Z</time>
      </trkpt>
      <trkpt lat="43.43007" lon="16.88964">
        <ele>256.013</ele>
        <time>2018-10-05T06:16:32Z</time>
      </trkpt>
      <trkpt lat="43.43011" lon="16.88964">
        <ele>255.008</ele>
        <time>2018-10-05T06:16:52Z</time>
      </trkpt>
      <trkpt lat="43.43015" lon="16.8896">
        <ele>253.055</ele>
        <time>2018-10-05T06:17:12Z</time>
      </trkpt>
      <trkpt lat="43.43024" lon="16.88945">
        <ele>251.072</ele>
        <time>2018-10-05T06:17:32Z</time>
      </trkpt>
      <trkpt lat="43.43031" lon="16.88939">
        <ele>248.095</ele>
        <time>2018-10-05T06:17:52Z</time>
      </trkpt>
      <trkpt lat="43.43034" lon="16.88936">
        <ele>248.077</ele>
        <time>2018-10-05T06:18:12Z</time>
      </trkpt>
      <trkpt lat="43.43043" lon="16.88918">
        <ele>246.085</ele>
        <time>2018-10-05T06:18:32Z</time>
      </trkpt>
      <trkpt lat="43.43045" lon="16.88913">
        <ele>246.016</ele>
        <time>2018-10-05T06:18:52Z</time>
      </trkpt>
      <trkpt lat="43.43057" lon="16.88904">
        <ele>245.026</ele>
        <time>2018-10-05T06:19:12Z</time>
      </trkpt>
      <trkpt lat="43.43058" lon="16.88903">
        <ele>245.055</ele>
        <time>2018-10-05T06:19:32Z</time>
      </trkpt>
      <trkpt lat="43.43059" lon="16.88903">
        <ele>244.096</ele>
        <time>2018-10-05T06:19:52Z</time>
      </trkpt>
      <trkpt lat="43.43062" lon="16.88916">
        <ele>243.031</ele>
        <time>2018-10-05T06:20:12Z</time>
      </trkpt>
      <trkpt lat="43.4306" lon="16.88926">
        <ele>242.024</ele>
        <time>2018-10-05T06:20:32Z</time>
      </trkpt>
      <trkpt lat="43.43061" lon="16.88932">
        <ele>241.008</ele>
        <time>2018-10-05T06:20:52Z</time>
      </trkpt>
      <trkpt lat="43.43062" lon="16.88947">
        <ele>241.091</ele>
        <time>2018-10-05T06:21:12Z</time>
      </trkpt>
      <trkpt lat="43.43064" lon="16.88955">
        <ele>240.068</ele>
        <time>2018-10-05T06:21:32Z</time>
      </trkpt>
      <trkpt lat="43.43064" lon="16.88969">
        <ele>239.051</ele>
        <time>2018-10-05T06:21:52Z</time>
      </trkpt>
      <trkpt lat="43.43063" lon="16.8899">
        <ele>237.093</ele>
        <time>2018-10-05T06:22:12Z</time>
      </trkpt>
      <trkpt lat="43.43063" lon="16.88993">
        <ele>236.021</ele>
        <time>2018-10-05T06:22:32Z</time>
      </trkpt>
      <trkpt lat="43.4307" lon="16.88994">
        <ele>244.082</ele>
        <time>2018-10-05T06:22:52Z</time>
      </trkpt>
      <trkpt lat="43.43082" lon="16.88983">
        <ele>243.082</ele>
        <time>2018-10-05T06:23:12Z</time>
      </trkpt>
      <trkpt lat="43.43089" lon="16.88977">
        <ele>242.091</ele>
        <time>2018-10-05T06:23:32Z</time>
      </trkpt>
      <trkpt lat="43.43103" lon="16.8897">
        <ele>241.083</ele>
        <time>2018-10-05T06:23:52Z</time>
      </trkpt>
      <trkpt lat="43.43115" lon="16.88971">
        <ele>238.025</ele>
        <time>2018-10-05T06:24:12Z</time>
      </trkpt>
      <trkpt lat="43.43127" lon="16.88969">
        <ele>236.017</ele>
        <time>2018-10-05T06:24:32Z</time>
      </trkpt>
      <trkpt lat="43.43129" lon="16.88969">
        <ele>235.008</ele>
        <time>2018-10-05T06:24:52Z</time>
      </trkpt>
      <trkpt lat="43.43144" lon="16.88966">
        <ele>235.04</ele>
        <time>2018-10-05T06:25:12Z</time>
      </trkpt>
      <trkpt lat="43.43147" lon="16.88979">
        <ele>235.087</ele>
        <time>2018-10-05T06:25:32Z</time>
      </trkpt>
      <trkpt lat="43.43146" lon="16.88984">
        <ele>235.08</ele>
        <time>2018-10-05T06:25:52Z</time>
      </trkpt>
      <trkpt lat="43.43161" lon="16.89011">
        <ele>235.072</ele>
        <time>2018-10-05T06:26:12Z</time>
      </trkpt>
      <trkpt lat="43.43164" lon="16.89015">
        <ele>235.03</ele>
        <time>2018-10-05T06:26:32Z</time>
      </trkpt>
      <trkpt lat="43.4318" lon="16.89027">
        <ele>235.021</ele>
        <time>2018-10-05T06:26:52Z</time>
      </trkpt>
      <trkpt lat="43.43191" lon="16.89033">
        <ele>236.081</ele>
        <time>2018-10-05T06:27:12Z</time>
      </trkpt>
      <trkpt lat="43.43193" lon="16.89036">
        <ele>236.03</ele>
        <time>2018-10-05T06:27:32Z</time>
      </trkpt>
      <trkpt lat="43.43205" lon="16.8904">
        <ele>236.038</ele>
        <time>2018-10-05T06:27:52Z</time>
      </trkpt>
      <trkpt lat="43.43214" lon="16.89045">
        <ele>237.07</ele>
        <time>2018-10-05T06:28:12Z</time>
      </trkpt>
      <trkpt lat="43.43232" lon="16.89055">
        <ele>237.017</ele>
        <time>2018-10-05T06:28:32Z</time>
      </trkpt>
      <trkpt lat="43.43234" lon="16.89055">
        <ele>237.008</ele>
        <time>2018-10-05T06:28:52Z</time>
      </trkpt>
      <trkpt lat="43.43252" lon="16.89071">
        <ele>238.075</ele>
        <time>2018-10-05T06:29:12Z</time>
      </trkpt>
      <trkpt lat="43.43266" lon="16.89077">
        <ele>237.062</ele>
        <time>2018-10-05T06:29:32Z</time>
      </trkpt>
      <trkpt lat="43.43268" lon="16.89075">
        <ele>237.085</ele>
        <time>2018-10-05T06:29:52Z</time>
      </trkpt>
      <trkpt lat="43.43274" lon="16.89042">
        <ele>238.047</ele>
        <time>2018-10-05T06:30:12Z</time>
      </trkpt>
      <trkpt lat="43.43283" lon="16.89029">
        <ele>237.045</ele>
        <time>2018-10-05T06:30:32Z</time>
      </trkpt>
      <trkpt lat="43.43287" lon="16.89018">
        <ele>237.046</ele>
        <time>2018-10-05T06:30:52Z</time>
      </trkpt>
      <trkpt lat="43.43293" lon="16.89007">
        <ele>236.036</ele>
        <time>2018-10-05T06:31:12Z</time>
      </trkpt>
      <trkpt lat="43.43301" lon="16.89004">
        <ele>236.065</ele>
        <time>2018-10-05T06:31:32Z</time>
      </trkpt>
      <trkpt lat="43.43307" lon="16.88998">
        <ele>235.089</ele>
        <time>2018-10-05T06:31:52Z</time>
      </trkpt>
      <trkpt lat="43.43326" lon="16.88994">
        <ele>237.006</ele>
        <time>2018-10-05T06:32:12Z</time>
      </trkpt>
      <trkpt lat="43.4333" lon="16.88994">
        <ele>238.026</ele>
        <time>2018-10-05T06:32:32Z</time>
      </trkpt>
      <trkpt lat="43.43354" lon="16.88993">
        <ele>239.008</ele>
        <time>2018-10-05T06:32:52Z</time>
      </trkpt>
      <trkpt lat="43.43365" lon="16.88992">
        <ele>241.08</ele>
        <time>2018-10-05T06:33:12Z</time>
      </trkpt>
      <trkpt lat="43.43372" lon="16.88991">
        <ele>241.047</ele>
        <time>2018-10-05T06:33:32Z</time>
      </trkpt>
      <trkpt lat="43.43375" lon="16.8899">
        <ele>241.02</ele>
        <time>2018-10-05T06:33:52Z</time>
      </trkpt>
      <trkpt lat="43.43377" lon="16.89002">
        <ele>241.012</ele>
        <time>2018-10-05T06:34:12Z</time>
      </trkpt>
      <trkpt lat="43.43377" lon="16.89006">
        <ele>240.08</ele>
        <time>2018-10-05T06:34:32Z</time>
      </trkpt>
      <trkpt lat="43.43379" lon="16.89026">
        <ele>240.031</ele>
        <time>2018-10-05T06:34:52Z</time>
      </trkpt>
      <trkpt lat="43.4337" lon="16.89046">
        <ele>240.011</ele>
        <time>2018-10-05T06:35:12Z</time>
      </trkpt>
      <trkpt lat="43.43354" lon="16.89062">
        <ele>240.01</ele>
        <time>2018-10-05T06:35:32Z</time>
      </trkpt>
      <trkpt lat="43.4334" lon="16.89085">
        <ele>240.055</ele>
        <time>2018-10-05T06:35:52Z</time>
      </trkpt>
      <trkpt lat="43.43325" lon="16.8911">
        <ele>240.007</ele>
        <time>2018-10-05T06:36:12Z</time>
      </trkpt>
      <trkpt lat="43.43309" lon="16.89135">
        <ele>239.017</ele>
        <time>2018-10-05T06:36:32Z</time>
      </trkpt>
      <trkpt lat="43.43304" lon="16.89144">
        <ele>239.008</ele>
        <time>2018-10-05T06:36:52Z</time>
      </trkpt>
      <trkpt lat="43.43293" lon="16.89164">
        <ele>238.017</ele>
        <time>2018-10-05T06:37:12Z</time>
      </trkpt>
      <trkpt lat="43.43287" lon="16.89174">
        <ele>237.014</ele>
        <time>2018-10-05T06:37:32Z</time>
      </trkpt>
      <trkpt lat="43.43277" lon="16.89192">
        <ele>236.077</ele>
        <time>2018-10-05T06:37:52Z</time>
      </trkpt>
      <trkpt lat="43.43268" lon="16.89204">
        <ele>235.069</ele>
        <time>2018-10-05T06:38:12Z</time>
      </trkpt>
      <trkpt lat="43.4326" lon="16.89208">
        <ele>235.027</ele>
        <time>2018-10-05T06:38:32Z</time>
      </trkpt>
      <trkpt lat="43.43228" lon="16.89208">
        <ele>229.078</ele>
        <time>2018-10-05T06:38:52Z</time>
      </trkpt>
      <trkpt lat="43.43224" lon="16.89216">
        <ele>230.048</ele>
        <time>2018-10-05T06:39:12Z</time>
      </trkpt>
      <trkpt lat="43.43214" lon="16.89228">
        <ele>230.057</ele>
        <time>2018-10-05T06:39:32Z</time>
      </trkpt>
      <trkpt lat="43.432" lon="16.89246">
        <ele>231.093</ele>
        <time>2018-10-05T06:39:52Z</time>
      </trkpt>
      <trkpt lat="43.43184" lon="16.89257">
        <ele>231.065</ele>
        <time>2018-10-05T06:40:12Z</time>
      </trkpt>
      <trkpt lat="43.43166" lon="16.89269">
        <ele>231.021</ele>
        <time>2018-10-05T06:40:32Z</time>
      </trkpt>
      <trkpt lat="43.43154" lon="16.8929">
        <ele>231.008</ele>
        <time>2018-10-05T06:40:52Z</time>
      </trkpt>
      <trkpt lat="43.43149" lon="16.89305">
        <ele>232.011</ele>
        <time>2018-10-05T06:41:12Z</time>
      </trkpt>
      <trkpt lat="43.43148" lon="16.89316">
        <ele>233.088</ele>
        <time>2018-10-05T06:41:32Z</time>
      </trkpt>
      <trkpt lat="43.43138" lon="16.89336">
        <ele>233.011</ele>
        <time>2018-10-05T06:41:52Z</time>
      </trkpt>
      <trkpt lat="43.43126" lon="16.89356">
        <ele>234.063</ele>
        <time>2018-10-05T06:42:12Z</time>
      </trkpt>
      <trkpt lat="43.43119" lon="16.89366">
        <ele>233.051</ele>
        <time>2018-10-05T06:42:32Z</time>
      </trkpt>
      <trkpt lat="43.4311" lon="16.89389">
        <ele>233.022</ele>
        <time>2018-10-05T06:42:52Z</time>
      </trkpt>
      <trkpt lat="43.43097" lon="16.89409">
        <ele>233.072</ele>
        <time>2018-10-05T06:43:12Z</time>
      </trkpt>
      <trkpt lat="43.43086" lon="16.89426">
        <ele>234.011</ele>
        <time>2018-10-05T06:43:32Z</time>
      </trkpt>
      <trkpt lat="43.4307" lon="16.89436">
        <ele>234.039</ele>
        <time>2018-10-05T06:43:52Z</time>
      </trkpt>
      <trkpt lat="43.43063" lon="16.89438">
        <ele>234.001</ele>
        <time>2018-10-05T06:44:12Z</time>
      </trkpt>
      <trkpt lat="43.43055" lon="16.89438">
        <ele>234.021</ele>
        <time>2018-10-05T06:44:32Z</time>
      </trkpt>
      <trkpt lat="43.4305" lon="16.89438">
        <ele>233.008</ele>
        <time>2018-10-05T06:44:52Z</time>
      </trkpt>
      <trkpt lat="43.43037" lon="16.8943">
        <ele>233.025</ele>
        <time>2018-10-05T06:45:12Z</time>
      </trkpt>
      <trkpt lat="43.43018" lon="16.89425">
        <ele>234.062</ele>
        <time>2018-10-05T06:45:32Z</time>
      </trkpt>
      <trkpt lat="43.43001" lon="16.89422">
        <ele>235.055</ele>
        <time>2018-10-05T06:45:52Z</time>
      </trkpt>
      <trkpt lat="43.42998" lon="16.89422">
        <ele>235.057</ele>
        <time>2018-10-05T06:46:12Z</time>
      </trkpt>
      <trkpt lat="43.42996" lon="16.89424">
        <ele>236.045</ele>
        <time>2018-10-05T06:46:32Z</time>
      </trkpt>
      <trkpt lat="43.42989" lon="16.89441">
        <ele>236.096</ele>
        <time>2018-10-05T06:46:52Z</time>
      </trkpt>
      <trkpt lat="43.4298" lon="16.89462">
        <ele>236.046</ele>
        <time>2018-10-05T06:47:12Z</time>
      </trkpt>
      <trkpt lat="43.42967" lon="16.89479">
        <ele>236.015</ele>
        <time>2018-10-05T06:47:32Z</time>
      </trkpt>
      <trkpt lat="43.42955" lon="16.89496">
        <ele>235.058</ele>
        <time>2018-10-05T06:47:52Z</time>
      </trkpt>
      <trkpt lat="43.42948" lon="16.89505">
        <ele>235.052</ele>
        <time>2018-10-05T06:48:12Z</time>
      </trkpt>
      <trkpt lat="43.4293" lon="16.89506">
        <ele>235.017</ele>
        <time>2018-10-05T06:48:32Z</time>
      </trkpt>
      <trkpt lat="43.42924" lon="16.89503">
        <ele>235.008</ele>
        <time>2018-10-05T06:48:52Z</time>
      </trkpt>
      <trkpt lat="43.42907" lon="16.89511">
        <ele>236.077</ele>
        <time>2018-10-05T06:49:12Z</time>
      </trkpt>
      <trkpt lat="43.42895" lon="16.89532">
        <ele>236.024</ele>
        <time>2018-10-05T06:49:32Z</time>
      </trkpt>
      <trkpt lat="43.42886" lon="16.89555">
        <ele>235.067</ele>
        <time>2018-10-05T06:49:52Z</time>
      </trkpt>
      <trkpt lat="43.42887" lon="16.8958">
        <ele>235.069</ele>
        <time>2018-10-05T06:50:12Z</time>
      </trkpt>
      <trkpt lat="43.42891" lon="16.89605">
        <ele>235.027</ele>
        <time>2018-10-05T06:50:32Z</time>
      </trkpt>
      <trkpt lat="43.42891" lon="16.8963">
        <ele>235.098</ele>
        <time>2018-10-05T06:50:52Z</time>
      </trkpt>
      <trkpt lat="43.42884" lon="16.89653">
        <ele>235.028</ele>
        <time>2018-10-05T06:51:12Z</time>
      </trkpt>
      <trkpt lat="43.42874" lon="16.89666">
        <ele>236.017</ele>
        <time>2018-10-05T06:51:32Z</time>
      </trkpt>
      <trkpt lat="43.42859" lon="16.89671">
        <ele>237.077</ele>
        <time>2018-10-05T06:51:52Z</time>
      </trkpt>
      <trkpt lat="43.42847" lon="16.89691">
        <ele>238.061</ele>
        <time>2018-10-05T06:52:12Z</time>
      </trkpt>
      <trkpt lat="43.42843" lon="16.89716">
        <ele>238.027</ele>
        <time>2018-10-05T06:52:32Z</time>
      </trkpt>
      <trkpt lat="43.42827" lon="16.89725">
        <ele>238.008</ele>
        <time>2018-10-05T06:52:52Z</time>
      </trkpt>
      <trkpt lat="43.42826" lon="16.89724">
        <ele>238.099</ele>
        <time>2018-10-05T06:53:12Z</time>
      </trkpt>
      <trkpt lat="43.4282" lon="16.89723">
        <ele>239.046</ele>
        <time>2018-10-05T06:53:32Z</time>
      </trkpt>
      <trkpt lat="43.42815" lon="16.89721">
        <ele>239.079</ele>
        <time>2018-10-05T06:53:52Z</time>
      </trkpt>
      <trkpt lat="43.42809" lon="16.89721">
        <ele>239.091</ele>
        <time>2018-10-05T06:54:12Z</time>
      </trkpt>
      <trkpt lat="43.42795" lon="16.89739">
        <ele>238.089</ele>
        <time>2018-10-05T06:54:32Z</time>
      </trkpt>
      <trkpt lat="43.42789" lon="16.89768">
        <ele>237.02</ele>
        <time>2018-10-05T06:54:52Z</time>
      </trkpt>
      <trkpt lat="43.4279" lon="16.89794">
        <ele>237.01</ele>
        <time>2018-10-05T06:55:12Z</time>
      </trkpt>
      <trkpt lat="43.42797" lon="16.89819">
        <ele>237.049</ele>
        <time>2018-10-05T06:55:32Z</time>
      </trkpt>
      <trkpt lat="43.42804" lon="16.89848">
        <ele>236.038</ele>
        <time>2018-10-05T06:55:52Z</time>
      </trkpt>
      <trkpt lat="43.42813" lon="16.8987">
        <ele>236.07</ele>
        <time>2018-10-05T06:56:12Z</time>
      </trkpt>
      <trkpt lat="43.42814" lon="16.89897">
        <ele>236.017</ele>
        <time>2018-10-05T06:56:32Z</time>
      </trkpt>
      <trkpt lat="43.42819" lon="16.89918">
        <ele>235.008</ele>
        <time>2018-10-05T06:56:52Z</time>
      </trkpt>
      <trkpt lat="43.42817" lon="16.89942">
        <ele>236.075</ele>
        <time>2018-10-05T06:57:12Z</time>
      </trkpt>
      <trkpt lat="43.42806" lon="16.89958">
        <ele>235.082</ele>
        <time>2018-10-05T06:57:32Z</time>
      </trkpt>
      <trkpt lat="43.42804" lon="16.89989">
        <ele>235.055</ele>
        <time>2018-10-05T06:57:52Z</time>
      </trkpt>
      <trkpt lat="43.42802" lon="16.90008">
        <ele>234.057</ele>
        <time>2018-10-05T06:58:12Z</time>
      </trkpt>
      <trkpt lat="43.42794" lon="16.9003">
        <ele>234.055</ele>
        <time>2018-10-05T06:58:32Z</time>
      </trkpt>
      <trkpt lat="43.42796" lon="16.9004">
        <ele>234.016</ele>
        <time>2018-10-05T06:58:52Z</time>
      </trkpt>
      <trkpt lat="43.42796" lon="16.9004">
        <ele>235.036</ele>
        <time>2018-10-05T06:59:12Z</time>
      </trkpt>
      <trkpt lat="43.428" lon="16.90041">
        <ele>235.055</ele>
        <time>2018-10-05T06:59:32Z</time>
      </trkpt>
      <trkpt lat="43.42812" lon="16.90059">
        <ele>235.068</ele>
        <time>2018-10-05T06:59:52Z</time>
      </trkpt>
      <trkpt lat="43.42816" lon="16.90071">
        <ele>235.042</ele>
        <time>2018-10-05T07:00:12Z</time>
      </trkpt>
      <trkpt lat="43.42813" lon="16.90087">
        <ele>236.026</ele>
        <time>2018-10-05T07:00:32Z</time>
      </trkpt>
      <trkpt lat="43.428" lon="16.90104">
        <ele>236.008</ele>
        <time>2018-10-05T07:00:52Z</time>
      </trkpt>
      <trkpt lat="43.42785" lon="16.90106">
        <ele>235.068</ele>
        <time>2018-10-05T07:01:12Z</time>
      </trkpt>
      <trkpt lat="43.42767" lon="16.90105">
        <ele>234.045</ele>
        <time>2018-10-05T07:01:32Z</time>
      </trkpt>
      <trkpt lat="43.42742" lon="16.90102">
        <ele>233.078</ele>
        <time>2018-10-05T07:01:52Z</time>
      </trkpt>
      <trkpt lat="43.42733" lon="16.90096">
        <ele>231.02</ele>
        <time>2018-10-05T07:02:12Z</time>
      </trkpt>
      <trkpt lat="43.42717" lon="16.90084">
        <ele>231.038</ele>
        <time>2018-10-05T07:02:32Z</time>
      </trkpt>
      <trkpt lat="43.42708" lon="16.90079">
        <ele>230.079</ele>
        <time>2018-10-05T07:02:52Z</time>
      </trkpt>
      <trkpt lat="43.42691" lon="16.90068">
        <ele>232.089</ele>
        <time>2018-10-05T07:03:12Z</time>
      </trkpt>
      <trkpt lat="43.42688" lon="16.90061">
        <ele>233.018</ele>
        <time>2018-10-05T07:03:32Z</time>
      </trkpt>
      <trkpt lat="43.42678" lon="16.9005">
        <ele>233.031</ele>
        <time>2018-10-05T07:03:52Z</time>
      </trkpt>
      <trkpt lat="43.42674" lon="16.90046">
        <ele>234.061</ele>
        <time>2018-10-05T07:04:12Z</time>
      </trkpt>
      <trkpt lat="43.42655" lon="16.90055">
        <ele>233.007</ele>
        <time>2018-10-05T07:04:32Z</time>
      </trkpt>
      <trkpt lat="43.42643" lon="16.90061">
        <ele>232.008</ele>
        <time>2018-10-05T07:04:52Z</time>
      </trkpt>
      <trkpt lat="43.42621" lon="16.9006">
        <ele>231.095</ele>
        <time>2018-10-05T07:05:12Z</time>
      </trkpt>
      <trkpt lat="43.42602" lon="16.90056">
        <ele>231.082</ele>
        <time>2018-10-05T07:05:32Z</time>
      </trkpt>
      <trkpt lat="43.42599" lon="16.90055">
        <ele>232.035</ele>
        <time>2018-10-05T07:05:52Z</time>
      </trkpt>
      <trkpt lat="43.42598" lon="16.90054">
        <ele>232.027</ele>
        <time>2018-10-05T07:06:12Z</time>
      </trkpt>
      <trkpt lat="43.42591" lon="16.90053">
        <ele>233.055</ele>
        <time>2018-10-05T07:06:32Z</time>
      </trkpt>
      <trkpt lat="43.42587" lon="16.90053">
        <ele>234.016</ele>
        <time>2018-10-05T07:06:52Z</time>
      </trkpt>
      <trkpt lat="43.42585" lon="16.90052">
        <ele>235.076</ele>
        <time>2018-10-05T07:07:12Z</time>
      </trkpt>
      <trkpt lat="43.4258" lon="16.90051">
        <ele>235.045</ele>
        <time>2018-10-05T07:07:32Z</time>
      </trkpt>
      <trkpt lat="43.42572" lon="16.90042">
        <ele>237.072</ele>
        <time>2018-10-05T07:07:52Z</time>
      </trkpt>
      <trkpt lat="43.42564" lon="16.90032">
        <ele>238.013</ele>
        <time>2018-10-05T07:08:12Z</time>
      </trkpt>
      <trkpt lat="43.42553" lon="16.90028">
        <ele>239.014</ele>
        <time>2018-10-05T07:08:32Z</time>
      </trkpt>
      <trkpt lat="43.42543" lon="16.90023">
        <ele>240.008</ele>
        <time>2018-10-05T07:08:52Z</time>
      </trkpt>
      <trkpt lat="43.4254" lon="16.90019">
        <ele>240.039</ele>
        <time>2018-10-05T07:09:12Z</time>
      </trkpt>
      <trkpt lat="43.42535" lon="16.90015">
        <ele>240.096</ele>
        <time>2018-10-05T07:09:32Z</time>
      </trkpt>
      <trkpt lat="43.42532" lon="16.90015">
        <ele>240.069</ele>
        <time>2018-10-05T07:09:52Z</time>
      </trkpt>
      <trkpt lat="43.42524" lon="16.90024">
        <ele>241.011</ele>
        <time>2018-10-05T07:10:12Z</time>
      </trkpt>
      <trkpt lat="43.4251" lon="16.90038">
        <ele>240.089</ele>
        <time>2018-10-05T07:10:32Z</time>
      </trkpt>
      <trkpt lat="43.42507" lon="16.9004">
        <ele>240.02</ele>
        <time>2018-10-05T07:10:52Z</time>
      </trkpt>
      <trkpt lat="43.42497" lon="16.90049">
        <ele>239.02</ele>
        <time>2018-10-05T07:11:12Z</time>
      </trkpt>
      <trkpt lat="43.42488" lon="16.9006">
        <ele>239.059</ele>
        <time>2018-10-05T07:11:32Z</time>
      </trkpt>
      <trkpt lat="43.42484" lon="16.90073">
        <ele>239.015</ele>
        <time>2018-10-05T07:11:52Z</time>
      </trkpt>
      <trkpt lat="43.42481" lon="16.90088">
        <ele>240.065</ele>
        <time>2018-10-05T07:12:12Z</time>
      </trkpt>
      <trkpt lat="43.42482" lon="16.90091">
        <ele>240.011</ele>
        <time>2018-10-05T07:12:32Z</time>
      </trkpt>
      <trkpt lat="43.42482" lon="16.90098">
        <ele>240.008</ele>
        <time>2018-10-05T07:12:52Z</time>
      </trkpt>
      <trkpt lat="43.42479" lon="16.90108">
        <ele>240.033</ele>
        <time>2018-10-05T07:13:12Z</time>
      </trkpt>
      <trkpt lat="43.4248" lon="16.90115">
        <ele>240.09</ele>
        <time>2018-10-05T07:13:32Z</time>
      </trkpt>
      <trkpt lat="43.42478" lon="16.90122">
        <ele>239.053</ele>
        <time>2018-10-05T07:13:52Z</time>
      </trkpt>
      <trkpt lat="43.42474" lon="16.90127">
        <ele>238.085</ele>
        <time>2018-10-05T07:14:12Z</time>
      </trkpt>
      <trkpt lat="43.42463" lon="16.90135">
        <ele>239.093</ele>
        <time>2018-10-05T07:14:32Z</time>
      </trkpt>
      <trkpt lat="43.4246" lon="16.90144">
        <ele>239.014</ele>
        <time>2018-10-05T07:14:52Z</time>
      </trkpt>
      <trkpt lat="43.42458" lon="16.90164">
        <ele>237.074</ele>
        <time>2018-10-05T07:15:12Z</time>
      </trkpt>
      <trkpt lat="43.42451" lon="16.90189">
        <ele>237.083</ele>
        <time>2018-10-05T07:15:32Z</time>
      </trkpt>
      <trkpt lat="43.42449" lon="16.90198">
        <ele>238.023</ele>
        <time>2018-10-05T07:15:52Z</time>
      </trkpt>
      <trkpt lat="43.42448" lon="16.90203">
        <ele>238.083</ele>
        <time>2018-10-05T07:16:12Z</time>
      </trkpt>
      <trkpt lat="43.42446" lon="16.90203">
        <ele>238.011</ele>
        <time>2018-10-05T07:16:32Z</time>
      </trkpt>
      <trkpt lat="43.42445" lon="16.90202">
        <ele>238.008</ele>
        <time>2018-10-05T07:16:52Z</time>
      </trkpt>
      <trkpt lat="43.42438" lon="16.902">
        <ele>239.054</ele>
        <time>2018-10-05T07:17:12Z</time>
      </trkpt>
      <trkpt lat="43.42431" lon="16.90193">
        <ele>240.081</ele>
        <time>2018-10-05T07:17:32Z</time>
      </trkpt>
      <trkpt lat="43.42427" lon="16.90185">
        <ele>240.034</ele>
        <time>2018-10-05T07:17:52Z</time>
      </trkpt>
      <trkpt lat="43.42424" lon="16.90181">
        <ele>241.066</ele>
        <time>2018-10-05T07:18:12Z</time>
      </trkpt>
      <trkpt lat="43.42418" lon="16.90177">
        <ele>241.054</ele>
        <time>2018-10-05T07:18:32Z</time>
      </trkpt>
      <trkpt lat="43.42415" lon="16.90176">
        <ele>242.065</ele>
        <time>2018-10-05T07:18:52Z</time>
      </trkpt>
      <trkpt lat="43.42411" lon="16.90175">
        <ele>242.035</ele>
        <time>2018-10-05T07:19:12Z</time>
      </trkpt>
      <trkpt lat="43.42405" lon="16.90178">
        <ele>242.044</ele>
        <time>2018-10-05T07:19:32Z</time>
      </trkpt>
      <trkpt lat="43.42403" lon="16.9018">
        <ele>242.043</ele>
        <time>2018-10-05T07:19:52Z</time>
      </trkpt>
      <trkpt lat="43.424" lon="16.9018">
        <ele>243.064</ele>
        <time>2018-10-05T07:20:12Z</time>
      </trkpt>
      <trkpt lat="43.42398" lon="16.90181">
        <ele>243.01</ele>
        <time>2018-10-05T07:20:32Z</time>
      </trkpt>
      <trkpt lat="43.42395" lon="16.90183">
        <ele>244.008</ele>
        <time>2018-10-05T07:20:52Z</time>
      </trkpt>
      <trkpt lat="43.42389" lon="16.90186">
        <ele>245.026</ele>
        <time>2018-10-05T07:21:12Z</time>
      </trkpt>
      <trkpt lat="43.42388" lon="16.90186">
        <ele>245.083</ele>
        <time>2018-10-05T07:21:32Z</time>
      </trkpt>
      <trkpt lat="43.42382" lon="16.9019">
        <ele>246.036</ele>
        <time>2018-10-05T07:21:52Z</time>
      </trkpt>
      <trkpt lat="43.4238" lon="16.90193">
        <ele>246.048</ele>
        <time>2018-10-05T07:22:12Z</time>
      </trkpt>
      <trkpt lat="43.42375" lon="16.90197">
        <ele>247.046</ele>
        <time>2018-10-05T07:22:32Z</time>
      </trkpt>
      <trkpt lat="43.42372" lon="16.90198">
        <ele>248.077</ele>
        <time>2018-10-05T07:22:52Z</time>
      </trkpt>
      <trkpt lat="43.42368" lon="16.90203">
        <ele>249.097</ele>
        <time>2018-10-05T07:23:12Z</time>
      </trkpt>
      <trkpt lat="43.42362" lon="16.90214">
        <ele>250.096</ele>
        <time>2018-10-05T07:23:32Z</time>
      </trkpt>
      <trkpt lat="43.42361" lon="16.90216">
        <ele>250.017</ele>
        <time>2018-10-05T07:23:52Z</time>
      </trkpt>
      <trkpt lat="43.42356" lon="16.90221">
        <ele>250.087</ele>
        <time>2018-10-05T07:24:12Z</time>
      </trkpt>
      <trkpt lat="43.42354" lon="16.90225">
        <ele>251.015</ele>
        <time>2018-10-05T07:24:32Z</time>
      </trkpt>
      <trkpt lat="43.42351" lon="16.90231">
        <ele>251.008</ele>
        <time>2018-10-05T07:24:52Z</time>
      </trkpt>
      <trkpt lat="43.42348" lon="16.90237">
        <ele>251.093</ele>
        <time>2018-10-05T07:25:12Z</time>
      </trkpt>
      <trkpt lat="43.42347" lon="16.90243">
        <ele>251.06</ele>
        <time>2018-10-05T07:25:32Z</time>
      </trkpt>
      <trkpt lat="43.42338" lon="16.90254">
        <ele>251.063</ele>
        <time>2018-10-05T07:25:52Z</time>
      </trkpt>
      <trkpt lat="43.42332" lon="16.90257">
        <ele>251.055</ele>
        <time>2018-10-05T07:26:12Z</time>
      </trkpt>
      <trkpt lat="43.42327" lon="16.90265">
        <ele>252.023</ele>
        <time>2018-10-05T07:26:32Z</time>
      </trkpt>
      <trkpt lat="43.42327" lon="16.90266">
        <ele>252.084</ele>
        <time>2018-10-05T07:26:52Z</time>
      </trkpt>
      <trkpt lat="43.42324" lon="16.90275">
        <ele>251.064</ele>
        <time>2018-10-05T07:27:12Z</time>
      </trkpt>
      <trkpt lat="43.4232" lon="16.90283">
        <ele>251.013</ele>
        <time>2018-10-05T07:27:32Z</time>
      </trkpt>
      <trkpt lat="43.42314" lon="16.90288">
        <ele>251.062</ele>
        <time>2018-10-05T07:27:52Z</time>
      </trkpt>
      <trkpt lat="43.42306" lon="16.90297">
        <ele>252.083</ele>
        <time>2018-10-05T07:28:12Z</time>
      </trkpt>
      <trkpt lat="43.42299" lon="16.90308">
        <ele>251.011</ele>
        <time>2018-10-05T07:28:32Z</time>
      </trkpt>
      <trkpt lat="43.42295" lon="16.90316">
        <ele>251.008</ele>
        <time>2018-10-05T07:28:52Z</time>
      </trkpt>
      <trkpt lat="43.42292" lon="16.90319">
        <ele>251.078</ele>
        <time>2018-10-05T07:29:12Z</time>
      </trkpt>
      <trkpt lat="43.42275" lon="16.90332">
        <ele>251.015</ele>
        <time>2018-10-05T07:29:32Z</time>
      </trkpt>
      <trkpt lat="43.42273" lon="16.90334">
        <ele>252.068</ele>
        <time>2018-10-05T07:29:52Z</time>
      </trkpt>
      <trkpt lat="43.4227" lon="16.90338">
        <ele>252.02</ele>
        <time>2018-10-05T07:30:12Z</time>
      </trkpt>
      <trkpt lat="43.42266" lon="16.90343">
        <ele>253.078</ele>
        <time>2018-10-05T07:30:32Z</time>
      </trkpt>
      <trkpt lat="43.42263" lon="16.90351">
        <ele>254.049</ele>
        <time>2018-10-05T07:30:52Z</time>
      </trkpt>
      <trkpt lat="43.42255" lon="16.90363">
        <ele>252.039</ele>
        <time>2018-10-05T07:31:12Z</time>
      </trkpt>
      <trkpt lat="43.42249" lon="16.90367">
        <ele>252.048</ele>
        <time>2018-10-05T07:31:32Z</time>
      </trkpt>
      <trkpt lat="43.42244" lon="16.9037">
        <ele>253.074</ele>
        <time>2018-10-05T07:31:52Z</time>
      </trkpt>
      <trkpt lat="43.4224" lon="16.90372">
        <ele>254.056</ele>
        <time>2018-10-05T07:32:12Z</time>
      </trkpt>
      <trkpt lat="43.42236" lon="16.90378">
        <ele>255.021</ele>
        <time>2018-10-05T07:32:32Z</time>
      </trkpt>
      <trkpt lat="43.42234" lon="16.90384">
        <ele>255.008</ele>
        <time>2018-10-05T07:32:52Z</time>
      </trkpt>
      <trkpt lat="43.4223" lon="16.90391">
        <ele>255.059</ele>
        <time>2018-10-05T07:33:12Z</time>
      </trkpt>
      <trkpt lat="43.42224" lon="16.90394">
        <ele>254.096</ele>
        <time>2018-10-05T07:33:32Z</time>
      </trkpt>
      <trkpt lat="43.4222" lon="16.90397">
        <ele>254.029</ele>
        <time>2018-10-05T07:33:52Z</time>
      </trkpt>
      <trkpt lat="43.42215" lon="16.90404">
        <ele>254.081</ele>
        <time>2018-10-05T07:34:12Z</time>
      </trkpt>
      <trkpt lat="43.42211" lon="16.90412">
        <ele>254.089</ele>
        <time>2018-10-05T07:34:32Z</time>
      </trkpt>
      <trkpt lat="43.42206" lon="16.90421">
        <ele>255.05</ele>
        <time>2018-10-05T07:34:52Z</time>
      </trkpt>
      <trkpt lat="43.42204" lon="16.90424">
        <ele>255.01</ele>
        <time>2018-10-05T07:35:12Z</time>
      </trkpt>
      <trkpt lat="43.42202" lon="16.90425">
        <ele>255.049</ele>
        <time>2018-10-05T07:35:32Z</time>
      </trkpt>
      <trkpt lat="43.422" lon="16.90428">
        <ele>255.011</ele>
        <time>2018-10-05T07:35:52Z</time>
      </trkpt>
      <trkpt lat="43.42197" lon="16.9043">
        <ele>255.021</ele>
        <time>2018-10-05T07:36:12Z</time>
      </trkpt>
      <trkpt lat="43.42191" lon="16.90432">
        <ele>256.003</ele>
        <time>2018-10-05T07:36:32Z</time>
      </trkpt>
      <trkpt lat="43.42189" lon="16.90434">
        <ele>257.008</ele>
        <time>2018-10-05T07:36:52Z</time>
      </trkpt>
      <trkpt lat="43.42184" lon="16.90438">
        <ele>257.023</ele>
        <time>2018-10-05T07:37:12Z</time>
      </trkpt>
      <trkpt lat="43.42181" lon="16.90443">
        <ele>257.08</ele>
        <time>2018-10-05T07:37:32Z</time>
      </trkpt>
      <trkpt lat="43.42176" lon="16.90451">
        <ele>257.023</ele>
        <time>2018-10-05T07:37:52Z</time>
      </trkpt>
      <trkpt lat="43.42169" lon="16.90458">
        <ele>258.015</ele>
        <time>2018-10-05T07:38:12Z</time>
      </trkpt>
      <trkpt lat="43.42165" lon="16.90462">
        <ele>258.033</ele>
        <time>2018-10-05T07:38:32Z</time>
      </trkpt>
      <trkpt lat="43.42163" lon="16.90462">
        <ele>259.074</ele>
        <time>2018-10-05T07:38:52Z</time>
      </trkpt>
      <trkpt lat="43.4216" lon="16.90462">
        <ele>259.084</ele>
        <time>2018-10-05T07:39:12Z</time>
      </trkpt>
      <trkpt lat="43.42158" lon="16.90463">
        <ele>260.053</ele>
        <time>2018-10-05T07:39:32Z</time>
      </trkpt>
      <trkpt lat="43.42152" lon="16.90465">
        <ele>261.078</ele>
        <time>2018-10-05T07:39:52Z</time>
      </trkpt>
      <trkpt lat="43.42148" lon="16.90467">
        <ele>262.033</ele>
        <time>2018-10-05T07:40:12Z</time>
      </trkpt>
      <trkpt lat="43.4214" lon="16.9047">
        <ele>264.026</ele>
        <time>2018-10-05T07:40:32Z</time>
      </trkpt>
      <trkpt lat="43.42139" lon="16.90471">
        <ele>265.008</ele>
        <time>2018-10-05T07:40:52Z</time>
      </trkpt>
      <trkpt lat="43.42135" lon="16.90471">
        <ele>266.099</ele>
        <time>2018-10-05T07:41:12Z</time>
      </trkpt>
      <trkpt lat="43.42131" lon="16.90474">
        <ele>267.036</ele>
        <time>2018-10-05T07:41:32Z</time>
      </trkpt>
      <trkpt lat="43.42127" lon="16.90475">
        <ele>268.019</ele>
        <time>2018-10-05T07:41:52Z</time>
      </trkpt>
      <trkpt lat="43.42122" lon="16.90478">
        <ele>269.061</ele>
        <time>2018-10-05T07:42:12Z</time>
      </trkpt>
      <trkpt lat="43.42117" lon="16.90482">
        <ele>270.059</ele>
        <time>2018-10-05T07:42:32Z</time>
      </trkpt>
      <trkpt lat="43.42115" lon="16.90483">
        <ele>271.02</ele>
        <time>2018-10-05T07:42:52Z</time>
      </trkpt>
      <trkpt lat="43.42111" lon="16.90486">
        <ele>273.06</ele>
        <time>2018-10-05T07:43:12Z</time>
      </trkpt>
      <trkpt lat="43.42106" lon="16.90491">
        <ele>275.079</ele>
        <time>2018-10-05T07:43:32Z</time>
      </trkpt>
      <trkpt lat="43.42103" lon="16.90491">
        <ele>276.059</ele>
        <time>2018-10-05T07:43:52Z</time>
      </trkpt>
      <trkpt lat="43.42098" lon="16.9049">
        <ele>278.003</ele>
        <time>2018-10-05T07:44:12Z</time>
      </trkpt>
      <trkpt lat="43.42094" lon="16.90492">
        <ele>278.023</ele>
        <time>2018-10-05T07:44:32Z</time>
      </trkpt>
      <trkpt lat="43.42091" lon="16.90493">
        <ele>279.008</ele>
        <time>2018-10-05T07:44:52Z</time>
      </trkpt>
      <trkpt lat="43.42085" lon="16.90497">
        <ele>280.027</ele>
        <time>2018-10-05T07:45:12Z</time>
      </trkpt>
      <trkpt lat="43.42084" lon="16.90498">
        <ele>280.094</ele>
        <time>2018-10-05T07:45:32Z</time>
      </trkpt>
      <trkpt lat="43.42083" lon="16.90498">
        <ele>281.067</ele>
        <time>2018-10-05T07:45:52Z</time>
      </trkpt>
      <trkpt lat="43.42079" lon="16.90498">
        <ele>283.059</ele>
        <time>2018-10-05T07:46:12Z</time>
      </trkpt>
      <trkpt lat="43.42076" lon="16.90498">
        <ele>284.057</ele>
        <time>2018-10-05T07:46:32Z</time>
      </trkpt>
      <trkpt lat="43.4207" lon="16.90497">
        <ele>286.078</ele>
        <time>2018-10-05T07:46:52Z</time>
      </trkpt>
      <trkpt lat="43.42065" lon="16.90497">
        <ele>287.098</ele>
        <time>2018-10-05T07:47:12Z</time>
      </trkpt>
      <trkpt lat="43.42062" lon="16.90496">
        <ele>288.047</ele>
        <time>2018-10-05T07:47:32Z</time>
      </trkpt>
      <trkpt lat="43.42051" lon="16.905">
        <ele>291.071</ele>
        <time>2018-10-05T07:47:52Z</time>
      </trkpt>
      <trkpt lat="43.42045" lon="16.90505">
        <ele>292.041</ele>
        <time>2018-10-05T07:48:12Z</time>
      </trkpt>
      <trkpt lat="43.42042" lon="16.90506">
        <ele>293.015</ele>
        <time>2018-10-05T07:48:32Z</time>
      </trkpt>
      <trkpt lat="43.4204" lon="16.90508">
        <ele>294.008</ele>
        <time>2018-10-05T07:48:52Z</time>
      </trkpt>
      <trkpt lat="43.42032" lon="16.90512">
        <ele>296.079</ele>
        <time>2018-10-05T07:49:12Z</time>
      </trkpt>
      <trkpt lat="43.42028" lon="16.90516">
        <ele>297.086</ele>
        <time>2018-10-05T07:49:32Z</time>
      </trkpt>
      <trkpt lat="43.42021" lon="16.90526">
        <ele>298.049</ele>
        <time>2018-10-05T07:49:52Z</time>
      </trkpt>
      <trkpt lat="43.42016" lon="16.90529">
        <ele>298.011</ele>
        <time>2018-10-05T07:50:12Z</time>
      </trkpt>
      <trkpt lat="43.42012" lon="16.9053">
        <ele>299.029</ele>
        <time>2018-10-05T07:50:32Z</time>
      </trkpt>
      <trkpt lat="43.42006" lon="16.90536">
        <ele>301.08</ele>
        <time>2018-10-05T07:50:52Z</time>
      </trkpt>
      <trkpt lat="43.42005" lon="16.90537">
        <ele>301.05</ele>
        <time>2018-10-05T07:51:12Z</time>
      </trkpt>
      <trkpt lat="43.41991" lon="16.90552">
        <ele>301.089</ele>
        <time>2018-10-05T07:51:32Z</time>
      </trkpt>
      <trkpt lat="43.41989" lon="16.90554">
        <ele>301.049</ele>
        <time>2018-10-05T07:51:52Z</time>
      </trkpt>
      <trkpt lat="43.4198" lon="16.90557">
        <ele>301.002</ele>
        <time>2018-10-05T07:52:12Z</time>
      </trkpt>
      <trkpt lat="43.41971" lon="16.90564">
        <ele>301.022</ele>
        <time>2018-10-05T07:52:32Z</time>
      </trkpt>
      <trkpt lat="43.41966" lon="16.90569">
        <ele>301.008</ele>
        <time>2018-10-05T07:52:52Z</time>
      </trkpt>
      <trkpt lat="43.41962" lon="16.90573">
        <ele>301.046</ele>
        <time>2018-10-05T07:53:12Z</time>
      </trkpt>
      <trkpt lat="43.41949" lon="16.90579">
        <ele>302.063</ele>
        <time>2018-10-05T07:53:32Z</time>
      </trkpt>
      <trkpt lat="43.41944" lon="16.9058">
        <ele>302.036</ele>
        <time>2018-10-05T07:53:52Z</time>
      </trkpt>
      <trkpt lat="43.41934" lon="16.90585">
        <ele>304.078</ele>
        <time>2018-10-05T07:54:12Z</time>
      </trkpt>
      <trkpt lat="43.4193" lon="16.90588">
        <ele>305.096</ele>
        <time>2018-10-05T07:54:32Z</time>
      </trkpt>
      <trkpt lat="43.41921" lon="16.90593">
        <ele>305.057</ele>
        <time>2018-10-05T07:54:52Z</time>
      </trkpt>
      <trkpt lat="43.41916" lon="16.90595">
        <ele>306.097</ele>
        <time>2018-10-05T07:55:12Z</time>
      </trkpt>
      <trkpt lat="43.41908" lon="16.90598">
        <ele>307.076</ele>
        <time>2018-10-05T07:55:32Z</time>
      </trkpt>
      <trkpt lat="43.41907" lon="16.90599">
        <ele>307.025</ele>
        <time>2018-10-05T07:55:52Z</time>
      </trkpt>
      <trkpt lat="43.41905" lon="16.906">
        <ele>308.026</ele>
        <time>2018-10-05T07:56:12Z</time>
      </trkpt>
      <trkpt lat="43.41902" lon="16.90604">
        <ele>309.008</ele>
        <time>2018-10-05T07:56:32Z</time>
      </trkpt>
      <trkpt lat="43.41895" lon="16.90609">
        <ele>310.008</ele>
        <time>2018-10-05T07:56:52Z</time>
      </trkpt>
      <trkpt lat="43.41894" lon="16.9061">
        <ele>310.014</ele>
        <time>2018-10-05T07:57:12Z</time>
      </trkpt>
      <trkpt lat="43.41892" lon="16.9061">
        <ele>310.051</ele>
        <time>2018-10-05T07:57:32Z</time>
      </trkpt>
      <trkpt lat="43.4189" lon="16.90609">
        <ele>311.074</ele>
        <time>2018-10-05T07:57:52Z</time>
      </trkpt>
      <trkpt lat="43.41887" lon="16.90609">
        <ele>312.086</ele>
        <time>2018-10-05T07:58:12Z</time>
      </trkpt>
      <trkpt lat="43.41883" lon="16.90609">
        <ele>313.034</ele>
        <time>2018-10-05T07:58:32Z</time>
      </trkpt>
      <trkpt lat="43.41879" lon="16.9061">
        <ele>314.055</ele>
        <time>2018-10-05T07:58:52Z</time>
      </trkpt>
      <trkpt lat="43.41876" lon="16.90612">
        <ele>315.055</ele>
        <time>2018-10-05T07:59:12Z</time>
      </trkpt>
      <trkpt lat="43.41871" lon="16.90608">
        <ele>318.064</ele>
        <time>2018-10-05T07:59:32Z</time>
      </trkpt>
      <trkpt lat="43.41871" lon="16.90602">
        <ele>320.097</ele>
        <time>2018-10-05T07:59:52Z</time>
      </trkpt>
      <trkpt lat="43.41871" lon="16.90596">
        <ele>321.023</ele>
        <time>2018-10-05T08:00:12Z</time>
      </trkpt>
      <trkpt lat="43.41865" lon="16.90592">
        <ele>323.025</ele>
        <time>2018-10-05T08:00:32Z</time>
      </trkpt>
      <trkpt lat="43.4186" lon="16.90591">
        <ele>324.008</ele>
        <time>2018-10-05T08:00:52Z</time>
      </trkpt>
      <trkpt lat="43.41855" lon="16.90588">
        <ele>326.051</ele>
        <time>2018-10-05T08:01:12Z</time>
      </trkpt>
      <trkpt lat="43.4185" lon="16.90583">
        <ele>325.048</ele>
        <time>2018-10-05T08:01:32Z</time>
      </trkpt>
      <trkpt lat="43.41848" lon="16.90586">
        <ele>325.041</ele>
        <time>2018-10-05T08:01:52Z</time>
      </trkpt>
      <trkpt lat="43.41846" lon="16.90587">
        <ele>324.063</ele>
        <time>2018-10-05T08:02:12Z</time>
      </trkpt>
      <trkpt lat="43.41844" lon="16.90585">
        <ele>324.021</ele>
        <time>2018-10-05T08:02:32Z</time>
      </trkpt>
      <trkpt lat="43.41841" lon="16.90581">
        <ele>322.012</ele>
        <time>2018-10-05T08:02:52Z</time>
      </trkpt>
      <trkpt lat="43.4184" lon="16.9058">
        <ele>321.012</ele>
        <time>2018-10-05T08:03:12Z</time>
      </trkpt>
      <trkpt lat="43.41836" lon="16.90588">
        <ele>319.081</ele>
        <time>2018-10-05T08:03:32Z</time>
      </trkpt>
      <trkpt lat="43.41835" lon="16.90591">
        <ele>318.098</ele>
        <time>2018-10-05T08:03:52Z</time>
      </trkpt>
      <trkpt lat="43.41833" lon="16.90612">
        <ele>319.015</ele>
        <time>2018-10-05T08:04:12Z</time>
      </trkpt>
      <trkpt lat="43.4183" lon="16.90621">
        <ele>321.026</ele>
        <time>2018-10-05T08:04:32Z</time>
      </trkpt>
      <trkpt lat="43.4183" lon="16.90624">
        <ele>321.008</ele>
        <time>2018-10-05T08:04:52Z</time>
      </trkpt>
      <trkpt lat="43.41823" lon="16.90638">
        <ele>322.051</ele>
        <time>2018-10-05T08:05:12Z</time>
      </trkpt>
      <trkpt lat="43.41822" lon="16.90639">
        <ele>322.038</ele>
        <time>2018-10-05T08:05:32Z</time>
      </trkpt>
      <trkpt lat="43.41816" lon="16.90655">
        <ele>324.081</ele>
        <time>2018-10-05T08:05:52Z</time>
      </trkpt>
      <trkpt lat="43.41814" lon="16.90664">
        <ele>324.023</ele>
        <time>2018-10-05T08:06:12Z</time>
      </trkpt>
      <trkpt lat="43.41814" lon="16.90669">
        <ele>325.041</ele>
        <time>2018-10-05T08:06:32Z</time>
      </trkpt>
      <trkpt lat="43.41814" lon="16.90673">
        <ele>325.052</ele>
        <time>2018-10-05T08:06:52Z</time>
      </trkpt>
      <trkpt lat="43.41814" lon="16.90677">
        <ele>326.012</ele>
        <time>2018-10-05T08:07:12Z</time>
      </trkpt>
      <trkpt lat="43.41813" lon="16.90684">
        <ele>328.051</ele>
        <time>2018-10-05T08:07:32Z</time>
      </trkpt>
      <trkpt lat="43.41812" lon="16.90689">
        <ele>328.093</ele>
        <time>2018-10-05T08:07:52Z</time>
      </trkpt>
      <trkpt lat="43.4181" lon="16.90693">
        <ele>329.065</ele>
        <time>2018-10-05T08:08:12Z</time>
      </trkpt>
      <trkpt lat="43.41807" lon="16.907">
        <ele>329.021</ele>
        <time>2018-10-05T08:08:32Z</time>
      </trkpt>
      <trkpt lat="43.41805" lon="16.90708">
        <ele>329.008</ele>
        <time>2018-10-05T08:08:52Z</time>
      </trkpt>
      <trkpt lat="43.41804" lon="16.9072">
        <ele>330.041</ele>
        <time>2018-10-05T08:09:12Z</time>
      </trkpt>
      <trkpt lat="43.41805" lon="16.90728">
        <ele>331.068</ele>
        <time>2018-10-05T08:09:32Z</time>
      </trkpt>
      <trkpt lat="43.41809" lon="16.90744">
        <ele>331.051</ele>
        <time>2018-10-05T08:09:52Z</time>
      </trkpt>
      <trkpt lat="43.41811" lon="16.90756">
        <ele>331.013</ele>
        <time>2018-10-05T08:10:12Z</time>
      </trkpt>
      <trkpt lat="43.41814" lon="16.90772">
        <ele>331.021</ele>
        <time>2018-10-05T08:10:32Z</time>
      </trkpt>
      <trkpt lat="43.41816" lon="16.9078">
        <ele>331.082</ele>
        <time>2018-10-05T08:10:52Z</time>
      </trkpt>
      <trkpt lat="43.41817" lon="16.90798">
        <ele>331.052</ele>
        <time>2018-10-05T08:11:12Z</time>
      </trkpt>
      <trkpt lat="43.41821" lon="16.90815">
        <ele>331.031</ele>
        <time>2018-10-05T08:11:32Z</time>
      </trkpt>
      <trkpt lat="43.41821" lon="16.90822">
        <ele>332.091</ele>
        <time>2018-10-05T08:11:52Z</time>
      </trkpt>
      <trkpt lat="43.41822" lon="16.90826">
        <ele>332.081</ele>
        <time>2018-10-05T08:12:12Z</time>
      </trkpt>
      <trkpt lat="43.41832" lon="16.90836">
        <ele>331.019</ele>
        <time>2018-10-05T08:12:32Z</time>
      </trkpt>
      <trkpt lat="43.41835" lon="16.90845">
        <ele>330.008</ele>
        <time>2018-10-05T08:12:52Z</time>
      </trkpt>
      <trkpt lat="43.41839" lon="16.9085">
        <ele>329.041</ele>
        <time>2018-10-05T08:13:12Z</time>
      </trkpt>
      <trkpt lat="43.41843" lon="16.90876">
        <ele>329.048</ele>
        <time>2018-10-05T08:13:32Z</time>
      </trkpt>
      <trkpt lat="43.41844" lon="16.90886">
        <ele>328.051</ele>
        <time>2018-10-05T08:13:52Z</time>
      </trkpt>
      <trkpt lat="43.41843" lon="16.9089">
        <ele>329.073</ele>
        <time>2018-10-05T08:14:12Z</time>
      </trkpt>
      <trkpt lat="43.41852" lon="16.90908">
        <ele>329.091</ele>
        <time>2018-10-05T08:14:32Z</time>
      </trkpt>
      <trkpt lat="43.41857" lon="16.90922">
        <ele>328.042</ele>
        <time>2018-10-05T08:14:52Z</time>
      </trkpt>
      <trkpt lat="43.41858" lon="16.90926">
        <ele>327.062</ele>
        <time>2018-10-05T08:15:12Z</time>
      </trkpt>
      <trkpt lat="43.41864" lon="16.90945">
        <ele>326.071</ele>
        <time>2018-10-05T08:15:32Z</time>
      </trkpt>
      <trkpt lat="43.41864" lon="16.9095">
        <ele>326.054</ele>
        <time>2018-10-05T08:15:52Z</time>
      </trkpt>
      <trkpt lat="43.41864" lon="16.90959">
        <ele>324.056</ele>
        <time>2018-10-05T08:16:12Z</time>
      </trkpt>
      <trkpt lat="43.4187" lon="16.90969">
        <ele>324.011</ele>
        <time>2018-10-05T08:16:32Z</time>
      </trkpt>
      <trkpt lat="43.41872" lon="16.90975">
        <ele>323.008</ele>
        <time>2018-10-05T08:16:52Z</time>
      </trkpt>
      <trkpt lat="43.41876" lon="16.90989">
        <ele>323.027</ele>
        <time>2018-10-05T08:17:12Z</time>
      </trkpt>
      <trkpt lat="43.41876" lon="16.90994">
        <ele>322.014</ele>
        <time>2018-10-05T08:17:32Z</time>
      </trkpt>
      <trkpt lat="43.41877" lon="16.90997">
        <ele>321.017</ele>
        <time>2018-10-05T08:17:52Z</time>
      </trkpt>
      <trkpt lat="43.41879" lon="16.91">
        <ele>320.089</ele>
        <time>2018-10-05T08:18:12Z</time>
      </trkpt>
      <trkpt lat="43.41885" lon="16.91007">
        <ele>319.037</ele>
        <time>2018-10-05T08:18:32Z</time>
      </trkpt>
      <trkpt lat="43.41886" lon="16.91018">
        <ele>318.058</ele>
        <time>2018-10-05T08:18:52Z</time>
      </trkpt>
      <trkpt lat="43.41891" lon="16.91037">
        <ele>319.078</ele>
        <time>2018-10-05T08:19:12Z</time>
      </trkpt>
      <trkpt lat="43.41893" lon="16.91048">
        <ele>319.017</ele>
        <time>2018-10-05T08:19:32Z</time>
      </trkpt>
      <trkpt lat="43.41898" lon="16.91059">
        <ele>319.044</ele>
        <time>2018-10-05T08:19:52Z</time>
      </trkpt>
      <trkpt lat="43.41899" lon="16.91065">
        <ele>318.005</ele>
        <time>2018-10-05T08:20:12Z</time>
      </trkpt>
      <trkpt lat="43.419" lon="16.9107">
        <ele>318.015</ele>
        <time>2018-10-05T08:20:32Z</time>
      </trkpt>
      <trkpt lat="43.41905" lon="16.91089">
        <ele>317.008</ele>
        <time>2018-10-05T08:20:52Z</time>
      </trkpt>
      <trkpt lat="43.41912" lon="16.91098">
        <ele>317.046</ele>
        <time>2018-10-05T08:21:12Z</time>
      </trkpt>
      <trkpt lat="43.41915" lon="16.91105">
        <ele>316.053</ele>
        <time>2018-10-05T08:21:32Z</time>
      </trkpt>
      <trkpt lat="43.41915" lon="16.9111">
        <ele>315.016</ele>
        <time>2018-10-05T08:21:52Z</time>
      </trkpt>
      <trkpt lat="43.41919" lon="16.91118">
        <ele>314.078</ele>
        <time>2018-10-05T08:22:12Z</time>
      </trkpt>
      <trkpt lat="43.41922" lon="16.91122">
        <ele>313.026</ele>
        <time>2018-10-05T08:22:32Z</time>
      </trkpt>
      <trkpt lat="43.41925" lon="16.91125">
        <ele>311.067</ele>
        <time>2018-10-05T08:22:52Z</time>
      </trkpt>
      <trkpt lat="43.41928" lon="16.91134">
        <ele>310.027</ele>
        <time>2018-10-05T08:23:12Z</time>
      </trkpt>
      <trkpt lat="43.41931" lon="16.91147">
        <ele>309.016</ele>
        <time>2018-10-05T08:23:32Z</time>
      </trkpt>
      <trkpt lat="43.41931" lon="16.91156">
        <ele>308.022</ele>
        <time>2018-10-05T08:23:52Z</time>
      </trkpt>
      <trkpt lat="43.41931" lon="16.91166">
        <ele>308.062</ele>
        <time>2018-10-05T08:24:12Z</time>
      </trkpt>
      <trkpt lat="43.41932" lon="16.9117">
        <ele>308.008</ele>
        <time>2018-10-05T08:24:32Z</time>
      </trkpt>
      <trkpt lat="43.4193" lon="16.9118">
        <ele>308.008</ele>
        <time>2018-10-05T08:24:52Z</time>
      </trkpt>
      <trkpt lat="43.41932" lon="16.912">
        <ele>309.054</ele>
        <time>2018-10-05T08:25:12Z</time>
      </trkpt>
      <trkpt lat="43.41932" lon="16.91202">
        <ele>309.081</ele>
        <time>2018-10-05T08:25:32Z</time>
      </trkpt>
      <trkpt lat="43.41928" lon="16.9121">
        <ele>309.064</ele>
        <time>2018-10-05T08:25:52Z</time>
      </trkpt>
      <trkpt lat="43.41923" lon="16.9122">
        <ele>307.026</ele>
        <time>2018-10-05T08:26:12Z</time>
      </trkpt>
      <trkpt lat="43.4192" lon="16.91225">
        <ele>306.094</ele>
        <time>2018-10-05T08:26:32Z</time>
      </trkpt>
      <trkpt lat="43.41914" lon="16.91232">
        <ele>304.025</ele>
        <time>2018-10-05T08:26:52Z</time>
      </trkpt>
      <trkpt lat="43.41908" lon="16.91238">
        <ele>303.025</ele>
        <time>2018-10-05T08:27:12Z</time>
      </trkpt>
      <trkpt lat="43.41903" lon="16.91241">
        <ele>302.094</ele>
        <time>2018-10-05T08:27:32Z</time>
      </trkpt>
      <trkpt lat="43.419" lon="16.91243">
        <ele>302.029</ele>
        <time>2018-10-05T08:27:52Z</time>
      </trkpt>
      <trkpt lat="43.41896" lon="16.91246">
        <ele>301</ele>
        <time>2018-10-05T08:28:12Z</time>
      </trkpt>
      <trkpt lat="43.41891" lon="16.91246">
        <ele>301.02</ele>
        <time>2018-10-05T08:28:32Z</time>
      </trkpt>
      <trkpt lat="43.41886" lon="16.91248">
        <ele>301.008</ele>
        <time>2018-10-05T08:28:52Z</time>
      </trkpt>
      <trkpt lat="43.41882" lon="16.9125">
        <ele>301.064</ele>
        <time>2018-10-05T08:29:12Z</time>
      </trkpt>
      <trkpt lat="43.41875" lon="16.91253">
        <ele>300.031</ele>
        <time>2018-10-05T08:29:32Z</time>
      </trkpt>
      <trkpt lat="43.41864" lon="16.91256">
        <ele>299.014</ele>
        <time>2018-10-05T08:29:52Z</time>
      </trkpt>
      <trkpt lat="43.41858" lon="16.91259">
        <ele>298.076</ele>
        <time>2018-10-05T08:30:12Z</time>
      </trkpt>
      <trkpt lat="43.41854" lon="16.91261">
        <ele>297.014</ele>
        <time>2018-10-05T08:30:32Z</time>
      </trkpt>
      <trkpt lat="43.41851" lon="16.91262">
        <ele>297.015</ele>
        <time>2018-10-05T08:30:52Z</time>
      </trkpt>
      <trkpt lat="43.41845" lon="16.91265">
        <ele>296.075</ele>
        <time>2018-10-05T08:31:12Z</time>
      </trkpt>
      <trkpt lat="43.41839" lon="16.9127">
        <ele>295.054</ele>
        <time>2018-10-05T08:31:32Z</time>
      </trkpt>
      <trkpt lat="43.41836" lon="16.91273">
        <ele>294.017</ele>
        <time>2018-10-05T08:31:52Z</time>
      </trkpt>
      <trkpt lat="43.41831" lon="16.91276">
        <ele>293.087</ele>
        <time>2018-10-05T08:32:12Z</time>
      </trkpt>
      <trkpt lat="43.41828" lon="16.91279">
        <ele>292.015</ele>
        <time>2018-10-05T08:32:32Z</time>
      </trkpt>
      <trkpt lat="43.4182" lon="16.91288">
        <ele>291.008</ele>
        <time>2018-10-05T08:32:52Z</time>
      </trkpt>
      <trkpt lat="43.41816" lon="16.91291">
        <ele>290.043</ele>
        <time>2018-10-05T08:33:12Z</time>
      </trkpt>
      <trkpt lat="43.41813" lon="16.91294">
        <ele>290.02</ele>
        <time>2018-10-05T08:33:32Z</time>
      </trkpt>
      <trkpt lat="43.41809" lon="16.91298">
        <ele>290.023</ele>
        <time>2018-10-05T08:33:52Z</time>
      </trkpt>
      <trkpt lat="43.41805" lon="16.91311">
        <ele>289.095</ele>
        <time>2018-10-05T08:34:12Z</time>
      </trkpt>
      <trkpt lat="43.41802" lon="16.91322">
        <ele>289.013</ele>
        <time>2018-10-05T08:34:32Z</time>
      </trkpt>
      <trkpt lat="43.41798" lon="16.91345">
        <ele>287.094</ele>
        <time>2018-10-05T08:34:52Z</time>
      </trkpt>
      <trkpt lat="43.41792" lon="16.9138">
        <ele>287.064</ele>
        <time>2018-10-05T08:35:12Z</time>
      </trkpt>
      <trkpt lat="43.41793" lon="16.91393">
        <ele>286.073</ele>
        <time>2018-10-05T08:35:32Z</time>
      </trkpt>
      <trkpt lat="43.41795" lon="16.91412">
        <ele>285.011</ele>
        <time>2018-10-05T08:35:52Z</time>
      </trkpt>
      <trkpt lat="43.41797" lon="16.91427">
        <ele>284.021</ele>
        <time>2018-10-05T08:36:12Z</time>
      </trkpt>
      <trkpt lat="43.41801" lon="16.91446">
        <ele>283.003</ele>
        <time>2018-10-05T08:36:32Z</time>
      </trkpt>
      <trkpt lat="43.41801" lon="16.91457">
        <ele>282.008</ele>
        <time>2018-10-05T08:36:52Z</time>
      </trkpt>
      <trkpt lat="43.41801" lon="16.91482">
        <ele>282.083</ele>
        <time>2018-10-05T08:37:12Z</time>
      </trkpt>
      <trkpt lat="43.41801" lon="16.91487">
        <ele>282.08</ele>
        <time>2018-10-05T08:37:32Z</time>
      </trkpt>
      <trkpt lat="43.41798" lon="16.9148">
        <ele>283.083</ele>
        <time>2018-10-05T08:37:52Z</time>
      </trkpt>
      <trkpt lat="43.41797" lon="16.91475">
        <ele>284.085</ele>
        <time>2018-10-05T08:38:12Z</time>
      </trkpt>
      <trkpt lat="43.41796" lon="16.91469">
        <ele>285.043</ele>
        <time>2018-10-05T08:38:32Z</time>
      </trkpt>
      <trkpt lat="43.41795" lon="16.91462">
        <ele>285.024</ele>
        <time>2018-10-05T08:38:52Z</time>
      </trkpt>
      <trkpt lat="43.41794" lon="16.91457">
        <ele>286.084</ele>
        <time>2018-10-05T08:39:12Z</time>
      </trkpt>
      <trkpt lat="43.41791" lon="16.91445">
        <ele>288.093</ele>
        <time>2018-10-05T08:39:32Z</time>
      </trkpt>
      <trkpt lat="43.41788" lon="16.91438">
        <ele>289.099</ele>
        <time>2018-10-05T08:39:52Z</time>
      </trkpt>
      <trkpt lat="43.41787" lon="16.91435">
        <ele>289.007</ele>
        <time>2018-10-05T08:40:12Z</time>
      </trkpt>
      <trkpt lat="43.41786" lon="16.91429">
        <ele>290.027</ele>
        <time>2018-10-05T08:40:32Z</time>
      </trkpt>
      <trkpt lat="43.41784" lon="16.91424">
        <ele>291.008</ele>
        <time>2018-10-05T08:40:52Z</time>
      </trkpt>
      <trkpt lat="43.41782" lon="16.91417">
        <ele>292.031</ele>
        <time>2018-10-05T08:41:12Z</time>
      </trkpt>
      <trkpt lat="43.41779" lon="16.91404">
        <ele>294.058</ele>
        <time>2018-10-05T08:41:32Z</time>
      </trkpt>
      <trkpt lat="43.41776" lon="16.91396">
        <ele>296.051</ele>
        <time>2018-10-05T08:41:52Z</time>
      </trkpt>
      <trkpt lat="43.41774" lon="16.91389">
        <ele>297.063</ele>
        <time>2018-10-05T08:42:12Z</time>
      </trkpt>
      <trkpt lat="43.41771" lon="16.91378">
        <ele>299.021</ele>
        <time>2018-10-05T08:42:32Z</time>
      </trkpt>
      <trkpt lat="43.41768" lon="16.91369">
        <ele>300.042</ele>
        <time>2018-10-05T08:42:52Z</time>
      </trkpt>
      <trkpt lat="43.41765" lon="16.91362">
        <ele>301.062</ele>
        <time>2018-10-05T08:43:12Z</time>
      </trkpt>
      <trkpt lat="43.41764" lon="16.9135">
        <ele>303.091</ele>
        <time>2018-10-05T08:43:32Z</time>
      </trkpt>
      <trkpt lat="43.41765" lon="16.91346">
        <ele>303.099</ele>
        <time>2018-10-05T08:43:52Z</time>
      </trkpt>
      <trkpt lat="43.41763" lon="16.91336">
        <ele>305.007</ele>
        <time>2018-10-05T08:44:12Z</time>
      </trkpt>
      <trkpt lat="43.41762" lon="16.91333">
        <ele>305.027</ele>
        <time>2018-10-05T08:44:32Z</time>
      </trkpt>
      <trkpt lat="43.41761" lon="16.91323">
        <ele>307.008</ele>
        <time>2018-10-05T08:44:52Z</time>
      </trkpt>
      <trkpt lat="43.4176" lon="16.91314">
        <ele>308.011</ele>
        <time>2018-10-05T08:45:12Z</time>
      </trkpt>
      <trkpt lat="43.41756" lon="16.91303">
        <ele>309.078</ele>
        <time>2018-10-05T08:45:32Z</time>
      </trkpt>
      <trkpt lat="43.41754" lon="16.91299">
        <ele>310.061</ele>
        <time>2018-10-05T08:45:52Z</time>
      </trkpt>
      <trkpt lat="43.41752" lon="16.91295">
        <ele>310.053</ele>
        <time>2018-10-05T08:46:12Z</time>
      </trkpt>
      <trkpt lat="43.4175" lon="16.91286">
        <ele>312.091</ele>
        <time>2018-10-05T08:46:32Z</time>
      </trkpt>
      <trkpt lat="43.41751" lon="16.91282">
        <ele>312.052</ele>
        <time>2018-10-05T08:46:52Z</time>
      </trkpt>
      <trkpt lat="43.4175" lon="16.91275">
        <ele>313.092</ele>
        <time>2018-10-05T08:47:12Z</time>
      </trkpt>
      <trkpt lat="43.41749" lon="16.91269">
        <ele>314.051</ele>
        <time>2018-10-05T08:47:32Z</time>
      </trkpt>
      <trkpt lat="43.41748" lon="16.91258">
        <ele>316.021</ele>
        <time>2018-10-05T08:47:52Z</time>
      </trkpt>
      <trkpt lat="43.41748" lon="16.91252">
        <ele>317.041</ele>
        <time>2018-10-05T08:48:12Z</time>
      </trkpt>
      <trkpt lat="43.41748" lon="16.91245">
        <ele>318.005</ele>
        <time>2018-10-05T08:48:32Z</time>
      </trkpt>
      <trkpt lat="43.41746" lon="16.91242">
        <ele>318.008</ele>
        <time>2018-10-05T08:48:52Z</time>
      </trkpt>
      <trkpt lat="43.41741" lon="16.91235">
        <ele>319.054</ele>
        <time>2018-10-05T08:49:12Z</time>
      </trkpt>
      <trkpt lat="43.41741" lon="16.91232">
        <ele>319.021</ele>
        <time>2018-10-05T08:49:32Z</time>
      </trkpt>
      <trkpt lat="43.41738" lon="16.91224">
        <ele>319.094</ele>
        <time>2018-10-05T08:49:52Z</time>
      </trkpt>
      <trkpt lat="43.41731" lon="16.91218">
        <ele>320.096</ele>
        <time>2018-10-05T08:50:12Z</time>
      </trkpt>
      <trkpt lat="43.41726" lon="16.91213">
        <ele>320.084</ele>
        <time>2018-10-05T08:50:32Z</time>
      </trkpt>
      <trkpt lat="43.41723" lon="16.9121">
        <ele>321.025</ele>
        <time>2018-10-05T08:50:52Z</time>
      </trkpt>
      <trkpt lat="43.4172" lon="16.91206">
        <ele>322.045</ele>
        <time>2018-10-05T08:51:12Z</time>
      </trkpt>
      <trkpt lat="43.41718" lon="16.91203">
        <ele>323.044</ele>
        <time>2018-10-05T08:51:32Z</time>
      </trkpt>
      <trkpt lat="43.41716" lon="16.912">
        <ele>323.025</ele>
        <time>2018-10-05T08:51:52Z</time>
      </trkpt>
      <trkpt lat="43.41713" lon="16.91195">
        <ele>324.026</ele>
        <time>2018-10-05T08:52:12Z</time>
      </trkpt>
      <trkpt lat="43.4171" lon="16.91191">
        <ele>325.008</ele>
        <time>2018-10-05T08:52:32Z</time>
      </trkpt>
      <trkpt lat="43.41708" lon="16.91189">
        <ele>325.008</ele>
        <time>2018-10-05T08:52:52Z</time>
      </trkpt>
      <trkpt lat="43.41705" lon="16.91183">
        <ele>326.034</ele>
        <time>2018-10-05T08:53:12Z</time>
      </trkpt>
      <trkpt lat="43.417" lon="16.91177">
        <ele>327.081</ele>
        <time>2018-10-05T08:53:32Z</time>
      </trkpt>
      <trkpt lat="43.41697" lon="16.91175">
        <ele>328.024</ele>
        <time>2018-10-05T08:53:52Z</time>
      </trkpt>
      <trkpt lat="43.41694" lon="16.91171">
        <ele>329.046</ele>
        <time>2018-10-05T08:54:12Z</time>
      </trkpt>
      <trkpt lat="43.41691" lon="16.91167">
        <ele>330.064</ele>
        <time>2018-10-05T08:54:32Z</time>
      </trkpt>
      <trkpt lat="43.41691" lon="16.91156">
        <ele>332.045</ele>
        <time>2018-10-05T08:54:52Z</time>
      </trkpt>
      <trkpt lat="43.41691" lon="16.91155">
        <ele>332.055</ele>
        <time>2018-10-05T08:55:12Z</time>
      </trkpt>
      <trkpt lat="43.41688" lon="16.91149">
        <ele>333.024</ele>
        <time>2018-10-05T08:55:32Z</time>
      </trkpt>
      <trkpt lat="43.41683" lon="16.91144">
        <ele>334.015</ele>
        <time>2018-10-05T08:55:52Z</time>
      </trkpt>
      <trkpt lat="43.41679" lon="16.91141">
        <ele>335.065</ele>
        <time>2018-10-05T08:56:12Z</time>
      </trkpt>
      <trkpt lat="43.41679" lon="16.91136">
        <ele>336.011</ele>
        <time>2018-10-05T08:56:32Z</time>
      </trkpt>
      <trkpt lat="43.41679" lon="16.91135">
        <ele>336.008</ele>
        <time>2018-10-05T08:56:52Z</time>
      </trkpt>
      <trkpt lat="43.41678" lon="16.9113">
        <ele>338.033</ele>
        <time>2018-10-05T08:57:12Z</time>
      </trkpt>
      <trkpt lat="43.41679" lon="16.91123">
        <ele>339.09</ele>
        <time>2018-10-05T08:57:32Z</time>
      </trkpt>
      <trkpt lat="43.41681" lon="16.91118">
        <ele>339.013</ele>
        <time>2018-10-05T08:57:52Z</time>
      </trkpt>
      <trkpt lat="43.4168" lon="16.91115">
        <ele>340.015</ele>
        <time>2018-10-05T08:58:12Z</time>
      </trkpt>
      <trkpt lat="43.41677" lon="16.91113">
        <ele>341.073</ele>
        <time>2018-10-05T08:58:32Z</time>
      </trkpt>
      <trkpt lat="43.41674" lon="16.91112">
        <ele>341.064</ele>
        <time>2018-10-05T08:58:52Z</time>
      </trkpt>
      <trkpt lat="43.41672" lon="16.91113">
        <ele>342.034</ele>
        <time>2018-10-05T08:59:12Z</time>
      </trkpt>
      <trkpt lat="43.41667" lon="16.91116">
        <ele>342.043</ele>
        <time>2018-10-05T08:59:32Z</time>
      </trkpt>
      <trkpt lat="43.41665" lon="16.91118">
        <ele>343.068</ele>
        <time>2018-10-05T08:59:52Z</time>
      </trkpt>
      <trkpt lat="43.41659" lon="16.91119">
        <ele>344.042</ele>
        <time>2018-10-05T09:00:12Z</time>
      </trkpt>
      <trkpt lat="43.41655" lon="16.91119">
        <ele>344.026</ele>
        <time>2018-10-05T09:00:32Z</time>
      </trkpt>
      <trkpt lat="43.41645" lon="16.91111">
        <ele>345.008</ele>
        <time>2018-10-05T09:00:52Z</time>
      </trkpt>
      <trkpt lat="43.41641" lon="16.91107">
        <ele>345.078</ele>
        <time>2018-10-05T09:01:12Z</time>
      </trkpt>
      <trkpt lat="43.41632" lon="16.91104">
        <ele>345.075</ele>
        <time>2018-10-05T09:01:32Z</time>
      </trkpt>
      <trkpt lat="43.4163" lon="16.91109">
        <ele>344.078</ele>
        <time>2018-10-05T09:01:52Z</time>
      </trkpt>
      <trkpt lat="43.41629" lon="16.91113">
        <ele>343.03</ele>
        <time>2018-10-05T09:02:12Z</time>
      </trkpt>
      <trkpt lat="43.41615" lon="16.91129">
        <ele>343.068</ele>
        <time>2018-10-05T09:02:32Z</time>
      </trkpt>
      <trkpt lat="43.41602" lon="16.91148">
        <ele>343.039</ele>
        <time>2018-10-05T09:02:52Z</time>
      </trkpt>
      <trkpt lat="43.41593" lon="16.9116">
        <ele>342.029</ele>
        <time>2018-10-05T09:03:12Z</time>
      </trkpt>
      <trkpt lat="43.41579" lon="16.91177">
        <ele>342.018</ele>
        <time>2018-10-05T09:03:32Z</time>
      </trkpt>
      <trkpt lat="43.41567" lon="16.9119">
        <ele>341.042</ele>
        <time>2018-10-05T09:03:52Z</time>
      </trkpt>
      <trkpt lat="43.41553" lon="16.91209">
        <ele>341.022</ele>
        <time>2018-10-05T09:04:12Z</time>
      </trkpt>
      <trkpt lat="43.41543" lon="16.91224">
        <ele>340.014</ele>
        <time>2018-10-05T09:04:32Z</time>
      </trkpt>
      <trkpt lat="43.41528" lon="16.9124">
        <ele>339.008</ele>
        <time>2018-10-05T09:04:52Z</time>
      </trkpt>
      <trkpt lat="43.41513" lon="16.91257">
        <ele>338.056</ele>
        <time>2018-10-05T09:05:12Z</time>
      </trkpt>
      <trkpt lat="43.41506" lon="16.91263">
        <ele>338.043</ele>
        <time>2018-10-05T09:05:32Z</time>
      </trkpt>
      <trkpt lat="43.41486" lon="16.91277">
        <ele>337.096</ele>
        <time>2018-10-05T09:05:52Z</time>
      </trkpt>
      <trkpt lat="43.41481" lon="16.9128">
        <ele>337.028</ele>
        <time>2018-10-05T09:06:12Z</time>
      </trkpt>
      <trkpt lat="43.41468" lon="16.9129">
        <ele>336.036</ele>
        <time>2018-10-05T09:06:32Z</time>
      </trkpt>
      <trkpt lat="43.41451" lon="16.91305">
        <ele>335.017</ele>
        <time>2018-10-05T09:06:52Z</time>
      </trkpt>
      <trkpt lat="43.41436" lon="16.9132">
        <ele>334.017</ele>
        <time>2018-10-05T09:07:12Z</time>
      </trkpt>
      <trkpt lat="43.41419" lon="16.91338">
        <ele>333.046</ele>
        <time>2018-10-05T09:07:32Z</time>
      </trkpt>
      <trkpt lat="43.414" lon="16.91356">
        <ele>332.035</ele>
        <time>2018-10-05T09:07:52Z</time>
      </trkpt>
      <trkpt lat="43.41382" lon="16.91377">
        <ele>330.086</ele>
        <time>2018-10-05T09:08:12Z</time>
      </trkpt>
      <trkpt lat="43.4137" lon="16.91391">
        <ele>329.014</ele>
        <time>2018-10-05T09:08:32Z</time>
      </trkpt>
      <trkpt lat="43.41362" lon="16.91402">
        <ele>328.008</ele>
        <time>2018-10-05T09:08:52Z</time>
      </trkpt>
      <trkpt lat="43.41348" lon="16.91418">
        <ele>328.015</ele>
        <time>2018-10-05T09:09:12Z</time>
      </trkpt>
      <trkpt lat="43.41332" lon="16.91433">
        <ele>327.072</ele>
        <time>2018-10-05T09:09:32Z</time>
      </trkpt>
      <trkpt lat="43.41316" lon="16.91449">
        <ele>326.065</ele>
        <time>2018-10-05T09:09:52Z</time>
      </trkpt>
      <trkpt lat="43.41304" lon="16.91465">
        <ele>325.097</ele>
        <time>2018-10-05T09:10:12Z</time>
      </trkpt>
      <trkpt lat="43.41292" lon="16.91483">
        <ele>324.085</ele>
        <time>2018-10-05T09:10:32Z</time>
      </trkpt>
      <trkpt lat="43.41285" lon="16.91496">
        <ele>323.026</ele>
        <time>2018-10-05T09:10:52Z</time>
      </trkpt>
      <trkpt lat="43.41277" lon="16.91509">
        <ele>322.036</ele>
        <time>2018-10-05T09:11:12Z</time>
      </trkpt>
      <trkpt lat="43.41268" lon="16.91519">
        <ele>321.075</ele>
        <time>2018-10-05T09:11:32Z</time>
      </trkpt>
      <trkpt lat="43.41255" lon="16.91534">
        <ele>319.065</ele>
        <time>2018-10-05T09:11:52Z</time>
      </trkpt>
      <trkpt lat="43.41246" lon="16.91544">
        <ele>318.068</ele>
        <time>2018-10-05T09:12:12Z</time>
      </trkpt>
      <trkpt lat="43.41237" lon="16.91554">
        <ele>317.014</ele>
        <time>2018-10-05T09:12:32Z</time>
      </trkpt>
      <trkpt lat="43.41231" lon="16.91562">
        <ele>316.008</ele>
        <time>2018-10-05T09:12:52Z</time>
      </trkpt>
      <trkpt lat="43.41222" lon="16.91574">
        <ele>315.028</ele>
        <time>2018-10-05T09:13:12Z</time>
      </trkpt>
      <trkpt lat="43.41213" lon="16.91584">
        <ele>314.075</ele>
        <time>2018-10-05T09:13:32Z</time>
      </trkpt>
      <trkpt lat="43.41205" lon="16.9159">
        <ele>313.038</ele>
        <time>2018-10-05T09:13:52Z</time>
      </trkpt>
      <trkpt lat="43.41196" lon="16.91596">
        <ele>312.04</ele>
        <time>2018-10-05T09:14:12Z</time>
      </trkpt>
      <trkpt lat="43.41181" lon="16.91609">
        <ele>310.028</ele>
        <time>2018-10-05T09:14:32Z</time>
      </trkpt>
      <trkpt lat="43.41171" lon="16.91614">
        <ele>309.099</ele>
        <time>2018-10-05T09:14:52Z</time>
      </trkpt>
      <trkpt lat="43.41163" lon="16.91616">
        <ele>308.089</ele>
        <time>2018-10-05T09:15:12Z</time>
      </trkpt>
      <trkpt lat="43.41155" lon="16.91617">
        <ele>307.038</ele>
        <time>2018-10-05T09:15:32Z</time>
      </trkpt>
      <trkpt lat="43.41139" lon="16.91615">
        <ele>304.036</ele>
        <time>2018-10-05T09:15:52Z</time>
      </trkpt>
      <trkpt lat="43.4113" lon="16.91616">
        <ele>303.017</ele>
        <time>2018-10-05T09:16:12Z</time>
      </trkpt>
      <trkpt lat="43.41117" lon="16.91623">
        <ele>302.018</ele>
        <time>2018-10-05T09:16:32Z</time>
      </trkpt>
      <trkpt lat="43.41102" lon="16.91633">
        <ele>301.008</ele>
        <time>2018-10-05T09:16:52Z</time>
      </trkpt>
      <trkpt lat="43.41087" lon="16.91643">
        <ele>299.045</ele>
        <time>2018-10-05T09:17:12Z</time>
      </trkpt>
      <trkpt lat="43.41077" lon="16.91648">
        <ele>298.012</ele>
        <time>2018-10-05T09:17:32Z</time>
      </trkpt>
      <trkpt lat="43.41064" lon="16.91654">
        <ele>297.045</ele>
        <time>2018-10-05T09:17:52Z</time>
      </trkpt>
      <trkpt lat="43.41047" lon="16.91659">
        <ele>296.027</ele>
        <time>2018-10-05T09:18:12Z</time>
      </trkpt>
      <trkpt lat="43.41035" lon="16.91657">
        <ele>295.025</ele>
        <time>2018-10-05T09:18:32Z</time>
      </trkpt>
      <trkpt lat="43.41026" lon="16.91654">
        <ele>294.026</ele>
        <time>2018-10-05T09:18:52Z</time>
      </trkpt>
      <trkpt lat="43.41018" lon="16.91652">
        <ele>292.066</ele>
        <time>2018-10-05T09:19:12Z</time>
      </trkpt>
      <trkpt lat="43.4101" lon="16.91648">
        <ele>291.075</ele>
        <time>2018-10-05T09:19:32Z</time>
      </trkpt>
      <trkpt lat="43.40994" lon="16.91644">
        <ele>290.022</ele>
        <time>2018-10-05T09:19:52Z</time>
      </trkpt>
      <trkpt lat="43.40982" lon="16.91638">
        <ele>289.062</ele>
        <time>2018-10-05T09:20:12Z</time>
      </trkpt>
      <trkpt lat="43.40967" lon="16.9163">
        <ele>288.008</ele>
        <time>2018-10-05T09:20:32Z</time>
      </trkpt>
      <trkpt lat="43.40965" lon="16.9163">
        <ele>288.008</ele>
        <time>2018-10-05T09:20:52Z</time>
      </trkpt>
      <trkpt lat="43.40955" lon="16.91641">
        <ele>289.044</ele>
        <time>2018-10-05T09:21:12Z</time>
      </trkpt>
      <trkpt lat="43.40953" lon="16.91645">
        <ele>290.021</ele>
        <time>2018-10-05T09:21:32Z</time>
      </trkpt>
      <trkpt lat="43.40951" lon="16.91648">
        <ele>290.024</ele>
        <time>2018-10-05T09:21:52Z</time>
      </trkpt>
      <trkpt lat="43.40947" lon="16.91653">
        <ele>291.056</ele>
        <time>2018-10-05T09:22:12Z</time>
      </trkpt>
      <trkpt lat="43.40946" lon="16.91654">
        <ele>291.084</ele>
        <time>2018-10-05T09:22:32Z</time>
      </trkpt>
      <trkpt lat="43.40944" lon="16.91658">
        <ele>292.085</ele>
        <time>2018-10-05T09:22:52Z</time>
      </trkpt>
      <trkpt lat="43.40946" lon="16.91657">
        <ele>292.095</ele>
        <time>2018-10-05T09:23:12Z</time>
      </trkpt>
      <trkpt lat="43.40942" lon="16.91668">
        <ele>292.074</ele>
        <time>2018-10-05T09:23:32Z</time>
      </trkpt>
      <trkpt lat="43.40933" lon="16.91681">
        <ele>294.089</ele>
        <time>2018-10-05T09:23:52Z</time>
      </trkpt>
      <trkpt lat="43.40929" lon="16.91688">
        <ele>295.006</ele>
        <time>2018-10-05T09:24:12Z</time>
      </trkpt>
      <trkpt lat="43.40928" lon="16.91691">
        <ele>295.026</ele>
        <time>2018-10-05T09:24:32Z</time>
      </trkpt>
      <trkpt lat="43.40924" lon="16.91702">
        <ele>297.008</ele>
        <time>2018-10-05T09:24:52Z</time>
      </trkpt>
      <trkpt lat="43.40917" lon="16.91722">
        <ele>299.07</ele>
        <time>2018-10-05T09:25:12Z</time>
      </trkpt>
      <trkpt lat="43.40913" lon="16.9173">
        <ele>299.057</ele>
        <time>2018-10-05T09:25:32Z</time>
      </trkpt>
      <trkpt lat="43.40906" lon="16.91738">
        <ele>300.02</ele>
        <time>2018-10-05T09:25:52Z</time>
      </trkpt>
      <trkpt lat="43.40893" lon="16.91757">
        <ele>301.072</ele>
        <time>2018-10-05T09:26:12Z</time>
      </trkpt>
      <trkpt lat="43.40889" lon="16.91773">
        <ele>302.09</ele>
        <time>2018-10-05T09:26:32Z</time>
      </trkpt>
      <trkpt lat="43.40886" lon="16.9179">
        <ele>303.021</ele>
        <time>2018-10-05T09:26:52Z</time>
      </trkpt>
      <trkpt lat="43.40882" lon="16.91804">
        <ele>304.031</ele>
        <time>2018-10-05T09:27:12Z</time>
      </trkpt>
      <trkpt lat="43.40878" lon="16.91814">
        <ele>305.04</ele>
        <time>2018-10-05T09:27:32Z</time>
      </trkpt>
      <trkpt lat="43.40877" lon="16.91834">
        <ele>308.021</ele>
        <time>2018-10-05T09:27:52Z</time>
      </trkpt>
      <trkpt lat="43.40877" lon="16.91846">
        <ele>309.041</ele>
        <time>2018-10-05T09:28:12Z</time>
      </trkpt>
      <trkpt lat="43.40873" lon="16.91858">
        <ele>311.005</ele>
        <time>2018-10-05T09:28:32Z</time>
      </trkpt>
      <trkpt lat="43.40868" lon="16.91868">
        <ele>312.008</ele>
        <time>2018-10-05T09:28:52Z</time>
      </trkpt>
      <trkpt lat="43.40862" lon="16.91879">
        <ele>313.084</ele>
        <time>2018-10-05T09:29:12Z</time>
      </trkpt>
      <trkpt lat="43.40861" lon="16.91887">
        <ele>314.051</ele>
        <time>2018-10-05T09:29:32Z</time>
      </trkpt>
      <trkpt lat="43.40862" lon="16.91889">
        <ele>314.084</ele>
        <time>2018-10-05T09:29:52Z</time>
      </trkpt>
      <trkpt lat="43.40862" lon="16.91892">
        <ele>315.036</ele>
        <time>2018-10-05T09:30:12Z</time>
      </trkpt>
      <trkpt lat="43.40858" lon="16.91902">
        <ele>315.014</ele>
        <time>2018-10-05T09:30:32Z</time>
      </trkpt>
      <trkpt lat="43.40854" lon="16.91912">
        <ele>316.045</ele>
        <time>2018-10-05T09:30:52Z</time>
      </trkpt>
      <trkpt lat="43.40854" lon="16.91914">
        <ele>316.035</ele>
        <time>2018-10-05T09:31:12Z</time>
      </trkpt>
      <trkpt lat="43.40847" lon="16.91928">
        <ele>317.024</ele>
        <time>2018-10-05T09:31:32Z</time>
      </trkpt>
      <trkpt lat="43.40837" lon="16.91939">
        <ele>318.079</ele>
        <time>2018-10-05T09:31:52Z</time>
      </trkpt>
      <trkpt lat="43.40836" lon="16.9194">
        <ele>319.005</ele>
        <time>2018-10-05T09:32:12Z</time>
      </trkpt>
      <trkpt lat="43.4083" lon="16.9194">
        <ele>319.025</ele>
        <time>2018-10-05T09:32:32Z</time>
      </trkpt>
      <trkpt lat="43.40822" lon="16.91937">
        <ele>319.008</ele>
        <time>2018-10-05T09:32:52Z</time>
      </trkpt>
      <trkpt lat="43.40816" lon="16.91938">
        <ele>319.079</ele>
        <time>2018-10-05T09:33:12Z</time>
      </trkpt>
      <trkpt lat="43.40804" lon="16.91945">
        <ele>319.046</ele>
        <time>2018-10-05T09:33:32Z</time>
      </trkpt>
      <trkpt lat="43.40797" lon="16.91954">
        <ele>321.089</ele>
        <time>2018-10-05T09:33:52Z</time>
      </trkpt>
      <trkpt lat="43.40793" lon="16.91961">
        <ele>321.071</ele>
        <time>2018-10-05T09:34:12Z</time>
      </trkpt>
      <trkpt lat="43.40792" lon="16.91964">
        <ele>322.069</ele>
        <time>2018-10-05T09:34:32Z</time>
      </trkpt>
      <trkpt lat="43.40782" lon="16.91973">
        <ele>323.07</ele>
        <time>2018-10-05T09:34:52Z</time>
      </trkpt>
      <trkpt lat="43.40771" lon="16.91981">
        <ele>323.09</ele>
        <time>2018-10-05T09:35:12Z</time>
      </trkpt>
      <trkpt lat="43.40768" lon="16.91985">
        <ele>324.039</ele>
        <time>2018-10-05T09:35:32Z</time>
      </trkpt>
      <trkpt lat="43.40766" lon="16.91989">
        <ele>324.046</ele>
        <time>2018-10-05T09:35:52Z</time>
      </trkpt>
      <trkpt lat="43.40764" lon="16.91996">
        <ele>324.088</ele>
        <time>2018-10-05T09:36:12Z</time>
      </trkpt>
      <trkpt lat="43.40761" lon="16.92002">
        <ele>325.016</ele>
        <time>2018-10-05T09:36:32Z</time>
      </trkpt>
      <trkpt lat="43.40746" lon="16.92024">
        <ele>326.008</ele>
        <time>2018-10-05T09:36:52Z</time>
      </trkpt>
      <trkpt lat="43.40739" lon="16.9203">
        <ele>326.046</ele>
        <time>2018-10-05T09:37:12Z</time>
      </trkpt>
      <trkpt lat="43.40734" lon="16.92034">
        <ele>326.063</ele>
        <time>2018-10-05T09:37:32Z</time>
      </trkpt>
      <trkpt lat="43.40723" lon="16.92039">
        <ele>327.016</ele>
        <time>2018-10-05T09:37:52Z</time>
      </trkpt>
      <trkpt lat="43.40716" lon="16.92046">
        <ele>327.058</ele>
        <time>2018-10-05T09:38:12Z</time>
      </trkpt>
      <trkpt lat="43.40712" lon="16.92051">
        <ele>328.066</ele>
        <time>2018-10-05T09:38:32Z</time>
      </trkpt>
      <trkpt lat="43.40708" lon="16.92053">
        <ele>328.047</ele>
        <time>2018-10-05T09:38:52Z</time>
      </trkpt>
      <trkpt lat="43.40702" lon="16.9206">
        <ele>329.027</ele>
        <time>2018-10-05T09:39:12Z</time>
      </trkpt>
      <trkpt lat="43.407" lon="16.92066">
        <ele>330.056</ele>
        <time>2018-10-05T09:39:32Z</time>
      </trkpt>
      <trkpt lat="43.40699" lon="16.92069">
        <ele>331.055</ele>
        <time>2018-10-05T09:39:52Z</time>
      </trkpt>
      <trkpt lat="43.40697" lon="16.92074">
        <ele>332.007</ele>
        <time>2018-10-05T09:40:12Z</time>
      </trkpt>
      <trkpt lat="43.40697" lon="16.92077">
        <ele>333.017</ele>
        <time>2018-10-05T09:40:32Z</time>
      </trkpt>
      <trkpt lat="43.40693" lon="16.92083">
        <ele>333.008</ele>
        <time>2018-10-05T09:40:52Z</time>
      </trkpt>
      <trkpt lat="43.4069" lon="16.92083">
        <ele>334.017</ele>
        <time>2018-10-05T09:41:12Z</time>
      </trkpt>
      <trkpt lat="43.40686" lon="16.92085">
        <ele>334.094</ele>
        <time>2018-10-05T09:41:32Z</time>
      </trkpt>
      <trkpt lat="43.4068" lon="16.9209">
        <ele>335.017</ele>
        <time>2018-10-05T09:41:52Z</time>
      </trkpt>
      <trkpt lat="43.40676" lon="16.92094">
        <ele>336.029</ele>
        <time>2018-10-05T09:42:12Z</time>
      </trkpt>
      <trkpt lat="43.40671" lon="16.92098">
        <ele>337.027</ele>
        <time>2018-10-05T09:42:32Z</time>
      </trkpt>
      <trkpt lat="43.4067" lon="16.92099">
        <ele>337.038</ele>
        <time>2018-10-05T09:42:52Z</time>
      </trkpt>
      <trkpt lat="43.40668" lon="16.921">
        <ele>337.068</ele>
        <time>2018-10-05T09:43:12Z</time>
      </trkpt>
      <trkpt lat="43.40663" lon="16.92102">
        <ele>338.037</ele>
        <time>2018-10-05T09:43:32Z</time>
      </trkpt>
      <trkpt lat="43.40658" lon="16.92107">
        <ele>339.065</ele>
        <time>2018-10-05T09:43:52Z</time>
      </trkpt>
      <trkpt lat="43.40655" lon="16.92109">
        <ele>339.068</ele>
        <time>2018-10-05T09:44:12Z</time>
      </trkpt>
      <trkpt lat="43.40643" lon="16.92113">
        <ele>340.014</ele>
        <time>2018-10-05T09:44:32Z</time>
      </trkpt>
      <trkpt lat="43.40641" lon="16.92114">
        <ele>340.008</ele>
        <time>2018-10-05T09:44:52Z</time>
      </trkpt>
      <trkpt lat="43.40631" lon="16.92122">
        <ele>341.038</ele>
        <time>2018-10-05T09:45:12Z</time>
      </trkpt>
      <trkpt lat="43.40629" lon="16.92125">
        <ele>341.065</ele>
        <time>2018-10-05T09:45:32Z</time>
      </trkpt>
      <trkpt lat="43.40624" lon="16.92131">
        <ele>342.028</ele>
        <time>2018-10-05T09:45:52Z</time>
      </trkpt>
      <trkpt lat="43.40622" lon="16.92135">
        <ele>343.08</ele>
        <time>2018-10-05T09:46:12Z</time>
      </trkpt>
      <trkpt lat="43.40616" lon="16.92139">
        <ele>343.048</ele>
        <time>2018-10-05T09:46:32Z</time>
      </trkpt>
      <trkpt lat="43.40609" lon="16.92145">
        <ele>344.029</ele>
        <time>2018-10-05T09:46:52Z</time>
      </trkpt>
      <trkpt lat="43.40606" lon="16.92149">
        <ele>345.059</ele>
        <time>2018-10-05T09:47:12Z</time>
      </trkpt>
      <trkpt lat="43.406" lon="16.92152">
        <ele>346.018</ele>
        <time>2018-10-05T09:47:32Z</time>
      </trkpt>
      <trkpt lat="43.40596" lon="16.92154">
        <ele>346.057</ele>
        <time>2018-10-05T09:47:52Z</time>
      </trkpt>
      <trkpt lat="43.40591" lon="16.92158">
        <ele>347</ele>
        <time>2018-10-05T09:48:12Z</time>
      </trkpt>
      <trkpt lat="43.4059" lon="16.92164">
        <ele>347.02</ele>
        <time>2018-10-05T09:48:32Z</time>
      </trkpt>
      <trkpt lat="43.40589" lon="16.92169">
        <ele>347.008</ele>
        <time>2018-10-05T09:48:52Z</time>
      </trkpt>
      <trkpt lat="43.40587" lon="16.92173">
        <ele>348.057</ele>
        <time>2018-10-05T09:49:12Z</time>
      </trkpt>
      <trkpt lat="43.40585" lon="16.92176">
        <ele>348.084</ele>
        <time>2018-10-05T09:49:32Z</time>
      </trkpt>
      <trkpt lat="43.40582" lon="16.92177">
        <ele>349.087</ele>
        <time>2018-10-05T09:49:52Z</time>
      </trkpt>
      <trkpt lat="43.40579" lon="16.92184">
        <ele>349.019</ele>
        <time>2018-10-05T09:50:12Z</time>
      </trkpt>
      <trkpt lat="43.40577" lon="16.92187">
        <ele>350.097</ele>
        <time>2018-10-05T09:50:32Z</time>
      </trkpt>
      <trkpt lat="43.40575" lon="16.92192">
        <ele>351.048</ele>
        <time>2018-10-05T09:50:52Z</time>
      </trkpt>
      <trkpt lat="43.40573" lon="16.92194">
        <ele>351.078</ele>
        <time>2018-10-05T09:51:12Z</time>
      </trkpt>
      <trkpt lat="43.40567" lon="16.92196">
        <ele>352.087</ele>
        <time>2018-10-05T09:51:32Z</time>
      </trkpt>
      <trkpt lat="43.40565" lon="16.92199">
        <ele>351.063</ele>
        <time>2018-10-05T09:51:52Z</time>
      </trkpt>
      <trkpt lat="43.40564" lon="16.92205">
        <ele>352.044</ele>
        <time>2018-10-05T09:52:12Z</time>
      </trkpt>
      <trkpt lat="43.4056" lon="16.92217">
        <ele>353.018</ele>
        <time>2018-10-05T09:52:32Z</time>
      </trkpt>
      <trkpt lat="43.40559" lon="16.92219">
        <ele>353.008</ele>
        <time>2018-10-05T09:52:52Z</time>
      </trkpt>
      <trkpt lat="43.40558" lon="16.92223">
        <ele>354.088</ele>
        <time>2018-10-05T09:53:12Z</time>
      </trkpt>
      <trkpt lat="43.40556" lon="16.92227">
        <ele>355.085</ele>
        <time>2018-10-05T09:53:32Z</time>
      </trkpt>
      <trkpt lat="43.40553" lon="16.92231">
        <ele>355.098</ele>
        <time>2018-10-05T09:53:52Z</time>
      </trkpt>
      <trkpt lat="43.40551" lon="16.92236">
        <ele>356.03</ele>
        <time>2018-10-05T09:54:12Z</time>
      </trkpt>
      <trkpt lat="43.40544" lon="16.92242">
        <ele>357.068</ele>
        <time>2018-10-05T09:54:32Z</time>
      </trkpt>
      <trkpt lat="43.40535" lon="16.92252">
        <ele>357.039</ele>
        <time>2018-10-05T09:54:52Z</time>
      </trkpt>
      <trkpt lat="43.40533" lon="16.92257">
        <ele>358.069</ele>
        <time>2018-10-05T09:55:12Z</time>
      </trkpt>
      <trkpt lat="43.40521" lon="16.92277">
        <ele>359.018</ele>
        <time>2018-10-05T09:55:32Z</time>
      </trkpt>
      <trkpt lat="43.40521" lon="16.92284">
        <ele>360.057</ele>
        <time>2018-10-05T09:55:52Z</time>
      </trkpt>
      <trkpt lat="43.4052" lon="16.92288">
        <ele>360</ele>
        <time>2018-10-05T09:56:12Z</time>
      </trkpt>
      <trkpt lat="43.40519" lon="16.92294">
        <ele>361.02</ele>
        <time>2018-10-05T09:56:32Z</time>
      </trkpt>
      <trkpt lat="43.40518" lon="16.92301">
        <ele>362.008</ele>
        <time>2018-10-05T09:56:52Z</time>
      </trkpt>
      <trkpt lat="43.40514" lon="16.92313">
        <ele>363.077</ele>
        <time>2018-10-05T09:57:12Z</time>
      </trkpt>
      <trkpt lat="43.405" lon="16.92331">
        <ele>364.064</ele>
        <time>2018-10-05T09:57:32Z</time>
      </trkpt>
      <trkpt lat="43.40487" lon="16.92344">
        <ele>364.027</ele>
        <time>2018-10-05T09:57:52Z</time>
      </trkpt>
      <trkpt lat="43.40472" lon="16.92361">
        <ele>365.049</ele>
        <time>2018-10-05T09:58:12Z</time>
      </trkpt>
      <trkpt lat="43.40461" lon="16.92373">
        <ele>367.097</ele>
        <time>2018-10-05T09:58:32Z</time>
      </trkpt>
      <trkpt lat="43.40455" lon="16.92382">
        <ele>367.068</ele>
        <time>2018-10-05T09:58:52Z</time>
      </trkpt>
      <trkpt lat="43.40455" lon="16.92383">
        <ele>367.018</ele>
        <time>2018-10-05T09:59:12Z</time>
      </trkpt>
      <trkpt lat="43.40453" lon="16.92385">
        <ele>368.047</ele>
        <time>2018-10-05T09:59:32Z</time>
      </trkpt>
      <trkpt lat="43.40451" lon="16.92389">
        <ele>368.025</ele>
        <time>2018-10-05T09:59:52Z</time>
      </trkpt>
      <trkpt lat="43.40445" lon="16.92396">
        <ele>368.026</ele>
        <time>2018-10-05T10:00:12Z</time>
      </trkpt>
      <trkpt lat="43.40442" lon="16.92399">
        <ele>369.008</ele>
        <time>2018-10-05T10:00:32Z</time>
      </trkpt>
      <trkpt lat="43.40438" lon="16.92403">
        <ele>369.008</ele>
        <time>2018-10-05T10:00:52Z</time>
      </trkpt>
      <trkpt lat="43.40431" lon="16.92408">
        <ele>369.034</ele>
        <time>2018-10-05T10:01:12Z</time>
      </trkpt>
      <trkpt lat="43.40416" lon="16.92423">
        <ele>370.021</ele>
        <time>2018-10-05T10:01:32Z</time>
      </trkpt>
      <trkpt lat="43.40407" lon="16.92436">
        <ele>371.084</ele>
        <time>2018-10-05T10:01:52Z</time>
      </trkpt>
      <trkpt lat="43.40393" lon="16.92462">
        <ele>372.016</ele>
        <time>2018-10-05T10:02:12Z</time>
      </trkpt>
      <trkpt lat="43.40392" lon="16.92466">
        <ele>372.084</ele>
        <time>2018-10-05T10:02:32Z</time>
      </trkpt>
      <trkpt lat="43.40389" lon="16.92476">
        <ele>373.035</ele>
        <time>2018-10-05T10:02:52Z</time>
      </trkpt>
      <trkpt lat="43.40383" lon="16.92487">
        <ele>375.085</ele>
        <time>2018-10-05T10:03:12Z</time>
      </trkpt>
      <trkpt lat="43.40379" lon="16.92491">
        <ele>376.064</ele>
        <time>2018-10-05T10:03:32Z</time>
      </trkpt>
      <trkpt lat="43.40375" lon="16.92496">
        <ele>377.053</ele>
        <time>2018-10-05T10:03:52Z</time>
      </trkpt>
      <trkpt lat="43.40372" lon="16.925">
        <ele>377.004</ele>
        <time>2018-10-05T10:04:12Z</time>
      </trkpt>
      <trkpt lat="43.40369" lon="16.92502">
        <ele>377.014</ele>
        <time>2018-10-05T10:04:32Z</time>
      </trkpt>
      <trkpt lat="43.40361" lon="16.92503">
        <ele>378.008</ele>
        <time>2018-10-05T10:04:52Z</time>
      </trkpt>
      <trkpt lat="43.40351" lon="16.92504">
        <ele>378.077</ele>
        <time>2018-10-05T10:05:12Z</time>
      </trkpt>
      <trkpt lat="43.40336" lon="16.92503">
        <ele>379.094</ele>
        <time>2018-10-05T10:05:32Z</time>
      </trkpt>
      <trkpt lat="43.40332" lon="16.92504">
        <ele>379.027</ele>
        <time>2018-10-05T10:05:52Z</time>
      </trkpt>
      <trkpt lat="43.40331" lon="16.92504">
        <ele>379.019</ele>
        <time>2018-10-05T10:06:12Z</time>
      </trkpt>
      <trkpt lat="43.40327" lon="16.92505">
        <ele>380.017</ele>
        <time>2018-10-05T10:06:32Z</time>
      </trkpt>
      <trkpt lat="43.40323" lon="16.92507">
        <ele>380.048</ele>
        <time>2018-10-05T10:06:52Z</time>
      </trkpt>
      <trkpt lat="43.40317" lon="16.92511">
        <ele>382.088</ele>
        <time>2018-10-05T10:07:12Z</time>
      </trkpt>
      <trkpt lat="43.40315" lon="16.92512">
        <ele>383.037</ele>
        <time>2018-10-05T10:07:32Z</time>
      </trkpt>
      <trkpt lat="43.40309" lon="16.92514">
        <ele>384.076</ele>
        <time>2018-10-05T10:07:52Z</time>
      </trkpt>
      <trkpt lat="43.403" lon="16.92517">
        <ele>385.09</ele>
        <time>2018-10-05T10:08:12Z</time>
      </trkpt>
      <trkpt lat="43.40298" lon="16.92517">
        <ele>385.019</ele>
        <time>2018-10-05T10:08:32Z</time>
      </trkpt>
      <trkpt lat="43.40294" lon="16.92519">
        <ele>385.008</ele>
        <time>2018-10-05T10:08:52Z</time>
      </trkpt>
      <trkpt lat="43.40293" lon="16.92524">
        <ele>385.079</ele>
        <time>2018-10-05T10:09:12Z</time>
      </trkpt>
      <trkpt lat="43.40286" lon="16.92528">
        <ele>386.016</ele>
        <time>2018-10-05T10:09:32Z</time>
      </trkpt>
      <trkpt lat="43.40283" lon="16.9253">
        <ele>386.019</ele>
        <time>2018-10-05T10:09:52Z</time>
      </trkpt>
      <trkpt lat="43.4028" lon="16.9253">
        <ele>386.051</ele>
        <time>2018-10-05T10:10:12Z</time>
      </trkpt>
      <trkpt lat="43.40278" lon="16.92532">
        <ele>387.089</ele>
        <time>2018-10-05T10:10:32Z</time>
      </trkpt>
      <trkpt lat="43.40278" lon="16.92534">
        <ele>388.09</ele>
        <time>2018-10-05T10:10:52Z</time>
      </trkpt>
      <trkpt lat="43.40278" lon="16.92535">
        <ele>388.03</ele>
        <time>2018-10-05T10:11:12Z</time>
      </trkpt>
      <trkpt lat="43.40275" lon="16.92536">
        <ele>389.049</ele>
        <time>2018-10-05T10:11:32Z</time>
      </trkpt>
      <trkpt lat="43.40272" lon="16.92535">
        <ele>390.025</ele>
        <time>2018-10-05T10:11:52Z</time>
      </trkpt>
      <trkpt lat="43.40268" lon="16.92537">
        <ele>392.026</ele>
        <time>2018-10-05T10:12:12Z</time>
      </trkpt>
      <trkpt lat="43.4026" lon="16.92543">
        <ele>393.008</ele>
        <time>2018-10-05T10:12:32Z</time>
      </trkpt>
      <trkpt lat="43.40259" lon="16.92546">
        <ele>394.008</ele>
        <time>2018-10-05T10:12:52Z</time>
      </trkpt>
      <trkpt lat="43.40257" lon="16.92549">
        <ele>395.094</ele>
        <time>2018-10-05T10:13:12Z</time>
      </trkpt>
      <trkpt lat="43.40256" lon="16.92551">
        <ele>395.011</ele>
        <time>2018-10-05T10:13:32Z</time>
      </trkpt>
      <trkpt lat="43.40253" lon="16.92555">
        <ele>396.014</ele>
        <time>2018-10-05T10:13:52Z</time>
      </trkpt>
      <trkpt lat="43.40252" lon="16.92558">
        <ele>397.076</ele>
        <time>2018-10-05T10:14:12Z</time>
      </trkpt>
      <trkpt lat="43.40246" lon="16.92562">
        <ele>398.094</ele>
        <time>2018-10-05T10:14:32Z</time>
      </trkpt>
      <trkpt lat="43.40244" lon="16.92565">
        <ele>399.035</ele>
        <time>2018-10-05T10:14:52Z</time>
      </trkpt>
      <trkpt lat="43.40242" lon="16.92568">
        <ele>400.055</ele>
        <time>2018-10-05T10:15:12Z</time>
      </trkpt>
      <trkpt lat="43.40239" lon="16.92572">
        <ele>401.084</ele>
        <time>2018-10-05T10:15:32Z</time>
      </trkpt>
      <trkpt lat="43.40234" lon="16.92576">
        <ele>402.028</ele>
        <time>2018-10-05T10:15:52Z</time>
      </trkpt>
      <trkpt lat="43.40228" lon="16.92579">
        <ele>403.089</ele>
        <time>2018-10-05T10:16:12Z</time>
      </trkpt>
      <trkpt lat="43.40227" lon="16.92579">
        <ele>403.017</ele>
        <time>2018-10-05T10:16:32Z</time>
      </trkpt>
      <trkpt lat="43.40226" lon="16.92581">
        <ele>403.008</ele>
        <time>2018-10-05T10:16:52Z</time>
      </trkpt>
      <trkpt lat="43.40217" lon="16.92587">
        <ele>405.064</ele>
        <time>2018-10-05T10:17:12Z</time>
      </trkpt>
      <trkpt lat="43.40214" lon="16.9259">
        <ele>406.071</ele>
        <time>2018-10-05T10:17:32Z</time>
      </trkpt>
      <trkpt lat="43.40208" lon="16.92591">
        <ele>407.074</ele>
        <time>2018-10-05T10:17:52Z</time>
      </trkpt>
      <trkpt lat="43.40189" lon="16.92592">
        <ele>407.036</ele>
        <time>2018-10-05T10:18:12Z</time>
      </trkpt>
      <trkpt lat="43.40178" lon="16.92591">
        <ele>407.044</ele>
        <time>2018-10-05T10:18:32Z</time>
      </trkpt>
      <trkpt lat="43.4016" lon="16.92584">
        <ele>408.095</ele>
        <time>2018-10-05T10:18:52Z</time>
      </trkpt>
      <trkpt lat="43.40138" lon="16.92576">
        <ele>408.095</ele>
        <time>2018-10-05T10:19:12Z</time>
      </trkpt>
      <trkpt lat="43.40133" lon="16.92575">
        <ele>408.024</ele>
        <time>2018-10-05T10:19:32Z</time>
      </trkpt>
      <trkpt lat="43.40126" lon="16.92574">
        <ele>409.035</ele>
        <time>2018-10-05T10:19:52Z</time>
      </trkpt>
      <trkpt lat="43.40125" lon="16.92574">
        <ele>410.086</ele>
        <time>2018-10-05T10:20:12Z</time>
      </trkpt>
      <trkpt lat="43.4012" lon="16.92575">
        <ele>410.014</ele>
        <time>2018-10-05T10:20:32Z</time>
      </trkpt>
      <trkpt lat="43.40118" lon="16.92577">
        <ele>411.008</ele>
        <time>2018-10-05T10:20:52Z</time>
      </trkpt>
      <trkpt lat="43.40115" lon="16.92577">
        <ele>412.055</ele>
        <time>2018-10-05T10:21:12Z</time>
      </trkpt>
      <trkpt lat="43.40115" lon="16.92578">
        <ele>412.042</ele>
        <time>2018-10-05T10:21:32Z</time>
      </trkpt>
      <trkpt lat="43.40109" lon="16.92578">
        <ele>413.055</ele>
        <time>2018-10-05T10:21:52Z</time>
      </trkpt>
      <trkpt lat="43.40105" lon="16.92582">
        <ele>414.077</ele>
        <time>2018-10-05T10:22:12Z</time>
      </trkpt>
      <trkpt lat="43.40101" lon="16.92585">
        <ele>415.025</ele>
        <time>2018-10-05T10:22:32Z</time>
      </trkpt>
      <trkpt lat="43.40098" lon="16.92585">
        <ele>416.026</ele>
        <time>2018-10-05T10:22:52Z</time>
      </trkpt>
      <trkpt lat="43.40093" lon="16.9259">
        <ele>417.076</ele>
        <time>2018-10-05T10:23:12Z</time>
      </trkpt>
      <trkpt lat="43.40089" lon="16.92594">
        <ele>419.055</ele>
        <time>2018-10-05T10:23:32Z</time>
      </trkpt>
      <trkpt lat="43.40087" lon="16.92596">
        <ele>419.015</ele>
        <time>2018-10-05T10:23:52Z</time>
      </trkpt>
      <trkpt lat="43.40084" lon="16.92601">
        <ele>420.065</ele>
        <time>2018-10-05T10:24:12Z</time>
      </trkpt>
      <trkpt lat="43.40081" lon="16.92605">
        <ele>421.011</ele>
        <time>2018-10-05T10:24:32Z</time>
      </trkpt>
      <trkpt lat="43.40076" lon="16.92609">
        <ele>422.008</ele>
        <time>2018-10-05T10:24:52Z</time>
      </trkpt>
      <trkpt lat="43.40074" lon="16.9261">
        <ele>422.053</ele>
        <time>2018-10-05T10:25:12Z</time>
      </trkpt>
      <trkpt lat="43.40067" lon="16.92617">
        <ele>423.03</ele>
        <time>2018-10-05T10:25:32Z</time>
      </trkpt>
      <trkpt lat="43.40063" lon="16.92618">
        <ele>424.073</ele>
        <time>2018-10-05T10:25:52Z</time>
      </trkpt>
      <trkpt lat="43.40059" lon="16.92619">
        <ele>425.065</ele>
        <time>2018-10-05T10:26:12Z</time>
      </trkpt>
      <trkpt lat="43.40056" lon="16.92625">
        <ele>426.083</ele>
        <time>2018-10-05T10:26:32Z</time>
      </trkpt>
      <trkpt lat="43.40055" lon="16.92632">
        <ele>428.014</ele>
        <time>2018-10-05T10:26:52Z</time>
      </trkpt>
      <trkpt lat="43.40055" lon="16.92637">
        <ele>429.094</ele>
        <time>2018-10-05T10:27:12Z</time>
      </trkpt>
      <trkpt lat="43.40053" lon="16.9264">
        <ele>430.013</ele>
        <time>2018-10-05T10:27:32Z</time>
      </trkpt>
      <trkpt lat="43.40053" lon="16.92643">
        <ele>430.059</ele>
        <time>2018-10-05T10:27:52Z</time>
      </trkpt>
      <trkpt lat="43.40052" lon="16.92645">
        <ele>431.003</ele>
        <time>2018-10-05T10:28:12Z</time>
      </trkpt>
      <trkpt lat="43.40048" lon="16.92646">
        <ele>432.023</ele>
        <time>2018-10-05T10:28:32Z</time>
      </trkpt>
      <trkpt lat="43.40044" lon="16.9265">
        <ele>433.008</ele>
        <time>2018-10-05T10:28:52Z</time>
      </trkpt>
      <trkpt lat="43.4004" lon="16.92655">
        <ele>434.017</ele>
        <time>2018-10-05T10:29:12Z</time>
      </trkpt>
      <trkpt lat="43.40032" lon="16.9266">
        <ele>436.054</ele>
        <time>2018-10-05T10:29:32Z</time>
      </trkpt>
      <trkpt lat="43.40029" lon="16.92661">
        <ele>437.077</ele>
        <time>2018-10-05T10:29:52Z</time>
      </trkpt>
      <trkpt lat="43.40025" lon="16.92665">
        <ele>438.059</ele>
        <time>2018-10-05T10:30:12Z</time>
      </trkpt>
      <trkpt lat="43.40021" lon="16.9267">
        <ele>439.047</ele>
        <time>2018-10-05T10:30:32Z</time>
      </trkpt>
      <trkpt lat="43.40014" lon="16.92676">
        <ele>441.098</ele>
        <time>2018-10-05T10:30:52Z</time>
      </trkpt>
      <trkpt lat="43.40009" lon="16.92683">
        <ele>444.018</ele>
        <time>2018-10-05T10:31:12Z</time>
      </trkpt>
      <trkpt lat="43.40002" lon="16.92692">
        <ele>446.087</ele>
        <time>2018-10-05T10:31:32Z</time>
      </trkpt>
      <trkpt lat="43.39995" lon="16.92698">
        <ele>448.018</ele>
        <time>2018-10-05T10:31:52Z</time>
      </trkpt>
      <trkpt lat="43.3999" lon="16.92703">
        <ele>449.098</ele>
        <time>2018-10-05T10:32:12Z</time>
      </trkpt>
      <trkpt lat="43.39981" lon="16.92717">
        <ele>450.017</ele>
        <time>2018-10-05T10:32:32Z</time>
      </trkpt>
      <trkpt lat="43.39976" lon="16.92721">
        <ele>451.008</ele>
        <time>2018-10-05T10:32:52Z</time>
      </trkpt>
      <trkpt lat="43.39971" lon="16.92726">
        <ele>452.023</ele>
        <time>2018-10-05T10:33:12Z</time>
      </trkpt>
      <trkpt lat="43.3997" lon="16.9273">
        <ele>452.06</ele>
        <time>2018-10-05T10:33:32Z</time>
      </trkpt>
      <trkpt lat="43.39964" lon="16.92733">
        <ele>452.023</ele>
        <time>2018-10-05T10:33:52Z</time>
      </trkpt>
      <trkpt lat="43.39953" lon="16.92756">
        <ele>453.015</ele>
        <time>2018-10-05T10:34:12Z</time>
      </trkpt>
      <trkpt lat="43.39945" lon="16.92769">
        <ele>454.073</ele>
        <time>2018-10-05T10:34:32Z</time>
      </trkpt>
      <trkpt lat="43.3994" lon="16.92775">
        <ele>455.014</ele>
        <time>2018-10-05T10:34:52Z</time>
      </trkpt>
      <trkpt lat="43.39935" lon="16.92781">
        <ele>456.024</ele>
        <time>2018-10-05T10:35:12Z</time>
      </trkpt>
      <trkpt lat="43.39929" lon="16.92789">
        <ele>457.033</ele>
        <time>2018-10-05T10:35:32Z</time>
      </trkpt>
      <trkpt lat="43.39928" lon="16.92792">
        <ele>458.089</ele>
        <time>2018-10-05T10:35:52Z</time>
      </trkpt>
      <trkpt lat="43.39925" lon="16.92796">
        <ele>459.006</ele>
        <time>2018-10-05T10:36:12Z</time>
      </trkpt>
      <trkpt lat="43.39918" lon="16.92802">
        <ele>459.026</ele>
        <time>2018-10-05T10:36:32Z</time>
      </trkpt>
      <trkpt lat="43.39915" lon="16.92805">
        <ele>460.008</ele>
        <time>2018-10-05T10:36:52Z</time>
      </trkpt>
      <trkpt lat="43.39914" lon="16.92807">
        <ele>460.07</ele>
        <time>2018-10-05T10:37:12Z</time>
      </trkpt>
      <trkpt lat="43.39905" lon="16.92815">
        <ele>462.017</ele>
        <time>2018-10-05T10:37:32Z</time>
      </trkpt>
      <trkpt lat="43.39899" lon="16.92821">
        <ele>463.09</ele>
        <time>2018-10-05T10:37:52Z</time>
      </trkpt>
      <trkpt lat="43.39892" lon="16.92826">
        <ele>464.082</ele>
        <time>2018-10-05T10:38:12Z</time>
      </trkpt>
      <trkpt lat="43.39888" lon="16.9283">
        <ele>465.05</ele>
        <time>2018-10-05T10:38:32Z</time>
      </trkpt>
      <trkpt lat="43.39883" lon="16.92837">
        <ele>466.031</ele>
        <time>2018-10-05T10:38:52Z</time>
      </trkpt>
      <trkpt lat="43.3988" lon="16.92841">
        <ele>467.021</ele>
        <time>2018-10-05T10:39:12Z</time>
      </trkpt>
      <trkpt lat="43.39875" lon="16.92846">
        <ele>468.07</ele>
        <time>2018-10-05T10:39:32Z</time>
      </trkpt>
      <trkpt lat="43.39874" lon="16.92847">
        <ele>469.013</ele>
        <time>2018-10-05T10:39:52Z</time>
      </trkpt>
      <trkpt lat="43.39868" lon="16.92849">
        <ele>469.043</ele>
        <time>2018-10-05T10:40:12Z</time>
      </trkpt>
      <trkpt lat="43.39861" lon="16.92855">
        <ele>471.007</ele>
        <time>2018-10-05T10:40:32Z</time>
      </trkpt>
      <trkpt lat="43.39858" lon="16.92858">
        <ele>472.008</ele>
        <time>2018-10-05T10:40:52Z</time>
      </trkpt>
      <trkpt lat="43.39851" lon="16.92863">
        <ele>473.073</ele>
        <time>2018-10-05T10:41:12Z</time>
      </trkpt>
      <trkpt lat="43.39848" lon="16.92866">
        <ele>474.08</ele>
        <time>2018-10-05T10:41:32Z</time>
      </trkpt>
      <trkpt lat="43.39843" lon="16.92869">
        <ele>475.013</ele>
        <time>2018-10-05T10:41:52Z</time>
      </trkpt>
      <trkpt lat="43.3984" lon="16.92871">
        <ele>476.085</ele>
        <time>2018-10-05T10:42:12Z</time>
      </trkpt>
      <trkpt lat="43.39835" lon="16.92873">
        <ele>476.073</ele>
        <time>2018-10-05T10:42:32Z</time>
      </trkpt>
      <trkpt lat="43.39833" lon="16.92874">
        <ele>477.094</ele>
        <time>2018-10-05T10:42:52Z</time>
      </trkpt>
      <trkpt lat="43.39828" lon="16.92881">
        <ele>478.054</ele>
        <time>2018-10-05T10:43:12Z</time>
      </trkpt>
      <trkpt lat="43.39824" lon="16.92884">
        <ele>479.063</ele>
        <time>2018-10-05T10:43:32Z</time>
      </trkpt>
      <trkpt lat="43.39818" lon="16.92889">
        <ele>480.039</ele>
        <time>2018-10-05T10:43:52Z</time>
      </trkpt>
      <trkpt lat="43.39814" lon="16.92896">
        <ele>482.001</ele>
        <time>2018-10-05T10:44:12Z</time>
      </trkpt>
      <trkpt lat="43.39809" lon="16.92901">
        <ele>483.021</ele>
        <time>2018-10-05T10:44:32Z</time>
      </trkpt>
      <trkpt lat="43.39803" lon="16.92905">
        <ele>484.008</ele>
        <time>2018-10-05T10:44:52Z</time>
      </trkpt>
      <trkpt lat="43.39798" lon="16.92911">
        <ele>485.015</ele>
        <time>2018-10-05T10:45:12Z</time>
      </trkpt>
      <trkpt lat="43.39794" lon="16.92916">
        <ele>487.092</ele>
        <time>2018-10-05T10:45:32Z</time>
      </trkpt>
      <trkpt lat="43.39793" lon="16.9292">
        <ele>488.025</ele>
        <time>2018-10-05T10:45:52Z</time>
      </trkpt>
      <trkpt lat="43.3979" lon="16.92924">
        <ele>488.037</ele>
        <time>2018-10-05T10:46:12Z</time>
      </trkpt>
      <trkpt lat="43.39786" lon="16.92933">
        <ele>490.015</ele>
        <time>2018-10-05T10:46:32Z</time>
      </trkpt>
      <trkpt lat="43.39784" lon="16.92936">
        <ele>490.026</ele>
        <time>2018-10-05T10:46:52Z</time>
      </trkpt>
      <trkpt lat="43.3978" lon="16.92941">
        <ele>492.036</ele>
        <time>2018-10-05T10:47:12Z</time>
      </trkpt>
      <trkpt lat="43.39774" lon="16.92946">
        <ele>493.025</ele>
        <time>2018-10-05T10:47:32Z</time>
      </trkpt>
      <trkpt lat="43.39774" lon="16.92946">
        <ele>493.032</ele>
        <time>2018-10-05T10:47:52Z</time>
      </trkpt>
      <trkpt lat="43.3977" lon="16.92947">
        <ele>494.092</ele>
        <time>2018-10-05T10:48:12Z</time>
      </trkpt>
      <trkpt lat="43.39765" lon="16.9295">
        <ele>495.011</ele>
        <time>2018-10-05T10:48:32Z</time>
      </trkpt>
      <trkpt lat="43.39761" lon="16.9296">
        <ele>497.008</ele>
        <time>2018-10-05T10:48:52Z</time>
      </trkpt>
      <trkpt lat="43.3976" lon="16.92963">
        <ele>497.065</ele>
        <time>2018-10-05T10:49:12Z</time>
      </trkpt>
      <trkpt lat="43.39756" lon="16.92967">
        <ele>497.072</ele>
        <time>2018-10-05T10:49:32Z</time>
      </trkpt>
      <trkpt lat="43.39755" lon="16.92967">
        <ele>498.015</ele>
        <time>2018-10-05T10:49:52Z</time>
      </trkpt>
      <trkpt lat="43.39751" lon="16.92973">
        <ele>500.017</ele>
        <time>2018-10-05T10:50:12Z</time>
      </trkpt>
      <trkpt lat="43.39747" lon="16.92977">
        <ele>500.045</ele>
        <time>2018-10-05T10:50:32Z</time>
      </trkpt>
      <trkpt lat="43.39746" lon="16.92979">
        <ele>500.096</ele>
        <time>2018-10-05T10:50:52Z</time>
      </trkpt>
      <trkpt lat="43.39746" lon="16.92979">
        <ele>501.046</ele>
        <time>2018-10-05T10:51:12Z</time>
      </trkpt>
      <trkpt lat="43.39746" lon="16.9298">
        <ele>501.065</ele>
        <time>2018-10-05T10:51:32Z</time>
      </trkpt>
      <trkpt lat="43.39744" lon="16.92983">
        <ele>502.026</ele>
        <time>2018-10-05T10:51:52Z</time>
      </trkpt>
      <trkpt lat="43.39743" lon="16.92987">
        <ele>503.047</ele>
        <time>2018-10-05T10:52:12Z</time>
      </trkpt>
      <trkpt lat="43.39738" lon="16.9299">
        <ele>503.011</ele>
        <time>2018-10-05T10:52:32Z</time>
      </trkpt>
      <trkpt lat="43.39735" lon="16.92991">
        <ele>504.008</ele>
        <time>2018-10-05T10:52:52Z</time>
      </trkpt>
      <trkpt lat="43.39733" lon="16.92991">
        <ele>504.044</ele>
        <time>2018-10-05T10:53:12Z</time>
      </trkpt>
      <trkpt lat="43.39732" lon="16.92993">
        <ele>504.071</ele>
        <time>2018-10-05T10:53:32Z</time>
      </trkpt>
      <trkpt lat="43.39725" lon="16.92994">
        <ele>505.054</ele>
        <time>2018-10-05T10:53:52Z</time>
      </trkpt>
      <trkpt lat="43.39718" lon="16.93001">
        <ele>507.066</ele>
        <time>2018-10-05T10:54:12Z</time>
      </trkpt>
      <trkpt lat="43.39718" lon="16.93003">
        <ele>507.014</ele>
        <time>2018-10-05T10:54:32Z</time>
      </trkpt>
      <trkpt lat="43.39717" lon="16.93004">
        <ele>507.025</ele>
        <time>2018-10-05T10:54:52Z</time>
      </trkpt>
      <trkpt lat="43.39715" lon="16.93009">
        <ele>508.025</ele>
        <time>2018-10-05T10:55:12Z</time>
      </trkpt>
      <trkpt lat="43.39711" lon="16.93013">
        <ele>509.064</ele>
        <time>2018-10-05T10:55:32Z</time>
      </trkpt>
      <trkpt lat="43.39707" lon="16.93021">
        <ele>510.091</ele>
        <time>2018-10-05T10:55:52Z</time>
      </trkpt>
      <trkpt lat="43.39705" lon="16.93026">
        <ele>510.081</ele>
        <time>2018-10-05T10:56:12Z</time>
      </trkpt>
      <trkpt lat="43.39699" lon="16.93032">
        <ele>511.019</ele>
        <time>2018-10-05T10:56:32Z</time>
      </trkpt>
      <trkpt lat="43.39691" lon="16.93038">
        <ele>511.008</ele>
        <time>2018-10-05T10:56:52Z</time>
      </trkpt>
      <trkpt lat="43.39688" lon="16.93042">
        <ele>511.061</ele>
        <time>2018-10-05T10:57:12Z</time>
      </trkpt>
      <trkpt lat="43.3968" lon="16.9305">
        <ele>511.068</ele>
        <time>2018-10-05T10:57:32Z</time>
      </trkpt>
      <trkpt lat="43.39677" lon="16.93051">
        <ele>511.071</ele>
        <time>2018-10-05T10:57:52Z</time>
      </trkpt>
      <trkpt lat="43.39673" lon="16.93053">
        <ele>511.063</ele>
        <time>2018-10-05T10:58:12Z</time>
      </trkpt>
      <trkpt lat="43.3967" lon="16.93057">
        <ele>511.051</ele>
        <time>2018-10-05T10:58:32Z</time>
      </trkpt>
      <trkpt lat="43.39659" lon="16.93065">
        <ele>512.062</ele>
        <time>2018-10-05T10:58:52Z</time>
      </trkpt>
      <trkpt lat="43.39645" lon="16.9308">
        <ele>513.082</ele>
        <time>2018-10-05T10:59:12Z</time>
      </trkpt>
      <trkpt lat="43.3964" lon="16.93085">
        <ele>514.091</ele>
        <time>2018-10-05T10:59:32Z</time>
      </trkpt>
      <trkpt lat="43.39635" lon="16.93092">
        <ele>515.025</ele>
        <time>2018-10-05T10:59:52Z</time>
      </trkpt>
      <trkpt lat="43.3963" lon="16.93095">
        <ele>515.026</ele>
        <time>2018-10-05T11:00:12Z</time>
      </trkpt>
      <trkpt lat="43.39621" lon="16.93101">
        <ele>515.008</ele>
        <time>2018-10-05T11:00:32Z</time>
      </trkpt>
      <trkpt lat="43.39615" lon="16.93106">
        <ele>516.008</ele>
        <time>2018-10-05T11:00:52Z</time>
      </trkpt>
      <trkpt lat="43.39609" lon="16.93108">
        <ele>516.054</ele>
        <time>2018-10-05T11:01:12Z</time>
      </trkpt>
      <trkpt lat="43.39601" lon="16.93111">
        <ele>517.091</ele>
        <time>2018-10-05T11:01:32Z</time>
      </trkpt>
      <trkpt lat="43.39597" lon="16.93113">
        <ele>518.064</ele>
        <time>2018-10-05T11:01:52Z</time>
      </trkpt>
      <trkpt lat="43.39592" lon="16.93123">
        <ele>518.036</ele>
        <time>2018-10-05T11:02:12Z</time>
      </trkpt>
      <trkpt lat="43.39589" lon="16.93124">
        <ele>518.064</ele>
        <time>2018-10-05T11:02:32Z</time>
      </trkpt>
      <trkpt lat="43.39584" lon="16.93131">
        <ele>518.035</ele>
        <time>2018-10-05T11:02:52Z</time>
      </trkpt>
      <trkpt lat="43.39576" lon="16.93142">
        <ele>519.015</ele>
        <time>2018-10-05T11:03:12Z</time>
      </trkpt>
      <trkpt lat="43.39572" lon="16.93149">
        <ele>519.074</ele>
        <time>2018-10-05T11:03:32Z</time>
      </trkpt>
      <trkpt lat="43.39561" lon="16.93157">
        <ele>520.052</ele>
        <time>2018-10-05T11:03:52Z</time>
      </trkpt>
      <trkpt lat="43.39543" lon="16.93169">
        <ele>520.053</ele>
        <time>2018-10-05T11:04:12Z</time>
      </trkpt>
      <trkpt lat="43.39534" lon="16.93178">
        <ele>521.008</ele>
        <time>2018-10-05T11:04:32Z</time>
      </trkpt>
      <trkpt lat="43.39529" lon="16.93187">
        <ele>522.008</ele>
        <time>2018-10-05T11:04:52Z</time>
      </trkpt>
      <trkpt lat="43.39527" lon="16.9319">
        <ele>523.067</ele>
        <time>2018-10-05T11:05:12Z</time>
      </trkpt>
      <trkpt lat="43.39526" lon="16.93192">
        <ele>523.074</ele>
        <time>2018-10-05T11:05:32Z</time>
      </trkpt>
      <trkpt lat="43.39525" lon="16.93193">
        <ele>523.087</ele>
        <time>2018-10-05T11:05:52Z</time>
      </trkpt>
      <trkpt lat="43.39522" lon="16.93197">
        <ele>524.029</ele>
        <time>2018-10-05T11:06:12Z</time>
      </trkpt>
      <trkpt lat="43.39519" lon="16.93206">
        <ele>524.017</ele>
        <time>2018-10-05T11:06:32Z</time>
      </trkpt>
      <trkpt lat="43.39514" lon="16.93212">
        <ele>525.028</ele>
        <time>2018-10-05T11:06:52Z</time>
      </trkpt>
      <trkpt lat="43.39511" lon="16.93214">
        <ele>525.068</ele>
        <time>2018-10-05T11:07:12Z</time>
      </trkpt>
      <trkpt lat="43.39508" lon="16.93215">
        <ele>526.047</ele>
        <time>2018-10-05T11:07:32Z</time>
      </trkpt>
      <trkpt lat="43.39506" lon="16.93216">
        <ele>526.085</ele>
        <time>2018-10-05T11:07:52Z</time>
      </trkpt>
      <trkpt lat="43.39505" lon="16.93216">
        <ele>527.089</ele>
        <time>2018-10-05T11:08:12Z</time>
      </trkpt>
      <trkpt lat="43.39505" lon="16.93218">
        <ele>527.017</ele>
        <time>2018-10-05T11:08:32Z</time>
      </trkpt>
      <trkpt lat="43.39498" lon="16.93219">
        <ele>528.008</ele>
        <time>2018-10-05T11:08:52Z</time>
      </trkpt>
      <trkpt lat="43.39492" lon="16.93223">
        <ele>529.01</ele>
        <time>2018-10-05T11:09:12Z</time>
      </trkpt>
      <trkpt lat="43.39484" lon="16.93231">
        <ele>529.067</ele>
        <time>2018-10-05T11:09:32Z</time>
      </trkpt>
      <trkpt lat="43.39483" lon="16.93232">
        <ele>529.02</ele>
        <time>2018-10-05T11:09:52Z</time>
      </trkpt>
      <trkpt lat="43.39477" lon="16.93233">
        <ele>529.012</ele>
        <time>2018-10-05T11:10:12Z</time>
      </trkpt>
      <trkpt lat="43.39476" lon="16.93234">
        <ele>529.09</ele>
        <time>2018-10-05T11:10:32Z</time>
      </trkpt>
      <trkpt lat="43.39475" lon="16.93234">
        <ele>530.071</ele>
        <time>2018-10-05T11:10:52Z</time>
      </trkpt>
      <trkpt lat="43.39468" lon="16.93241">
        <ele>530.071</ele>
        <time>2018-10-05T11:11:12Z</time>
      </trkpt>
      <trkpt lat="43.39459" lon="16.9325">
        <ele>531.02</ele>
        <time>2018-10-05T11:11:32Z</time>
      </trkpt>
      <trkpt lat="43.39456" lon="16.93254">
        <ele>531.072</ele>
        <time>2018-10-05T11:11:52Z</time>
      </trkpt>
      <trkpt lat="43.39451" lon="16.93258">
        <ele>531.013</ele>
        <time>2018-10-05T11:12:12Z</time>
      </trkpt>
      <trkpt lat="43.39446" lon="16.93263">
        <ele>531.014</ele>
        <time>2018-10-05T11:12:32Z</time>
      </trkpt>
      <trkpt lat="43.39445" lon="16.9327">
        <ele>532.008</ele>
        <time>2018-10-05T11:12:52Z</time>
      </trkpt>
      <trkpt lat="43.39445" lon="16.93271">
        <ele>532.089</ele>
        <time>2018-10-05T11:13:12Z</time>
      </trkpt>
      <trkpt lat="43.39443" lon="16.93286">
        <ele>533.036</ele>
        <time>2018-10-05T11:13:32Z</time>
      </trkpt>
      <trkpt lat="43.3944" lon="16.93298">
        <ele>535.089</ele>
        <time>2018-10-05T11:13:52Z</time>
      </trkpt>
      <trkpt lat="43.39439" lon="16.93303">
        <ele>535.031</ele>
        <time>2018-10-05T11:14:12Z</time>
      </trkpt>
      <trkpt lat="43.39432" lon="16.93313">
        <ele>537.049</ele>
        <time>2018-10-05T11:14:32Z</time>
      </trkpt>
      <trkpt lat="43.39427" lon="16.93322">
        <ele>537.07</ele>
        <time>2018-10-05T11:14:52Z</time>
      </trkpt>
      <trkpt lat="43.39425" lon="16.93326">
        <ele>538.05</ele>
        <time>2018-10-05T11:15:12Z</time>
      </trkpt>
      <trkpt lat="43.39424" lon="16.93329">
        <ele>538.079</ele>
        <time>2018-10-05T11:15:32Z</time>
      </trkpt>
      <trkpt lat="43.39423" lon="16.93333">
        <ele>539.079</ele>
        <time>2018-10-05T11:15:52Z</time>
      </trkpt>
      <trkpt lat="43.39423" lon="16.93335">
        <ele>539.005</ele>
        <time>2018-10-05T11:16:12Z</time>
      </trkpt>
      <trkpt lat="43.39422" lon="16.93336">
        <ele>540.025</ele>
        <time>2018-10-05T11:16:32Z</time>
      </trkpt>
      <trkpt lat="43.39421" lon="16.9334">
        <ele>541.008</ele>
        <time>2018-10-05T11:16:52Z</time>
      </trkpt>
      <trkpt lat="43.39421" lon="16.93347">
        <ele>542.039</ele>
        <time>2018-10-05T11:17:12Z</time>
      </trkpt>
      <trkpt lat="43.39421" lon="16.93349">
        <ele>542.026</ele>
        <time>2018-10-05T11:17:32Z</time>
      </trkpt>
      <trkpt lat="43.39421" lon="16.93355">
        <ele>542.019</ele>
        <time>2018-10-05T11:17:52Z</time>
      </trkpt>
      <trkpt lat="43.39418" lon="16.93363">
        <ele>543.091</ele>
        <time>2018-10-05T11:18:12Z</time>
      </trkpt>
      <trkpt lat="43.39418" lon="16.93367">
        <ele>544.049</ele>
        <time>2018-10-05T11:18:32Z</time>
      </trkpt>
      <trkpt lat="43.39415" lon="16.93375">
        <ele>545.07</ele>
        <time>2018-10-05T11:18:52Z</time>
      </trkpt>
      <trkpt lat="43.3941" lon="16.93384">
        <ele>546.04</ele>
        <time>2018-10-05T11:19:12Z</time>
      </trkpt>
      <trkpt lat="43.39408" lon="16.93388">
        <ele>547.029</ele>
        <time>2018-10-05T11:19:32Z</time>
      </trkpt>
      <trkpt lat="43.39407" lon="16.93391">
        <ele>548.012</ele>
        <time>2018-10-05T11:19:52Z</time>
      </trkpt>
      <trkpt lat="43.39406" lon="16.93392">
        <ele>549.032</ele>
        <time>2018-10-05T11:20:12Z</time>
      </trkpt>
      <trkpt lat="43.39403" lon="16.93396">
        <ele>551.005</ele>
        <time>2018-10-05T11:20:32Z</time>
      </trkpt>
      <trkpt lat="43.39402" lon="16.934">
        <ele>552.008</ele>
        <time>2018-10-05T11:20:52Z</time>
      </trkpt>
      <trkpt lat="43.39401" lon="16.93402">
        <ele>553.093</ele>
        <time>2018-10-05T11:21:12Z</time>
      </trkpt>
      <trkpt lat="43.394" lon="16.93404">
        <ele>554.02</ele>
        <time>2018-10-05T11:21:32Z</time>
      </trkpt>
      <trkpt lat="43.39398" lon="16.93406">
        <ele>555.083</ele>
        <time>2018-10-05T11:21:52Z</time>
      </trkpt>
      <trkpt lat="43.39394" lon="16.93405">
        <ele>556.085</ele>
        <time>2018-10-05T11:22:12Z</time>
      </trkpt>
      <trkpt lat="43.39391" lon="16.93408">
        <ele>557.063</ele>
        <time>2018-10-05T11:22:32Z</time>
      </trkpt>
      <trkpt lat="43.39388" lon="16.9341">
        <ele>557.044</ele>
        <time>2018-10-05T11:22:52Z</time>
      </trkpt>
      <trkpt lat="43.39385" lon="16.93415">
        <ele>558.094</ele>
        <time>2018-10-05T11:23:12Z</time>
      </trkpt>
      <trkpt lat="43.39382" lon="16.93419">
        <ele>559.093</ele>
        <time>2018-10-05T11:23:32Z</time>
      </trkpt>
      <trkpt lat="43.39381" lon="16.93423">
        <ele>560.039</ele>
        <time>2018-10-05T11:23:52Z</time>
      </trkpt>
      <trkpt lat="43.39381" lon="16.93427">
        <ele>562.001</ele>
        <time>2018-10-05T11:24:12Z</time>
      </trkpt>
      <trkpt lat="43.39381" lon="16.93428">
        <ele>562.021</ele>
        <time>2018-10-05T11:24:32Z</time>
      </trkpt>
      <trkpt lat="43.39381" lon="16.93429">
        <ele>563.008</ele>
        <time>2018-10-05T11:24:52Z</time>
      </trkpt>
      <trkpt lat="43.39378" lon="16.93428">
        <ele>563.085</ele>
        <time>2018-10-05T11:25:12Z</time>
      </trkpt>
      <trkpt lat="43.39374" lon="16.93428">
        <ele>565.092</ele>
        <time>2018-10-05T11:25:32Z</time>
      </trkpt>
      <trkpt lat="43.3937" lon="16.93428">
        <ele>566.035</ele>
        <time>2018-10-05T11:25:52Z</time>
      </trkpt>
      <trkpt lat="43.39369" lon="16.93428">
        <ele>567.047</ele>
        <time>2018-10-05T11:26:12Z</time>
      </trkpt>
      <trkpt lat="43.39364" lon="16.9343">
        <ele>569.035</ele>
        <time>2018-10-05T11:26:32Z</time>
      </trkpt>
      <trkpt lat="43.39361" lon="16.93435">
        <ele>569.056</ele>
        <time>2018-10-05T11:26:52Z</time>
      </trkpt>
      <trkpt lat="43.39361" lon="16.93436">
        <ele>570.056</ele>
        <time>2018-10-05T11:27:12Z</time>
      </trkpt>
      <trkpt lat="43.39358" lon="16.93444">
        <ele>571.085</ele>
        <time>2018-10-05T11:27:32Z</time>
      </trkpt>
      <trkpt lat="43.39358" lon="16.9345">
        <ele>572.078</ele>
        <time>2018-10-05T11:27:52Z</time>
      </trkpt>
      <trkpt lat="43.39358" lon="16.93452">
        <ele>573.033</ele>
        <time>2018-10-05T11:28:12Z</time>
      </trkpt>
      <trkpt lat="43.39357" lon="16.93453">
        <ele>573.026</ele>
        <time>2018-10-05T11:28:32Z</time>
      </trkpt>
      <trkpt lat="43.39353" lon="16.93453">
        <ele>574.008</ele>
        <time>2018-10-05T11:28:52Z</time>
      </trkpt>
      <trkpt lat="43.3935" lon="16.93452">
        <ele>574.069</ele>
        <time>2018-10-05T11:29:12Z</time>
      </trkpt>
      <trkpt lat="43.39346" lon="16.93451">
        <ele>576.066</ele>
        <time>2018-10-05T11:29:32Z</time>
      </trkpt>
      <trkpt lat="43.39343" lon="16.93452">
        <ele>576.049</ele>
        <time>2018-10-05T11:29:52Z</time>
      </trkpt>
      <trkpt lat="43.39338" lon="16.93453">
        <ele>577.041</ele>
        <time>2018-10-05T11:30:12Z</time>
      </trkpt>
      <trkpt lat="43.39333" lon="16.93452">
        <ele>578.069</ele>
        <time>2018-10-05T11:30:32Z</time>
      </trkpt>
      <trkpt lat="43.3933" lon="16.93451">
        <ele>578.01</ele>
        <time>2018-10-05T11:30:52Z</time>
      </trkpt>
      <trkpt lat="43.39327" lon="16.9345">
        <ele>579.05</ele>
        <time>2018-10-05T11:31:12Z</time>
      </trkpt>
      <trkpt lat="43.39325" lon="16.93449">
        <ele>580.019</ele>
        <time>2018-10-05T11:31:32Z</time>
      </trkpt>
      <trkpt lat="43.39324" lon="16.93448">
        <ele>580.033</ele>
        <time>2018-10-05T11:31:52Z</time>
      </trkpt>
      <trkpt lat="43.39321" lon="16.93448">
        <ele>581.023</ele>
        <time>2018-10-05T11:32:12Z</time>
      </trkpt>
      <trkpt lat="43.39316" lon="16.93448">
        <ele>582.015</ele>
        <time>2018-10-05T11:32:32Z</time>
      </trkpt>
      <trkpt lat="43.39313" lon="16.93447">
        <ele>583.008</ele>
        <time>2018-10-05T11:32:52Z</time>
      </trkpt>
      <trkpt lat="43.39312" lon="16.93446">
        <ele>584.015</ele>
        <time>2018-10-05T11:33:12Z</time>
      </trkpt>
      <trkpt lat="43.3931" lon="16.93436">
        <ele>582.062</ele>
        <time>2018-10-05T11:33:32Z</time>
      </trkpt>
      <trkpt lat="43.39311" lon="16.93424">
        <ele>580.025</ele>
        <time>2018-10-05T11:33:52Z</time>
      </trkpt>
      <trkpt lat="43.39313" lon="16.93409">
        <ele>577.017</ele>
        <time>2018-10-05T11:34:12Z</time>
      </trkpt>
      <trkpt lat="43.39315" lon="16.93399">
        <ele>576.025</ele>
        <time>2018-10-05T11:34:32Z</time>
      </trkpt>
      <trkpt lat="43.39314" lon="16.93393">
        <ele>575.046</ele>
        <time>2018-10-05T11:34:52Z</time>
      </trkpt>
      <trkpt lat="43.39314" lon="16.93382">
        <ele>574.076</ele>
        <time>2018-10-05T11:35:12Z</time>
      </trkpt>
      <trkpt lat="43.39315" lon="16.93375">
        <ele>574.085</ele>
        <time>2018-10-05T11:35:32Z</time>
      </trkpt>
      <trkpt lat="43.3931" lon="16.93379">
        <ele>574.045</ele>
        <time>2018-10-05T11:35:52Z</time>
      </trkpt>
      <trkpt lat="43.39309" lon="16.93382">
        <ele>573.047</ele>
        <time>2018-10-05T11:36:12Z</time>
      </trkpt>
      <trkpt lat="43.39308" lon="16.93387">
        <ele>572.011</ele>
        <time>2018-10-05T11:36:32Z</time>
      </trkpt>
      <trkpt lat="43.39305" lon="16.93382">
        <ele>570.008</ele>
        <time>2018-10-05T11:36:52Z</time>
      </trkpt>
      <trkpt lat="43.39303" lon="16.93371">
        <ele>567.066</ele>
        <time>2018-10-05T11:37:12Z</time>
      </trkpt>
      <trkpt lat="43.39304" lon="16.93358">
        <ele>566.073</ele>
        <time>2018-10-05T11:37:32Z</time>
      </trkpt>
      <trkpt lat="43.39305" lon="16.93353">
        <ele>565.076</ele>
        <time>2018-10-05T11:37:52Z</time>
      </trkpt>
      <trkpt lat="43.39308" lon="16.93343">
        <ele>563.098</ele>
        <time>2018-10-05T11:38:12Z</time>
      </trkpt>
      <trkpt lat="43.39309" lon="16.93329">
        <ele>562.046</ele>
        <time>2018-10-05T11:38:32Z</time>
      </trkpt>
      <trkpt lat="43.39308" lon="16.93313">
        <ele>559.087</ele>
        <time>2018-10-05T11:38:52Z</time>
      </trkpt>
      <trkpt lat="43.39311" lon="16.93308">
        <ele>558.077</ele>
        <time>2018-10-05T11:39:12Z</time>
      </trkpt>
      <trkpt lat="43.39311" lon="16.93304">
        <ele>558.086</ele>
        <time>2018-10-05T11:39:32Z</time>
      </trkpt>
      <trkpt lat="43.3931" lon="16.93302">
        <ele>558.034</ele>
        <time>2018-10-05T11:39:52Z</time>
      </trkpt>
      <trkpt lat="43.39306" lon="16.93307">
        <ele>556.055</ele>
        <time>2018-10-05T11:40:12Z</time>
      </trkpt>
      <trkpt lat="43.39296" lon="16.93323">
        <ele>554.01</ele>
        <time>2018-10-05T11:40:32Z</time>
      </trkpt>
      <trkpt lat="43.39287" lon="16.93336">
        <ele>552.008</ele>
        <time>2018-10-05T11:40:52Z</time>
      </trkpt>
      <trkpt lat="43.39284" lon="16.93355">
        <ele>549.015</ele>
        <time>2018-10-05T11:41:12Z</time>
      </trkpt>
      <trkpt lat="43.39281" lon="16.93363">
        <ele>548.082</ele>
        <time>2018-10-05T11:41:32Z</time>
      </trkpt>
      <trkpt lat="43.39276" lon="16.93365">
        <ele>547.095</ele>
        <time>2018-10-05T11:41:52Z</time>
      </trkpt>
      <trkpt lat="43.39273" lon="16.93365">
        <ele>545.037</ele>
        <time>2018-10-05T11:42:12Z</time>
      </trkpt>
      <trkpt lat="43.39267" lon="16.93362">
        <ele>543.095</ele>
        <time>2018-10-05T11:42:32Z</time>
      </trkpt>
      <trkpt lat="43.39263" lon="16.9336">
        <ele>542.086</ele>
        <time>2018-10-05T11:42:52Z</time>
      </trkpt>
      <trkpt lat="43.39256" lon="16.93358">
        <ele>540.016</ele>
        <time>2018-10-05T11:43:12Z</time>
      </trkpt>
      <trkpt lat="43.39254" lon="16.93358">
        <ele>539.015</ele>
        <time>2018-10-05T11:43:32Z</time>
      </trkpt>
      <trkpt lat="43.39249" lon="16.93362">
        <ele>537.037</ele>
        <time>2018-10-05T11:43:52Z</time>
      </trkpt>
      <trkpt lat="43.39245" lon="16.93363">
        <ele>534.049</ele>
        <time>2018-10-05T11:44:12Z</time>
      </trkpt>
      <trkpt lat="43.39243" lon="16.93363">
        <ele>534.013</ele>
        <time>2018-10-05T11:44:32Z</time>
      </trkpt>
      <trkpt lat="43.39239" lon="16.93362">
        <ele>534.008</ele>
        <time>2018-10-05T11:44:52Z</time>
      </trkpt>
      <trkpt lat="43.39234" lon="16.93361">
        <ele>532.085</ele>
        <time>2018-10-05T11:45:12Z</time>
      </trkpt>
      <trkpt lat="43.39232" lon="16.93361">
        <ele>532.012</ele>
        <time>2018-10-05T11:45:32Z</time>
      </trkpt>
      <trkpt lat="43.39231" lon="16.93358">
        <ele>531.035</ele>
        <time>2018-10-05T11:45:52Z</time>
      </trkpt>
      <trkpt lat="43.3923" lon="16.93357">
        <ele>530.027</ele>
        <time>2018-10-05T11:46:12Z</time>
      </trkpt>
      <trkpt lat="43.39227" lon="16.93358">
        <ele>529.015</ele>
        <time>2018-10-05T11:46:32Z</time>
      </trkpt>
      <trkpt lat="43.39221" lon="16.93365">
        <ele>528.026</ele>
        <time>2018-10-05T11:46:52Z</time>
      </trkpt>
      <trkpt lat="43.39218" lon="16.93375">
        <ele>525.086</ele>
        <time>2018-10-05T11:47:12Z</time>
      </trkpt>
      <trkpt lat="43.39217" lon="16.93379">
        <ele>524.045</ele>
        <time>2018-10-05T11:47:32Z</time>
      </trkpt>
      <trkpt lat="43.39215" lon="16.93384">
        <ele>523.075</ele>
        <time>2018-10-05T11:47:52Z</time>
      </trkpt>
      <trkpt lat="43.39213" lon="16.93388">
        <ele>521.028</ele>
        <time>2018-10-05T11:48:12Z</time>
      </trkpt>
      <trkpt lat="43.39212" lon="16.93389">
        <ele>520.02</ele>
        <time>2018-10-05T11:48:32Z</time>
      </trkpt>
      <trkpt lat="43.39207" lon="16.93387">
        <ele>519.008</ele>
        <time>2018-10-05T11:48:52Z</time>
      </trkpt>
      <trkpt lat="43.39203" lon="16.93389">
        <ele>517.039</ele>
        <time>2018-10-05T11:49:12Z</time>
      </trkpt>
      <trkpt lat="43.39198" lon="16.9339">
        <ele>516.086</ele>
        <time>2018-10-05T11:49:32Z</time>
      </trkpt>
      <trkpt lat="43.39195" lon="16.93391">
        <ele>515.099</ele>
        <time>2018-10-05T11:49:52Z</time>
      </trkpt>
      <trkpt lat="43.39191" lon="16.93393">
        <ele>514.031</ele>
        <time>2018-10-05T11:50:12Z</time>
      </trkpt>
      <trkpt lat="43.39184" lon="16.93399">
        <ele>511.019</ele>
        <time>2018-10-05T11:50:32Z</time>
      </trkpt>
      <trkpt lat="43.3918" lon="16.93399">
        <ele>510.09</ele>
        <time>2018-10-05T11:50:52Z</time>
      </trkpt>
      <trkpt lat="43.39179" lon="16.93398">
        <ele>510.02</ele>
        <time>2018-10-05T11:51:12Z</time>
      </trkpt>
      <trkpt lat="43.39174" lon="16.93403">
        <ele>508.039</ele>
        <time>2018-10-05T11:51:32Z</time>
      </trkpt>
      <trkpt lat="43.39172" lon="16.93408">
        <ele>507.026</ele>
        <time>2018-10-05T11:51:52Z</time>
      </trkpt>
      <trkpt lat="43.39171" lon="16.93409">
        <ele>507.047</ele>
        <time>2018-10-05T11:52:12Z</time>
      </trkpt>
      <trkpt lat="43.39168" lon="16.93414">
        <ele>505.011</ele>
        <time>2018-10-05T11:52:32Z</time>
      </trkpt>
      <trkpt lat="43.39163" lon="16.93419">
        <ele>504.008</ele>
        <time>2018-10-05T11:52:52Z</time>
      </trkpt>
      <trkpt lat="43.3916" lon="16.93423">
        <ele>502.054</ele>
        <time>2018-10-05T11:53:12Z</time>
      </trkpt>
      <trkpt lat="43.39159" lon="16.93423">
        <ele>502.041</ele>
        <time>2018-10-05T11:53:32Z</time>
      </trkpt>
      <trkpt lat="43.39156" lon="16.93419">
        <ele>500.084</ele>
        <time>2018-10-05T11:53:52Z</time>
      </trkpt>
      <trkpt lat="43.3915" lon="16.93412">
        <ele>497.066</ele>
        <time>2018-10-05T11:54:12Z</time>
      </trkpt>
      <trkpt lat="43.39146" lon="16.93409">
        <ele>496.034</ele>
        <time>2018-10-05T11:54:32Z</time>
      </trkpt>
      <trkpt lat="43.39143" lon="16.93413">
        <ele>494.065</ele>
        <time>2018-10-05T11:54:52Z</time>
      </trkpt>
      <trkpt lat="43.39141" lon="16.9341">
        <ele>493.065</ele>
        <time>2018-10-05T11:55:12Z</time>
      </trkpt>
      <trkpt lat="43.39136" lon="16.93407">
        <ele>491.014</ele>
        <time>2018-10-05T11:55:32Z</time>
      </trkpt>
      <trkpt lat="43.39136" lon="16.93405">
        <ele>491.055</ele>
        <time>2018-10-05T11:55:52Z</time>
      </trkpt>
      <trkpt lat="43.39133" lon="16.93407">
        <ele>490.007</ele>
        <time>2018-10-05T11:56:12Z</time>
      </trkpt>
      <trkpt lat="43.3913" lon="16.93407">
        <ele>488.017</ele>
        <time>2018-10-05T11:56:32Z</time>
      </trkpt>
      <trkpt lat="43.3912" lon="16.9341">
        <ele>486.008</ele>
        <time>2018-10-05T11:56:52Z</time>
      </trkpt>
      <trkpt lat="43.39116" lon="16.93413">
        <ele>485.037</ele>
        <time>2018-10-05T11:57:12Z</time>
      </trkpt>
      <trkpt lat="43.3911" lon="16.93413">
        <ele>482.034</ele>
        <time>2018-10-05T11:57:32Z</time>
      </trkpt>
      <trkpt lat="43.39109" lon="16.93412">
        <ele>482.037</ele>
        <time>2018-10-05T11:57:52Z</time>
      </trkpt>
      <trkpt lat="43.39107" lon="16.9341">
        <ele>482.079</ele>
        <time>2018-10-05T11:58:12Z</time>
      </trkpt>
      <trkpt lat="43.39105" lon="16.9341">
        <ele>481.017</ele>
        <time>2018-10-05T11:58:32Z</time>
      </trkpt>
      <trkpt lat="43.39101" lon="16.93411">
        <ele>480.038</ele>
        <time>2018-10-05T11:58:52Z</time>
      </trkpt>
      <trkpt lat="43.39098" lon="16.93411">
        <ele>479.088</ele>
        <time>2018-10-05T11:59:12Z</time>
      </trkpt>
      <trkpt lat="43.39093" lon="16.93412">
        <ele>478.017</ele>
        <time>2018-10-05T11:59:32Z</time>
      </trkpt>
      <trkpt lat="43.3909" lon="16.93412">
        <ele>476.066</ele>
        <time>2018-10-05T11:59:52Z</time>
      </trkpt>
      <trkpt lat="43.39087" lon="16.9341">
        <ele>475.029</ele>
        <time>2018-10-05T12:00:12Z</time>
      </trkpt>
      <trkpt lat="43.39086" lon="16.93408">
        <ele>474.021</ele>
        <time>2018-10-05T12:00:32Z</time>
      </trkpt>
      <trkpt lat="43.39083" lon="16.93407">
        <ele>472.008</ele>
        <time>2018-10-05T12:00:52Z</time>
      </trkpt>
      <trkpt lat="43.3908" lon="16.93412">
        <ele>471.098</ele>
        <time>2018-10-05T12:01:12Z</time>
      </trkpt>
      <trkpt lat="43.39077" lon="16.93417">
        <ele>469.035</ele>
        <time>2018-10-05T12:01:32Z</time>
      </trkpt>
      <trkpt lat="43.39077" lon="16.93417">
        <ele>468.018</ele>
        <time>2018-10-05T12:01:52Z</time>
      </trkpt>
      <trkpt lat="43.39074" lon="16.93418">
        <ele>466.02</ele>
        <time>2018-10-05T12:02:12Z</time>
      </trkpt>
      <trkpt lat="43.3907" lon="16.93411">
        <ele>465.018</ele>
        <time>2018-10-05T12:02:32Z</time>
      </trkpt>
      <trkpt lat="43.39069" lon="16.93398">
        <ele>464.039</ele>
        <time>2018-10-05T12:02:52Z</time>
      </trkpt>
      <trkpt lat="43.39064" lon="16.93401">
        <ele>463.039</ele>
        <time>2018-10-05T12:03:12Z</time>
      </trkpt>
      <trkpt lat="43.3906" lon="16.93399">
        <ele>463.088</ele>
        <time>2018-10-05T12:03:32Z</time>
      </trkpt>
      <trkpt lat="43.39057" lon="16.93401">
        <ele>462.023</ele>
        <time>2018-10-05T12:03:52Z</time>
      </trkpt>
      <trkpt lat="43.39054" lon="16.934">
        <ele>460.083</ele>
        <time>2018-10-05T12:04:12Z</time>
      </trkpt>
      <trkpt lat="43.39052" lon="16.934">
        <ele>460.011</ele>
        <time>2018-10-05T12:04:32Z</time>
      </trkpt>
      <trkpt lat="43.39045" lon="16.93402">
        <ele>459.008</ele>
        <time>2018-10-05T12:04:52Z</time>
      </trkpt>
      <trkpt lat="43.39037" lon="16.93407">
        <ele>458.044</ele>
        <time>2018-10-05T12:05:12Z</time>
      </trkpt>
      <trkpt lat="43.39036" lon="16.93414">
        <ele>459.081</ele>
        <time>2018-10-05T12:05:32Z</time>
      </trkpt>
      <trkpt lat="43.39027" lon="16.93419">
        <ele>460.024</ele>
        <time>2018-10-05T12:05:52Z</time>
      </trkpt>
      <trkpt lat="43.39021" lon="16.93422">
        <ele>460.026</ele>
        <time>2018-10-05T12:06:12Z</time>
      </trkpt>
      <trkpt lat="43.39009" lon="16.93425">
        <ele>459.074</ele>
        <time>2018-10-05T12:06:32Z</time>
      </trkpt>
      <trkpt lat="43.39006" lon="16.93425">
        <ele>459.085</ele>
        <time>2018-10-05T12:06:52Z</time>
      </trkpt>
      <trkpt lat="43.39001" lon="16.93426">
        <ele>458.055</ele>
        <time>2018-10-05T12:07:12Z</time>
      </trkpt>
      <trkpt lat="43.38996" lon="16.93423">
        <ele>457.024</ele>
        <time>2018-10-05T12:07:32Z</time>
      </trkpt>
      <trkpt lat="43.38988" lon="16.93423">
        <ele>457.077</ele>
        <time>2018-10-05T12:07:52Z</time>
      </trkpt>
      <trkpt lat="43.38984" lon="16.93425">
        <ele>457.061</ele>
        <time>2018-10-05T12:08:12Z</time>
      </trkpt>
      <trkpt lat="43.38967" lon="16.93427">
        <ele>457.027</ele>
        <time>2018-10-05T12:08:32Z</time>
      </trkpt>
      <trkpt lat="43.38966" lon="16.9343">
        <ele>457.008</ele>
        <time>2018-10-05T12:08:52Z</time>
      </trkpt>
      <trkpt lat="43.38954" lon="16.93429">
        <ele>457.099</ele>
        <time>2018-10-05T12:09:12Z</time>
      </trkpt>
      <trkpt lat="43.38951" lon="16.93427">
        <ele>455.086</ele>
        <time>2018-10-05T12:09:32Z</time>
      </trkpt>
      <trkpt lat="43.38949" lon="16.93427">
        <ele>455.089</ele>
        <time>2018-10-05T12:09:52Z</time>
      </trkpt>
      <trkpt lat="43.38944" lon="16.93426">
        <ele>454.051</ele>
        <time>2018-10-05T12:10:12Z</time>
      </trkpt>
      <trkpt lat="43.38941" lon="16.93423">
        <ele>454.019</ele>
        <time>2018-10-05T12:10:32Z</time>
      </trkpt>
      <trkpt lat="43.3894" lon="16.93422">
        <ele>453.06</ele>
        <time>2018-10-05T12:10:52Z</time>
      </trkpt>
      <trkpt lat="43.38932" lon="16.93419">
        <ele>451.08</ele>
        <time>2018-10-05T12:11:12Z</time>
      </trkpt>
      <trkpt lat="43.38925" lon="16.93416">
        <ele>450.019</ele>
        <time>2018-10-05T12:11:32Z</time>
      </trkpt>
      <trkpt lat="43.38922" lon="16.93414">
        <ele>448.083</ele>
        <time>2018-10-05T12:11:52Z</time>
      </trkpt>
      <trkpt lat="43.38918" lon="16.93412">
        <ele>447.025</ele>
        <time>2018-10-05T12:12:12Z</time>
      </trkpt>
      <trkpt lat="43.38914" lon="16.93408">
        <ele>446.017</ele>
        <time>2018-10-05T12:12:32Z</time>
      </trkpt>
      <trkpt lat="43.38908" lon="16.93399">
        <ele>445.008</ele>
        <time>2018-10-05T12:12:52Z</time>
      </trkpt>
      <trkpt lat="43.38906" lon="16.93398">
        <ele>445.01</ele>
        <time>2018-10-05T12:13:12Z</time>
      </trkpt>
      <trkpt lat="43.38904" lon="16.93394">
        <ele>444.087</ele>
        <time>2018-10-05T12:13:32Z</time>
      </trkpt>
      <trkpt lat="43.38898" lon="16.93384">
        <ele>441.02</ele>
        <time>2018-10-05T12:13:52Z</time>
      </trkpt>
      <trkpt lat="43.38895" lon="16.9338">
        <ele>439.042</ele>
        <time>2018-10-05T12:14:12Z</time>
      </trkpt>
      <trkpt lat="43.3889" lon="16.93375">
        <ele>438.09</ele>
        <time>2018-10-05T12:14:32Z</time>
      </trkpt>
      <trkpt lat="43.38889" lon="16.93374">
        <ele>438.071</ele>
        <time>2018-10-05T12:14:52Z</time>
      </trkpt>
      <trkpt lat="43.38888" lon="16.93373">
        <ele>438.011</ele>
        <time>2018-10-05T12:15:12Z</time>
      </trkpt>
      <trkpt lat="43.38883" lon="16.93372">
        <ele>437.09</ele>
        <time>2018-10-05T12:15:32Z</time>
      </trkpt>
      <trkpt lat="43.3888" lon="16.93373">
        <ele>436.032</ele>
        <time>2018-10-05T12:15:52Z</time>
      </trkpt>
      <trkpt lat="43.38871" lon="16.93373">
        <ele>435.092</ele>
        <time>2018-10-05T12:16:12Z</time>
      </trkpt>
      <trkpt lat="43.38869" lon="16.93374">
        <ele>435.011</ele>
        <time>2018-10-05T12:16:32Z</time>
      </trkpt>
      <trkpt lat="43.38864" lon="16.93372">
        <ele>434.008</ele>
        <time>2018-10-05T12:16:52Z</time>
      </trkpt>
      <trkpt lat="43.38859" lon="16.93369">
        <ele>433.075</ele>
        <time>2018-10-05T12:17:12Z</time>
      </trkpt>
      <trkpt lat="43.38853" lon="16.93363">
        <ele>432.092</ele>
        <time>2018-10-05T12:17:32Z</time>
      </trkpt>
      <trkpt lat="43.38843" lon="16.93355">
        <ele>430.095</ele>
        <time>2018-10-05T12:17:52Z</time>
      </trkpt>
      <trkpt lat="43.38838" lon="16.93352">
        <ele>430.067</ele>
        <time>2018-10-05T12:18:12Z</time>
      </trkpt>
      <trkpt lat="43.3883" lon="16.93346">
        <ele>429.055</ele>
        <time>2018-10-05T12:18:32Z</time>
      </trkpt>
      <trkpt lat="43.3882" lon="16.93341">
        <ele>428.056</ele>
        <time>2018-10-05T12:18:52Z</time>
      </trkpt>
      <trkpt lat="43.38808" lon="16.93331">
        <ele>427.036</ele>
        <time>2018-10-05T12:19:12Z</time>
      </trkpt>
      <trkpt lat="43.38805" lon="16.93322">
        <ele>426.055</ele>
        <time>2018-10-05T12:19:32Z</time>
      </trkpt>
      <trkpt lat="43.38798" lon="16.93298">
        <ele>427.034</ele>
        <time>2018-10-05T12:19:52Z</time>
      </trkpt>
      <trkpt lat="43.38807" lon="16.93284">
        <ele>428.055</ele>
        <time>2018-10-05T12:20:12Z</time>
      </trkpt>
      <trkpt lat="43.38812" lon="16.93265">
        <ele>430.01</ele>
        <time>2018-10-05T12:20:32Z</time>
      </trkpt>
      <trkpt lat="43.38815" lon="16.93256">
        <ele>431.008</ele>
        <time>2018-10-05T12:20:52Z</time>
      </trkpt>
      <trkpt lat="43.38819" lon="16.93245">
        <ele>431.065</ele>
        <time>2018-10-05T12:21:12Z</time>
      </trkpt>
      <trkpt lat="43.38822" lon="16.93234">
        <ele>432.052</ele>
        <time>2018-10-05T12:21:32Z</time>
      </trkpt>
      <trkpt lat="43.38823" lon="16.93217">
        <ele>433.095</ele>
        <time>2018-10-05T12:21:52Z</time>
      </trkpt>
      <trkpt lat="43.38824" lon="16.93211">
        <ele>434.047</ele>
        <time>2018-10-05T12:22:12Z</time>
      </trkpt>
      <trkpt lat="43.38825" lon="16.93194">
        <ele>437.055</ele>
        <time>2018-10-05T12:22:32Z</time>
      </trkpt>
      <trkpt lat="43.38824" lon="16.93182">
        <ele>438.046</ele>
        <time>2018-10-05T12:22:52Z</time>
      </trkpt>
      <trkpt lat="43.38823" lon="16.93173">
        <ele>440.056</ele>
        <time>2018-10-05T12:23:12Z</time>
      </trkpt>
      <trkpt lat="43.3882" lon="16.93166">
        <ele>441.095</ele>
        <time>2018-10-05T12:23:32Z</time>
      </trkpt>
      <trkpt lat="43.38818" lon="16.93159">
        <ele>442.057</ele>
        <time>2018-10-05T12:23:52Z</time>
      </trkpt>
      <trkpt lat="43.38803" lon="16.93142">
        <ele>443</ele>
        <time>2018-10-05T12:24:12Z</time>
      </trkpt>
      <trkpt lat="43.38798" lon="16.93129">
        <ele>445.02</ele>
        <time>2018-10-05T12:24:32Z</time>
      </trkpt>
      <trkpt lat="43.38795" lon="16.93119">
        <ele>445.008</ele>
        <time>2018-10-05T12:24:52Z</time>
      </trkpt>
      <trkpt lat="43.38791" lon="16.93106">
        <ele>446.047</ele>
        <time>2018-10-05T12:25:12Z</time>
      </trkpt>
      <trkpt lat="43.38788" lon="16.93094">
        <ele>447.034</ele>
        <time>2018-10-05T12:25:32Z</time>
      </trkpt>
      <trkpt lat="43.38781" lon="16.93075">
        <ele>449.077</ele>
        <time>2018-10-05T12:25:52Z</time>
      </trkpt>
      <trkpt lat="43.3878" lon="16.93073">
        <ele>449.039</ele>
        <time>2018-10-05T12:26:12Z</time>
      </trkpt>
      <trkpt lat="43.3878" lon="16.93059">
        <ele>449.017</ele>
        <time>2018-10-05T12:26:32Z</time>
      </trkpt>
      <trkpt lat="43.3878" lon="16.93058">
        <ele>449.068</ele>
        <time>2018-10-05T12:26:52Z</time>
      </trkpt>
      <trkpt lat="43.38779" lon="16.93057">
        <ele>449.028</ele>
        <time>2018-10-05T12:27:12Z</time>
      </trkpt>
      <trkpt lat="43.38779" lon="16.93055">
        <ele>450.067</ele>
        <time>2018-10-05T12:27:32Z</time>
      </trkpt>
      <trkpt lat="43.38776" lon="16.93048">
        <ele>451.018</ele>
        <time>2018-10-05T12:27:52Z</time>
      </trkpt>
      <trkpt lat="43.38772" lon="16.93041">
        <ele>452.098</ele>
        <time>2018-10-05T12:28:12Z</time>
      </trkpt>
      <trkpt lat="43.38771" lon="16.93034">
        <ele>453.017</ele>
        <time>2018-10-05T12:28:32Z</time>
      </trkpt>
      <trkpt lat="43.3877" lon="16.93031">
        <ele>453.008</ele>
        <time>2018-10-05T12:28:52Z</time>
      </trkpt>
      <trkpt lat="43.38766" lon="16.93021">
        <ele>454.093</ele>
        <time>2018-10-05T12:29:12Z</time>
      </trkpt>
      <trkpt lat="43.38762" lon="16.93012">
        <ele>455.05</ele>
        <time>2018-10-05T12:29:32Z</time>
      </trkpt>
      <trkpt lat="43.38761" lon="16.93007">
        <ele>456.033</ele>
        <time>2018-10-05T12:29:52Z</time>
      </trkpt>
      <trkpt lat="43.38759" lon="16.92997">
        <ele>457.055</ele>
        <time>2018-10-05T12:30:12Z</time>
      </trkpt>
      <trkpt lat="43.38759" lon="16.92996">
        <ele>457.063</ele>
        <time>2018-10-05T12:30:32Z</time>
      </trkpt>
      <trkpt lat="43.38758" lon="16.92994">
        <ele>458.054</ele>
        <time>2018-10-05T12:30:52Z</time>
      </trkpt>
      <trkpt lat="43.38756" lon="16.92988">
        <ele>459.044</ele>
        <time>2018-10-05T12:31:12Z</time>
      </trkpt>
      <trkpt lat="43.38755" lon="16.92982">
        <ele>460.033</ele>
        <time>2018-10-05T12:31:32Z</time>
      </trkpt>
      <trkpt lat="43.38753" lon="16.92975">
        <ele>462.099</ele>
        <time>2018-10-05T12:31:52Z</time>
      </trkpt>
      <trkpt lat="43.38753" lon="16.92971">
        <ele>462.007</ele>
        <time>2018-10-05T12:32:12Z</time>
      </trkpt>
      <trkpt lat="43.38752" lon="16.9297">
        <ele>463.027</ele>
        <time>2018-10-05T12:32:32Z</time>
      </trkpt>
      <trkpt lat="43.38749" lon="16.92969">
        <ele>463.008</ele>
        <time>2018-10-05T12:32:52Z</time>
      </trkpt>
      <trkpt lat="43.38748" lon="16.9297">
        <ele>463.091</ele>
        <time>2018-10-05T12:33:12Z</time>
      </trkpt>
      <trkpt lat="43.38744" lon="16.92969">
        <ele>464.058</ele>
        <time>2018-10-05T12:33:32Z</time>
      </trkpt>
      <trkpt lat="43.38745" lon="16.92965">
        <ele>464.031</ele>
        <time>2018-10-05T12:33:52Z</time>
      </trkpt>
      <trkpt lat="43.38746" lon="16.92963">
        <ele>465.063</ele>
        <time>2018-10-05T12:34:12Z</time>
      </trkpt>
      <trkpt lat="43.38747" lon="16.9296">
        <ele>465.091</ele>
        <time>2018-10-05T12:34:32Z</time>
      </trkpt>
      <trkpt lat="43.38746" lon="16.92954">
        <ele>466.062</ele>
        <time>2018-10-05T12:34:52Z</time>
      </trkpt>
      <trkpt lat="43.38749" lon="16.92945">
        <ele>466.022</ele>
        <time>2018-10-05T12:35:12Z</time>
      </trkpt>
      <trkpt lat="43.3875" lon="16.92937">
        <ele>466.061</ele>
        <time>2018-10-05T12:35:32Z</time>
      </trkpt>
      <trkpt lat="43.38751" lon="16.92925">
        <ele>466.071</ele>
        <time>2018-10-05T12:35:52Z</time>
      </trkpt>
      <trkpt lat="43.38751" lon="16.92923">
        <ele>467.041</ele>
        <time>2018-10-05T12:36:12Z</time>
      </trkpt>
      <trkpt lat="43.38752" lon="16.92919">
        <ele>467.015</ele>
        <time>2018-10-05T12:36:32Z</time>
      </trkpt>
      <trkpt lat="43.38751" lon="16.92918">
        <ele>467.008</ele>
        <time>2018-10-05T12:36:52Z</time>
      </trkpt>
      <trkpt lat="43.38751" lon="16.92914">
        <ele>468.039</ele>
        <time>2018-10-05T12:37:12Z</time>
      </trkpt>
      <trkpt lat="43.38751" lon="16.92911">
        <ele>468.076</ele>
        <time>2018-10-05T12:37:32Z</time>
      </trkpt>
      <trkpt lat="43.3875" lon="16.92906">
        <ele>469.059</ele>
        <time>2018-10-05T12:37:52Z</time>
      </trkpt>
      <trkpt lat="43.38748" lon="16.929">
        <ele>470.051</ele>
        <time>2018-10-05T12:38:12Z</time>
      </trkpt>
      <trkpt lat="43.38747" lon="16.92899">
        <ele>471.069</ele>
        <time>2018-10-05T12:38:32Z</time>
      </trkpt>
      <trkpt lat="43.38747" lon="16.92896">
        <ele>471.02</ele>
        <time>2018-10-05T12:38:52Z</time>
      </trkpt>
      <trkpt lat="43.38747" lon="16.92892">
        <ele>472.08</ele>
        <time>2018-10-05T12:39:12Z</time>
      </trkpt>
      <trkpt lat="43.38746" lon="16.9289">
        <ele>473.019</ele>
        <time>2018-10-05T12:39:32Z</time>
      </trkpt>
      <trkpt lat="43.38744" lon="16.92884">
        <ele>474.091</ele>
        <time>2018-10-05T12:39:52Z</time>
      </trkpt>
      <trkpt lat="43.38742" lon="16.92881">
        <ele>475.081</ele>
        <time>2018-10-05T12:40:12Z</time>
      </trkpt>
      <trkpt lat="43.38741" lon="16.92878">
        <ele>475.019</ele>
        <time>2018-10-05T12:40:32Z</time>
      </trkpt>
      <trkpt lat="43.38739" lon="16.92871">
        <ele>476.008</ele>
        <time>2018-10-05T12:40:52Z</time>
      </trkpt>
      <trkpt lat="43.38738" lon="16.92865">
        <ele>477.051</ele>
        <time>2018-10-05T12:41:12Z</time>
      </trkpt>
      <trkpt lat="43.3874" lon="16.9286">
        <ele>478.088</ele>
        <time>2018-10-05T12:41:32Z</time>
      </trkpt>
      <trkpt lat="43.38741" lon="16.92858">
        <ele>479.031</ele>
        <time>2018-10-05T12:41:52Z</time>
      </trkpt>
      <trkpt lat="43.3874" lon="16.92856">
        <ele>480.083</ele>
        <time>2018-10-05T12:42:12Z</time>
      </trkpt>
      <trkpt lat="43.38738" lon="16.92852">
        <ele>481.081</ele>
        <time>2018-10-05T12:42:32Z</time>
      </trkpt>
      <trkpt lat="43.38737" lon="16.9285">
        <ele>481.062</ele>
        <time>2018-10-05T12:42:52Z</time>
      </trkpt>
      <trkpt lat="43.38738" lon="16.92849">
        <ele>482.082</ele>
        <time>2018-10-05T12:43:12Z</time>
      </trkpt>
      <trkpt lat="43.38739" lon="16.92843">
        <ele>483.071</ele>
        <time>2018-10-05T12:43:32Z</time>
      </trkpt>
      <trkpt lat="43.38741" lon="16.92837">
        <ele>484.064</ele>
        <time>2018-10-05T12:43:52Z</time>
      </trkpt>
      <trkpt lat="43.38741" lon="16.92832">
        <ele>485.006</ele>
        <time>2018-10-05T12:44:12Z</time>
      </trkpt>
      <trkpt lat="43.38742" lon="16.92827">
        <ele>485.016</ele>
        <time>2018-10-05T12:44:32Z</time>
      </trkpt>
      <trkpt lat="43.38739" lon="16.92815">
        <ele>486.008</ele>
        <time>2018-10-05T12:44:52Z</time>
      </trkpt>
      <trkpt lat="43.38738" lon="16.92809">
        <ele>488.088</ele>
        <time>2018-10-05T12:45:12Z</time>
      </trkpt>
      <trkpt lat="43.38738" lon="16.92806">
        <ele>488.045</ele>
        <time>2018-10-05T12:45:32Z</time>
      </trkpt>
      <trkpt lat="43.38738" lon="16.92803">
        <ele>488.048</ele>
        <time>2018-10-05T12:45:52Z</time>
      </trkpt>
      <trkpt lat="43.38737" lon="16.92793">
        <ele>489.09</ele>
        <time>2018-10-05T12:46:12Z</time>
      </trkpt>
      <trkpt lat="43.3874" lon="16.92784">
        <ele>490.028</ele>
        <time>2018-10-05T12:46:32Z</time>
      </trkpt>
      <trkpt lat="43.38742" lon="16.9277">
        <ele>492.079</ele>
        <time>2018-10-05T12:46:52Z</time>
      </trkpt>
      <trkpt lat="43.38743" lon="16.92765">
        <ele>492.019</ele>
        <time>2018-10-05T12:47:12Z</time>
      </trkpt>
      <trkpt lat="43.38743" lon="16.92756">
        <ele>493.068</ele>
        <time>2018-10-05T12:47:32Z</time>
      </trkpt>
      <trkpt lat="43.38743" lon="16.9275">
        <ele>494.085</ele>
        <time>2018-10-05T12:47:52Z</time>
      </trkpt>
      <trkpt lat="43.38742" lon="16.92745">
        <ele>494.089</ele>
        <time>2018-10-05T12:48:12Z</time>
      </trkpt>
      <trkpt lat="43.3874" lon="16.92738">
        <ele>495.017</ele>
        <time>2018-10-05T12:48:32Z</time>
      </trkpt>
      <trkpt lat="43.38739" lon="16.92734">
        <ele>496.008</ele>
        <time>2018-10-05T12:48:52Z</time>
      </trkpt>
      <trkpt lat="43.38738" lon="16.9273">
        <ele>496.01</ele>
        <time>2018-10-05T12:49:12Z</time>
      </trkpt>
      <trkpt lat="43.38737" lon="16.92726">
        <ele>497.027</ele>
        <time>2018-10-05T12:49:32Z</time>
      </trkpt>
      <trkpt lat="43.38736" lon="16.92721">
        <ele>498.02</ele>
        <time>2018-10-05T12:49:52Z</time>
      </trkpt>
      <trkpt lat="43.38735" lon="16.92716">
        <ele>499.082</ele>
        <time>2018-10-05T12:50:12Z</time>
      </trkpt>
      <trkpt lat="43.38733" lon="16.92713">
        <ele>500.02</ele>
        <time>2018-10-05T12:50:32Z</time>
      </trkpt>
      <trkpt lat="43.38732" lon="16.92704">
        <ele>501.031</ele>
        <time>2018-10-05T12:50:52Z</time>
      </trkpt>
      <trkpt lat="43.38729" lon="16.92697">
        <ele>502.071</ele>
        <time>2018-10-05T12:51:12Z</time>
      </trkpt>
      <trkpt lat="43.38727" lon="16.92689">
        <ele>502.08</ele>
        <time>2018-10-05T12:51:32Z</time>
      </trkpt>
      <trkpt lat="43.38725" lon="16.92685">
        <ele>503.088</ele>
        <time>2018-10-05T12:51:52Z</time>
      </trkpt>
      <trkpt lat="43.38723" lon="16.9268">
        <ele>503.024</ele>
        <time>2018-10-05T12:52:12Z</time>
      </trkpt>
      <trkpt lat="43.38719" lon="16.92678">
        <ele>504.026</ele>
        <time>2018-10-05T12:52:32Z</time>
      </trkpt>
      <trkpt lat="43.38713" lon="16.92674">
        <ele>505.008</ele>
        <time>2018-10-05T12:52:52Z</time>
      </trkpt>
      <trkpt lat="43.38708" lon="16.92672">
        <ele>506.02</ele>
        <time>2018-10-05T12:53:12Z</time>
      </trkpt>
      <trkpt lat="43.38698" lon="16.92666">
        <ele>508.027</ele>
        <time>2018-10-05T12:53:32Z</time>
      </trkpt>
      <trkpt lat="43.38696" lon="16.92665">
        <ele>509.07</ele>
        <time>2018-10-05T12:53:52Z</time>
      </trkpt>
      <trkpt lat="43.38693" lon="16.92663">
        <ele>509.032</ele>
        <time>2018-10-05T12:54:12Z</time>
      </trkpt>
      <trkpt lat="43.38687" lon="16.92659">
        <ele>511.06</ele>
        <time>2018-10-05T12:54:32Z</time>
      </trkpt>
      <trkpt lat="43.38678" lon="16.92652">
        <ele>512.051</ele>
        <time>2018-10-05T12:54:52Z</time>
      </trkpt>
      <trkpt lat="43.38673" lon="16.92645">
        <ele>513.011</ele>
        <time>2018-10-05T12:55:12Z</time>
      </trkpt>
      <trkpt lat="43.38673" lon="16.92644">
        <ele>514.09</ele>
        <time>2018-10-05T12:55:32Z</time>
      </trkpt>
      <trkpt lat="43.38671" lon="16.92639">
        <ele>515.023</ele>
        <time>2018-10-05T12:55:52Z</time>
      </trkpt>
      <trkpt lat="43.38669" lon="16.92636">
        <ele>515.083</ele>
        <time>2018-10-05T12:56:12Z</time>
      </trkpt>
      <trkpt lat="43.38668" lon="16.92633">
        <ele>516.011</ele>
        <time>2018-10-05T12:56:32Z</time>
      </trkpt>
      <trkpt lat="43.38667" lon="16.92633">
        <ele>516.008</ele>
        <time>2018-10-05T12:56:52Z</time>
      </trkpt>
      <trkpt lat="43.38665" lon="16.92634">
        <ele>516.064</ele>
        <time>2018-10-05T12:57:12Z</time>
      </trkpt>
      <trkpt lat="43.38662" lon="16.92636">
        <ele>517.051</ele>
        <time>2018-10-05T12:57:32Z</time>
      </trkpt>
      <trkpt lat="43.3866" lon="16.92638">
        <ele>518.084</ele>
        <time>2018-10-05T12:57:52Z</time>
      </trkpt>
      <trkpt lat="43.38659" lon="16.9264">
        <ele>518.056</ele>
        <time>2018-10-05T12:58:12Z</time>
      </trkpt>
      <trkpt lat="43.38657" lon="16.92644">
        <ele>519.084</ele>
        <time>2018-10-05T12:58:32Z</time>
      </trkpt>
      <trkpt lat="43.38652" lon="16.92649">
        <ele>521.035</ele>
        <time>2018-10-05T12:58:52Z</time>
      </trkpt>
      <trkpt lat="43.38649" lon="16.92652">
        <ele>522.065</ele>
        <time>2018-10-05T12:59:12Z</time>
      </trkpt>
      <trkpt lat="43.38646" lon="16.92656">
        <ele>524.044</ele>
        <time>2018-10-05T12:59:32Z</time>
      </trkpt>
      <trkpt lat="43.38641" lon="16.92659">
        <ele>525.071</ele>
        <time>2018-10-05T12:59:52Z</time>
      </trkpt>
      <trkpt lat="43.38633" lon="16.92664">
        <ele>526.041</ele>
        <time>2018-10-05T13:00:12Z</time>
      </trkpt>
      <trkpt lat="43.38631" lon="16.92666">
        <ele>526.015</ele>
        <time>2018-10-05T13:00:32Z</time>
      </trkpt>
      <trkpt lat="43.38628" lon="16.92667">
        <ele>527.008</ele>
        <time>2018-10-05T13:00:52Z</time>
      </trkpt>
      <trkpt lat="43.38624" lon="16.92662">
        <ele>528.089</ele>
        <time>2018-10-05T13:01:12Z</time>
      </trkpt>
      <trkpt lat="43.38621" lon="16.92659">
        <ele>529.076</ele>
        <time>2018-10-05T13:01:32Z</time>
      </trkpt>
      <trkpt lat="43.38613" lon="16.92655">
        <ele>530.079</ele>
        <time>2018-10-05T13:01:52Z</time>
      </trkpt>
      <trkpt lat="43.38606" lon="16.92652">
        <ele>531.081</ele>
        <time>2018-10-05T13:02:12Z</time>
      </trkpt>
      <trkpt lat="43.386" lon="16.9265">
        <ele>532.029</ele>
        <time>2018-10-05T13:02:32Z</time>
      </trkpt>
      <trkpt lat="43.38578" lon="16.92645">
        <ele>531.07</ele>
        <time>2018-10-05T13:02:52Z</time>
      </trkpt>
      <trkpt lat="43.38574" lon="16.92645">
        <ele>530.09</ele>
        <time>2018-10-05T13:03:12Z</time>
      </trkpt>
      <trkpt lat="43.38573" lon="16.92644">
        <ele>529.059</ele>
        <time>2018-10-05T13:03:32Z</time>
      </trkpt>
      <trkpt lat="43.3857" lon="16.92637">
        <ele>528.081</ele>
        <time>2018-10-05T13:03:52Z</time>
      </trkpt>
      <trkpt lat="43.38563" lon="16.92638">
        <ele>526.061</ele>
        <time>2018-10-05T13:04:12Z</time>
      </trkpt>
      <trkpt lat="43.3856" lon="16.92637">
        <ele>525.017</ele>
        <time>2018-10-05T13:04:32Z</time>
      </trkpt>
      <trkpt lat="43.3856" lon="16.92639">
        <ele>524.008</ele>
        <time>2018-10-05T13:04:52Z</time>
      </trkpt>
      <trkpt lat="43.38561" lon="16.92647">
        <ele>523.03</ele>
        <time>2018-10-05T13:05:12Z</time>
      </trkpt>
      <trkpt lat="43.38556" lon="16.92664">
        <ele>521.097</ele>
        <time>2018-10-05T13:05:32Z</time>
      </trkpt>
      <trkpt lat="43.38549" lon="16.92672">
        <ele>518.04</ele>
        <time>2018-10-05T13:05:52Z</time>
      </trkpt>
      <trkpt lat="43.3854" lon="16.92675">
        <ele>516.012</ele>
        <time>2018-10-05T13:06:12Z</time>
      </trkpt>
      <trkpt lat="43.38535" lon="16.92677">
        <ele>515.02</ele>
        <time>2018-10-05T13:06:32Z</time>
      </trkpt>
      <trkpt lat="43.38528" lon="16.9268">
        <ele>513.031</ele>
        <time>2018-10-05T13:06:52Z</time>
      </trkpt>
      <trkpt lat="43.3852" lon="16.92684">
        <ele>512.011</ele>
        <time>2018-10-05T13:07:12Z</time>
      </trkpt>
      <trkpt lat="43.38512" lon="16.92686">
        <ele>511.03</ele>
        <time>2018-10-05T13:07:32Z</time>
      </trkpt>
      <trkpt lat="43.385" lon="16.92687">
        <ele>510.074</ele>
        <time>2018-10-05T13:07:52Z</time>
      </trkpt>
      <trkpt lat="43.3849" lon="16.92688">
        <ele>509.056</ele>
        <time>2018-10-05T13:08:12Z</time>
      </trkpt>
      <trkpt lat="43.38481" lon="16.92688">
        <ele>508.021</ele>
        <time>2018-10-05T13:08:32Z</time>
      </trkpt>
      <trkpt lat="43.3847" lon="16.92689">
        <ele>507.008</ele>
        <time>2018-10-05T13:08:52Z</time>
      </trkpt>
      <trkpt lat="43.38462" lon="16.9269">
        <ele>506.099</ele>
        <time>2018-10-05T13:09:12Z</time>
      </trkpt>
      <trkpt lat="43.38451" lon="16.92689">
        <ele>505.046</ele>
        <time>2018-10-05T13:09:32Z</time>
      </trkpt>
      <trkpt lat="43.38432" lon="16.92687">
        <ele>502.049</ele>
        <time>2018-10-05T13:09:52Z</time>
      </trkpt>
      <trkpt lat="43.38426" lon="16.92687">
        <ele>501.021</ele>
        <time>2018-10-05T13:10:12Z</time>
      </trkpt>
      <trkpt lat="43.38411" lon="16.92698">
        <ele>500.049</ele>
        <time>2018-10-05T13:10:32Z</time>
      </trkpt>
      <trkpt lat="43.38398" lon="16.92708">
        <ele>497.03</ele>
        <time>2018-10-05T13:10:52Z</time>
      </trkpt>
      <trkpt lat="43.38388" lon="16.9272">
        <ele>495.01</ele>
        <time>2018-10-05T13:11:12Z</time>
      </trkpt>
      <trkpt lat="43.3838" lon="16.9273">
        <ele>492.049</ele>
        <time>2018-10-05T13:11:32Z</time>
      </trkpt>
      <trkpt lat="43.38375" lon="16.92733">
        <ele>491.049</ele>
        <time>2018-10-05T13:11:52Z</time>
      </trkpt>
      <trkpt lat="43.38371" lon="16.92738">
        <ele>490.002</ele>
        <time>2018-10-05T13:12:12Z</time>
      </trkpt>
      <trkpt lat="43.38369" lon="16.92736">
        <ele>488.022</ele>
        <time>2018-10-05T13:12:32Z</time>
      </trkpt>
      <trkpt lat="43.3837" lon="16.92727">
        <ele>487.008</ele>
        <time>2018-10-05T13:12:52Z</time>
      </trkpt>
      <trkpt lat="43.38371" lon="16.92711">
        <ele>485.056</ele>
        <time>2018-10-05T13:13:12Z</time>
      </trkpt>
      <trkpt lat="43.38375" lon="16.92699">
        <ele>483.033</ele>
        <time>2018-10-05T13:13:32Z</time>
      </trkpt>
      <trkpt lat="43.38384" lon="16.9269">
        <ele>480.066</ele>
        <time>2018-10-05T13:13:52Z</time>
      </trkpt>
      <trkpt lat="43.38385" lon="16.92688">
        <ele>479.048</ele>
        <time>2018-10-05T13:14:12Z</time>
      </trkpt>
      <trkpt lat="43.38389" lon="16.92679">
        <ele>477.076</ele>
        <time>2018-10-05T13:14:32Z</time>
      </trkpt>
      <trkpt lat="43.38391" lon="16.92671">
        <ele>474.097</ele>
        <time>2018-10-05T13:14:52Z</time>
      </trkpt>
      <trkpt lat="43.3839" lon="16.92666">
        <ele>473.087</ele>
        <time>2018-10-05T13:15:12Z</time>
      </trkpt>
      <trkpt lat="43.38387" lon="16.92661">
        <ele>471.036</ele>
        <time>2018-10-05T13:15:32Z</time>
      </trkpt>
      <trkpt lat="43.38384" lon="16.92666">
        <ele>470.053</ele>
        <time>2018-10-05T13:15:52Z</time>
      </trkpt>
      <trkpt lat="43.38372" lon="16.9268">
        <ele>467.004</ele>
        <time>2018-10-05T13:16:12Z</time>
      </trkpt>
      <trkpt lat="43.38368" lon="16.92686">
        <ele>465.014</ele>
        <time>2018-10-05T13:16:32Z</time>
      </trkpt>
      <trkpt lat="43.38364" lon="16.92689">
        <ele>463.008</ele>
        <time>2018-10-05T13:16:52Z</time>
      </trkpt>
      <trkpt lat="43.38358" lon="16.92698">
        <ele>461.027</ele>
        <time>2018-10-05T13:17:12Z</time>
      </trkpt>
      <trkpt lat="43.38354" lon="16.92709">
        <ele>459.034</ele>
        <time>2018-10-05T13:17:32Z</time>
      </trkpt>
      <trkpt lat="43.38352" lon="16.92711">
        <ele>459.097</ele>
        <time>2018-10-05T13:17:52Z</time>
      </trkpt>
      <trkpt lat="43.3834" lon="16.92712">
        <ele>456.039</ele>
        <time>2018-10-05T13:18:12Z</time>
      </trkpt>
      <trkpt lat="43.38333" lon="16.92714">
        <ele>455.027</ele>
        <time>2018-10-05T13:18:32Z</time>
      </trkpt>
      <trkpt lat="43.38323" lon="16.92719">
        <ele>452.088</ele>
        <time>2018-10-05T13:18:52Z</time>
      </trkpt>
      <trkpt lat="43.38322" lon="16.92719">
        <ele>452.088</ele>
        <time>2018-10-05T13:19:12Z</time>
      </trkpt>
      <trkpt lat="43.38326" lon="16.92714">
        <ele>451.067</ele>
        <time>2018-10-05T13:19:32Z</time>
      </trkpt>
      <trkpt lat="43.38328" lon="16.92707">
        <ele>450.066</ele>
        <time>2018-10-05T13:19:52Z</time>
      </trkpt>
      <trkpt lat="43.38336" lon="16.92694">
        <ele>447.029</ele>
        <time>2018-10-05T13:20:12Z</time>
      </trkpt>
      <trkpt lat="43.38338" lon="16.92691">
        <ele>446.021</ele>
        <time>2018-10-05T13:20:32Z</time>
      </trkpt>
      <trkpt lat="43.38339" lon="16.92689">
        <ele>445.008</ele>
        <time>2018-10-05T13:20:52Z</time>
      </trkpt>
      <trkpt lat="43.38338" lon="16.92688">
        <ele>445.078</ele>
        <time>2018-10-05T13:21:12Z</time>
      </trkpt>
      <trkpt lat="43.38336" lon="16.92689">
        <ele>444.075</ele>
        <time>2018-10-05T13:21:32Z</time>
      </trkpt>
      <trkpt lat="43.38333" lon="16.92687">
        <ele>443.038</ele>
        <time>2018-10-05T13:21:52Z</time>
      </trkpt>
      <trkpt lat="43.38328" lon="16.92684">
        <ele>441.09</ele>
        <time>2018-10-05T13:22:12Z</time>
      </trkpt>
      <trkpt lat="43.38326" lon="16.92682">
        <ele>440.028</ele>
        <time>2018-10-05T13:22:32Z</time>
      </trkpt>
      <trkpt lat="43.3832" lon="16.92683">
        <ele>439.089</ele>
        <time>2018-10-05T13:22:52Z</time>
      </trkpt>
      <trkpt lat="43.38317" lon="16.92681">
        <ele>438.039</ele>
        <time>2018-10-05T13:23:12Z</time>
      </trkpt>
      <trkpt lat="43.38315" lon="16.92681">
        <ele>437.088</ele>
        <time>2018-10-05T13:23:32Z</time>
      </trkpt>
      <trkpt lat="43.38314" lon="16.92677">
        <ele>436.021</ele>
        <time>2018-10-05T13:23:52Z</time>
      </trkpt>
      <trkpt lat="43.38315" lon="16.92672">
        <ele>435.041</ele>
        <time>2018-10-05T13:24:12Z</time>
      </trkpt>
      <trkpt lat="43.38313" lon="16.92666">
        <ele>432.005</ele>
        <time>2018-10-05T13:24:32Z</time>
      </trkpt>
      <trkpt lat="43.38302" lon="16.92668">
        <ele>430.008</ele>
        <time>2018-10-05T13:24:52Z</time>
      </trkpt>
      <trkpt lat="43.38298" lon="16.92668">
        <ele>429.044</ele>
        <time>2018-10-05T13:25:12Z</time>
      </trkpt>
      <trkpt lat="43.38289" lon="16.92666">
        <ele>426.091</ele>
        <time>2018-10-05T13:25:32Z</time>
      </trkpt>
      <trkpt lat="43.38282" lon="16.92666">
        <ele>424.064</ele>
        <time>2018-10-05T13:25:52Z</time>
      </trkpt>
      <trkpt lat="43.38275" lon="16.92669">
        <ele>422.096</ele>
        <time>2018-10-05T13:26:12Z</time>
      </trkpt>
      <trkpt lat="43.38269" lon="16.92676">
        <ele>419.054</ele>
        <time>2018-10-05T13:26:32Z</time>
      </trkpt>
      <trkpt lat="43.38264" lon="16.92688">
        <ele>417.095</ele>
        <time>2018-10-05T13:26:52Z</time>
      </trkpt>
      <trkpt lat="43.38263" lon="16.92691">
        <ele>416.055</ele>
        <time>2018-10-05T13:27:12Z</time>
      </trkpt>
      <trkpt lat="43.38262" lon="16.92696">
        <ele>415.044</ele>
        <time>2018-10-05T13:27:32Z</time>
      </trkpt>
      <trkpt lat="43.3826" lon="16.92697">
        <ele>415.047</ele>
        <time>2018-10-05T13:27:52Z</time>
      </trkpt>
      <trkpt lat="43.38259" lon="16.92697">
        <ele>414.029</ele>
        <time>2018-10-05T13:28:12Z</time>
      </trkpt>
      <trkpt lat="43.38256" lon="16.92699">
        <ele>412.021</ele>
        <time>2018-10-05T13:28:32Z</time>
      </trkpt>
      <trkpt lat="43.3825" lon="16.92704">
        <ele>411.008</ele>
        <time>2018-10-05T13:28:52Z</time>
      </trkpt>
      <trkpt lat="43.38241" lon="16.92713">
        <ele>408.086</ele>
        <time>2018-10-05T13:29:12Z</time>
      </trkpt>
      <trkpt lat="43.38237" lon="16.92716">
        <ele>407.033</ele>
        <time>2018-10-05T13:29:32Z</time>
      </trkpt>
      <trkpt lat="43.38232" lon="16.92722">
        <ele>406.086</ele>
        <time>2018-10-05T13:29:52Z</time>
      </trkpt>
      <trkpt lat="43.38217" lon="16.92726">
        <ele>404.018</ele>
        <time>2018-10-05T13:30:12Z</time>
      </trkpt>
      <trkpt lat="43.38204" lon="16.92736">
        <ele>401.046</ele>
        <time>2018-10-05T13:30:32Z</time>
      </trkpt>
      <trkpt lat="43.38195" lon="16.92747">
        <ele>398.087</ele>
        <time>2018-10-05T13:30:52Z</time>
      </trkpt>
      <trkpt lat="43.38189" lon="16.92755">
        <ele>396.047</ele>
        <time>2018-10-05T13:31:12Z</time>
      </trkpt>
      <trkpt lat="43.38182" lon="16.92763">
        <ele>394.096</ele>
        <time>2018-10-05T13:31:32Z</time>
      </trkpt>
      <trkpt lat="43.3818" lon="16.92767">
        <ele>393.014</ele>
        <time>2018-10-05T13:31:52Z</time>
      </trkpt>
      <trkpt lat="43.38175" lon="16.92772">
        <ele>391.054</ele>
        <time>2018-10-05T13:32:12Z</time>
      </trkpt>
      <trkpt lat="43.3817" lon="16.92775">
        <ele>390.009</ele>
        <time>2018-10-05T13:32:32Z</time>
      </trkpt>
      <trkpt lat="43.38163" lon="16.92778">
        <ele>388.008</ele>
        <time>2018-10-05T13:32:52Z</time>
      </trkpt>
      <trkpt lat="43.38156" lon="16.92781">
        <ele>387.073</ele>
        <time>2018-10-05T13:33:12Z</time>
      </trkpt>
      <trkpt lat="43.38149" lon="16.92784">
        <ele>385.08</ele>
        <time>2018-10-05T13:33:32Z</time>
      </trkpt>
      <trkpt lat="43.38139" lon="16.92787">
        <ele>382.053</ele>
        <time>2018-10-05T13:33:52Z</time>
      </trkpt>
      <trkpt lat="43.38134" lon="16.9279">
        <ele>381.085</ele>
        <time>2018-10-05T13:34:12Z</time>
      </trkpt>
      <trkpt lat="43.38122" lon="16.92798">
        <ele>379.083</ele>
        <time>2018-10-05T13:34:32Z</time>
      </trkpt>
      <trkpt lat="43.38119" lon="16.928">
        <ele>378.074</ele>
        <time>2018-10-05T13:34:52Z</time>
      </trkpt>
      <trkpt lat="43.38112" lon="16.92803">
        <ele>376.024</ele>
        <time>2018-10-05T13:35:12Z</time>
      </trkpt>
      <trkpt lat="43.38103" lon="16.92808">
        <ele>374.043</ele>
        <time>2018-10-05T13:35:32Z</time>
      </trkpt>
      <trkpt lat="43.38093" lon="16.92814">
        <ele>371.078</ele>
        <time>2018-10-05T13:35:52Z</time>
      </trkpt>
      <trkpt lat="43.38086" lon="16.92819">
        <ele>369.033</ele>
        <time>2018-10-05T13:36:12Z</time>
      </trkpt>
      <trkpt lat="43.3808" lon="16.92824">
        <ele>367.026</ele>
        <time>2018-10-05T13:36:32Z</time>
      </trkpt>
      <trkpt lat="43.38071" lon="16.9283">
        <ele>365.008</ele>
        <time>2018-10-05T13:36:52Z</time>
      </trkpt>
      <trkpt lat="43.38066" lon="16.92835">
        <ele>362.079</ele>
        <time>2018-10-05T13:37:12Z</time>
      </trkpt>
      <trkpt lat="43.38061" lon="16.9284">
        <ele>360.096</ele>
        <time>2018-10-05T13:37:32Z</time>
      </trkpt>
      <trkpt lat="43.38056" lon="16.92845">
        <ele>357.039</ele>
        <time>2018-10-05T13:37:52Z</time>
      </trkpt>
      <trkpt lat="43.38054" lon="16.92847">
        <ele>356.011</ele>
        <time>2018-10-05T13:38:12Z</time>
      </trkpt>
      <trkpt lat="43.38051" lon="16.9285">
        <ele>355.089</ele>
        <time>2018-10-05T13:38:32Z</time>
      </trkpt>
      <trkpt lat="43.38048" lon="16.9285">
        <ele>354.02</ele>
        <time>2018-10-05T13:38:52Z</time>
      </trkpt>
      <trkpt lat="43.38047" lon="16.92849">
        <ele>353.05</ele>
        <time>2018-10-05T13:39:12Z</time>
      </trkpt>
      <trkpt lat="43.38045" lon="16.92846">
        <ele>353.019</ele>
        <time>2018-10-05T13:39:32Z</time>
      </trkpt>
      <trkpt lat="43.38049" lon="16.92841">
        <ele>351.026</ele>
        <time>2018-10-05T13:39:52Z</time>
      </trkpt>
      <trkpt lat="43.38052" lon="16.92836">
        <ele>349.047</ele>
        <time>2018-10-05T13:40:12Z</time>
      </trkpt>
      <trkpt lat="43.38053" lon="16.92829">
        <ele>347.011</ele>
        <time>2018-10-05T13:40:32Z</time>
      </trkpt>
      <trkpt lat="43.38057" lon="16.92818">
        <ele>345.008</ele>
        <time>2018-10-05T13:40:52Z</time>
      </trkpt>
      <trkpt lat="43.38059" lon="16.92814">
        <ele>344.014</ele>
        <time>2018-10-05T13:41:12Z</time>
      </trkpt>
      <trkpt lat="43.3806" lon="16.92814">
        <ele>343.021</ele>
        <time>2018-10-05T13:41:32Z</time>
      </trkpt>
      <trkpt lat="43.38054" lon="16.92815">
        <ele>341.014</ele>
        <time>2018-10-05T13:41:52Z</time>
      </trkpt>
      <trkpt lat="43.38051" lon="16.92817">
        <ele>340.016</ele>
        <time>2018-10-05T13:42:12Z</time>
      </trkpt>
      <trkpt lat="43.38045" lon="16.92823">
        <ele>338.014</ele>
        <time>2018-10-05T13:42:32Z</time>
      </trkpt>
      <trkpt lat="43.38042" lon="16.92824">
        <ele>337.035</ele>
        <time>2018-10-05T13:42:52Z</time>
      </trkpt>
      <trkpt lat="43.38043" lon="16.92817">
        <ele>335.025</ele>
        <time>2018-10-05T13:43:12Z</time>
      </trkpt>
      <trkpt lat="43.38045" lon="16.92813">
        <ele>334.064</ele>
        <time>2018-10-05T13:43:32Z</time>
      </trkpt>
      <trkpt lat="43.38046" lon="16.9281">
        <ele>333.066</ele>
        <time>2018-10-05T13:43:52Z</time>
      </trkpt>
      <trkpt lat="43.38044" lon="16.92808">
        <ele>332.029</ele>
        <time>2018-10-05T13:44:12Z</time>
      </trkpt>
      <trkpt lat="43.38036" lon="16.92813">
        <ele>329.021</ele>
        <time>2018-10-05T13:44:32Z</time>
      </trkpt>
      <trkpt lat="43.38031" lon="16.9282">
        <ele>328.008</ele>
        <time>2018-10-05T13:44:52Z</time>
      </trkpt>
      <trkpt lat="43.38023" lon="16.92828">
        <ele>327.038</ele>
        <time>2018-10-05T13:45:12Z</time>
      </trkpt>
      <trkpt lat="43.38015" lon="16.92843">
        <ele>324.085</ele>
        <time>2018-10-05T13:45:32Z</time>
      </trkpt>
      <trkpt lat="43.38009" lon="16.92854">
        <ele>322.018</ele>
        <time>2018-10-05T13:45:52Z</time>
      </trkpt>
      <trkpt lat="43.38002" lon="16.92862">
        <ele>321.01</ele>
        <time>2018-10-05T13:46:12Z</time>
      </trkpt>
      <trkpt lat="43.37985" lon="16.9288">
        <ele>320.088</ele>
        <time>2018-10-05T13:46:32Z</time>
      </trkpt>
      <trkpt lat="43.3798" lon="16.92885">
        <ele>318.099</ele>
        <time>2018-10-05T13:46:52Z</time>
      </trkpt>
      <trkpt lat="43.3798" lon="16.92885">
        <ele>318.039</ele>
        <time>2018-10-05T13:47:12Z</time>
      </trkpt>
      <trkpt lat="43.37977" lon="16.92887">
        <ele>317.088</ele>
        <time>2018-10-05T13:47:32Z</time>
      </trkpt>
      <trkpt lat="43.37975" lon="16.92889">
        <ele>315.019</ele>
        <time>2018-10-05T13:47:52Z</time>
      </trkpt>
      <trkpt lat="43.37969" lon="16.92889">
        <ele>313.009</ele>
        <time>2018-10-05T13:48:12Z</time>
      </trkpt>
      <trkpt lat="43.37965" lon="16.92884">
        <ele>310.019</ele>
        <time>2018-10-05T13:48:32Z</time>
      </trkpt>
      <trkpt lat="43.37964" lon="16.92884">
        <ele>310.008</ele>
        <time>2018-10-05T13:48:52Z</time>
      </trkpt>
      <trkpt lat="43.37963" lon="16.92883">
        <ele>309.073</ele>
        <time>2018-10-05T13:49:12Z</time>
      </trkpt>
      <trkpt lat="43.37959" lon="16.92882">
        <ele>306.07</ele>
        <time>2018-10-05T13:49:32Z</time>
      </trkpt>
      <trkpt lat="43.37955" lon="16.92876">
        <ele>303.033</ele>
        <time>2018-10-05T13:49:52Z</time>
      </trkpt>
      <trkpt lat="43.37954" lon="16.92873">
        <ele>302.045</ele>
        <time>2018-10-05T13:50:12Z</time>
      </trkpt>
      <trkpt lat="43.37953" lon="16.92872">
        <ele>301.013</ele>
        <time>2018-10-05T13:50:32Z</time>
      </trkpt>
      <trkpt lat="43.37953" lon="16.92871">
        <ele>299.024</ele>
        <time>2018-10-05T13:50:52Z</time>
      </trkpt>
      <trkpt lat="43.37948" lon="16.92863">
        <ele>297.094</ele>
        <time>2018-10-05T13:51:12Z</time>
      </trkpt>
      <trkpt lat="43.37946" lon="16.92859">
        <ele>295.043</ele>
        <time>2018-10-05T13:51:32Z</time>
      </trkpt>
      <trkpt lat="43.37943" lon="16.92856">
        <ele>294.011</ele>
        <time>2018-10-05T13:51:52Z</time>
      </trkpt>
      <trkpt lat="43.37939" lon="16.92853">
        <ele>293.021</ele>
        <time>2018-10-05T13:52:12Z</time>
      </trkpt>
      <trkpt lat="43.37937" lon="16.92851">
        <ele>291.003</ele>
        <time>2018-10-05T13:52:32Z</time>
      </trkpt>
      <trkpt lat="43.37935" lon="16.92849">
        <ele>290.008</ele>
        <time>2018-10-05T13:52:52Z</time>
      </trkpt>
      <trkpt lat="43.37928" lon="16.92846">
        <ele>287.013</ele>
        <time>2018-10-05T13:53:12Z</time>
      </trkpt>
      <trkpt lat="43.3792" lon="16.92844">
        <ele>285.04</ele>
        <time>2018-10-05T13:53:32Z</time>
      </trkpt>
      <trkpt lat="43.37914" lon="16.92843">
        <ele>282.093</ele>
        <time>2018-10-05T13:53:52Z</time>
      </trkpt>
      <trkpt lat="43.3791" lon="16.92844">
        <ele>281.045</ele>
        <time>2018-10-05T13:54:12Z</time>
      </trkpt>
      <trkpt lat="43.37899" lon="16.92842">
        <ele>278.023</ele>
        <time>2018-10-05T13:54:32Z</time>
      </trkpt>
      <trkpt lat="43.37892" lon="16.92841">
        <ele>277.034</ele>
        <time>2018-10-05T13:54:52Z</time>
      </trkpt>
      <trkpt lat="43.37891" lon="16.92841">
        <ele>276.064</ele>
        <time>2018-10-05T13:55:12Z</time>
      </trkpt>
      <trkpt lat="43.37882" lon="16.92834">
        <ele>274.033</ele>
        <time>2018-10-05T13:55:32Z</time>
      </trkpt>
      <trkpt lat="43.37872" lon="16.92825">
        <ele>271.057</ele>
        <time>2018-10-05T13:55:52Z</time>
      </trkpt>
      <trkpt lat="43.37866" lon="16.92819">
        <ele>269</ele>
        <time>2018-10-05T13:56:12Z</time>
      </trkpt>
      <trkpt lat="43.37858" lon="16.92808">
        <ele>266.02</ele>
        <time>2018-10-05T13:56:32Z</time>
      </trkpt>
      <trkpt lat="43.37852" lon="16.92801">
        <ele>264.008</ele>
        <time>2018-10-05T13:56:52Z</time>
      </trkpt>
      <trkpt lat="43.37847" lon="16.92795">
        <ele>262.077</ele>
        <time>2018-10-05T13:57:12Z</time>
      </trkpt>
      <trkpt lat="43.37846" lon="16.92795">
        <ele>261.064</ele>
        <time>2018-10-05T13:57:32Z</time>
      </trkpt>
      <trkpt lat="43.37845" lon="16.92795">
        <ele>261.047</ele>
        <time>2018-10-05T13:57:52Z</time>
      </trkpt>
      <trkpt lat="43.37853" lon="16.92789">
        <ele>261.079</ele>
        <time>2018-10-05T13:58:12Z</time>
      </trkpt>
      <trkpt lat="43.37857" lon="16.92782">
        <ele>260.067</ele>
        <time>2018-10-05T13:58:32Z</time>
      </trkpt>
      <trkpt lat="43.37849" lon="16.9278">
        <ele>259.018</ele>
        <time>2018-10-05T13:58:52Z</time>
      </trkpt>
      <trkpt lat="43.37844" lon="16.92783">
        <ele>258.088</ele>
        <time>2018-10-05T13:59:12Z</time>
      </trkpt>
      <trkpt lat="43.37838" lon="16.92787">
        <ele>257.097</ele>
        <time>2018-10-05T13:59:32Z</time>
      </trkpt>
      <trkpt lat="43.37833" lon="16.92784">
        <ele>255.035</ele>
        <time>2018-10-05T13:59:52Z</time>
      </trkpt>
      <trkpt lat="43.37833" lon="16.92782">
        <ele>255.086</ele>
        <time>2018-10-05T14:00:12Z</time>
      </trkpt>
      <trkpt lat="43.37829" lon="16.92776">
        <ele>253.014</ele>
        <time>2018-10-05T14:00:32Z</time>
      </trkpt>
      <trkpt lat="43.37822" lon="16.92767">
        <ele>250.008</ele>
        <time>2018-10-05T14:00:52Z</time>
      </trkpt>
      <trkpt lat="43.37814" lon="16.92758">
        <ele>248.055</ele>
        <time>2018-10-05T14:01:12Z</time>
      </trkpt>
      <trkpt lat="43.37808" lon="16.92751">
        <ele>245.022</ele>
        <time>2018-10-05T14:01:32Z</time>
      </trkpt>
      <trkpt lat="43.37802" lon="16.92745">
        <ele>243.015</ele>
        <time>2018-10-05T14:01:52Z</time>
      </trkpt>
      <trkpt lat="43.37795" lon="16.92735">
        <ele>241.087</ele>
        <time>2018-10-05T14:02:12Z</time>
      </trkpt>
      <trkpt lat="43.3779" lon="16.92724">
        <ele>238.055</ele>
        <time>2018-10-05T14:02:32Z</time>
      </trkpt>
      <trkpt lat="43.37787" lon="16.92709">
        <ele>235.056</ele>
        <time>2018-10-05T14:02:52Z</time>
      </trkpt>
      <trkpt lat="43.37785" lon="16.92703">
        <ele>234.096</ele>
        <time>2018-10-05T14:03:12Z</time>
      </trkpt>
      <trkpt lat="43.37782" lon="16.92696">
        <ele>233.075</ele>
        <time>2018-10-05T14:03:32Z</time>
      </trkpt>
      <trkpt lat="43.37779" lon="16.92694">
        <ele>231.033</ele>
        <time>2018-10-05T14:03:52Z</time>
      </trkpt>
      <trkpt lat="43.37771" lon="16.9268">
        <ele>229.023</ele>
        <time>2018-10-05T14:04:12Z</time>
      </trkpt>
      <trkpt lat="43.37769" lon="16.92676">
        <ele>228.015</ele>
        <time>2018-10-05T14:04:32Z</time>
      </trkpt>
      <trkpt lat="43.37769" lon="16.92674">
        <ele>228.008</ele>
        <time>2018-10-05T14:04:52Z</time>
      </trkpt>
      <trkpt lat="43.37767" lon="16.92671">
        <ele>227.095</ele>
        <time>2018-10-05T14:05:12Z</time>
      </trkpt>
      <trkpt lat="43.37764" lon="16.92664">
        <ele>226.022</ele>
        <time>2018-10-05T14:05:32Z</time>
      </trkpt>
      <trkpt lat="43.37764" lon="16.92654">
        <ele>224.035</ele>
        <time>2018-10-05T14:05:52Z</time>
      </trkpt>
      <trkpt lat="43.37761" lon="16.92642">
        <ele>223.017</ele>
        <time>2018-10-05T14:06:12Z</time>
      </trkpt>
      <trkpt lat="43.37757" lon="16.92632">
        <ele>221.025</ele>
        <time>2018-10-05T14:06:32Z</time>
      </trkpt>
      <trkpt lat="43.37755" lon="16.92626">
        <ele>220.076</ele>
        <time>2018-10-05T14:06:52Z</time>
      </trkpt>
      <trkpt lat="43.37752" lon="16.92617">
        <ele>218.076</ele>
        <time>2018-10-05T14:07:12Z</time>
      </trkpt>
      <trkpt lat="43.37752" lon="16.92604">
        <ele>217.015</ele>
        <time>2018-10-05T14:07:32Z</time>
      </trkpt>
      <trkpt lat="43.3775" lon="16.92585">
        <ele>214.075</ele>
        <time>2018-10-05T14:07:52Z</time>
      </trkpt>
      <trkpt lat="43.37745" lon="16.92571">
        <ele>212.028</ele>
        <time>2018-10-05T14:08:12Z</time>
      </trkpt>
      <trkpt lat="43.3774" lon="16.92555">
        <ele>209.02</ele>
        <time>2018-10-05T14:08:32Z</time>
      </trkpt>
      <trkpt lat="43.37733" lon="16.92549">
        <ele>207.008</ele>
        <time>2018-10-05T14:08:52Z</time>
      </trkpt>
      <trkpt lat="43.37723" lon="16.92548">
        <ele>205.069</ele>
        <time>2018-10-05T14:09:12Z</time>
      </trkpt>
      <trkpt lat="43.37713" lon="16.92549">
        <ele>203.096</ele>
        <time>2018-10-05T14:09:32Z</time>
      </trkpt>
      <trkpt lat="43.37705" lon="16.92552">
        <ele>202.029</ele>
        <time>2018-10-05T14:09:52Z</time>
      </trkpt>
      <trkpt lat="43.37704" lon="16.92551">
        <ele>202.091</ele>
        <time>2018-10-05T14:10:12Z</time>
      </trkpt>
      <trkpt lat="43.37703" lon="16.9255">
        <ele>201.019</ele>
        <time>2018-10-05T14:10:32Z</time>
      </trkpt>
      <trkpt lat="43.37702" lon="16.92549">
        <ele>201.07</ele>
        <time>2018-10-05T14:10:52Z</time>
      </trkpt>
      <trkpt lat="43.37704" lon="16.92539">
        <ele>199.04</ele>
        <time>2018-10-05T14:11:12Z</time>
      </trkpt>
      <trkpt lat="43.37703" lon="16.92537">
        <ele>198.069</ele>
        <time>2018-10-05T14:11:32Z</time>
      </trkpt>
      <trkpt lat="43.37701" lon="16.92535">
        <ele>197.024</ele>
        <time>2018-10-05T14:11:52Z</time>
      </trkpt>
      <trkpt lat="43.37701" lon="16.92534">
        <ele>197.004</ele>
        <time>2018-10-05T14:12:12Z</time>
      </trkpt>
      <trkpt lat="43.377" lon="16.92531">
        <ele>196.014</ele>
        <time>2018-10-05T14:12:32Z</time>
      </trkpt>
      <trkpt lat="43.37698" lon="16.92527">
        <ele>195.008</ele>
        <time>2018-10-05T14:12:52Z</time>
      </trkpt>
      <trkpt lat="43.37696" lon="16.92525">
        <ele>194.064</ele>
        <time>2018-10-05T14:13:12Z</time>
      </trkpt>
      <trkpt lat="43.37693" lon="16.92517">
        <ele>193.051</ele>
        <time>2018-10-05T14:13:32Z</time>
      </trkpt>
      <trkpt lat="43.3769" lon="16.92507">
        <ele>191.084</ele>
        <time>2018-10-05T14:13:52Z</time>
      </trkpt>
      <trkpt lat="43.37685" lon="16.92502">
        <ele>190.086</ele>
        <time>2018-10-05T14:14:12Z</time>
      </trkpt>
      <trkpt lat="43.37679" lon="16.92495">
        <ele>189.044</ele>
        <time>2018-10-05T14:14:32Z</time>
      </trkpt>
      <trkpt lat="43.37675" lon="16.92493">
        <ele>186.065</ele>
        <time>2018-10-05T14:14:52Z</time>
      </trkpt>
      <trkpt lat="43.3767" lon="16.92489">
        <ele>185.055</ele>
        <time>2018-10-05T14:15:12Z</time>
      </trkpt>
      <trkpt lat="43.37665" lon="16.92482">
        <ele>183.044</ele>
        <time>2018-10-05T14:15:32Z</time>
      </trkpt>
      <trkpt lat="43.37664" lon="16.92478">
        <ele>182.028</ele>
        <time>2018-10-05T14:15:52Z</time>
      </trkpt>
      <trkpt lat="43.37663" lon="16.92475">
        <ele>181.089</ele>
        <time>2018-10-05T14:16:12Z</time>
      </trkpt>
      <trkpt lat="43.37657" lon="16.92473">
        <ele>180.017</ele>
        <time>2018-10-05T14:16:32Z</time>
      </trkpt>
      <trkpt lat="43.37655" lon="16.92473">
        <ele>179.008</ele>
        <time>2018-10-05T14:16:52Z</time>
      </trkpt>
      <trkpt lat="43.3765" lon="16.92474">
        <ele>178.014</ele>
        <time>2018-10-05T14:17:12Z</time>
      </trkpt>
      <trkpt lat="43.37644" lon="16.92469">
        <ele>177.051</ele>
        <time>2018-10-05T14:17:32Z</time>
      </trkpt>
      <trkpt lat="43.3764" lon="16.92455">
        <ele>174.054</ele>
        <time>2018-10-05T14:17:52Z</time>
      </trkpt>
      <trkpt lat="43.37636" lon="16.92442">
        <ele>171.056</ele>
        <time>2018-10-05T14:18:12Z</time>
      </trkpt>
      <trkpt lat="43.37634" lon="16.92438">
        <ele>170.094</ele>
        <time>2018-10-05T14:18:32Z</time>
      </trkpt>
      <trkpt lat="43.3763" lon="16.92431">
        <ele>169.065</ele>
        <time>2018-10-05T14:18:52Z</time>
      </trkpt>
      <trkpt lat="43.37626" lon="16.92424">
        <ele>168.035</ele>
        <time>2018-10-05T14:19:12Z</time>
      </trkpt>
      <trkpt lat="43.37624" lon="16.92419">
        <ele>166.064</ele>
        <time>2018-10-05T14:19:32Z</time>
      </trkpt>
      <trkpt lat="43.37624" lon="16.92414">
        <ele>165.021</ele>
        <time>2018-10-05T14:19:52Z</time>
      </trkpt>
      <trkpt lat="43.37622" lon="16.92412">
        <ele>165.041</ele>
        <time>2018-10-05T14:20:12Z</time>
      </trkpt>
      <trkpt lat="43.3762" lon="16.92411">
        <ele>164.005</ele>
        <time>2018-10-05T14:20:32Z</time>
      </trkpt>
      <trkpt lat="43.37618" lon="16.9241">
        <ele>163.008</ele>
        <time>2018-10-05T14:20:52Z</time>
      </trkpt>
      <trkpt lat="43.3761" lon="16.9241">
        <ele>162.074</ele>
        <time>2018-10-05T14:21:12Z</time>
      </trkpt>
      <trkpt lat="43.37597" lon="16.92421">
        <ele>160.041</ele>
        <time>2018-10-05T14:21:32Z</time>
      </trkpt>
      <trkpt lat="43.37593" lon="16.92426">
        <ele>159.074</ele>
        <time>2018-10-05T14:21:52Z</time>
      </trkpt>
      <trkpt lat="43.3759" lon="16.92428">
        <ele>158.016</ele>
        <time>2018-10-05T14:22:12Z</time>
      </trkpt>
      <trkpt lat="43.3759" lon="16.92428">
        <ele>158.044</ele>
        <time>2018-10-05T14:22:32Z</time>
      </trkpt>
      <trkpt lat="43.37565" lon="16.92422">
        <ele>143.015</ele>
        <time>2018-10-05T14:22:52Z</time>
      </trkpt>
      <trkpt lat="43.37566" lon="16.92417">
        <ele>142.095</ele>
        <time>2018-10-05T14:23:12Z</time>
      </trkpt>
      <trkpt lat="43.37569" lon="16.92413">
        <ele>142.094</ele>
        <time>2018-10-05T14:23:32Z</time>
      </trkpt>
      <trkpt lat="43.37571" lon="16.92406">
        <ele>141.058</ele>
        <time>2018-10-05T14:23:52Z</time>
      </trkpt>
      <trkpt lat="43.37571" lon="16.92405">
        <ele>141.052</ele>
        <time>2018-10-05T14:24:12Z</time>
      </trkpt>
      <trkpt lat="43.37568" lon="16.92405">
        <ele>140.017</ele>
        <time>2018-10-05T14:24:32Z</time>
      </trkpt>
      <trkpt lat="43.37567" lon="16.92407">
        <ele>139.008</ele>
        <time>2018-10-05T14:24:52Z</time>
      </trkpt>
      <trkpt lat="43.37564" lon="16.92406">
        <ele>138.067</ele>
        <time>2018-10-05T14:25:12Z</time>
      </trkpt>
      <trkpt lat="43.37567" lon="16.92402">
        <ele>137.054</ele>
        <time>2018-10-05T14:25:32Z</time>
      </trkpt>
      <trkpt lat="43.37567" lon="16.924">
        <ele>136.057</ele>
        <time>2018-10-05T14:25:52Z</time>
      </trkpt>
      <trkpt lat="43.37567" lon="16.92399">
        <ele>135.029</ele>
        <time>2018-10-05T14:26:12Z</time>
      </trkpt>
      <trkpt lat="43.37566" lon="16.92398">
        <ele>134.037</ele>
        <time>2018-10-05T14:26:32Z</time>
      </trkpt>
      <trkpt lat="43.37563" lon="16.92397">
        <ele>133.088</ele>
        <time>2018-10-05T14:26:52Z</time>
      </trkpt>
      <trkpt lat="43.37549" lon="16.92398">
        <ele>133.068</ele>
        <time>2018-10-05T14:27:12Z</time>
      </trkpt>
      <trkpt lat="43.37541" lon="16.9241">
        <ele>134.097</ele>
        <time>2018-10-05T14:27:32Z</time>
      </trkpt>
      <trkpt lat="43.37533" lon="16.92428">
        <ele>135.076</ele>
        <time>2018-10-05T14:27:52Z</time>
      </trkpt>
      <trkpt lat="43.37527" lon="16.92452">
        <ele>136.09</ele>
        <time>2018-10-05T14:28:12Z</time>
      </trkpt>
      <trkpt lat="43.37518" lon="16.92474">
        <ele>135.019</ele>
        <time>2018-10-05T14:28:32Z</time>
      </trkpt>
      <trkpt lat="43.37515" lon="16.92485">
        <ele>134.008</ele>
        <time>2018-10-05T14:28:52Z</time>
      </trkpt>
      <trkpt lat="43.37509" lon="16.92509">
        <ele>133.039</ele>
        <time>2018-10-05T14:29:12Z</time>
      </trkpt>
      <trkpt lat="43.37502" lon="16.9252">
        <ele>127.046</ele>
        <time>2018-10-05T14:29:32Z</time>
      </trkpt>
      <trkpt lat="43.37499" lon="16.92522">
        <ele>127.059</ele>
        <time>2018-10-05T14:29:52Z</time>
      </trkpt>
      <trkpt lat="43.37487" lon="16.92529">
        <ele>126.081</ele>
        <time>2018-10-05T14:30:12Z</time>
      </trkpt>
      <trkpt lat="43.37474" lon="16.92534">
        <ele>124.079</ele>
        <time>2018-10-05T14:30:32Z</time>
      </trkpt>
      <trkpt lat="43.37469" lon="16.92538">
        <ele>122.01</ele>
        <time>2018-10-05T14:30:52Z</time>
      </trkpt>
      <trkpt lat="43.37468" lon="16.92538">
        <ele>122.09</ele>
        <time>2018-10-05T14:31:12Z</time>
      </trkpt>
      <trkpt lat="43.37465" lon="16.92541">
        <ele>120.039</ele>
        <time>2018-10-05T14:31:32Z</time>
      </trkpt>
      <trkpt lat="43.37462" lon="16.92542">
        <ele>118.078</ele>
        <time>2018-10-05T14:31:52Z</time>
      </trkpt>
      <trkpt lat="43.37459" lon="16.92543">
        <ele>117.033</ele>
        <time>2018-10-05T14:32:12Z</time>
      </trkpt>
      <trkpt lat="43.37454" lon="16.92544">
        <ele>115.026</ele>
        <time>2018-10-05T14:32:32Z</time>
      </trkpt>
      <trkpt lat="43.37447" lon="16.92547">
        <ele>113.008</ele>
        <time>2018-10-05T14:32:52Z</time>
      </trkpt>
      <trkpt lat="43.37445" lon="16.92547">
        <ele>112.049</ele>
        <time>2018-10-05T14:33:12Z</time>
      </trkpt>
      <trkpt lat="43.37444" lon="16.92548">
        <ele>110.026</ele>
        <time>2018-10-05T14:33:32Z</time>
      </trkpt>
      <trkpt lat="43.37443" lon="16.92547">
        <ele>109.029</ele>
        <time>2018-10-05T14:33:52Z</time>
      </trkpt>
      <trkpt lat="43.37435" lon="16.92547">
        <ele>108.071</ele>
        <time>2018-10-05T14:34:12Z</time>
      </trkpt>
      <trkpt lat="43.37426" lon="16.92547">
        <ele>106.099</ele>
        <time>2018-10-05T14:34:32Z</time>
      </trkpt>
      <trkpt lat="43.37418" lon="16.92544">
        <ele>103.05</ele>
        <time>2018-10-05T14:34:52Z</time>
      </trkpt>
      <trkpt lat="43.37414" lon="16.92544">
        <ele>102.08</ele>
        <time>2018-10-05T14:35:12Z</time>
      </trkpt>
      <trkpt lat="43.37407" lon="16.92542">
        <ele>100.019</ele>
        <time>2018-10-05T14:35:32Z</time>
      </trkpt>
      <trkpt lat="43.374" lon="16.92537">
        <ele>99.034</ele>
        <time>2018-10-05T14:35:52Z</time>
      </trkpt>
      <trkpt lat="43.37396" lon="16.92525">
        <ele>96.055</ele>
        <time>2018-10-05T14:36:12Z</time>
      </trkpt>
      <trkpt lat="43.37394" lon="16.9252">
        <ele>95.01</ele>
        <time>2018-10-05T14:36:32Z</time>
      </trkpt>
      <trkpt lat="43.37389" lon="16.92519">
        <ele>93.008</ele>
        <time>2018-10-05T14:36:52Z</time>
      </trkpt>
      <trkpt lat="43.3738" lon="16.92522">
        <ele>90.085</ele>
        <time>2018-10-05T14:37:12Z</time>
      </trkpt>
      <trkpt lat="43.37377" lon="16.92523">
        <ele>89.092</ele>
        <time>2018-10-05T14:37:32Z</time>
      </trkpt>
      <trkpt lat="43.37371" lon="16.92528">
        <ele>87.015</ele>
        <time>2018-10-05T14:37:52Z</time>
      </trkpt>
      <trkpt lat="43.3736" lon="16.92525">
        <ele>84.047</ele>
        <time>2018-10-05T14:38:12Z</time>
      </trkpt>
      <trkpt lat="43.37354" lon="16.92519">
        <ele>83.025</ele>
        <time>2018-10-05T14:38:32Z</time>
      </trkpt>
      <trkpt lat="43.37349" lon="16.92514">
        <ele>82.086</ele>
        <time>2018-10-05T14:38:52Z</time>
      </trkpt>
      <trkpt lat="43.37343" lon="16.92497">
        <ele>80.096</ele>
        <time>2018-10-05T14:39:12Z</time>
      </trkpt>
      <trkpt lat="43.3734" lon="16.92491">
        <ele>78.045</ele>
        <time>2018-10-05T14:39:32Z</time>
      </trkpt>
      <trkpt lat="43.37329" lon="16.92484">
        <ele>75.036</ele>
        <time>2018-10-05T14:39:52Z</time>
      </trkpt>
      <trkpt lat="43.37317" lon="16.92481">
        <ele>72.017</ele>
        <time>2018-10-05T14:40:12Z</time>
      </trkpt>
      <trkpt lat="43.37307" lon="16.92475">
        <ele>68.018</ele>
        <time>2018-10-05T14:40:32Z</time>
      </trkpt>
      <trkpt lat="43.37298" lon="16.92464">
        <ele>65.008</ele>
        <time>2018-10-05T14:40:52Z</time>
      </trkpt>
      <trkpt lat="43.37289" lon="16.92456">
        <ele>63.055</ele>
        <time>2018-10-05T14:41:12Z</time>
      </trkpt>
      <trkpt lat="43.37285" lon="16.92452">
        <ele>60.082</ele>
        <time>2018-10-05T14:41:32Z</time>
      </trkpt>
      <trkpt lat="43.37275" lon="16.92444">
        <ele>57.055</ele>
        <time>2018-10-05T14:41:52Z</time>
      </trkpt>
      <trkpt lat="43.37268" lon="16.92443">
        <ele>55.097</ele>
        <time>2018-10-05T14:42:12Z</time>
      </trkpt>
      <trkpt lat="43.37261" lon="16.92445">
        <ele>53.075</ele>
        <time>2018-10-05T14:42:32Z</time>
      </trkpt>
      <trkpt lat="43.3725" lon="16.92445">
        <ele>52.036</ele>
        <time>2018-10-05T14:42:52Z</time>
      </trkpt>
      <trkpt lat="43.37237" lon="16.9244">
        <ele>49.056</ele>
        <time>2018-10-05T14:43:12Z</time>
      </trkpt>
      <trkpt lat="43.37234" lon="16.92439">
        <ele>48.055</ele>
        <time>2018-10-05T14:43:32Z</time>
      </trkpt>
      <trkpt lat="43.37223" lon="16.92439">
        <ele>45.042</ele>
        <time>2018-10-05T14:43:52Z</time>
      </trkpt>
      <trkpt lat="43.37217" lon="16.92438">
        <ele>44.022</ele>
        <time>2018-10-05T14:44:12Z</time>
      </trkpt>
      <trkpt lat="43.37205" lon="16.92432">
        <ele>40.014</ele>
        <time>2018-10-05T14:44:32Z</time>
      </trkpt>
      <trkpt lat="43.37196" lon="16.92432">
        <ele>38.008</ele>
        <time>2018-10-05T14:44:52Z</time>
      </trkpt>
      <trkpt lat="43.37185" lon="16.92431">
        <ele>35.066</ele>
        <time>2018-10-05T14:45:12Z</time>
      </trkpt>
      <trkpt lat="43.37172" lon="16.92429">
        <ele>31.043</ele>
        <time>2018-10-05T14:45:32Z</time>
      </trkpt>
      <trkpt lat="43.37166" lon="16.9243">
        <ele>30.096</ele>
        <time>2018-10-05T14:45:52Z</time>
      </trkpt>
      <trkpt lat="43.3715" lon="16.92431">
        <ele>29.078</ele>
        <time>2018-10-05T14:46:12Z</time>
      </trkpt>
      <trkpt lat="43.37136" lon="16.92428">
        <ele>26.076</ele>
        <time>2018-10-05T14:46:32Z</time>
      </trkpt>
      <trkpt lat="43.37129" lon="16.92426">
        <ele>24.057</ele>
        <time>2018-10-05T14:46:52Z</time>
      </trkpt>
      <trkpt lat="43.37119" lon="16.92425">
        <ele>23.077</ele>
        <time>2018-10-05T14:47:12Z</time>
      </trkpt>
      <trkpt lat="43.37109" lon="16.92421">
        <ele>22.036</ele>
        <time>2018-10-05T14:47:32Z</time>
      </trkpt>
      <trkpt lat="43.37095" lon="16.9241">
        <ele>20.018</ele>
        <time>2018-10-05T14:47:52Z</time>
      </trkpt>
      <trkpt lat="43.37092" lon="16.92404">
        <ele>19.098</ele>
        <time>2018-10-05T14:48:12Z</time>
      </trkpt>
      <trkpt lat="43.37091" lon="16.92395">
        <ele>18.017</ele>
        <time>2018-10-05T14:48:32Z</time>
      </trkpt>
      <trkpt lat="43.37091" lon="16.92372">
        <ele>17.008</ele>
        <time>2018-10-05T14:48:52Z</time>
      </trkpt>
      <trkpt lat="43.37095" lon="16.92341">
        <ele>16.033</ele>
        <time>2018-10-05T14:49:12Z</time>
      </trkpt>
      <trkpt lat="43.37095" lon="16.92324">
        <ele>14.05</ele>
        <time>2018-10-05T14:49:32Z</time>
      </trkpt>
      <trkpt lat="43.37091" lon="16.92312">
        <ele>12.063</ele>
        <time>2018-10-05T14:49:52Z</time>
      </trkpt>
      <trkpt lat="43.37087" lon="16.92306">
        <ele>11.045</ele>
        <time>2018-10-05T14:50:12Z</time>
      </trkpt>
      <trkpt lat="43.371" lon="16.92299">
        <ele>9.023</ele>
        <time>2018-10-05T14:50:32Z</time>
      </trkpt>
      <trkpt lat="43.37118" lon="16.92301">
        <ele>8.094</ele>
        <time>2018-10-05T14:50:52Z</time>
      </trkpt>
      <trkpt lat="43.37137" lon="16.92302">
        <ele>9.064</ele>
        <time>2018-10-05T14:51:12Z</time>
      </trkpt>
      <trkpt lat="43.37156" lon="16.92297">
        <ele>9.073</ele>
        <time>2018-10-05T14:51:32Z</time>
      </trkpt>
      <trkpt lat="43.37176" lon="16.92289">
        <ele>9.011</ele>
        <time>2018-10-05T14:51:52Z</time>
      </trkpt>
      <trkpt lat="43.37194" lon="16.92281">
        <ele>9.021</ele>
        <time>2018-10-05T14:52:12Z</time>
      </trkpt>
      <trkpt lat="43.37212" lon="16.92275">
        <ele>9.003</ele>
        <time>2018-10-05T14:52:32Z</time>
      </trkpt>
      <trkpt lat="43.37215" lon="16.92276">
        <ele>9.008</ele>
        <time>2018-10-05T14:52:52Z</time>
      </trkpt>
      <trkpt lat="43.37224" lon="16.92269">
        <ele>9.083</ele>
        <time>2018-10-05T14:53:12Z</time>
      </trkpt>
      <trkpt lat="43.3723" lon="16.92269">
        <ele>9.06</ele>
        <time>2018-10-05T14:53:32Z</time>
      </trkpt>
      <trkpt lat="43.37246" lon="16.92262">
        <ele>10.093</ele>
        <time>2018-10-05T14:53:52Z</time>
      </trkpt>
      <trkpt lat="43.37248" lon="16.92261">
        <ele>10.015</ele>
        <time>2018-10-05T14:54:12Z</time>
      </trkpt>
      <trkpt lat="43.37254" lon="16.92262">
        <ele>10.033</ele>
        <time>2018-10-05T14:54:32Z</time>
      </trkpt>
      <trkpt lat="43.37255" lon="16.92261">
        <ele>11.064</ele>
        <time>2018-10-05T14:54:52Z</time>
      </trkpt>
      <trkpt lat="43.37264" lon="16.92262">
        <ele>11.044</ele>
        <time>2018-10-05T14:55:12Z</time>
      </trkpt>
      <trkpt lat="43.37281" lon="16.92252">
        <ele>11.053</ele>
        <time>2018-10-05T14:55:32Z</time>
      </trkpt>
      <trkpt lat="43.37299" lon="16.92242">
        <ele>10.024</ele>
        <time>2018-10-05T14:55:52Z</time>
      </trkpt>
      <trkpt lat="43.37309" lon="16.92235">
        <ele>9.004</ele>
        <time>2018-10-05T14:56:12Z</time>
      </trkpt>
      <trkpt lat="43.37322" lon="16.92217">
        <ele>9.014</ele>
        <time>2018-10-05T14:56:32Z</time>
      </trkpt>
      <trkpt lat="43.37332" lon="16.92197">
        <ele>9.008</ele>
        <time>2018-10-05T14:56:52Z</time>
      </trkpt>
      <trkpt lat="43.37346" lon="16.92178">
        <ele>9.054</ele>
        <time>2018-10-05T14:57:12Z</time>
      </trkpt>
      <trkpt lat="43.37362" lon="16.92164">
        <ele>10.061</ele>
        <time>2018-10-05T14:57:32Z</time>
      </trkpt>
      <trkpt lat="43.37381" lon="16.92159">
        <ele>9.074</ele>
        <time>2018-10-05T14:57:52Z</time>
      </trkpt>
      <trkpt lat="43.374" lon="16.92155">
        <ele>9.066</ele>
        <time>2018-10-05T14:58:12Z</time>
      </trkpt>
      <trkpt lat="43.37418" lon="16.92152">
        <ele>9.024</ele>
        <time>2018-10-05T14:58:32Z</time>
      </trkpt>
      <trkpt lat="43.37435" lon="16.92138">
        <ele>9.045</ele>
        <time>2018-10-05T14:58:52Z</time>
      </trkpt>
      <trkpt lat="43.37444" lon="16.92119">
        <ele>8.045</ele>
        <time>2018-10-05T14:59:12Z</time>
      </trkpt>
      <trkpt lat="43.37449" lon="16.92092">
        <ele>8.024</ele>
        <time>2018-10-05T14:59:32Z</time>
      </trkpt>
      <trkpt lat="43.37456" lon="16.92077">
        <ele>9.061</ele>
        <time>2018-10-05T14:59:52Z</time>
      </trkpt>
      <trkpt lat="43.37469" lon="16.92062">
        <ele>10.021</ele>
        <time>2018-10-05T15:00:12Z</time>
      </trkpt>
      <trkpt lat="43.37484" lon="16.92046">
        <ele>10.013</ele>
        <time>2018-10-05T15:00:32Z</time>
      </trkpt>
      <trkpt lat="43.37498" lon="16.92029">
        <ele>10.008</ele>
        <time>2018-10-05T15:00:52Z</time>
      </trkpt>
      <trkpt lat="43.37505" lon="16.92021">
        <ele>9.058</ele>
        <time>2018-10-05T15:01:12Z</time>
      </trkpt>
      <trkpt lat="43.37524" lon="16.92006">
        <ele>8.025</ele>
        <time>2018-10-05T15:01:32Z</time>
      </trkpt>
      <trkpt lat="43.37539" lon="16.91986">
        <ele>8.018</ele>
        <time>2018-10-05T15:01:52Z</time>
      </trkpt>
      <trkpt lat="43.3755" lon="16.91966">
        <ele>7.02</ele>
        <time>2018-10-05T15:02:12Z</time>
      </trkpt>
      <trkpt lat="43.37562" lon="16.91944">
        <ele>7.098</ele>
        <time>2018-10-05T15:02:32Z</time>
      </trkpt>
      <trkpt lat="43.37573" lon="16.91921">
        <ele>8.089</ele>
        <time>2018-10-05T15:02:52Z</time>
      </trkpt>
      <trkpt lat="43.37585" lon="16.91898">
        <ele>8.069</ele>
        <time>2018-10-05T15:03:12Z</time>
      </trkpt>
      <trkpt lat="43.376" lon="16.91883">
        <ele>7.058</ele>
        <time>2018-10-05T15:03:32Z</time>
      </trkpt>
      <trkpt lat="43.37615" lon="16.91867">
        <ele>7.096</ele>
        <time>2018-10-05T15:03:52Z</time>
      </trkpt>
      <trkpt lat="43.37629" lon="16.91853">
        <ele>8.031</ele>
        <time>2018-10-05T15:04:12Z</time>
      </trkpt>
      <trkpt lat="43.37648" lon="16.91843">
        <ele>8.024</ele>
        <time>2018-10-05T15:04:32Z</time>
      </trkpt>
      <trkpt lat="43.37661" lon="16.91827">
        <ele>8.008</ele>
        <time>2018-10-05T15:04:52Z</time>
      </trkpt>
      <trkpt lat="43.37673" lon="16.91808">
        <ele>8.041</ele>
        <time>2018-10-05T15:05:12Z</time>
      </trkpt>
      <trkpt lat="43.37682" lon="16.91785">
        <ele>8.018</ele>
        <time>2018-10-05T15:05:32Z</time>
      </trkpt>
      <trkpt lat="43.37687" lon="16.91761">
        <ele>9.051</ele>
        <time>2018-10-05T15:05:52Z</time>
      </trkpt>
      <trkpt lat="43.37696" lon="16.91738">
        <ele>9.093</ele>
        <time>2018-10-05T15:06:12Z</time>
      </trkpt>
      <trkpt lat="43.37705" lon="16.91715">
        <ele>8.061</ele>
        <time>2018-10-05T15:06:32Z</time>
      </trkpt>
      <trkpt lat="43.37716" lon="16.91692">
        <ele>8.022</ele>
        <time>2018-10-05T15:06:52Z</time>
      </trkpt>
      <trkpt lat="43.37721" lon="16.91668">
        <ele>8.022</ele>
        <time>2018-10-05T15:07:12Z</time>
      </trkpt>
      <trkpt lat="43.37725" lon="16.91642">
        <ele>8.071</ele>
        <time>2018-10-05T15:07:32Z</time>
      </trkpt>
      <trkpt lat="43.37724" lon="16.91615">
        <ele>8.061</ele>
        <time>2018-10-05T15:07:52Z</time>
      </trkpt>
      <trkpt lat="43.37728" lon="16.91591">
        <ele>8.021</ele>
        <time>2018-10-05T15:08:12Z</time>
      </trkpt>
      <trkpt lat="43.37744" lon="16.9158">
        <ele>8.013</ele>
        <time>2018-10-05T15:08:32Z</time>
      </trkpt>
      <trkpt lat="43.37762" lon="16.91575">
        <ele>7.008</ele>
        <time>2018-10-05T15:08:52Z</time>
      </trkpt>
      <trkpt lat="43.3778" lon="16.91567">
        <ele>8.058</ele>
        <time>2018-10-05T15:09:12Z</time>
      </trkpt>
      <trkpt lat="43.37798" lon="16.91562">
        <ele>8.065</ele>
        <time>2018-10-05T15:09:32Z</time>
      </trkpt>
      <trkpt lat="43.37817" lon="16.91555">
        <ele>8.078</ele>
        <time>2018-10-05T15:09:52Z</time>
      </trkpt>
      <trkpt lat="43.3784" lon="16.91562">
        <ele>7.01</ele>
        <time>2018-10-05T15:10:12Z</time>
      </trkpt>
      <trkpt lat="43.37859" lon="16.91563">
        <ele>7.038</ele>
        <time>2018-10-05T15:10:32Z</time>
      </trkpt>
      <trkpt lat="43.37879" lon="16.91555">
        <ele>7.089</ele>
        <time>2018-10-05T15:10:52Z</time>
      </trkpt>
      <trkpt lat="43.37898" lon="16.91548">
        <ele>7.089</ele>
        <time>2018-10-05T15:11:12Z</time>
      </trkpt>
      <trkpt lat="43.37917" lon="16.91539">
        <ele>7.028</ele>
        <time>2018-10-05T15:11:32Z</time>
      </trkpt>
      <trkpt lat="43.37934" lon="16.91527">
        <ele>7.036</ele>
        <time>2018-10-05T15:11:52Z</time>
      </trkpt>
      <trkpt lat="43.37948" lon="16.91509">
        <ele>7.017</ele>
        <time>2018-10-05T15:12:12Z</time>
      </trkpt>
      <trkpt lat="43.37958" lon="16.91488">
        <ele>7.018</ele>
        <time>2018-10-05T15:12:32Z</time>
      </trkpt>
      <trkpt lat="43.37962" lon="16.91463">
        <ele>7.008</ele>
        <time>2018-10-05T15:12:52Z</time>
      </trkpt>
      <trkpt lat="43.37978" lon="16.91445">
        <ele>6.065</ele>
        <time>2018-10-05T15:13:12Z</time>
      </trkpt>
      <trkpt lat="43.37989" lon="16.91423">
        <ele>7.092</ele>
        <time>2018-10-05T15:13:32Z</time>
      </trkpt>
      <trkpt lat="43.38003" lon="16.91406">
        <ele>7.025</ele>
        <time>2018-10-05T15:13:52Z</time>
      </trkpt>
      <trkpt lat="43.38021" lon="16.91405">
        <ele>7.077</ele>
        <time>2018-10-05T15:14:12Z</time>
      </trkpt>
      <trkpt lat="43.38037" lon="16.91393">
        <ele>7.045</ele>
        <time>2018-10-05T15:14:32Z</time>
      </trkpt>
      <trkpt lat="43.38049" lon="16.91371">
        <ele>7.056</ele>
        <time>2018-10-05T15:14:52Z</time>
      </trkpt>
      <trkpt lat="43.38062" lon="16.91352">
        <ele>7.026</ele>
        <time>2018-10-05T15:15:12Z</time>
      </trkpt>
      <trkpt lat="43.38069" lon="16.91328">
        <ele>7.045</ele>
        <time>2018-10-05T15:15:32Z</time>
      </trkpt>
      <trkpt lat="43.38068" lon="16.913">
        <ele>8.068</ele>
        <time>2018-10-05T15:15:52Z</time>
      </trkpt>
      <trkpt lat="43.38059" lon="16.91277">
        <ele>8.042</ele>
        <time>2018-10-05T15:16:12Z</time>
      </trkpt>
      <trkpt lat="43.38054" lon="16.91252">
        <ele>8.026</ele>
        <time>2018-10-05T15:16:32Z</time>
      </trkpt>
      <trkpt lat="43.38053" lon="16.91224">
        <ele>8.008</ele>
        <time>2018-10-05T15:16:52Z</time>
      </trkpt>
      <trkpt lat="43.38054" lon="16.91197">
        <ele>8.078</ele>
        <time>2018-10-05T15:17:12Z</time>
      </trkpt>
      <trkpt lat="43.3805" lon="16.91172">
        <ele>8.075</ele>
        <time>2018-10-05T15:17:32Z</time>
      </trkpt>
      <trkpt lat="43.38042" lon="16.91148">
        <ele>8.088</ele>
        <time>2018-10-05T15:17:52Z</time>
      </trkpt>
      <trkpt lat="43.38038" lon="16.91139">
        <ele>8.06</ele>
        <time>2018-10-05T15:18:12Z</time>
      </trkpt>
      <trkpt lat="43.38039" lon="16.91115">
        <ele>9.088</ele>
        <time>2018-10-05T15:18:32Z</time>
      </trkpt>
      <trkpt lat="43.38047" lon="16.91091">
        <ele>9.059</ele>
        <time>2018-10-05T15:18:52Z</time>
      </trkpt>
      <trkpt lat="43.38055" lon="16.91069">
        <ele>9.029</ele>
        <time>2018-10-05T15:19:12Z</time>
      </trkpt>
      <trkpt lat="43.38067" lon="16.91048">
        <ele>8.088</ele>
        <time>2018-10-05T15:19:32Z</time>
      </trkpt>
      <trkpt lat="43.38078" lon="16.91027">
        <ele>8.067</ele>
        <time>2018-10-05T15:19:52Z</time>
      </trkpt>
      <trkpt lat="43.38093" lon="16.91011">
        <ele>9.081</ele>
        <time>2018-10-05T15:20:12Z</time>
      </trkpt>
      <trkpt lat="43.38107" lon="16.90994">
        <ele>8.019</ele>
        <time>2018-10-05T15:20:32Z</time>
      </trkpt>
      <trkpt lat="43.38113" lon="16.90986">
        <ele>9.008</ele>
        <time>2018-10-05T15:20:52Z</time>
      </trkpt>
      <trkpt lat="43.38126" lon="16.90967">
        <ele>9.038</ele>
        <time>2018-10-05T15:21:12Z</time>
      </trkpt>
      <trkpt lat="43.38135" lon="16.90956">
        <ele>10.055</ele>
        <time>2018-10-05T15:21:32Z</time>
      </trkpt>
      <trkpt lat="43.38149" lon="16.90938">
        <ele>11.048</ele>
        <time>2018-10-05T15:21:52Z</time>
      </trkpt>
      <trkpt lat="43.38164" lon="16.90919">
        <ele>11.04</ele>
        <time>2018-10-05T15:22:12Z</time>
      </trkpt>
      <trkpt lat="43.3818" lon="16.90908">
        <ele>10.048</ele>
        <time>2018-10-05T15:22:32Z</time>
      </trkpt>
      <trkpt lat="43.38197" lon="16.90899">
        <ele>9.039</ele>
        <time>2018-10-05T15:22:52Z</time>
      </trkpt>
      <trkpt lat="43.38214" lon="16.90889">
        <ele>9.039</ele>
        <time>2018-10-05T15:23:12Z</time>
      </trkpt>
      <trkpt lat="43.3823" lon="16.90878">
        <ele>8.088</ele>
        <time>2018-10-05T15:23:32Z</time>
      </trkpt>
      <trkpt lat="43.38242" lon="16.90864">
        <ele>8.015</ele>
        <time>2018-10-05T15:23:52Z</time>
      </trkpt>
      <trkpt lat="43.38255" lon="16.90845">
        <ele>8.065</ele>
        <time>2018-10-05T15:24:12Z</time>
      </trkpt>
      <trkpt lat="43.38261" lon="16.90821">
        <ele>8.011</ele>
        <time>2018-10-05T15:24:32Z</time>
      </trkpt>
      <trkpt lat="43.38263" lon="16.90796">
        <ele>8.008</ele>
        <time>2018-10-05T15:24:52Z</time>
      </trkpt>
      <trkpt lat="43.38263" lon="16.90769">
        <ele>9.043</ele>
        <time>2018-10-05T15:25:12Z</time>
      </trkpt>
      <trkpt lat="43.38262" lon="16.90741">
        <ele>9.06</ele>
        <time>2018-10-05T15:25:32Z</time>
      </trkpt>
      <trkpt lat="43.38264" lon="16.90716">
        <ele>9.043</ele>
        <time>2018-10-05T15:25:52Z</time>
      </trkpt>
      <trkpt lat="43.38271" lon="16.90691">
        <ele>9.025</ele>
        <time>2018-10-05T15:26:12Z</time>
      </trkpt>
      <trkpt lat="43.38276" lon="16.90665">
        <ele>9.043</ele>
        <time>2018-10-05T15:26:32Z</time>
      </trkpt>
      <trkpt lat="43.38282" lon="16.9064">
        <ele>9.034</ele>
        <time>2018-10-05T15:26:52Z</time>
      </trkpt>
      <trkpt lat="43.38289" lon="16.90617">
        <ele>9.024</ele>
        <time>2018-10-05T15:27:12Z</time>
      </trkpt>
      <trkpt lat="43.383" lon="16.90596">
        <ele>9.093</ele>
        <time>2018-10-05T15:27:32Z</time>
      </trkpt>
      <trkpt lat="43.38303" lon="16.90587">
        <ele>9.028</ele>
        <time>2018-10-05T15:27:52Z</time>
      </trkpt>
      <trkpt lat="43.38305" lon="16.90562">
        <ele>10.089</ele>
        <time>2018-10-05T15:28:12Z</time>
      </trkpt>
      <trkpt lat="43.38307" lon="16.90534">
        <ele>10.017</ele>
        <time>2018-10-05T15:28:32Z</time>
      </trkpt>
      <trkpt lat="43.3831" lon="16.90507">
        <ele>10.008</ele>
        <time>2018-10-05T15:28:52Z</time>
      </trkpt>
      <trkpt lat="43.38321" lon="16.90486">
        <ele>10.034</ele>
        <time>2018-10-05T15:29:12Z</time>
      </trkpt>
      <trkpt lat="43.3833" lon="16.90469">
        <ele>10.031</ele>
        <time>2018-10-05T15:29:32Z</time>
      </trkpt>
      <trkpt lat="43.38343" lon="16.90452">
        <ele>10.054</ele>
        <time>2018-10-05T15:29:52Z</time>
      </trkpt>
      <trkpt lat="43.3836" lon="16.90436">
        <ele>10.016</ele>
        <time>2018-10-05T15:30:12Z</time>
      </trkpt>
      <trkpt lat="43.38379" lon="16.90427">
        <ele>10.074</ele>
        <time>2018-10-05T15:30:32Z</time>
      </trkpt>
      <trkpt lat="43.38395" lon="16.90421">
        <ele>9.015</ele>
        <time>2018-10-05T15:30:52Z</time>
      </trkpt>
      <trkpt lat="43.38409" lon="16.90405">
        <ele>9.045</ele>
        <time>2018-10-05T15:31:12Z</time>
      </trkpt>
      <trkpt lat="43.38422" lon="16.90386">
        <ele>9.064</ele>
        <time>2018-10-05T15:31:32Z</time>
      </trkpt>
      <trkpt lat="43.38439" lon="16.90374">
        <ele>10.033</ele>
        <time>2018-10-05T15:31:52Z</time>
      </trkpt>
      <trkpt lat="43.38457" lon="16.90366">
        <ele>10.023</ele>
        <time>2018-10-05T15:32:12Z</time>
      </trkpt>
      <trkpt lat="43.38474" lon="16.90356">
        <ele>10.015</ele>
        <time>2018-10-05T15:32:32Z</time>
      </trkpt>
      <trkpt lat="43.38489" lon="16.90337">
        <ele>9.008</ele>
        <time>2018-10-05T15:32:52Z</time>
      </trkpt>
      <trkpt lat="43.38503" lon="16.90319">
        <ele>9.095</ele>
        <time>2018-10-05T15:33:12Z</time>
      </trkpt>
      <trkpt lat="43.38512" lon="16.90296">
        <ele>8.032</ele>
        <time>2018-10-05T15:33:32Z</time>
      </trkpt>
      <trkpt lat="43.38526" lon="16.90274">
        <ele>8.045</ele>
        <time>2018-10-05T15:33:52Z</time>
      </trkpt>
      <trkpt lat="43.38542" lon="16.90256">
        <ele>9.087</ele>
        <time>2018-10-05T15:34:12Z</time>
      </trkpt>
      <trkpt lat="43.38562" lon="16.90259">
        <ele>8.095</ele>
        <time>2018-10-05T15:34:32Z</time>
      </trkpt>
      <trkpt lat="43.38579" lon="16.90259">
        <ele>8.046</ele>
        <time>2018-10-05T15:34:52Z</time>
      </trkpt>
      <trkpt lat="43.38587" lon="16.90236">
        <ele>8.016</ele>
        <time>2018-10-05T15:35:12Z</time>
      </trkpt>
      <trkpt lat="43.38598" lon="16.90215">
        <ele>9.015</ele>
        <time>2018-10-05T15:35:32Z</time>
      </trkpt>
      <trkpt lat="43.386" lon="16.90203">
        <ele>9.028</ele>
        <time>2018-10-05T15:35:52Z</time>
      </trkpt>
      <trkpt lat="43.38599" lon="16.90192">
        <ele>9.089</ele>
        <time>2018-10-05T15:36:12Z</time>
      </trkpt>
      <trkpt lat="43.38598" lon="16.90166">
        <ele>8.017</ele>
        <time>2018-10-05T15:36:32Z</time>
      </trkpt>
      <trkpt lat="43.386" lon="16.9014">
        <ele>8.008</ele>
        <time>2018-10-05T15:36:52Z</time>
      </trkpt>
      <trkpt lat="43.38606" lon="16.90133">
        <ele>8.064</ele>
        <time>2018-10-05T15:37:12Z</time>
      </trkpt>
      <trkpt lat="43.38619" lon="16.90113">
        <ele>8.031</ele>
        <time>2018-10-05T15:37:32Z</time>
      </trkpt>
      <trkpt lat="43.38625" lon="16.90102">
        <ele>9.084</ele>
        <time>2018-10-05T15:37:52Z</time>
      </trkpt>
      <trkpt lat="43.38626" lon="16.901">
        <ele>9.036</ele>
        <time>2018-10-05T15:38:12Z</time>
      </trkpt>
      <trkpt lat="43.38626" lon="16.901">
        <ele>9.014</ele>
        <time>2018-10-05T15:38:32Z</time>
      </trkpt>
      <trkpt lat="43.38627" lon="16.90099">
        <ele>9.035</ele>
        <time>2018-10-05T15:38:52Z</time>
      </trkpt>
      <trkpt lat="43.38629" lon="16.90101">
        <ele>10.055</ele>
        <time>2018-10-05T15:39:12Z</time>
      </trkpt>
      <trkpt lat="43.38629" lon="16.90104">
        <ele>11.074</ele>
        <time>2018-10-05T15:39:32Z</time>
      </trkpt>
      <trkpt lat="43.38627" lon="16.90107">
        <ele>12.075</ele>
        <time>2018-10-05T15:39:52Z</time>
      </trkpt>
      <trkpt lat="43.38626" lon="16.9011">
        <ele>13.028</ele>
        <time>2018-10-05T15:40:12Z</time>
      </trkpt>
      <trkpt lat="43.38627" lon="16.90116">
        <ele>14.02</ele>
        <time>2018-10-05T15:40:32Z</time>
      </trkpt>
      <trkpt lat="43.38626" lon="16.90118">
        <ele>14.008</ele>
        <time>2018-10-05T15:40:52Z</time>
      </trkpt>
      <trkpt lat="43.38627" lon="16.90127">
        <ele>15.039</ele>
        <time>2018-10-05T15:41:12Z</time>
      </trkpt>
      <trkpt lat="43.38627" lon="16.90131">
        <ele>15.046</ele>
        <time>2018-10-05T15:41:32Z</time>
      </trkpt>
      <trkpt lat="43.38629" lon="16.90125">
        <ele>17.049</ele>
        <time>2018-10-05T15:41:52Z</time>
      </trkpt>
      <trkpt lat="43.3863" lon="16.9012">
        <ele>18.031</ele>
        <time>2018-10-05T15:42:12Z</time>
      </trkpt>
      <trkpt lat="43.38633" lon="16.90114">
        <ele>20.059</ele>
        <time>2018-10-05T15:42:32Z</time>
      </trkpt>
      <trkpt lat="43.38636" lon="16.90111">
        <ele>22.08</ele>
        <time>2018-10-05T15:42:52Z</time>
      </trkpt>
      <trkpt lat="43.38639" lon="16.90102">
        <ele>24.08</ele>
        <time>2018-10-05T15:43:12Z</time>
      </trkpt>
      <trkpt lat="43.38639" lon="16.901">
        <ele>24.099</ele>
        <time>2018-10-05T15:43:32Z</time>
      </trkpt>
      <trkpt lat="43.38643" lon="16.90092">
        <ele>26.053</ele>
        <time>2018-10-05T15:43:52Z</time>
      </trkpt>
      <trkpt lat="43.38644" lon="16.90092">
        <ele>26.004</ele>
        <time>2018-10-05T15:44:12Z</time>
      </trkpt>
      <trkpt lat="43.38648" lon="16.9009">
        <ele>27.014</ele>
        <time>2018-10-05T15:44:32Z</time>
      </trkpt>
      <trkpt lat="43.38652" lon="16.90089">
        <ele>29.008</ele>
        <time>2018-10-05T15:44:52Z</time>
      </trkpt>
      <trkpt lat="43.38654" lon="16.90087">
        <ele>29.047</ele>
        <time>2018-10-05T15:45:12Z</time>
      </trkpt>
      <trkpt lat="43.38658" lon="16.90083">
        <ele>30.044</ele>
        <time>2018-10-05T15:45:32Z</time>
      </trkpt>
      <trkpt lat="43.38667" lon="16.90067">
        <ele>31.077</ele>
        <time>2018-10-05T15:45:52Z</time>
      </trkpt>
      <trkpt lat="43.38673" lon="16.90052">
        <ele>32.049</ele>
        <time>2018-10-05T15:46:12Z</time>
      </trkpt>
      <trkpt lat="43.38681" lon="16.90034">
        <ele>34.017</ele>
        <time>2018-10-05T15:46:32Z</time>
      </trkpt>
      <trkpt lat="43.38692" lon="16.90005">
        <ele>36.048</ele>
        <time>2018-10-05T15:46:52Z</time>
      </trkpt>
      <trkpt lat="43.38701" lon="16.89983">
        <ele>36.038</ele>
        <time>2018-10-05T15:47:12Z</time>
      </trkpt>
      <trkpt lat="43.38707" lon="16.89964">
        <ele>36.097</ele>
        <time>2018-10-05T15:47:32Z</time>
      </trkpt>
      <trkpt lat="43.38714" lon="16.89945">
        <ele>37.062</ele>
        <time>2018-10-05T15:47:52Z</time>
      </trkpt>
      <trkpt lat="43.38716" lon="16.8994">
        <ele>39.083</ele>
        <time>2018-10-05T15:48:12Z</time>
      </trkpt>
      <trkpt lat="43.38727" lon="16.89929">
        <ele>41.011</ele>
        <time>2018-10-05T15:48:32Z</time>
      </trkpt>
      <trkpt lat="43.38736" lon="16.89923">
        <ele>42.008</ele>
        <time>2018-10-05T15:48:52Z</time>
      </trkpt>
      <trkpt lat="43.3874" lon="16.8992">
        <ele>43.048</ele>
        <time>2018-10-05T15:49:12Z</time>
      </trkpt>
      <trkpt lat="43.38743" lon="16.89919">
        <ele>44.055</ele>
        <time>2018-10-05T15:49:32Z</time>
      </trkpt>
      <trkpt lat="43.38751" lon="16.89914">
        <ele>45.078</ele>
        <time>2018-10-05T15:49:52Z</time>
      </trkpt>
      <trkpt lat="43.38759" lon="16.89904">
        <ele>47.09</ele>
        <time>2018-10-05T15:50:12Z</time>
      </trkpt>
      <trkpt lat="43.38767" lon="16.89895">
        <ele>50.038</ele>
        <time>2018-10-05T15:50:32Z</time>
      </trkpt>
      <trkpt lat="43.38776" lon="16.89885">
        <ele>51.069</ele>
        <time>2018-10-05T15:50:52Z</time>
      </trkpt>
      <trkpt lat="43.38787" lon="16.89863">
        <ele>50.059</ele>
        <time>2018-10-05T15:51:12Z</time>
      </trkpt>
      <trkpt lat="43.38795" lon="16.8984">
        <ele>50.028</ele>
        <time>2018-10-05T15:51:32Z</time>
      </trkpt>
      <trkpt lat="43.38804" lon="16.89821">
        <ele>48.097</ele>
        <time>2018-10-05T15:51:52Z</time>
      </trkpt>
      <trkpt lat="43.38813" lon="16.898">
        <ele>48.023</ele>
        <time>2018-10-05T15:52:12Z</time>
      </trkpt>
      <trkpt lat="43.38827" lon="16.89781">
        <ele>46.025</ele>
        <time>2018-10-05T15:52:32Z</time>
      </trkpt>
      <trkpt lat="43.38833" lon="16.89769">
        <ele>45.008</ele>
        <time>2018-10-05T15:52:52Z</time>
      </trkpt>
      <trkpt lat="43.38846" lon="16.89751">
        <ele>44.031</ele>
        <time>2018-10-05T15:53:12Z</time>
      </trkpt>
      <trkpt lat="43.38852" lon="16.89744">
        <ele>44.088</ele>
        <time>2018-10-05T15:53:32Z</time>
      </trkpt>
      <trkpt lat="43.38856" lon="16.89735">
        <ele>45.061</ele>
        <time>2018-10-05T15:53:52Z</time>
      </trkpt>
      <trkpt lat="43.38864" lon="16.89732">
        <ele>45.033</ele>
        <time>2018-10-05T15:54:12Z</time>
      </trkpt>
      <trkpt lat="43.38877" lon="16.89723">
        <ele>44.071</ele>
        <time>2018-10-05T15:54:32Z</time>
      </trkpt>
      <trkpt lat="43.38885" lon="16.89716">
        <ele>43.052</ele>
        <time>2018-10-05T15:54:52Z</time>
      </trkpt>
      <trkpt lat="43.38897" lon="16.89703">
        <ele>42.072</ele>
        <time>2018-10-05T15:55:12Z</time>
      </trkpt>
      <trkpt lat="43.38909" lon="16.89682">
        <ele>41.061</ele>
        <time>2018-10-05T15:55:32Z</time>
      </trkpt>
      <trkpt lat="43.38915" lon="16.89672">
        <ele>41.093</ele>
        <time>2018-10-05T15:55:52Z</time>
      </trkpt>
      <trkpt lat="43.38927" lon="16.89654">
        <ele>40.065</ele>
        <time>2018-10-05T15:56:12Z</time>
      </trkpt>
      <trkpt lat="43.38937" lon="16.8964">
        <ele>38.021</ele>
        <time>2018-10-05T15:56:32Z</time>
      </trkpt>
      <trkpt lat="43.38954" lon="16.89626">
        <ele>38.008</ele>
        <time>2018-10-05T15:56:52Z</time>
      </trkpt>
      <trkpt lat="43.38973" lon="16.89619">
        <ele>38.051</ele>
        <time>2018-10-05T15:57:12Z</time>
      </trkpt>
      <trkpt lat="43.38985" lon="16.89611">
        <ele>40.098</ele>
        <time>2018-10-05T15:57:32Z</time>
      </trkpt>
      <trkpt lat="43.38993" lon="16.89604">
        <ele>41.061</ele>
        <time>2018-10-05T15:57:52Z</time>
      </trkpt>
      <trkpt lat="43.39003" lon="16.89597">
        <ele>42.013</ele>
        <time>2018-10-05T15:58:12Z</time>
      </trkpt>
      <trkpt lat="43.3902" lon="16.89582">
        <ele>42.021</ele>
        <time>2018-10-05T15:58:32Z</time>
      </trkpt>
      <trkpt lat="43.39036" lon="16.89569">
        <ele>42.012</ele>
        <time>2018-10-05T15:58:52Z</time>
      </trkpt>
      <trkpt lat="43.3905" lon="16.89553">
        <ele>41.062</ele>
        <time>2018-10-05T15:59:12Z</time>
      </trkpt>
      <trkpt lat="43.39063" lon="16.89532">
        <ele>40.011</ele>
        <time>2018-10-05T15:59:32Z</time>
      </trkpt>
      <trkpt lat="43.3908" lon="16.89524">
        <ele>41.063</ele>
        <time>2018-10-05T15:59:52Z</time>
      </trkpt>
      <trkpt lat="43.39083" lon="16.89525">
        <ele>42.044</ele>
        <time>2018-10-05T16:00:12Z</time>
      </trkpt>
      <trkpt lat="43.39094" lon="16.89525">
        <ele>43.018</ele>
        <time>2018-10-05T16:00:32Z</time>
      </trkpt>
      <trkpt lat="43.391" lon="16.89525">
        <ele>44.008</ele>
        <time>2018-10-05T16:00:52Z</time>
      </trkpt>
      <trkpt lat="43.39116" lon="16.89521">
        <ele>45.038</ele>
        <time>2018-10-05T16:01:12Z</time>
      </trkpt>
      <trkpt lat="43.39133" lon="16.89515">
        <ele>46.065</ele>
        <time>2018-10-05T16:01:32Z</time>
      </trkpt>
      <trkpt lat="43.39151" lon="16.89505">
        <ele>47.078</ele>
        <time>2018-10-05T16:01:52Z</time>
      </trkpt>
      <trkpt lat="43.39167" lon="16.89493">
        <ele>48.04</ele>
        <time>2018-10-05T16:02:12Z</time>
      </trkpt>
      <trkpt lat="43.39182" lon="16.8948">
        <ele>48.078</ele>
        <time>2018-10-05T16:02:32Z</time>
      </trkpt>
      <trkpt lat="43.39193" lon="16.89471">
        <ele>49.089</ele>
        <time>2018-10-05T16:02:52Z</time>
      </trkpt>
      <trkpt lat="43.39202" lon="16.89458">
        <ele>50.089</ele>
        <time>2018-10-05T16:03:12Z</time>
      </trkpt>
      <trkpt lat="43.39217" lon="16.89435">
        <ele>51.088</ele>
        <time>2018-10-05T16:03:32Z</time>
      </trkpt>
      <trkpt lat="43.39228" lon="16.89419">
        <ele>52.087</ele>
        <time>2018-10-05T16:03:52Z</time>
      </trkpt>
      <trkpt lat="43.39244" lon="16.89395">
        <ele>53.042</ele>
        <time>2018-10-05T16:04:12Z</time>
      </trkpt>
      <trkpt lat="43.39254" lon="16.89386">
        <ele>54.026</ele>
        <time>2018-10-05T16:04:32Z</time>
      </trkpt>
      <trkpt lat="43.39264" lon="16.89366">
        <ele>54.008</ele>
        <time>2018-10-05T16:04:52Z</time>
      </trkpt>
      <trkpt lat="43.39276" lon="16.89347">
        <ele>52.08</ele>
        <time>2018-10-05T16:05:12Z</time>
      </trkpt>
      <trkpt lat="43.39286" lon="16.89337">
        <ele>51.067</ele>
        <time>2018-10-05T16:05:32Z</time>
      </trkpt>
      <trkpt lat="43.39299" lon="16.89328">
        <ele>50.04</ele>
        <time>2018-10-05T16:05:52Z</time>
      </trkpt>
      <trkpt lat="43.39316" lon="16.89315">
        <ele>50.062</ele>
        <time>2018-10-05T16:06:12Z</time>
      </trkpt>
      <trkpt lat="43.39331" lon="16.89298">
        <ele>49.08</ele>
        <time>2018-10-05T16:06:32Z</time>
      </trkpt>
      <trkpt lat="43.39343" lon="16.89272">
        <ele>49.091</ele>
        <time>2018-10-05T16:06:52Z</time>
      </trkpt>
      <trkpt lat="43.39348" lon="16.89262">
        <ele>49.071</ele>
        <time>2018-10-05T16:07:12Z</time>
      </trkpt>
      <trkpt lat="43.39349" lon="16.89261">
        <ele>49.09</ele>
        <time>2018-10-05T16:07:32Z</time>
      </trkpt>
      <trkpt lat="43.39361" lon="16.89243">
        <ele>49.025</ele>
        <time>2018-10-05T16:07:52Z</time>
      </trkpt>
      <trkpt lat="43.39374" lon="16.89223">
        <ele>49.026</ele>
        <time>2018-10-05T16:08:12Z</time>
      </trkpt>
      <trkpt lat="43.39381" lon="16.89215">
        <ele>49.008</ele>
        <time>2018-10-05T16:08:32Z</time>
      </trkpt>
      <trkpt lat="43.394" lon="16.89213">
        <ele>49.008</ele>
        <time>2018-10-05T16:08:52Z</time>
      </trkpt>
      <trkpt lat="43.39414" lon="16.89211">
        <ele>48.014</ele>
        <time>2018-10-05T16:09:12Z</time>
      </trkpt>
      <trkpt lat="43.39432" lon="16.89202">
        <ele>47.011</ele>
        <time>2018-10-05T16:09:32Z</time>
      </trkpt>
      <trkpt lat="43.39447" lon="16.89188">
        <ele>46.024</ele>
        <time>2018-10-05T16:09:52Z</time>
      </trkpt>
      <trkpt lat="43.39462" lon="16.89175">
        <ele>46.086</ele>
        <time>2018-10-05T16:10:12Z</time>
      </trkpt>
      <trkpt lat="43.39478" lon="16.89162">
        <ele>47.084</ele>
        <time>2018-10-05T16:10:32Z</time>
      </trkpt>
      <trkpt lat="43.39483" lon="16.89162">
        <ele>47.065</ele>
        <time>2018-10-05T16:10:52Z</time>
      </trkpt>
      <trkpt lat="43.39499" lon="16.89147">
        <ele>46.055</ele>
        <time>2018-10-05T16:11:12Z</time>
      </trkpt>
      <trkpt lat="43.3951" lon="16.89127">
        <ele>46.044</ele>
        <time>2018-10-05T16:11:32Z</time>
      </trkpt>
      <trkpt lat="43.39522" lon="16.89116">
        <ele>44.067</ele>
        <time>2018-10-05T16:11:52Z</time>
      </trkpt>
      <trkpt lat="43.39528" lon="16.89113">
        <ele>44.081</ele>
        <time>2018-10-05T16:12:12Z</time>
      </trkpt>
      <trkpt lat="43.39531" lon="16.89112">
        <ele>43.019</ele>
        <time>2018-10-05T16:12:32Z</time>
      </trkpt>
      <trkpt lat="43.39541" lon="16.89109">
        <ele>42.008</ele>
        <time>2018-10-05T16:12:52Z</time>
      </trkpt>
      <trkpt lat="43.39557" lon="16.89109">
        <ele>41.068</ele>
        <time>2018-10-05T16:13:12Z</time>
      </trkpt>
      <trkpt lat="43.39573" lon="16.89112">
        <ele>40.035</ele>
        <time>2018-10-05T16:13:32Z</time>
      </trkpt>
      <trkpt lat="43.39589" lon="16.89102">
        <ele>40.068</ele>
        <time>2018-10-05T16:13:52Z</time>
      </trkpt>
      <trkpt lat="43.39609" lon="16.89097">
        <ele>40.04</ele>
        <time>2018-10-05T16:14:12Z</time>
      </trkpt>
      <trkpt lat="43.39624" lon="16.89093">
        <ele>39.088</ele>
        <time>2018-10-05T16:14:32Z</time>
      </trkpt>
      <trkpt lat="43.39636" lon="16.89088">
        <ele>38.039</ele>
        <time>2018-10-05T16:14:52Z</time>
      </trkpt>
      <trkpt lat="43.39658" lon="16.89083">
        <ele>37.019</ele>
        <time>2018-10-05T16:15:12Z</time>
      </trkpt>
      <trkpt lat="43.39673" lon="16.89081">
        <ele>36.068</ele>
        <time>2018-10-05T16:15:32Z</time>
      </trkpt>
      <trkpt lat="43.39694" lon="16.89067">
        <ele>35.058</ele>
        <time>2018-10-05T16:15:52Z</time>
      </trkpt>
      <trkpt lat="43.39707" lon="16.89054">
        <ele>32.052</ele>
        <time>2018-10-05T16:16:12Z</time>
      </trkpt>
      <trkpt lat="43.39717" lon="16.8904">
        <ele>30.017</ele>
        <time>2018-10-05T16:16:32Z</time>
      </trkpt>
      <trkpt lat="43.39726" lon="16.89032">
        <ele>28.008</ele>
        <time>2018-10-05T16:16:52Z</time>
      </trkpt>
      <trkpt lat="43.39734" lon="16.89023">
        <ele>27.037</ele>
        <time>2018-10-05T16:17:12Z</time>
      </trkpt>
      <trkpt lat="43.39743" lon="16.89016">
        <ele>26.094</ele>
        <time>2018-10-05T16:17:32Z</time>
      </trkpt>
      <trkpt lat="43.39751" lon="16.89013">
        <ele>25.017</ele>
        <time>2018-10-05T16:17:52Z</time>
      </trkpt>
      <trkpt lat="43.39763" lon="16.89011">
        <ele>26.029</ele>
        <time>2018-10-05T16:18:12Z</time>
      </trkpt>
      <trkpt lat="43.39771" lon="16.89006">
        <ele>27.057</ele>
        <time>2018-10-05T16:18:32Z</time>
      </trkpt>
      <trkpt lat="43.39777" lon="16.89">
        <ele>28.048</ele>
        <time>2018-10-05T16:18:52Z</time>
      </trkpt>
      <trkpt lat="43.39792" lon="16.88993">
        <ele>30.038</ele>
        <time>2018-10-05T16:19:12Z</time>
      </trkpt>
      <trkpt lat="43.39801" lon="16.8899">
        <ele>31.017</ele>
        <time>2018-10-05T16:19:32Z</time>
      </trkpt>
      <trkpt lat="43.39808" lon="16.88988">
        <ele>32.061</ele>
        <time>2018-10-05T16:19:52Z</time>
      </trkpt>
      <trkpt lat="43.39814" lon="16.88984">
        <ele>33.021</ele>
        <time>2018-10-05T16:20:12Z</time>
      </trkpt>
      <trkpt lat="43.39825" lon="16.88977">
        <ele>36.013</ele>
        <time>2018-10-05T16:20:32Z</time>
      </trkpt>
      <trkpt lat="43.39831" lon="16.88974">
        <ele>37.008</ele>
        <time>2018-10-05T16:20:52Z</time>
      </trkpt>
      <trkpt lat="43.39835" lon="16.88971">
        <ele>39.088</ele>
        <time>2018-10-05T16:21:12Z</time>
      </trkpt>
      <trkpt lat="43.39837" lon="16.8897">
        <ele>39.025</ele>
        <time>2018-10-05T16:21:32Z</time>
      </trkpt>
      <trkpt lat="43.39841" lon="16.88966">
        <ele>40.028</ele>
        <time>2018-10-05T16:21:52Z</time>
      </trkpt>
      <trkpt lat="43.39846" lon="16.88963">
        <ele>41.09</ele>
        <time>2018-10-05T16:22:12Z</time>
      </trkpt>
      <trkpt lat="43.39854" lon="16.88965">
        <ele>43.088</ele>
        <time>2018-10-05T16:22:32Z</time>
      </trkpt>
      <trkpt lat="43.39856" lon="16.88965">
        <ele>43.099</ele>
        <time>2018-10-05T16:22:52Z</time>
      </trkpt>
      <trkpt lat="43.39865" lon="16.88967">
        <ele>44.029</ele>
        <time>2018-10-05T16:23:12Z</time>
      </trkpt>
      <trkpt lat="43.39865" lon="16.8897">
        <ele>45.028</ele>
        <time>2018-10-05T16:23:32Z</time>
      </trkpt>
      <trkpt lat="43.39878" lon="16.88973">
        <ele>46.019</ele>
        <time>2018-10-05T16:23:52Z</time>
      </trkpt>
      <trkpt lat="43.39891" lon="16.88972">
        <ele>48.009</ele>
        <time>2018-10-05T16:24:12Z</time>
      </trkpt>
      <trkpt lat="43.39895" lon="16.88971">
        <ele>49.019</ele>
        <time>2018-10-05T16:24:32Z</time>
      </trkpt>
      <trkpt lat="43.39897" lon="16.88969">
        <ele>50.008</ele>
        <time>2018-10-05T16:24:52Z</time>
      </trkpt>
      <trkpt lat="43.399" lon="16.88959">
        <ele>51.043</ele>
        <time>2018-10-05T16:25:12Z</time>
      </trkpt>
      <trkpt lat="43.39905" lon="16.88946">
        <ele>54.09</ele>
        <time>2018-10-05T16:25:32Z</time>
      </trkpt>
      <trkpt lat="43.39906" lon="16.88942">
        <ele>54.053</ele>
        <time>2018-10-05T16:25:52Z</time>
      </trkpt>
      <trkpt lat="43.3991" lon="16.88939">
        <ele>55.075</ele>
        <time>2018-10-05T16:26:12Z</time>
      </trkpt>
      <trkpt lat="43.3992" lon="16.88933">
        <ele>54.073</ele>
        <time>2018-10-05T16:26:32Z</time>
      </trkpt>
      <trkpt lat="43.39921" lon="16.88932">
        <ele>54.064</ele>
        <time>2018-10-05T16:26:52Z</time>
      </trkpt>
      <trkpt lat="43.39924" lon="16.88934">
        <ele>53.014</ele>
        <time>2018-10-05T16:27:12Z</time>
      </trkpt>
      <trkpt lat="43.39934" lon="16.88938">
        <ele>52.033</ele>
        <time>2018-10-05T16:27:32Z</time>
      </trkpt>
      <trkpt lat="43.39945" lon="16.88951">
        <ele>51.098</ele>
        <time>2018-10-05T16:27:52Z</time>
      </trkpt>
      <trkpt lat="43.39949" lon="16.8896">
        <ele>50.015</ele>
        <time>2018-10-05T16:28:12Z</time>
      </trkpt>
      <trkpt lat="43.39951" lon="16.88962">
        <ele>50.026</ele>
        <time>2018-10-05T16:28:32Z</time>
      </trkpt>
      <trkpt lat="43.39963" lon="16.88966">
        <ele>50.008</ele>
        <time>2018-10-05T16:28:52Z</time>
      </trkpt>
      <trkpt lat="43.3997" lon="16.88963">
        <ele>51.061</ele>
        <time>2018-10-05T16:29:12Z</time>
      </trkpt>
      <trkpt lat="43.39975" lon="16.88961">
        <ele>51.048</ele>
        <time>2018-10-05T16:29:32Z</time>
      </trkpt>
      <trkpt lat="43.39983" lon="16.88951">
        <ele>52.011</ele>
        <time>2018-10-05T16:29:52Z</time>
      </trkpt>
      <trkpt lat="43.3999" lon="16.8894">
        <ele>53.073</ele>
        <time>2018-10-05T16:30:12Z</time>
      </trkpt>
      <trkpt lat="43.39991" lon="16.88935">
        <ele>53.081</ele>
        <time>2018-10-05T16:30:32Z</time>
      </trkpt>
      <trkpt lat="43.40005" lon="16.88917">
        <ele>53.072</ele>
        <time>2018-10-05T16:30:52Z</time>
      </trkpt>
      <trkpt lat="43.4002" lon="16.88908">
        <ele>55.072</ele>
        <time>2018-10-05T16:31:12Z</time>
      </trkpt>
      <trkpt lat="43.40023" lon="16.88906">
        <ele>55.061</ele>
        <time>2018-10-05T16:31:32Z</time>
      </trkpt>
      <trkpt lat="43.40029" lon="16.88894">
        <ele>55.035</ele>
        <time>2018-10-05T16:31:52Z</time>
      </trkpt>
      <trkpt lat="43.40037" lon="16.88876">
        <ele>58.086</ele>
        <time>2018-10-05T16:32:12Z</time>
      </trkpt>
      <trkpt lat="43.40044" lon="16.88861">
        <ele>60.014</ele>
        <time>2018-10-05T16:32:32Z</time>
      </trkpt>
      <trkpt lat="43.4005" lon="16.88851">
        <ele>62.008</ele>
        <time>2018-10-05T16:32:52Z</time>
      </trkpt>
      <trkpt lat="43.40055" lon="16.88843">
        <ele>64.075</ele>
        <time>2018-10-05T16:33:12Z</time>
      </trkpt>
      <trkpt lat="43.40059" lon="16.88836">
        <ele>66.052</ele>
        <time>2018-10-05T16:33:32Z</time>
      </trkpt>
      <trkpt lat="43.40062" lon="16.88831">
        <ele>66.085</ele>
        <time>2018-10-05T16:33:52Z</time>
      </trkpt>
      <trkpt lat="43.40066" lon="16.88824">
        <ele>68.087</ele>
        <time>2018-10-05T16:34:12Z</time>
      </trkpt>
      <trkpt lat="43.4007" lon="16.88816">
        <ele>69.035</ele>
        <time>2018-10-05T16:34:32Z</time>
      </trkpt>
      <trkpt lat="43.40075" lon="16.88806">
        <ele>71.056</ele>
        <time>2018-10-05T16:34:52Z</time>
      </trkpt>
      <trkpt lat="43.40078" lon="16.88797">
        <ele>73.086</ele>
        <time>2018-10-05T16:35:12Z</time>
      </trkpt>
      <trkpt lat="43.40081" lon="16.88794">
        <ele>74.015</ele>
        <time>2018-10-05T16:35:32Z</time>
      </trkpt>
      <trkpt lat="43.40082" lon="16.88788">
        <ele>75.033</ele>
        <time>2018-10-05T16:35:52Z</time>
      </trkpt>
      <trkpt lat="43.40085" lon="16.88782">
        <ele>76.023</ele>
        <time>2018-10-05T16:36:12Z</time>
      </trkpt>
      <trkpt lat="43.40086" lon="16.88781">
        <ele>76.015</ele>
        <time>2018-10-05T16:36:32Z</time>
      </trkpt>
      <trkpt lat="43.40093" lon="16.88776">
        <ele>78.008</ele>
        <time>2018-10-05T16:36:52Z</time>
      </trkpt>
      <trkpt lat="43.40112" lon="16.88769">
        <ele>77.045</ele>
        <time>2018-10-05T16:37:12Z</time>
      </trkpt>
      <trkpt lat="43.40124" lon="16.88765">
        <ele>76.082</ele>
        <time>2018-10-05T16:37:32Z</time>
      </trkpt>
      <trkpt lat="43.40139" lon="16.8875">
        <ele>75.085</ele>
        <time>2018-10-05T16:37:52Z</time>
      </trkpt>
      <trkpt lat="43.40153" lon="16.88733">
        <ele>74.077</ele>
        <time>2018-10-05T16:38:12Z</time>
      </trkpt>
      <trkpt lat="43.40155" lon="16.88731">
        <ele>74.035</ele>
        <time>2018-10-05T16:38:32Z</time>
      </trkpt>
      <trkpt lat="43.40162" lon="16.88722">
        <ele>73.086</ele>
        <time>2018-10-05T16:38:52Z</time>
      </trkpt>
      <trkpt lat="43.40172" lon="16.88707">
        <ele>72.096</ele>
        <time>2018-10-05T16:39:12Z</time>
      </trkpt>
      <trkpt lat="43.40183" lon="16.88686">
        <ele>71.035</ele>
        <time>2018-10-05T16:39:32Z</time>
      </trkpt>
      <trkpt lat="43.40194" lon="16.88666">
        <ele>71.014</ele>
        <time>2018-10-05T16:39:52Z</time>
      </trkpt>
      <trkpt lat="43.40203" lon="16.88643">
        <ele>71.054</ele>
        <time>2018-10-05T16:40:12Z</time>
      </trkpt>
      <trkpt lat="43.40207" lon="16.88619">
        <ele>72.009</ele>
        <time>2018-10-05T16:40:32Z</time>
      </trkpt>
      <trkpt lat="43.40208" lon="16.88592">
        <ele>72.008</ele>
        <time>2018-10-05T16:40:52Z</time>
      </trkpt>
      <trkpt lat="43.4021" lon="16.88566">
        <ele>73.023</ele>
        <time>2018-10-05T16:41:12Z</time>
      </trkpt>
      <trkpt lat="43.4021" lon="16.88545">
        <ele>73.07</ele>
        <time>2018-10-05T16:41:32Z</time>
      </trkpt>
      <trkpt lat="43.4021" lon="16.88542">
        <ele>73.073</ele>
        <time>2018-10-05T16:41:52Z</time>
      </trkpt>
      <trkpt lat="43.4021" lon="16.88531">
        <ele>75.095</ele>
        <time>2018-10-05T16:42:12Z</time>
      </trkpt>
      <trkpt lat="43.40211" lon="16.88513">
        <ele>75.093</ele>
        <time>2018-10-05T16:42:32Z</time>
      </trkpt>
      <trkpt lat="43.40211" lon="16.88487">
        <ele>77.074</ele>
        <time>2018-10-05T16:42:52Z</time>
      </trkpt>
      <trkpt lat="43.40211" lon="16.88471">
        <ele>77.094</ele>
        <time>2018-10-05T16:43:12Z</time>
      </trkpt>
      <trkpt lat="43.40215" lon="16.88447">
        <ele>78.093</ele>
        <time>2018-10-05T16:43:32Z</time>
      </trkpt>
      <trkpt lat="43.40219" lon="16.88437">
        <ele>79.094</ele>
        <time>2018-10-05T16:43:52Z</time>
      </trkpt>
      <trkpt lat="43.4022" lon="16.88436">
        <ele>79.057</ele>
        <time>2018-10-05T16:44:12Z</time>
      </trkpt>
      <trkpt lat="43.40221" lon="16.8843">
        <ele>80.022</ele>
        <time>2018-10-05T16:44:32Z</time>
      </trkpt>
      <trkpt lat="43.40221" lon="16.88418">
        <ele>81.008</ele>
        <time>2018-10-05T16:44:52Z</time>
      </trkpt>
      <trkpt lat="43.4022" lon="16.88413">
        <ele>81.071</ele>
        <time>2018-10-05T16:45:12Z</time>
      </trkpt>
      <trkpt lat="43.40218" lon="16.88401">
        <ele>83.028</ele>
        <time>2018-10-05T16:45:32Z</time>
      </trkpt>
      <trkpt lat="43.40216" lon="16.88393">
        <ele>84.011</ele>
        <time>2018-10-05T16:45:52Z</time>
      </trkpt>
      <trkpt lat="43.40216" lon="16.88386">
        <ele>85.023</ele>
        <time>2018-10-05T16:46:12Z</time>
      </trkpt>
      <trkpt lat="43.40216" lon="16.88383">
        <ele>85.061</ele>
        <time>2018-10-05T16:46:32Z</time>
      </trkpt>
      <trkpt lat="43.40216" lon="16.88372">
        <ele>86.042</ele>
        <time>2018-10-05T16:46:52Z</time>
      </trkpt>
      <trkpt lat="43.40214" lon="16.88361">
        <ele>87.092</ele>
        <time>2018-10-05T16:47:12Z</time>
      </trkpt>
      <trkpt lat="43.40213" lon="16.88345">
        <ele>88.061</ele>
        <time>2018-10-05T16:47:32Z</time>
      </trkpt>
      <trkpt lat="43.40211" lon="16.88332">
        <ele>89.059</ele>
        <time>2018-10-05T16:47:52Z</time>
      </trkpt>
      <trkpt lat="43.40213" lon="16.88323">
        <ele>90.003</ele>
        <time>2018-10-05T16:48:12Z</time>
      </trkpt>
      <trkpt lat="43.40213" lon="16.88308">
        <ele>92.023</ele>
        <time>2018-10-05T16:48:32Z</time>
      </trkpt>
      <trkpt lat="43.40212" lon="16.88301">
        <ele>93.008</ele>
        <time>2018-10-05T16:48:52Z</time>
      </trkpt>
      <trkpt lat="43.40212" lon="16.88293">
        <ele>95.087</ele>
        <time>2018-10-05T16:49:12Z</time>
      </trkpt>
      <trkpt lat="43.40209" lon="16.88285">
        <ele>95.034</ele>
        <time>2018-10-05T16:49:32Z</time>
      </trkpt>
      <trkpt lat="43.40208" lon="16.8828">
        <ele>96.017</ele>
        <time>2018-10-05T16:49:52Z</time>
      </trkpt>
      <trkpt lat="43.40209" lon="16.88276">
        <ele>96.049</ele>
        <time>2018-10-05T16:50:12Z</time>
      </trkpt>
      <trkpt lat="43.4021" lon="16.88271">
        <ele>97.017</ele>
        <time>2018-10-05T16:50:32Z</time>
      </trkpt>
      <trkpt lat="43.40209" lon="16.88263">
        <ele>98.078</ele>
        <time>2018-10-05T16:50:52Z</time>
      </trkpt>
      <trkpt lat="43.40208" lon="16.88255">
        <ele>99.088</ele>
        <time>2018-10-05T16:51:12Z</time>
      </trkpt>
      <trkpt lat="43.40208" lon="16.88249">
        <ele>100.017</ele>
        <time>2018-10-05T16:51:32Z</time>
      </trkpt>
      <trkpt lat="43.40206" lon="16.88245">
        <ele>100.059</ele>
        <time>2018-10-05T16:51:52Z</time>
      </trkpt>
      <trkpt lat="43.40205" lon="16.88236">
        <ele>101.003</ele>
        <time>2018-10-05T16:52:12Z</time>
      </trkpt>
      <trkpt lat="43.40203" lon="16.8823">
        <ele>101.023</ele>
        <time>2018-10-05T16:52:32Z</time>
      </trkpt>
      <trkpt lat="43.40202" lon="16.88226">
        <ele>101.008</ele>
        <time>2018-10-05T16:52:52Z</time>
      </trkpt>
      <trkpt lat="43.40199" lon="16.88217">
        <ele>100.057</ele>
        <time>2018-10-05T16:53:12Z</time>
      </trkpt>
      <trkpt lat="43.40202" lon="16.88207">
        <ele>102.054</ele>
        <time>2018-10-05T16:53:32Z</time>
      </trkpt>
      <trkpt lat="43.40205" lon="16.88198">
        <ele>104.077</ele>
        <time>2018-10-05T16:53:52Z</time>
      </trkpt>
      <trkpt lat="43.40205" lon="16.88182">
        <ele>105.069</ele>
        <time>2018-10-05T16:54:12Z</time>
      </trkpt>
      <trkpt lat="43.40209" lon="16.88179">
        <ele>105.077</ele>
        <time>2018-10-05T16:54:32Z</time>
      </trkpt>
      <trkpt lat="43.40218" lon="16.88157">
        <ele>107.058</ele>
        <time>2018-10-05T16:54:52Z</time>
      </trkpt>
      <trkpt lat="43.4022" lon="16.88151">
        <ele>108.018</ele>
        <time>2018-10-05T16:55:12Z</time>
      </trkpt>
      <trkpt lat="43.40221" lon="16.88145">
        <ele>109.057</ele>
        <time>2018-10-05T16:55:32Z</time>
      </trkpt>
      <trkpt lat="43.40225" lon="16.88136">
        <ele>110.026</ele>
        <time>2018-10-05T16:55:52Z</time>
      </trkpt>
      <trkpt lat="43.40226" lon="16.88129">
        <ele>111.047</ele>
        <time>2018-10-05T16:56:12Z</time>
      </trkpt>
      <trkpt lat="43.40222" lon="16.88116">
        <ele>112.011</ele>
        <time>2018-10-05T16:56:32Z</time>
      </trkpt>
      <trkpt lat="43.40222" lon="16.88115">
        <ele>112.008</ele>
        <time>2018-10-05T16:56:52Z</time>
      </trkpt>
      <trkpt lat="43.40221" lon="16.88105">
        <ele>113.094</ele>
        <time>2018-10-05T16:57:12Z</time>
      </trkpt>
      <trkpt lat="43.40219" lon="16.88099">
        <ele>114.031</ele>
        <time>2018-10-05T16:57:32Z</time>
      </trkpt>
      <trkpt lat="43.4021" lon="16.88101">
        <ele>114.024</ele>
        <time>2018-10-05T16:57:52Z</time>
      </trkpt>
      <trkpt lat="43.40204" lon="16.88104">
        <ele>114.056</ele>
        <time>2018-10-05T16:58:12Z</time>
      </trkpt>
      <trkpt lat="43.40202" lon="16.881">
        <ele>115.064</ele>
        <time>2018-10-05T16:58:32Z</time>
      </trkpt>
      <trkpt lat="43.402" lon="16.88094">
        <ele>115.015</ele>
        <time>2018-10-05T16:58:52Z</time>
      </trkpt>
      <trkpt lat="43.40198" lon="16.88091">
        <ele>115.045</ele>
        <time>2018-10-05T16:59:12Z</time>
      </trkpt>
      <trkpt lat="43.40192" lon="16.88073">
        <ele>117.054</ele>
        <time>2018-10-05T16:59:32Z</time>
      </trkpt>
      <trkpt lat="43.4019" lon="16.88065">
        <ele>117.042</ele>
        <time>2018-10-05T16:59:52Z</time>
      </trkpt>
      <trkpt lat="43.4019" lon="16.88063">
        <ele>117.022</ele>
        <time>2018-10-05T17:00:12Z</time>
      </trkpt>
      <trkpt lat="43.40185" lon="16.88058">
        <ele>119.014</ele>
        <time>2018-10-05T17:00:32Z</time>
      </trkpt>
      <trkpt lat="43.40183" lon="16.88053">
        <ele>120.008</ele>
        <time>2018-10-05T17:00:52Z</time>
      </trkpt>
      <trkpt lat="43.40182" lon="16.88047">
        <ele>120.076</ele>
        <time>2018-10-05T17:01:12Z</time>
      </trkpt>
      <trkpt lat="43.40178" lon="16.88043">
        <ele>121.043</ele>
        <time>2018-10-05T17:01:32Z</time>
      </trkpt>
      <trkpt lat="43.40178" lon="16.88041">
        <ele>121.076</ele>
        <time>2018-10-05T17:01:52Z</time>
      </trkpt>
      <trkpt lat="43.40174" lon="16.88029">
        <ele>122.098</ele>
        <time>2018-10-05T17:02:12Z</time>
      </trkpt>
      <trkpt lat="43.40169" lon="16.88018">
        <ele>123.066</ele>
        <time>2018-10-05T17:02:32Z</time>
      </trkpt>
      <trkpt lat="43.4016" lon="16.88001">
        <ele>125.077</ele>
        <time>2018-10-05T17:02:52Z</time>
      </trkpt>
      <trkpt lat="43.40156" lon="16.87989">
        <ele>125.047</ele>
        <time>2018-10-05T17:03:12Z</time>
      </trkpt>
      <trkpt lat="43.40154" lon="16.87983">
        <ele>125.066</ele>
        <time>2018-10-05T17:03:32Z</time>
      </trkpt>
      <trkpt lat="43.40148" lon="16.87967">
        <ele>127.063</ele>
        <time>2018-10-05T17:03:52Z</time>
      </trkpt>
      <trkpt lat="43.4014" lon="16.87962">
        <ele>128.044</ele>
        <time>2018-10-05T17:04:12Z</time>
      </trkpt>
      <trkpt lat="43.40138" lon="16.8796">
        <ele>129.018</ele>
        <time>2018-10-05T17:04:32Z</time>
      </trkpt>
      <trkpt lat="43.40137" lon="16.87954">
        <ele>130.008</ele>
        <time>2018-10-05T17:04:52Z</time>
      </trkpt>
      <trkpt lat="43.40132" lon="16.87944">
        <ele>131.028</ele>
        <time>2018-10-05T17:05:12Z</time>
      </trkpt>
      <trkpt lat="43.4013" lon="16.8794">
        <ele>132.075</ele>
        <time>2018-10-05T17:05:32Z</time>
      </trkpt>
      <trkpt lat="43.40129" lon="16.87939">
        <ele>132.098</ele>
        <time>2018-10-05T17:05:52Z</time>
      </trkpt>
      <trkpt lat="43.40126" lon="16.87929">
        <ele>133.05</ele>
        <time>2018-10-05T17:06:12Z</time>
      </trkpt>
      <trkpt lat="43.40125" lon="16.87925">
        <ele>133.058</ele>
        <time>2018-10-05T17:06:32Z</time>
      </trkpt>
      <trkpt lat="43.40122" lon="16.87915">
        <ele>134.049</ele>
        <time>2018-10-05T17:06:52Z</time>
      </trkpt>
      <trkpt lat="43.40119" lon="16.87911">
        <ele>135.039</ele>
        <time>2018-10-05T17:07:12Z</time>
      </trkpt>
      <trkpt lat="43.40112" lon="16.8791">
        <ele>136.078</ele>
        <time>2018-10-05T17:07:32Z</time>
      </trkpt>
      <trkpt lat="43.40113" lon="16.87909">
        <ele>137.017</ele>
        <time>2018-10-05T17:07:52Z</time>
      </trkpt>
      <trkpt lat="43.40116" lon="16.87908">
        <ele>138.087</ele>
        <time>2018-10-05T17:08:12Z</time>
      </trkpt>
      <trkpt lat="43.40118" lon="16.87901">
        <ele>140.015</ele>
        <time>2018-10-05T17:08:32Z</time>
      </trkpt>
      <trkpt lat="43.40117" lon="16.879">
        <ele>140.008</ele>
        <time>2018-10-05T17:08:52Z</time>
      </trkpt>
      <trkpt lat="43.40117" lon="16.879">
        <ele>140.043</ele>
        <time>2018-10-05T17:09:12Z</time>
      </trkpt>
      <trkpt lat="43.40111" lon="16.87899">
        <ele>141.01</ele>
        <time>2018-10-05T17:09:32Z</time>
      </trkpt>
      <trkpt lat="43.40109" lon="16.879">
        <ele>141.053</ele>
        <time>2018-10-05T17:09:52Z</time>
      </trkpt>
      <trkpt lat="43.40106" lon="16.87901">
        <ele>142.025</ele>
        <time>2018-10-05T17:10:12Z</time>
      </trkpt>
      <trkpt lat="43.40103" lon="16.87902">
        <ele>142.023</ele>
        <time>2018-10-05T17:10:32Z</time>
      </trkpt>
      <trkpt lat="43.40102" lon="16.87899">
        <ele>142.074</ele>
        <time>2018-10-05T17:10:52Z</time>
      </trkpt>
      <trkpt lat="43.40098" lon="16.879">
        <ele>143.084</ele>
        <time>2018-10-05T17:11:12Z</time>
      </trkpt>
      <trkpt lat="43.40091" lon="16.879">
        <ele>144.083</ele>
        <time>2018-10-05T17:11:32Z</time>
      </trkpt>
      <trkpt lat="43.40083" lon="16.879">
        <ele>145.018</ele>
        <time>2018-10-05T17:11:52Z</time>
      </trkpt>
      <trkpt lat="43.4008" lon="16.87901">
        <ele>145.098</ele>
        <time>2018-10-05T17:12:12Z</time>
      </trkpt>
      <trkpt lat="43.40076" lon="16.87902">
        <ele>146.017</ele>
        <time>2018-10-05T17:12:32Z</time>
      </trkpt>
      <trkpt lat="43.40075" lon="16.87902">
        <ele>147.008</ele>
        <time>2018-10-05T17:12:52Z</time>
      </trkpt>
      <trkpt lat="43.40072" lon="16.87904">
        <ele>147.033</ele>
        <time>2018-10-05T17:13:12Z</time>
      </trkpt>
      <trkpt lat="43.40068" lon="16.87906">
        <ele>147.01</ele>
        <time>2018-10-05T17:13:32Z</time>
      </trkpt>
      <trkpt lat="43.40066" lon="16.87907">
        <ele>148.013</ele>
        <time>2018-10-05T17:13:52Z</time>
      </trkpt>
      <trkpt lat="43.4006" lon="16.87898">
        <ele>146.035</ele>
        <time>2018-10-05T17:14:12Z</time>
      </trkpt>
      <trkpt lat="43.40059" lon="16.87896">
        <ele>146.043</ele>
        <time>2018-10-05T17:14:32Z</time>
      </trkpt>
      <trkpt lat="43.40058" lon="16.87889">
        <ele>145.014</ele>
        <time>2018-10-05T17:14:52Z</time>
      </trkpt>
      <trkpt lat="43.40057" lon="16.87889">
        <ele>145.034</ele>
        <time>2018-10-05T17:15:12Z</time>
      </trkpt>
      <trkpt lat="43.40054" lon="16.87892">
        <ele>144.073</ele>
        <time>2018-10-05T17:15:32Z</time>
      </trkpt>
      <trkpt lat="43.40052" lon="16.87896">
        <ele>143.045</ele>
        <time>2018-10-05T17:15:52Z</time>
      </trkpt>
      <trkpt lat="43.40053" lon="16.87898">
        <ele>143.047</ele>
        <time>2018-10-05T17:16:12Z</time>
      </trkpt>
      <trkpt lat="43.40053" lon="16.879">
        <ele>143.011</ele>
        <time>2018-10-05T17:16:32Z</time>
      </trkpt>
      <trkpt lat="43.40051" lon="16.87904">
        <ele>142.008</ele>
        <time>2018-10-05T17:16:52Z</time>
      </trkpt>
      <trkpt lat="43.40051" lon="16.87897">
        <ele>141.066</ele>
        <time>2018-10-05T17:17:12Z</time>
      </trkpt>
      <trkpt lat="43.4005" lon="16.87893">
        <ele>140.013</ele>
        <time>2018-10-05T17:17:32Z</time>
      </trkpt>
      <trkpt lat="43.40045" lon="16.87883">
        <ele>139.076</ele>
        <time>2018-10-05T17:17:52Z</time>
      </trkpt>
      <trkpt lat="43.40043" lon="16.87872">
        <ele>138.098</ele>
        <time>2018-10-05T17:18:12Z</time>
      </trkpt>
      <trkpt lat="43.40042" lon="16.8787">
        <ele>138.026</ele>
        <time>2018-10-05T17:18:32Z</time>
      </trkpt>
      <trkpt lat="43.40037" lon="16.87862">
        <ele>138.077</ele>
        <time>2018-10-05T17:18:52Z</time>
      </trkpt>
      <trkpt lat="43.40032" lon="16.87851">
        <ele>137.057</ele>
        <time>2018-10-05T17:19:12Z</time>
      </trkpt>
      <trkpt lat="43.40032" lon="16.87847">
        <ele>137.036</ele>
        <time>2018-10-05T17:19:32Z</time>
      </trkpt>
      <trkpt lat="43.40023" lon="16.87826">
        <ele>137.098</ele>
        <time>2018-10-05T17:19:52Z</time>
      </trkpt>
      <trkpt lat="43.40021" lon="16.87816">
        <ele>137.015</ele>
        <time>2018-10-05T17:20:12Z</time>
      </trkpt>
      <trkpt lat="43.40019" lon="16.87811">
        <ele>137.026</ele>
        <time>2018-10-05T17:20:32Z</time>
      </trkpt>
      <trkpt lat="43.40015" lon="16.87807">
        <ele>136.008</ele>
        <time>2018-10-05T17:20:52Z</time>
      </trkpt>
      <trkpt lat="43.40013" lon="16.87806">
        <ele>136.011</ele>
        <time>2018-10-05T17:21:12Z</time>
      </trkpt>
      <trkpt lat="43.4001" lon="16.87797">
        <ele>136.078</ele>
        <time>2018-10-05T17:21:32Z</time>
      </trkpt>
      <trkpt lat="43.40011" lon="16.87794">
        <ele>136.021</ele>
        <time>2018-10-05T17:21:52Z</time>
      </trkpt>
      <trkpt lat="43.4001" lon="16.87789">
        <ele>137.013</ele>
        <time>2018-10-05T17:22:12Z</time>
      </trkpt>
      <trkpt lat="43.40007" lon="16.8778">
        <ele>138.081</ele>
        <time>2018-10-05T17:22:32Z</time>
      </trkpt>
      <trkpt lat="43.40005" lon="16.87762">
        <ele>138.062</ele>
        <time>2018-10-05T17:22:52Z</time>
      </trkpt>
      <trkpt lat="43.40001" lon="16.87757">
        <ele>137.012</ele>
        <time>2018-10-05T17:23:12Z</time>
      </trkpt>
      <trkpt lat="43.39996" lon="16.87754">
        <ele>136.061</ele>
        <time>2018-10-05T17:23:32Z</time>
      </trkpt>
      <trkpt lat="43.39993" lon="16.87746">
        <ele>135.022</ele>
        <time>2018-10-05T17:23:52Z</time>
      </trkpt>
      <trkpt lat="43.39992" lon="16.87735">
        <ele>134.062</ele>
        <time>2018-10-05T17:24:12Z</time>
      </trkpt>
      <trkpt lat="43.39994" lon="16.87724">
        <ele>133.008</ele>
        <time>2018-10-05T17:24:32Z</time>
      </trkpt>
      <trkpt lat="43.39991" lon="16.87714">
        <ele>132.008</ele>
        <time>2018-10-05T17:24:52Z</time>
      </trkpt>
      <trkpt lat="43.39987" lon="16.87706">
        <ele>131.034</ele>
        <time>2018-10-05T17:25:12Z</time>
      </trkpt>
      <trkpt lat="43.39981" lon="16.87695">
        <ele>129.011</ele>
        <time>2018-10-05T17:25:32Z</time>
      </trkpt>
      <trkpt lat="43.39974" lon="16.87679">
        <ele>128.014</ele>
        <time>2018-10-05T17:25:52Z</time>
      </trkpt>
      <trkpt lat="43.39972" lon="16.87655">
        <ele>127.016</ele>
        <time>2018-10-05T17:26:12Z</time>
      </trkpt>
      <trkpt lat="43.39971" lon="16.87652">
        <ele>126.054</ele>
        <time>2018-10-05T17:26:32Z</time>
      </trkpt>
      <trkpt lat="43.39972" lon="16.87649">
        <ele>126.065</ele>
        <time>2018-10-05T17:26:52Z</time>
      </trkpt>
      <trkpt lat="43.39971" lon="16.87647">
        <ele>125.055</ele>
        <time>2018-10-05T17:27:12Z</time>
      </trkpt>
      <trkpt lat="43.39971" lon="16.87645">
        <ele>124.034</ele>
        <time>2018-10-05T17:27:32Z</time>
      </trkpt>
      <trkpt lat="43.39971" lon="16.87645">
        <ele>123.056</ele>
        <time>2018-10-05T17:27:52Z</time>
      </trkpt>
      <trkpt lat="43.39971" lon="16.87645">
        <ele>123.059</ele>
        <time>2018-10-05T17:28:12Z</time>
      </trkpt>
      <trkpt lat="43.39968" lon="16.87651">
        <ele>122.014</ele>
        <time>2018-10-05T17:28:32Z</time>
      </trkpt>
      <trkpt lat="43.39965" lon="16.87654">
        <ele>120.008</ele>
        <time>2018-10-05T17:28:52Z</time>
      </trkpt>
      <trkpt lat="43.39965" lon="16.8765">
        <ele>120.087</ele>
        <time>2018-10-05T17:29:12Z</time>
      </trkpt>
      <trkpt lat="43.39965" lon="16.87646">
        <ele>119.094</ele>
        <time>2018-10-05T17:29:32Z</time>
      </trkpt>
      <trkpt lat="43.39965" lon="16.87636">
        <ele>118.077</ele>
        <time>2018-10-05T17:29:52Z</time>
      </trkpt>
      <trkpt lat="43.39963" lon="16.87631">
        <ele>117.019</ele>
        <time>2018-10-05T17:30:12Z</time>
      </trkpt>
      <trkpt lat="43.39964" lon="16.87622">
        <ele>116.057</ele>
        <time>2018-10-05T17:30:32Z</time>
      </trkpt>
      <trkpt lat="43.39963" lon="16.87612">
        <ele>115.048</ele>
        <time>2018-10-05T17:30:52Z</time>
      </trkpt>
      <trkpt lat="43.39962" lon="16.87609">
        <ele>114.018</ele>
        <time>2018-10-05T17:31:12Z</time>
      </trkpt>
      <trkpt lat="43.39963" lon="16.87594">
        <ele>114.067</ele>
        <time>2018-10-05T17:31:32Z</time>
      </trkpt>
      <trkpt lat="43.39961" lon="16.87589">
        <ele>116.075</ele>
        <time>2018-10-05T17:31:52Z</time>
      </trkpt>
      <trkpt lat="43.39959" lon="16.87588">
        <ele>116.028</ele>
        <time>2018-10-05T17:32:12Z</time>
      </trkpt>
      <trkpt lat="43.39954" lon="16.87587">
        <ele>118.02</ele>
        <time>2018-10-05T17:32:32Z</time>
      </trkpt>
      <trkpt lat="43.39953" lon="16.87587">
        <ele>118.008</ele>
        <time>2018-10-05T17:32:52Z</time>
      </trkpt>
      <trkpt lat="43.39951" lon="16.87586">
        <ele>118.099</ele>
        <time>2018-10-05T17:33:12Z</time>
      </trkpt>
      <trkpt lat="43.39948" lon="16.87582">
        <ele>119.026</ele>
        <time>2018-10-05T17:33:32Z</time>
      </trkpt>
      <trkpt lat="43.39951" lon="16.87556">
        <ele>115.099</ele>
        <time>2018-10-05T17:33:52Z</time>
      </trkpt>
      <trkpt lat="43.39949" lon="16.87548">
        <ele>113.011</ele>
        <time>2018-10-05T17:34:12Z</time>
      </trkpt>
      <trkpt lat="43.39947" lon="16.87539">
        <ele>110.069</ele>
        <time>2018-10-05T17:34:32Z</time>
      </trkpt>
      <trkpt lat="43.39944" lon="16.8753">
        <ele>108.07</ele>
        <time>2018-10-05T17:34:52Z</time>
      </trkpt>
      <trkpt lat="43.39943" lon="16.87527">
        <ele>107.09</ele>
        <time>2018-10-05T17:35:12Z</time>
      </trkpt>
      <trkpt lat="43.3994" lon="16.87523">
        <ele>105.099</ele>
        <time>2018-10-05T17:35:32Z</time>
      </trkpt>
      <trkpt lat="43.3994" lon="16.87521">
        <ele>105.049</ele>
        <time>2018-10-05T17:35:52Z</time>
      </trkpt>
      <trkpt lat="43.39939" lon="16.8752">
        <ele>104.002</ele>
        <time>2018-10-05T17:36:12Z</time>
      </trkpt>
      <trkpt lat="43.39938" lon="16.8752">
        <ele>103.022</ele>
        <time>2018-10-05T17:36:32Z</time>
      </trkpt>
      <trkpt lat="43.39937" lon="16.87518">
        <ele>102.008</ele>
        <time>2018-10-05T17:36:52Z</time>
      </trkpt>
      <trkpt lat="43.39937" lon="16.87517">
        <ele>101.036</ele>
        <time>2018-10-05T17:37:12Z</time>
      </trkpt>
      <trkpt lat="43.39934" lon="16.87513">
        <ele>99.043</ele>
        <time>2018-10-05T17:37:32Z</time>
      </trkpt>
      <trkpt lat="43.39932" lon="16.87504">
        <ele>98.096</ele>
        <time>2018-10-05T17:37:52Z</time>
      </trkpt>
      <trkpt lat="43.39923" lon="16.87481">
        <ele>97.028</ele>
        <time>2018-10-05T17:38:12Z</time>
      </trkpt>
      <trkpt lat="43.39914" lon="16.87468">
        <ele>98.056</ele>
        <time>2018-10-05T17:38:32Z</time>
      </trkpt>
      <trkpt lat="43.3991" lon="16.87462">
        <ele>98.027</ele>
        <time>2018-10-05T17:38:52Z</time>
      </trkpt>
      <trkpt lat="43.39905" lon="16.87457">
        <ele>96.067</ele>
        <time>2018-10-05T17:39:12Z</time>
      </trkpt>
      <trkpt lat="43.399" lon="16.87442">
        <ele>97.036</ele>
        <time>2018-10-05T17:39:32Z</time>
      </trkpt>
      <trkpt lat="43.39898" lon="16.87437">
        <ele>97.019</ele>
        <time>2018-10-05T17:39:52Z</time>
      </trkpt>
      <trkpt lat="43.39896" lon="16.87433">
        <ele>98.009</ele>
        <time>2018-10-05T17:40:12Z</time>
      </trkpt>
      <trkpt lat="43.39896" lon="16.8743">
        <ele>98.019</ele>
        <time>2018-10-05T17:40:32Z</time>
      </trkpt>
      <trkpt lat="43.39893" lon="16.87422">
        <ele>99.008</ele>
        <time>2018-10-05T17:40:52Z</time>
      </trkpt>
      <trkpt lat="43.39896" lon="16.87414">
        <ele>100.033</ele>
        <time>2018-10-05T17:41:12Z</time>
      </trkpt>
      <trkpt lat="43.39898" lon="16.87404">
        <ele>99.01</ele>
        <time>2018-10-05T17:41:32Z</time>
      </trkpt>
      <trkpt lat="43.39894" lon="16.87389">
        <ele>98.043</ele>
        <time>2018-10-05T17:41:52Z</time>
      </trkpt>
      <trkpt lat="43.39895" lon="16.8736">
        <ele>96.075</ele>
        <time>2018-10-05T17:42:12Z</time>
      </trkpt>
      <trkpt lat="43.39895" lon="16.87344">
        <ele>94.023</ele>
        <time>2018-10-05T17:42:32Z</time>
      </trkpt>
      <trkpt lat="43.39894" lon="16.87334">
        <ele>93.084</ele>
        <time>2018-10-05T17:42:52Z</time>
      </trkpt>
      <trkpt lat="43.39893" lon="16.87323">
        <ele>92.024</ele>
        <time>2018-10-05T17:43:12Z</time>
      </trkpt>
      <trkpt lat="43.39896" lon="16.873">
        <ele>91.013</ele>
        <time>2018-10-05T17:43:32Z</time>
      </trkpt>
      <trkpt lat="43.39899" lon="16.87274">
        <ele>89.098</ele>
        <time>2018-10-05T17:43:52Z</time>
      </trkpt>
      <trkpt lat="43.39897" lon="16.87261">
        <ele>88.015</ele>
        <time>2018-10-05T17:44:12Z</time>
      </trkpt>
      <trkpt lat="43.39892" lon="16.87252">
        <ele>87.026</ele>
        <time>2018-10-05T17:44:32Z</time>
      </trkpt>
      <trkpt lat="43.39886" lon="16.87245">
        <ele>85.008</ele>
        <time>2018-10-05T17:44:52Z</time>
      </trkpt>
      <trkpt lat="43.39884" lon="16.87237">
        <ele>84.071</ele>
        <time>2018-10-05T17:45:12Z</time>
      </trkpt>
      <trkpt lat="43.39884" lon="16.87221">
        <ele>82.068</ele>
        <time>2018-10-05T17:45:32Z</time>
      </trkpt>
      <trkpt lat="43.39884" lon="16.87207">
        <ele>81.091</ele>
        <time>2018-10-05T17:45:52Z</time>
      </trkpt>
      <trkpt lat="43.39884" lon="16.87204">
        <ele>81.043</ele>
        <time>2018-10-05T17:46:12Z</time>
      </trkpt>
      <trkpt lat="43.39878" lon="16.87195">
        <ele>80.051</ele>
        <time>2018-10-05T17:46:32Z</time>
      </trkpt>
      <trkpt lat="43.39877" lon="16.8719">
        <ele>80.092</ele>
        <time>2018-10-05T17:46:52Z</time>
      </trkpt>
      <trkpt lat="43.39876" lon="16.87181">
        <ele>80.022</ele>
        <time>2018-10-05T17:47:12Z</time>
      </trkpt>
      <trkpt lat="43.39878" lon="16.87176">
        <ele>80.011</ele>
        <time>2018-10-05T17:47:32Z</time>
      </trkpt>
      <trkpt lat="43.39882" lon="16.87148">
        <ele>80.078</ele>
        <time>2018-10-05T17:47:52Z</time>
      </trkpt>
      <trkpt lat="43.39879" lon="16.87123">
        <ele>80.033</ele>
        <time>2018-10-05T17:48:12Z</time>
      </trkpt>
      <trkpt lat="43.39877" lon="16.87097">
        <ele>79.026</ele>
        <time>2018-10-05T17:48:32Z</time>
      </trkpt>
      <trkpt lat="43.39881" lon="16.87073">
        <ele>81.008</ele>
        <time>2018-10-05T17:48:52Z</time>
      </trkpt>
      <trkpt lat="43.39885" lon="16.8706">
        <ele>81.089</ele>
        <time>2018-10-05T17:49:12Z</time>
      </trkpt>
      <trkpt lat="43.3989" lon="16.87035">
        <ele>81.016</ele>
        <time>2018-10-05T17:49:32Z</time>
      </trkpt>
      <trkpt lat="43.39899" lon="16.87011">
        <ele>81.019</ele>
        <time>2018-10-05T17:49:52Z</time>
      </trkpt>
      <trkpt lat="43.39907" lon="16.86983">
        <ele>83.061</ele>
        <time>2018-10-05T17:50:12Z</time>
      </trkpt>
      <trkpt lat="43.3991" lon="16.86972">
        <ele>84.079</ele>
        <time>2018-10-05T17:50:32Z</time>
      </trkpt>
      <trkpt lat="43.39917" lon="16.86949">
        <ele>84.03</ele>
        <time>2018-10-05T17:50:52Z</time>
      </trkpt>
      <trkpt lat="43.39921" lon="16.86927">
        <ele>86.06</ele>
        <time>2018-10-05T17:51:12Z</time>
      </trkpt>
      <trkpt lat="43.39921" lon="16.86915">
        <ele>87.039</ele>
        <time>2018-10-05T17:51:32Z</time>
      </trkpt>
      <trkpt lat="43.39921" lon="16.86899">
        <ele>88.032</ele>
        <time>2018-10-05T17:51:52Z</time>
      </trkpt>
      <trkpt lat="43.39923" lon="16.86892">
        <ele>89.092</ele>
        <time>2018-10-05T17:52:12Z</time>
      </trkpt>
      <trkpt lat="43.3992" lon="16.86885">
        <ele>90.011</ele>
        <time>2018-10-05T17:52:32Z</time>
      </trkpt>
      <trkpt lat="43.39922" lon="16.86871">
        <ele>91.008</ele>
        <time>2018-10-05T17:52:52Z</time>
      </trkpt>
      <trkpt lat="43.39934" lon="16.86862">
        <ele>90.055</ele>
        <time>2018-10-05T17:53:12Z</time>
      </trkpt>
      <trkpt lat="43.39944" lon="16.86852">
        <ele>89.082</ele>
        <time>2018-10-05T17:53:32Z</time>
      </trkpt>
      <trkpt lat="43.39952" lon="16.86844">
        <ele>88.025</ele>
        <time>2018-10-05T17:53:52Z</time>
      </trkpt>
      <trkpt lat="43.39956" lon="16.86826">
        <ele>88.027</ele>
        <time>2018-10-05T17:54:12Z</time>
      </trkpt>
      <trkpt lat="43.39958" lon="16.86806">
        <ele>89.025</ele>
        <time>2018-10-05T17:54:32Z</time>
      </trkpt>
      <trkpt lat="43.39957" lon="16.86798">
        <ele>90.036</ele>
        <time>2018-10-05T17:54:52Z</time>
      </trkpt>
      <trkpt lat="43.3995" lon="16.86784">
        <ele>92.096</ele>
        <time>2018-10-05T17:55:12Z</time>
      </trkpt>
      <trkpt lat="43.3995" lon="16.86771">
        <ele>95.025</ele>
        <time>2018-10-05T17:55:32Z</time>
      </trkpt>
      <trkpt lat="43.39952" lon="16.86766">
        <ele>96.042</ele>
        <time>2018-10-05T17:55:52Z</time>
      </trkpt>
      <trkpt lat="43.39956" lon="16.86758">
        <ele>97.022</ele>
        <time>2018-10-05T17:56:12Z</time>
      </trkpt>
      <trkpt lat="43.39964" lon="16.86734">
        <ele>97.014</ele>
        <time>2018-10-05T17:56:32Z</time>
      </trkpt>
      <trkpt lat="43.3997" lon="16.8671">
        <ele>97.008</ele>
        <time>2018-10-05T17:56:52Z</time>
      </trkpt>
      <trkpt lat="43.39975" lon="16.86683">
        <ele>97.066</ele>
        <time>2018-10-05T17:57:12Z</time>
      </trkpt>
      <trkpt lat="43.3998" lon="16.86665">
        <ele>96.073</ele>
        <time>2018-10-05T17:57:32Z</time>
      </trkpt>
      <trkpt lat="43.39974" lon="16.86669">
        <ele>95.086</ele>
        <time>2018-10-05T17:57:52Z</time>
      </trkpt>
      <trkpt lat="43.39967" lon="16.86669">
        <ele>93.028</ele>
        <time>2018-10-05T17:58:12Z</time>
      </trkpt>
      <trkpt lat="43.3996" lon="16.86667">
        <ele>91.036</ele>
        <time>2018-10-05T17:58:32Z</time>
      </trkpt>
      <trkpt lat="43.39953" lon="16.86667">
        <ele>89.087</ele>
        <time>2018-10-05T17:58:52Z</time>
      </trkpt>
      <trkpt lat="43.3995" lon="16.8667">
        <ele>87.067</ele>
        <time>2018-10-05T17:59:12Z</time>
      </trkpt>
      <trkpt lat="43.39949" lon="16.86672">
        <ele>87.076</ele>
        <time>2018-10-05T17:59:32Z</time>
      </trkpt>
      <trkpt lat="43.39946" lon="16.86674">
        <ele>85.067</ele>
        <time>2018-10-05T17:59:52Z</time>
      </trkpt>
      <trkpt lat="43.39945" lon="16.86672">
        <ele>85.081</ele>
        <time>2018-10-05T18:00:12Z</time>
      </trkpt>
      <trkpt lat="43.39948" lon="16.86667">
        <ele>84.019</ele>
        <time>2018-10-05T18:00:32Z</time>
      </trkpt>
      <trkpt lat="43.39948" lon="16.86666">
        <ele>84.008</ele>
        <time>2018-10-05T18:00:52Z</time>
      </trkpt>
      <trkpt lat="43.39953" lon="16.86647">
        <ele>82.038</ele>
        <time>2018-10-05T18:01:12Z</time>
      </trkpt>
      <trkpt lat="43.39954" lon="16.86639">
        <ele>81.055</ele>
        <time>2018-10-05T18:01:32Z</time>
      </trkpt>
      <trkpt lat="43.39951" lon="16.8663">
        <ele>78.018</ele>
        <time>2018-10-05T18:01:52Z</time>
      </trkpt>
      <trkpt lat="43.39948" lon="16.86618">
        <ele>76.08</ele>
        <time>2018-10-05T18:02:12Z</time>
      </trkpt>
      <trkpt lat="43.39948" lon="16.86612">
        <ele>74.068</ele>
        <time>2018-10-05T18:02:32Z</time>
      </trkpt>
      <trkpt lat="43.39949" lon="16.86608">
        <ele>73.089</ele>
        <time>2018-10-05T18:02:52Z</time>
      </trkpt>
      <trkpt lat="43.39946" lon="16.86602">
        <ele>71.059</ele>
        <time>2018-10-05T18:03:12Z</time>
      </trkpt>
      <trkpt lat="43.39945" lon="16.86591">
        <ele>69.058</ele>
        <time>2018-10-05T18:03:32Z</time>
      </trkpt>
      <trkpt lat="43.39945" lon="16.86579">
        <ele>67.056</ele>
        <time>2018-10-05T18:03:52Z</time>
      </trkpt>
      <trkpt lat="43.39946" lon="16.86572">
        <ele>66.059</ele>
        <time>2018-10-05T18:04:12Z</time>
      </trkpt>
      <trkpt lat="43.39948" lon="16.86562">
        <ele>65.014</ele>
        <time>2018-10-05T18:04:32Z</time>
      </trkpt>
      <trkpt lat="43.39947" lon="16.86555">
        <ele>63.008</ele>
        <time>2018-10-05T18:04:52Z</time>
      </trkpt>
      <trkpt lat="43.39945" lon="16.86549">
        <ele>62.047</ele>
        <time>2018-10-05T18:05:12Z</time>
      </trkpt>
      <trkpt lat="43.39947" lon="16.86539">
        <ele>61.054</ele>
        <time>2018-10-05T18:05:32Z</time>
      </trkpt>
      <trkpt lat="43.39949" lon="16.86531">
        <ele>60.057</ele>
        <time>2018-10-05T18:05:52Z</time>
      </trkpt>
      <trkpt lat="43.39949" lon="16.8652">
        <ele>59.029</ele>
        <time>2018-10-05T18:06:12Z</time>
      </trkpt>
      <trkpt lat="43.39945" lon="16.86509">
        <ele>57.047</ele>
        <time>2018-10-05T18:06:32Z</time>
      </trkpt>
      <trkpt lat="43.39938" lon="16.86496">
        <ele>54.078</ele>
        <time>2018-10-05T18:06:52Z</time>
      </trkpt>
      <trkpt lat="43.39936" lon="16.86494">
        <ele>54.018</ele>
        <time>2018-10-05T18:07:12Z</time>
      </trkpt>
      <trkpt lat="43.39931" lon="16.86491">
        <ele>53.057</ele>
        <time>2018-10-05T18:07:32Z</time>
      </trkpt>
      <trkpt lat="43.39924" lon="16.86475">
        <ele>51.055</ele>
        <time>2018-10-05T18:07:52Z</time>
      </trkpt>
      <trkpt lat="43.39918" lon="16.86465">
        <ele>48.007</ele>
        <time>2018-10-05T18:08:12Z</time>
      </trkpt>
      <trkpt lat="43.39914" lon="16.86451">
        <ele>45.017</ele>
        <time>2018-10-05T18:08:32Z</time>
      </trkpt>
      <trkpt lat="43.39914" lon="16.86444">
        <ele>44.008</ele>
        <time>2018-10-05T18:08:52Z</time>
      </trkpt>
      <trkpt lat="43.39911" lon="16.86439">
        <ele>43.047</ele>
        <time>2018-10-05T18:09:12Z</time>
      </trkpt>
      <trkpt lat="43.39907" lon="16.86436">
        <ele>41.084</ele>
        <time>2018-10-05T18:09:32Z</time>
      </trkpt>
      <trkpt lat="43.39903" lon="16.86434">
        <ele>38.097</ele>
        <time>2018-10-05T18:09:52Z</time>
      </trkpt>
      <trkpt lat="43.39895" lon="16.86431">
        <ele>35.039</ele>
        <time>2018-10-05T18:10:12Z</time>
      </trkpt>
      <trkpt lat="43.39892" lon="16.86431">
        <ele>34.077</ele>
        <time>2018-10-05T18:10:32Z</time>
      </trkpt>
      <trkpt lat="43.39889" lon="16.86429">
        <ele>33.048</ele>
        <time>2018-10-05T18:10:52Z</time>
      </trkpt>
      <trkpt lat="43.39885" lon="16.86414">
        <ele>30.028</ele>
        <time>2018-10-05T18:11:12Z</time>
      </trkpt>
      <trkpt lat="43.39885" lon="16.86408">
        <ele>29.067</ele>
        <time>2018-10-05T18:11:32Z</time>
      </trkpt>
      <trkpt lat="43.3989" lon="16.86384">
        <ele>28.024</ele>
        <time>2018-10-05T18:11:52Z</time>
      </trkpt>
      <trkpt lat="43.3989" lon="16.8637">
        <ele>28.004</ele>
        <time>2018-10-05T18:12:12Z</time>
      </trkpt>
      <trkpt lat="43.3989" lon="16.86356">
        <ele>27.014</ele>
        <time>2018-10-05T18:12:32Z</time>
      </trkpt>
      <trkpt lat="43.3989" lon="16.86344">
        <ele>25.008</ele>
        <time>2018-10-05T18:12:52Z</time>
      </trkpt>
      <trkpt lat="43.3989" lon="16.86333">
        <ele>24.054</ele>
        <time>2018-10-05T18:13:12Z</time>
      </trkpt>
      <trkpt lat="43.39893" lon="16.86316">
        <ele>22.071</ele>
        <time>2018-10-05T18:13:32Z</time>
      </trkpt>
      <trkpt lat="43.39898" lon="16.86302">
        <ele>19.054</ele>
        <time>2018-10-05T18:13:52Z</time>
      </trkpt>
      <trkpt lat="43.39903" lon="16.86294">
        <ele>17.046</ele>
        <time>2018-10-05T18:14:12Z</time>
      </trkpt>
      <trkpt lat="43.39912" lon="16.86285">
        <ele>14.074</ele>
        <time>2018-10-05T18:14:32Z</time>
      </trkpt>
      <trkpt lat="43.39917" lon="16.86276">
        <ele>11.075</ele>
        <time>2018-10-05T18:14:52Z</time>
      </trkpt>
      <trkpt lat="43.3992" lon="16.86256">
        <ele>12.015</ele>
        <time>2018-10-05T18:15:12Z</time>
      </trkpt>
      <trkpt lat="43.39921" lon="16.86244">
        <ele>13.074</ele>
        <time>2018-10-05T18:15:32Z</time>
      </trkpt>
      <trkpt lat="43.39921" lon="16.86231">
        <ele>15.043</ele>
        <time>2018-10-05T18:15:52Z</time>
      </trkpt>
      <trkpt lat="43.39923" lon="16.86222">
        <ele>16.064</ele>
        <time>2018-10-05T18:16:12Z</time>
      </trkpt>
      <trkpt lat="43.39923" lon="16.86218">
        <ele>17.01</ele>
        <time>2018-10-05T18:16:32Z</time>
      </trkpt>
      <trkpt lat="43.39926" lon="16.86208">
        <ele>19.008</ele>
        <time>2018-10-05T18:16:52Z</time>
      </trkpt>
      <trkpt lat="43.39926" lon="16.86206">
        <ele>19.066</ele>
        <time>2018-10-05T18:17:12Z</time>
      </trkpt>
      <trkpt lat="43.39927" lon="16.86199">
        <ele>20.053</ele>
        <time>2018-10-05T18:17:32Z</time>
      </trkpt>
      <trkpt lat="43.39925" lon="16.86192">
        <ele>21.076</ele>
        <time>2018-10-05T18:17:52Z</time>
      </trkpt>
      <trkpt lat="43.39925" lon="16.86163">
        <ele>21.038</ele>
        <time>2018-10-05T18:18:12Z</time>
      </trkpt>
      <trkpt lat="43.39924" lon="16.86155">
        <ele>21.096</ele>
        <time>2018-10-05T18:18:32Z</time>
      </trkpt>
      <trkpt lat="43.39922" lon="16.8615">
        <ele>22.027</ele>
        <time>2018-10-05T18:18:52Z</time>
      </trkpt>
      <trkpt lat="43.39923" lon="16.86134">
        <ele>23.037</ele>
        <time>2018-10-05T18:19:12Z</time>
      </trkpt>
      <trkpt lat="43.39937" lon="16.86114">
        <ele>23.016</ele>
        <time>2018-10-05T18:19:32Z</time>
      </trkpt>
      <trkpt lat="43.39945" lon="16.861">
        <ele>22.026</ele>
        <time>2018-10-05T18:19:52Z</time>
      </trkpt>
      <trkpt lat="43.39957" lon="16.86079">
        <ele>23.047</ele>
        <time>2018-10-05T18:20:12Z</time>
      </trkpt>
      <trkpt lat="43.39961" lon="16.86066">
        <ele>24.011</ele>
        <time>2018-10-05T18:20:32Z</time>
      </trkpt>
      <trkpt lat="43.3997" lon="16.86048">
        <ele>25.008</ele>
        <time>2018-10-05T18:20:52Z</time>
      </trkpt>
      <trkpt lat="43.39974" lon="16.86023">
        <ele>25.054</ele>
        <time>2018-10-05T18:21:12Z</time>
      </trkpt>
      <trkpt lat="43.39965" lon="16.85999">
        <ele>25.071</ele>
        <time>2018-10-05T18:21:32Z</time>
      </trkpt>
      <trkpt lat="43.39959" lon="16.85981">
        <ele>24.024</ele>
        <time>2018-10-05T18:21:52Z</time>
      </trkpt>
      <trkpt lat="43.39957" lon="16.85958">
        <ele>21.096</ele>
        <time>2018-10-05T18:22:12Z</time>
      </trkpt>
      <trkpt lat="43.39956" lon="16.85948">
        <ele>20.024</ele>
        <time>2018-10-05T18:22:32Z</time>
      </trkpt>
      <trkpt lat="43.39955" lon="16.85937">
        <ele>19.015</ele>
        <time>2018-10-05T18:22:52Z</time>
      </trkpt>
      <trkpt lat="43.39951" lon="16.85921">
        <ele>18.085</ele>
        <time>2018-10-05T18:23:12Z</time>
      </trkpt>
      <trkpt lat="43.39942" lon="16.85894">
        <ele>21.054</ele>
        <time>2018-10-05T18:23:32Z</time>
      </trkpt>
      <trkpt lat="43.3994" lon="16.85887">
        <ele>22.069</ele>
        <time>2018-10-05T18:23:52Z</time>
      </trkpt>
      <trkpt lat="43.39938" lon="16.85881">
        <ele>23.004</ele>
        <time>2018-10-05T18:24:12Z</time>
      </trkpt>
      <trkpt lat="43.39938" lon="16.85881">
        <ele>24.024</ele>
        <time>2018-10-05T18:24:32Z</time>
      </trkpt>
      <trkpt lat="43.39934" lon="16.85874">
        <ele>25.008</ele>
        <time>2018-10-05T18:24:52Z</time>
      </trkpt>
      <trkpt lat="43.39933" lon="16.8587">
        <ele>25.018</ele>
        <time>2018-10-05T18:25:12Z</time>
      </trkpt>
      <trkpt lat="43.39934" lon="16.85862">
        <ele>27.095</ele>
        <time>2018-10-05T18:25:32Z</time>
      </trkpt>
      <trkpt lat="43.39936" lon="16.85856">
        <ele>27.088</ele>
        <time>2018-10-05T18:25:52Z</time>
      </trkpt>
      <trkpt lat="43.39937" lon="16.85838">
        <ele>27.05</ele>
        <time>2018-10-05T18:26:12Z</time>
      </trkpt>
      <trkpt lat="43.3994" lon="16.85826">
        <ele>26.098</ele>
        <time>2018-10-05T18:26:32Z</time>
      </trkpt>
      <trkpt lat="43.39946" lon="16.85808">
        <ele>24.079</ele>
        <time>2018-10-05T18:26:52Z</time>
      </trkpt>
      <trkpt lat="43.39958" lon="16.85788">
        <ele>24.029</ele>
        <time>2018-10-05T18:27:12Z</time>
      </trkpt>
      <trkpt lat="43.3997" lon="16.85763">
        <ele>25.068</ele>
        <time>2018-10-05T18:27:32Z</time>
      </trkpt>
      <trkpt lat="43.39976" lon="16.85743">
        <ele>26.032</ele>
        <time>2018-10-05T18:27:52Z</time>
      </trkpt>
      <trkpt lat="43.39988" lon="16.85717">
        <ele>27.092</ele>
        <time>2018-10-05T18:28:12Z</time>
      </trkpt>
      <trkpt lat="43.39999" lon="16.85694">
        <ele>29.011</ele>
        <time>2018-10-05T18:28:32Z</time>
      </trkpt>
      <trkpt lat="43.40002" lon="16.85684">
        <ele>29.008</ele>
        <time>2018-10-05T18:28:52Z</time>
      </trkpt>
      <trkpt lat="43.40002" lon="16.85656">
        <ele>29.055</ele>
        <time>2018-10-05T18:29:12Z</time>
      </trkpt>
      <trkpt lat="43.40006" lon="16.85638">
        <ele>30.032</ele>
        <time>2018-10-05T18:29:32Z</time>
      </trkpt>
      <trkpt lat="43.4001" lon="16.85618">
        <ele>31.085</ele>
        <time>2018-10-05T18:29:52Z</time>
      </trkpt>
      <trkpt lat="43.40015" lon="16.85594">
        <ele>31.067</ele>
        <time>2018-10-05T18:30:12Z</time>
      </trkpt>
      <trkpt lat="43.40022" lon="16.85569">
        <ele>30.045</ele>
        <time>2018-10-05T18:30:32Z</time>
      </trkpt>
      <trkpt lat="43.40029" lon="16.85537">
        <ele>30.056</ele>
        <time>2018-10-05T18:30:52Z</time>
      </trkpt>
      <trkpt lat="43.4003" lon="16.85507">
        <ele>31.046</ele>
        <time>2018-10-05T18:31:12Z</time>
      </trkpt>
      <trkpt lat="43.40031" lon="16.85495">
        <ele>32.065</ele>
        <time>2018-10-05T18:31:32Z</time>
      </trkpt>
      <trkpt lat="43.40031" lon="16.85484">
        <ele>33.073</ele>
        <time>2018-10-05T18:31:52Z</time>
      </trkpt>
      <trkpt lat="43.40032" lon="16.85472">
        <ele>33.085</ele>
        <time>2018-10-05T18:32:12Z</time>
      </trkpt>
      <trkpt lat="43.40034" lon="16.85441">
        <ele>32.013</ele>
        <time>2018-10-05T18:32:32Z</time>
      </trkpt>
      <trkpt lat="43.40035" lon="16.85427">
        <ele>31.008</ele>
        <time>2018-10-05T18:32:52Z</time>
      </trkpt>
      <trkpt lat="43.40043" lon="16.85401">
        <ele>30.019</ele>
        <time>2018-10-05T18:33:12Z</time>
      </trkpt>
      <trkpt lat="43.40039" lon="16.85374">
        <ele>32.096</ele>
        <time>2018-10-05T18:33:32Z</time>
      </trkpt>
      <trkpt lat="43.40039" lon="16.85353">
        <ele>33.069</ele>
        <time>2018-10-05T18:33:52Z</time>
      </trkpt>
      <trkpt lat="43.40037" lon="16.8534">
        <ele>34.081</ele>
        <time>2018-10-05T18:34:12Z</time>
      </trkpt>
      <trkpt lat="43.40037" lon="16.85326">
        <ele>36.069</ele>
        <time>2018-10-05T18:34:32Z</time>
      </trkpt>
      <trkpt lat="43.40041" lon="16.85314">
        <ele>39.01</ele>
        <time>2018-10-05T18:34:52Z</time>
      </trkpt>
      <trkpt lat="43.40041" lon="16.85313">
        <ele>39.05</ele>
        <time>2018-10-05T18:35:12Z</time>
      </trkpt>
      <trkpt lat="43.40043" lon="16.85308">
        <ele>40.079</ele>
        <time>2018-10-05T18:35:32Z</time>
      </trkpt>
      <trkpt lat="43.40047" lon="16.85305">
        <ele>41.075</ele>
        <time>2018-10-05T18:35:52Z</time>
      </trkpt>
      <trkpt lat="43.40049" lon="16.85302">
        <ele>42.028</ele>
        <time>2018-10-05T18:36:12Z</time>
      </trkpt>
      <trkpt lat="43.40049" lon="16.85293">
        <ele>43.02</ele>
        <time>2018-10-05T18:36:32Z</time>
      </trkpt>
      <trkpt lat="43.40047" lon="16.85287">
        <ele>44.008</ele>
        <time>2018-10-05T18:36:52Z</time>
      </trkpt>
      <trkpt lat="43.40047" lon="16.8527">
        <ele>45.029</ele>
        <time>2018-10-05T18:37:12Z</time>
      </trkpt>
      <trkpt lat="43.40056" lon="16.85248">
        <ele>46.066</ele>
        <time>2018-10-05T18:37:32Z</time>
      </trkpt>
      <trkpt lat="43.40064" lon="16.85226">
        <ele>47.079</ele>
        <time>2018-10-05T18:37:52Z</time>
      </trkpt>
      <trkpt lat="43.40075" lon="16.85198">
        <ele>47.061</ele>
        <time>2018-10-05T18:38:12Z</time>
      </trkpt>
      <trkpt lat="43.40086" lon="16.85175">
        <ele>48.029</ele>
        <time>2018-10-05T18:38:32Z</time>
      </trkpt>
      <trkpt lat="43.40098" lon="16.85153">
        <ele>48.08</ele>
        <time>2018-10-05T18:38:52Z</time>
      </trkpt>
      <trkpt lat="43.40113" lon="16.85129">
        <ele>46.01</ele>
        <time>2018-10-05T18:39:12Z</time>
      </trkpt>
      <trkpt lat="43.4012" lon="16.85114">
        <ele>45.029</ele>
        <time>2018-10-05T18:39:32Z</time>
      </trkpt>
      <trkpt lat="43.40129" lon="16.851">
        <ele>44.074</ele>
        <time>2018-10-05T18:39:52Z</time>
      </trkpt>
      <trkpt lat="43.40136" lon="16.85086">
        <ele>43.056</ele>
        <time>2018-10-05T18:40:12Z</time>
      </trkpt>
      <trkpt lat="43.40144" lon="16.85073">
        <ele>42.021</ele>
        <time>2018-10-05T18:40:32Z</time>
      </trkpt>
      <trkpt lat="43.40151" lon="16.85058">
        <ele>40.008</ele>
        <time>2018-10-05T18:40:52Z</time>
      </trkpt>
      <trkpt lat="43.40158" lon="16.85045">
        <ele>39.099</ele>
        <time>2018-10-05T18:41:12Z</time>
      </trkpt>
      <trkpt lat="43.40165" lon="16.85019">
        <ele>39.086</ele>
        <time>2018-10-05T18:41:32Z</time>
      </trkpt>
      <trkpt lat="43.40167" lon="16.85002">
        <ele>39.089</ele>
        <time>2018-10-05T18:41:52Z</time>
      </trkpt>
      <trkpt lat="43.40171" lon="16.8497">
        <ele>40.061</ele>
        <time>2018-10-05T18:42:12Z</time>
      </trkpt>
      <trkpt lat="43.40173" lon="16.84955">
        <ele>41.029</ele>
        <time>2018-10-05T18:42:32Z</time>
      </trkpt>
      <trkpt lat="43.40177" lon="16.84933">
        <ele>42.03</ele>
        <time>2018-10-05T18:42:52Z</time>
      </trkpt>
      <trkpt lat="43.40178" lon="16.84908">
        <ele>42.03</ele>
        <time>2018-10-05T18:43:12Z</time>
      </trkpt>
      <trkpt lat="43.40174" lon="16.84876">
        <ele>41.059</ele>
        <time>2018-10-05T18:43:32Z</time>
      </trkpt>
      <trkpt lat="43.40169" lon="16.84844">
        <ele>40.099</ele>
        <time>2018-10-05T18:43:52Z</time>
      </trkpt>
      <trkpt lat="43.40168" lon="16.84812">
        <ele>39.007</ele>
        <time>2018-10-05T18:44:12Z</time>
      </trkpt>
      <trkpt lat="43.40165" lon="16.84787">
        <ele>39.027</ele>
        <time>2018-10-05T18:44:32Z</time>
      </trkpt>
      <trkpt lat="43.40159" lon="16.84759">
        <ele>38.008</ele>
        <time>2018-10-05T18:44:52Z</time>
      </trkpt>
      <trkpt lat="43.40156" lon="16.84734">
        <ele>37.021</ele>
        <time>2018-10-05T18:45:12Z</time>
      </trkpt>
      <trkpt lat="43.40155" lon="16.84706">
        <ele>37.078</ele>
        <time>2018-10-05T18:45:32Z</time>
      </trkpt>
      <trkpt lat="43.40157" lon="16.84679">
        <ele>37.051</ele>
        <time>2018-10-05T18:45:52Z</time>
      </trkpt>
      <trkpt lat="43.40158" lon="16.84654">
        <ele>38.023</ele>
        <time>2018-10-05T18:46:12Z</time>
      </trkpt>
      <trkpt lat="43.40159" lon="16.84629">
        <ele>37.011</ele>
        <time>2018-10-05T18:46:32Z</time>
      </trkpt>
      <trkpt lat="43.40156" lon="16.84602">
        <ele>37.082</ele>
        <time>2018-10-05T18:46:52Z</time>
      </trkpt>
      <trkpt lat="43.40156" lon="16.84576">
        <ele>36.092</ele>
        <time>2018-10-05T18:47:12Z</time>
      </trkpt>
      <trkpt lat="43.40157" lon="16.84549">
        <ele>36.081</ele>
        <time>2018-10-05T18:47:32Z</time>
      </trkpt>
      <trkpt lat="43.40157" lon="16.84523">
        <ele>36.036</ele>
        <time>2018-10-05T18:47:52Z</time>
      </trkpt>
      <trkpt lat="43.40157" lon="16.84497">
        <ele>37.017</ele>
        <time>2018-10-05T18:48:12Z</time>
      </trkpt>
      <trkpt lat="43.40158" lon="16.84471">
        <ele>36.018</ele>
        <time>2018-10-05T18:48:32Z</time>
      </trkpt>
      <trkpt lat="43.40155" lon="16.84444">
        <ele>36.008</ele>
        <time>2018-10-05T18:48:52Z</time>
      </trkpt>
      <trkpt lat="43.40147" lon="16.84411">
        <ele>36.055</ele>
        <time>2018-10-05T18:49:12Z</time>
      </trkpt>
      <trkpt lat="43.40146" lon="16.84375">
        <ele>35.052</ele>
        <time>2018-10-05T18:49:32Z</time>
      </trkpt>
      <trkpt lat="43.40147" lon="16.8435">
        <ele>34.045</ele>
        <time>2018-10-05T18:49:52Z</time>
      </trkpt>
      <trkpt lat="43.40151" lon="16.84323">
        <ele>36.027</ele>
        <time>2018-10-05T18:50:12Z</time>
      </trkpt>
      <trkpt lat="43.40157" lon="16.84298">
        <ele>36.015</ele>
        <time>2018-10-05T18:50:32Z</time>
      </trkpt>
      <trkpt lat="43.40162" lon="16.84264">
        <ele>38.016</ele>
        <time>2018-10-05T18:50:52Z</time>
      </trkpt>
      <trkpt lat="43.40163" lon="16.84249">
        <ele>39.026</ele>
        <time>2018-10-05T18:51:12Z</time>
      </trkpt>
      <trkpt lat="43.40162" lon="16.84222">
        <ele>40.025</ele>
        <time>2018-10-05T18:51:32Z</time>
      </trkpt>
      <trkpt lat="43.40166" lon="16.84198">
        <ele>39.069</ele>
        <time>2018-10-05T18:51:52Z</time>
      </trkpt>
      <trkpt lat="43.40172" lon="16.84173">
        <ele>39.004</ele>
        <time>2018-10-05T18:52:12Z</time>
      </trkpt>
      <trkpt lat="43.40174" lon="16.84148">
        <ele>38.024</ele>
        <time>2018-10-05T18:52:32Z</time>
      </trkpt>
      <trkpt lat="43.40179" lon="16.84117">
        <ele>40.008</ele>
        <time>2018-10-05T18:52:52Z</time>
      </trkpt>
      <trkpt lat="43.40186" lon="16.84105">
        <ele>43.088</ele>
        <time>2018-10-05T18:53:12Z</time>
      </trkpt>
      <trkpt lat="43.40187" lon="16.84098">
        <ele>44.085</ele>
        <time>2018-10-05T18:53:32Z</time>
      </trkpt>
      <trkpt lat="43.40189" lon="16.84092">
        <ele>45.018</ele>
        <time>2018-10-05T18:53:52Z</time>
      </trkpt>
      <trkpt lat="43.40191" lon="16.84088">
        <ele>46.01</ele>
        <time>2018-10-05T18:54:12Z</time>
      </trkpt>
      <trkpt lat="43.40194" lon="16.84078">
        <ele>48.038</ele>
        <time>2018-10-05T18:54:32Z</time>
      </trkpt>
      <trkpt lat="43.40195" lon="16.84073">
        <ele>49.059</ele>
        <time>2018-10-05T18:54:52Z</time>
      </trkpt>
      <trkpt lat="43.40199" lon="16.84066">
        <ele>51.079</ele>
        <time>2018-10-05T18:55:12Z</time>
      </trkpt>
      <trkpt lat="43.40202" lon="16.8406">
        <ele>52.038</ele>
        <time>2018-10-05T18:55:32Z</time>
      </trkpt>
      <trkpt lat="43.40206" lon="16.84047">
        <ele>55.096</ele>
        <time>2018-10-05T18:55:52Z</time>
      </trkpt>
      <trkpt lat="43.40209" lon="16.8403">
        <ele>57.031</ele>
        <time>2018-10-05T18:56:12Z</time>
      </trkpt>
      <trkpt lat="43.4021" lon="16.84023">
        <ele>58.024</ele>
        <time>2018-10-05T18:56:32Z</time>
      </trkpt>
      <trkpt lat="43.40211" lon="16.8402">
        <ele>58.008</ele>
        <time>2018-10-05T18:56:52Z</time>
      </trkpt>
      <trkpt lat="43.40214" lon="16.84013">
        <ele>60.091</ele>
        <time>2018-10-05T18:57:12Z</time>
      </trkpt>
      <trkpt lat="43.40214" lon="16.84001">
        <ele>61.028</ele>
        <time>2018-10-05T18:57:32Z</time>
      </trkpt>
      <trkpt lat="43.40213" lon="16.83983">
        <ele>64.011</ele>
        <time>2018-10-05T18:57:52Z</time>
      </trkpt>
      <trkpt lat="43.40214" lon="16.83977">
        <ele>65.043</ele>
        <time>2018-10-05T18:58:12Z</time>
      </trkpt>
      <trkpt lat="43.40214" lon="16.8397">
        <ele>66.061</ele>
        <time>2018-10-05T18:58:32Z</time>
      </trkpt>
      <trkpt lat="43.4022" lon="16.83951">
        <ele>68.012</ele>
        <time>2018-10-05T18:58:52Z</time>
      </trkpt>
      <trkpt lat="43.40222" lon="16.83943">
        <ele>69.052</ele>
        <time>2018-10-05T18:59:12Z</time>
      </trkpt>
      <trkpt lat="43.40223" lon="16.83928">
        <ele>71.051</ele>
        <time>2018-10-05T18:59:32Z</time>
      </trkpt>
      <trkpt lat="43.40225" lon="16.83913">
        <ele>74.045</ele>
        <time>2018-10-05T18:59:52Z</time>
      </trkpt>
      <trkpt lat="43.40227" lon="16.83904">
        <ele>75.047</ele>
        <time>2018-10-05T19:00:12Z</time>
      </trkpt>
      <trkpt lat="43.40227" lon="16.8389">
        <ele>76.011</ele>
        <time>2018-10-05T19:00:32Z</time>
      </trkpt>
      <trkpt lat="43.40222" lon="16.83871">
        <ele>77.008</ele>
        <time>2018-10-05T19:00:52Z</time>
      </trkpt>
      <trkpt lat="43.40215" lon="16.83844">
        <ele>78.096</ele>
        <time>2018-10-05T19:01:12Z</time>
      </trkpt>
      <trkpt lat="43.4021" lon="16.83828">
        <ele>79.033</ele>
        <time>2018-10-05T19:01:32Z</time>
      </trkpt>
      <trkpt lat="43.40208" lon="16.83819">
        <ele>80.066</ele>
        <time>2018-10-05T19:01:52Z</time>
      </trkpt>
      <trkpt lat="43.4021" lon="16.83794">
        <ele>81.058</ele>
        <time>2018-10-05T19:02:12Z</time>
      </trkpt>
      <trkpt lat="43.40211" lon="16.83784">
        <ele>82.046</ele>
        <time>2018-10-05T19:02:32Z</time>
      </trkpt>
      <trkpt lat="43.40217" lon="16.83761">
        <ele>84.037</ele>
        <time>2018-10-05T19:02:52Z</time>
      </trkpt>
      <trkpt lat="43.40221" lon="16.83727">
        <ele>85.037</ele>
        <time>2018-10-05T19:03:12Z</time>
      </trkpt>
      <trkpt lat="43.4022" lon="16.83705">
        <ele>86.036</ele>
        <time>2018-10-05T19:03:32Z</time>
      </trkpt>
      <trkpt lat="43.4022" lon="16.83685">
        <ele>87.019</ele>
        <time>2018-10-05T19:03:52Z</time>
      </trkpt>
      <trkpt lat="43.4022" lon="16.83668">
        <ele>88.009</ele>
        <time>2018-10-05T19:04:12Z</time>
      </trkpt>
      <trkpt lat="43.40221" lon="16.83655">
        <ele>89.019</ele>
        <time>2018-10-05T19:04:32Z</time>
      </trkpt>
      <trkpt lat="43.40222" lon="16.83633">
        <ele>90.008</ele>
        <time>2018-10-05T19:04:52Z</time>
      </trkpt>
      <trkpt lat="43.40227" lon="16.8361">
        <ele>91.073</ele>
        <time>2018-10-05T19:05:12Z</time>
      </trkpt>
      <trkpt lat="43.40237" lon="16.83586">
        <ele>91.04</ele>
        <time>2018-10-05T19:05:32Z</time>
      </trkpt>
      <trkpt lat="43.40242" lon="16.83576">
        <ele>91.053</ele>
        <time>2018-10-05T19:05:52Z</time>
      </trkpt>
      <trkpt lat="43.40247" lon="16.83563">
        <ele>92.015</ele>
        <time>2018-10-05T19:06:12Z</time>
      </trkpt>
      <trkpt lat="43.40249" lon="16.83538">
        <ele>93.093</ele>
        <time>2018-10-05T19:06:32Z</time>
      </trkpt>
      <trkpt lat="43.40247" lon="16.83504">
        <ele>94.034</ele>
        <time>2018-10-05T19:06:52Z</time>
      </trkpt>
      <trkpt lat="43.40248" lon="16.83497">
        <ele>95.074</ele>
        <time>2018-10-05T19:07:12Z</time>
      </trkpt>
      <trkpt lat="43.40248" lon="16.83481">
        <ele>97.023</ele>
        <time>2018-10-05T19:07:32Z</time>
      </trkpt>
      <trkpt lat="43.40246" lon="16.83471">
        <ele>98.047</ele>
        <time>2018-10-05T19:07:52Z</time>
      </trkpt>
      <trkpt lat="43.40245" lon="16.83457">
        <ele>99.029</ele>
        <time>2018-10-05T19:08:12Z</time>
      </trkpt>
      <trkpt lat="43.40251" lon="16.83434">
        <ele>100.021</ele>
        <time>2018-10-05T19:08:32Z</time>
      </trkpt>
      <trkpt lat="43.40256" lon="16.83424">
        <ele>100.008</ele>
        <time>2018-10-05T19:08:52Z</time>
      </trkpt>
      <trkpt lat="43.40266" lon="16.83402">
        <ele>101.046</ele>
        <time>2018-10-05T19:09:12Z</time>
      </trkpt>
      <trkpt lat="43.40267" lon="16.83391">
        <ele>101.053</ele>
        <time>2018-10-05T19:09:32Z</time>
      </trkpt>
      <trkpt lat="43.40273" lon="16.83382">
        <ele>101.086</ele>
        <time>2018-10-05T19:09:52Z</time>
      </trkpt>
      <trkpt lat="43.40271" lon="16.83357">
        <ele>100.018</ele>
        <time>2018-10-05T19:10:12Z</time>
      </trkpt>
      <trkpt lat="43.4027" lon="16.8333">
        <ele>100.036</ele>
        <time>2018-10-05T19:10:32Z</time>
      </trkpt>
      <trkpt lat="43.40275" lon="16.83298">
        <ele>101.027</ele>
        <time>2018-10-05T19:10:52Z</time>
      </trkpt>
      <trkpt lat="43.40274" lon="16.83293">
        <ele>102.027</ele>
        <time>2018-10-05T19:11:12Z</time>
      </trkpt>
      <trkpt lat="43.40273" lon="16.83284">
        <ele>102.016</ele>
        <time>2018-10-05T19:11:32Z</time>
      </trkpt>
      <trkpt lat="43.40273" lon="16.83274">
        <ele>103.019</ele>
        <time>2018-10-05T19:11:52Z</time>
      </trkpt>
      <trkpt lat="43.40274" lon="16.8326">
        <ele>104.009</ele>
        <time>2018-10-05T19:12:12Z</time>
      </trkpt>
      <trkpt lat="43.40276" lon="16.8325">
        <ele>105.019</ele>
        <time>2018-10-05T19:12:32Z</time>
      </trkpt>
      <trkpt lat="43.40279" lon="16.83239">
        <ele>107.008</ele>
        <time>2018-10-05T19:12:52Z</time>
      </trkpt>
      <trkpt lat="43.40282" lon="16.83227">
        <ele>108.033</ele>
        <time>2018-10-05T19:13:12Z</time>
      </trkpt>
      <trkpt lat="43.40283" lon="16.83212">
        <ele>109.05</ele>
        <time>2018-10-05T19:13:32Z</time>
      </trkpt>
      <trkpt lat="43.40281" lon="16.83196">
        <ele>110.013</ele>
        <time>2018-10-05T19:13:52Z</time>
      </trkpt>
      <trkpt lat="43.40283" lon="16.83174">
        <ele>112.045</ele>
        <time>2018-10-05T19:14:12Z</time>
      </trkpt>
      <trkpt lat="43.40283" lon="16.83163">
        <ele>113.083</ele>
        <time>2018-10-05T19:14:32Z</time>
      </trkpt>
      <trkpt lat="43.40282" lon="16.83148">
        <ele>114.094</ele>
        <time>2018-10-05T19:14:52Z</time>
      </trkpt>
      <trkpt lat="43.40281" lon="16.83135">
        <ele>115.044</ele>
        <time>2018-10-05T19:15:12Z</time>
      </trkpt>
      <trkpt lat="43.40283" lon="16.83129">
        <ele>116.063</ele>
        <time>2018-10-05T19:15:32Z</time>
      </trkpt>
      <trkpt lat="43.40286" lon="16.83129">
        <ele>117.021</ele>
        <time>2018-10-05T19:15:52Z</time>
      </trkpt>
      <trkpt lat="43.40292" lon="16.83127">
        <ele>118.041</ele>
        <time>2018-10-05T19:16:12Z</time>
      </trkpt>
      <trkpt lat="43.40302" lon="16.83125">
        <ele>119.005</ele>
        <time>2018-10-05T19:16:32Z</time>
      </trkpt>
      <trkpt lat="43.40312" lon="16.83129">
        <ele>121.008</ele>
        <time>2018-10-05T19:16:52Z</time>
      </trkpt>
      <trkpt lat="43.40317" lon="16.8313">
        <ele>122.034</ele>
        <time>2018-10-05T19:17:12Z</time>
      </trkpt>
      <trkpt lat="43.40321" lon="16.83131">
        <ele>123.011</ele>
        <time>2018-10-05T19:17:32Z</time>
      </trkpt>
      <trkpt lat="43.40331" lon="16.83129">
        <ele>125.094</ele>
        <time>2018-10-05T19:17:52Z</time>
      </trkpt>
      <trkpt lat="43.4034" lon="16.83125">
        <ele>126.026</ele>
        <time>2018-10-05T19:18:12Z</time>
      </trkpt>
      <trkpt lat="43.4035" lon="16.83113">
        <ele>126.094</ele>
        <time>2018-10-05T19:18:32Z</time>
      </trkpt>
      <trkpt lat="43.40353" lon="16.83105">
        <ele>127.035</ele>
        <time>2018-10-05T19:18:52Z</time>
      </trkpt>
      <trkpt lat="43.40357" lon="16.83095">
        <ele>126.015</ele>
        <time>2018-10-05T19:19:12Z</time>
      </trkpt>
      <trkpt lat="43.40361" lon="16.83084">
        <ele>128.034</ele>
        <time>2018-10-05T19:19:32Z</time>
      </trkpt>
      <trkpt lat="43.40362" lon="16.83075">
        <ele>129.089</ele>
        <time>2018-10-05T19:19:52Z</time>
      </trkpt>
      <trkpt lat="43.4036" lon="16.83065">
        <ele>130.006</ele>
        <time>2018-10-05T19:20:12Z</time>
      </trkpt>
      <trkpt lat="43.40354" lon="16.83049">
        <ele>131.026</ele>
        <time>2018-10-05T19:20:32Z</time>
      </trkpt>
      <trkpt lat="43.4035" lon="16.8304">
        <ele>131.008</ele>
        <time>2018-10-05T19:20:52Z</time>
      </trkpt>
      <trkpt lat="43.40348" lon="16.83033">
        <ele>130.02</ele>
        <time>2018-10-05T19:21:12Z</time>
      </trkpt>
      <trkpt lat="43.40345" lon="16.83028">
        <ele>129.047</ele>
        <time>2018-10-05T19:21:32Z</time>
      </trkpt>
      <trkpt lat="43.4034" lon="16.83015">
        <ele>129.04</ele>
        <time>2018-10-05T19:21:52Z</time>
      </trkpt>
      <trkpt lat="43.40333" lon="16.82997">
        <ele>130.012</ele>
        <time>2018-10-05T19:22:12Z</time>
      </trkpt>
      <trkpt lat="43.4033" lon="16.82986">
        <ele>131.05</ele>
        <time>2018-10-05T19:22:32Z</time>
      </trkpt>
      <trkpt lat="43.40328" lon="16.82981">
        <ele>132.011</ele>
        <time>2018-10-05T19:22:52Z</time>
      </trkpt>
      <trkpt lat="43.40328" lon="16.82976">
        <ele>132.081</ele>
        <time>2018-10-05T19:23:12Z</time>
      </trkpt>
      <trkpt lat="43.40331" lon="16.82964">
        <ele>134.05</ele>
        <time>2018-10-05T19:23:32Z</time>
      </trkpt>
      <trkpt lat="43.40333" lon="16.82959">
        <ele>134.066</ele>
        <time>2018-10-05T19:23:52Z</time>
      </trkpt>
      <trkpt lat="43.40345" lon="16.8293">
        <ele>135.029</ele>
        <time>2018-10-05T19:24:12Z</time>
      </trkpt>
      <trkpt lat="43.40347" lon="16.82919">
        <ele>135.021</ele>
        <time>2018-10-05T19:24:32Z</time>
      </trkpt>
      <trkpt lat="43.40352" lon="16.82894">
        <ele>135.008</ele>
        <time>2018-10-05T19:24:52Z</time>
      </trkpt>
      <trkpt lat="43.40351" lon="16.82868">
        <ele>135.038</ele>
        <time>2018-10-05T19:25:12Z</time>
      </trkpt>
      <trkpt lat="43.40355" lon="16.82847">
        <ele>137.085</ele>
        <time>2018-10-05T19:25:32Z</time>
      </trkpt>
      <trkpt lat="43.40358" lon="16.82839">
        <ele>138.068</ele>
        <time>2018-10-05T19:25:52Z</time>
      </trkpt>
      <trkpt lat="43.40359" lon="16.82839">
        <ele>138.07</ele>
        <time>2018-10-05T19:26:12Z</time>
      </trkpt>
      <trkpt lat="43.40362" lon="16.82835">
        <ele>140.058</ele>
        <time>2018-10-05T19:26:32Z</time>
      </trkpt>
      <trkpt lat="43.40365" lon="16.8283">
        <ele>141.049</ele>
        <time>2018-10-05T19:26:52Z</time>
      </trkpt>
      <trkpt lat="43.40369" lon="16.82817">
        <ele>142.079</ele>
        <time>2018-10-05T19:27:12Z</time>
      </trkpt>
      <trkpt lat="43.4037" lon="16.82813">
        <ele>143.068</ele>
        <time>2018-10-05T19:27:32Z</time>
      </trkpt>
      <trkpt lat="43.40372" lon="16.82807">
        <ele>144.088</ele>
        <time>2018-10-05T19:27:52Z</time>
      </trkpt>
      <trkpt lat="43.40377" lon="16.82795">
        <ele>146.024</ele>
        <time>2018-10-05T19:28:12Z</time>
      </trkpt>
      <trkpt lat="43.40377" lon="16.82793">
        <ele>146.026</ele>
        <time>2018-10-05T19:28:32Z</time>
      </trkpt>
      <trkpt lat="43.40378" lon="16.82779">
        <ele>148.008</ele>
        <time>2018-10-05T19:28:52Z</time>
      </trkpt>
      <trkpt lat="43.4038" lon="16.82765">
        <ele>149.05</ele>
        <time>2018-10-05T19:29:12Z</time>
      </trkpt>
      <trkpt lat="43.40385" lon="16.82754">
        <ele>150.017</ele>
        <time>2018-10-05T19:29:32Z</time>
      </trkpt>
      <trkpt lat="43.40389" lon="16.82746">
        <ele>151.03</ele>
        <time>2018-10-05T19:29:52Z</time>
      </trkpt>
      <trkpt lat="43.40393" lon="16.82734">
        <ele>151.092</ele>
        <time>2018-10-05T19:30:12Z</time>
      </trkpt>
      <trkpt lat="43.40404" lon="16.82714">
        <ele>151.08</ele>
        <time>2018-10-05T19:30:32Z</time>
      </trkpt>
      <trkpt lat="43.40407" lon="16.82707">
        <ele>153.011</ele>
        <time>2018-10-05T19:30:52Z</time>
      </trkpt>
      <trkpt lat="43.40409" lon="16.82697">
        <ele>153.051</ele>
        <time>2018-10-05T19:31:12Z</time>
      </trkpt>
      <trkpt lat="43.40411" lon="16.8269">
        <ele>154.02</ele>
        <time>2018-10-05T19:31:32Z</time>
      </trkpt>
      <trkpt lat="43.40413" lon="16.82686">
        <ele>155.082</ele>
        <time>2018-10-05T19:31:52Z</time>
      </trkpt>
      <trkpt lat="43.40418" lon="16.8268">
        <ele>156.043</ele>
        <time>2018-10-05T19:32:12Z</time>
      </trkpt>
      <trkpt lat="43.40429" lon="16.82668">
        <ele>157.017</ele>
        <time>2018-10-05T19:32:32Z</time>
      </trkpt>
      <trkpt lat="43.4043" lon="16.82666">
        <ele>157.008</ele>
        <time>2018-10-05T19:32:52Z</time>
      </trkpt>
      <trkpt lat="43.40433" lon="16.82663">
        <ele>158.01</ele>
        <time>2018-10-05T19:33:12Z</time>
      </trkpt>
      <trkpt lat="43.40437" lon="16.82656">
        <ele>159.067</ele>
        <time>2018-10-05T19:33:32Z</time>
      </trkpt>
      <trkpt lat="43.40443" lon="16.82646">
        <ele>160.09</ele>
        <time>2018-10-05T19:33:52Z</time>
      </trkpt>
      <trkpt lat="43.40445" lon="16.82643">
        <ele>161.082</ele>
        <time>2018-10-05T19:34:12Z</time>
      </trkpt>
      <trkpt lat="43.40448" lon="16.82637">
        <ele>162.06</ele>
        <time>2018-10-05T19:34:32Z</time>
      </trkpt>
      <trkpt lat="43.4045" lon="16.82631">
        <ele>163.061</ele>
        <time>2018-10-05T19:34:52Z</time>
      </trkpt>
      <trkpt lat="43.40451" lon="16.82624">
        <ele>165.051</ele>
        <time>2018-10-05T19:35:12Z</time>
      </trkpt>
      <trkpt lat="43.40452" lon="16.82617">
        <ele>166.09</ele>
        <time>2018-10-05T19:35:32Z</time>
      </trkpt>
      <trkpt lat="43.40452" lon="16.82611">
        <ele>166.069</ele>
        <time>2018-10-05T19:35:52Z</time>
      </trkpt>
      <trkpt lat="43.40454" lon="16.82606">
        <ele>167.004</ele>
        <time>2018-10-05T19:36:12Z</time>
      </trkpt>
      <trkpt lat="43.40455" lon="16.82603">
        <ele>167.024</ele>
        <time>2018-10-05T19:36:32Z</time>
      </trkpt>
      <trkpt lat="43.40467" lon="16.82584">
        <ele>168.008</ele>
        <time>2018-10-05T19:36:52Z</time>
      </trkpt>
      <trkpt lat="43.40469" lon="16.8258">
        <ele>169.028</ele>
        <time>2018-10-05T19:37:12Z</time>
      </trkpt>
      <trkpt lat="43.4047" lon="16.8258">
        <ele>169.095</ele>
        <time>2018-10-05T19:37:32Z</time>
      </trkpt>
      <trkpt lat="43.40475" lon="16.8257">
        <ele>170.048</ele>
        <time>2018-10-05T19:37:52Z</time>
      </trkpt>
      <trkpt lat="43.40483" lon="16.82566">
        <ele>172.05</ele>
        <time>2018-10-05T19:38:12Z</time>
      </trkpt>
      <trkpt lat="43.40485" lon="16.82565">
        <ele>173.048</ele>
        <time>2018-10-05T19:38:32Z</time>
      </trkpt>
      <trkpt lat="43.40486" lon="16.82566">
        <ele>174.039</ele>
        <time>2018-10-05T19:38:52Z</time>
      </trkpt>
      <trkpt lat="43.40491" lon="16.82563">
        <ele>176.039</ele>
        <time>2018-10-05T19:39:12Z</time>
      </trkpt>
      <trkpt lat="43.40492" lon="16.82559">
        <ele>177.048</ele>
        <time>2018-10-05T19:39:32Z</time>
      </trkpt>
      <trkpt lat="43.40491" lon="16.8255">
        <ele>178.089</ele>
        <time>2018-10-05T19:39:52Z</time>
      </trkpt>
      <trkpt lat="43.40485" lon="16.82537">
        <ele>178.006</ele>
        <time>2018-10-05T19:40:12Z</time>
      </trkpt>
      <trkpt lat="43.40473" lon="16.82513">
        <ele>177.026</ele>
        <time>2018-10-05T19:40:32Z</time>
      </trkpt>
      <trkpt lat="43.40465" lon="16.82485">
        <ele>176.008</ele>
        <time>2018-10-05T19:40:52Z</time>
      </trkpt>
      <trkpt lat="43.40465" lon="16.82464">
        <ele>175.07</ele>
        <time>2018-10-05T19:41:12Z</time>
      </trkpt>
      <trkpt lat="43.40468" lon="16.8244">
        <ele>175.087</ele>
        <time>2018-10-05T19:41:32Z</time>
      </trkpt>
      <trkpt lat="43.40478" lon="16.82411">
        <ele>176.05</ele>
        <time>2018-10-05T19:41:52Z</time>
      </trkpt>
      <trkpt lat="43.40479" lon="16.82407">
        <ele>176.022</ele>
        <time>2018-10-05T19:42:12Z</time>
      </trkpt>
      <trkpt lat="43.4048" lon="16.82385">
        <ele>176.04</ele>
        <time>2018-10-05T19:42:32Z</time>
      </trkpt>
      <trkpt lat="43.40481" lon="16.82376">
        <ele>176.031</ele>
        <time>2018-10-05T19:42:52Z</time>
      </trkpt>
      <trkpt lat="43.40486" lon="16.82354">
        <ele>175.051</ele>
        <time>2018-10-05T19:43:12Z</time>
      </trkpt>
      <trkpt lat="43.40487" lon="16.82343">
        <ele>175.03</ele>
        <time>2018-10-05T19:43:32Z</time>
      </trkpt>
      <trkpt lat="43.40488" lon="16.82335">
        <ele>175.071</ele>
        <time>2018-10-05T19:43:52Z</time>
      </trkpt>
      <trkpt lat="43.40488" lon="16.82313">
        <ele>174.041</ele>
        <time>2018-10-05T19:44:12Z</time>
      </trkpt>
      <trkpt lat="43.40491" lon="16.82303">
        <ele>173.015</ele>
        <time>2018-10-05T19:44:32Z</time>
      </trkpt>
      <trkpt lat="43.40504" lon="16.82284">
        <ele>173.008</ele>
        <time>2018-10-05T19:44:52Z</time>
      </trkpt>
      <trkpt lat="43.40507" lon="16.82279">
        <ele>172.049</ele>
        <time>2018-10-05T19:45:12Z</time>
      </trkpt>
      <trkpt lat="43.40511" lon="16.82244">
        <ele>171.016</ele>
        <time>2018-10-05T19:45:32Z</time>
      </trkpt>
      <trkpt lat="43.40514" lon="16.82217">
        <ele>171.079</ele>
        <time>2018-10-05T19:45:52Z</time>
      </trkpt>
      <trkpt lat="43.40518" lon="16.8219">
        <ele>170.081</ele>
        <time>2018-10-05T19:46:12Z</time>
      </trkpt>
      <trkpt lat="43.4052" lon="16.82176">
        <ele>169.089</ele>
        <time>2018-10-05T19:46:32Z</time>
      </trkpt>
      <trkpt lat="43.4052" lon="16.82161">
        <ele>168.08</ele>
        <time>2018-10-05T19:46:52Z</time>
      </trkpt>
      <trkpt lat="43.40517" lon="16.82134">
        <ele>167.01</ele>
        <time>2018-10-05T19:47:12Z</time>
      </trkpt>
      <trkpt lat="43.40509" lon="16.82111">
        <ele>168.069</ele>
        <time>2018-10-05T19:47:32Z</time>
      </trkpt>
      <trkpt lat="43.40508" lon="16.82085">
        <ele>168.053</ele>
        <time>2018-10-05T19:47:52Z</time>
      </trkpt>
      <trkpt lat="43.40514" lon="16.82059">
        <ele>168.004</ele>
        <time>2018-10-05T19:48:12Z</time>
      </trkpt>
      <trkpt lat="43.40522" lon="16.82034">
        <ele>168.014</ele>
        <time>2018-10-05T19:48:32Z</time>
      </trkpt>
      <trkpt lat="43.40534" lon="16.82004">
        <ele>169.008</ele>
        <time>2018-10-05T19:48:52Z</time>
      </trkpt>
      <trkpt lat="43.40544" lon="16.81979">
        <ele>170.047</ele>
        <time>2018-10-05T19:49:12Z</time>
      </trkpt>
      <trkpt lat="43.40548" lon="16.81966">
        <ele>171.094</ele>
        <time>2018-10-05T19:49:32Z</time>
      </trkpt>
      <trkpt lat="43.40554" lon="16.81939">
        <ele>172.027</ele>
        <time>2018-10-05T19:49:52Z</time>
      </trkpt>
      <trkpt lat="43.4056" lon="16.81913">
        <ele>171.039</ele>
        <time>2018-10-05T19:50:12Z</time>
      </trkpt>
      <trkpt lat="43.40566" lon="16.81886">
        <ele>171.027</ele>
        <time>2018-10-05T19:50:32Z</time>
      </trkpt>
      <trkpt lat="43.40568" lon="16.81865">
        <ele>170.068</ele>
        <time>2018-10-05T19:50:52Z</time>
      </trkpt>
      <trkpt lat="43.40572" lon="16.81847">
        <ele>169.068</ele>
        <time>2018-10-05T19:51:12Z</time>
      </trkpt>
      <trkpt lat="43.40573" lon="16.8182">
        <ele>168.017</ele>
        <time>2018-10-05T19:51:32Z</time>
      </trkpt>
      <trkpt lat="43.40572" lon="16.81795">
        <ele>168.072</ele>
        <time>2018-10-05T19:51:52Z</time>
      </trkpt>
      <trkpt lat="43.40573" lon="16.81777">
        <ele>168.013</ele>
        <time>2018-10-05T19:52:12Z</time>
      </trkpt>
      <trkpt lat="43.40575" lon="16.81751">
        <ele>168.014</ele>
        <time>2018-10-05T19:52:32Z</time>
      </trkpt>
      <trkpt lat="43.4058" lon="16.81735">
        <ele>167.008</ele>
        <time>2018-10-05T19:52:52Z</time>
      </trkpt>
      <trkpt lat="43.40585" lon="16.81719">
        <ele>166.039</ele>
        <time>2018-10-05T19:53:12Z</time>
      </trkpt>
      <trkpt lat="43.40591" lon="16.81695">
        <ele>165.096</ele>
        <time>2018-10-05T19:53:32Z</time>
      </trkpt>
      <trkpt lat="43.40595" lon="16.8167">
        <ele>164.069</ele>
        <time>2018-10-05T19:53:52Z</time>
      </trkpt>
      <trkpt lat="43.406" lon="16.81644">
        <ele>164.081</ele>
        <time>2018-10-05T19:54:12Z</time>
      </trkpt>
      <trkpt lat="43.40602" lon="16.81631">
        <ele>162.029</ele>
        <time>2018-10-05T19:54:32Z</time>
      </trkpt>
      <trkpt lat="43.40604" lon="16.81617">
        <ele>161.05</ele>
        <time>2018-10-05T19:54:52Z</time>
      </trkpt>
      <trkpt lat="43.40608" lon="16.81601">
        <ele>160.06</ele>
        <time>2018-10-05T19:55:12Z</time>
      </trkpt>
      <trkpt lat="43.40614" lon="16.81588">
        <ele>159.089</ele>
        <time>2018-10-05T19:55:32Z</time>
      </trkpt>
      <trkpt lat="43.40619" lon="16.81579">
        <ele>158.021</ele>
        <time>2018-10-05T19:55:52Z</time>
      </trkpt>
      <trkpt lat="43.40629" lon="16.81568">
        <ele>157.041</ele>
        <time>2018-10-05T19:56:12Z</time>
      </trkpt>
      <trkpt lat="43.40642" lon="16.81551">
        <ele>156.005</ele>
        <time>2018-10-05T19:56:32Z</time>
      </trkpt>
      <trkpt lat="43.4066" lon="16.81524">
        <ele>155.008</ele>
        <time>2018-10-05T19:56:52Z</time>
      </trkpt>
      <trkpt lat="43.40673" lon="16.81506">
        <ele>153.074</ele>
        <time>2018-10-05T19:57:12Z</time>
      </trkpt>
      <trkpt lat="43.40686" lon="16.81488">
        <ele>153.091</ele>
        <time>2018-10-05T19:57:32Z</time>
      </trkpt>
      <trkpt lat="43.40688" lon="16.81463">
        <ele>154.014</ele>
        <time>2018-10-05T19:57:52Z</time>
      </trkpt>
      <trkpt lat="43.40692" lon="16.81436">
        <ele>154.066</ele>
        <time>2018-10-05T19:58:12Z</time>
      </trkpt>
      <trkpt lat="43.40703" lon="16.81415">
        <ele>154.064</ele>
        <time>2018-10-05T19:58:32Z</time>
      </trkpt>
      <trkpt lat="43.40717" lon="16.81394">
        <ele>153.035</ele>
        <time>2018-10-05T19:58:52Z</time>
      </trkpt>
      <trkpt lat="43.40719" lon="16.81376">
        <ele>153.055</ele>
        <time>2018-10-05T19:59:12Z</time>
      </trkpt>
      <trkpt lat="43.40715" lon="16.81355">
        <ele>154.074</ele>
        <time>2018-10-05T19:59:32Z</time>
      </trkpt>
      <trkpt lat="43.40713" lon="16.8134">
        <ele>155.016</ele>
        <time>2018-10-05T19:59:52Z</time>
      </trkpt>
      <trkpt lat="43.4071" lon="16.81333">
        <ele>156.076</ele>
        <time>2018-10-05T20:00:12Z</time>
      </trkpt>
      <trkpt lat="43.40708" lon="16.81331">
        <ele>156.013</ele>
        <time>2018-10-05T20:00:32Z</time>
      </trkpt>
      <trkpt lat="43.407" lon="16.81311">
        <ele>156.008</ele>
        <time>2018-10-05T20:00:52Z</time>
      </trkpt>
      <trkpt lat="43.407" lon="16.813">
        <ele>155.043</ele>
        <time>2018-10-05T20:01:12Z</time>
      </trkpt>
      <trkpt lat="43.40702" lon="16.81281">
        <ele>154.01</ele>
        <time>2018-10-05T20:01:32Z</time>
      </trkpt>
      <trkpt lat="43.40706" lon="16.81269">
        <ele>153.023</ele>
        <time>2018-10-05T20:01:52Z</time>
      </trkpt>
      <trkpt lat="43.40709" lon="16.81255">
        <ele>153.015</ele>
        <time>2018-10-05T20:02:12Z</time>
      </trkpt>
      <trkpt lat="43.4071" lon="16.8125">
        <ele>153.043</ele>
        <time>2018-10-05T20:02:32Z</time>
      </trkpt>
      <trkpt lat="43.40718" lon="16.81226">
        <ele>153.074</ele>
        <time>2018-10-05T20:02:52Z</time>
      </trkpt>
      <trkpt lat="43.40726" lon="16.81193">
        <ele>152.094</ele>
        <time>2018-10-05T20:03:12Z</time>
      </trkpt>
      <trkpt lat="43.40728" lon="16.81165">
        <ele>152.083</ele>
        <time>2018-10-05T20:03:32Z</time>
      </trkpt>
      <trkpt lat="43.40728" lon="16.81153">
        <ele>151.015</ele>
        <time>2018-10-05T20:03:52Z</time>
      </trkpt>
      <trkpt lat="43.40727" lon="16.81126">
        <ele>150.065</ele>
        <time>2018-10-05T20:04:12Z</time>
      </trkpt>
      <trkpt lat="43.40722" lon="16.81112">
        <ele>150.011</ele>
        <time>2018-10-05T20:04:32Z</time>
      </trkpt>
      <trkpt lat="43.40716" lon="16.8109">
        <ele>149.008</ele>
        <time>2018-10-05T20:04:52Z</time>
      </trkpt>
      <trkpt lat="43.40711" lon="16.81074">
        <ele>149.023</ele>
        <time>2018-10-05T20:05:12Z</time>
      </trkpt>
      <trkpt lat="43.4072" lon="16.81047">
        <ele>147.06</ele>
        <time>2018-10-05T20:05:32Z</time>
      </trkpt>
      <trkpt lat="43.40723" lon="16.81041">
        <ele>146.083</ele>
        <time>2018-10-05T20:05:52Z</time>
      </trkpt>
      <trkpt lat="43.40728" lon="16.81031">
        <ele>145.045</ele>
        <time>2018-10-05T20:06:12Z</time>
      </trkpt>
      <trkpt lat="43.40733" lon="16.81021">
        <ele>143.043</ele>
        <time>2018-10-05T20:06:32Z</time>
      </trkpt>
      <trkpt lat="43.40738" lon="16.81004">
        <ele>142.074</ele>
        <time>2018-10-05T20:06:52Z</time>
      </trkpt>
      <trkpt lat="43.40743" lon="16.80987">
        <ele>141.084</ele>
        <time>2018-10-05T20:07:12Z</time>
      </trkpt>
      <trkpt lat="43.40744" lon="16.80981">
        <ele>140.033</ele>
        <time>2018-10-05T20:07:32Z</time>
      </trkpt>
      <trkpt lat="43.40746" lon="16.80971">
        <ele>139.076</ele>
        <time>2018-10-05T20:07:52Z</time>
      </trkpt>
      <trkpt lat="43.40748" lon="16.80961">
        <ele>138.09</ele>
        <time>2018-10-05T20:08:12Z</time>
      </trkpt>
      <trkpt lat="43.40748" lon="16.80953">
        <ele>136.019</ele>
        <time>2018-10-05T20:08:32Z</time>
      </trkpt>
      <trkpt lat="43.40745" lon="16.80948">
        <ele>135.008</ele>
        <time>2018-10-05T20:08:52Z</time>
      </trkpt>
      <trkpt lat="43.40741" lon="16.80946">
        <ele>133.059</ele>
        <time>2018-10-05T20:09:12Z</time>
      </trkpt>
      <trkpt lat="43.40736" lon="16.80946">
        <ele>132.076</ele>
        <time>2018-10-05T20:09:32Z</time>
      </trkpt>
      <trkpt lat="43.4073" lon="16.80946">
        <ele>130.059</ele>
        <time>2018-10-05T20:09:52Z</time>
      </trkpt>
      <trkpt lat="43.40725" lon="16.80948">
        <ele>128.061</ele>
        <time>2018-10-05T20:10:12Z</time>
      </trkpt>
      <trkpt lat="43.4072" lon="16.8095">
        <ele>127.039</ele>
        <time>2018-10-05T20:10:32Z</time>
      </trkpt>
      <trkpt lat="43.40715" lon="16.80952">
        <ele>126.05</ele>
        <time>2018-10-05T20:10:52Z</time>
      </trkpt>
      <trkpt lat="43.40707" lon="16.80959">
        <ele>123.05</ele>
        <time>2018-10-05T20:11:12Z</time>
      </trkpt>
      <trkpt lat="43.407" lon="16.80963">
        <ele>110.099</ele>
        <time>2018-10-05T20:11:32Z</time>
      </trkpt>
      <trkpt lat="43.40699" lon="16.80964">
        <ele>110.047</ele>
        <time>2018-10-05T20:11:52Z</time>
      </trkpt>
      <trkpt lat="43.4071" lon="16.80939">
        <ele>111.029</ele>
        <time>2018-10-05T20:12:12Z</time>
      </trkpt>
      <trkpt lat="43.40715" lon="16.80935">
        <ele>111.021</ele>
        <time>2018-10-05T20:12:32Z</time>
      </trkpt>
      <trkpt lat="43.4074" lon="16.80926">
        <ele>112.008</ele>
        <time>2018-10-05T20:12:52Z</time>
      </trkpt>
      <trkpt lat="43.40767" lon="16.80917">
        <ele>113.076</ele>
        <time>2018-10-05T20:13:12Z</time>
      </trkpt>
      <trkpt lat="43.40773" lon="16.80913">
        <ele>114.093</ele>
        <time>2018-10-05T20:13:32Z</time>
      </trkpt>
      <trkpt lat="43.40783" lon="16.80906">
        <ele>114.026</ele>
        <time>2018-10-05T20:13:52Z</time>
      </trkpt>
      <trkpt lat="43.40792" lon="16.80895">
        <ele>115.038</ele>
        <time>2018-10-05T20:14:12Z</time>
      </trkpt>
      <trkpt lat="43.40798" lon="16.80873">
        <ele>116.056</ele>
        <time>2018-10-05T20:14:32Z</time>
      </trkpt>
      <trkpt lat="43.40799" lon="16.80866">
        <ele>116.037</ele>
        <time>2018-10-05T20:14:52Z</time>
      </trkpt>
      <trkpt lat="43.40796" lon="16.80844">
        <ele>117.077</ele>
        <time>2018-10-05T20:15:12Z</time>
      </trkpt>
      <trkpt lat="43.40786" lon="16.80811">
        <ele>118.026</ele>
        <time>2018-10-05T20:15:32Z</time>
      </trkpt>
      <trkpt lat="43.40775" lon="16.80784">
        <ele>119.051</ele>
        <time>2018-10-05T20:15:52Z</time>
      </trkpt>
      <trkpt lat="43.40771" lon="16.80775">
        <ele>120.001</ele>
        <time>2018-10-05T20:16:12Z</time>
      </trkpt>
      <trkpt lat="43.40771" lon="16.80774">
        <ele>120.011</ele>
        <time>2018-10-05T20:16:32Z</time>
      </trkpt>
      <trkpt lat="43.40771" lon="16.80778">
        <ele>120.008</ele>
        <time>2018-10-05T20:16:52Z</time>
      </trkpt>
      <trkpt lat="43.40769" lon="16.80766">
        <ele>120.047</ele>
        <time>2018-10-05T20:17:12Z</time>
      </trkpt>
      <trkpt lat="43.40763" lon="16.80741">
        <ele>121.064</ele>
        <time>2018-10-05T20:17:32Z</time>
      </trkpt>
      <trkpt lat="43.40757" lon="16.80716">
        <ele>122.057</ele>
        <time>2018-10-05T20:17:52Z</time>
      </trkpt>
      <trkpt lat="43.40753" lon="16.80702">
        <ele>123.079</ele>
        <time>2018-10-05T20:18:12Z</time>
      </trkpt>
      <trkpt lat="43.4075" lon="16.80677">
        <ele>124.017</ele>
        <time>2018-10-05T20:18:32Z</time>
      </trkpt>
      <trkpt lat="43.40751" lon="16.80658">
        <ele>125.038</ele>
        <time>2018-10-05T20:18:52Z</time>
      </trkpt>
      <trkpt lat="43.40755" lon="16.80629">
        <ele>126.098</ele>
        <time>2018-10-05T20:19:12Z</time>
      </trkpt>
      <trkpt lat="43.40755" lon="16.8061">
        <ele>127.017</ele>
        <time>2018-10-05T20:19:32Z</time>
      </trkpt>
      <trkpt lat="43.40753" lon="16.80587">
        <ele>128.082</ele>
        <time>2018-10-05T20:19:52Z</time>
      </trkpt>
      <trkpt lat="43.40752" lon="16.80561">
        <ele>129.043</ele>
        <time>2018-10-05T20:20:12Z</time>
      </trkpt>
      <trkpt lat="43.40759" lon="16.80544">
        <ele>130.017</ele>
        <time>2018-10-05T20:20:32Z</time>
      </trkpt>
      <trkpt lat="43.40766" lon="16.80509">
        <ele>132.008</ele>
        <time>2018-10-05T20:20:52Z</time>
      </trkpt>
      <trkpt lat="43.40758" lon="16.80483">
        <ele>132.05</ele>
        <time>2018-10-05T20:21:12Z</time>
      </trkpt>
      <trkpt lat="43.40755" lon="16.80474">
        <ele>133.037</ele>
        <time>2018-10-05T20:21:32Z</time>
      </trkpt>
      <trkpt lat="43.40747" lon="16.80451">
        <ele>134.05</ele>
        <time>2018-10-05T20:21:52Z</time>
      </trkpt>
      <trkpt lat="43.40745" lon="16.80437">
        <ele>135.092</ele>
        <time>2018-10-05T20:22:12Z</time>
      </trkpt>
      <trkpt lat="43.40744" lon="16.80425">
        <ele>135.05</ele>
        <time>2018-10-05T20:22:32Z</time>
      </trkpt>
      <trkpt lat="43.40744" lon="16.8041">
        <ele>136.091</ele>
        <time>2018-10-05T20:22:52Z</time>
      </trkpt>
      <trkpt lat="43.40745" lon="16.80407">
        <ele>137.091</ele>
        <time>2018-10-05T20:23:12Z</time>
      </trkpt>
      <trkpt lat="43.40734" lon="16.80388">
        <ele>134.01</ele>
        <time>2018-10-05T20:23:32Z</time>
      </trkpt>
      <trkpt lat="43.40733" lon="16.80384">
        <ele>133.065</ele>
        <time>2018-10-05T20:23:52Z</time>
      </trkpt>
      <trkpt lat="43.4073" lon="16.8038">
        <ele>132.068</ele>
        <time>2018-10-05T20:24:12Z</time>
      </trkpt>
      <trkpt lat="43.40725" lon="16.80377">
        <ele>131.014</ele>
        <time>2018-10-05T20:24:32Z</time>
      </trkpt>
      <trkpt lat="43.40719" lon="16.80371">
        <ele>129.008</ele>
        <time>2018-10-05T20:24:52Z</time>
      </trkpt>
      <trkpt lat="43.40717" lon="16.80367">
        <ele>128.048</ele>
        <time>2018-10-05T20:25:12Z</time>
      </trkpt>
      <trkpt lat="43.40714" lon="16.80365">
        <ele>127.015</ele>
        <time>2018-10-05T20:25:32Z</time>
      </trkpt>
      <trkpt lat="43.40711" lon="16.80361">
        <ele>125.058</ele>
        <time>2018-10-05T20:25:52Z</time>
      </trkpt>
      <trkpt lat="43.40708" lon="16.80357">
        <ele>125.03</ele>
        <time>2018-10-05T20:26:12Z</time>
      </trkpt>
      <trkpt lat="43.40705" lon="16.80353">
        <ele>123.028</ele>
        <time>2018-10-05T20:26:32Z</time>
      </trkpt>
      <trkpt lat="43.40698" lon="16.80347">
        <ele>121.069</ele>
        <time>2018-10-05T20:26:52Z</time>
      </trkpt>
      <trkpt lat="43.40691" lon="16.80341">
        <ele>118.059</ele>
        <time>2018-10-05T20:27:12Z</time>
      </trkpt>
      <trkpt lat="43.40687" lon="16.80337">
        <ele>117.048</ele>
        <time>2018-10-05T20:27:32Z</time>
      </trkpt>
      <trkpt lat="43.40685" lon="16.80334">
        <ele>116.036</ele>
        <time>2018-10-05T20:27:52Z</time>
      </trkpt>
      <trkpt lat="43.40682" lon="16.80334">
        <ele>114.017</ele>
        <time>2018-10-05T20:28:12Z</time>
      </trkpt>
      <trkpt lat="43.40678" lon="16.80333">
        <ele>113.018</ele>
        <time>2018-10-05T20:28:32Z</time>
      </trkpt>
      <trkpt lat="43.40673" lon="16.80329">
        <ele>111.008</ele>
        <time>2018-10-05T20:28:52Z</time>
      </trkpt>
      <trkpt lat="43.40668" lon="16.8032">
        <ele>108.085</ele>
        <time>2018-10-05T20:29:12Z</time>
      </trkpt>
      <trkpt lat="43.40663" lon="16.80313">
        <ele>106.062</ele>
        <time>2018-10-05T20:29:32Z</time>
      </trkpt>
      <trkpt lat="43.40659" lon="16.80308">
        <ele>104.055</ele>
        <time>2018-10-05T20:29:52Z</time>
      </trkpt>
      <trkpt lat="43.40653" lon="16.80303">
        <ele>102.047</ele>
        <time>2018-10-05T20:30:12Z</time>
      </trkpt>
      <trkpt lat="43.40645" lon="16.80296">
        <ele>100.045</ele>
        <time>2018-10-05T20:30:32Z</time>
      </trkpt>
      <trkpt lat="43.40636" lon="16.8029">
        <ele>97.086</ele>
        <time>2018-10-05T20:30:52Z</time>
      </trkpt>
      <trkpt lat="43.40631" lon="16.80287">
        <ele>96.086</ele>
        <time>2018-10-05T20:31:12Z</time>
      </trkpt>
      <trkpt lat="43.40627" lon="16.80284">
        <ele>95.015</ele>
        <time>2018-10-05T20:31:32Z</time>
      </trkpt>
      <trkpt lat="43.40622" lon="16.80281">
        <ele>93.083</ele>
        <time>2018-10-05T20:31:52Z</time>
      </trkpt>
      <trkpt lat="43.40617" lon="16.80275">
        <ele>90.025</ele>
        <time>2018-10-05T20:32:12Z</time>
      </trkpt>
      <trkpt lat="43.40608" lon="16.8027">
        <ele>88.017</ele>
        <time>2018-10-05T20:32:32Z</time>
      </trkpt>
      <trkpt lat="43.40606" lon="16.80268">
        <ele>87.008</ele>
        <time>2018-10-05T20:32:52Z</time>
      </trkpt>
      <trkpt lat="43.406" lon="16.80264">
        <ele>84.09</ele>
        <time>2018-10-05T20:33:12Z</time>
      </trkpt>
      <trkpt lat="43.40595" lon="16.80262">
        <ele>83.057</ele>
        <time>2018-10-05T20:33:32Z</time>
      </trkpt>
      <trkpt lat="43.40587" lon="16.8026">
        <ele>81.06</ele>
        <time>2018-10-05T20:33:52Z</time>
      </trkpt>
      <trkpt lat="43.40579" lon="16.80256">
        <ele>78.022</ele>
        <time>2018-10-05T20:34:12Z</time>
      </trkpt>
      <trkpt lat="43.40575" lon="16.80255">
        <ele>77.06</ele>
        <time>2018-10-05T20:34:32Z</time>
      </trkpt>
      <trkpt lat="43.40572" lon="16.80255">
        <ele>77.061</ele>
        <time>2018-10-05T20:34:52Z</time>
      </trkpt>
      <trkpt lat="43.40571" lon="16.80257">
        <ele>76.091</ele>
        <time>2018-10-05T20:35:12Z</time>
      </trkpt>
      <trkpt lat="43.4057" lon="16.80257">
        <ele>76.08</ele>
        <time>2018-10-05T20:35:32Z</time>
      </trkpt>
      <trkpt lat="43.40569" lon="16.80247">
        <ele>70.011</ele>
        <time>2018-10-05T20:35:52Z</time>
      </trkpt>
      <trkpt lat="43.40564" lon="16.80243">
        <ele>69.021</ele>
        <time>2018-10-05T20:36:12Z</time>
      </trkpt>
      <trkpt lat="43.40557" lon="16.80237">
        <ele>67.003</ele>
        <time>2018-10-05T20:36:32Z</time>
      </trkpt>
      <trkpt lat="43.40549" lon="16.80229">
        <ele>64.008</ele>
        <time>2018-10-05T20:36:52Z</time>
      </trkpt>
      <trkpt lat="43.40545" lon="16.80224">
        <ele>63.023</ele>
        <time>2018-10-05T20:37:12Z</time>
      </trkpt>
      <trkpt lat="43.4054" lon="16.80207">
        <ele>61.02</ele>
        <time>2018-10-05T20:37:32Z</time>
      </trkpt>
      <trkpt lat="43.4054" lon="16.802">
        <ele>60.083</ele>
        <time>2018-10-05T20:37:52Z</time>
      </trkpt>
      <trkpt lat="43.40549" lon="16.80185">
        <ele>59.065</ele>
        <time>2018-10-05T20:38:12Z</time>
      </trkpt>
      <trkpt lat="43.40559" lon="16.80168">
        <ele>59.033</ele>
        <time>2018-10-05T20:38:32Z</time>
      </trkpt>
      <trkpt lat="43.40561" lon="16.80145">
        <ele>56.054</ele>
        <time>2018-10-05T20:38:52Z</time>
      </trkpt>
      <trkpt lat="43.40557" lon="16.80133">
        <ele>54.064</ele>
        <time>2018-10-05T20:39:12Z</time>
      </trkpt>
      <trkpt lat="43.40555" lon="16.80123">
        <ele>51.033</ele>
        <time>2018-10-05T20:39:32Z</time>
      </trkpt>
      <trkpt lat="43.40552" lon="16.80097">
        <ele>50.069</ele>
        <time>2018-10-05T20:39:52Z</time>
      </trkpt>
      <trkpt lat="43.40552" lon="16.8007">
        <ele>50.004</ele>
        <time>2018-10-05T20:40:12Z</time>
      </trkpt>
      <trkpt lat="43.40549" lon="16.80045">
        <ele>50.024</ele>
        <time>2018-10-05T20:40:32Z</time>
      </trkpt>
      <trkpt lat="43.40549" lon="16.80044">
        <ele>49.008</ele>
        <time>2018-10-05T20:40:52Z</time>
      </trkpt>
      <trkpt lat="43.40548" lon="16.80041">
        <ele>48.088</ele>
        <time>2018-10-05T20:41:12Z</time>
      </trkpt>
      <trkpt lat="43.40541" lon="16.80033">
        <ele>48.065</ele>
        <time>2018-10-05T20:41:32Z</time>
      </trkpt>
      <trkpt lat="43.40539" lon="16.80032">
        <ele>47.068</ele>
        <time>2018-10-05T20:41:52Z</time>
      </trkpt>
      <trkpt lat="43.40537" lon="16.80034">
        <ele>45.07</ele>
        <time>2018-10-05T20:42:12Z</time>
      </trkpt>
      <trkpt lat="43.40534" lon="16.80039">
        <ele>43.088</ele>
        <time>2018-10-05T20:42:32Z</time>
      </trkpt>
      <trkpt lat="43.40534" lon="16.80039">
        <ele>43.079</ele>
        <time>2018-10-05T20:42:52Z</time>
      </trkpt>
      <trkpt lat="43.40531" lon="16.80039">
        <ele>41.099</ele>
        <time>2018-10-05T20:43:12Z</time>
      </trkpt>
      <trkpt lat="43.4053" lon="16.80039">
        <ele>40.018</ele>
        <time>2018-10-05T20:43:32Z</time>
      </trkpt>
      <trkpt lat="43.40528" lon="16.80038">
        <ele>39.077</ele>
        <time>2018-10-05T20:43:52Z</time>
      </trkpt>
      <trkpt lat="43.40527" lon="16.80036">
        <ele>39.061</ele>
        <time>2018-10-05T20:44:12Z</time>
      </trkpt>
      <trkpt lat="43.40521" lon="16.80034">
        <ele>38.027</ele>
        <time>2018-10-05T20:44:32Z</time>
      </trkpt>
      <trkpt lat="43.40514" lon="16.80021">
        <ele>38.008</ele>
        <time>2018-10-05T20:44:52Z</time>
      </trkpt>
      <trkpt lat="43.40508" lon="16.80008">
        <ele>36.059</ele>
        <time>2018-10-05T20:45:12Z</time>
      </trkpt>
      <trkpt lat="43.40512" lon="16.8">
        <ele>34.026</ele>
        <time>2018-10-05T20:45:32Z</time>
      </trkpt>
      <trkpt lat="43.40525" lon="16.79988">
        <ele>34.089</ele>
        <time>2018-10-05T20:45:52Z</time>
      </trkpt>
      <trkpt lat="43.40528" lon="16.79983">
        <ele>34.091</ele>
        <time>2018-10-05T20:46:12Z</time>
      </trkpt>
      <trkpt lat="43.40541" lon="16.79965">
        <ele>34.019</ele>
        <time>2018-10-05T20:46:32Z</time>
      </trkpt>
      <trkpt lat="43.40548" lon="16.7995">
        <ele>34.01</ele>
        <time>2018-10-05T20:46:52Z</time>
      </trkpt>
      <trkpt lat="43.40551" lon="16.79935">
        <ele>33.06</ele>
        <time>2018-10-05T20:47:12Z</time>
      </trkpt>
      <trkpt lat="43.4055" lon="16.79924">
        <ele>33.049</ele>
        <time>2018-10-05T20:47:32Z</time>
      </trkpt>
      <trkpt lat="43.40552" lon="16.79901">
        <ele>32.078</ele>
        <time>2018-10-05T20:47:52Z</time>
      </trkpt>
      <trkpt lat="43.40554" lon="16.79876">
        <ele>31.033</ele>
        <time>2018-10-05T20:48:12Z</time>
      </trkpt>
      <trkpt lat="43.40559" lon="16.7985">
        <ele>31.026</ele>
        <time>2018-10-05T20:48:32Z</time>
      </trkpt>
      <trkpt lat="43.40562" lon="16.79835">
        <ele>30.008</ele>
        <time>2018-10-05T20:48:52Z</time>
      </trkpt>
      <trkpt lat="43.4056" lon="16.7982">
        <ele>29.039</ele>
        <time>2018-10-05T20:49:12Z</time>
      </trkpt>
      <trkpt lat="43.40561" lon="16.79794">
        <ele>29.096</ele>
        <time>2018-10-05T20:49:32Z</time>
      </trkpt>
      <trkpt lat="43.40564" lon="16.79767">
        <ele>31.079</ele>
        <time>2018-10-05T20:49:52Z</time>
      </trkpt>
      <trkpt lat="43.40572" lon="16.79744">
        <ele>31.071</ele>
        <time>2018-10-05T20:50:12Z</time>
      </trkpt>
      <trkpt lat="43.40585" lon="16.79725">
        <ele>31.059</ele>
        <time>2018-10-05T20:50:32Z</time>
      </trkpt>
      <trkpt lat="43.40599" lon="16.7971">
        <ele>31.08</ele>
        <time>2018-10-05T20:50:52Z</time>
      </trkpt>
      <trkpt lat="43.40613" lon="16.79694">
        <ele>31.05</ele>
        <time>2018-10-05T20:51:12Z</time>
      </trkpt>
      <trkpt lat="43.40623" lon="16.79684">
        <ele>30.019</ele>
        <time>2018-10-05T20:51:32Z</time>
      </trkpt>
      <trkpt lat="43.40634" lon="16.79667">
        <ele>28.032</ele>
        <time>2018-10-05T20:51:52Z</time>
      </trkpt>
      <trkpt lat="43.40637" lon="16.79658">
        <ele>25.092</ele>
        <time>2018-10-05T20:52:12Z</time>
      </trkpt>
      <trkpt lat="43.40639" lon="16.79655">
        <ele>24.011</ele>
        <time>2018-10-05T20:52:32Z</time>
      </trkpt>
      <trkpt lat="43.40641" lon="16.79653">
        <ele>23.008</ele>
        <time>2018-10-05T20:52:52Z</time>
      </trkpt>
      <trkpt lat="43.40656" lon="16.79638">
        <ele>22.035</ele>
        <time>2018-10-05T20:53:12Z</time>
      </trkpt>
      <trkpt lat="43.40668" lon="16.79619">
        <ele>23.052</ele>
        <time>2018-10-05T20:53:32Z</time>
      </trkpt>
      <trkpt lat="43.40674" lon="16.79596">
        <ele>23.045</ele>
        <time>2018-10-05T20:53:52Z</time>
      </trkpt>
      <trkpt lat="43.40676" lon="16.79594">
        <ele>23.017</ele>
        <time>2018-10-05T20:54:12Z</time>
      </trkpt>
      <trkpt lat="43.40675" lon="16.79589">
        <ele>23.015</ele>
        <time>2018-10-05T20:54:32Z</time>
      </trkpt>
      <trkpt lat="43.40673" lon="16.79587">
        <ele>23.096</ele>
        <time>2018-10-05T20:54:52Z</time>
      </trkpt>
      <trkpt lat="43.40673" lon="16.79576">
        <ele>23.026</ele>
        <time>2018-10-05T20:55:12Z</time>
      </trkpt>
      <trkpt lat="43.40675" lon="16.7957">
        <ele>24.035</ele>
        <time>2018-10-05T20:55:32Z</time>
      </trkpt>
      <trkpt lat="43.40673" lon="16.79566">
        <ele>25.038</ele>
        <time>2018-10-05T20:55:52Z</time>
      </trkpt>
      <trkpt lat="43.40672" lon="16.79565">
        <ele>27.07</ele>
        <time>2018-10-05T20:56:12Z</time>
      </trkpt>
      <trkpt lat="43.4067" lon="16.79564">
        <ele>28.017</ele>
        <time>2018-10-05T20:56:32Z</time>
      </trkpt>
      <trkpt lat="43.40667" lon="16.79561">
        <ele>29.008</ele>
        <time>2018-10-05T20:56:52Z</time>
      </trkpt>
      <trkpt lat="43.40656" lon="16.7955">
        <ele>31.075</ele>
        <time>2018-10-05T20:57:12Z</time>
      </trkpt>
      <trkpt lat="43.40651" lon="16.79545">
        <ele>32.042</ele>
        <time>2018-10-05T20:57:32Z</time>
      </trkpt>
      <trkpt lat="43.4065" lon="16.79543">
        <ele>32.045</ele>
        <time>2018-10-05T20:57:52Z</time>
      </trkpt>
      <trkpt lat="43.40645" lon="16.79527">
        <ele>34.047</ele>
        <time>2018-10-05T20:58:12Z</time>
      </trkpt>
      <trkpt lat="43.4064" lon="16.79515">
        <ele>36.075</ele>
        <time>2018-10-05T20:58:32Z</time>
      </trkpt>
      <trkpt lat="43.40633" lon="16.79495">
        <ele>38.056</ele>
        <time>2018-10-05T20:58:52Z</time>
      </trkpt>
      <trkpt lat="43.40629" lon="16.79485">
        <ele>39.036</ele>
        <time>2018-10-05T20:59:12Z</time>
      </trkpt>
      <trkpt lat="43.40626" lon="16.79477">
        <ele>41.025</ele>
        <time>2018-10-05T20:59:32Z</time>
      </trkpt>
      <trkpt lat="43.40623" lon="16.79467">
        <ele>43.078</ele>
        <time>2018-10-05T20:59:52Z</time>
      </trkpt>
      <trkpt lat="43.40619" lon="16.79461">
        <ele>44.033</ele>
        <time>2018-10-05T21:00:12Z</time>
      </trkpt>
      <trkpt lat="43.40617" lon="16.79457">
        <ele>46.026</ele>
        <time>2018-10-05T21:00:32Z</time>
      </trkpt>
      <trkpt lat="43.40612" lon="16.79451">
        <ele>47.008</ele>
        <time>2018-10-05T21:00:52Z</time>
      </trkpt>
      <trkpt lat="43.40599" lon="16.79443">
        <ele>49.019</ele>
        <time>2018-10-05T21:01:12Z</time>
      </trkpt>
      <trkpt lat="43.40578" lon="16.79428">
        <ele>48.036</ele>
        <time>2018-10-05T21:01:32Z</time>
      </trkpt>
      <trkpt lat="43.40562" lon="16.79415">
        <ele>48.019</ele>
        <time>2018-10-05T21:01:52Z</time>
      </trkpt>
      <trkpt lat="43.4055" lon="16.79409">
        <ele>49.051</ele>
        <time>2018-10-05T21:02:12Z</time>
      </trkpt>
      <trkpt lat="43.40542" lon="16.79394">
        <ele>51.099</ele>
        <time>2018-10-05T21:02:32Z</time>
      </trkpt>
      <trkpt lat="43.4054" lon="16.79378">
        <ele>54.08</ele>
        <time>2018-10-05T21:02:52Z</time>
      </trkpt>
      <trkpt lat="43.40544" lon="16.7936">
        <ele>56.05</ele>
        <time>2018-10-05T21:03:12Z</time>
      </trkpt>
      <trkpt lat="43.40549" lon="16.79343">
        <ele>57.049</ele>
        <time>2018-10-05T21:03:32Z</time>
      </trkpt>
      <trkpt lat="43.40552" lon="16.79335">
        <ele>58.086</ele>
        <time>2018-10-05T21:03:52Z</time>
      </trkpt>
      <trkpt lat="43.4056" lon="16.79315">
        <ele>59.06</ele>
        <time>2018-10-05T21:04:12Z</time>
      </trkpt>
      <trkpt lat="43.40571" lon="16.79296">
        <ele>59.026</ele>
        <time>2018-10-05T21:04:32Z</time>
      </trkpt>
      <trkpt lat="43.40584" lon="16.79276">
        <ele>59.008</ele>
        <time>2018-10-05T21:04:52Z</time>
      </trkpt>
      <trkpt lat="43.40593" lon="16.79252">
        <ele>60.05</ele>
        <time>2018-10-05T21:05:12Z</time>
      </trkpt>
      <trkpt lat="43.40596" lon="16.7923">
        <ele>61.087</ele>
        <time>2018-10-05T21:05:32Z</time>
      </trkpt>
      <trkpt lat="43.40601" lon="16.79214">
        <ele>62.03</ele>
        <time>2018-10-05T21:05:52Z</time>
      </trkpt>
      <trkpt lat="43.40604" lon="16.79198">
        <ele>63.052</ele>
        <time>2018-10-05T21:06:12Z</time>
      </trkpt>
      <trkpt lat="43.40614" lon="16.79181">
        <ele>64.05</ele>
        <time>2018-10-05T21:06:32Z</time>
      </trkpt>
      <trkpt lat="43.40618" lon="16.79175">
        <ele>66.081</ele>
        <time>2018-10-05T21:06:52Z</time>
      </trkpt>
      <trkpt lat="43.40626" lon="16.79173">
        <ele>68.071</ele>
        <time>2018-10-05T21:07:12Z</time>
      </trkpt>
      <trkpt lat="43.40634" lon="16.79172">
        <ele>69.04</ele>
        <time>2018-10-05T21:07:32Z</time>
      </trkpt>
      <trkpt lat="43.4064" lon="16.79175">
        <ele>70.098</ele>
        <time>2018-10-05T21:07:52Z</time>
      </trkpt>
      <trkpt lat="43.40659" lon="16.79181">
        <ele>70.015</ele>
        <time>2018-10-05T21:08:12Z</time>
      </trkpt>
      <trkpt lat="43.40663" lon="16.79181">
        <ele>71.026</ele>
        <time>2018-10-05T21:08:32Z</time>
      </trkpt>
      <trkpt lat="43.40667" lon="16.79183">
        <ele>71.008</ele>
        <time>2018-10-05T21:08:52Z</time>
      </trkpt>
      <trkpt lat="43.4068" lon="16.79182">
        <ele>73.061</ele>
        <time>2018-10-05T21:09:12Z</time>
      </trkpt>
      <trkpt lat="43.40686" lon="16.79181">
        <ele>74.038</ele>
        <time>2018-10-05T21:09:32Z</time>
      </trkpt>
      <trkpt lat="43.40706" lon="16.79177">
        <ele>75.071</ele>
        <time>2018-10-05T21:09:52Z</time>
      </trkpt>
      <trkpt lat="43.40716" lon="16.79179">
        <ele>75.043</ele>
        <time>2018-10-05T21:10:12Z</time>
      </trkpt>
      <trkpt lat="43.40736" lon="16.79176">
        <ele>76.051</ele>
        <time>2018-10-05T21:10:32Z</time>
      </trkpt>
      <trkpt lat="43.40743" lon="16.79173">
        <ele>76.032</ele>
        <time>2018-10-05T21:10:52Z</time>
      </trkpt>
      <trkpt lat="43.40755" lon="16.79175">
        <ele>78.082</ele>
        <time>2018-10-05T21:11:12Z</time>
      </trkpt>
      <trkpt lat="43.40758" lon="16.79176">
        <ele>79.051</ele>
        <time>2018-10-05T21:11:32Z</time>
      </trkpt>
      <trkpt lat="43.40777" lon="16.79173">
        <ele>79.031</ele>
        <time>2018-10-05T21:11:52Z</time>
      </trkpt>
      <trkpt lat="43.40796" lon="16.79166">
        <ele>78.061</ele>
        <time>2018-10-05T21:12:12Z</time>
      </trkpt>
      <trkpt lat="43.40809" lon="16.79142">
        <ele>78.007</ele>
        <time>2018-10-05T21:12:32Z</time>
      </trkpt>
      <trkpt lat="43.4082" lon="16.79121">
        <ele>78.008</ele>
        <time>2018-10-05T21:12:52Z</time>
      </trkpt>
      <trkpt lat="43.40828" lon="16.79107">
        <ele>79.025</ele>
        <time>2018-10-05T21:13:12Z</time>
      </trkpt>
      <trkpt lat="43.40838" lon="16.79081">
        <ele>80.042</ele>
        <time>2018-10-05T21:13:32Z</time>
      </trkpt>
      <trkpt lat="43.40835" lon="16.79063">
        <ele>81.015</ele>
        <time>2018-10-05T21:13:52Z</time>
      </trkpt>
      <trkpt lat="43.40827" lon="16.79048">
        <ele>82.097</ele>
        <time>2018-10-05T21:14:12Z</time>
      </trkpt>
      <trkpt lat="43.40827" lon="16.79031">
        <ele>84.055</ele>
        <time>2018-10-05T21:14:32Z</time>
      </trkpt>
      <trkpt lat="43.40827" lon="16.79026">
        <ele>84.066</ele>
        <time>2018-10-05T21:14:52Z</time>
      </trkpt>
      <trkpt lat="43.40831" lon="16.79022">
        <ele>86.016</ele>
        <time>2018-10-05T21:15:12Z</time>
      </trkpt>
      <trkpt lat="43.40834" lon="16.79018">
        <ele>86.045</ele>
        <time>2018-10-05T21:15:32Z</time>
      </trkpt>
      <trkpt lat="43.40846" lon="16.79009">
        <ele>89.055</ele>
        <time>2018-10-05T21:15:52Z</time>
      </trkpt>
      <trkpt lat="43.40852" lon="16.79008">
        <ele>90.007</ele>
        <time>2018-10-05T21:16:12Z</time>
      </trkpt>
      <trkpt lat="43.40855" lon="16.79007">
        <ele>91.017</ele>
        <time>2018-10-05T21:16:32Z</time>
      </trkpt>
      <trkpt lat="43.40867" lon="16.78988">
        <ele>92.008</ele>
        <time>2018-10-05T21:16:52Z</time>
      </trkpt>
      <trkpt lat="43.40867" lon="16.78987">
        <ele>92.017</ele>
        <time>2018-10-05T21:17:12Z</time>
      </trkpt>
      <trkpt lat="43.40869" lon="16.78984">
        <ele>93.044</ele>
        <time>2018-10-05T21:17:32Z</time>
      </trkpt>
      <trkpt lat="43.40873" lon="16.78983">
        <ele>93.077</ele>
        <time>2018-10-05T21:17:52Z</time>
      </trkpt>
      <trkpt lat="43.40875" lon="16.7898">
        <ele>93.029</ele>
        <time>2018-10-05T21:18:12Z</time>
      </trkpt>
      <trkpt lat="43.40882" lon="16.78969">
        <ele>93.057</ele>
        <time>2018-10-05T21:18:32Z</time>
      </trkpt>
      <trkpt lat="43.4089" lon="16.78956">
        <ele>93.018</ele>
        <time>2018-10-05T21:18:52Z</time>
      </trkpt>
      <trkpt lat="43.40893" lon="16.78952">
        <ele>93.068</ele>
        <time>2018-10-05T21:19:12Z</time>
      </trkpt>
      <trkpt lat="43.40896" lon="16.78943">
        <ele>92.097</ele>
        <time>2018-10-05T21:19:32Z</time>
      </trkpt>
      <trkpt lat="43.40897" lon="16.78939">
        <ele>92.038</ele>
        <time>2018-10-05T21:19:52Z</time>
      </trkpt>
      <trkpt lat="43.40899" lon="16.78934">
        <ele>92.07</ele>
        <time>2018-10-05T21:20:12Z</time>
      </trkpt>
      <trkpt lat="43.40899" lon="16.78934">
        <ele>92.017</ele>
        <time>2018-10-05T21:20:32Z</time>
      </trkpt>
      <trkpt lat="43.40901" lon="16.78926">
        <ele>93.008</ele>
        <time>2018-10-05T21:20:52Z</time>
      </trkpt>
      <trkpt lat="43.40903" lon="16.78921">
        <ele>93.025</ele>
        <time>2018-10-05T21:21:12Z</time>
      </trkpt>
      <trkpt lat="43.40908" lon="16.78917">
        <ele>91.052</ele>
        <time>2018-10-05T21:21:32Z</time>
      </trkpt>
      <trkpt lat="43.40911" lon="16.78914">
        <ele>92.065</ele>
        <time>2018-10-05T21:21:52Z</time>
      </trkpt>
      <trkpt lat="43.40912" lon="16.78913">
        <ele>92.097</ele>
        <time>2018-10-05T21:22:12Z</time>
      </trkpt>
      <trkpt lat="43.40915" lon="16.78912">
        <ele>92.035</ele>
        <time>2018-10-05T21:22:32Z</time>
      </trkpt>
      <trkpt lat="43.40918" lon="16.78901">
        <ele>92.096</ele>
        <time>2018-10-05T21:22:52Z</time>
      </trkpt>
      <trkpt lat="43.40922" lon="16.78897">
        <ele>93.096</ele>
        <time>2018-10-05T21:23:12Z</time>
      </trkpt>
      <trkpt lat="43.40924" lon="16.78893">
        <ele>93.075</ele>
        <time>2018-10-05T21:23:32Z</time>
      </trkpt>
      <trkpt lat="43.40924" lon="16.78893">
        <ele>93.056</ele>
        <time>2018-10-05T21:23:52Z</time>
      </trkpt>
      <trkpt lat="43.40926" lon="16.78889">
        <ele>94.059</ele>
        <time>2018-10-05T21:24:12Z</time>
      </trkpt>
      <trkpt lat="43.40927" lon="16.78889">
        <ele>94.014</ele>
        <time>2018-10-05T21:24:32Z</time>
      </trkpt>
      <trkpt lat="43.4093" lon="16.78886">
        <ele>95.008</ele>
        <time>2018-10-05T21:24:52Z</time>
      </trkpt>
      <trkpt lat="43.40934" lon="16.78877">
        <ele>96.097</ele>
        <time>2018-10-05T21:25:12Z</time>
      </trkpt>
      <trkpt lat="43.40937" lon="16.78872">
        <ele>97.024</ele>
        <time>2018-10-05T21:25:32Z</time>
      </trkpt>
      <trkpt lat="43.40939" lon="16.7887">
        <ele>97.097</ele>
        <time>2018-10-05T21:25:52Z</time>
      </trkpt>
      <trkpt lat="43.40942" lon="16.78866">
        <ele>98.019</ele>
        <time>2018-10-05T21:26:12Z</time>
      </trkpt>
      <trkpt lat="43.40954" lon="16.78857">
        <ele>102.037</ele>
        <time>2018-10-05T21:26:32Z</time>
      </trkpt>
      <trkpt lat="43.40957" lon="16.78854">
        <ele>103.028</ele>
        <time>2018-10-05T21:26:52Z</time>
      </trkpt>
      <trkpt lat="43.4096" lon="16.78848">
        <ele>104.028</ele>
        <time>2018-10-05T21:27:12Z</time>
      </trkpt>
      <trkpt lat="43.40961" lon="16.78842">
        <ele>106.057</ele>
        <time>2018-10-05T21:27:32Z</time>
      </trkpt>
      <trkpt lat="43.40964" lon="16.78839">
        <ele>106.089</ele>
        <time>2018-10-05T21:27:52Z</time>
      </trkpt>
      <trkpt lat="43.40964" lon="16.78836">
        <ele>107.006</ele>
        <time>2018-10-05T21:28:12Z</time>
      </trkpt>
      <trkpt lat="43.40968" lon="16.78831">
        <ele>108.026</ele>
        <time>2018-10-05T21:28:32Z</time>
      </trkpt>
      <trkpt lat="43.4097" lon="16.7883">
        <ele>109.008</ele>
        <time>2018-10-05T21:28:52Z</time>
      </trkpt>
      <trkpt lat="43.40973" lon="16.78827">
        <ele>109.02</ele>
        <time>2018-10-05T21:29:12Z</time>
      </trkpt>
      <trkpt lat="43.40976" lon="16.78822">
        <ele>110.067</ele>
        <time>2018-10-05T21:29:32Z</time>
      </trkpt>
      <trkpt lat="43.40979" lon="16.78815">
        <ele>111.01</ele>
        <time>2018-10-05T21:29:52Z</time>
      </trkpt>
      <trkpt lat="43.40982" lon="16.78804">
        <ele>112.052</ele>
        <time>2018-10-05T21:30:12Z</time>
      </trkpt>
      <trkpt lat="43.40984" lon="16.78798">
        <ele>113.04</ele>
        <time>2018-10-05T21:30:32Z</time>
      </trkpt>
      <trkpt lat="43.40987" lon="16.78794">
        <ele>113.051</ele>
        <time>2018-10-05T21:30:52Z</time>
      </trkpt>
      <trkpt lat="43.40989" lon="16.78791">
        <ele>114.071</ele>
        <time>2018-10-05T21:31:12Z</time>
      </trkpt>
      <trkpt lat="43.4099" lon="16.78782">
        <ele>114.07</ele>
        <time>2018-10-05T21:31:32Z</time>
      </trkpt>
      <trkpt lat="43.40996" lon="16.78775">
        <ele>116.073</ele>
        <time>2018-10-05T21:31:52Z</time>
      </trkpt>
      <trkpt lat="43.40997" lon="16.78773">
        <ele>116.085</ele>
        <time>2018-10-05T21:32:12Z</time>
      </trkpt>
      <trkpt lat="43.40998" lon="16.78772">
        <ele>117.013</ele>
        <time>2018-10-05T21:32:32Z</time>
      </trkpt>
      <trkpt lat="43.41001" lon="16.78769">
        <ele>118.008</ele>
        <time>2018-10-05T21:32:52Z</time>
      </trkpt>
      <trkpt lat="43.41006" lon="16.78756">
        <ele>119.079</ele>
        <time>2018-10-05T21:33:12Z</time>
      </trkpt>
      <trkpt lat="43.41006" lon="16.78755">
        <ele>120.026</ele>
        <time>2018-10-05T21:33:32Z</time>
      </trkpt>
      <trkpt lat="43.4101" lon="16.78749">
        <ele>120.029</ele>
        <time>2018-10-05T21:33:52Z</time>
      </trkpt>
      <trkpt lat="43.41014" lon="16.78746">
        <ele>121.061</ele>
        <time>2018-10-05T21:34:12Z</time>
      </trkpt>
      <trkpt lat="43.41016" lon="16.78746">
        <ele>122.039</ele>
        <time>2018-10-05T21:34:32Z</time>
      </trkpt>
      <trkpt lat="43.4102" lon="16.78738">
        <ele>122.08</ele>
        <time>2018-10-05T21:34:52Z</time>
      </trkpt>
      <trkpt lat="43.41023" lon="16.78731">
        <ele>124.05</ele>
        <time>2018-10-05T21:35:12Z</time>
      </trkpt>
      <trkpt lat="43.41024" lon="16.78729">
        <ele>124.089</ele>
        <time>2018-10-05T21:35:32Z</time>
      </trkpt>
      <trkpt lat="43.41028" lon="16.78728">
        <ele>126.053</ele>
        <time>2018-10-05T21:35:52Z</time>
      </trkpt>
      <trkpt lat="43.41029" lon="16.78726">
        <ele>127.004</ele>
        <time>2018-10-05T21:36:12Z</time>
      </trkpt>
      <trkpt lat="43.41035" lon="16.78715">
        <ele>129.014</ele>
        <time>2018-10-05T21:36:32Z</time>
      </trkpt>
      <trkpt lat="43.41036" lon="16.78711">
        <ele>130.008</ele>
        <time>2018-10-05T21:36:52Z</time>
      </trkpt>
      <trkpt lat="43.41043" lon="16.7869">
        <ele>136.087</ele>
        <time>2018-10-05T21:37:12Z</time>
      </trkpt>
      <trkpt lat="43.41043" lon="16.78688">
        <ele>136.094</ele>
        <time>2018-10-05T21:37:32Z</time>
      </trkpt>
      <trkpt lat="43.41043" lon="16.78688">
        <ele>135.097</ele>
        <time>2018-10-05T21:37:52Z</time>
      </trkpt>
      <trkpt lat="43.41048" lon="16.7868">
        <ele>135.079</ele>
        <time>2018-10-05T21:38:12Z</time>
      </trkpt>
      <trkpt lat="43.41049" lon="16.78675">
        <ele>136.027</ele>
        <time>2018-10-05T21:38:32Z</time>
      </trkpt>
      <trkpt lat="43.41052" lon="16.78672">
        <ele>136.038</ele>
        <time>2018-10-05T21:38:52Z</time>
      </trkpt>
      <trkpt lat="43.41053" lon="16.78664">
        <ele>138.078</ele>
        <time>2018-10-05T21:39:12Z</time>
      </trkpt>
      <trkpt lat="43.41055" lon="16.7866">
        <ele>138.047</ele>
        <time>2018-10-05T21:39:32Z</time>
      </trkpt>
      <trkpt lat="43.41058" lon="16.78657">
        <ele>138.034</ele>
        <time>2018-10-05T21:39:52Z</time>
      </trkpt>
      <trkpt lat="43.41061" lon="16.78645">
        <ele>140.055</ele>
        <time>2018-10-05T21:40:12Z</time>
      </trkpt>
      <trkpt lat="43.41063" lon="16.78643">
        <ele>142.01</ele>
        <time>2018-10-05T21:40:32Z</time>
      </trkpt>
      <trkpt lat="43.41065" lon="16.7864">
        <ele>143.008</ele>
        <time>2018-10-05T21:40:52Z</time>
      </trkpt>
      <trkpt lat="43.41066" lon="16.78637">
        <ele>144.075</ele>
        <time>2018-10-05T21:41:12Z</time>
      </trkpt>
      <trkpt lat="43.41068" lon="16.78633">
        <ele>145.072</ele>
        <time>2018-10-05T21:41:32Z</time>
      </trkpt>
      <trkpt lat="43.41068" lon="16.78631">
        <ele>145.055</ele>
        <time>2018-10-05T21:41:52Z</time>
      </trkpt>
      <trkpt lat="43.41068" lon="16.78627">
        <ele>146.047</ele>
        <time>2018-10-05T21:42:12Z</time>
      </trkpt>
      <trkpt lat="43.4107" lon="16.78627">
        <ele>146.035</ele>
        <time>2018-10-05T21:42:32Z</time>
      </trkpt>
      <trkpt lat="43.4107" lon="16.78626">
        <ele>147.096</ele>
        <time>2018-10-05T21:42:52Z</time>
      </trkpt>
      <trkpt lat="43.41075" lon="16.78621">
        <ele>148.036</ele>
        <time>2018-10-05T21:43:12Z</time>
      </trkpt>
      <trkpt lat="43.41075" lon="16.78618">
        <ele>148.095</ele>
        <time>2018-10-05T21:43:32Z</time>
      </trkpt>
      <trkpt lat="43.41076" lon="16.78615">
        <ele>149.012</ele>
        <time>2018-10-05T21:43:52Z</time>
      </trkpt>
      <trkpt lat="43.41077" lon="16.78613">
        <ele>151.032</ele>
        <time>2018-10-05T21:44:12Z</time>
      </trkpt>
      <trkpt lat="43.41083" lon="16.78603">
        <ele>151.005</ele>
        <time>2018-10-05T21:44:32Z</time>
      </trkpt>
      <trkpt lat="43.41085" lon="16.78599">
        <ele>153.008</ele>
        <time>2018-10-05T21:44:52Z</time>
      </trkpt>
      <trkpt lat="43.41086" lon="16.78598">
        <ele>153.033</ele>
        <time>2018-10-05T21:45:12Z</time>
      </trkpt>
      <trkpt lat="43.41086" lon="16.78598">
        <ele>153.08</ele>
        <time>2018-10-05T21:45:32Z</time>
      </trkpt>
      <trkpt lat="43.41091" lon="16.78601">
        <ele>154.023</ele>
        <time>2018-10-05T21:45:52Z</time>
      </trkpt>
      <trkpt lat="43.41092" lon="16.78602">
        <ele>154.015</ele>
        <time>2018-10-05T21:46:12Z</time>
      </trkpt>
      <trkpt lat="43.41104" lon="16.78607">
        <ele>155.043</ele>
        <time>2018-10-05T21:46:32Z</time>
      </trkpt>
      <trkpt lat="43.41105" lon="16.78607">
        <ele>155.064</ele>
        <time>2018-10-05T21:46:52Z</time>
      </trkpt>
      <trkpt lat="43.41105" lon="16.78606">
        <ele>156.074</ele>
        <time>2018-10-05T21:47:12Z</time>
      </trkpt>
      <trkpt lat="43.4111" lon="16.78602">
        <ele>159.023</ele>
        <time>2018-10-05T21:47:32Z</time>
      </trkpt>
      <trkpt lat="43.41113" lon="16.78602">
        <ele>160.093</ele>
        <time>2018-10-05T21:47:52Z</time>
      </trkpt>
      <trkpt lat="43.41115" lon="16.78601">
        <ele>160.065</ele>
        <time>2018-10-05T21:48:12Z</time>
      </trkpt>
      <trkpt lat="43.41116" lon="16.78601">
        <ele>161.021</ele>
        <time>2018-10-05T21:48:32Z</time>
      </trkpt>
      <trkpt lat="43.41123" lon="16.78593">
        <ele>162.008</ele>
        <time>2018-10-05T21:48:52Z</time>
      </trkpt>
      <trkpt lat="43.41126" lon="16.78581">
        <ele>163.041</ele>
        <time>2018-10-05T21:49:12Z</time>
      </trkpt>
      <trkpt lat="43.41129" lon="16.78567">
        <ele>163.038</ele>
        <time>2018-10-05T21:49:32Z</time>
      </trkpt>
      <trkpt lat="43.4113" lon="16.78564">
        <ele>163.061</ele>
        <time>2018-10-05T21:49:52Z</time>
      </trkpt>
      <trkpt lat="43.41129" lon="16.78561">
        <ele>163.023</ele>
        <time>2018-10-05T21:50:12Z</time>
      </trkpt>
      <trkpt lat="43.41137" lon="16.78534">
        <ele>164.011</ele>
        <time>2018-10-05T21:50:32Z</time>
      </trkpt>
      <trkpt lat="43.4114" lon="16.78529">
        <ele>164.082</ele>
        <time>2018-10-05T21:50:52Z</time>
      </trkpt>
      <trkpt lat="43.41146" lon="16.7852">
        <ele>165.092</ele>
        <time>2018-10-05T21:51:12Z</time>
      </trkpt>
      <trkpt lat="43.41155" lon="16.78505">
        <ele>166.051</ele>
        <time>2018-10-05T21:51:32Z</time>
      </trkpt>
      <trkpt lat="43.41165" lon="16.78473">
        <ele>168.022</ele>
        <time>2018-10-05T21:51:52Z</time>
      </trkpt>
      <trkpt lat="43.41167" lon="16.78469">
        <ele>168.062</ele>
        <time>2018-10-05T21:52:12Z</time>
      </trkpt>
      <trkpt lat="43.41173" lon="16.7845">
        <ele>170.008</ele>
        <time>2018-10-05T21:52:32Z</time>
      </trkpt>
      <trkpt lat="43.41174" lon="16.78448">
        <ele>170.008</ele>
        <time>2018-10-05T21:52:52Z</time>
      </trkpt>
      <trkpt lat="43.41182" lon="16.78423">
        <ele>171.074</ele>
        <time>2018-10-05T21:53:12Z</time>
      </trkpt>
      <trkpt lat="43.41187" lon="16.78412">
        <ele>172.041</ele>
        <time>2018-10-05T21:53:32Z</time>
      </trkpt>
      <trkpt lat="43.41188" lon="16.78398">
        <ele>173.014</ele>
        <time>2018-10-05T21:53:52Z</time>
      </trkpt>
      <trkpt lat="43.41189" lon="16.78393">
        <ele>174.046</ele>
        <time>2018-10-05T21:54:12Z</time>
      </trkpt>
      <trkpt lat="43.41189" lon="16.78388">
        <ele>174.094</ele>
        <time>2018-10-05T21:54:32Z</time>
      </trkpt>
      <trkpt lat="43.41193" lon="16.78364">
        <ele>174.035</ele>
        <time>2018-10-05T21:54:52Z</time>
      </trkpt>
      <trkpt lat="43.41199" lon="16.78341">
        <ele>175.035</ele>
        <time>2018-10-05T21:55:12Z</time>
      </trkpt>
      <trkpt lat="43.41203" lon="16.78328">
        <ele>175.024</ele>
        <time>2018-10-05T21:55:32Z</time>
      </trkpt>
      <trkpt lat="43.41208" lon="16.7832">
        <ele>176.069</ele>
        <time>2018-10-05T21:55:52Z</time>
      </trkpt>
      <trkpt lat="43.4122" lon="16.78305">
        <ele>176.004</ele>
        <time>2018-10-05T21:56:12Z</time>
      </trkpt>
      <trkpt lat="43.41225" lon="16.78293">
        <ele>177.024</ele>
        <time>2018-10-05T21:56:32Z</time>
      </trkpt>
      <trkpt lat="43.41232" lon="16.78269">
        <ele>178.008</ele>
        <time>2018-10-05T21:56:52Z</time>
      </trkpt>
      <trkpt lat="43.4124" lon="16.78242">
        <ele>178.018</ele>
        <time>2018-10-05T21:57:12Z</time>
      </trkpt>
      <trkpt lat="43.41249" lon="16.78227">
        <ele>179.015</ele>
        <time>2018-10-05T21:57:32Z</time>
      </trkpt>
      <trkpt lat="43.4125" lon="16.78222">
        <ele>180.098</ele>
        <time>2018-10-05T21:57:52Z</time>
      </trkpt>
      <trkpt lat="43.41252" lon="16.78217">
        <ele>181.01</ele>
        <time>2018-10-05T21:58:12Z</time>
      </trkpt>
      <trkpt lat="43.41252" lon="16.78214">
        <ele>181.048</ele>
        <time>2018-10-05T21:58:32Z</time>
      </trkpt>
      <trkpt lat="43.41255" lon="16.78197">
        <ele>183.039</ele>
        <time>2018-10-05T21:58:52Z</time>
      </trkpt>
      <trkpt lat="43.41258" lon="16.78183">
        <ele>184.099</ele>
        <time>2018-10-05T21:59:12Z</time>
      </trkpt>
      <trkpt lat="43.41268" lon="16.78165">
        <ele>186.088</ele>
        <time>2018-10-05T21:59:32Z</time>
      </trkpt>
      <trkpt lat="43.41274" lon="16.78158">
        <ele>187.055</ele>
        <time>2018-10-05T21:59:52Z</time>
      </trkpt>
      <trkpt lat="43.41281" lon="16.78146">
        <ele>188.007</ele>
        <time>2018-10-05T22:00:12Z</time>
      </trkpt>
      <trkpt lat="43.41291" lon="16.78122">
        <ele>189.017</ele>
        <time>2018-10-05T22:00:32Z</time>
      </trkpt>
      <trkpt lat="43.41302" lon="16.78103">
        <ele>189.008</ele>
        <time>2018-10-05T22:00:52Z</time>
      </trkpt>
      <trkpt lat="43.41311" lon="16.78078">
        <ele>190.047</ele>
        <time>2018-10-05T22:01:12Z</time>
      </trkpt>
      <trkpt lat="43.41306" lon="16.78057">
        <ele>190.054</ele>
        <time>2018-10-05T22:01:32Z</time>
      </trkpt>
      <trkpt lat="43.41304" lon="16.78046">
        <ele>191.017</ele>
        <time>2018-10-05T22:01:52Z</time>
      </trkpt>
      <trkpt lat="43.41303" lon="16.78019">
        <ele>191.079</ele>
        <time>2018-10-05T22:02:12Z</time>
      </trkpt>
      <trkpt lat="43.41306" lon="16.78006">
        <ele>191.087</ele>
        <time>2018-10-05T22:02:32Z</time>
      </trkpt>
      <trkpt lat="43.41309" lon="16.77974">
        <ele>192.098</ele>
        <time>2018-10-05T22:02:52Z</time>
      </trkpt>
      <trkpt lat="43.41311" lon="16.77967">
        <ele>192.098</ele>
        <time>2018-10-05T22:03:12Z</time>
      </trkpt>
      <trkpt lat="43.41312" lon="16.77959">
        <ele>193.047</ele>
        <time>2018-10-05T22:03:32Z</time>
      </trkpt>
      <trkpt lat="43.41321" lon="16.77932">
        <ele>194.044</ele>
        <time>2018-10-05T22:03:52Z</time>
      </trkpt>
      <trkpt lat="43.41322" lon="16.77931">
        <ele>194.005</ele>
        <time>2018-10-05T22:04:12Z</time>
      </trkpt>
      <trkpt lat="43.41324" lon="16.7792">
        <ele>194.015</ele>
        <time>2018-10-05T22:04:32Z</time>
      </trkpt>
      <trkpt lat="43.41328" lon="16.77891">
        <ele>194.008</ele>
        <time>2018-10-05T22:04:52Z</time>
      </trkpt>
      <trkpt lat="43.41345" lon="16.77868">
        <ele>194.096</ele>
        <time>2018-10-05T22:05:12Z</time>
      </trkpt>
      <trkpt lat="43.41348" lon="16.77861">
        <ele>195.043</ele>
        <time>2018-10-05T22:05:32Z</time>
      </trkpt>
      <trkpt lat="43.41352" lon="16.77836">
        <ele>197.046</ele>
        <time>2018-10-05T22:05:52Z</time>
      </trkpt>
      <trkpt lat="43.41352" lon="16.7781">
        <ele>198.088</ele>
        <time>2018-10-05T22:06:12Z</time>
      </trkpt>
      <trkpt lat="43.41352" lon="16.77801">
        <ele>199.056</ele>
        <time>2018-10-05T22:06:32Z</time>
      </trkpt>
      <trkpt lat="43.4135" lon="16.77796">
        <ele>199.067</ele>
        <time>2018-10-05T22:06:52Z</time>
      </trkpt>
      <trkpt lat="43.41354" lon="16.77788">
        <ele>199.087</ele>
        <time>2018-10-05T22:07:12Z</time>
      </trkpt>
      <trkpt lat="43.41354" lon="16.77787">
        <ele>199.016</ele>
        <time>2018-10-05T22:07:32Z</time>
      </trkpt>
      <trkpt lat="43.41356" lon="16.77774">
        <ele>200.028</ele>
        <time>2018-10-05T22:07:52Z</time>
      </trkpt>
      <trkpt lat="43.41361" lon="16.77761">
        <ele>202.089</ele>
        <time>2018-10-05T22:08:12Z</time>
      </trkpt>
      <trkpt lat="43.41368" lon="16.77748">
        <ele>204.017</ele>
        <time>2018-10-05T22:08:32Z</time>
      </trkpt>
      <trkpt lat="43.41375" lon="16.77743">
        <ele>205.008</ele>
        <time>2018-10-05T22:08:52Z</time>
      </trkpt>
      <trkpt lat="43.4138" lon="16.77729">
        <ele>206.074</ele>
        <time>2018-10-05T22:09:12Z</time>
      </trkpt>
      <trkpt lat="43.41381" lon="16.77714">
        <ele>207.021</ele>
        <time>2018-10-05T22:09:32Z</time>
      </trkpt>
      <trkpt lat="43.41381" lon="16.77694">
        <ele>208.024</ele>
        <time>2018-10-05T22:09:52Z</time>
      </trkpt>
      <trkpt lat="43.41377" lon="16.77671">
        <ele>211.056</ele>
        <time>2018-10-05T22:10:12Z</time>
      </trkpt>
      <trkpt lat="43.41378" lon="16.77655">
        <ele>213.084</ele>
        <time>2018-10-05T22:10:32Z</time>
      </trkpt>
      <trkpt lat="43.41378" lon="16.77642">
        <ele>215.085</ele>
        <time>2018-10-05T22:10:52Z</time>
      </trkpt>
      <trkpt lat="43.41377" lon="16.77629">
        <ele>217.045</ele>
        <time>2018-10-05T22:11:12Z</time>
      </trkpt>
      <trkpt lat="43.41377" lon="16.77628">
        <ele>219.024</ele>
        <time>2018-10-05T22:11:32Z</time>
      </trkpt>
      <trkpt lat="43.41379" lon="16.77624">
        <ele>218.066</ele>
        <time>2018-10-05T22:11:52Z</time>
      </trkpt>
      <trkpt lat="43.41382" lon="16.77596">
        <ele>219.029</ele>
        <time>2018-10-05T22:12:12Z</time>
      </trkpt>
      <trkpt lat="43.41392" lon="16.77574">
        <ele>218.021</ele>
        <time>2018-10-05T22:12:32Z</time>
      </trkpt>
      <trkpt lat="43.41404" lon="16.77556">
        <ele>220.008</ele>
        <time>2018-10-05T22:12:52Z</time>
      </trkpt>
      <trkpt lat="43.41408" lon="16.77523">
        <ele>221.028</ele>
        <time>2018-10-05T22:13:12Z</time>
      </trkpt>
      <trkpt lat="43.41408" lon="16.77515">
        <ele>220.035</ele>
        <time>2018-10-05T22:13:32Z</time>
      </trkpt>
      <trkpt lat="43.41403" lon="16.77491">
        <ele>222.028</ele>
        <time>2018-10-05T22:13:52Z</time>
      </trkpt>
      <trkpt lat="43.41398" lon="16.77477">
        <ele>222.03</ele>
        <time>2018-10-05T22:14:12Z</time>
      </trkpt>
      <trkpt lat="43.41389" lon="16.77454">
        <ele>223.068</ele>
        <time>2018-10-05T22:14:32Z</time>
      </trkpt>
      <trkpt lat="43.41391" lon="16.77429">
        <ele>223.099</ele>
        <time>2018-10-05T22:14:52Z</time>
      </trkpt>
      <trkpt lat="43.41395" lon="16.77418">
        <ele>223.049</ele>
        <time>2018-10-05T22:15:12Z</time>
      </trkpt>
      <trkpt lat="43.41396" lon="16.77416">
        <ele>223.088</ele>
        <time>2018-10-05T22:15:32Z</time>
      </trkpt>
      <trkpt lat="43.41407" lon="16.77393">
        <ele>223.019</ele>
        <time>2018-10-05T22:15:52Z</time>
      </trkpt>
      <trkpt lat="43.41412" lon="16.7738">
        <ele>224.009</ele>
        <time>2018-10-05T22:16:12Z</time>
      </trkpt>
      <trkpt lat="43.41416" lon="16.77366">
        <ele>225.019</ele>
        <time>2018-10-05T22:16:32Z</time>
      </trkpt>
      <trkpt lat="43.41424" lon="16.77344">
        <ele>226.008</ele>
        <time>2018-10-05T22:16:52Z</time>
      </trkpt>
      <trkpt lat="43.41428" lon="16.77332">
        <ele>226.073</ele>
        <time>2018-10-05T22:17:12Z</time>
      </trkpt>
      <trkpt lat="43.41435" lon="16.77304">
        <ele>226.02</ele>
        <time>2018-10-05T22:17:32Z</time>
      </trkpt>
      <trkpt lat="43.41432" lon="16.77269">
        <ele>227.053</ele>
        <time>2018-10-05T22:17:52Z</time>
      </trkpt>
      <trkpt lat="43.41434" lon="16.77244">
        <ele>228.085</ele>
        <time>2018-10-05T22:18:12Z</time>
      </trkpt>
      <trkpt lat="43.41438" lon="16.77225">
        <ele>228.053</ele>
        <time>2018-10-05T22:18:32Z</time>
      </trkpt>
      <trkpt lat="43.41444" lon="16.772">
        <ele>229.034</ele>
        <time>2018-10-05T22:18:52Z</time>
      </trkpt>
      <trkpt lat="43.41456" lon="16.77174">
        <ele>230.034</ele>
        <time>2018-10-05T22:19:12Z</time>
      </trkpt>
      <trkpt lat="43.41464" lon="16.77166">
        <ele>233.063</ele>
        <time>2018-10-05T22:19:32Z</time>
      </trkpt>
      <trkpt lat="43.41467" lon="16.77155">
        <ele>235.094</ele>
        <time>2018-10-05T22:19:52Z</time>
      </trkpt>
      <trkpt lat="43.41464" lon="16.77143">
        <ele>236.057</ele>
        <time>2018-10-05T22:20:12Z</time>
      </trkpt>
      <trkpt lat="43.41464" lon="16.77116">
        <ele>238.022</ele>
        <time>2018-10-05T22:20:32Z</time>
      </trkpt>
      <trkpt lat="43.41464" lon="16.77112">
        <ele>238.008</ele>
        <time>2018-10-05T22:20:52Z</time>
      </trkpt>
      <trkpt lat="43.41475" lon="16.77053">
        <ele>249.041</ele>
        <time>2018-10-05T22:21:12Z</time>
      </trkpt>
      <trkpt lat="43.41477" lon="16.77046">
        <ele>250.028</ele>
        <time>2018-10-05T22:21:32Z</time>
      </trkpt>
      <trkpt lat="43.41477" lon="16.77043">
        <ele>251.011</ele>
        <time>2018-10-05T22:21:52Z</time>
      </trkpt>
      <trkpt lat="43.41485" lon="16.77027">
        <ele>252.073</ele>
        <time>2018-10-05T22:22:12Z</time>
      </trkpt>
      <trkpt lat="43.41489" lon="16.77022">
        <ele>252.051</ele>
        <time>2018-10-05T22:22:32Z</time>
      </trkpt>
      <trkpt lat="43.41493" lon="16.7701">
        <ele>255.052</ele>
        <time>2018-10-05T22:22:52Z</time>
      </trkpt>
      <trkpt lat="43.41493" lon="16.77002">
        <ele>256.032</ele>
        <time>2018-10-05T22:23:12Z</time>
      </trkpt>
      <trkpt lat="43.41496" lon="16.77001">
        <ele>257.021</ele>
        <time>2018-10-05T22:23:32Z</time>
      </trkpt>
      <trkpt lat="43.41499" lon="16.77003">
        <ele>258.069</ele>
        <time>2018-10-05T22:23:52Z</time>
      </trkpt>
      <trkpt lat="43.41504" lon="16.77008">
        <ele>260.004</ele>
        <time>2018-10-05T22:24:12Z</time>
      </trkpt>
      <trkpt lat="43.41508" lon="16.77011">
        <ele>261.024</ele>
        <time>2018-10-05T22:24:32Z</time>
      </trkpt>
      <trkpt lat="43.4151" lon="16.77013">
        <ele>262.008</ele>
        <time>2018-10-05T22:24:52Z</time>
      </trkpt>
      <trkpt lat="43.41519" lon="16.77018">
        <ele>264.048</ele>
        <time>2018-10-05T22:25:12Z</time>
      </trkpt>
      <trkpt lat="43.41523" lon="16.77019">
        <ele>265.025</ele>
        <time>2018-10-05T22:25:32Z</time>
      </trkpt>
      <trkpt lat="43.41524" lon="16.77019">
        <ele>266.048</ele>
        <time>2018-10-05T22:25:52Z</time>
      </trkpt>
      <trkpt lat="43.41527" lon="16.7702">
        <ele>267.09</ele>
        <time>2018-10-05T22:26:12Z</time>
      </trkpt>
      <trkpt lat="43.41529" lon="16.77019">
        <ele>268.038</ele>
        <time>2018-10-05T22:26:32Z</time>
      </trkpt>
      <trkpt lat="43.41531" lon="16.77017">
        <ele>268.099</ele>
        <time>2018-10-05T22:26:52Z</time>
      </trkpt>
      <trkpt lat="43.41532" lon="16.77017">
        <ele>269.069</ele>
        <time>2018-10-05T22:27:12Z</time>
      </trkpt>
      <trkpt lat="43.41533" lon="16.77012">
        <ele>270.048</ele>
        <time>2018-10-05T22:27:32Z</time>
      </trkpt>
      <trkpt lat="43.41533" lon="16.77011">
        <ele>270.085</ele>
        <time>2018-10-05T22:27:52Z</time>
      </trkpt>
      <trkpt lat="43.41533" lon="16.7701">
        <ele>270.089</ele>
        <time>2018-10-05T22:28:12Z</time>
      </trkpt>
      <trkpt lat="43.41538" lon="16.77003">
        <ele>271.017</ele>
        <time>2018-10-05T22:28:32Z</time>
      </trkpt>
      <trkpt lat="43.41539" lon="16.76998">
        <ele>271.008</ele>
        <time>2018-10-05T22:28:52Z</time>
      </trkpt>
      <trkpt lat="43.41541" lon="16.76991">
        <ele>271.04</ele>
        <time>2018-10-05T22:29:12Z</time>
      </trkpt>
      <trkpt lat="43.41544" lon="16.76982">
        <ele>271.017</ele>
        <time>2018-10-05T22:29:32Z</time>
      </trkpt>
      <trkpt lat="43.41552" lon="16.76974">
        <ele>271.04</ele>
        <time>2018-10-05T22:29:52Z</time>
      </trkpt>
      <trkpt lat="43.41553" lon="16.76965">
        <ele>271.082</ele>
        <time>2018-10-05T22:30:12Z</time>
      </trkpt>
      <trkpt lat="43.41548" lon="16.76965">
        <ele>270.09</ele>
        <time>2018-10-05T22:30:32Z</time>
      </trkpt>
      <trkpt lat="43.41547" lon="16.76957">
        <ele>270.011</ele>
        <time>2018-10-05T22:30:52Z</time>
      </trkpt>
      <trkpt lat="43.41554" lon="16.76941">
        <ele>271.061</ele>
        <time>2018-10-05T22:31:12Z</time>
      </trkpt>
      <trkpt lat="43.41556" lon="16.76939">
        <ele>271.04</ele>
        <time>2018-10-05T22:31:32Z</time>
      </trkpt>
      <trkpt lat="43.41562" lon="16.76914">
        <ele>272.074</ele>
        <time>2018-10-05T22:31:52Z</time>
      </trkpt>
      <trkpt lat="43.4157" lon="16.76897">
        <ele>271.056</ele>
        <time>2018-10-05T22:32:12Z</time>
      </trkpt>
      <trkpt lat="43.41573" lon="16.7689">
        <ele>293.021</ele>
        <time>2018-10-05T22:32:32Z</time>
      </trkpt>
      <trkpt lat="43.41576" lon="16.7689">
        <ele>295.008</ele>
        <time>2018-10-05T22:32:52Z</time>
      </trkpt>
      <trkpt lat="43.41581" lon="16.76888">
        <ele>296.019</ele>
        <time>2018-10-05T22:33:12Z</time>
      </trkpt>
      <trkpt lat="43.41584" lon="16.76884">
        <ele>297.096</ele>
        <time>2018-10-05T22:33:32Z</time>
      </trkpt>
      <trkpt lat="43.41585" lon="16.76882">
        <ele>297.029</ele>
        <time>2018-10-05T22:33:52Z</time>
      </trkpt>
      <trkpt lat="43.41587" lon="16.76881">
        <ele>298.021</ele>
        <time>2018-10-05T22:34:12Z</time>
      </trkpt>
      <trkpt lat="43.4159" lon="16.76876">
        <ele>299.039</ele>
        <time>2018-10-05T22:34:32Z</time>
      </trkpt>
      <trkpt lat="43.41591" lon="16.76876">
        <ele>299.05</ele>
        <time>2018-10-05T22:34:52Z</time>
      </trkpt>
      <trkpt lat="43.41592" lon="16.76876">
        <ele>299.03</ele>
        <time>2018-10-05T22:35:12Z</time>
      </trkpt>
      <trkpt lat="43.41592" lon="16.76875">
        <ele>300.059</ele>
        <time>2018-10-05T22:35:32Z</time>
      </trkpt>
      <trkpt lat="43.41594" lon="16.76875">
        <ele>301.068</ele>
        <time>2018-10-05T22:35:52Z</time>
      </trkpt>
      <trkpt lat="43.41598" lon="16.7687">
        <ele>302.042</ele>
        <time>2018-10-05T22:36:12Z</time>
      </trkpt>
      <trkpt lat="43.41602" lon="16.76864">
        <ele>304.026</ele>
        <time>2018-10-05T22:36:32Z</time>
      </trkpt>
      <trkpt lat="43.41605" lon="16.76862">
        <ele>305.008</ele>
        <time>2018-10-05T22:36:52Z</time>
      </trkpt>
      <trkpt lat="43.41608" lon="16.76861">
        <ele>305.028</ele>
        <time>2018-10-05T22:37:12Z</time>
      </trkpt>
      <trkpt lat="43.41611" lon="16.76858">
        <ele>307.095</ele>
        <time>2018-10-05T22:37:32Z</time>
      </trkpt>
      <trkpt lat="43.41616" lon="16.76847">
        <ele>308.078</ele>
        <time>2018-10-05T22:37:52Z</time>
      </trkpt>
      <trkpt lat="43.41617" lon="16.76832">
        <ele>310.06</ele>
        <time>2018-10-05T22:38:12Z</time>
      </trkpt>
      <trkpt lat="43.41618" lon="16.76817">
        <ele>311.028</ele>
        <time>2018-10-05T22:38:32Z</time>
      </trkpt>
      <trkpt lat="43.41627" lon="16.76805">
        <ele>314.029</ele>
        <time>2018-10-05T22:38:52Z</time>
      </trkpt>
      <trkpt lat="43.41627" lon="16.76804">
        <ele>314.059</ele>
        <time>2018-10-05T22:39:12Z</time>
      </trkpt>
      <trkpt lat="43.41633" lon="16.76798">
        <ele>316.038</ele>
        <time>2018-10-05T22:39:32Z</time>
      </trkpt>
      <trkpt lat="43.41638" lon="16.76794">
        <ele>317.038</ele>
        <time>2018-10-05T22:39:52Z</time>
      </trkpt>
      <trkpt lat="43.41641" lon="16.7679">
        <ele>318.07</ele>
        <time>2018-10-05T22:40:12Z</time>
      </trkpt>
      <trkpt lat="43.41645" lon="16.76785">
        <ele>319.017</ele>
        <time>2018-10-05T22:40:32Z</time>
      </trkpt>
      <trkpt lat="43.41648" lon="16.76784">
        <ele>320.008</ele>
        <time>2018-10-05T22:40:52Z</time>
      </trkpt>
      <trkpt lat="43.4165" lon="16.76783">
        <ele>321.015</ele>
        <time>2018-10-05T22:41:12Z</time>
      </trkpt>
      <trkpt lat="43.41651" lon="16.76782">
        <ele>321.072</ele>
        <time>2018-10-05T22:41:32Z</time>
      </trkpt>
      <trkpt lat="43.41652" lon="16.76781">
        <ele>322.065</ele>
        <time>2018-10-05T22:41:52Z</time>
      </trkpt>
      <trkpt lat="43.41653" lon="16.76778">
        <ele>323.027</ele>
        <time>2018-10-05T22:42:12Z</time>
      </trkpt>
      <trkpt lat="43.41655" lon="16.76773">
        <ele>324.085</ele>
        <time>2018-10-05T22:42:32Z</time>
      </trkpt>
      <trkpt lat="43.41661" lon="16.76766">
        <ele>326.046</ele>
        <time>2018-10-05T22:42:52Z</time>
      </trkpt>
      <trkpt lat="43.41664" lon="16.76758">
        <ele>327.056</ele>
        <time>2018-10-05T22:43:12Z</time>
      </trkpt>
      <trkpt lat="43.41665" lon="16.76754">
        <ele>327.015</ele>
        <time>2018-10-05T22:43:32Z</time>
      </trkpt>
      <trkpt lat="43.41666" lon="16.76747">
        <ele>328.085</ele>
        <time>2018-10-05T22:43:52Z</time>
      </trkpt>
      <trkpt lat="43.41667" lon="16.76745">
        <ele>329.089</ele>
        <time>2018-10-05T22:44:12Z</time>
      </trkpt>
      <trkpt lat="43.41668" lon="16.7674">
        <ele>330.017</ele>
        <time>2018-10-05T22:44:32Z</time>
      </trkpt>
      <trkpt lat="43.41669" lon="16.76739">
        <ele>330.008</ele>
        <time>2018-10-05T22:44:52Z</time>
      </trkpt>
      <trkpt lat="43.41671" lon="16.76738">
        <ele>331.02</ele>
        <time>2018-10-05T22:45:12Z</time>
      </trkpt>
      <trkpt lat="43.41677" lon="16.76731">
        <ele>332.027</ele>
        <time>2018-10-05T22:45:32Z</time>
      </trkpt>
      <trkpt lat="43.41683" lon="16.76716">
        <ele>333.07</ele>
        <time>2018-10-05T22:45:52Z</time>
      </trkpt>
      <trkpt lat="43.41685" lon="16.76698">
        <ele>334.012</ele>
        <time>2018-10-05T22:46:12Z</time>
      </trkpt>
      <trkpt lat="43.41685" lon="16.76695">
        <ele>334.02</ele>
        <time>2018-10-05T22:46:32Z</time>
      </trkpt>
      <trkpt lat="43.41684" lon="16.76691">
        <ele>335.081</ele>
        <time>2018-10-05T22:46:52Z</time>
      </trkpt>
      <trkpt lat="43.41686" lon="16.76686">
        <ele>335.011</ele>
        <time>2018-10-05T22:47:12Z</time>
      </trkpt>
      <trkpt lat="43.41683" lon="16.76676">
        <ele>336.03</ele>
        <time>2018-10-05T22:47:32Z</time>
      </trkpt>
      <trkpt lat="43.41677" lon="16.76666">
        <ele>337.092</ele>
        <time>2018-10-05T22:47:52Z</time>
      </trkpt>
      <trkpt lat="43.41675" lon="16.76653">
        <ele>338.073</ele>
        <time>2018-10-05T22:48:12Z</time>
      </trkpt>
      <trkpt lat="43.41677" lon="16.7664">
        <ele>339.02</ele>
        <time>2018-10-05T22:48:32Z</time>
      </trkpt>
      <trkpt lat="43.41678" lon="16.76628">
        <ele>341.008</ele>
        <time>2018-10-05T22:48:52Z</time>
      </trkpt>
      <trkpt lat="43.4168" lon="16.76619">
        <ele>342.081</ele>
        <time>2018-10-05T22:49:12Z</time>
      </trkpt>
      <trkpt lat="43.41674" lon="16.76603">
        <ele>344.058</ele>
        <time>2018-10-05T22:49:32Z</time>
      </trkpt>
      <trkpt lat="43.41671" lon="16.76592">
        <ele>345.071</ele>
        <time>2018-10-05T22:49:52Z</time>
      </trkpt>
      <trkpt lat="43.41669" lon="16.76589">
        <ele>345.023</ele>
        <time>2018-10-05T22:50:12Z</time>
      </trkpt>
      <trkpt lat="43.41663" lon="16.76578">
        <ele>346.021</ele>
        <time>2018-10-05T22:50:32Z</time>
      </trkpt>
      <trkpt lat="43.4166" lon="16.7656">
        <ele>347.072</ele>
        <time>2018-10-05T22:50:52Z</time>
      </trkpt>
      <trkpt lat="43.41656" lon="16.76547">
        <ele>348.062</ele>
        <time>2018-10-05T22:51:12Z</time>
      </trkpt>
      <trkpt lat="43.41655" lon="16.76536">
        <ele>349.021</ele>
        <time>2018-10-05T22:51:32Z</time>
      </trkpt>
      <trkpt lat="43.41651" lon="16.76521">
        <ele>350.046</ele>
        <time>2018-10-05T22:51:52Z</time>
      </trkpt>
      <trkpt lat="43.41651" lon="16.76518">
        <ele>351.088</ele>
        <time>2018-10-05T22:52:12Z</time>
      </trkpt>
      <trkpt lat="43.41653" lon="16.76515">
        <ele>351.016</ele>
        <time>2018-10-05T22:52:32Z</time>
      </trkpt>
      <trkpt lat="43.41655" lon="16.76515">
        <ele>351.008</ele>
        <time>2018-10-05T22:52:52Z</time>
      </trkpt>
      <trkpt lat="43.4166" lon="16.7652">
        <ele>353.026</ele>
        <time>2018-10-05T22:53:12Z</time>
      </trkpt>
      <trkpt lat="43.41665" lon="16.76524">
        <ele>354.073</ele>
        <time>2018-10-05T22:53:32Z</time>
      </trkpt>
      <trkpt lat="43.41673" lon="16.76531">
        <ele>355.086</ele>
        <time>2018-10-05T22:53:52Z</time>
      </trkpt>
      <trkpt lat="43.41681" lon="16.76539">
        <ele>356.058</ele>
        <time>2018-10-05T22:54:12Z</time>
      </trkpt>
      <trkpt lat="43.41688" lon="16.7655">
        <ele>358.066</ele>
        <time>2018-10-05T22:54:32Z</time>
      </trkpt>
      <trkpt lat="43.41698" lon="16.76563">
        <ele>360.047</ele>
        <time>2018-10-05T22:54:52Z</time>
      </trkpt>
      <trkpt lat="43.41703" lon="16.76564">
        <ele>361.067</ele>
        <time>2018-10-05T22:55:12Z</time>
      </trkpt>
      <trkpt lat="43.41704" lon="16.76559">
        <ele>362.026</ele>
        <time>2018-10-05T22:55:32Z</time>
      </trkpt>
      <trkpt lat="43.41704" lon="16.76558">
        <ele>362.089</ele>
        <time>2018-10-05T22:55:52Z</time>
      </trkpt>
      <trkpt lat="43.41697" lon="16.76545">
        <ele>364.006</ele>
        <time>2018-10-05T22:56:12Z</time>
      </trkpt>
      <trkpt lat="43.41695" lon="16.7654">
        <ele>365.026</ele>
        <time>2018-10-05T22:56:32Z</time>
      </trkpt>
      <trkpt lat="43.4169" lon="16.76531">
        <ele>366.008</ele>
        <time>2018-10-05T22:56:52Z</time>
      </trkpt>
      <trkpt lat="43.41685" lon="16.76519">
        <ele>367.07</ele>
        <time>2018-10-05T22:57:12Z</time>
      </trkpt>
      <trkpt lat="43.41681" lon="16.76512">
        <ele>368.017</ele>
        <time>2018-10-05T22:57:32Z</time>
      </trkpt>
      <trkpt lat="43.41677" lon="16.76502">
        <ele>369.09</ele>
        <time>2018-10-05T22:57:52Z</time>
      </trkpt>
      <trkpt lat="43.41675" lon="16.76495">
        <ele>370.032</ele>
        <time>2018-10-05T22:58:12Z</time>
      </trkpt>
      <trkpt lat="43.41676" lon="16.76489">
        <ele>371.06</ele>
        <time>2018-10-05T22:58:32Z</time>
      </trkpt>
      <trkpt lat="43.41675" lon="16.76486">
        <ele>371.041</ele>
        <time>2018-10-05T22:58:52Z</time>
      </trkpt>
      <trkpt lat="43.4167" lon="16.76468">
        <ele>372.091</ele>
        <time>2018-10-05T22:59:12Z</time>
      </trkpt>
      <trkpt lat="43.41668" lon="16.76457">
        <ele>373.01</ele>
        <time>2018-10-05T22:59:32Z</time>
      </trkpt>
      <trkpt lat="43.41662" lon="16.76431">
        <ele>375.031</ele>
        <time>2018-10-05T22:59:52Z</time>
      </trkpt>
      <trkpt lat="43.4166" lon="16.76423">
        <ele>375.061</ele>
        <time>2018-10-05T23:00:12Z</time>
      </trkpt>
      <trkpt lat="43.41655" lon="16.76415">
        <ele>376.007</ele>
        <time>2018-10-05T23:00:32Z</time>
      </trkpt>
      <trkpt lat="43.41646" lon="16.76412">
        <ele>374.008</ele>
        <time>2018-10-05T23:00:52Z</time>
      </trkpt>
      <trkpt lat="43.41636" lon="16.7641">
        <ele>372.045</ele>
        <time>2018-10-05T23:01:12Z</time>
      </trkpt>
      <trkpt lat="43.41634" lon="16.7641">
        <ele>372.022</ele>
        <time>2018-10-05T23:01:32Z</time>
      </trkpt>
      <trkpt lat="43.41628" lon="16.76404">
        <ele>371.075</ele>
        <time>2018-10-05T23:01:52Z</time>
      </trkpt>
      <trkpt lat="43.41619" lon="16.7638">
        <ele>369.067</ele>
        <time>2018-10-05T23:02:12Z</time>
      </trkpt>
      <trkpt lat="43.41618" lon="16.76376">
        <ele>369.015</ele>
        <time>2018-10-05T23:02:32Z</time>
      </trkpt>
      <trkpt lat="43.4161" lon="16.76348">
        <ele>369.066</ele>
        <time>2018-10-05T23:02:52Z</time>
      </trkpt>
      <trkpt lat="43.41611" lon="16.7634">
        <ele>369.086</ele>
        <time>2018-10-05T23:03:12Z</time>
      </trkpt>
      <trkpt lat="43.4161" lon="16.7631">
        <ele>369.075</ele>
        <time>2018-10-05T23:03:32Z</time>
      </trkpt>
      <trkpt lat="43.41609" lon="16.76302">
        <ele>368.039</ele>
        <time>2018-10-05T23:03:52Z</time>
      </trkpt>
      <trkpt lat="43.41607" lon="16.76292">
        <ele>366.001</ele>
        <time>2018-10-05T23:04:12Z</time>
      </trkpt>
      <trkpt lat="43.41606" lon="16.76286">
        <ele>366.021</ele>
        <time>2018-10-05T23:04:32Z</time>
      </trkpt>
      <trkpt lat="43.41604" lon="16.76286">
        <ele>365.008</ele>
        <time>2018-10-05T23:04:52Z</time>
      </trkpt>
      <trkpt lat="43.41602" lon="16.76274">
        <ele>362.095</ele>
        <time>2018-10-05T23:05:12Z</time>
      </trkpt>
      <trkpt lat="43.41601" lon="16.76261">
        <ele>360.032</ele>
        <time>2018-10-05T23:05:32Z</time>
      </trkpt>
      <trkpt lat="43.41599" lon="16.76248">
        <ele>358.045</ele>
        <time>2018-10-05T23:05:52Z</time>
      </trkpt>
      <trkpt lat="43.41597" lon="16.76235">
        <ele>356.067</ele>
        <time>2018-10-05T23:06:12Z</time>
      </trkpt>
      <trkpt lat="43.41596" lon="16.76217">
        <ele>353.095</ele>
        <time>2018-10-05T23:06:32Z</time>
      </trkpt>
      <trkpt lat="43.41594" lon="16.762">
        <ele>351.076</ele>
        <time>2018-10-05T23:06:52Z</time>
      </trkpt>
      <trkpt lat="43.41592" lon="16.76188">
        <ele>349.036</ele>
        <time>2018-10-05T23:07:12Z</time>
      </trkpt>
      <trkpt lat="43.41588" lon="16.76171">
        <ele>348.045</ele>
        <time>2018-10-05T23:07:32Z</time>
      </trkpt>
      <trkpt lat="43.41581" lon="16.76146">
        <ele>347.061</ele>
        <time>2018-10-05T23:07:52Z</time>
      </trkpt>
      <trkpt lat="43.41575" lon="16.76122">
        <ele>346.021</ele>
        <time>2018-10-05T23:08:12Z</time>
      </trkpt>
      <trkpt lat="43.41572" lon="16.76096">
        <ele>346.013</ele>
        <time>2018-10-05T23:08:32Z</time>
      </trkpt>
      <trkpt lat="43.41572" lon="16.76082">
        <ele>346.008</ele>
        <time>2018-10-05T23:08:52Z</time>
      </trkpt>
      <trkpt lat="43.41571" lon="16.76065">
        <ele>344.018</ele>
        <time>2018-10-05T23:09:12Z</time>
      </trkpt>
      <trkpt lat="43.41567" lon="16.7605">
        <ele>343.035</ele>
        <time>2018-10-05T23:09:32Z</time>
      </trkpt>
      <trkpt lat="43.41565" lon="16.76035">
        <ele>342.018</ele>
        <time>2018-10-05T23:09:52Z</time>
      </trkpt>
      <trkpt lat="43.41564" lon="16.76017">
        <ele>341.04</ele>
        <time>2018-10-05T23:10:12Z</time>
      </trkpt>
      <trkpt lat="43.41564" lon="16.75995">
        <ele>339.038</ele>
        <time>2018-10-05T23:10:32Z</time>
      </trkpt>
      <trkpt lat="43.41565" lon="16.75978">
        <ele>336.079</ele>
        <time>2018-10-05T23:10:52Z</time>
      </trkpt>
      <trkpt lat="43.41566" lon="16.75963">
        <ele>333.029</ele>
        <time>2018-10-05T23:11:12Z</time>
      </trkpt>
      <trkpt lat="43.41566" lon="16.75954">
        <ele>332.048</ele>
        <time>2018-10-05T23:11:32Z</time>
      </trkpt>
      <trkpt lat="43.41563" lon="16.75937">
        <ele>330.098</ele>
        <time>2018-10-05T23:11:52Z</time>
      </trkpt>
      <trkpt lat="43.4156" lon="16.75929">
        <ele>329.015</ele>
        <time>2018-10-05T23:12:12Z</time>
      </trkpt>
      <trkpt lat="43.41557" lon="16.75923">
        <ele>328.026</ele>
        <time>2018-10-05T23:12:32Z</time>
      </trkpt>
      <trkpt lat="43.41557" lon="16.75919">
        <ele>327.008</ele>
        <time>2018-10-05T23:12:52Z</time>
      </trkpt>
      <trkpt lat="43.4156" lon="16.75906">
        <ele>326.031</ele>
        <time>2018-10-05T23:13:12Z</time>
      </trkpt>
      <trkpt lat="43.41562" lon="16.75897">
        <ele>325.078</ele>
        <time>2018-10-05T23:13:32Z</time>
      </trkpt>
      <trkpt lat="43.41558" lon="16.75885">
        <ele>323.031</ele>
        <time>2018-10-05T23:13:52Z</time>
      </trkpt>
      <trkpt lat="43.41555" lon="16.7587">
        <ele>320.093</ele>
        <time>2018-10-05T23:14:12Z</time>
      </trkpt>
      <trkpt lat="43.41551" lon="16.75848">
        <ele>318.061</ele>
        <time>2018-10-05T23:14:32Z</time>
      </trkpt>
      <trkpt lat="43.41554" lon="16.75829">
        <ele>316.012</ele>
        <time>2018-10-05T23:14:52Z</time>
      </trkpt>
      <trkpt lat="43.41555" lon="16.75816">
        <ele>314.032</ele>
        <time>2018-10-05T23:15:12Z</time>
      </trkpt>
      <trkpt lat="43.41554" lon="16.75802">
        <ele>311.071</ele>
        <time>2018-10-05T23:15:32Z</time>
      </trkpt>
      <trkpt lat="43.41552" lon="16.75792">
        <ele>310.081</ele>
        <time>2018-10-05T23:15:52Z</time>
      </trkpt>
      <trkpt lat="43.41548" lon="16.75772">
        <ele>308.061</ele>
        <time>2018-10-05T23:16:12Z</time>
      </trkpt>
      <trkpt lat="43.41543" lon="16.75755">
        <ele>306.017</ele>
        <time>2018-10-05T23:16:32Z</time>
      </trkpt>
      <trkpt lat="43.41542" lon="16.75735">
        <ele>305.008</ele>
        <time>2018-10-05T23:16:52Z</time>
      </trkpt>
      <trkpt lat="43.41547" lon="16.75716">
        <ele>304.01</ele>
        <time>2018-10-05T23:17:12Z</time>
      </trkpt>
      <trkpt lat="43.41548" lon="16.75689">
        <ele>303.037</ele>
        <time>2018-10-05T23:17:32Z</time>
      </trkpt>
      <trkpt lat="43.4155" lon="16.75656">
        <ele>303.06</ele>
        <time>2018-10-05T23:17:52Z</time>
      </trkpt>
      <trkpt lat="43.41555" lon="16.75629">
        <ele>303.082</ele>
        <time>2018-10-05T23:18:12Z</time>
      </trkpt>
      <trkpt lat="43.41555" lon="16.756">
        <ele>304.09</ele>
        <time>2018-10-05T23:18:32Z</time>
      </trkpt>
      <trkpt lat="43.41556" lon="16.75595">
        <ele>305.021</ele>
        <time>2018-10-05T23:18:52Z</time>
      </trkpt>
      <trkpt lat="43.41556" lon="16.75583">
        <ele>307.041</ele>
        <time>2018-10-05T23:19:12Z</time>
      </trkpt>
      <trkpt lat="43.41555" lon="16.75576">
        <ele>308.02</ele>
        <time>2018-10-05T23:19:32Z</time>
      </trkpt>
      <trkpt lat="43.41555" lon="16.75568">
        <ele>309.056</ele>
        <time>2018-10-05T23:19:52Z</time>
      </trkpt>
      <trkpt lat="43.41557" lon="16.75561">
        <ele>310.059</ele>
        <time>2018-10-05T23:20:12Z</time>
      </trkpt>
      <trkpt lat="43.41558" lon="16.75559">
        <ele>311.014</ele>
        <time>2018-10-05T23:20:32Z</time>
      </trkpt>
      <trkpt lat="43.41562" lon="16.75548">
        <ele>313.008</ele>
        <time>2018-10-05T23:20:52Z</time>
      </trkpt>
      <trkpt lat="43.41563" lon="16.75547">
        <ele>313.097</ele>
        <time>2018-10-05T23:21:12Z</time>
      </trkpt>
      <trkpt lat="43.41567" lon="16.75536">
        <ele>314.064</ele>
        <time>2018-10-05T23:21:32Z</time>
      </trkpt>
      <trkpt lat="43.41576" lon="16.75515">
        <ele>314.047</ele>
        <time>2018-10-05T23:21:52Z</time>
      </trkpt>
      <trkpt lat="43.41579" lon="16.75488">
        <ele>314.099</ele>
        <time>2018-10-05T23:22:12Z</time>
      </trkpt>
      <trkpt lat="43.41583" lon="16.7546">
        <ele>315.017</ele>
        <time>2018-10-05T23:22:32Z</time>
      </trkpt>
      <trkpt lat="43.4159" lon="16.75445">
        <ele>314.098</ele>
        <time>2018-10-05T23:22:52Z</time>
      </trkpt>
      <trkpt lat="43.41598" lon="16.75428">
        <ele>312.058</ele>
        <time>2018-10-05T23:23:12Z</time>
      </trkpt>
      <trkpt lat="43.41604" lon="16.75417">
        <ele>311.037</ele>
        <time>2018-10-05T23:23:32Z</time>
      </trkpt>
      <trkpt lat="43.41611" lon="16.75402">
        <ele>309.093</ele>
        <time>2018-10-05T23:23:52Z</time>
      </trkpt>
      <trkpt lat="43.41619" lon="16.75379">
        <ele>309.065</ele>
        <time>2018-10-05T23:24:12Z</time>
      </trkpt>
      <trkpt lat="43.41626" lon="16.75353">
        <ele>309.021</ele>
        <time>2018-10-05T23:24:32Z</time>
      </trkpt>
      <trkpt lat="43.41635" lon="16.75322">
        <ele>311.008</ele>
        <time>2018-10-05T23:24:52Z</time>
      </trkpt>
      <trkpt lat="43.41633" lon="16.75307">
        <ele>312.041</ele>
        <time>2018-10-05T23:25:12Z</time>
      </trkpt>
      <trkpt lat="43.41631" lon="16.75291">
        <ele>313.078</ele>
        <time>2018-10-05T23:25:32Z</time>
      </trkpt>
      <trkpt lat="43.41628" lon="16.75283">
        <ele>314.051</ele>
        <time>2018-10-05T23:25:52Z</time>
      </trkpt>
      <trkpt lat="43.41629" lon="16.75275">
        <ele>315.023</ele>
        <time>2018-10-05T23:26:12Z</time>
      </trkpt>
      <trkpt lat="43.4163" lon="16.75267">
        <ele>316.011</ele>
        <time>2018-10-05T23:26:32Z</time>
      </trkpt>
      <trkpt lat="43.41629" lon="16.7526">
        <ele>316.052</ele>
        <time>2018-10-05T23:26:52Z</time>
      </trkpt>
      <trkpt lat="43.41623" lon="16.75243">
        <ele>317.012</ele>
        <time>2018-10-05T23:27:12Z</time>
      </trkpt>
      <trkpt lat="43.41619" lon="16.75228">
        <ele>319.081</ele>
        <time>2018-10-05T23:27:32Z</time>
      </trkpt>
      <trkpt lat="43.41622" lon="16.75205">
        <ele>320.028</ele>
        <time>2018-10-05T23:27:52Z</time>
      </trkpt>
      <trkpt lat="43.41625" lon="16.75195">
        <ele>319.089</ele>
        <time>2018-10-05T23:28:12Z</time>
      </trkpt>
      <trkpt lat="43.41627" lon="16.75193">
        <ele>321.017</ele>
        <time>2018-10-05T23:28:32Z</time>
      </trkpt>
      <trkpt lat="43.41627" lon="16.75187">
        <ele>322.008</ele>
        <time>2018-10-05T23:28:52Z</time>
      </trkpt>
      <trkpt lat="43.41623" lon="16.75162">
        <ele>322.014</ele>
        <time>2018-10-05T23:29:12Z</time>
      </trkpt>
      <trkpt lat="43.41618" lon="16.75136">
        <ele>322.051</ele>
        <time>2018-10-05T23:29:32Z</time>
      </trkpt>
      <trkpt lat="43.41617" lon="16.75108">
        <ele>321.074</ele>
        <time>2018-10-05T23:29:52Z</time>
      </trkpt>
      <trkpt lat="43.41613" lon="16.75084">
        <ele>321.086</ele>
        <time>2018-10-05T23:30:12Z</time>
      </trkpt>
      <trkpt lat="43.41609" lon="16.75048">
        <ele>321.074</ele>
        <time>2018-10-05T23:30:32Z</time>
      </trkpt>
      <trkpt lat="43.41609" lon="16.75023">
        <ele>320.095</ele>
        <time>2018-10-05T23:30:52Z</time>
      </trkpt>
      <trkpt lat="43.41609" lon="16.74997">
        <ele>320.025</ele>
        <time>2018-10-05T23:31:12Z</time>
      </trkpt>
      <trkpt lat="43.4161" lon="16.7497">
        <ele>320.054</ele>
        <time>2018-10-05T23:31:32Z</time>
      </trkpt>
      <trkpt lat="43.41612" lon="16.74945">
        <ele>320.068</ele>
        <time>2018-10-05T23:31:52Z</time>
      </trkpt>
      <trkpt lat="43.41614" lon="16.74921">
        <ele>320.042</ele>
        <time>2018-10-05T23:32:12Z</time>
      </trkpt>
      <trkpt lat="43.41615" lon="16.74906">
        <ele>319.026</ele>
        <time>2018-10-05T23:32:32Z</time>
      </trkpt>
      <trkpt lat="43.41619" lon="16.74896">
        <ele>317.008</ele>
        <time>2018-10-05T23:32:52Z</time>
      </trkpt>
      <trkpt lat="43.41622" lon="16.7489">
        <ele>316.068</ele>
        <time>2018-10-05T23:33:12Z</time>
      </trkpt>
      <trkpt lat="43.41627" lon="16.7488">
        <ele>315.015</ele>
        <time>2018-10-05T23:33:32Z</time>
      </trkpt>
      <trkpt lat="43.41631" lon="16.74869">
        <ele>314.038</ele>
        <time>2018-10-05T23:33:52Z</time>
      </trkpt>
      <trkpt lat="43.41633" lon="16.74856">
        <ele>312.03</ele>
        <time>2018-10-05T23:34:12Z</time>
      </trkpt>
      <trkpt lat="43.41633" lon="16.74837">
        <ele>311.048</ele>
        <time>2018-10-05T23:34:32Z</time>
      </trkpt>
      <trkpt lat="43.41633" lon="16.7481">
        <ele>310.079</ele>
        <time>2018-10-05T23:34:52Z</time>
      </trkpt>
      <trkpt lat="43.4163" lon="16.74793">
        <ele>309.069</ele>
        <time>2018-10-05T23:35:12Z</time>
      </trkpt>
      <trkpt lat="43.4163" lon="16.74779">
        <ele>308.078</ele>
        <time>2018-10-05T23:35:32Z</time>
      </trkpt>
      <trkpt lat="43.41637" lon="16.74761">
        <ele>309.088</ele>
        <time>2018-10-05T23:35:52Z</time>
      </trkpt>
      <trkpt lat="43.41642" lon="16.74748">
        <ele>310.024</ele>
        <time>2018-10-05T23:36:12Z</time>
      </trkpt>
      <trkpt lat="43.4165" lon="16.74723">
        <ele>310.026</ele>
        <time>2018-10-05T23:36:32Z</time>
      </trkpt>
      <trkpt lat="43.41654" lon="16.74714">
        <ele>311.008</ele>
        <time>2018-10-05T23:36:52Z</time>
      </trkpt>
      <trkpt lat="43.41657" lon="16.7468">
        <ele>310.09</ele>
        <time>2018-10-05T23:37:12Z</time>
      </trkpt>
      <trkpt lat="43.41663" lon="16.74655">
        <ele>309.027</ele>
        <time>2018-10-05T23:37:32Z</time>
      </trkpt>
      <trkpt lat="43.4167" lon="16.74622">
        <ele>306.02</ele>
        <time>2018-10-05T23:37:52Z</time>
      </trkpt>
      <trkpt lat="43.41674" lon="16.74602">
        <ele>304.042</ele>
        <time>2018-10-05T23:38:12Z</time>
      </trkpt>
      <trkpt lat="43.41676" lon="16.74595">
        <ele>303.01</ele>
        <time>2018-10-05T23:38:32Z</time>
      </trkpt>
      <trkpt lat="43.41679" lon="16.74584">
        <ele>301.061</ele>
        <time>2018-10-05T23:38:52Z</time>
      </trkpt>
      <trkpt lat="43.4168" lon="16.7457">
        <ele>300.041</ele>
        <time>2018-10-05T23:39:12Z</time>
      </trkpt>
      <trkpt lat="43.41682" lon="16.74551">
        <ele>299.02</ele>
        <time>2018-10-05T23:39:32Z</time>
      </trkpt>
      <trkpt lat="43.41683" lon="16.74523">
        <ele>299.076</ele>
        <time>2018-10-05T23:39:52Z</time>
      </trkpt>
      <trkpt lat="43.41688" lon="16.74491">
        <ele>300.09</ele>
        <time>2018-10-05T23:40:12Z</time>
      </trkpt>
      <trkpt lat="43.41688" lon="16.74466">
        <ele>300.019</ele>
        <time>2018-10-05T23:40:32Z</time>
      </trkpt>
      <trkpt lat="43.41686" lon="16.74441">
        <ele>300.008</ele>
        <time>2018-10-05T23:40:52Z</time>
      </trkpt>
      <trkpt lat="43.41684" lon="16.74422">
        <ele>299.069</ele>
        <time>2018-10-05T23:41:12Z</time>
      </trkpt>
      <trkpt lat="43.41684" lon="16.74395">
        <ele>296.066</ele>
        <time>2018-10-05T23:41:32Z</time>
      </trkpt>
      <trkpt lat="43.41686" lon="16.74378">
        <ele>295.089</ele>
        <time>2018-10-05T23:41:52Z</time>
      </trkpt>
      <trkpt lat="43.41685" lon="16.7435">
        <ele>294.021</ele>
        <time>2018-10-05T23:42:12Z</time>
      </trkpt>
      <trkpt lat="43.41686" lon="16.74335">
        <ele>294.089</ele>
        <time>2018-10-05T23:42:32Z</time>
      </trkpt>
      <trkpt lat="43.41688" lon="16.7432">
        <ele>293.01</ele>
        <time>2018-10-05T23:42:52Z</time>
      </trkpt>
      <trkpt lat="43.41688" lon="16.74308">
        <ele>292.01</ele>
        <time>2018-10-05T23:43:12Z</time>
      </trkpt>
      <trkpt lat="43.4169" lon="16.74296">
        <ele>290.039</ele>
        <time>2018-10-05T23:43:32Z</time>
      </trkpt>
      <trkpt lat="43.41692" lon="16.74284">
        <ele>289.014</ele>
        <time>2018-10-05T23:43:52Z</time>
      </trkpt>
      <trkpt lat="43.41695" lon="16.74273">
        <ele>288.054</ele>
        <time>2018-10-05T23:44:12Z</time>
      </trkpt>
      <trkpt lat="43.417" lon="16.74258">
        <ele>287.009</ele>
        <time>2018-10-05T23:44:32Z</time>
      </trkpt>
      <trkpt lat="43.41703" lon="16.74237">
        <ele>284.008</ele>
        <time>2018-10-05T23:44:52Z</time>
      </trkpt>
      <trkpt lat="43.41703" lon="16.74218">
        <ele>281.023</ele>
        <time>2018-10-05T23:45:12Z</time>
      </trkpt>
      <trkpt lat="43.41704" lon="16.74209">
        <ele>280.06</ele>
        <time>2018-10-05T23:45:32Z</time>
      </trkpt>
      <trkpt lat="43.41706" lon="16.74183">
        <ele>280.033</ele>
        <time>2018-10-05T23:45:52Z</time>
      </trkpt>
      <trkpt lat="43.41711" lon="16.74157">
        <ele>280.095</ele>
        <time>2018-10-05T23:46:12Z</time>
      </trkpt>
      <trkpt lat="43.41712" lon="16.74138">
        <ele>281.083</ele>
        <time>2018-10-05T23:46:32Z</time>
      </trkpt>
      <trkpt lat="43.41715" lon="16.74114">
        <ele>282.064</ele>
        <time>2018-10-05T23:46:52Z</time>
      </trkpt>
      <trkpt lat="43.4172" lon="16.74086">
        <ele>281.094</ele>
        <time>2018-10-05T23:47:12Z</time>
      </trkpt>
      <trkpt lat="43.41727" lon="16.74062">
        <ele>281.033</ele>
        <time>2018-10-05T23:47:32Z</time>
      </trkpt>
      <trkpt lat="43.41735" lon="16.74037">
        <ele>281.083</ele>
        <time>2018-10-05T23:47:52Z</time>
      </trkpt>
      <trkpt lat="43.41741" lon="16.74023">
        <ele>280.025</ele>
        <time>2018-10-05T23:48:12Z</time>
      </trkpt>
      <trkpt lat="43.41743" lon="16.74003">
        <ele>279.017</ele>
        <time>2018-10-05T23:48:32Z</time>
      </trkpt>
      <trkpt lat="43.41745" lon="16.7399">
        <ele>278.008</ele>
        <time>2018-10-05T23:48:52Z</time>
      </trkpt>
      <trkpt lat="43.41748" lon="16.73969">
        <ele>277.04</ele>
        <time>2018-10-05T23:49:12Z</time>
      </trkpt>
      <trkpt lat="43.41751" lon="16.73948">
        <ele>276.017</ele>
        <time>2018-10-05T23:49:32Z</time>
      </trkpt>
      <trkpt lat="43.41753" lon="16.73923">
        <ele>276.08</ele>
        <time>2018-10-05T23:49:52Z</time>
      </trkpt>
      <trkpt lat="43.41752" lon="16.73913">
        <ele>276.022</ele>
        <time>2018-10-05T23:50:12Z</time>
      </trkpt>
      <trkpt lat="43.41751" lon="16.73893">
        <ele>277.04</ele>
        <time>2018-10-05T23:50:32Z</time>
      </trkpt>
      <trkpt lat="43.41748" lon="16.73867">
        <ele>277.041</ele>
        <time>2018-10-05T23:50:52Z</time>
      </trkpt>
      <trkpt lat="43.41747" lon="16.73841">
        <ele>276.071</ele>
        <time>2018-10-05T23:51:12Z</time>
      </trkpt>
      <trkpt lat="43.41748" lon="16.7383">
        <ele>275.05</ele>
        <time>2018-10-05T23:51:32Z</time>
      </trkpt>
      <trkpt lat="43.41748" lon="16.73808">
        <ele>274.057</ele>
        <time>2018-10-05T23:51:52Z</time>
      </trkpt>
      <trkpt lat="43.41747" lon="16.73789">
        <ele>274</ele>
        <time>2018-10-05T23:52:12Z</time>
      </trkpt>
      <trkpt lat="43.41746" lon="16.73769">
        <ele>273.02</ele>
        <time>2018-10-05T23:52:32Z</time>
      </trkpt>
      <trkpt lat="43.41749" lon="16.7375">
        <ele>273.008</ele>
        <time>2018-10-05T23:52:52Z</time>
      </trkpt>
      <trkpt lat="43.41754" lon="16.73726">
        <ele>273.057</ele>
        <time>2018-10-05T23:53:12Z</time>
      </trkpt>
      <trkpt lat="43.41755" lon="16.73699">
        <ele>273.054</ele>
        <time>2018-10-05T23:53:32Z</time>
      </trkpt>
      <trkpt lat="43.41759" lon="16.73667">
        <ele>272.097</ele>
        <time>2018-10-05T23:53:52Z</time>
      </trkpt>
      <trkpt lat="43.41771" lon="16.73637">
        <ele>271.049</ele>
        <time>2018-10-05T23:54:12Z</time>
      </trkpt>
      <trkpt lat="43.41778" lon="16.73614">
        <ele>271.047</ele>
        <time>2018-10-05T23:54:32Z</time>
      </trkpt>
      <trkpt lat="43.41784" lon="16.7359">
        <ele>271.018</ele>
        <time>2018-10-05T23:54:52Z</time>
      </trkpt>
      <trkpt lat="43.41794" lon="16.7357">
        <ele>271.068</ele>
        <time>2018-10-05T23:55:12Z</time>
      </trkpt>
      <trkpt lat="43.41804" lon="16.73556">
        <ele>270.037</ele>
        <time>2018-10-05T23:55:32Z</time>
      </trkpt>
      <trkpt lat="43.41816" lon="16.7354">
        <ele>269.073</ele>
        <time>2018-10-05T23:55:52Z</time>
      </trkpt>
      <trkpt lat="43.4183" lon="16.7352">
        <ele>268.085</ele>
        <time>2018-10-05T23:56:12Z</time>
      </trkpt>
      <trkpt lat="43.41842" lon="16.73491">
        <ele>266.013</ele>
        <time>2018-10-05T23:56:32Z</time>
      </trkpt>
      <trkpt lat="43.41841" lon="16.73469">
        <ele>265.008</ele>
        <time>2018-10-05T23:56:52Z</time>
      </trkpt>
      <trkpt lat="43.41839" lon="16.73453">
        <ele>264.079</ele>
        <time>2018-10-05T23:57:12Z</time>
      </trkpt>
      <trkpt lat="43.41839" lon="16.73427">
        <ele>264.036</ele>
        <time>2018-10-05T23:57:32Z</time>
      </trkpt>
      <trkpt lat="43.4184" lon="16.73411">
        <ele>263.099</ele>
        <time>2018-10-05T23:57:52Z</time>
      </trkpt>
      <trkpt lat="43.41847" lon="16.73385">
        <ele>263.081</ele>
        <time>2018-10-05T23:58:12Z</time>
      </trkpt>
      <trkpt lat="43.41856" lon="16.73377">
        <ele>262.079</ele>
        <time>2018-10-05T23:58:32Z</time>
      </trkpt>
      <trkpt lat="43.41869" lon="16.73362">
        <ele>261.04</ele>
        <time>2018-10-05T23:58:52Z</time>
      </trkpt>
      <trkpt lat="43.41876" lon="16.73336">
        <ele>261.04</ele>
        <time>2018-10-05T23:59:12Z</time>
      </trkpt>
      <trkpt lat="43.4188" lon="16.73311">
        <ele>261.039</ele>
        <time>2018-10-05T23:59:32Z</time>
      </trkpt>
      <trkpt lat="43.41886" lon="16.73287">
        <ele>261.072</ele>
        <time>2018-10-05T23:59:52Z</time>
      </trkpt>
      <trkpt lat="43.41891" lon="16.73268">
        <ele>260.013</ele>
        <time>2018-10-06T00:00:12Z</time>
      </trkpt>
      <trkpt lat="43.41899" lon="16.73248">
        <ele>259.014</ele>
        <time>2018-10-06T00:00:32Z</time>
      </trkpt>
      <trkpt lat="43.41907" lon="16.73232">
        <ele>258.008</ele>
        <time>2018-10-06T00:00:52Z</time>
      </trkpt>
      <trkpt lat="43.41913" lon="16.73207">
        <ele>257.019</ele>
        <time>2018-10-06T00:01:12Z</time>
      </trkpt>
      <trkpt lat="43.41918" lon="16.73183">
        <ele>258.056</ele>
        <time>2018-10-06T00:01:32Z</time>
      </trkpt>
      <trkpt lat="43.41921" lon="16.73172">
        <ele>258.049</ele>
        <time>2018-10-06T00:01:52Z</time>
      </trkpt>
      <trkpt lat="43.41934" lon="16.73152">
        <ele>259.011</ele>
        <time>2018-10-06T00:02:12Z</time>
      </trkpt>
      <trkpt lat="43.41939" lon="16.73127">
        <ele>259.069</ele>
        <time>2018-10-06T00:02:32Z</time>
      </trkpt>
      <trkpt lat="43.41941" lon="16.73098">
        <ele>260.08</ele>
        <time>2018-10-06T00:02:52Z</time>
      </trkpt>
      <trkpt lat="43.41945" lon="16.73077">
        <ele>261.08</ele>
        <time>2018-10-06T00:03:12Z</time>
      </trkpt>
      <trkpt lat="43.41946" lon="16.73065">
        <ele>261.089</ele>
        <time>2018-10-06T00:03:32Z</time>
      </trkpt>
      <trkpt lat="43.41946" lon="16.73038">
        <ele>260.015</ele>
        <time>2018-10-06T00:03:52Z</time>
      </trkpt>
      <trkpt lat="43.41939" lon="16.73022">
        <ele>257.065</ele>
        <time>2018-10-06T00:04:12Z</time>
      </trkpt>
      <trkpt lat="43.41932" lon="16.73006">
        <ele>254.011</ele>
        <time>2018-10-06T00:04:32Z</time>
      </trkpt>
      <trkpt lat="43.41932" lon="16.72982">
        <ele>253.008</ele>
        <time>2018-10-06T00:04:52Z</time>
      </trkpt>
      <trkpt lat="43.41936" lon="16.72968">
        <ele>252.083</ele>
        <time>2018-10-06T00:05:12Z</time>
      </trkpt>
      <trkpt lat="43.41942" lon="16.72955">
        <ele>251.08</ele>
        <time>2018-10-06T00:05:32Z</time>
      </trkpt>
      <trkpt lat="43.41947" lon="16.72942">
        <ele>250.033</ele>
        <time>2018-10-06T00:05:52Z</time>
      </trkpt>
      <trkpt lat="43.41953" lon="16.72933">
        <ele>249.035</ele>
        <time>2018-10-06T00:06:12Z</time>
      </trkpt>
      <trkpt lat="43.4196" lon="16.72927">
        <ele>248.093</ele>
        <time>2018-10-06T00:06:32Z</time>
      </trkpt>
      <trkpt lat="43.41966" lon="16.7292">
        <ele>246.014</ele>
        <time>2018-10-06T00:06:52Z</time>
      </trkpt>
      <trkpt lat="43.41974" lon="16.72914">
        <ele>245.064</ele>
        <time>2018-10-06T00:07:12Z</time>
      </trkpt>
      <trkpt lat="43.41981" lon="16.72907">
        <ele>244.083</ele>
        <time>2018-10-06T00:07:32Z</time>
      </trkpt>
      <trkpt lat="43.41989" lon="16.72893">
        <ele>243.096</ele>
        <time>2018-10-06T00:07:52Z</time>
      </trkpt>
      <trkpt lat="43.41998" lon="16.72875">
        <ele>242.031</ele>
        <time>2018-10-06T00:08:12Z</time>
      </trkpt>
      <trkpt lat="43.42002" lon="16.72853">
        <ele>241.024</ele>
        <time>2018-10-06T00:08:32Z</time>
      </trkpt>
      <trkpt lat="43.42008" lon="16.72826">
        <ele>240.008</ele>
        <time>2018-10-06T00:08:52Z</time>
      </trkpt>
      <trkpt lat="43.4202" lon="16.72802">
        <ele>240.021</ele>
        <time>2018-10-06T00:09:12Z</time>
      </trkpt>
      <trkpt lat="43.42028" lon="16.72777">
        <ele>240.038</ele>
        <time>2018-10-06T00:09:32Z</time>
      </trkpt>
      <trkpt lat="43.42029" lon="16.72766">
        <ele>239.041</ele>
        <time>2018-10-06T00:09:52Z</time>
      </trkpt>
      <trkpt lat="43.42028" lon="16.72745">
        <ele>238.053</ele>
        <time>2018-10-06T00:10:12Z</time>
      </trkpt>
      <trkpt lat="43.42029" lon="16.72732">
        <ele>237.041</ele>
        <time>2018-10-06T00:10:32Z</time>
      </trkpt>
      <trkpt lat="43.4203" lon="16.7272">
        <ele>236.072</ele>
        <time>2018-10-06T00:10:52Z</time>
      </trkpt>
      <trkpt lat="43.42031" lon="16.72704">
        <ele>235.062</ele>
        <time>2018-10-06T00:11:12Z</time>
      </trkpt>
      <trkpt lat="43.4203" lon="16.72691">
        <ele>234.031</ele>
        <time>2018-10-06T00:11:32Z</time>
      </trkpt>
      <trkpt lat="43.42027" lon="16.72664">
        <ele>233.026</ele>
        <time>2018-10-06T00:11:52Z</time>
      </trkpt>
      <trkpt lat="43.42037" lon="16.72637">
        <ele>231.047</ele>
        <time>2018-10-06T00:12:12Z</time>
      </trkpt>
      <trkpt lat="43.42044" lon="16.72631">
        <ele>230.011</ele>
        <time>2018-10-06T00:12:32Z</time>
      </trkpt>
      <trkpt lat="43.42051" lon="16.72624">
        <ele>228.008</ele>
        <time>2018-10-06T00:12:52Z</time>
      </trkpt>
      <trkpt lat="43.4206" lon="16.72614">
        <ele>227.054</ele>
        <time>2018-10-06T00:13:12Z</time>
      </trkpt>
      <trkpt lat="43.42073" lon="16.72593">
        <ele>227.061</ele>
        <time>2018-10-06T00:13:32Z</time>
      </trkpt>
      <trkpt lat="43.42085" lon="16.7257">
        <ele>227.014</ele>
        <time>2018-10-06T00:13:52Z</time>
      </trkpt>
      <trkpt lat="43.42092" lon="16.72551">
        <ele>226.076</ele>
        <time>2018-10-06T00:14:12Z</time>
      </trkpt>
      <trkpt lat="43.42095" lon="16.72525">
        <ele>226.064</ele>
        <time>2018-10-06T00:14:32Z</time>
      </trkpt>
      <trkpt lat="43.42094" lon="16.7251">
        <ele>225.065</ele>
        <time>2018-10-06T00:14:52Z</time>
      </trkpt>
      <trkpt lat="43.42092" lon="16.72487">
        <ele>224.075</ele>
        <time>2018-10-06T00:15:12Z</time>
      </trkpt>
      <trkpt lat="43.42096" lon="16.72468">
        <ele>223.094</ele>
        <time>2018-10-06T00:15:32Z</time>
      </trkpt>
      <trkpt lat="43.42103" lon="16.72455">
        <ele>222.087</ele>
        <time>2018-10-06T00:15:52Z</time>
      </trkpt>
      <trkpt lat="43.42121" lon="16.72432">
        <ele>221.042</ele>
        <time>2018-10-06T00:16:12Z</time>
      </trkpt>
      <trkpt lat="43.42126" lon="16.72399">
        <ele>219.026</ele>
        <time>2018-10-06T00:16:32Z</time>
      </trkpt>
      <trkpt lat="43.42127" lon="16.72379">
        <ele>218.008</ele>
        <time>2018-10-06T00:16:52Z</time>
      </trkpt>
      <trkpt lat="43.42128" lon="16.72359">
        <ele>217.06</ele>
        <time>2018-10-06T00:17:12Z</time>
      </trkpt>
      <trkpt lat="43.4213" lon="16.72344">
        <ele>216.047</ele>
        <time>2018-10-06T00:17:32Z</time>
      </trkpt>
      <trkpt lat="43.42134" lon="16.7233">
        <ele>215.03</ele>
        <time>2018-10-06T00:17:52Z</time>
      </trkpt>
      <trkpt lat="43.42136" lon="16.72317">
        <ele>214.092</ele>
        <time>2018-10-06T00:18:12Z</time>
      </trkpt>
      <trkpt lat="43.42139" lon="16.72302">
        <ele>212.04</ele>
        <time>2018-10-06T00:18:32Z</time>
      </trkpt>
      <trkpt lat="43.42139" lon="16.72289">
        <ele>211.031</ele>
        <time>2018-10-06T00:18:52Z</time>
      </trkpt>
      <trkpt lat="43.42141" lon="16.72274">
        <ele>210.081</ele>
        <time>2018-10-06T00:19:12Z</time>
      </trkpt>
      <trkpt lat="43.42141" lon="16.72266">
        <ele>209.06</ele>
        <time>2018-10-06T00:19:32Z</time>
      </trkpt>
      <trkpt lat="43.42141" lon="16.72254">
        <ele>208.047</ele>
        <time>2018-10-06T00:19:52Z</time>
      </trkpt>
      <trkpt lat="43.42141" lon="16.72242">
        <ele>207.029</ele>
        <time>2018-10-06T00:20:12Z</time>
      </trkpt>
      <trkpt lat="43.42142" lon="16.72227">
        <ele>206.021</ele>
        <time>2018-10-06T00:20:32Z</time>
      </trkpt>
      <trkpt lat="43.42143" lon="16.72223">
        <ele>205.008</ele>
        <time>2018-10-06T00:20:52Z</time>
      </trkpt>
      <trkpt lat="43.4216" lon="16.72212">
        <ele>205.096</ele>
        <time>2018-10-06T00:21:12Z</time>
      </trkpt>
      <trkpt lat="43.42176" lon="16.72198">
        <ele>205.013</ele>
        <time>2018-10-06T00:21:32Z</time>
      </trkpt>
      <trkpt lat="43.42191" lon="16.72179">
        <ele>205.036</ele>
        <time>2018-10-06T00:21:52Z</time>
      </trkpt>
      <trkpt lat="43.42202" lon="16.72165">
        <ele>205.038</ele>
        <time>2018-10-06T00:22:12Z</time>
      </trkpt>
      <trkpt lat="43.42217" lon="16.72145">
        <ele>204.076</ele>
        <time>2018-10-06T00:22:32Z</time>
      </trkpt>
      <trkpt lat="43.42229" lon="16.72124">
        <ele>204.017</ele>
        <time>2018-10-06T00:22:52Z</time>
      </trkpt>
      <trkpt lat="43.4224" lon="16.72103">
        <ele>204.017</ele>
        <time>2018-10-06T00:23:12Z</time>
      </trkpt>
      <trkpt lat="43.42247" lon="16.7208">
        <ele>204.086</ele>
        <time>2018-10-06T00:23:32Z</time>
      </trkpt>
      <trkpt lat="43.42251" lon="16.72052">
        <ele>204.011</ele>
        <time>2018-10-06T00:23:52Z</time>
      </trkpt>
      <trkpt lat="43.42251" lon="16.72039">
        <ele>203.021</ele>
        <time>2018-10-06T00:24:12Z</time>
      </trkpt>
      <trkpt lat="43.42249" lon="16.72022">
        <ele>202.003</ele>
        <time>2018-10-06T00:24:32Z</time>
      </trkpt>
      <trkpt lat="43.4225" lon="16.71996">
        <ele>200.008</ele>
        <time>2018-10-06T00:24:52Z</time>
      </trkpt>
      <trkpt lat="43.42257" lon="16.71972">
        <ele>199.033</ele>
        <time>2018-10-06T00:25:12Z</time>
      </trkpt>
      <trkpt lat="43.42272" lon="16.71958">
        <ele>198.04</ele>
        <time>2018-10-06T00:25:32Z</time>
      </trkpt>
      <trkpt lat="43.4228" lon="16.71953">
        <ele>198.073</ele>
        <time>2018-10-06T00:25:52Z</time>
      </trkpt>
      <trkpt lat="43.42293" lon="16.71932">
        <ele>197.065</ele>
        <time>2018-10-06T00:26:12Z</time>
      </trkpt>
      <trkpt lat="43.42304" lon="16.71908">
        <ele>195.093</ele>
        <time>2018-10-06T00:26:32Z</time>
      </trkpt>
      <trkpt lat="43.42313" lon="16.71885">
        <ele>195.034</ele>
        <time>2018-10-06T00:26:52Z</time>
      </trkpt>
      <trkpt lat="43.42321" lon="16.71875">
        <ele>194.044</ele>
        <time>2018-10-06T00:27:12Z</time>
      </trkpt>
      <trkpt lat="43.4234" lon="16.71868">
        <ele>194.053</ele>
        <time>2018-10-06T00:27:32Z</time>
      </trkpt>
      <trkpt lat="43.42358" lon="16.71872">
        <ele>195.063</ele>
        <time>2018-10-06T00:27:52Z</time>
      </trkpt>
      <trkpt lat="43.4236" lon="16.71874">
        <ele>195.044</ele>
        <time>2018-10-06T00:28:12Z</time>
      </trkpt>
      <trkpt lat="43.42379" lon="16.71874">
        <ele>196.018</ele>
        <time>2018-10-06T00:28:32Z</time>
      </trkpt>
      <trkpt lat="43.42388" lon="16.71874">
        <ele>196.008</ele>
        <time>2018-10-06T00:28:52Z</time>
      </trkpt>
      <trkpt lat="43.42402" lon="16.71875">
        <ele>197.088</ele>
        <time>2018-10-06T00:29:12Z</time>
      </trkpt>
      <trkpt lat="43.42408" lon="16.71874">
        <ele>198.025</ele>
        <time>2018-10-06T00:29:32Z</time>
      </trkpt>
      <trkpt lat="43.42425" lon="16.71864">
        <ele>198.088</ele>
        <time>2018-10-06T00:29:52Z</time>
      </trkpt>
      <trkpt lat="43.42435" lon="16.71841">
        <ele>197.02</ele>
        <time>2018-10-06T00:30:12Z</time>
      </trkpt>
      <trkpt lat="43.42439" lon="16.71834">
        <ele>197.048</ele>
        <time>2018-10-06T00:30:32Z</time>
      </trkpt>
      <trkpt lat="43.42443" lon="16.71834">
        <ele>197.039</ele>
        <time>2018-10-06T00:30:52Z</time>
      </trkpt>
      <trkpt lat="43.42442" lon="16.71841">
        <ele>198.049</ele>
        <time>2018-10-06T00:31:12Z</time>
      </trkpt>
      <trkpt lat="43.42436" lon="16.71855">
        <ele>199.018</ele>
        <time>2018-10-06T00:31:32Z</time>
      </trkpt>
      <trkpt lat="43.42437" lon="16.7186">
        <ele>200.089</ele>
        <time>2018-10-06T00:31:52Z</time>
      </trkpt>
      <trkpt lat="43.42438" lon="16.71862">
        <ele>200.006</ele>
        <time>2018-10-06T00:32:12Z</time>
      </trkpt>
      <trkpt lat="43.42452" lon="16.71851">
        <ele>202.026</ele>
        <time>2018-10-06T00:32:32Z</time>
      </trkpt>
      <trkpt lat="43.42456" lon="16.71849">
        <ele>203.008</ele>
        <time>2018-10-06T00:32:52Z</time>
      </trkpt>
      <trkpt lat="43.4246" lon="16.71846">
        <ele>204.01</ele>
        <time>2018-10-06T00:33:12Z</time>
      </trkpt>
      <trkpt lat="43.42462" lon="16.71844">
        <ele>204.067</ele>
        <time>2018-10-06T00:33:32Z</time>
      </trkpt>
      <trkpt lat="43.42464" lon="16.71843">
        <ele>204.02</ele>
        <time>2018-10-06T00:33:52Z</time>
      </trkpt>
      <trkpt lat="43.42473" lon="16.71841">
        <ele>205.072</ele>
        <time>2018-10-06T00:34:12Z</time>
      </trkpt>
      <trkpt lat="43.42474" lon="16.71839">
        <ele>205.04</ele>
        <time>2018-10-06T00:34:32Z</time>
      </trkpt>
      <trkpt lat="43.42484" lon="16.71833">
        <ele>206.031</ele>
        <time>2018-10-06T00:34:52Z</time>
      </trkpt>
      <trkpt lat="43.42486" lon="16.71831">
        <ele>207.081</ele>
        <time>2018-10-06T00:35:12Z</time>
      </trkpt>
      <trkpt lat="43.4249" lon="16.71831">
        <ele>207.01</ele>
        <time>2018-10-06T00:35:32Z</time>
      </trkpt>
      <trkpt lat="43.42493" lon="16.71828">
        <ele>208.099</ele>
        <time>2018-10-06T00:35:52Z</time>
      </trkpt>
      <trkpt lat="43.42501" lon="16.71822">
        <ele>209.007</ele>
        <time>2018-10-06T00:36:12Z</time>
      </trkpt>
      <trkpt lat="43.42504" lon="16.71819">
        <ele>210.027</ele>
        <time>2018-10-06T00:36:32Z</time>
      </trkpt>
      <trkpt lat="43.42509" lon="16.71813">
        <ele>211.008</ele>
        <time>2018-10-06T00:36:52Z</time>
      </trkpt>
      <trkpt lat="43.42515" lon="16.71803">
        <ele>212.041</ele>
        <time>2018-10-06T00:37:12Z</time>
      </trkpt>
      <trkpt lat="43.42524" lon="16.71789">
        <ele>214.048</ele>
        <time>2018-10-06T00:37:32Z</time>
      </trkpt>
      <trkpt lat="43.42528" lon="16.71783">
        <ele>214.071</ele>
        <time>2018-10-06T00:37:52Z</time>
      </trkpt>
      <trkpt lat="43.42533" lon="16.71772">
        <ele>216.013</ele>
        <time>2018-10-06T00:38:12Z</time>
      </trkpt>
      <trkpt lat="43.42536" lon="16.71769">
        <ele>217.051</ele>
        <time>2018-10-06T00:38:32Z</time>
      </trkpt>
      <trkpt lat="43.42541" lon="16.71763">
        <ele>217.062</ele>
        <time>2018-10-06T00:38:52Z</time>
      </trkpt>
      <trkpt lat="43.4255" lon="16.71755">
        <ele>218.072</ele>
        <time>2018-10-06T00:39:12Z</time>
      </trkpt>
      <trkpt lat="43.42551" lon="16.71754">
        <ele>219.061</ele>
        <time>2018-10-06T00:39:32Z</time>
      </trkpt>
      <trkpt lat="43.42558" lon="16.71751">
        <ele>220.091</ele>
        <time>2018-10-06T00:39:52Z</time>
      </trkpt>
      <trkpt lat="43.4257" lon="16.71738">
        <ele>221.081</ele>
        <time>2018-10-06T00:40:12Z</time>
      </trkpt>
      <trkpt lat="43.42581" lon="16.7173">
        <ele>223.019</ele>
        <time>2018-10-06T00:40:32Z</time>
      </trkpt>
      <trkpt lat="43.42586" lon="16.71725">
        <ele>224.008</ele>
        <time>2018-10-06T00:40:52Z</time>
      </trkpt>
      <trkpt lat="43.4259" lon="16.71722">
        <ele>224.071</ele>
        <time>2018-10-06T00:41:12Z</time>
      </trkpt>
      <trkpt lat="43.42602" lon="16.71718">
        <ele>225.018</ele>
        <time>2018-10-06T00:41:32Z</time>
      </trkpt>
      <trkpt lat="43.42605" lon="16.71717">
        <ele>225.021</ele>
        <time>2018-10-06T00:41:52Z</time>
      </trkpt>
      <trkpt lat="43.42612" lon="16.71712">
        <ele>226.093</ele>
        <time>2018-10-06T00:42:12Z</time>
      </trkpt>
      <trkpt lat="43.42621" lon="16.71701">
        <ele>227.091</ele>
        <time>2018-10-06T00:42:32Z</time>
      </trkpt>
      <trkpt lat="43.4263" lon="16.7169">
        <ele>229.062</ele>
        <time>2018-10-06T00:42:52Z</time>
      </trkpt>
      <trkpt lat="43.42637" lon="16.71682">
        <ele>229.052</ele>
        <time>2018-10-06T00:43:12Z</time>
      </trkpt>
      <trkpt lat="43.42644" lon="16.71674">
        <ele>230.041</ele>
        <time>2018-10-06T00:43:32Z</time>
      </trkpt>
      <trkpt lat="43.42649" lon="16.71673">
        <ele>230.091</ele>
        <time>2018-10-06T00:43:52Z</time>
      </trkpt>
      <trkpt lat="43.42654" lon="16.7167">
        <ele>231.081</ele>
        <time>2018-10-06T00:44:12Z</time>
      </trkpt>
      <trkpt lat="43.42667" lon="16.71659">
        <ele>233.019</ele>
        <time>2018-10-06T00:44:32Z</time>
      </trkpt>
      <trkpt lat="43.42669" lon="16.71656">
        <ele>233.008</ele>
        <time>2018-10-06T00:44:52Z</time>
      </trkpt>
      <trkpt lat="43.42672" lon="16.71651">
        <ele>234.051</ele>
        <time>2018-10-06T00:45:12Z</time>
      </trkpt>
      <trkpt lat="43.42679" lon="16.71644">
        <ele>234.078</ele>
        <time>2018-10-06T00:45:32Z</time>
      </trkpt>
      <trkpt lat="43.42689" lon="16.7164">
        <ele>236.031</ele>
        <time>2018-10-06T00:45:52Z</time>
      </trkpt>
      <trkpt lat="43.42706" lon="16.71631">
        <ele>236.093</ele>
        <time>2018-10-06T00:46:12Z</time>
      </trkpt>
      <trkpt lat="43.4272" lon="16.71613">
        <ele>236.071</ele>
        <time>2018-10-06T00:46:32Z</time>
      </trkpt>
      <trkpt lat="43.42726" lon="16.71604">
        <ele>237.062</ele>
        <time>2018-10-06T00:46:52Z</time>
      </trkpt>
      <trkpt lat="43.4273" lon="16.71602">
        <ele>237.042</ele>
        <time>2018-10-06T00:47:12Z</time>
      </trkpt>
      <trkpt lat="43.42734" lon="16.71598">
        <ele>238.051</ele>
        <time>2018-10-06T00:47:32Z</time>
      </trkpt>
      <trkpt lat="43.42743" lon="16.71584">
        <ele>239.059</ele>
        <time>2018-10-06T00:47:52Z</time>
      </trkpt>
      <trkpt lat="43.42751" lon="16.71576">
        <ele>240.003</ele>
        <time>2018-10-06T00:48:12Z</time>
      </trkpt>
      <trkpt lat="43.42757" lon="16.71569">
        <ele>240.023</ele>
        <time>2018-10-06T00:48:32Z</time>
      </trkpt>
      <trkpt lat="43.42763" lon="16.71559">
        <ele>240.008</ele>
        <time>2018-10-06T00:48:52Z</time>
      </trkpt>
      <trkpt lat="43.42773" lon="16.71547">
        <ele>241.097</ele>
        <time>2018-10-06T00:49:12Z</time>
      </trkpt>
      <trkpt lat="43.42775" lon="16.71546">
        <ele>241.014</ele>
        <time>2018-10-06T00:49:32Z</time>
      </trkpt>
      <trkpt lat="43.42782" lon="16.71536">
        <ele>240.077</ele>
        <time>2018-10-06T00:49:52Z</time>
      </trkpt>
      <trkpt lat="43.42786" lon="16.71533">
        <ele>239.059</ele>
        <time>2018-10-06T00:50:12Z</time>
      </trkpt>
      <trkpt lat="43.42789" lon="16.71531">
        <ele>239.077</ele>
        <time>2018-10-06T00:50:32Z</time>
      </trkpt>
      <trkpt lat="43.42791" lon="16.71528">
        <ele>239.038</ele>
        <time>2018-10-06T00:50:52Z</time>
      </trkpt>
      <trkpt lat="43.42794" lon="16.71527">
        <ele>239.078</ele>
        <time>2018-10-06T00:51:12Z</time>
      </trkpt>
      <trkpt lat="43.42799" lon="16.71519">
        <ele>240.077</ele>
        <time>2018-10-06T00:51:32Z</time>
      </trkpt>
      <trkpt lat="43.42814" lon="16.71508">
        <ele>241.063</ele>
        <time>2018-10-06T00:51:52Z</time>
      </trkpt>
      <trkpt lat="43.42816" lon="16.71508">
        <ele>241.044</ele>
        <time>2018-10-06T00:52:12Z</time>
      </trkpt>
      <trkpt lat="43.42833" lon="16.71493">
        <ele>241.018</ele>
        <time>2018-10-06T00:52:32Z</time>
      </trkpt>
      <trkpt lat="43.42844" lon="16.71483">
        <ele>240.008</ele>
        <time>2018-10-06T00:52:52Z</time>
      </trkpt>
      <trkpt lat="43.42855" lon="16.71472">
        <ele>241.048</ele>
        <time>2018-10-06T00:53:12Z</time>
      </trkpt>
      <trkpt lat="43.4286" lon="16.71468">
        <ele>241.095</ele>
        <time>2018-10-06T00:53:32Z</time>
      </trkpt>
      <trkpt lat="43.42864" lon="16.71467">
        <ele>242.048</ele>
        <time>2018-10-06T00:53:52Z</time>
      </trkpt>
      <trkpt lat="43.42866" lon="16.71467">
        <ele>242.03</ele>
        <time>2018-10-06T00:54:12Z</time>
      </trkpt>
      <trkpt lat="43.42873" lon="16.71463">
        <ele>244.038</ele>
        <time>2018-10-06T00:54:32Z</time>
      </trkpt>
      <trkpt lat="43.42876" lon="16.71459">
        <ele>245.069</ele>
        <time>2018-10-06T00:54:52Z</time>
      </trkpt>
      <trkpt lat="43.42881" lon="16.71458">
        <ele>247.099</ele>
        <time>2018-10-06T00:55:12Z</time>
      </trkpt>
      <trkpt lat="43.42885" lon="16.71453">
        <ele>247.018</ele>
        <time>2018-10-06T00:55:32Z</time>
      </trkpt>
      <trkpt lat="43.42887" lon="16.71445">
        <ele>246.025</ele>
        <time>2018-10-06T00:55:52Z</time>
      </trkpt>
      <trkpt lat="43.4289" lon="16.71442">
        <ele>246.026</ele>
        <time>2018-10-06T00:56:12Z</time>
      </trkpt>
      <trkpt lat="43.42895" lon="16.71432">
        <ele>244.008</ele>
        <time>2018-10-06T00:56:32Z</time>
      </trkpt>
      <trkpt lat="43.42899" lon="16.71428">
        <ele>244.008</ele>
        <time>2018-10-06T00:56:52Z</time>
      </trkpt>
      <trkpt lat="43.42901" lon="16.71422">
        <ele>244.034</ele>
        <time>2018-10-06T00:57:12Z</time>
      </trkpt>
      <trkpt lat="43.42907" lon="16.71413">
        <ele>242.041</ele>
        <time>2018-10-06T00:57:32Z</time>
      </trkpt>
      <trkpt lat="43.42907" lon="16.71412">
        <ele>242.034</ele>
        <time>2018-10-06T00:57:52Z</time>
      </trkpt>
      <trkpt lat="43.42913" lon="16.714">
        <ele>240.066</ele>
        <time>2018-10-06T00:58:12Z</time>
      </trkpt>
      <trkpt lat="43.4292" lon="16.71392">
        <ele>239.084</ele>
        <time>2018-10-06T00:58:32Z</time>
      </trkpt>
      <trkpt lat="43.42927" lon="16.71386">
        <ele>238.015</ele>
        <time>2018-10-06T00:58:52Z</time>
      </trkpt>
      <trkpt lat="43.4293" lon="16.71378">
        <ele>237.095</ele>
        <time>2018-10-06T00:59:12Z</time>
      </trkpt>
      <trkpt lat="43.42932" lon="16.71372">
        <ele>235.084</ele>
        <time>2018-10-06T00:59:32Z</time>
      </trkpt>
      <trkpt lat="43.42935" lon="16.71362">
        <ele>234.043</ele>
        <time>2018-10-06T00:59:52Z</time>
      </trkpt>
      <trkpt lat="43.42942" lon="16.71356">
        <ele>233.064</ele>
        <time>2018-10-06T01:00:12Z</time>
      </trkpt>
      <trkpt lat="43.42947" lon="16.71347">
        <ele>232.01</ele>
        <time>2018-10-06T01:00:32Z</time>
      </trkpt>
      <trkpt lat="43.42967" lon="16.71328">
        <ele>231.008</ele>
        <time>2018-10-06T01:00:52Z</time>
      </trkpt>
      <trkpt lat="43.4297" lon="16.71326">
        <ele>231.086</ele>
        <time>2018-10-06T01:01:12Z</time>
      </trkpt>
      <trkpt lat="43.42989" lon="16.71309">
        <ele>232.033</ele>
        <time>2018-10-06T01:01:32Z</time>
      </trkpt>
      <trkpt lat="43.42998" lon="16.71303">
        <ele>231.096</ele>
        <time>2018-10-06T01:01:52Z</time>
      </trkpt>
      <trkpt lat="43.43007" lon="16.71292">
        <ele>230.098</ele>
        <time>2018-10-06T01:02:12Z</time>
      </trkpt>
      <trkpt lat="43.43016" lon="16.71284">
        <ele>230.046</ele>
        <time>2018-10-06T01:02:32Z</time>
      </trkpt>
      <trkpt lat="43.4303" lon="16.71269">
        <ele>229.087</ele>
        <time>2018-10-06T01:02:52Z</time>
      </trkpt>
      <trkpt lat="43.4304" lon="16.7126">
        <ele>228.087</ele>
        <time>2018-10-06T01:03:12Z</time>
      </trkpt>
      <trkpt lat="43.43044" lon="16.71254">
        <ele>226.056</ele>
        <time>2018-10-06T01:03:32Z</time>
      </trkpt>
      <trkpt lat="43.43048" lon="16.71252">
        <ele>225.098</ele>
        <time>2018-10-06T01:03:52Z</time>
      </trkpt>
      <trkpt lat="43.43055" lon="16.71248">
        <ele>224.015</ele>
        <time>2018-10-06T01:04:12Z</time>
      </trkpt>
      <trkpt lat="43.43062" lon="16.71243">
        <ele>222.026</ele>
        <time>2018-10-06T01:04:32Z</time>
      </trkpt>
      <trkpt lat="43.43071" lon="16.71234">
        <ele>221.008</ele>
        <time>2018-10-06T01:04:52Z</time>
      </trkpt>
      <trkpt lat="43.43073" lon="16.71232">
        <ele>221.071</ele>
        <time>2018-10-06T01:05:12Z</time>
      </trkpt>
      <trkpt lat="43.43081" lon="16.71227">
        <ele>220.038</ele>
        <time>2018-10-06T01:05:32Z</time>
      </trkpt>
      <trkpt lat="43.43098" lon="16.71216">
        <ele>220.051</ele>
        <time>2018-10-06T01:05:52Z</time>
      </trkpt>
      <trkpt lat="43.431" lon="16.71215">
        <ele>220.023</ele>
        <time>2018-10-06T01:06:12Z</time>
      </trkpt>
      <trkpt lat="43.43116" lon="16.71211">
        <ele>221.011</ele>
        <time>2018-10-06T01:06:32Z</time>
      </trkpt>
      <trkpt lat="43.43119" lon="16.71211">
        <ele>221.032</ele>
        <time>2018-10-06T01:06:52Z</time>
      </trkpt>
      <trkpt lat="43.4312" lon="16.7121">
        <ele>221.092</ele>
        <time>2018-10-06T01:07:12Z</time>
      </trkpt>
      <trkpt lat="43.43123" lon="16.71211">
        <ele>222.081</ele>
        <time>2018-10-06T01:07:32Z</time>
      </trkpt>
      <trkpt lat="43.43124" lon="16.71211">
        <ele>222.099</ele>
        <time>2018-10-06T01:07:52Z</time>
      </trkpt>
      <trkpt lat="43.43128" lon="16.71208">
        <ele>223.007</ele>
        <time>2018-10-06T01:08:12Z</time>
      </trkpt>
      <trkpt lat="43.43134" lon="16.71205">
        <ele>224.027</ele>
        <time>2018-10-06T01:08:32Z</time>
      </trkpt>
      <trkpt lat="43.43142" lon="16.71199">
        <ele>225.008</ele>
        <time>2018-10-06T01:08:52Z</time>
      </trkpt>
      <trkpt lat="43.43154" lon="16.71197">
        <ele>226.051</ele>
        <time>2018-10-06T01:09:12Z</time>
      </trkpt>
      <trkpt lat="43.43159" lon="16.712">
        <ele>227.098</ele>
        <time>2018-10-06T01:09:32Z</time>
      </trkpt>
      <trkpt lat="43.43161" lon="16.712">
        <ele>228.081</ele>
        <time>2018-10-06T01:09:52Z</time>
      </trkpt>
      <trkpt lat="43.43165" lon="16.71199">
        <ele>229.023</ele>
        <time>2018-10-06T01:10:12Z</time>
      </trkpt>
      <trkpt lat="43.43179" lon="16.7119">
        <ele>229.051</ele>
        <time>2018-10-06T01:10:32Z</time>
      </trkpt>
      <trkpt lat="43.43186" lon="16.71186">
        <ele>227.082</ele>
        <time>2018-10-06T01:10:52Z</time>
      </trkpt>
      <trkpt lat="43.43188" lon="16.71186">
        <ele>227.062</ele>
        <time>2018-10-06T01:11:12Z</time>
      </trkpt>
      <trkpt lat="43.4319" lon="16.71184">
        <ele>226.011</ele>
        <time>2018-10-06T01:11:32Z</time>
      </trkpt>
      <trkpt lat="43.43196" lon="16.71182">
        <ele>225.063</ele>
        <time>2018-10-06T01:11:52Z</time>
      </trkpt>
      <trkpt lat="43.43199" lon="16.71183">
        <ele>224.044</ele>
        <time>2018-10-06T01:12:12Z</time>
      </trkpt>
      <trkpt lat="43.43205" lon="16.71181">
        <ele>222.018</ele>
        <time>2018-10-06T01:12:32Z</time>
      </trkpt>
      <trkpt lat="43.43207" lon="16.7118">
        <ele>221.008</ele>
        <time>2018-10-06T01:12:52Z</time>
      </trkpt>
      <trkpt lat="43.43215" lon="16.71181">
        <ele>220.048</ele>
        <time>2018-10-06T01:13:12Z</time>
      </trkpt>
      <trkpt lat="43.43231" lon="16.71187">
        <ele>219.085</ele>
        <time>2018-10-06T01:13:32Z</time>
      </trkpt>
      <trkpt lat="43.43241" lon="16.71186">
        <ele>220.058</ele>
        <time>2018-10-06T01:13:52Z</time>
      </trkpt>
      <trkpt lat="43.43244" lon="16.71182">
        <ele>222.01</ele>
        <time>2018-10-06T01:14:12Z</time>
      </trkpt>
      <trkpt lat="43.43247" lon="16.71179">
        <ele>221.078</ele>
        <time>2018-10-06T01:14:32Z</time>
      </trkpt>
      <trkpt lat="43.4325" lon="16.71176">
        <ele>219.019</ele>
        <time>2018-10-06T01:14:52Z</time>
      </trkpt>
      <trkpt lat="43.43252" lon="16.71174">
        <ele>218.039</ele>
        <time>2018-10-06T01:15:12Z</time>
      </trkpt>
      <trkpt lat="43.43256" lon="16.71172">
        <ele>214.078</ele>
        <time>2018-10-06T01:15:32Z</time>
      </trkpt>
      <trkpt lat="43.43258" lon="16.71169">
        <ele>212.084</ele>
        <time>2018-10-06T01:15:52Z</time>
      </trkpt>
      <trkpt lat="43.43262" lon="16.71162">
        <ele>210.007</ele>
        <time>2018-10-06T01:16:12Z</time>
      </trkpt>
      <trkpt lat="43.43262" lon="16.71157">
        <ele>208.017</ele>
        <time>2018-10-06T01:16:32Z</time>
      </trkpt>
      <trkpt lat="43.43263" lon="16.71152">
        <ele>207.008</ele>
        <time>2018-10-06T01:16:52Z</time>
      </trkpt>
      <trkpt lat="43.43266" lon="16.7115">
        <ele>205.09</ele>
        <time>2018-10-06T01:17:12Z</time>
      </trkpt>
      <trkpt lat="43.4327" lon="16.71144">
        <ele>202.037</ele>
        <time>2018-10-06T01:17:32Z</time>
      </trkpt>
      <trkpt lat="43.43274" lon="16.71141">
        <ele>199.09</ele>
        <time>2018-10-06T01:17:52Z</time>
      </trkpt>
      <trkpt lat="43.4328" lon="16.71135">
        <ele>196.022</ele>
        <time>2018-10-06T01:18:12Z</time>
      </trkpt>
      <trkpt lat="43.43283" lon="16.71131">
        <ele>195.05</ele>
        <time>2018-10-06T01:18:32Z</time>
      </trkpt>
      <trkpt lat="43.43293" lon="16.7112">
        <ele>194.091</ele>
        <time>2018-10-06T01:18:52Z</time>
      </trkpt>
      <trkpt lat="43.43313" lon="16.71111">
        <ele>194.011</ele>
        <time>2018-10-06T01:19:12Z</time>
      </trkpt>
      <trkpt lat="43.43317" lon="16.71107">
        <ele>195.05</ele>
        <time>2018-10-06T01:19:32Z</time>
      </trkpt>
      <trkpt lat="43.43324" lon="16.71101">
        <ele>196.065</ele>
        <time>2018-10-06T01:19:52Z</time>
      </trkpt>
      <trkpt lat="43.43343" lon="16.71088">
        <ele>198.068</ele>
        <time>2018-10-06T01:20:12Z</time>
      </trkpt>
      <trkpt lat="43.43349" lon="16.71085">
        <ele>198.014</ele>
        <time>2018-10-06T01:20:32Z</time>
      </trkpt>
      <trkpt lat="43.43353" lon="16.71083">
        <ele>198.008</ele>
        <time>2018-10-06T01:20:52Z</time>
      </trkpt>
      <trkpt lat="43.43367" lon="16.71086">
        <ele>197.068</ele>
        <time>2018-10-06T01:21:12Z</time>
      </trkpt>
      <trkpt lat="43.4337" lon="16.71085">
        <ele>197.095</ele>
        <time>2018-10-06T01:21:32Z</time>
      </trkpt>
      <trkpt lat="43.43377" lon="16.71078">
        <ele>198.028</ele>
        <time>2018-10-06T01:21:52Z</time>
      </trkpt>
      <trkpt lat="43.43378" lon="16.71076">
        <ele>199.09</ele>
        <time>2018-10-06T01:22:12Z</time>
      </trkpt>
      <trkpt lat="43.4338" lon="16.71074">
        <ele>200.088</ele>
        <time>2018-10-06T01:22:32Z</time>
      </trkpt>
      <trkpt lat="43.43382" lon="16.71066">
        <ele>200.019</ele>
        <time>2018-10-06T01:22:52Z</time>
      </trkpt>
      <trkpt lat="43.43384" lon="16.71064">
        <ele>201.099</ele>
        <time>2018-10-06T01:23:12Z</time>
      </trkpt>
      <trkpt lat="43.43392" lon="16.71058">
        <ele>203.058</ele>
        <time>2018-10-06T01:23:32Z</time>
      </trkpt>
      <trkpt lat="43.43396" lon="16.71057">
        <ele>204.093</ele>
        <time>2018-10-06T01:23:52Z</time>
      </trkpt>
      <trkpt lat="43.43398" lon="16.71057">
        <ele>205.065</ele>
        <time>2018-10-06T01:24:12Z</time>
      </trkpt>
      <trkpt lat="43.43399" lon="16.71057">
        <ele>206.021</ele>
        <time>2018-10-06T01:24:32Z</time>
      </trkpt>
      <trkpt lat="43.43402" lon="16.71053">
        <ele>207.008</ele>
        <time>2018-10-06T01:24:52Z</time>
      </trkpt>
      <trkpt lat="43.43406" lon="16.71047">
        <ele>210.021</ele>
        <time>2018-10-06T01:25:12Z</time>
      </trkpt>
      <trkpt lat="43.43408" lon="16.71045">
        <ele>211.048</ele>
        <time>2018-10-06T01:25:32Z</time>
      </trkpt>
      <trkpt lat="43.43409" lon="16.71044">
        <ele>212.091</ele>
        <time>2018-10-06T01:25:52Z</time>
      </trkpt>
      <trkpt lat="43.43411" lon="16.71046">
        <ele>213.053</ele>
        <time>2018-10-06T01:26:12Z</time>
      </trkpt>
      <trkpt lat="43.43412" lon="16.7104">
        <ele>215.091</ele>
        <time>2018-10-06T01:26:32Z</time>
      </trkpt>
      <trkpt lat="43.43413" lon="16.71036">
        <ele>216.082</ele>
        <time>2018-10-06T01:26:52Z</time>
      </trkpt>
      <trkpt lat="43.43414" lon="16.71023">
        <ele>218.072</ele>
        <time>2018-10-06T01:27:12Z</time>
      </trkpt>
      <trkpt lat="43.43413" lon="16.71015">
        <ele>220.061</ele>
        <time>2018-10-06T01:27:32Z</time>
      </trkpt>
      <trkpt lat="43.43411" lon="16.71005">
        <ele>221.089</ele>
        <time>2018-10-06T01:27:52Z</time>
      </trkpt>
      <trkpt lat="43.43409" lon="16.70999">
        <ele>222.006</ele>
        <time>2018-10-06T01:28:12Z</time>
      </trkpt>
      <trkpt lat="43.43409" lon="16.70998">
        <ele>222.026</ele>
        <time>2018-10-06T01:28:32Z</time>
      </trkpt>
      <trkpt lat="43.43411" lon="16.70995">
        <ele>223.008</ele>
        <time>2018-10-06T01:28:52Z</time>
      </trkpt>
      <trkpt lat="43.43414" lon="16.70991">
        <ele>224.07</ele>
        <time>2018-10-06T01:29:12Z</time>
      </trkpt>
      <trkpt lat="43.43418" lon="16.70991">
        <ele>225.077</ele>
        <time>2018-10-06T01:29:32Z</time>
      </trkpt>
      <trkpt lat="43.43422" lon="16.70986">
        <ele>228.01</ele>
        <time>2018-10-06T01:29:52Z</time>
      </trkpt>
      <trkpt lat="43.43423" lon="16.70983">
        <ele>229.042</ele>
        <time>2018-10-06T01:30:12Z</time>
      </trkpt>
      <trkpt lat="43.43425" lon="16.70988">
        <ele>230.05</ele>
        <time>2018-10-06T01:30:32Z</time>
      </trkpt>
      <trkpt lat="43.43438" lon="16.70985">
        <ele>231.061</ele>
        <time>2018-10-06T01:30:52Z</time>
      </trkpt>
      <trkpt lat="43.43437" lon="16.70981">
        <ele>233.061</ele>
        <time>2018-10-06T01:31:12Z</time>
      </trkpt>
      <trkpt lat="43.43436" lon="16.70978">
        <ele>235.04</ele>
        <time>2018-10-06T01:31:32Z</time>
      </trkpt>
      <trkpt lat="43.43435" lon="16.70976">
        <ele>236.073</ele>
        <time>2018-10-06T01:31:52Z</time>
      </trkpt>
      <trkpt lat="43.43438" lon="16.70979">
        <ele>237.085</ele>
        <time>2018-10-06T01:32:12Z</time>
      </trkpt>
      <trkpt lat="43.43442" lon="16.70974">
        <ele>238.013</ele>
        <time>2018-10-06T01:32:32Z</time>
      </trkpt>
      <trkpt lat="43.4345" lon="16.70981">
        <ele>239.008</ele>
        <time>2018-10-06T01:32:52Z</time>
      </trkpt>
      <trkpt lat="43.43455" lon="16.70979">
        <ele>241.059</ele>
        <time>2018-10-06T01:33:12Z</time>
      </trkpt>
      <trkpt lat="43.43457" lon="16.70978">
        <ele>241.096</ele>
        <time>2018-10-06T01:33:32Z</time>
      </trkpt>
      <trkpt lat="43.43459" lon="16.70978">
        <ele>242.029</ele>
        <time>2018-10-06T01:33:52Z</time>
      </trkpt>
      <trkpt lat="43.43461" lon="16.70975">
        <ele>243.021</ele>
        <time>2018-10-06T01:34:12Z</time>
      </trkpt>
      <trkpt lat="43.43467" lon="16.70957">
        <ele>243.079</ele>
        <time>2018-10-06T01:34:32Z</time>
      </trkpt>
      <trkpt lat="43.43467" lon="16.70953">
        <ele>243.06</ele>
        <time>2018-10-06T01:34:52Z</time>
      </trkpt>
      <trkpt lat="43.43464" lon="16.70936">
        <ele>243.01</ele>
        <time>2018-10-06T01:35:12Z</time>
      </trkpt>
      <trkpt lat="43.43464" lon="16.70933">
        <ele>242.059</ele>
        <time>2018-10-06T01:35:32Z</time>
      </trkpt>
      <trkpt lat="43.43461" lon="16.70929">
        <ele>242.076</ele>
        <time>2018-10-06T01:35:52Z</time>
      </trkpt>
      <trkpt lat="43.43487" lon="16.70916">
        <ele>222.09</ele>
        <time>2018-10-06T01:36:12Z</time>
      </trkpt>
      <trkpt lat="43.43493" lon="16.70916">
        <ele>223.019</ele>
        <time>2018-10-06T01:36:32Z</time>
      </trkpt>
      <trkpt lat="43.43497" lon="16.70916">
        <ele>223.008</ele>
        <time>2018-10-06T01:36:52Z</time>
      </trkpt>
      <trkpt lat="43.43499" lon="16.70915">
        <ele>223.049</ele>
        <time>2018-10-06T01:37:12Z</time>
      </trkpt>
      <trkpt lat="43.43513" lon="16.70911">
        <ele>225.046</ele>
        <time>2018-10-06T01:37:32Z</time>
      </trkpt>
      <trkpt lat="43.4352" lon="16.70911">
        <ele>225.069</ele>
        <time>2018-10-06T01:37:52Z</time>
      </trkpt>
      <trkpt lat="43.43522" lon="16.70912">
        <ele>225.021</ele>
        <time>2018-10-06T01:38:12Z</time>
      </trkpt>
      <trkpt lat="43.43528" lon="16.70916">
        <ele>225.059</ele>
        <time>2018-10-06T01:38:32Z</time>
      </trkpt>
      <trkpt lat="43.4354" lon="16.70915">
        <ele>226.04</ele>
        <time>2018-10-06T01:38:52Z</time>
      </trkpt>
      <trkpt lat="43.43559" lon="16.70918">
        <ele>226.04</ele>
        <time>2018-10-06T01:39:12Z</time>
      </trkpt>
      <trkpt lat="43.43577" lon="16.70911">
        <ele>226.069</ele>
        <time>2018-10-06T01:39:32Z</time>
      </trkpt>
      <trkpt lat="43.43594" lon="16.70903">
        <ele>226.016</ele>
        <time>2018-10-06T01:39:52Z</time>
      </trkpt>
      <trkpt lat="43.43603" lon="16.709">
        <ele>226.076</ele>
        <time>2018-10-06T01:40:12Z</time>
      </trkpt>
      <trkpt lat="43.4362" lon="16.70893">
        <ele>227.013</ele>
        <time>2018-10-06T01:40:32Z</time>
      </trkpt>
      <trkpt lat="43.43624" lon="16.70894">
        <ele>228.008</ele>
        <time>2018-10-06T01:40:52Z</time>
      </trkpt>
      <trkpt lat="43.43635" lon="16.70884">
        <ele>228.023</ele>
        <time>2018-10-06T01:41:12Z</time>
      </trkpt>
      <trkpt lat="43.43652" lon="16.70874">
        <ele>228.05</ele>
        <time>2018-10-06T01:41:32Z</time>
      </trkpt>
      <trkpt lat="43.43666" lon="16.7087">
        <ele>226.053</ele>
        <time>2018-10-06T01:41:52Z</time>
      </trkpt>
      <trkpt lat="43.43675" lon="16.70865">
        <ele>225.065</ele>
        <time>2018-10-06T01:42:12Z</time>
      </trkpt>
      <trkpt lat="43.43692" lon="16.70854">
        <ele>224.053</ele>
        <time>2018-10-06T01:42:32Z</time>
      </trkpt>
      <trkpt lat="43.43696" lon="16.70847">
        <ele>224.084</ele>
        <time>2018-10-06T01:42:52Z</time>
      </trkpt>
      <trkpt lat="43.43694" lon="16.70845">
        <ele>223.024</ele>
        <time>2018-10-06T01:43:12Z</time>
      </trkpt>
      <trkpt lat="43.43693" lon="16.70841">
        <ele>216.083</ele>
        <time>2018-10-06T01:43:32Z</time>
      </trkpt>
      <trkpt lat="43.43696" lon="16.70836">
        <ele>214.057</ele>
        <time>2018-10-06T01:43:52Z</time>
      </trkpt>
      <trkpt lat="43.43698" lon="16.70826">
        <ele>211</ele>
        <time>2018-10-06T01:44:12Z</time>
      </trkpt>
      <trkpt lat="43.437" lon="16.70822">
        <ele>210.02</ele>
        <time>2018-10-06T01:44:32Z</time>
      </trkpt>
      <trkpt lat="43.437" lon="16.70814">
        <ele>208.008</ele>
        <time>2018-10-06T01:44:52Z</time>
      </trkpt>
      <trkpt lat="43.43702" lon="16.70804">
        <ele>205.097</ele>
        <time>2018-10-06T01:45:12Z</time>
      </trkpt>
      <trkpt lat="43.43703" lon="16.70799">
        <ele>204.044</ele>
        <time>2018-10-06T01:45:32Z</time>
      </trkpt>
      <trkpt lat="43.43704" lon="16.70795">
        <ele>203.057</ele>
        <time>2018-10-06T01:45:52Z</time>
      </trkpt>
      <trkpt lat="43.43705" lon="16.70791">
        <ele>201.079</ele>
        <time>2018-10-06T01:46:12Z</time>
      </trkpt>
      <trkpt lat="43.43708" lon="16.70789">
        <ele>200.097</ele>
        <time>2018-10-06T01:46:32Z</time>
      </trkpt>
      <trkpt lat="43.4371" lon="16.70787">
        <ele>200.068</ele>
        <time>2018-10-06T01:46:52Z</time>
      </trkpt>
      <trkpt lat="43.43712" lon="16.70785">
        <ele>199.048</ele>
        <time>2018-10-06T01:47:12Z</time>
      </trkpt>
      <trkpt lat="43.43716" lon="16.70779">
        <ele>197.017</ele>
        <time>2018-10-06T01:47:32Z</time>
      </trkpt>
      <trkpt lat="43.43717" lon="16.70774">
        <ele>195.059</ele>
        <time>2018-10-06T01:47:52Z</time>
      </trkpt>
      <trkpt lat="43.43718" lon="16.70771">
        <ele>194.003</ele>
        <time>2018-10-06T01:48:12Z</time>
      </trkpt>
      <trkpt lat="43.4372" lon="16.70769">
        <ele>193.023</ele>
        <time>2018-10-06T01:48:32Z</time>
      </trkpt>
      <trkpt lat="43.43725" lon="16.70768">
        <ele>192.008</ele>
        <time>2018-10-06T01:48:52Z</time>
      </trkpt>
      <trkpt lat="43.43732" lon="16.70764">
        <ele>191.057</ele>
        <time>2018-10-06T01:49:12Z</time>
      </trkpt>
      <trkpt lat="43.43742" lon="16.70754">
        <ele>190.074</ele>
        <time>2018-10-06T01:49:32Z</time>
      </trkpt>
      <trkpt lat="43.43744" lon="16.70751">
        <ele>189.027</ele>
        <time>2018-10-06T01:49:52Z</time>
      </trkpt>
      <trkpt lat="43.4375" lon="16.70741">
        <ele>188.099</ele>
        <time>2018-10-06T01:50:12Z</time>
      </trkpt>
      <trkpt lat="43.43758" lon="16.70738">
        <ele>187.017</ele>
        <time>2018-10-06T01:50:32Z</time>
      </trkpt>
      <trkpt lat="43.43781" lon="16.70735">
        <ele>187.068</ele>
        <time>2018-10-06T01:50:52Z</time>
      </trkpt>
      <trkpt lat="43.43789" lon="16.70732">
        <ele>188.098</ele>
        <time>2018-10-06T01:51:12Z</time>
      </trkpt>
      <trkpt lat="43.43804" lon="16.70715">
        <ele>187.097</ele>
        <time>2018-10-06T01:51:32Z</time>
      </trkpt>
      <trkpt lat="43.43813" lon="16.70708">
        <ele>186.031</ele>
        <time>2018-10-06T01:51:52Z</time>
      </trkpt>
      <trkpt lat="43.43818" lon="16.70701">
        <ele>185.061</ele>
        <time>2018-10-06T01:52:12Z</time>
      </trkpt>
      <trkpt lat="43.43819" lon="16.70699">
        <ele>185.007</ele>
        <time>2018-10-06T01:52:32Z</time>
      </trkpt>
      <trkpt lat="43.4382" lon="16.70695">
        <ele>183.008</ele>
        <time>2018-10-06T01:52:52Z</time>
      </trkpt>
      <trkpt lat="43.43825" lon="16.70689">
        <ele>182.065</ele>
        <time>2018-10-06T01:53:12Z</time>
      </trkpt>
      <trkpt lat="43.43834" lon="16.70681">
        <ele>181.032</ele>
        <time>2018-10-06T01:53:32Z</time>
      </trkpt>
      <trkpt lat="43.4384" lon="16.70674">
        <ele>179.055</ele>
        <time>2018-10-06T01:53:52Z</time>
      </trkpt>
      <trkpt lat="43.43846" lon="16.70665">
        <ele>178.047</ele>
        <time>2018-10-06T01:54:12Z</time>
      </trkpt>
      <trkpt lat="43.43853" lon="16.70657">
        <ele>177.065</ele>
        <time>2018-10-06T01:54:32Z</time>
      </trkpt>
      <trkpt lat="43.43862" lon="16.70651">
        <ele>176.036</ele>
        <time>2018-10-06T01:54:52Z</time>
      </trkpt>
      <trkpt lat="43.43872" lon="16.70638">
        <ele>175.066</ele>
        <time>2018-10-06T01:55:12Z</time>
      </trkpt>
      <trkpt lat="43.43875" lon="16.70633">
        <ele>174.045</ele>
        <time>2018-10-06T01:55:32Z</time>
      </trkpt>
      <trkpt lat="43.43882" lon="16.70625">
        <ele>174.096</ele>
        <time>2018-10-06T01:55:52Z</time>
      </trkpt>
      <trkpt lat="43.43895" lon="16.7061">
        <ele>172.031</ele>
        <time>2018-10-06T01:56:12Z</time>
      </trkpt>
      <trkpt lat="43.43903" lon="16.70601">
        <ele>170.024</ele>
        <time>2018-10-06T01:56:32Z</time>
      </trkpt>
      <trkpt lat="43.43909" lon="16.70595">
        <ele>169.008</ele>
        <time>2018-10-06T01:56:52Z</time>
      </trkpt>
      <trkpt lat="43.43916" lon="16.70592">
        <ele>168.011</ele>
        <time>2018-10-06T01:57:12Z</time>
      </trkpt>
      <trkpt lat="43.43922" lon="16.70583">
        <ele>166.038</ele>
        <time>2018-10-06T01:57:32Z</time>
      </trkpt>
      <trkpt lat="43.43921" lon="16.7058">
        <ele>165.041</ele>
        <time>2018-10-06T01:57:52Z</time>
      </trkpt>
      <trkpt lat="43.43926" lon="16.70575">
        <ele>164.013</ele>
        <time>2018-10-06T01:58:12Z</time>
      </trkpt>
      <trkpt lat="43.43928" lon="16.70572">
        <ele>163.031</ele>
        <time>2018-10-06T01:58:32Z</time>
      </trkpt>
      <trkpt lat="43.43929" lon="16.70571">
        <ele>162.062</ele>
        <time>2018-10-06T01:58:52Z</time>
      </trkpt>
      <trkpt lat="43.43931" lon="16.70569">
        <ele>161.052</ele>
        <time>2018-10-06T01:59:12Z</time>
      </trkpt>
      <trkpt lat="43.43932" lon="16.70567">
        <ele>160.091</ele>
        <time>2018-10-06T01:59:32Z</time>
      </trkpt>
      <trkpt lat="43.43935" lon="16.70558">
        <ele>159.073</ele>
        <time>2018-10-06T01:59:52Z</time>
      </trkpt>
      <trkpt lat="43.4394" lon="16.70553">
        <ele>158.085</ele>
        <time>2018-10-06T02:00:12Z</time>
      </trkpt>
      <trkpt lat="43.43948" lon="16.70551">
        <ele>158.013</ele>
        <time>2018-10-06T02:00:32Z</time>
      </trkpt>
      <trkpt lat="43.43958" lon="16.70544">
        <ele>157.008</ele>
        <time>2018-10-06T02:00:52Z</time>
      </trkpt>
      <trkpt lat="43.43959" lon="16.70537">
        <ele>155.039</ele>
        <time>2018-10-06T02:01:12Z</time>
      </trkpt>
      <trkpt lat="43.43961" lon="16.70532">
        <ele>154.026</ele>
        <time>2018-10-06T02:01:32Z</time>
      </trkpt>
      <trkpt lat="43.43961" lon="16.70531">
        <ele>153.079</ele>
        <time>2018-10-06T02:01:52Z</time>
      </trkpt>
      <trkpt lat="43.43963" lon="16.70524">
        <ele>152.071</ele>
        <time>2018-10-06T02:02:12Z</time>
      </trkpt>
      <trkpt lat="43.43971" lon="16.70515">
        <ele>150.089</ele>
        <time>2018-10-06T02:02:32Z</time>
      </trkpt>
      <trkpt lat="43.44001" lon="16.70478">
        <ele>142.08</ele>
        <time>2018-10-06T02:02:52Z</time>
      </trkpt>
      <trkpt lat="43.44019" lon="16.70467">
        <ele>142.01</ele>
        <time>2018-10-06T02:03:12Z</time>
      </trkpt>
      <trkpt lat="43.44031" lon="16.70457">
        <ele>141.039</ele>
        <time>2018-10-06T02:03:32Z</time>
      </trkpt>
      <trkpt lat="43.44044" lon="16.70437">
        <ele>141.064</ele>
        <time>2018-10-06T02:03:52Z</time>
      </trkpt>
      <trkpt lat="43.44051" lon="16.70424">
        <ele>141.006</ele>
        <time>2018-10-06T02:04:12Z</time>
      </trkpt>
      <trkpt lat="43.44053" lon="16.70396">
        <ele>139.016</ele>
        <time>2018-10-06T02:04:32Z</time>
      </trkpt>
      <trkpt lat="43.44056" lon="16.70386">
        <ele>137.008</ele>
        <time>2018-10-06T02:04:52Z</time>
      </trkpt>
      <trkpt lat="43.44055" lon="16.70367">
        <ele>135.058</ele>
        <time>2018-10-06T02:05:12Z</time>
      </trkpt>
      <trkpt lat="43.44054" lon="16.70361">
        <ele>132.055</ele>
        <time>2018-10-06T02:05:32Z</time>
      </trkpt>
      <trkpt lat="43.44051" lon="16.70355">
        <ele>131.078</ele>
        <time>2018-10-06T02:05:52Z</time>
      </trkpt>
      <trkpt lat="43.44043" lon="16.70343">
        <ele>128.08</ele>
        <time>2018-10-06T02:06:12Z</time>
      </trkpt>
      <trkpt lat="43.44038" lon="16.70335">
        <ele>126.088</ele>
        <time>2018-10-06T02:06:32Z</time>
      </trkpt>
      <trkpt lat="43.44036" lon="16.70328">
        <ele>124.069</ele>
        <time>2018-10-06T02:06:52Z</time>
      </trkpt>
      <trkpt lat="43.44037" lon="16.70317">
        <ele>122.049</ele>
        <time>2018-10-06T02:07:12Z</time>
      </trkpt>
      <trkpt lat="43.44039" lon="16.70306">
        <ele>120.018</ele>
        <time>2018-10-06T02:07:32Z</time>
      </trkpt>
      <trkpt lat="43.4404" lon="16.70301">
        <ele>119.023</ele>
        <time>2018-10-06T02:07:52Z</time>
      </trkpt>
      <trkpt lat="43.44043" lon="16.70291">
        <ele>116.083</ele>
        <time>2018-10-06T02:08:12Z</time>
      </trkpt>
      <trkpt lat="43.44042" lon="16.70277">
        <ele>114.011</ele>
        <time>2018-10-06T02:08:32Z</time>
      </trkpt>
      <trkpt lat="43.44037" lon="16.70269">
        <ele>112.008</ele>
        <time>2018-10-06T02:08:52Z</time>
      </trkpt>
      <trkpt lat="43.44034" lon="16.70266">
        <ele>111.094</ele>
        <time>2018-10-06T02:09:12Z</time>
      </trkpt>
      <trkpt lat="43.4403" lon="16.70263">
        <ele>111.051</ele>
        <time>2018-10-06T02:09:32Z</time>
      </trkpt>
      <trkpt lat="43.44032" lon="16.70255">
        <ele>109.014</ele>
        <time>2018-10-06T02:09:52Z</time>
      </trkpt>
      <trkpt lat="43.44038" lon="16.7024">
        <ele>107.026</ele>
        <time>2018-10-06T02:10:12Z</time>
      </trkpt>
      <trkpt lat="43.44042" lon="16.70229">
        <ele>106.094</ele>
        <time>2018-10-06T02:10:32Z</time>
      </trkpt>
      <trkpt lat="43.44051" lon="16.70219">
        <ele>105.095</ele>
        <time>2018-10-06T02:10:52Z</time>
      </trkpt>
      <trkpt lat="43.44062" lon="16.70206">
        <ele>103.095</ele>
        <time>2018-10-06T02:11:12Z</time>
      </trkpt>
      <trkpt lat="43.44067" lon="16.70197">
        <ele>102.054</ele>
        <time>2018-10-06T02:11:32Z</time>
      </trkpt>
      <trkpt lat="43.44069" lon="16.70191">
        <ele>102.077</ele>
        <time>2018-10-06T02:11:52Z</time>
      </trkpt>
      <trkpt lat="43.44076" lon="16.7018">
        <ele>101.061</ele>
        <time>2018-10-06T02:12:12Z</time>
      </trkpt>
      <trkpt lat="43.4408" lon="16.70172">
        <ele>99.027</ele>
        <time>2018-10-06T02:12:32Z</time>
      </trkpt>
      <trkpt lat="43.44113" lon="16.70092">
        <ele>89.008</ele>
        <time>2018-10-06T02:12:52Z</time>
      </trkpt>
      <trkpt lat="43.44117" lon="16.70081">
        <ele>90.029</ele>
        <time>2018-10-06T02:13:12Z</time>
      </trkpt>
      <trkpt lat="43.44118" lon="16.70077">
        <ele>90.086</ele>
        <time>2018-10-06T02:13:32Z</time>
      </trkpt>
      <trkpt lat="43.44121" lon="16.70076">
        <ele>91.069</ele>
        <time>2018-10-06T02:13:52Z</time>
      </trkpt>
      <trkpt lat="43.44125" lon="16.70066">
        <ele>91.071</ele>
        <time>2018-10-06T02:14:12Z</time>
      </trkpt>
      <trkpt lat="43.44127" lon="16.70064">
        <ele>92.029</ele>
        <time>2018-10-06T02:14:32Z</time>
      </trkpt>
      <trkpt lat="43.44129" lon="16.70063">
        <ele>92.06</ele>
        <time>2018-10-06T02:14:52Z</time>
      </trkpt>
      <trkpt lat="43.44131" lon="16.70062">
        <ele>93.08</ele>
        <time>2018-10-06T02:15:12Z</time>
      </trkpt>
      <trkpt lat="43.44131" lon="16.70051">
        <ele>94.019</ele>
        <time>2018-10-06T02:15:32Z</time>
      </trkpt>
      <trkpt lat="43.44129" lon="16.70046">
        <ele>92.012</ele>
        <time>2018-10-06T02:15:52Z</time>
      </trkpt>
      <trkpt lat="43.44129" lon="16.70046">
        <ele>92.032</ele>
        <time>2018-10-06T02:16:12Z</time>
      </trkpt>
      <trkpt lat="43.44129" lon="16.70045">
        <ele>91.005</ele>
        <time>2018-10-06T02:16:32Z</time>
      </trkpt>
      <trkpt lat="43.44128" lon="16.70044">
        <ele>90.008</ele>
        <time>2018-10-06T02:16:52Z</time>
      </trkpt>
      <trkpt lat="43.44124" lon="16.70037">
        <ele>90.063</ele>
        <time>2018-10-06T02:17:12Z</time>
      </trkpt>
      <trkpt lat="43.44119" lon="16.70031">
        <ele>87.07</ele>
        <time>2018-10-06T02:17:32Z</time>
      </trkpt>
      <trkpt lat="43.44114" lon="16.70022">
        <ele>85.033</ele>
        <time>2018-10-06T02:17:52Z</time>
      </trkpt>
      <trkpt lat="43.44113" lon="16.7002">
        <ele>84.025</ele>
        <time>2018-10-06T02:18:12Z</time>
      </trkpt>
      <trkpt lat="43.44113" lon="16.70016">
        <ele>83.033</ele>
        <time>2018-10-06T02:18:32Z</time>
      </trkpt>
      <trkpt lat="43.44114" lon="16.70011">
        <ele>82.064</ele>
        <time>2018-10-06T02:18:52Z</time>
      </trkpt>
      <trkpt lat="43.44113" lon="16.70005">
        <ele>81.044</ele>
        <time>2018-10-06T02:19:12Z</time>
      </trkpt>
      <trkpt lat="43.44116" lon="16.69999">
        <ele>79.043</ele>
        <time>2018-10-06T02:19:32Z</time>
      </trkpt>
      <trkpt lat="43.44122" lon="16.69994">
        <ele>77.029</ele>
        <time>2018-10-06T02:19:52Z</time>
      </trkpt>
      <trkpt lat="43.44125" lon="16.69989">
        <ele>76</ele>
        <time>2018-10-06T02:20:12Z</time>
      </trkpt>
      <trkpt lat="43.44128" lon="16.69985">
        <ele>75.02</ele>
        <time>2018-10-06T02:20:32Z</time>
      </trkpt>
      <trkpt lat="43.44136" lon="16.69971">
        <ele>73.008</ele>
        <time>2018-10-06T02:20:52Z</time>
      </trkpt>
      <trkpt lat="43.44137" lon="16.69965">
        <ele>71.074</ele>
        <time>2018-10-06T02:21:12Z</time>
      </trkpt>
      <trkpt lat="43.44138" lon="16.69955">
        <ele>69.031</ele>
        <time>2018-10-06T02:21:32Z</time>
      </trkpt>
      <trkpt lat="43.44138" lon="16.69951">
        <ele>68.044</ele>
        <time>2018-10-06T02:21:52Z</time>
      </trkpt>
      <trkpt lat="43.44137" lon="16.69948">
        <ele>67.026</ele>
        <time>2018-10-06T02:22:12Z</time>
      </trkpt>
      <trkpt lat="43.44137" lon="16.69942">
        <ele>65.014</ele>
        <time>2018-10-06T02:22:32Z</time>
      </trkpt>
      <trkpt lat="43.44137" lon="16.69939">
        <ele>64.095</ele>
        <time>2018-10-06T02:22:52Z</time>
      </trkpt>
      <trkpt lat="43.44136" lon="16.69929">
        <ele>62.055</ele>
        <time>2018-10-06T02:23:12Z</time>
      </trkpt>
      <trkpt lat="43.44136" lon="16.69927">
        <ele>62.014</ele>
        <time>2018-10-06T02:23:32Z</time>
      </trkpt>
      <trkpt lat="43.44136" lon="16.6992">
        <ele>61.099</ele>
        <time>2018-10-06T02:23:52Z</time>
      </trkpt>
      <trkpt lat="43.44137" lon="16.6991">
        <ele>59.007</ele>
        <time>2018-10-06T02:24:12Z</time>
      </trkpt>
      <trkpt lat="43.44137" lon="16.69906">
        <ele>58.027</ele>
        <time>2018-10-06T02:24:32Z</time>
      </trkpt>
      <trkpt lat="43.44137" lon="16.69904">
        <ele>57.008</ele>
        <time>2018-10-06T02:24:52Z</time>
      </trkpt>
      <trkpt lat="43.44138" lon="16.69897">
        <ele>55.081</ele>
        <time>2018-10-06T02:25:12Z</time>
      </trkpt>
      <trkpt lat="43.44136" lon="16.6989">
        <ele>52.078</ele>
        <time>2018-10-06T02:25:32Z</time>
      </trkpt>
      <trkpt lat="43.44133" lon="16.69883">
        <ele>50.031</ele>
        <time>2018-10-06T02:25:52Z</time>
      </trkpt>
      <trkpt lat="43.44131" lon="16.69879">
        <ele>49.083</ele>
        <time>2018-10-06T02:26:12Z</time>
      </trkpt>
      <trkpt lat="43.44126" lon="16.69868">
        <ele>47.091</ele>
        <time>2018-10-06T02:26:32Z</time>
      </trkpt>
      <trkpt lat="43.44127" lon="16.69859">
        <ele>47.092</ele>
        <time>2018-10-06T02:26:52Z</time>
      </trkpt>
      <trkpt lat="43.44133" lon="16.69841">
        <ele>45.072</ele>
        <time>2018-10-06T02:27:12Z</time>
      </trkpt>
      <trkpt lat="43.44139" lon="16.69834">
        <ele>45.041</ele>
        <time>2018-10-06T02:27:32Z</time>
      </trkpt>
      <trkpt lat="43.44146" lon="16.69826">
        <ele>44.035</ele>
        <time>2018-10-06T02:27:52Z</time>
      </trkpt>
      <trkpt lat="43.44154" lon="16.69814">
        <ele>43.086</ele>
        <time>2018-10-06T02:28:12Z</time>
      </trkpt>
      <trkpt lat="43.44162" lon="16.69804">
        <ele>42.014</ele>
        <time>2018-10-06T02:28:32Z</time>
      </trkpt>
      <trkpt lat="43.44174" lon="16.69789">
        <ele>41.008</ele>
        <time>2018-10-06T02:28:52Z</time>
      </trkpt>
      <trkpt lat="43.44181" lon="16.69776">
        <ele>40.035</ele>
        <time>2018-10-06T02:29:12Z</time>
      </trkpt>
      <trkpt lat="43.4419" lon="16.69762">
        <ele>39.032</ele>
        <time>2018-10-06T02:29:32Z</time>
      </trkpt>
      <trkpt lat="43.44198" lon="16.69749">
        <ele>38.095</ele>
        <time>2018-10-06T02:29:52Z</time>
      </trkpt>
      <trkpt lat="43.44196" lon="16.69742">
        <ele>38.057</ele>
        <time>2018-10-06T02:30:12Z</time>
      </trkpt>
      <trkpt lat="43.44191" lon="16.69736">
        <ele>35.085</ele>
        <time>2018-10-06T02:30:32Z</time>
      </trkpt>
      <trkpt lat="43.44191" lon="16.69736">
        <ele>35.016</ele>
        <time>2018-10-06T02:30:52Z</time>
      </trkpt>
      <trkpt lat="43.44189" lon="16.69733">
        <ele>34.046</ele>
        <time>2018-10-06T02:31:12Z</time>
      </trkpt>
      <trkpt lat="43.44186" lon="16.69733">
        <ele>32.015</ele>
        <time>2018-10-06T02:31:32Z</time>
      </trkpt>
      <trkpt lat="43.44185" lon="16.69733">
        <ele>32.048</ele>
        <time>2018-10-06T02:31:52Z</time>
      </trkpt>
      <trkpt lat="43.44184" lon="16.69732">
        <ele>31.061</ele>
        <time>2018-10-06T02:32:12Z</time>
      </trkpt>
      <trkpt lat="43.4418" lon="16.69728">
        <ele>30.017</ele>
        <time>2018-10-06T02:32:32Z</time>
      </trkpt>
      <trkpt lat="43.44174" lon="16.69717">
        <ele>28.008</ele>
        <time>2018-10-06T02:32:52Z</time>
      </trkpt>
      <trkpt lat="43.44174" lon="16.69716">
        <ele>28.046</ele>
        <time>2018-10-06T02:33:12Z</time>
      </trkpt>
      <trkpt lat="43.44173" lon="16.69715">
        <ele>28.063</ele>
        <time>2018-10-06T02:33:32Z</time>
      </trkpt>
      <trkpt lat="43.44187" lon="16.69693">
        <ele>25.036</ele>
        <time>2018-10-06T02:33:52Z</time>
      </trkpt>
      <trkpt lat="43.44189" lon="16.6969">
        <ele>24.028</ele>
        <time>2018-10-06T02:34:12Z</time>
      </trkpt>
      <trkpt lat="43.44194" lon="16.69685">
        <ele>24.036</ele>
        <time>2018-10-06T02:34:32Z</time>
      </trkpt>
      <trkpt lat="43.44196" lon="16.69682">
        <ele>24.097</ele>
        <time>2018-10-06T02:34:52Z</time>
      </trkpt>
      <trkpt lat="43.44207" lon="16.69666">
        <ele>23.097</ele>
        <time>2018-10-06T02:35:12Z</time>
      </trkpt>
      <trkpt lat="43.44207" lon="16.69664">
        <ele>23.026</ele>
        <time>2018-10-06T02:35:32Z</time>
      </trkpt>
      <trkpt lat="43.44206" lon="16.69652">
        <ele>22.048</ele>
        <time>2018-10-06T02:35:52Z</time>
      </trkpt>
      <trkpt lat="43.44201" lon="16.6964">
        <ele>19.061</ele>
        <time>2018-10-06T02:36:12Z</time>
      </trkpt>
      <trkpt lat="43.442" lon="16.69636">
        <ele>18.017</ele>
        <time>2018-10-06T02:36:32Z</time>
      </trkpt>
      <trkpt lat="43.44213" lon="16.69618">
        <ele>16.008</ele>
        <time>2018-10-06T02:36:52Z</time>
      </trkpt>
      <trkpt lat="43.44228" lon="16.69596">
        <ele>15.096</ele>
        <time>2018-10-06T02:37:12Z</time>
      </trkpt>
      <trkpt lat="43.44238" lon="16.69584">
        <ele>14.063</ele>
        <time>2018-10-06T02:37:32Z</time>
      </trkpt>
      <trkpt lat="43.44239" lon="16.69582">
        <ele>14.016</ele>
        <time>2018-10-06T02:37:52Z</time>
      </trkpt>
      <trkpt lat="43.44241" lon="16.6958">
        <ele>14.038</ele>
        <time>2018-10-06T02:38:12Z</time>
      </trkpt>
      <trkpt lat="43.44237" lon="16.69573">
        <ele>13.076</ele>
        <time>2018-10-06T02:38:32Z</time>
      </trkpt>
      <trkpt lat="43.44235" lon="16.6957">
        <ele>11.067</ele>
        <time>2018-10-06T02:38:52Z</time>
      </trkpt>
      <trkpt lat="43.44231" lon="16.69564">
        <ele>9.017</ele>
        <time>2018-10-06T02:39:12Z</time>
      </trkpt>
      <trkpt lat="43.44226" lon="16.6956">
        <ele>8.096</ele>
        <time>2018-10-06T02:39:32Z</time>
      </trkpt>
      <trkpt lat="43.44222" lon="16.69557">
        <ele>6.033</ele>
        <time>2018-10-06T02:39:52Z</time>
      </trkpt>
      <trkpt lat="43.44218" lon="16.69552">
        <ele>5.023</ele>
        <time>2018-10-06T02:40:12Z</time>
      </trkpt>
      <trkpt lat="43.44217" lon="16.6955">
        <ele>4.015</ele>
        <time>2018-10-06T02:40:32Z</time>
      </trkpt>
      <trkpt lat="43.44214" lon="16.69548">
        <ele>4.008</ele>
        <time>2018-10-06T02:40:52Z</time>
      </trkpt>
      <trkpt lat="43.44211" lon="16.69545">
        <ele>3.085</ele>
        <time>2018-10-06T02:41:12Z</time>
      </trkpt>
      <trkpt lat="43.44208" lon="16.6954">
        <ele>0.052</ele>
        <time>2018-10-06T02:41:32Z</time>
      </trkpt>
      <trkpt lat="43.4421" lon="16.69528">
        <ele>-2.065</ele>
        <time>2018-10-06T02:41:52Z</time>
      </trkpt>
      <trkpt lat="43.44213" lon="16.69523">
        <ele>-2.067</ele>
        <time>2018-10-06T02:42:12Z</time>
      </trkpt>
      <trkpt lat="43.44219" lon="16.69498">
        <ele>-2.085</ele>
        <time>2018-10-06T02:42:32Z</time>
      </trkpt>
      <trkpt lat="43.44235" lon="16.69485">
        <ele>-2.046</ele>
        <time>2018-10-06T02:42:52Z</time>
      </trkpt>
      <trkpt lat="43.44244" lon="16.69477">
        <ele>-3.026</ele>
        <time>2018-10-06T02:43:12Z</time>
      </trkpt>
      <trkpt lat="43.44244" lon="16.69474">
        <ele>-3.095</ele>
        <time>2018-10-06T02:43:32Z</time>
      </trkpt>
      <trkpt lat="43.44242" lon="16.69465">
        <ele>-3.014</ele>
        <time>2018-10-06T02:43:52Z</time>
      </trkpt>
      <trkpt lat="43.44238" lon="16.69457">
        <ele>-3.054</ele>
        <time>2018-10-06T02:44:12Z</time>
      </trkpt>
      <trkpt lat="43.44254" lon="16.69443">
        <ele>-3.009</ele>
        <time>2018-10-06T02:44:32Z</time>
      </trkpt>
      <trkpt lat="43.4426" lon="16.69432">
        <ele>-3.008</ele>
        <time>2018-10-06T02:44:52Z</time>
      </trkpt>
      <trkpt lat="43.4425" lon="16.6941">
        <ele>-2.073</ele>
        <time>2018-10-06T02:45:12Z</time>
      </trkpt>
      <trkpt lat="43.44254" lon="16.69381">
        <ele>-3.08</ele>
        <time>2018-10-06T02:45:32Z</time>
      </trkpt>
      <trkpt lat="43.44255" lon="16.69378">
        <ele>-3.013</ele>
        <time>2018-10-06T02:45:52Z</time>
      </trkpt>
      <trkpt lat="43.44252" lon="16.69354">
        <ele>-3.045</ele>
        <time>2018-10-06T02:46:12Z</time>
      </trkpt>
      <trkpt lat="43.44242" lon="16.69332">
        <ele>-4.013</ele>
        <time>2018-10-06T02:46:32Z</time>
      </trkpt>
      <trkpt lat="43.44234" lon="16.69308">
        <ele>-3.044</ele>
        <time>2018-10-06T02:46:52Z</time>
      </trkpt>
      <trkpt lat="43.44228" lon="16.69286">
        <ele>0.044</ele>
        <time>2018-10-06T02:47:12Z</time>
      </trkpt>
    </trkseg>
  </trk>
</gpx>